<?xml version="1.0" encoding="UTF-8" standalone="no" ?>
<gpx xmlns="http://www.topografix.com/GPX/1/1" xmlns:xsi="http://www.w3.org/2001/XMLSchema-instance" xsi:schemaLocation="http://www.topografix.com/GPX/1/1 http://www.topografix.com/GPX/1/1/gpx.xsd" version="1.1" creator="VisuGPX - https://www.visugpx.com">
  <metadata>
    <name>Promenade cadaques</name>
  </metadata>
  <trk>
    <name><![CDATA[Promenade cadaques_1]]></name>
    <trkseg>
      <trkpt lat="42.28644" lon="3.28272">
        <ele>11.7</ele>
        <time>2024-11-10T09:18:34Z</time>
      </trkpt>
      <trkpt lat="42.28643" lon="3.28272">
        <ele>11.7</ele>
        <time>2024-11-10T09:18:35Z</time>
      </trkpt>
      <trkpt lat="42.28643" lon="3.28273">
        <ele>11.7</ele>
        <time>2024-11-10T09:18:36Z</time>
      </trkpt>
      <trkpt lat="42.28642" lon="3.28274">
        <ele>11.7</ele>
        <time>2024-11-10T09:18:37Z</time>
      </trkpt>
      <trkpt lat="42.28641" lon="3.28276">
        <ele>11.8</ele>
        <time>2024-11-10T09:18:38Z</time>
      </trkpt>
      <trkpt lat="42.2864" lon="3.28277">
        <ele>11.8</ele>
        <time>2024-11-10T09:18:39Z</time>
      </trkpt>
      <trkpt lat="42.2864" lon="3.28278">
        <ele>11.8</ele>
        <time>2024-11-10T09:18:40Z</time>
      </trkpt>
      <trkpt lat="42.28639" lon="3.28279">
        <ele>11.8</ele>
        <time>2024-11-10T09:18:41Z</time>
      </trkpt>
      <trkpt lat="42.28639" lon="3.2828">
        <ele>11.8</ele>
        <time>2024-11-10T09:18:42Z</time>
      </trkpt>
      <trkpt lat="42.28638" lon="3.28281">
        <ele>11.8</ele>
        <time>2024-11-10T09:18:43Z</time>
      </trkpt>
      <trkpt lat="42.28637" lon="3.28282">
        <ele>11.9</ele>
        <time>2024-11-10T09:18:44Z</time>
      </trkpt>
      <trkpt lat="42.28636" lon="3.28283">
        <ele>11.9</ele>
        <time>2024-11-10T09:18:45Z</time>
      </trkpt>
      <trkpt lat="42.28635" lon="3.28284">
        <ele>11.9</ele>
        <time>2024-11-10T09:18:46Z</time>
      </trkpt>
      <trkpt lat="42.28635" lon="3.28285">
        <ele>11.9</ele>
        <time>2024-11-10T09:18:47Z</time>
      </trkpt>
      <trkpt lat="42.28634" lon="3.28286">
        <ele>11.9</ele>
        <time>2024-11-10T09:18:48Z</time>
      </trkpt>
      <trkpt lat="42.28633" lon="3.28287">
        <ele>11.9</ele>
        <time>2024-11-10T09:18:49Z</time>
      </trkpt>
      <trkpt lat="42.28632" lon="3.28288">
        <ele>12</ele>
        <time>2024-11-10T09:18:50Z</time>
      </trkpt>
      <trkpt lat="42.28632" lon="3.2829">
        <ele>12</ele>
        <time>2024-11-10T09:18:51Z</time>
      </trkpt>
      <trkpt lat="42.28631" lon="3.28291">
        <ele>12</ele>
        <time>2024-11-10T09:18:52Z</time>
      </trkpt>
      <trkpt lat="42.28631" lon="3.28292">
        <ele>12</ele>
        <time>2024-11-10T09:18:53Z</time>
      </trkpt>
      <trkpt lat="42.2863" lon="3.28292">
        <ele>12</ele>
        <time>2024-11-10T09:18:54Z</time>
      </trkpt>
      <trkpt lat="42.28629" lon="3.28293">
        <ele>12</ele>
        <time>2024-11-10T09:18:55Z</time>
      </trkpt>
      <trkpt lat="42.28628" lon="3.28294">
        <ele>12.1</ele>
        <time>2024-11-10T09:18:56Z</time>
      </trkpt>
      <trkpt lat="42.28628" lon="3.28295">
        <ele>12.1</ele>
        <time>2024-11-10T09:18:57Z</time>
      </trkpt>
      <trkpt lat="42.28627" lon="3.28296">
        <ele>12.1</ele>
        <time>2024-11-10T09:18:58Z</time>
      </trkpt>
      <trkpt lat="42.28627" lon="3.28297">
        <ele>12.1</ele>
        <time>2024-11-10T09:18:59Z</time>
      </trkpt>
      <trkpt lat="42.28626" lon="3.28298">
        <ele>12.1</ele>
        <time>2024-11-10T09:19:00Z</time>
      </trkpt>
      <trkpt lat="42.28625" lon="3.28299">
        <ele>12.1</ele>
        <time>2024-11-10T09:19:01Z</time>
      </trkpt>
      <trkpt lat="42.28625" lon="3.283">
        <ele>12.2</ele>
        <time>2024-11-10T09:19:02Z</time>
      </trkpt>
      <trkpt lat="42.28624" lon="3.28301">
        <ele>12.2</ele>
        <time>2024-11-10T09:19:03Z</time>
      </trkpt>
      <trkpt lat="42.28624" lon="3.28302">
        <ele>12.2</ele>
        <time>2024-11-10T09:19:04Z</time>
      </trkpt>
      <trkpt lat="42.28622" lon="3.28304">
        <ele>12.2</ele>
        <time>2024-11-10T09:19:05Z</time>
      </trkpt>
      <trkpt lat="42.28622" lon="3.28305">
        <ele>12.2</ele>
        <time>2024-11-10T09:19:06Z</time>
      </trkpt>
      <trkpt lat="42.28621" lon="3.28306">
        <ele>12.2</ele>
        <time>2024-11-10T09:19:07Z</time>
      </trkpt>
      <trkpt lat="42.28621" lon="3.28307">
        <ele>12.2</ele>
        <time>2024-11-10T09:19:08Z</time>
      </trkpt>
      <trkpt lat="42.2862" lon="3.28308">
        <ele>12.3</ele>
        <time>2024-11-10T09:19:09Z</time>
      </trkpt>
      <trkpt lat="42.28619" lon="3.28308">
        <ele>12.3</ele>
        <time>2024-11-10T09:19:10Z</time>
      </trkpt>
      <trkpt lat="42.28618" lon="3.28309">
        <ele>12.3</ele>
        <time>2024-11-10T09:19:11Z</time>
      </trkpt>
      <trkpt lat="42.28617" lon="3.2831">
        <ele>12.3</ele>
        <time>2024-11-10T09:19:13Z</time>
      </trkpt>
      <trkpt lat="42.28615" lon="3.28312">
        <ele>12.3</ele>
        <time>2024-11-10T09:19:14Z</time>
      </trkpt>
      <trkpt lat="42.28614" lon="3.28313">
        <ele>12.4</ele>
        <time>2024-11-10T09:19:15Z</time>
      </trkpt>
      <trkpt lat="42.28613" lon="3.28314">
        <ele>12.4</ele>
        <time>2024-11-10T09:19:16Z</time>
      </trkpt>
      <trkpt lat="42.28613" lon="3.28315">
        <ele>12.4</ele>
        <time>2024-11-10T09:19:18Z</time>
      </trkpt>
      <trkpt lat="42.28609" lon="3.28318">
        <ele>12.4</ele>
        <time>2024-11-10T09:19:22Z</time>
      </trkpt>
      <trkpt lat="42.28608" lon="3.28319">
        <ele>12.5</ele>
        <time>2024-11-10T09:19:23Z</time>
      </trkpt>
      <trkpt lat="42.28607" lon="3.28321">
        <ele>12.5</ele>
        <time>2024-11-10T09:19:24Z</time>
      </trkpt>
      <trkpt lat="42.28607" lon="3.28323">
        <ele>12.5</ele>
        <time>2024-11-10T09:19:25Z</time>
      </trkpt>
      <trkpt lat="42.28605" lon="3.28325">
        <ele>12.6</ele>
        <time>2024-11-10T09:19:26Z</time>
      </trkpt>
      <trkpt lat="42.28605" lon="3.28326">
        <ele>12.6</ele>
        <time>2024-11-10T09:19:27Z</time>
      </trkpt>
      <trkpt lat="42.28604" lon="3.28327">
        <ele>12.6</ele>
        <time>2024-11-10T09:19:28Z</time>
      </trkpt>
      <trkpt lat="42.28604" lon="3.28328">
        <ele>12.6</ele>
        <time>2024-11-10T09:19:30Z</time>
      </trkpt>
      <trkpt lat="42.28603" lon="3.2833">
        <ele>12.7</ele>
        <time>2024-11-10T09:19:31Z</time>
      </trkpt>
      <trkpt lat="42.28602" lon="3.2833">
        <ele>12.7</ele>
        <time>2024-11-10T09:19:32Z</time>
      </trkpt>
      <trkpt lat="42.28601" lon="3.28331">
        <ele>12.7</ele>
        <time>2024-11-10T09:19:33Z</time>
      </trkpt>
      <trkpt lat="42.28601" lon="3.28333">
        <ele>12.7</ele>
        <time>2024-11-10T09:19:34Z</time>
      </trkpt>
      <trkpt lat="42.286" lon="3.28334">
        <ele>12.8</ele>
        <time>2024-11-10T09:19:35Z</time>
      </trkpt>
      <trkpt lat="42.286" lon="3.28335">
        <ele>12.8</ele>
        <time>2024-11-10T09:19:36Z</time>
      </trkpt>
      <trkpt lat="42.286" lon="3.28337">
        <ele>12.8</ele>
        <time>2024-11-10T09:19:38Z</time>
      </trkpt>
      <trkpt lat="42.28599" lon="3.28339">
        <ele>12.9</ele>
        <time>2024-11-10T09:19:39Z</time>
      </trkpt>
      <trkpt lat="42.28598" lon="3.2834">
        <ele>12.9</ele>
        <time>2024-11-10T09:19:40Z</time>
      </trkpt>
      <trkpt lat="42.28597" lon="3.28343">
        <ele>13</ele>
        <time>2024-11-10T09:19:41Z</time>
      </trkpt>
      <trkpt lat="42.28597" lon="3.28344">
        <ele>13</ele>
        <time>2024-11-10T09:19:44Z</time>
      </trkpt>
      <trkpt lat="42.28596" lon="3.28345">
        <ele>13</ele>
        <time>2024-11-10T09:19:45Z</time>
      </trkpt>
      <trkpt lat="42.28595" lon="3.28346">
        <ele>13.1</ele>
        <time>2024-11-10T09:19:46Z</time>
      </trkpt>
      <trkpt lat="42.28595" lon="3.28347">
        <ele>13.1</ele>
        <time>2024-11-10T09:19:47Z</time>
      </trkpt>
      <trkpt lat="42.28594" lon="3.28349">
        <ele>13.1</ele>
        <time>2024-11-10T09:19:48Z</time>
      </trkpt>
      <trkpt lat="42.28594" lon="3.2835">
        <ele>13.2</ele>
        <time>2024-11-10T09:19:49Z</time>
      </trkpt>
      <trkpt lat="42.28592" lon="3.28353">
        <ele>13.2</ele>
        <time>2024-11-10T09:19:52Z</time>
      </trkpt>
      <trkpt lat="42.28593" lon="3.28354">
        <ele>13.2</ele>
        <time>2024-11-10T09:19:53Z</time>
      </trkpt>
      <trkpt lat="42.28593" lon="3.28356">
        <ele>13.3</ele>
        <time>2024-11-10T09:19:54Z</time>
      </trkpt>
      <trkpt lat="42.28592" lon="3.28357">
        <ele>13.3</ele>
        <time>2024-11-10T09:19:55Z</time>
      </trkpt>
      <trkpt lat="42.28592" lon="3.28359">
        <ele>13.3</ele>
        <time>2024-11-10T09:19:56Z</time>
      </trkpt>
      <trkpt lat="42.28592" lon="3.2836">
        <ele>13.3</ele>
        <time>2024-11-10T09:19:57Z</time>
      </trkpt>
      <trkpt lat="42.28591" lon="3.28362">
        <ele>13.4</ele>
        <time>2024-11-10T09:19:58Z</time>
      </trkpt>
      <trkpt lat="42.28591" lon="3.28364">
        <ele>13.4</ele>
        <time>2024-11-10T09:20:00Z</time>
      </trkpt>
      <trkpt lat="42.2859" lon="3.28365">
        <ele>13.4</ele>
        <time>2024-11-10T09:20:01Z</time>
      </trkpt>
      <trkpt lat="42.2859" lon="3.28366">
        <ele>13.4</ele>
        <time>2024-11-10T09:20:02Z</time>
      </trkpt>
      <trkpt lat="42.2859" lon="3.28367">
        <ele>13.4</ele>
        <time>2024-11-10T09:20:03Z</time>
      </trkpt>
      <trkpt lat="42.2859" lon="3.28368">
        <ele>13.5</ele>
        <time>2024-11-10T09:20:04Z</time>
      </trkpt>
      <trkpt lat="42.28589" lon="3.28369">
        <ele>13.5</ele>
        <time>2024-11-10T09:20:05Z</time>
      </trkpt>
      <trkpt lat="42.28589" lon="3.28371">
        <ele>13.5</ele>
        <time>2024-11-10T09:20:06Z</time>
      </trkpt>
      <trkpt lat="42.28589" lon="3.28372">
        <ele>13.5</ele>
        <time>2024-11-10T09:20:07Z</time>
      </trkpt>
      <trkpt lat="42.28589" lon="3.28373">
        <ele>13.5</ele>
        <time>2024-11-10T09:20:08Z</time>
      </trkpt>
      <trkpt lat="42.28588" lon="3.28374">
        <ele>13.5</ele>
        <time>2024-11-10T09:20:09Z</time>
      </trkpt>
      <trkpt lat="42.28587" lon="3.28376">
        <ele>13.5</ele>
        <time>2024-11-10T09:20:10Z</time>
      </trkpt>
      <trkpt lat="42.28587" lon="3.28377">
        <ele>13.5</ele>
        <time>2024-11-10T09:20:11Z</time>
      </trkpt>
      <trkpt lat="42.28587" lon="3.28378">
        <ele>13.5</ele>
        <time>2024-11-10T09:20:12Z</time>
      </trkpt>
      <trkpt lat="42.28586" lon="3.2838">
        <ele>13.5</ele>
        <time>2024-11-10T09:20:13Z</time>
      </trkpt>
      <trkpt lat="42.28586" lon="3.28381">
        <ele>13.5</ele>
        <time>2024-11-10T09:20:14Z</time>
      </trkpt>
      <trkpt lat="42.28585" lon="3.28382">
        <ele>13.5</ele>
        <time>2024-11-10T09:20:15Z</time>
      </trkpt>
      <trkpt lat="42.28584" lon="3.28383">
        <ele>13.5</ele>
        <time>2024-11-10T09:20:16Z</time>
      </trkpt>
      <trkpt lat="42.28583" lon="3.28384">
        <ele>13.5</ele>
        <time>2024-11-10T09:20:17Z</time>
      </trkpt>
      <trkpt lat="42.28583" lon="3.28384">
        <ele>13.5</ele>
        <time>2024-11-10T09:20:18Z</time>
      </trkpt>
      <trkpt lat="42.28582" lon="3.28385">
        <ele>13.5</ele>
        <time>2024-11-10T09:20:19Z</time>
      </trkpt>
      <trkpt lat="42.28582" lon="3.28385">
        <ele>13.5</ele>
        <time>2024-11-10T09:20:20Z</time>
      </trkpt>
      <trkpt lat="42.28581" lon="3.28386">
        <ele>13.4</ele>
        <time>2024-11-10T09:20:21Z</time>
      </trkpt>
      <trkpt lat="42.28581" lon="3.28387">
        <ele>13.4</ele>
        <time>2024-11-10T09:20:22Z</time>
      </trkpt>
      <trkpt lat="42.2858" lon="3.28387">
        <ele>13.4</ele>
        <time>2024-11-10T09:20:23Z</time>
      </trkpt>
      <trkpt lat="42.2858" lon="3.28387">
        <ele>13.4</ele>
        <time>2024-11-10T09:20:24Z</time>
      </trkpt>
      <trkpt lat="42.2858" lon="3.28387">
        <ele>13.4</ele>
        <time>2024-11-10T09:20:25Z</time>
      </trkpt>
      <trkpt lat="42.2858" lon="3.28387">
        <ele>13.4</ele>
        <time>2024-11-10T09:20:26Z</time>
      </trkpt>
      <trkpt lat="42.2858" lon="3.28387">
        <ele>13.4</ele>
        <time>2024-11-10T09:20:27Z</time>
      </trkpt>
      <trkpt lat="42.2858" lon="3.28387">
        <ele>13.4</ele>
        <time>2024-11-10T09:20:28Z</time>
      </trkpt>
      <trkpt lat="42.2858" lon="3.28387">
        <ele>13.4</ele>
        <time>2024-11-10T09:20:29Z</time>
      </trkpt>
      <trkpt lat="42.2858" lon="3.28387">
        <ele>13.4</ele>
        <time>2024-11-10T09:20:30Z</time>
      </trkpt>
      <trkpt lat="42.2858" lon="3.28387">
        <ele>13.4</ele>
        <time>2024-11-10T09:20:31Z</time>
      </trkpt>
      <trkpt lat="42.2858" lon="3.28387">
        <ele>13.4</ele>
        <time>2024-11-10T09:20:32Z</time>
      </trkpt>
      <trkpt lat="42.2858" lon="3.28388">
        <ele>13.4</ele>
        <time>2024-11-10T09:20:33Z</time>
      </trkpt>
      <trkpt lat="42.2858" lon="3.28388">
        <ele>13.4</ele>
        <time>2024-11-10T09:20:34Z</time>
      </trkpt>
      <trkpt lat="42.2858" lon="3.28388">
        <ele>13.4</ele>
        <time>2024-11-10T09:20:35Z</time>
      </trkpt>
      <trkpt lat="42.2858" lon="3.28387">
        <ele>13.4</ele>
        <time>2024-11-10T09:20:36Z</time>
      </trkpt>
      <trkpt lat="42.2858" lon="3.28388">
        <ele>13.4</ele>
        <time>2024-11-10T09:20:37Z</time>
      </trkpt>
      <trkpt lat="42.2858" lon="3.28388">
        <ele>13.4</ele>
        <time>2024-11-10T09:20:38Z</time>
      </trkpt>
      <trkpt lat="42.2858" lon="3.28388">
        <ele>13.4</ele>
        <time>2024-11-10T09:20:39Z</time>
      </trkpt>
      <trkpt lat="42.2858" lon="3.28388">
        <ele>13.4</ele>
        <time>2024-11-10T09:20:40Z</time>
      </trkpt>
      <trkpt lat="42.2858" lon="3.28388">
        <ele>13.4</ele>
        <time>2024-11-10T09:20:41Z</time>
      </trkpt>
      <trkpt lat="42.2858" lon="3.28388">
        <ele>13.4</ele>
        <time>2024-11-10T09:20:42Z</time>
      </trkpt>
      <trkpt lat="42.2858" lon="3.28389">
        <ele>13.4</ele>
        <time>2024-11-10T09:20:43Z</time>
      </trkpt>
      <trkpt lat="42.2858" lon="3.2839">
        <ele>13.4</ele>
        <time>2024-11-10T09:20:44Z</time>
      </trkpt>
      <trkpt lat="42.2858" lon="3.28391">
        <ele>13.3</ele>
        <time>2024-11-10T09:20:45Z</time>
      </trkpt>
      <trkpt lat="42.28579" lon="3.28393">
        <ele>13.3</ele>
        <time>2024-11-10T09:20:46Z</time>
      </trkpt>
      <trkpt lat="42.28577" lon="3.28396">
        <ele>13.2</ele>
        <time>2024-11-10T09:20:47Z</time>
      </trkpt>
      <trkpt lat="42.28577" lon="3.28397">
        <ele>13.2</ele>
        <time>2024-11-10T09:20:48Z</time>
      </trkpt>
      <trkpt lat="42.28576" lon="3.28397">
        <ele>13.2</ele>
        <time>2024-11-10T09:20:49Z</time>
      </trkpt>
      <trkpt lat="42.28576" lon="3.28399">
        <ele>13.2</ele>
        <time>2024-11-10T09:20:50Z</time>
      </trkpt>
      <trkpt lat="42.28575" lon="3.284">
        <ele>13.1</ele>
        <time>2024-11-10T09:20:51Z</time>
      </trkpt>
      <trkpt lat="42.28574" lon="3.28401">
        <ele>13.1</ele>
        <time>2024-11-10T09:20:52Z</time>
      </trkpt>
      <trkpt lat="42.28574" lon="3.28402">
        <ele>13.1</ele>
        <time>2024-11-10T09:20:53Z</time>
      </trkpt>
      <trkpt lat="42.28573" lon="3.28403">
        <ele>13.1</ele>
        <time>2024-11-10T09:20:54Z</time>
      </trkpt>
      <trkpt lat="42.28572" lon="3.28404">
        <ele>13</ele>
        <time>2024-11-10T09:20:55Z</time>
      </trkpt>
      <trkpt lat="42.28571" lon="3.28406">
        <ele>13</ele>
        <time>2024-11-10T09:20:56Z</time>
      </trkpt>
      <trkpt lat="42.28571" lon="3.28407">
        <ele>13</ele>
        <time>2024-11-10T09:20:57Z</time>
      </trkpt>
      <trkpt lat="42.2857" lon="3.28408">
        <ele>12.9</ele>
        <time>2024-11-10T09:20:58Z</time>
      </trkpt>
      <trkpt lat="42.2857" lon="3.28409">
        <ele>12.9</ele>
        <time>2024-11-10T09:20:59Z</time>
      </trkpt>
      <trkpt lat="42.28569" lon="3.2841">
        <ele>12.9</ele>
        <time>2024-11-10T09:21:00Z</time>
      </trkpt>
      <trkpt lat="42.28569" lon="3.28411">
        <ele>12.8</ele>
        <time>2024-11-10T09:21:01Z</time>
      </trkpt>
      <trkpt lat="42.28568" lon="3.28412">
        <ele>12.8</ele>
        <time>2024-11-10T09:21:02Z</time>
      </trkpt>
      <trkpt lat="42.28568" lon="3.28413">
        <ele>12.8</ele>
        <time>2024-11-10T09:21:03Z</time>
      </trkpt>
      <trkpt lat="42.28567" lon="3.28414">
        <ele>12.7</ele>
        <time>2024-11-10T09:21:04Z</time>
      </trkpt>
      <trkpt lat="42.28566" lon="3.28415">
        <ele>12.7</ele>
        <time>2024-11-10T09:21:05Z</time>
      </trkpt>
      <trkpt lat="42.28566" lon="3.28415">
        <ele>12.7</ele>
        <time>2024-11-10T09:21:06Z</time>
      </trkpt>
      <trkpt lat="42.28565" lon="3.28416">
        <ele>12.7</ele>
        <time>2024-11-10T09:21:07Z</time>
      </trkpt>
      <trkpt lat="42.28565" lon="3.28417">
        <ele>12.6</ele>
        <time>2024-11-10T09:21:08Z</time>
      </trkpt>
      <trkpt lat="42.28564" lon="3.28417">
        <ele>12.6</ele>
        <time>2024-11-10T09:21:09Z</time>
      </trkpt>
      <trkpt lat="42.28564" lon="3.28418">
        <ele>12.6</ele>
        <time>2024-11-10T09:21:10Z</time>
      </trkpt>
      <trkpt lat="42.28563" lon="3.28419">
        <ele>12.6</ele>
        <time>2024-11-10T09:21:11Z</time>
      </trkpt>
      <trkpt lat="42.28563" lon="3.2842">
        <ele>12.5</ele>
        <time>2024-11-10T09:21:12Z</time>
      </trkpt>
      <trkpt lat="42.28562" lon="3.28421">
        <ele>12.5</ele>
        <time>2024-11-10T09:21:13Z</time>
      </trkpt>
      <trkpt lat="42.28562" lon="3.28422">
        <ele>12.5</ele>
        <time>2024-11-10T09:21:14Z</time>
      </trkpt>
      <trkpt lat="42.28561" lon="3.28423">
        <ele>12.4</ele>
        <time>2024-11-10T09:21:15Z</time>
      </trkpt>
      <trkpt lat="42.28561" lon="3.28424">
        <ele>12.4</ele>
        <time>2024-11-10T09:21:16Z</time>
      </trkpt>
      <trkpt lat="42.2856" lon="3.28425">
        <ele>12.4</ele>
        <time>2024-11-10T09:21:17Z</time>
      </trkpt>
      <trkpt lat="42.28559" lon="3.28426">
        <ele>12.3</ele>
        <time>2024-11-10T09:21:18Z</time>
      </trkpt>
      <trkpt lat="42.28559" lon="3.28426">
        <ele>12.3</ele>
        <time>2024-11-10T09:21:19Z</time>
      </trkpt>
      <trkpt lat="42.28558" lon="3.28428">
        <ele>12.2</ele>
        <time>2024-11-10T09:21:20Z</time>
      </trkpt>
      <trkpt lat="42.28557" lon="3.28428">
        <ele>12.2</ele>
        <time>2024-11-10T09:21:21Z</time>
      </trkpt>
      <trkpt lat="42.28556" lon="3.28429">
        <ele>12.2</ele>
        <time>2024-11-10T09:21:22Z</time>
      </trkpt>
      <trkpt lat="42.28556" lon="3.2843">
        <ele>12.1</ele>
        <time>2024-11-10T09:21:23Z</time>
      </trkpt>
      <trkpt lat="42.28555" lon="3.28431">
        <ele>12.1</ele>
        <time>2024-11-10T09:21:24Z</time>
      </trkpt>
      <trkpt lat="42.28554" lon="3.28432">
        <ele>12</ele>
        <time>2024-11-10T09:21:25Z</time>
      </trkpt>
      <trkpt lat="42.28554" lon="3.28432">
        <ele>12</ele>
        <time>2024-11-10T09:21:26Z</time>
      </trkpt>
      <trkpt lat="42.28553" lon="3.28433">
        <ele>12</ele>
        <time>2024-11-10T09:21:27Z</time>
      </trkpt>
      <trkpt lat="42.28553" lon="3.28433">
        <ele>12</ele>
        <time>2024-11-10T09:21:28Z</time>
      </trkpt>
      <trkpt lat="42.28552" lon="3.28434">
        <ele>11.9</ele>
        <time>2024-11-10T09:21:29Z</time>
      </trkpt>
      <trkpt lat="42.28552" lon="3.28435">
        <ele>11.9</ele>
        <time>2024-11-10T09:21:30Z</time>
      </trkpt>
      <trkpt lat="42.28551" lon="3.28436">
        <ele>11.9</ele>
        <time>2024-11-10T09:21:31Z</time>
      </trkpt>
      <trkpt lat="42.28551" lon="3.28437">
        <ele>11.8</ele>
        <time>2024-11-10T09:21:32Z</time>
      </trkpt>
      <trkpt lat="42.2855" lon="3.28438">
        <ele>11.8</ele>
        <time>2024-11-10T09:21:33Z</time>
      </trkpt>
      <trkpt lat="42.2855" lon="3.28439">
        <ele>11.8</ele>
        <time>2024-11-10T09:21:34Z</time>
      </trkpt>
      <trkpt lat="42.28549" lon="3.2844">
        <ele>11.7</ele>
        <time>2024-11-10T09:21:35Z</time>
      </trkpt>
      <trkpt lat="42.28548" lon="3.2844">
        <ele>11.7</ele>
        <time>2024-11-10T09:21:36Z</time>
      </trkpt>
      <trkpt lat="42.28548" lon="3.28441">
        <ele>11.7</ele>
        <time>2024-11-10T09:21:37Z</time>
      </trkpt>
      <trkpt lat="42.28547" lon="3.28442">
        <ele>11.6</ele>
        <time>2024-11-10T09:21:38Z</time>
      </trkpt>
      <trkpt lat="42.28546" lon="3.28444">
        <ele>11.6</ele>
        <time>2024-11-10T09:21:39Z</time>
      </trkpt>
      <trkpt lat="42.28546" lon="3.28445">
        <ele>11.5</ele>
        <time>2024-11-10T09:21:40Z</time>
      </trkpt>
      <trkpt lat="42.28545" lon="3.28446">
        <ele>11.5</ele>
        <time>2024-11-10T09:21:41Z</time>
      </trkpt>
      <trkpt lat="42.28544" lon="3.28447">
        <ele>11.4</ele>
        <time>2024-11-10T09:21:42Z</time>
      </trkpt>
      <trkpt lat="42.28544" lon="3.28448">
        <ele>11.4</ele>
        <time>2024-11-10T09:21:43Z</time>
      </trkpt>
      <trkpt lat="42.28543" lon="3.2845">
        <ele>11.4</ele>
        <time>2024-11-10T09:21:44Z</time>
      </trkpt>
      <trkpt lat="42.28543" lon="3.28451">
        <ele>11.3</ele>
        <time>2024-11-10T09:21:45Z</time>
      </trkpt>
      <trkpt lat="42.28542" lon="3.28452">
        <ele>11.3</ele>
        <time>2024-11-10T09:21:46Z</time>
      </trkpt>
      <trkpt lat="42.28542" lon="3.28453">
        <ele>11.2</ele>
        <time>2024-11-10T09:21:47Z</time>
      </trkpt>
      <trkpt lat="42.28541" lon="3.28454">
        <ele>11.2</ele>
        <time>2024-11-10T09:21:48Z</time>
      </trkpt>
      <trkpt lat="42.28541" lon="3.28456">
        <ele>11.2</ele>
        <time>2024-11-10T09:21:49Z</time>
      </trkpt>
      <trkpt lat="42.2854" lon="3.28457">
        <ele>11.1</ele>
        <time>2024-11-10T09:21:50Z</time>
      </trkpt>
      <trkpt lat="42.2854" lon="3.28458">
        <ele>11.1</ele>
        <time>2024-11-10T09:21:51Z</time>
      </trkpt>
      <trkpt lat="42.28539" lon="3.28459">
        <ele>11.1</ele>
        <time>2024-11-10T09:21:52Z</time>
      </trkpt>
      <trkpt lat="42.28539" lon="3.2846">
        <ele>11</ele>
        <time>2024-11-10T09:21:53Z</time>
      </trkpt>
      <trkpt lat="42.28538" lon="3.28461">
        <ele>11</ele>
        <time>2024-11-10T09:21:54Z</time>
      </trkpt>
      <trkpt lat="42.28537" lon="3.28463">
        <ele>10.9</ele>
        <time>2024-11-10T09:21:55Z</time>
      </trkpt>
      <trkpt lat="42.28537" lon="3.28463">
        <ele>10.9</ele>
        <time>2024-11-10T09:21:56Z</time>
      </trkpt>
      <trkpt lat="42.28536" lon="3.28465">
        <ele>10.9</ele>
        <time>2024-11-10T09:21:57Z</time>
      </trkpt>
      <trkpt lat="42.28536" lon="3.28466">
        <ele>10.8</ele>
        <time>2024-11-10T09:21:58Z</time>
      </trkpt>
      <trkpt lat="42.28536" lon="3.28468">
        <ele>10.8</ele>
        <time>2024-11-10T09:21:59Z</time>
      </trkpt>
      <trkpt lat="42.28535" lon="3.28469">
        <ele>10.7</ele>
        <time>2024-11-10T09:22:00Z</time>
      </trkpt>
      <trkpt lat="42.28535" lon="3.28471">
        <ele>10.7</ele>
        <time>2024-11-10T09:22:01Z</time>
      </trkpt>
      <trkpt lat="42.28535" lon="3.28472">
        <ele>10.6</ele>
        <time>2024-11-10T09:22:02Z</time>
      </trkpt>
      <trkpt lat="42.28535" lon="3.28473">
        <ele>10.6</ele>
        <time>2024-11-10T09:22:03Z</time>
      </trkpt>
      <trkpt lat="42.28535" lon="3.28474">
        <ele>10.5</ele>
        <time>2024-11-10T09:22:04Z</time>
      </trkpt>
      <trkpt lat="42.28535" lon="3.28476">
        <ele>10.5</ele>
        <time>2024-11-10T09:22:05Z</time>
      </trkpt>
      <trkpt lat="42.28535" lon="3.28476">
        <ele>10.5</ele>
        <time>2024-11-10T09:22:06Z</time>
      </trkpt>
      <trkpt lat="42.28536" lon="3.28477">
        <ele>10.4</ele>
        <time>2024-11-10T09:22:07Z</time>
      </trkpt>
      <trkpt lat="42.28537" lon="3.28478">
        <ele>10.4</ele>
        <time>2024-11-10T09:22:08Z</time>
      </trkpt>
      <trkpt lat="42.28537" lon="3.28479">
        <ele>10.4</ele>
        <time>2024-11-10T09:22:09Z</time>
      </trkpt>
      <trkpt lat="42.28538" lon="3.28479">
        <ele>10.3</ele>
        <time>2024-11-10T09:22:10Z</time>
      </trkpt>
      <trkpt lat="42.28538" lon="3.2848">
        <ele>10.3</ele>
        <time>2024-11-10T09:22:11Z</time>
      </trkpt>
      <trkpt lat="42.28538" lon="3.2848">
        <ele>10.3</ele>
        <time>2024-11-10T09:22:12Z</time>
      </trkpt>
      <trkpt lat="42.28538" lon="3.2848">
        <ele>10.3</ele>
        <time>2024-11-10T09:22:13Z</time>
      </trkpt>
      <trkpt lat="42.28538" lon="3.2848">
        <ele>10.3</ele>
        <time>2024-11-10T09:22:14Z</time>
      </trkpt>
      <trkpt lat="42.28539" lon="3.28481">
        <ele>10.2</ele>
        <time>2024-11-10T09:22:15Z</time>
      </trkpt>
      <trkpt lat="42.28539" lon="3.28481">
        <ele>10.2</ele>
        <time>2024-11-10T09:22:16Z</time>
      </trkpt>
      <trkpt lat="42.2854" lon="3.28482">
        <ele>10.2</ele>
        <time>2024-11-10T09:22:17Z</time>
      </trkpt>
      <trkpt lat="42.28541" lon="3.28482">
        <ele>10.1</ele>
        <time>2024-11-10T09:22:18Z</time>
      </trkpt>
      <trkpt lat="42.28542" lon="3.28483">
        <ele>10</ele>
        <time>2024-11-10T09:22:19Z</time>
      </trkpt>
      <trkpt lat="42.28543" lon="3.28484">
        <ele>10</ele>
        <time>2024-11-10T09:22:20Z</time>
      </trkpt>
      <trkpt lat="42.28544" lon="3.28485">
        <ele>9.9</ele>
        <time>2024-11-10T09:22:21Z</time>
      </trkpt>
      <trkpt lat="42.28545" lon="3.28485">
        <ele>9.8</ele>
        <time>2024-11-10T09:22:22Z</time>
      </trkpt>
      <trkpt lat="42.28546" lon="3.28486">
        <ele>9.8</ele>
        <time>2024-11-10T09:22:23Z</time>
      </trkpt>
      <trkpt lat="42.28547" lon="3.28486">
        <ele>9.7</ele>
        <time>2024-11-10T09:22:24Z</time>
      </trkpt>
      <trkpt lat="42.28548" lon="3.28487">
        <ele>9.6</ele>
        <time>2024-11-10T09:22:25Z</time>
      </trkpt>
      <trkpt lat="42.28548" lon="3.28488">
        <ele>9.6</ele>
        <time>2024-11-10T09:22:26Z</time>
      </trkpt>
      <trkpt lat="42.28549" lon="3.28489">
        <ele>9.5</ele>
        <time>2024-11-10T09:22:27Z</time>
      </trkpt>
      <trkpt lat="42.28549" lon="3.2849">
        <ele>9.5</ele>
        <time>2024-11-10T09:22:28Z</time>
      </trkpt>
      <trkpt lat="42.2855" lon="3.28491">
        <ele>9.4</ele>
        <time>2024-11-10T09:22:29Z</time>
      </trkpt>
      <trkpt lat="42.28551" lon="3.28492">
        <ele>9.3</ele>
        <time>2024-11-10T09:22:30Z</time>
      </trkpt>
      <trkpt lat="42.28551" lon="3.28493">
        <ele>9.2</ele>
        <time>2024-11-10T09:22:31Z</time>
      </trkpt>
      <trkpt lat="42.28552" lon="3.28494">
        <ele>9.2</ele>
        <time>2024-11-10T09:22:32Z</time>
      </trkpt>
      <trkpt lat="42.28553" lon="3.28495">
        <ele>9.1</ele>
        <time>2024-11-10T09:22:33Z</time>
      </trkpt>
      <trkpt lat="42.28553" lon="3.28496">
        <ele>9</ele>
        <time>2024-11-10T09:22:34Z</time>
      </trkpt>
      <trkpt lat="42.28554" lon="3.28497">
        <ele>8.9</ele>
        <time>2024-11-10T09:22:35Z</time>
      </trkpt>
      <trkpt lat="42.28555" lon="3.28497">
        <ele>8.9</ele>
        <time>2024-11-10T09:22:36Z</time>
      </trkpt>
      <trkpt lat="42.28555" lon="3.28498">
        <ele>8.8</ele>
        <time>2024-11-10T09:22:37Z</time>
      </trkpt>
      <trkpt lat="42.28556" lon="3.28499">
        <ele>8.8</ele>
        <time>2024-11-10T09:22:38Z</time>
      </trkpt>
      <trkpt lat="42.28557" lon="3.28499">
        <ele>8.7</ele>
        <time>2024-11-10T09:22:39Z</time>
      </trkpt>
      <trkpt lat="42.28557" lon="3.285">
        <ele>8.6</ele>
        <time>2024-11-10T09:22:40Z</time>
      </trkpt>
      <trkpt lat="42.28558" lon="3.28501">
        <ele>8.6</ele>
        <time>2024-11-10T09:22:41Z</time>
      </trkpt>
      <trkpt lat="42.28559" lon="3.28501">
        <ele>8.5</ele>
        <time>2024-11-10T09:22:42Z</time>
      </trkpt>
      <trkpt lat="42.28559" lon="3.28502">
        <ele>8.5</ele>
        <time>2024-11-10T09:22:43Z</time>
      </trkpt>
      <trkpt lat="42.2856" lon="3.28503">
        <ele>8.4</ele>
        <time>2024-11-10T09:22:44Z</time>
      </trkpt>
      <trkpt lat="42.2856" lon="3.28503">
        <ele>8.4</ele>
        <time>2024-11-10T09:22:45Z</time>
      </trkpt>
      <trkpt lat="42.28561" lon="3.28504">
        <ele>8.3</ele>
        <time>2024-11-10T09:22:46Z</time>
      </trkpt>
      <trkpt lat="42.28562" lon="3.28505">
        <ele>8.2</ele>
        <time>2024-11-10T09:22:47Z</time>
      </trkpt>
      <trkpt lat="42.28563" lon="3.28506">
        <ele>8.2</ele>
        <time>2024-11-10T09:22:48Z</time>
      </trkpt>
      <trkpt lat="42.28563" lon="3.28507">
        <ele>8.1</ele>
        <time>2024-11-10T09:22:49Z</time>
      </trkpt>
      <trkpt lat="42.28564" lon="3.28507">
        <ele>8.1</ele>
        <time>2024-11-10T09:22:50Z</time>
      </trkpt>
      <trkpt lat="42.28564" lon="3.28508">
        <ele>8</ele>
        <time>2024-11-10T09:22:51Z</time>
      </trkpt>
      <trkpt lat="42.28564" lon="3.28508">
        <ele>8</ele>
        <time>2024-11-10T09:22:52Z</time>
      </trkpt>
      <trkpt lat="42.28565" lon="3.28509">
        <ele>7.9</ele>
        <time>2024-11-10T09:22:53Z</time>
      </trkpt>
      <trkpt lat="42.28566" lon="3.2851">
        <ele>7.9</ele>
        <time>2024-11-10T09:22:54Z</time>
      </trkpt>
      <trkpt lat="42.28567" lon="3.28512">
        <ele>7.8</ele>
        <time>2024-11-10T09:22:55Z</time>
      </trkpt>
      <trkpt lat="42.28567" lon="3.28512">
        <ele>7.8</ele>
        <time>2024-11-10T09:22:56Z</time>
      </trkpt>
      <trkpt lat="42.28568" lon="3.28513">
        <ele>7.7</ele>
        <time>2024-11-10T09:22:57Z</time>
      </trkpt>
      <trkpt lat="42.28568" lon="3.28514">
        <ele>7.7</ele>
        <time>2024-11-10T09:22:58Z</time>
      </trkpt>
      <trkpt lat="42.28569" lon="3.28514">
        <ele>7.7</ele>
        <time>2024-11-10T09:22:59Z</time>
      </trkpt>
      <trkpt lat="42.28569" lon="3.28515">
        <ele>7.6</ele>
        <time>2024-11-10T09:23:00Z</time>
      </trkpt>
      <trkpt lat="42.2857" lon="3.28516">
        <ele>7.6</ele>
        <time>2024-11-10T09:23:01Z</time>
      </trkpt>
      <trkpt lat="42.28571" lon="3.28516">
        <ele>7.6</ele>
        <time>2024-11-10T09:23:02Z</time>
      </trkpt>
      <trkpt lat="42.28571" lon="3.28517">
        <ele>7.5</ele>
        <time>2024-11-10T09:23:03Z</time>
      </trkpt>
      <trkpt lat="42.28571" lon="3.28518">
        <ele>7.5</ele>
        <time>2024-11-10T09:23:04Z</time>
      </trkpt>
      <trkpt lat="42.28572" lon="3.28519">
        <ele>7.5</ele>
        <time>2024-11-10T09:23:05Z</time>
      </trkpt>
      <trkpt lat="42.28572" lon="3.28519">
        <ele>7.4</ele>
        <time>2024-11-10T09:23:06Z</time>
      </trkpt>
      <trkpt lat="42.28573" lon="3.2852">
        <ele>7.4</ele>
        <time>2024-11-10T09:23:07Z</time>
      </trkpt>
      <trkpt lat="42.28574" lon="3.28521">
        <ele>7.4</ele>
        <time>2024-11-10T09:23:08Z</time>
      </trkpt>
      <trkpt lat="42.28574" lon="3.28522">
        <ele>7.3</ele>
        <time>2024-11-10T09:23:09Z</time>
      </trkpt>
      <trkpt lat="42.28575" lon="3.28523">
        <ele>7.3</ele>
        <time>2024-11-10T09:23:10Z</time>
      </trkpt>
      <trkpt lat="42.28576" lon="3.28523">
        <ele>7.3</ele>
        <time>2024-11-10T09:23:11Z</time>
      </trkpt>
      <trkpt lat="42.28577" lon="3.28524">
        <ele>7.2</ele>
        <time>2024-11-10T09:23:12Z</time>
      </trkpt>
      <trkpt lat="42.28577" lon="3.28525">
        <ele>7.2</ele>
        <time>2024-11-10T09:23:13Z</time>
      </trkpt>
      <trkpt lat="42.28578" lon="3.28526">
        <ele>7.2</ele>
        <time>2024-11-10T09:23:14Z</time>
      </trkpt>
      <trkpt lat="42.28578" lon="3.28527">
        <ele>7.2</ele>
        <time>2024-11-10T09:23:15Z</time>
      </trkpt>
      <trkpt lat="42.28579" lon="3.28528">
        <ele>7.2</ele>
        <time>2024-11-10T09:23:16Z</time>
      </trkpt>
      <trkpt lat="42.2858" lon="3.28529">
        <ele>7.1</ele>
        <time>2024-11-10T09:23:17Z</time>
      </trkpt>
      <trkpt lat="42.2858" lon="3.28529">
        <ele>7.1</ele>
        <time>2024-11-10T09:23:18Z</time>
      </trkpt>
      <trkpt lat="42.28581" lon="3.2853">
        <ele>7.1</ele>
        <time>2024-11-10T09:23:19Z</time>
      </trkpt>
      <trkpt lat="42.28581" lon="3.28532">
        <ele>7.1</ele>
        <time>2024-11-10T09:23:20Z</time>
      </trkpt>
      <trkpt lat="42.28582" lon="3.28532">
        <ele>7</ele>
        <time>2024-11-10T09:23:21Z</time>
      </trkpt>
      <trkpt lat="42.28582" lon="3.28533">
        <ele>7</ele>
        <time>2024-11-10T09:23:22Z</time>
      </trkpt>
      <trkpt lat="42.28583" lon="3.28534">
        <ele>7</ele>
        <time>2024-11-10T09:23:23Z</time>
      </trkpt>
      <trkpt lat="42.28583" lon="3.28535">
        <ele>7</ele>
        <time>2024-11-10T09:23:24Z</time>
      </trkpt>
      <trkpt lat="42.28584" lon="3.28537">
        <ele>7</ele>
        <time>2024-11-10T09:23:25Z</time>
      </trkpt>
      <trkpt lat="42.28585" lon="3.28538">
        <ele>6.9</ele>
        <time>2024-11-10T09:23:26Z</time>
      </trkpt>
      <trkpt lat="42.28585" lon="3.28539">
        <ele>6.9</ele>
        <time>2024-11-10T09:23:27Z</time>
      </trkpt>
      <trkpt lat="42.28586" lon="3.2854">
        <ele>6.9</ele>
        <time>2024-11-10T09:23:28Z</time>
      </trkpt>
      <trkpt lat="42.28586" lon="3.28541">
        <ele>6.9</ele>
        <time>2024-11-10T09:23:29Z</time>
      </trkpt>
      <trkpt lat="42.28586" lon="3.28542">
        <ele>6.9</ele>
        <time>2024-11-10T09:23:30Z</time>
      </trkpt>
      <trkpt lat="42.28587" lon="3.28543">
        <ele>6.9</ele>
        <time>2024-11-10T09:23:31Z</time>
      </trkpt>
      <trkpt lat="42.28588" lon="3.28543">
        <ele>6.8</ele>
        <time>2024-11-10T09:23:32Z</time>
      </trkpt>
      <trkpt lat="42.28588" lon="3.28544">
        <ele>6.8</ele>
        <time>2024-11-10T09:23:33Z</time>
      </trkpt>
      <trkpt lat="42.28589" lon="3.28545">
        <ele>6.8</ele>
        <time>2024-11-10T09:23:34Z</time>
      </trkpt>
      <trkpt lat="42.28589" lon="3.28546">
        <ele>6.8</ele>
        <time>2024-11-10T09:23:35Z</time>
      </trkpt>
      <trkpt lat="42.2859" lon="3.28547">
        <ele>6.7</ele>
        <time>2024-11-10T09:23:36Z</time>
      </trkpt>
      <trkpt lat="42.28591" lon="3.28548">
        <ele>6.7</ele>
        <time>2024-11-10T09:23:37Z</time>
      </trkpt>
      <trkpt lat="42.28592" lon="3.28549">
        <ele>6.7</ele>
        <time>2024-11-10T09:23:38Z</time>
      </trkpt>
      <trkpt lat="42.28593" lon="3.28549">
        <ele>6.7</ele>
        <time>2024-11-10T09:23:39Z</time>
      </trkpt>
      <trkpt lat="42.28594" lon="3.2855">
        <ele>6.6</ele>
        <time>2024-11-10T09:23:40Z</time>
      </trkpt>
      <trkpt lat="42.28595" lon="3.28551">
        <ele>6.6</ele>
        <time>2024-11-10T09:23:41Z</time>
      </trkpt>
      <trkpt lat="42.28596" lon="3.28551">
        <ele>6.6</ele>
        <time>2024-11-10T09:23:42Z</time>
      </trkpt>
      <trkpt lat="42.28597" lon="3.28551">
        <ele>6.5</ele>
        <time>2024-11-10T09:23:43Z</time>
      </trkpt>
      <trkpt lat="42.28598" lon="3.28551">
        <ele>6.5</ele>
        <time>2024-11-10T09:23:44Z</time>
      </trkpt>
      <trkpt lat="42.28599" lon="3.28551">
        <ele>6.4</ele>
        <time>2024-11-10T09:23:45Z</time>
      </trkpt>
      <trkpt lat="42.286" lon="3.28552">
        <ele>6.4</ele>
        <time>2024-11-10T09:23:46Z</time>
      </trkpt>
      <trkpt lat="42.28601" lon="3.28553">
        <ele>6.4</ele>
        <time>2024-11-10T09:23:47Z</time>
      </trkpt>
      <trkpt lat="42.28601" lon="3.28554">
        <ele>6.3</ele>
        <time>2024-11-10T09:23:48Z</time>
      </trkpt>
      <trkpt lat="42.28601" lon="3.28556">
        <ele>6.3</ele>
        <time>2024-11-10T09:23:49Z</time>
      </trkpt>
      <trkpt lat="42.28602" lon="3.28557">
        <ele>6.3</ele>
        <time>2024-11-10T09:23:50Z</time>
      </trkpt>
      <trkpt lat="42.28602" lon="3.28558">
        <ele>6.2</ele>
        <time>2024-11-10T09:23:51Z</time>
      </trkpt>
      <trkpt lat="42.28602" lon="3.28559">
        <ele>6.2</ele>
        <time>2024-11-10T09:23:52Z</time>
      </trkpt>
      <trkpt lat="42.28603" lon="3.2856">
        <ele>6.1</ele>
        <time>2024-11-10T09:23:53Z</time>
      </trkpt>
      <trkpt lat="42.28603" lon="3.28562">
        <ele>6.1</ele>
        <time>2024-11-10T09:23:54Z</time>
      </trkpt>
      <trkpt lat="42.28604" lon="3.28563">
        <ele>6.1</ele>
        <time>2024-11-10T09:23:55Z</time>
      </trkpt>
      <trkpt lat="42.28604" lon="3.28564">
        <ele>6.1</ele>
        <time>2024-11-10T09:23:56Z</time>
      </trkpt>
      <trkpt lat="42.28605" lon="3.28565">
        <ele>6.1</ele>
        <time>2024-11-10T09:23:57Z</time>
      </trkpt>
      <trkpt lat="42.28605" lon="3.28567">
        <ele>6</ele>
        <time>2024-11-10T09:23:58Z</time>
      </trkpt>
      <trkpt lat="42.28605" lon="3.28568">
        <ele>6</ele>
        <time>2024-11-10T09:23:59Z</time>
      </trkpt>
      <trkpt lat="42.28606" lon="3.28569">
        <ele>6</ele>
        <time>2024-11-10T09:24:00Z</time>
      </trkpt>
      <trkpt lat="42.28607" lon="3.2857">
        <ele>6</ele>
        <time>2024-11-10T09:24:01Z</time>
      </trkpt>
      <trkpt lat="42.28607" lon="3.28571">
        <ele>6</ele>
        <time>2024-11-10T09:24:02Z</time>
      </trkpt>
      <trkpt lat="42.28608" lon="3.28573">
        <ele>6</ele>
        <time>2024-11-10T09:24:03Z</time>
      </trkpt>
      <trkpt lat="42.28609" lon="3.28574">
        <ele>5.9</ele>
        <time>2024-11-10T09:24:04Z</time>
      </trkpt>
      <trkpt lat="42.28609" lon="3.28575">
        <ele>5.9</ele>
        <time>2024-11-10T09:24:05Z</time>
      </trkpt>
      <trkpt lat="42.2861" lon="3.28576">
        <ele>5.9</ele>
        <time>2024-11-10T09:24:06Z</time>
      </trkpt>
      <trkpt lat="42.2861" lon="3.28577">
        <ele>5.9</ele>
        <time>2024-11-10T09:24:07Z</time>
      </trkpt>
      <trkpt lat="42.28611" lon="3.28579">
        <ele>5.9</ele>
        <time>2024-11-10T09:24:08Z</time>
      </trkpt>
      <trkpt lat="42.28611" lon="3.2858">
        <ele>5.9</ele>
        <time>2024-11-10T09:24:09Z</time>
      </trkpt>
      <trkpt lat="42.28612" lon="3.28581">
        <ele>5.9</ele>
        <time>2024-11-10T09:24:10Z</time>
      </trkpt>
      <trkpt lat="42.28612" lon="3.28581">
        <ele>5.9</ele>
        <time>2024-11-10T09:24:11Z</time>
      </trkpt>
      <trkpt lat="42.28612" lon="3.28581">
        <ele>5.9</ele>
        <time>2024-11-10T09:24:12Z</time>
      </trkpt>
      <trkpt lat="42.28612" lon="3.28581">
        <ele>5.9</ele>
        <time>2024-11-10T09:24:13Z</time>
      </trkpt>
      <trkpt lat="42.28611" lon="3.28581">
        <ele>5.9</ele>
        <time>2024-11-10T09:24:14Z</time>
      </trkpt>
      <trkpt lat="42.28611" lon="3.28581">
        <ele>5.9</ele>
        <time>2024-11-10T09:24:15Z</time>
      </trkpt>
      <trkpt lat="42.28612" lon="3.28582">
        <ele>5.9</ele>
        <time>2024-11-10T09:24:16Z</time>
      </trkpt>
      <trkpt lat="42.28612" lon="3.28583">
        <ele>5.9</ele>
        <time>2024-11-10T09:24:17Z</time>
      </trkpt>
      <trkpt lat="42.28612" lon="3.28584">
        <ele>5.9</ele>
        <time>2024-11-10T09:24:18Z</time>
      </trkpt>
      <trkpt lat="42.28612" lon="3.28586">
        <ele>5.9</ele>
        <time>2024-11-10T09:24:19Z</time>
      </trkpt>
      <trkpt lat="42.28612" lon="3.28587">
        <ele>5.9</ele>
        <time>2024-11-10T09:24:20Z</time>
      </trkpt>
      <trkpt lat="42.28613" lon="3.28589">
        <ele>5.9</ele>
        <time>2024-11-10T09:24:21Z</time>
      </trkpt>
      <trkpt lat="42.28613" lon="3.2859">
        <ele>5.9</ele>
        <time>2024-11-10T09:24:22Z</time>
      </trkpt>
      <trkpt lat="42.28613" lon="3.28591">
        <ele>5.9</ele>
        <time>2024-11-10T09:24:23Z</time>
      </trkpt>
      <trkpt lat="42.28614" lon="3.28593">
        <ele>5.9</ele>
        <time>2024-11-10T09:24:24Z</time>
      </trkpt>
      <trkpt lat="42.28614" lon="3.28594">
        <ele>5.9</ele>
        <time>2024-11-10T09:24:25Z</time>
      </trkpt>
      <trkpt lat="42.28614" lon="3.28596">
        <ele>5.9</ele>
        <time>2024-11-10T09:24:26Z</time>
      </trkpt>
      <trkpt lat="42.28614" lon="3.28597">
        <ele>5.9</ele>
        <time>2024-11-10T09:24:27Z</time>
      </trkpt>
      <trkpt lat="42.28614" lon="3.28598">
        <ele>5.9</ele>
        <time>2024-11-10T09:24:28Z</time>
      </trkpt>
      <trkpt lat="42.28614" lon="3.286">
        <ele>6</ele>
        <time>2024-11-10T09:24:29Z</time>
      </trkpt>
      <trkpt lat="42.28614" lon="3.28601">
        <ele>6</ele>
        <time>2024-11-10T09:24:30Z</time>
      </trkpt>
      <trkpt lat="42.28614" lon="3.28602">
        <ele>6.1</ele>
        <time>2024-11-10T09:24:31Z</time>
      </trkpt>
      <trkpt lat="42.28614" lon="3.28604">
        <ele>6.1</ele>
        <time>2024-11-10T09:24:32Z</time>
      </trkpt>
      <trkpt lat="42.28614" lon="3.28605">
        <ele>6.2</ele>
        <time>2024-11-10T09:24:33Z</time>
      </trkpt>
      <trkpt lat="42.28614" lon="3.28606">
        <ele>6.2</ele>
        <time>2024-11-10T09:24:34Z</time>
      </trkpt>
      <trkpt lat="42.28613" lon="3.28607">
        <ele>6.3</ele>
        <time>2024-11-10T09:24:35Z</time>
      </trkpt>
      <trkpt lat="42.28613" lon="3.28608">
        <ele>6.3</ele>
        <time>2024-11-10T09:24:36Z</time>
      </trkpt>
      <trkpt lat="42.28613" lon="3.28609">
        <ele>6.3</ele>
        <time>2024-11-10T09:24:37Z</time>
      </trkpt>
      <trkpt lat="42.28612" lon="3.2861">
        <ele>6.4</ele>
        <time>2024-11-10T09:24:38Z</time>
      </trkpt>
      <trkpt lat="42.28611" lon="3.28611">
        <ele>6.4</ele>
        <time>2024-11-10T09:24:39Z</time>
      </trkpt>
      <trkpt lat="42.28611" lon="3.28612">
        <ele>6.5</ele>
        <time>2024-11-10T09:24:40Z</time>
      </trkpt>
      <trkpt lat="42.2861" lon="3.28613">
        <ele>6.5</ele>
        <time>2024-11-10T09:24:41Z</time>
      </trkpt>
      <trkpt lat="42.2861" lon="3.28614">
        <ele>6.6</ele>
        <time>2024-11-10T09:24:42Z</time>
      </trkpt>
      <trkpt lat="42.28609" lon="3.28615">
        <ele>6.6</ele>
        <time>2024-11-10T09:24:43Z</time>
      </trkpt>
      <trkpt lat="42.28608" lon="3.28615">
        <ele>6.7</ele>
        <time>2024-11-10T09:24:44Z</time>
      </trkpt>
      <trkpt lat="42.28608" lon="3.28616">
        <ele>6.7</ele>
        <time>2024-11-10T09:24:45Z</time>
      </trkpt>
      <trkpt lat="42.28607" lon="3.28617">
        <ele>6.8</ele>
        <time>2024-11-10T09:24:46Z</time>
      </trkpt>
      <trkpt lat="42.28606" lon="3.28618">
        <ele>6.8</ele>
        <time>2024-11-10T09:24:47Z</time>
      </trkpt>
      <trkpt lat="42.28605" lon="3.28619">
        <ele>6.9</ele>
        <time>2024-11-10T09:24:48Z</time>
      </trkpt>
      <trkpt lat="42.28605" lon="3.2862">
        <ele>7</ele>
        <time>2024-11-10T09:24:49Z</time>
      </trkpt>
      <trkpt lat="42.28604" lon="3.28621">
        <ele>7</ele>
        <time>2024-11-10T09:24:50Z</time>
      </trkpt>
      <trkpt lat="42.28603" lon="3.28622">
        <ele>7.1</ele>
        <time>2024-11-10T09:24:51Z</time>
      </trkpt>
      <trkpt lat="42.28603" lon="3.28623">
        <ele>7.1</ele>
        <time>2024-11-10T09:24:52Z</time>
      </trkpt>
      <trkpt lat="42.28602" lon="3.28624">
        <ele>7.2</ele>
        <time>2024-11-10T09:24:53Z</time>
      </trkpt>
      <trkpt lat="42.28602" lon="3.28625">
        <ele>7.2</ele>
        <time>2024-11-10T09:24:54Z</time>
      </trkpt>
      <trkpt lat="42.28602" lon="3.28626">
        <ele>7.2</ele>
        <time>2024-11-10T09:24:55Z</time>
      </trkpt>
      <trkpt lat="42.28601" lon="3.28626">
        <ele>7.2</ele>
        <time>2024-11-10T09:24:56Z</time>
      </trkpt>
      <trkpt lat="42.28601" lon="3.28627">
        <ele>7.3</ele>
        <time>2024-11-10T09:24:57Z</time>
      </trkpt>
      <trkpt lat="42.286" lon="3.28628">
        <ele>7.3</ele>
        <time>2024-11-10T09:24:58Z</time>
      </trkpt>
      <trkpt lat="42.28599" lon="3.28629">
        <ele>7.4</ele>
        <time>2024-11-10T09:24:59Z</time>
      </trkpt>
      <trkpt lat="42.28599" lon="3.2863">
        <ele>7.4</ele>
        <time>2024-11-10T09:25:00Z</time>
      </trkpt>
      <trkpt lat="42.28598" lon="3.2863">
        <ele>7.5</ele>
        <time>2024-11-10T09:25:01Z</time>
      </trkpt>
      <trkpt lat="42.28597" lon="3.28631">
        <ele>7.5</ele>
        <time>2024-11-10T09:25:02Z</time>
      </trkpt>
      <trkpt lat="42.28596" lon="3.28632">
        <ele>7.6</ele>
        <time>2024-11-10T09:25:03Z</time>
      </trkpt>
      <trkpt lat="42.28596" lon="3.28633">
        <ele>7.6</ele>
        <time>2024-11-10T09:25:04Z</time>
      </trkpt>
      <trkpt lat="42.28595" lon="3.28634">
        <ele>7.6</ele>
        <time>2024-11-10T09:25:05Z</time>
      </trkpt>
      <trkpt lat="42.28594" lon="3.28635">
        <ele>7.7</ele>
        <time>2024-11-10T09:25:06Z</time>
      </trkpt>
      <trkpt lat="42.28593" lon="3.28635">
        <ele>7.7</ele>
        <time>2024-11-10T09:25:07Z</time>
      </trkpt>
      <trkpt lat="42.28592" lon="3.28636">
        <ele>7.8</ele>
        <time>2024-11-10T09:25:08Z</time>
      </trkpt>
      <trkpt lat="42.28592" lon="3.28637">
        <ele>7.8</ele>
        <time>2024-11-10T09:25:09Z</time>
      </trkpt>
      <trkpt lat="42.28591" lon="3.28638">
        <ele>7.8</ele>
        <time>2024-11-10T09:25:10Z</time>
      </trkpt>
      <trkpt lat="42.2859" lon="3.28639">
        <ele>7.9</ele>
        <time>2024-11-10T09:25:11Z</time>
      </trkpt>
      <trkpt lat="42.28589" lon="3.2864">
        <ele>7.9</ele>
        <time>2024-11-10T09:25:12Z</time>
      </trkpt>
      <trkpt lat="42.28588" lon="3.2864">
        <ele>7.9</ele>
        <time>2024-11-10T09:25:13Z</time>
      </trkpt>
      <trkpt lat="42.28588" lon="3.28641">
        <ele>8</ele>
        <time>2024-11-10T09:25:14Z</time>
      </trkpt>
      <trkpt lat="42.28587" lon="3.28642">
        <ele>8</ele>
        <time>2024-11-10T09:25:15Z</time>
      </trkpt>
      <trkpt lat="42.28586" lon="3.28643">
        <ele>8</ele>
        <time>2024-11-10T09:25:16Z</time>
      </trkpt>
      <trkpt lat="42.28585" lon="3.28644">
        <ele>8.1</ele>
        <time>2024-11-10T09:25:17Z</time>
      </trkpt>
      <trkpt lat="42.28584" lon="3.28644">
        <ele>8.1</ele>
        <time>2024-11-10T09:25:18Z</time>
      </trkpt>
      <trkpt lat="42.28583" lon="3.28645">
        <ele>8.1</ele>
        <time>2024-11-10T09:25:19Z</time>
      </trkpt>
      <trkpt lat="42.28582" lon="3.28646">
        <ele>8.2</ele>
        <time>2024-11-10T09:25:20Z</time>
      </trkpt>
      <trkpt lat="42.28581" lon="3.28647">
        <ele>8.2</ele>
        <time>2024-11-10T09:25:21Z</time>
      </trkpt>
      <trkpt lat="42.2858" lon="3.28648">
        <ele>8.2</ele>
        <time>2024-11-10T09:25:22Z</time>
      </trkpt>
      <trkpt lat="42.28579" lon="3.28649">
        <ele>8.2</ele>
        <time>2024-11-10T09:25:23Z</time>
      </trkpt>
      <trkpt lat="42.28578" lon="3.2865">
        <ele>8.3</ele>
        <time>2024-11-10T09:25:24Z</time>
      </trkpt>
      <trkpt lat="42.28577" lon="3.28651">
        <ele>8.3</ele>
        <time>2024-11-10T09:25:25Z</time>
      </trkpt>
      <trkpt lat="42.28576" lon="3.28653">
        <ele>8.3</ele>
        <time>2024-11-10T09:25:26Z</time>
      </trkpt>
      <trkpt lat="42.28575" lon="3.28654">
        <ele>8.3</ele>
        <time>2024-11-10T09:25:27Z</time>
      </trkpt>
      <trkpt lat="42.28575" lon="3.28654">
        <ele>8.3</ele>
        <time>2024-11-10T09:25:28Z</time>
      </trkpt>
      <trkpt lat="42.28574" lon="3.28655">
        <ele>8.3</ele>
        <time>2024-11-10T09:25:29Z</time>
      </trkpt>
      <trkpt lat="42.28573" lon="3.28657">
        <ele>8.4</ele>
        <time>2024-11-10T09:25:30Z</time>
      </trkpt>
      <trkpt lat="42.28572" lon="3.28658">
        <ele>8.4</ele>
        <time>2024-11-10T09:25:31Z</time>
      </trkpt>
      <trkpt lat="42.28572" lon="3.28659">
        <ele>8.4</ele>
        <time>2024-11-10T09:25:32Z</time>
      </trkpt>
      <trkpt lat="42.28571" lon="3.2866">
        <ele>8.4</ele>
        <time>2024-11-10T09:25:33Z</time>
      </trkpt>
      <trkpt lat="42.2857" lon="3.28661">
        <ele>8.4</ele>
        <time>2024-11-10T09:25:34Z</time>
      </trkpt>
      <trkpt lat="42.2857" lon="3.28662">
        <ele>8.4</ele>
        <time>2024-11-10T09:25:35Z</time>
      </trkpt>
      <trkpt lat="42.28569" lon="3.28663">
        <ele>8.4</ele>
        <time>2024-11-10T09:25:36Z</time>
      </trkpt>
      <trkpt lat="42.28568" lon="3.28664">
        <ele>8.4</ele>
        <time>2024-11-10T09:25:37Z</time>
      </trkpt>
      <trkpt lat="42.28568" lon="3.28665">
        <ele>8.4</ele>
        <time>2024-11-10T09:25:38Z</time>
      </trkpt>
      <trkpt lat="42.28567" lon="3.28667">
        <ele>8.4</ele>
        <time>2024-11-10T09:25:39Z</time>
      </trkpt>
      <trkpt lat="42.28567" lon="3.28668">
        <ele>8.4</ele>
        <time>2024-11-10T09:25:40Z</time>
      </trkpt>
      <trkpt lat="42.28566" lon="3.2867">
        <ele>8.4</ele>
        <time>2024-11-10T09:25:41Z</time>
      </trkpt>
      <trkpt lat="42.28566" lon="3.28671">
        <ele>8.4</ele>
        <time>2024-11-10T09:25:42Z</time>
      </trkpt>
      <trkpt lat="42.28565" lon="3.28672">
        <ele>8.4</ele>
        <time>2024-11-10T09:25:43Z</time>
      </trkpt>
      <trkpt lat="42.28564" lon="3.28673">
        <ele>8.3</ele>
        <time>2024-11-10T09:25:44Z</time>
      </trkpt>
      <trkpt lat="42.28564" lon="3.28674">
        <ele>8.3</ele>
        <time>2024-11-10T09:25:45Z</time>
      </trkpt>
      <trkpt lat="42.28563" lon="3.28676">
        <ele>8.3</ele>
        <time>2024-11-10T09:25:46Z</time>
      </trkpt>
      <trkpt lat="42.28562" lon="3.28677">
        <ele>8.3</ele>
        <time>2024-11-10T09:25:47Z</time>
      </trkpt>
      <trkpt lat="42.28562" lon="3.28678">
        <ele>8.3</ele>
        <time>2024-11-10T09:25:48Z</time>
      </trkpt>
      <trkpt lat="42.28561" lon="3.28679">
        <ele>8.3</ele>
        <time>2024-11-10T09:25:49Z</time>
      </trkpt>
      <trkpt lat="42.2856" lon="3.2868">
        <ele>8.3</ele>
        <time>2024-11-10T09:25:50Z</time>
      </trkpt>
      <trkpt lat="42.2856" lon="3.28681">
        <ele>8.3</ele>
        <time>2024-11-10T09:25:51Z</time>
      </trkpt>
      <trkpt lat="42.28559" lon="3.28682">
        <ele>8.2</ele>
        <time>2024-11-10T09:25:52Z</time>
      </trkpt>
      <trkpt lat="42.28559" lon="3.28683">
        <ele>8.2</ele>
        <time>2024-11-10T09:25:53Z</time>
      </trkpt>
      <trkpt lat="42.28558" lon="3.28684">
        <ele>8.2</ele>
        <time>2024-11-10T09:25:54Z</time>
      </trkpt>
      <trkpt lat="42.28557" lon="3.28685">
        <ele>8.2</ele>
        <time>2024-11-10T09:25:55Z</time>
      </trkpt>
      <trkpt lat="42.28557" lon="3.28686">
        <ele>8.2</ele>
        <time>2024-11-10T09:25:56Z</time>
      </trkpt>
      <trkpt lat="42.28556" lon="3.28687">
        <ele>8.2</ele>
        <time>2024-11-10T09:25:57Z</time>
      </trkpt>
      <trkpt lat="42.28556" lon="3.28688">
        <ele>8.2</ele>
        <time>2024-11-10T09:25:58Z</time>
      </trkpt>
      <trkpt lat="42.28556" lon="3.28689">
        <ele>8.2</ele>
        <time>2024-11-10T09:25:59Z</time>
      </trkpt>
      <trkpt lat="42.28555" lon="3.2869">
        <ele>8.1</ele>
        <time>2024-11-10T09:26:00Z</time>
      </trkpt>
      <trkpt lat="42.28554" lon="3.28691">
        <ele>8.1</ele>
        <time>2024-11-10T09:26:01Z</time>
      </trkpt>
      <trkpt lat="42.28554" lon="3.28692">
        <ele>8.1</ele>
        <time>2024-11-10T09:26:02Z</time>
      </trkpt>
      <trkpt lat="42.28553" lon="3.28693">
        <ele>8.1</ele>
        <time>2024-11-10T09:26:03Z</time>
      </trkpt>
      <trkpt lat="42.28552" lon="3.28694">
        <ele>8.1</ele>
        <time>2024-11-10T09:26:04Z</time>
      </trkpt>
      <trkpt lat="42.28552" lon="3.28696">
        <ele>8.1</ele>
        <time>2024-11-10T09:26:05Z</time>
      </trkpt>
      <trkpt lat="42.28551" lon="3.28697">
        <ele>8.1</ele>
        <time>2024-11-10T09:26:06Z</time>
      </trkpt>
      <trkpt lat="42.2855" lon="3.28698">
        <ele>8</ele>
        <time>2024-11-10T09:26:07Z</time>
      </trkpt>
      <trkpt lat="42.2855" lon="3.28699">
        <ele>8</ele>
        <time>2024-11-10T09:26:08Z</time>
      </trkpt>
      <trkpt lat="42.28549" lon="3.287">
        <ele>8</ele>
        <time>2024-11-10T09:26:09Z</time>
      </trkpt>
      <trkpt lat="42.28549" lon="3.28701">
        <ele>8</ele>
        <time>2024-11-10T09:26:10Z</time>
      </trkpt>
      <trkpt lat="42.28548" lon="3.28702">
        <ele>8</ele>
        <time>2024-11-10T09:26:11Z</time>
      </trkpt>
      <trkpt lat="42.28548" lon="3.28704">
        <ele>8</ele>
        <time>2024-11-10T09:26:12Z</time>
      </trkpt>
      <trkpt lat="42.28547" lon="3.28705">
        <ele>8</ele>
        <time>2024-11-10T09:26:13Z</time>
      </trkpt>
      <trkpt lat="42.28547" lon="3.28706">
        <ele>8</ele>
        <time>2024-11-10T09:26:14Z</time>
      </trkpt>
      <trkpt lat="42.28546" lon="3.28708">
        <ele>8</ele>
        <time>2024-11-10T09:26:15Z</time>
      </trkpt>
      <trkpt lat="42.28546" lon="3.28709">
        <ele>7.9</ele>
        <time>2024-11-10T09:26:16Z</time>
      </trkpt>
      <trkpt lat="42.28545" lon="3.2871">
        <ele>7.9</ele>
        <time>2024-11-10T09:26:17Z</time>
      </trkpt>
      <trkpt lat="42.28544" lon="3.28711">
        <ele>7.9</ele>
        <time>2024-11-10T09:26:18Z</time>
      </trkpt>
      <trkpt lat="42.28544" lon="3.28712">
        <ele>7.9</ele>
        <time>2024-11-10T09:26:19Z</time>
      </trkpt>
      <trkpt lat="42.28543" lon="3.28713">
        <ele>7.9</ele>
        <time>2024-11-10T09:26:20Z</time>
      </trkpt>
      <trkpt lat="42.28543" lon="3.28715">
        <ele>7.9</ele>
        <time>2024-11-10T09:26:21Z</time>
      </trkpt>
      <trkpt lat="42.28542" lon="3.28715">
        <ele>7.9</ele>
        <time>2024-11-10T09:26:22Z</time>
      </trkpt>
      <trkpt lat="42.28541" lon="3.28716">
        <ele>7.9</ele>
        <time>2024-11-10T09:26:23Z</time>
      </trkpt>
      <trkpt lat="42.28541" lon="3.28717">
        <ele>7.9</ele>
        <time>2024-11-10T09:26:24Z</time>
      </trkpt>
      <trkpt lat="42.2854" lon="3.28718">
        <ele>7.9</ele>
        <time>2024-11-10T09:26:25Z</time>
      </trkpt>
      <trkpt lat="42.2854" lon="3.28719">
        <ele>7.9</ele>
        <time>2024-11-10T09:26:26Z</time>
      </trkpt>
      <trkpt lat="42.28539" lon="3.2872">
        <ele>7.9</ele>
        <time>2024-11-10T09:26:27Z</time>
      </trkpt>
      <trkpt lat="42.28539" lon="3.28721">
        <ele>7.8</ele>
        <time>2024-11-10T09:26:28Z</time>
      </trkpt>
      <trkpt lat="42.28538" lon="3.28722">
        <ele>7.8</ele>
        <time>2024-11-10T09:26:29Z</time>
      </trkpt>
      <trkpt lat="42.28537" lon="3.28723">
        <ele>7.8</ele>
        <time>2024-11-10T09:26:30Z</time>
      </trkpt>
      <trkpt lat="42.28536" lon="3.28724">
        <ele>7.8</ele>
        <time>2024-11-10T09:26:31Z</time>
      </trkpt>
      <trkpt lat="42.28536" lon="3.28725">
        <ele>7.8</ele>
        <time>2024-11-10T09:26:32Z</time>
      </trkpt>
      <trkpt lat="42.28535" lon="3.28727">
        <ele>7.8</ele>
        <time>2024-11-10T09:26:33Z</time>
      </trkpt>
      <trkpt lat="42.28534" lon="3.28729">
        <ele>7.8</ele>
        <time>2024-11-10T09:26:34Z</time>
      </trkpt>
      <trkpt lat="42.28533" lon="3.2873">
        <ele>7.8</ele>
        <time>2024-11-10T09:26:35Z</time>
      </trkpt>
      <trkpt lat="42.28533" lon="3.28731">
        <ele>7.8</ele>
        <time>2024-11-10T09:26:36Z</time>
      </trkpt>
      <trkpt lat="42.28532" lon="3.28732">
        <ele>7.8</ele>
        <time>2024-11-10T09:26:37Z</time>
      </trkpt>
      <trkpt lat="42.28531" lon="3.28733">
        <ele>7.8</ele>
        <time>2024-11-10T09:26:38Z</time>
      </trkpt>
      <trkpt lat="42.2853" lon="3.28734">
        <ele>7.8</ele>
        <time>2024-11-10T09:26:39Z</time>
      </trkpt>
      <trkpt lat="42.2853" lon="3.28735">
        <ele>7.8</ele>
        <time>2024-11-10T09:26:40Z</time>
      </trkpt>
      <trkpt lat="42.28529" lon="3.28736">
        <ele>7.8</ele>
        <time>2024-11-10T09:26:41Z</time>
      </trkpt>
      <trkpt lat="42.28528" lon="3.28737">
        <ele>7.8</ele>
        <time>2024-11-10T09:26:42Z</time>
      </trkpt>
      <trkpt lat="42.28527" lon="3.28738">
        <ele>7.8</ele>
        <time>2024-11-10T09:26:43Z</time>
      </trkpt>
      <trkpt lat="42.28526" lon="3.28739">
        <ele>7.8</ele>
        <time>2024-11-10T09:26:44Z</time>
      </trkpt>
      <trkpt lat="42.28526" lon="3.2874">
        <ele>7.8</ele>
        <time>2024-11-10T09:26:45Z</time>
      </trkpt>
      <trkpt lat="42.28525" lon="3.28741">
        <ele>7.8</ele>
        <time>2024-11-10T09:26:46Z</time>
      </trkpt>
      <trkpt lat="42.28524" lon="3.28742">
        <ele>7.8</ele>
        <time>2024-11-10T09:26:47Z</time>
      </trkpt>
      <trkpt lat="42.28524" lon="3.28743">
        <ele>7.8</ele>
        <time>2024-11-10T09:26:48Z</time>
      </trkpt>
      <trkpt lat="42.28522" lon="3.28745">
        <ele>7.8</ele>
        <time>2024-11-10T09:26:49Z</time>
      </trkpt>
      <trkpt lat="42.28521" lon="3.28746">
        <ele>7.8</ele>
        <time>2024-11-10T09:26:50Z</time>
      </trkpt>
      <trkpt lat="42.28521" lon="3.28746">
        <ele>7.8</ele>
        <time>2024-11-10T09:26:51Z</time>
      </trkpt>
      <trkpt lat="42.2852" lon="3.28747">
        <ele>7.8</ele>
        <time>2024-11-10T09:26:52Z</time>
      </trkpt>
      <trkpt lat="42.28519" lon="3.28748">
        <ele>7.8</ele>
        <time>2024-11-10T09:26:53Z</time>
      </trkpt>
      <trkpt lat="42.28518" lon="3.28749">
        <ele>7.8</ele>
        <time>2024-11-10T09:26:54Z</time>
      </trkpt>
      <trkpt lat="42.28517" lon="3.2875">
        <ele>7.8</ele>
        <time>2024-11-10T09:26:55Z</time>
      </trkpt>
      <trkpt lat="42.28516" lon="3.28751">
        <ele>7.8</ele>
        <time>2024-11-10T09:26:56Z</time>
      </trkpt>
      <trkpt lat="42.28516" lon="3.28752">
        <ele>7.8</ele>
        <time>2024-11-10T09:26:57Z</time>
      </trkpt>
      <trkpt lat="42.28515" lon="3.28753">
        <ele>7.7</ele>
        <time>2024-11-10T09:26:58Z</time>
      </trkpt>
      <trkpt lat="42.28514" lon="3.28753">
        <ele>7.7</ele>
        <time>2024-11-10T09:26:59Z</time>
      </trkpt>
      <trkpt lat="42.28513" lon="3.28754">
        <ele>7.7</ele>
        <time>2024-11-10T09:27:00Z</time>
      </trkpt>
      <trkpt lat="42.28512" lon="3.28755">
        <ele>7.7</ele>
        <time>2024-11-10T09:27:01Z</time>
      </trkpt>
      <trkpt lat="42.28511" lon="3.28756">
        <ele>7.7</ele>
        <time>2024-11-10T09:27:02Z</time>
      </trkpt>
      <trkpt lat="42.2851" lon="3.28757">
        <ele>7.7</ele>
        <time>2024-11-10T09:27:03Z</time>
      </trkpt>
      <trkpt lat="42.28509" lon="3.28758">
        <ele>7.7</ele>
        <time>2024-11-10T09:27:04Z</time>
      </trkpt>
      <trkpt lat="42.28509" lon="3.28759">
        <ele>7.7</ele>
        <time>2024-11-10T09:27:05Z</time>
      </trkpt>
      <trkpt lat="42.28508" lon="3.28761">
        <ele>7.7</ele>
        <time>2024-11-10T09:27:06Z</time>
      </trkpt>
      <trkpt lat="42.28508" lon="3.28762">
        <ele>7.7</ele>
        <time>2024-11-10T09:27:07Z</time>
      </trkpt>
      <trkpt lat="42.28507" lon="3.28763">
        <ele>7.7</ele>
        <time>2024-11-10T09:27:08Z</time>
      </trkpt>
      <trkpt lat="42.28506" lon="3.28764">
        <ele>7.7</ele>
        <time>2024-11-10T09:27:09Z</time>
      </trkpt>
      <trkpt lat="42.28505" lon="3.28765">
        <ele>7.7</ele>
        <time>2024-11-10T09:27:10Z</time>
      </trkpt>
      <trkpt lat="42.28504" lon="3.28766">
        <ele>7.7</ele>
        <time>2024-11-10T09:27:11Z</time>
      </trkpt>
      <trkpt lat="42.28504" lon="3.28767">
        <ele>7.6</ele>
        <time>2024-11-10T09:27:12Z</time>
      </trkpt>
      <trkpt lat="42.28503" lon="3.28768">
        <ele>7.6</ele>
        <time>2024-11-10T09:27:13Z</time>
      </trkpt>
      <trkpt lat="42.28502" lon="3.28769">
        <ele>7.6</ele>
        <time>2024-11-10T09:27:14Z</time>
      </trkpt>
      <trkpt lat="42.28501" lon="3.2877">
        <ele>7.6</ele>
        <time>2024-11-10T09:27:15Z</time>
      </trkpt>
      <trkpt lat="42.28501" lon="3.28771">
        <ele>7.6</ele>
        <time>2024-11-10T09:27:16Z</time>
      </trkpt>
      <trkpt lat="42.285" lon="3.28772">
        <ele>7.6</ele>
        <time>2024-11-10T09:27:17Z</time>
      </trkpt>
      <trkpt lat="42.28499" lon="3.28773">
        <ele>7.6</ele>
        <time>2024-11-10T09:27:18Z</time>
      </trkpt>
      <trkpt lat="42.28498" lon="3.28774">
        <ele>7.6</ele>
        <time>2024-11-10T09:27:19Z</time>
      </trkpt>
      <trkpt lat="42.28497" lon="3.28775">
        <ele>7.6</ele>
        <time>2024-11-10T09:27:20Z</time>
      </trkpt>
      <trkpt lat="42.28496" lon="3.28776">
        <ele>7.6</ele>
        <time>2024-11-10T09:27:21Z</time>
      </trkpt>
      <trkpt lat="42.28496" lon="3.28777">
        <ele>7.6</ele>
        <time>2024-11-10T09:27:22Z</time>
      </trkpt>
      <trkpt lat="42.28495" lon="3.28778">
        <ele>7.6</ele>
        <time>2024-11-10T09:27:23Z</time>
      </trkpt>
      <trkpt lat="42.28494" lon="3.28779">
        <ele>7.6</ele>
        <time>2024-11-10T09:27:24Z</time>
      </trkpt>
      <trkpt lat="42.28493" lon="3.2878">
        <ele>7.5</ele>
        <time>2024-11-10T09:27:25Z</time>
      </trkpt>
      <trkpt lat="42.28492" lon="3.28781">
        <ele>7.5</ele>
        <time>2024-11-10T09:27:26Z</time>
      </trkpt>
      <trkpt lat="42.28492" lon="3.28782">
        <ele>7.5</ele>
        <time>2024-11-10T09:27:27Z</time>
      </trkpt>
      <trkpt lat="42.28491" lon="3.28783">
        <ele>7.5</ele>
        <time>2024-11-10T09:27:28Z</time>
      </trkpt>
      <trkpt lat="42.2849" lon="3.28784">
        <ele>7.5</ele>
        <time>2024-11-10T09:27:29Z</time>
      </trkpt>
      <trkpt lat="42.28489" lon="3.28785">
        <ele>7.5</ele>
        <time>2024-11-10T09:27:30Z</time>
      </trkpt>
      <trkpt lat="42.28488" lon="3.28786">
        <ele>7.5</ele>
        <time>2024-11-10T09:27:31Z</time>
      </trkpt>
      <trkpt lat="42.28488" lon="3.28787">
        <ele>7.5</ele>
        <time>2024-11-10T09:27:32Z</time>
      </trkpt>
      <trkpt lat="42.28487" lon="3.28788">
        <ele>7.5</ele>
        <time>2024-11-10T09:27:33Z</time>
      </trkpt>
      <trkpt lat="42.28486" lon="3.28789">
        <ele>7.5</ele>
        <time>2024-11-10T09:27:34Z</time>
      </trkpt>
      <trkpt lat="42.28486" lon="3.28791">
        <ele>7.5</ele>
        <time>2024-11-10T09:27:35Z</time>
      </trkpt>
      <trkpt lat="42.28485" lon="3.28792">
        <ele>7.5</ele>
        <time>2024-11-10T09:27:36Z</time>
      </trkpt>
      <trkpt lat="42.28484" lon="3.28793">
        <ele>7.5</ele>
        <time>2024-11-10T09:27:37Z</time>
      </trkpt>
      <trkpt lat="42.28483" lon="3.28794">
        <ele>7.5</ele>
        <time>2024-11-10T09:27:38Z</time>
      </trkpt>
      <trkpt lat="42.28482" lon="3.28795">
        <ele>7.5</ele>
        <time>2024-11-10T09:27:39Z</time>
      </trkpt>
      <trkpt lat="42.28481" lon="3.28795">
        <ele>7.5</ele>
        <time>2024-11-10T09:27:40Z</time>
      </trkpt>
      <trkpt lat="42.28481" lon="3.28796">
        <ele>7.6</ele>
        <time>2024-11-10T09:27:41Z</time>
      </trkpt>
      <trkpt lat="42.2848" lon="3.28797">
        <ele>7.6</ele>
        <time>2024-11-10T09:27:42Z</time>
      </trkpt>
      <trkpt lat="42.28479" lon="3.28798">
        <ele>7.6</ele>
        <time>2024-11-10T09:27:43Z</time>
      </trkpt>
      <trkpt lat="42.28478" lon="3.28798">
        <ele>7.6</ele>
        <time>2024-11-10T09:27:44Z</time>
      </trkpt>
      <trkpt lat="42.28477" lon="3.28799">
        <ele>7.6</ele>
        <time>2024-11-10T09:27:45Z</time>
      </trkpt>
      <trkpt lat="42.28476" lon="3.28799">
        <ele>7.6</ele>
        <time>2024-11-10T09:27:46Z</time>
      </trkpt>
      <trkpt lat="42.28475" lon="3.288">
        <ele>7.6</ele>
        <time>2024-11-10T09:27:47Z</time>
      </trkpt>
      <trkpt lat="42.28475" lon="3.288">
        <ele>7.6</ele>
        <time>2024-11-10T09:27:48Z</time>
      </trkpt>
      <trkpt lat="42.28474" lon="3.288">
        <ele>7.6</ele>
        <time>2024-11-10T09:27:49Z</time>
      </trkpt>
      <trkpt lat="42.28474" lon="3.28801">
        <ele>7.6</ele>
        <time>2024-11-10T09:27:50Z</time>
      </trkpt>
      <trkpt lat="42.28474" lon="3.28801">
        <ele>7.6</ele>
        <time>2024-11-10T09:27:51Z</time>
      </trkpt>
      <trkpt lat="42.28474" lon="3.28801">
        <ele>7.6</ele>
        <time>2024-11-10T09:27:52Z</time>
      </trkpt>
      <trkpt lat="42.28474" lon="3.28801">
        <ele>7.6</ele>
        <time>2024-11-10T09:27:53Z</time>
      </trkpt>
      <trkpt lat="42.28474" lon="3.28801">
        <ele>7.7</ele>
        <time>2024-11-10T09:27:54Z</time>
      </trkpt>
      <trkpt lat="42.28473" lon="3.28802">
        <ele>7.7</ele>
        <time>2024-11-10T09:27:55Z</time>
      </trkpt>
      <trkpt lat="42.28473" lon="3.28802">
        <ele>7.7</ele>
        <time>2024-11-10T09:27:56Z</time>
      </trkpt>
      <trkpt lat="42.28473" lon="3.28803">
        <ele>7.7</ele>
        <time>2024-11-10T09:27:57Z</time>
      </trkpt>
      <trkpt lat="42.28472" lon="3.28803">
        <ele>7.7</ele>
        <time>2024-11-10T09:27:58Z</time>
      </trkpt>
      <trkpt lat="42.28471" lon="3.28805">
        <ele>7.8</ele>
        <time>2024-11-10T09:27:59Z</time>
      </trkpt>
      <trkpt lat="42.2847" lon="3.28807">
        <ele>7.8</ele>
        <time>2024-11-10T09:28:00Z</time>
      </trkpt>
      <trkpt lat="42.28469" lon="3.28808">
        <ele>7.9</ele>
        <time>2024-11-10T09:28:01Z</time>
      </trkpt>
      <trkpt lat="42.28468" lon="3.2881">
        <ele>7.9</ele>
        <time>2024-11-10T09:28:02Z</time>
      </trkpt>
      <trkpt lat="42.28468" lon="3.28811">
        <ele>7.9</ele>
        <time>2024-11-10T09:28:03Z</time>
      </trkpt>
      <trkpt lat="42.28467" lon="3.28813">
        <ele>8</ele>
        <time>2024-11-10T09:28:04Z</time>
      </trkpt>
      <trkpt lat="42.28466" lon="3.28814">
        <ele>8</ele>
        <time>2024-11-10T09:28:05Z</time>
      </trkpt>
      <trkpt lat="42.28466" lon="3.28815">
        <ele>8</ele>
        <time>2024-11-10T09:28:06Z</time>
      </trkpt>
      <trkpt lat="42.28465" lon="3.28816">
        <ele>8.1</ele>
        <time>2024-11-10T09:28:07Z</time>
      </trkpt>
      <trkpt lat="42.28465" lon="3.28817">
        <ele>8.1</ele>
        <time>2024-11-10T09:28:08Z</time>
      </trkpt>
      <trkpt lat="42.28465" lon="3.28819">
        <ele>8.1</ele>
        <time>2024-11-10T09:28:09Z</time>
      </trkpt>
      <trkpt lat="42.28465" lon="3.2882">
        <ele>8.2</ele>
        <time>2024-11-10T09:28:10Z</time>
      </trkpt>
      <trkpt lat="42.28465" lon="3.28822">
        <ele>8.2</ele>
        <time>2024-11-10T09:28:11Z</time>
      </trkpt>
      <trkpt lat="42.28466" lon="3.28823">
        <ele>8.2</ele>
        <time>2024-11-10T09:28:12Z</time>
      </trkpt>
      <trkpt lat="42.28466" lon="3.28825">
        <ele>8.2</ele>
        <time>2024-11-10T09:28:13Z</time>
      </trkpt>
      <trkpt lat="42.28466" lon="3.28826">
        <ele>8.3</ele>
        <time>2024-11-10T09:28:14Z</time>
      </trkpt>
      <trkpt lat="42.28466" lon="3.28828">
        <ele>8.3</ele>
        <time>2024-11-10T09:28:15Z</time>
      </trkpt>
      <trkpt lat="42.28467" lon="3.28829">
        <ele>8.3</ele>
        <time>2024-11-10T09:28:16Z</time>
      </trkpt>
      <trkpt lat="42.28467" lon="3.28831">
        <ele>8.4</ele>
        <time>2024-11-10T09:28:17Z</time>
      </trkpt>
      <trkpt lat="42.28468" lon="3.28832">
        <ele>8.4</ele>
        <time>2024-11-10T09:28:18Z</time>
      </trkpt>
      <trkpt lat="42.28468" lon="3.28833">
        <ele>8.4</ele>
        <time>2024-11-10T09:28:19Z</time>
      </trkpt>
      <trkpt lat="42.28468" lon="3.28835">
        <ele>8.5</ele>
        <time>2024-11-10T09:28:20Z</time>
      </trkpt>
      <trkpt lat="42.28469" lon="3.28837">
        <ele>8.5</ele>
        <time>2024-11-10T09:28:21Z</time>
      </trkpt>
      <trkpt lat="42.28469" lon="3.28838">
        <ele>8.5</ele>
        <time>2024-11-10T09:28:22Z</time>
      </trkpt>
      <trkpt lat="42.2847" lon="3.28839">
        <ele>8.5</ele>
        <time>2024-11-10T09:28:23Z</time>
      </trkpt>
      <trkpt lat="42.28471" lon="3.28842">
        <ele>8.6</ele>
        <time>2024-11-10T09:28:24Z</time>
      </trkpt>
      <trkpt lat="42.28471" lon="3.28843">
        <ele>8.6</ele>
        <time>2024-11-10T09:28:25Z</time>
      </trkpt>
      <trkpt lat="42.28472" lon="3.28844">
        <ele>8.7</ele>
        <time>2024-11-10T09:28:26Z</time>
      </trkpt>
      <trkpt lat="42.28472" lon="3.28844">
        <ele>8.7</ele>
        <time>2024-11-10T09:28:27Z</time>
      </trkpt>
      <trkpt lat="42.28472" lon="3.28846">
        <ele>8.7</ele>
        <time>2024-11-10T09:28:28Z</time>
      </trkpt>
      <trkpt lat="42.28473" lon="3.28847">
        <ele>8.7</ele>
        <time>2024-11-10T09:28:29Z</time>
      </trkpt>
      <trkpt lat="42.28474" lon="3.28848">
        <ele>8.8</ele>
        <time>2024-11-10T09:28:30Z</time>
      </trkpt>
      <trkpt lat="42.28474" lon="3.2885">
        <ele>8.8</ele>
        <time>2024-11-10T09:28:31Z</time>
      </trkpt>
      <trkpt lat="42.28475" lon="3.2885">
        <ele>8.8</ele>
        <time>2024-11-10T09:28:32Z</time>
      </trkpt>
      <trkpt lat="42.28476" lon="3.28852">
        <ele>8.9</ele>
        <time>2024-11-10T09:28:33Z</time>
      </trkpt>
      <trkpt lat="42.28477" lon="3.28853">
        <ele>8.9</ele>
        <time>2024-11-10T09:28:34Z</time>
      </trkpt>
      <trkpt lat="42.28477" lon="3.28854">
        <ele>9</ele>
        <time>2024-11-10T09:28:35Z</time>
      </trkpt>
      <trkpt lat="42.28479" lon="3.28856">
        <ele>9.1</ele>
        <time>2024-11-10T09:28:36Z</time>
      </trkpt>
      <trkpt lat="42.28479" lon="3.28857">
        <ele>9.1</ele>
        <time>2024-11-10T09:28:37Z</time>
      </trkpt>
      <trkpt lat="42.2848" lon="3.28858">
        <ele>9.1</ele>
        <time>2024-11-10T09:28:38Z</time>
      </trkpt>
      <trkpt lat="42.2848" lon="3.28859">
        <ele>9.2</ele>
        <time>2024-11-10T09:28:39Z</time>
      </trkpt>
      <trkpt lat="42.28481" lon="3.28861">
        <ele>9.2</ele>
        <time>2024-11-10T09:28:40Z</time>
      </trkpt>
      <trkpt lat="42.28481" lon="3.28861">
        <ele>9.2</ele>
        <time>2024-11-10T09:28:41Z</time>
      </trkpt>
      <trkpt lat="42.28482" lon="3.28863">
        <ele>9.3</ele>
        <time>2024-11-10T09:28:42Z</time>
      </trkpt>
      <trkpt lat="42.28483" lon="3.28864">
        <ele>9.3</ele>
        <time>2024-11-10T09:28:43Z</time>
      </trkpt>
      <trkpt lat="42.28483" lon="3.28865">
        <ele>9.4</ele>
        <time>2024-11-10T09:28:44Z</time>
      </trkpt>
      <trkpt lat="42.28484" lon="3.28866">
        <ele>9.4</ele>
        <time>2024-11-10T09:28:45Z</time>
      </trkpt>
      <trkpt lat="42.28484" lon="3.28868">
        <ele>9.5</ele>
        <time>2024-11-10T09:28:46Z</time>
      </trkpt>
      <trkpt lat="42.28485" lon="3.28868">
        <ele>9.5</ele>
        <time>2024-11-10T09:28:47Z</time>
      </trkpt>
      <trkpt lat="42.28486" lon="3.28869">
        <ele>9.5</ele>
        <time>2024-11-10T09:28:48Z</time>
      </trkpt>
      <trkpt lat="42.28486" lon="3.28871">
        <ele>9.6</ele>
        <time>2024-11-10T09:28:49Z</time>
      </trkpt>
      <trkpt lat="42.28487" lon="3.28872">
        <ele>9.6</ele>
        <time>2024-11-10T09:28:50Z</time>
      </trkpt>
      <trkpt lat="42.28488" lon="3.28873">
        <ele>9.7</ele>
        <time>2024-11-10T09:28:51Z</time>
      </trkpt>
      <trkpt lat="42.28488" lon="3.28874">
        <ele>9.7</ele>
        <time>2024-11-10T09:28:52Z</time>
      </trkpt>
      <trkpt lat="42.28489" lon="3.28875">
        <ele>9.7</ele>
        <time>2024-11-10T09:28:53Z</time>
      </trkpt>
      <trkpt lat="42.2849" lon="3.28876">
        <ele>9.8</ele>
        <time>2024-11-10T09:28:54Z</time>
      </trkpt>
      <trkpt lat="42.28491" lon="3.28877">
        <ele>9.8</ele>
        <time>2024-11-10T09:28:55Z</time>
      </trkpt>
      <trkpt lat="42.28491" lon="3.28878">
        <ele>9.8</ele>
        <time>2024-11-10T09:28:56Z</time>
      </trkpt>
      <trkpt lat="42.28492" lon="3.28879">
        <ele>9.8</ele>
        <time>2024-11-10T09:28:57Z</time>
      </trkpt>
      <trkpt lat="42.28493" lon="3.28881">
        <ele>9.9</ele>
        <time>2024-11-10T09:28:58Z</time>
      </trkpt>
      <trkpt lat="42.28493" lon="3.28881">
        <ele>9.9</ele>
        <time>2024-11-10T09:28:59Z</time>
      </trkpt>
      <trkpt lat="42.28494" lon="3.28882">
        <ele>9.9</ele>
        <time>2024-11-10T09:29:00Z</time>
      </trkpt>
      <trkpt lat="42.28494" lon="3.28883">
        <ele>9.9</ele>
        <time>2024-11-10T09:29:01Z</time>
      </trkpt>
      <trkpt lat="42.28495" lon="3.28884">
        <ele>9.9</ele>
        <time>2024-11-10T09:29:02Z</time>
      </trkpt>
      <trkpt lat="42.28495" lon="3.28885">
        <ele>9.9</ele>
        <time>2024-11-10T09:29:03Z</time>
      </trkpt>
      <trkpt lat="42.28496" lon="3.28886">
        <ele>9.9</ele>
        <time>2024-11-10T09:29:04Z</time>
      </trkpt>
      <trkpt lat="42.28497" lon="3.28887">
        <ele>9.9</ele>
        <time>2024-11-10T09:29:05Z</time>
      </trkpt>
      <trkpt lat="42.28497" lon="3.28888">
        <ele>9.9</ele>
        <time>2024-11-10T09:29:06Z</time>
      </trkpt>
      <trkpt lat="42.28498" lon="3.2889">
        <ele>9.9</ele>
        <time>2024-11-10T09:29:07Z</time>
      </trkpt>
      <trkpt lat="42.28498" lon="3.28891">
        <ele>9.9</ele>
        <time>2024-11-10T09:29:08Z</time>
      </trkpt>
      <trkpt lat="42.28499" lon="3.28892">
        <ele>9.8</ele>
        <time>2024-11-10T09:29:09Z</time>
      </trkpt>
      <trkpt lat="42.285" lon="3.28893">
        <ele>9.8</ele>
        <time>2024-11-10T09:29:10Z</time>
      </trkpt>
      <trkpt lat="42.285" lon="3.28894">
        <ele>9.8</ele>
        <time>2024-11-10T09:29:11Z</time>
      </trkpt>
      <trkpt lat="42.28501" lon="3.28896">
        <ele>9.8</ele>
        <time>2024-11-10T09:29:12Z</time>
      </trkpt>
      <trkpt lat="42.28502" lon="3.28897">
        <ele>9.7</ele>
        <time>2024-11-10T09:29:13Z</time>
      </trkpt>
      <trkpt lat="42.28503" lon="3.28897">
        <ele>9.7</ele>
        <time>2024-11-10T09:29:14Z</time>
      </trkpt>
      <trkpt lat="42.28503" lon="3.28897">
        <ele>9.7</ele>
        <time>2024-11-10T09:29:15Z</time>
      </trkpt>
      <trkpt lat="42.28503" lon="3.28898">
        <ele>9.6</ele>
        <time>2024-11-10T09:29:16Z</time>
      </trkpt>
      <trkpt lat="42.28504" lon="3.28899">
        <ele>9.6</ele>
        <time>2024-11-10T09:29:17Z</time>
      </trkpt>
      <trkpt lat="42.28504" lon="3.289">
        <ele>9.5</ele>
        <time>2024-11-10T09:29:18Z</time>
      </trkpt>
      <trkpt lat="42.28505" lon="3.28901">
        <ele>9.5</ele>
        <time>2024-11-10T09:29:19Z</time>
      </trkpt>
      <trkpt lat="42.28506" lon="3.28902">
        <ele>9.4</ele>
        <time>2024-11-10T09:29:20Z</time>
      </trkpt>
      <trkpt lat="42.28506" lon="3.28903">
        <ele>9.3</ele>
        <time>2024-11-10T09:29:21Z</time>
      </trkpt>
      <trkpt lat="42.28507" lon="3.28904">
        <ele>9.2</ele>
        <time>2024-11-10T09:29:22Z</time>
      </trkpt>
      <trkpt lat="42.28507" lon="3.28905">
        <ele>9.2</ele>
        <time>2024-11-10T09:29:23Z</time>
      </trkpt>
      <trkpt lat="42.28508" lon="3.28906">
        <ele>9.1</ele>
        <time>2024-11-10T09:29:24Z</time>
      </trkpt>
      <trkpt lat="42.28509" lon="3.28907">
        <ele>9</ele>
        <time>2024-11-10T09:29:25Z</time>
      </trkpt>
      <trkpt lat="42.28509" lon="3.28908">
        <ele>9</ele>
        <time>2024-11-10T09:29:26Z</time>
      </trkpt>
      <trkpt lat="42.2851" lon="3.28909">
        <ele>8.9</ele>
        <time>2024-11-10T09:29:27Z</time>
      </trkpt>
      <trkpt lat="42.2851" lon="3.2891">
        <ele>8.8</ele>
        <time>2024-11-10T09:29:28Z</time>
      </trkpt>
      <trkpt lat="42.28511" lon="3.28911">
        <ele>8.8</ele>
        <time>2024-11-10T09:29:29Z</time>
      </trkpt>
      <trkpt lat="42.28511" lon="3.28912">
        <ele>8.7</ele>
        <time>2024-11-10T09:29:30Z</time>
      </trkpt>
      <trkpt lat="42.28512" lon="3.28913">
        <ele>8.6</ele>
        <time>2024-11-10T09:29:31Z</time>
      </trkpt>
      <trkpt lat="42.28513" lon="3.28915">
        <ele>8.6</ele>
        <time>2024-11-10T09:29:32Z</time>
      </trkpt>
      <trkpt lat="42.28513" lon="3.28916">
        <ele>8.5</ele>
        <time>2024-11-10T09:29:33Z</time>
      </trkpt>
      <trkpt lat="42.28514" lon="3.28917">
        <ele>8.4</ele>
        <time>2024-11-10T09:29:34Z</time>
      </trkpt>
      <trkpt lat="42.28515" lon="3.28918">
        <ele>8.4</ele>
        <time>2024-11-10T09:29:35Z</time>
      </trkpt>
      <trkpt lat="42.28515" lon="3.28918">
        <ele>8.3</ele>
        <time>2024-11-10T09:29:36Z</time>
      </trkpt>
      <trkpt lat="42.28516" lon="3.2892">
        <ele>8.2</ele>
        <time>2024-11-10T09:29:37Z</time>
      </trkpt>
      <trkpt lat="42.28517" lon="3.28921">
        <ele>8.2</ele>
        <time>2024-11-10T09:29:38Z</time>
      </trkpt>
      <trkpt lat="42.28517" lon="3.28921">
        <ele>8.1</ele>
        <time>2024-11-10T09:29:39Z</time>
      </trkpt>
      <trkpt lat="42.28518" lon="3.28923">
        <ele>8.1</ele>
        <time>2024-11-10T09:29:40Z</time>
      </trkpt>
      <trkpt lat="42.28518" lon="3.28924">
        <ele>8</ele>
        <time>2024-11-10T09:29:41Z</time>
      </trkpt>
      <trkpt lat="42.28519" lon="3.28925">
        <ele>8</ele>
        <time>2024-11-10T09:29:42Z</time>
      </trkpt>
      <trkpt lat="42.28519" lon="3.28926">
        <ele>7.9</ele>
        <time>2024-11-10T09:29:43Z</time>
      </trkpt>
      <trkpt lat="42.2852" lon="3.28927">
        <ele>7.9</ele>
        <time>2024-11-10T09:29:44Z</time>
      </trkpt>
      <trkpt lat="42.2852" lon="3.28928">
        <ele>7.8</ele>
        <time>2024-11-10T09:29:45Z</time>
      </trkpt>
      <trkpt lat="42.28521" lon="3.2893">
        <ele>7.8</ele>
        <time>2024-11-10T09:29:46Z</time>
      </trkpt>
      <trkpt lat="42.28522" lon="3.28931">
        <ele>7.7</ele>
        <time>2024-11-10T09:29:47Z</time>
      </trkpt>
      <trkpt lat="42.28522" lon="3.28932">
        <ele>7.7</ele>
        <time>2024-11-10T09:29:48Z</time>
      </trkpt>
      <trkpt lat="42.28523" lon="3.28933">
        <ele>7.7</ele>
        <time>2024-11-10T09:29:49Z</time>
      </trkpt>
      <trkpt lat="42.28524" lon="3.28934">
        <ele>7.6</ele>
        <time>2024-11-10T09:29:50Z</time>
      </trkpt>
      <trkpt lat="42.28524" lon="3.28935">
        <ele>7.6</ele>
        <time>2024-11-10T09:29:51Z</time>
      </trkpt>
      <trkpt lat="42.28524" lon="3.28936">
        <ele>7.6</ele>
        <time>2024-11-10T09:29:52Z</time>
      </trkpt>
      <trkpt lat="42.28524" lon="3.28937">
        <ele>7.6</ele>
        <time>2024-11-10T09:29:53Z</time>
      </trkpt>
      <trkpt lat="42.28525" lon="3.28937">
        <ele>7.6</ele>
        <time>2024-11-10T09:29:54Z</time>
      </trkpt>
      <trkpt lat="42.28525" lon="3.28938">
        <ele>7.6</ele>
        <time>2024-11-10T09:29:55Z</time>
      </trkpt>
      <trkpt lat="42.28525" lon="3.28939">
        <ele>7.5</ele>
        <time>2024-11-10T09:29:56Z</time>
      </trkpt>
      <trkpt lat="42.28526" lon="3.2894">
        <ele>7.5</ele>
        <time>2024-11-10T09:29:57Z</time>
      </trkpt>
      <trkpt lat="42.28526" lon="3.2894">
        <ele>7.5</ele>
        <time>2024-11-10T09:29:58Z</time>
      </trkpt>
      <trkpt lat="42.28527" lon="3.28941">
        <ele>7.5</ele>
        <time>2024-11-10T09:29:59Z</time>
      </trkpt>
      <trkpt lat="42.28528" lon="3.28941">
        <ele>7.4</ele>
        <time>2024-11-10T09:30:00Z</time>
      </trkpt>
      <trkpt lat="42.28529" lon="3.28942">
        <ele>7.4</ele>
        <time>2024-11-10T09:30:01Z</time>
      </trkpt>
      <trkpt lat="42.2853" lon="3.28942">
        <ele>7.4</ele>
        <time>2024-11-10T09:30:02Z</time>
      </trkpt>
      <trkpt lat="42.28531" lon="3.28942">
        <ele>7.4</ele>
        <time>2024-11-10T09:30:03Z</time>
      </trkpt>
      <trkpt lat="42.28535" lon="3.28943">
        <ele>7.4</ele>
        <time>2024-11-10T09:30:27Z</time>
      </trkpt>
      <trkpt lat="42.28536" lon="3.28943">
        <ele>7.4</ele>
        <time>2024-11-10T09:30:28Z</time>
      </trkpt>
      <trkpt lat="42.28537" lon="3.28944">
        <ele>7.4</ele>
        <time>2024-11-10T09:30:29Z</time>
      </trkpt>
      <trkpt lat="42.28539" lon="3.28944">
        <ele>7.4</ele>
        <time>2024-11-10T09:30:31Z</time>
      </trkpt>
      <trkpt lat="42.2854" lon="3.28944">
        <ele>7.4</ele>
        <time>2024-11-10T09:30:32Z</time>
      </trkpt>
      <trkpt lat="42.28541" lon="3.28944">
        <ele>7.4</ele>
        <time>2024-11-10T09:30:33Z</time>
      </trkpt>
      <trkpt lat="42.28545" lon="3.28947">
        <ele>7.5</ele>
        <time>2024-11-10T09:30:35Z</time>
      </trkpt>
      <trkpt lat="42.28546" lon="3.28947">
        <ele>7.5</ele>
        <time>2024-11-10T09:30:36Z</time>
      </trkpt>
      <trkpt lat="42.28546" lon="3.28948">
        <ele>7.5</ele>
        <time>2024-11-10T09:30:37Z</time>
      </trkpt>
      <trkpt lat="42.28547" lon="3.28948">
        <ele>7.5</ele>
        <time>2024-11-10T09:30:38Z</time>
      </trkpt>
      <trkpt lat="42.28548" lon="3.28949">
        <ele>7.5</ele>
        <time>2024-11-10T09:30:39Z</time>
      </trkpt>
      <trkpt lat="42.28549" lon="3.28949">
        <ele>7.5</ele>
        <time>2024-11-10T09:30:40Z</time>
      </trkpt>
      <trkpt lat="42.2855" lon="3.2895">
        <ele>7.5</ele>
        <time>2024-11-10T09:30:41Z</time>
      </trkpt>
      <trkpt lat="42.28551" lon="3.28951">
        <ele>7.6</ele>
        <time>2024-11-10T09:30:42Z</time>
      </trkpt>
      <trkpt lat="42.28552" lon="3.28951">
        <ele>7.6</ele>
        <time>2024-11-10T09:30:43Z</time>
      </trkpt>
      <trkpt lat="42.28553" lon="3.28952">
        <ele>7.6</ele>
        <time>2024-11-10T09:30:44Z</time>
      </trkpt>
      <trkpt lat="42.28554" lon="3.28953">
        <ele>7.6</ele>
        <time>2024-11-10T09:30:45Z</time>
      </trkpt>
      <trkpt lat="42.28555" lon="3.28954">
        <ele>7.7</ele>
        <time>2024-11-10T09:30:46Z</time>
      </trkpt>
      <trkpt lat="42.28555" lon="3.28956">
        <ele>7.7</ele>
        <time>2024-11-10T09:30:47Z</time>
      </trkpt>
      <trkpt lat="42.28556" lon="3.28957">
        <ele>7.7</ele>
        <time>2024-11-10T09:30:48Z</time>
      </trkpt>
      <trkpt lat="42.28557" lon="3.28959">
        <ele>7.8</ele>
        <time>2024-11-10T09:30:49Z</time>
      </trkpt>
      <trkpt lat="42.28557" lon="3.2896">
        <ele>7.9</ele>
        <time>2024-11-10T09:30:50Z</time>
      </trkpt>
      <trkpt lat="42.28558" lon="3.28961">
        <ele>7.9</ele>
        <time>2024-11-10T09:30:51Z</time>
      </trkpt>
      <trkpt lat="42.28559" lon="3.28963">
        <ele>8</ele>
        <time>2024-11-10T09:30:52Z</time>
      </trkpt>
      <trkpt lat="42.28559" lon="3.28964">
        <ele>8</ele>
        <time>2024-11-10T09:30:53Z</time>
      </trkpt>
      <trkpt lat="42.2856" lon="3.28965">
        <ele>8.1</ele>
        <time>2024-11-10T09:30:54Z</time>
      </trkpt>
      <trkpt lat="42.2856" lon="3.28967">
        <ele>8.1</ele>
        <time>2024-11-10T09:30:55Z</time>
      </trkpt>
      <trkpt lat="42.2856" lon="3.28968">
        <ele>8.1</ele>
        <time>2024-11-10T09:30:56Z</time>
      </trkpt>
      <trkpt lat="42.28561" lon="3.28969">
        <ele>8.2</ele>
        <time>2024-11-10T09:30:57Z</time>
      </trkpt>
      <trkpt lat="42.28561" lon="3.28971">
        <ele>8.2</ele>
        <time>2024-11-10T09:30:58Z</time>
      </trkpt>
      <trkpt lat="42.28562" lon="3.28972">
        <ele>8.2</ele>
        <time>2024-11-10T09:30:59Z</time>
      </trkpt>
      <trkpt lat="42.28562" lon="3.28974">
        <ele>8.3</ele>
        <time>2024-11-10T09:31:00Z</time>
      </trkpt>
      <trkpt lat="42.28562" lon="3.28975">
        <ele>8.3</ele>
        <time>2024-11-10T09:31:01Z</time>
      </trkpt>
      <trkpt lat="42.28562" lon="3.28976">
        <ele>8.3</ele>
        <time>2024-11-10T09:31:02Z</time>
      </trkpt>
      <trkpt lat="42.28562" lon="3.28978">
        <ele>8.3</ele>
        <time>2024-11-10T09:31:03Z</time>
      </trkpt>
      <trkpt lat="42.28562" lon="3.2898">
        <ele>8.3</ele>
        <time>2024-11-10T09:31:04Z</time>
      </trkpt>
      <trkpt lat="42.28562" lon="3.28981">
        <ele>8.3</ele>
        <time>2024-11-10T09:31:05Z</time>
      </trkpt>
      <trkpt lat="42.28562" lon="3.28982">
        <ele>8.3</ele>
        <time>2024-11-10T09:31:06Z</time>
      </trkpt>
      <trkpt lat="42.28561" lon="3.28984">
        <ele>8.3</ele>
        <time>2024-11-10T09:31:07Z</time>
      </trkpt>
      <trkpt lat="42.28561" lon="3.28985">
        <ele>8.3</ele>
        <time>2024-11-10T09:31:08Z</time>
      </trkpt>
      <trkpt lat="42.28561" lon="3.28987">
        <ele>8.3</ele>
        <time>2024-11-10T09:31:09Z</time>
      </trkpt>
      <trkpt lat="42.28561" lon="3.28988">
        <ele>8.3</ele>
        <time>2024-11-10T09:31:10Z</time>
      </trkpt>
      <trkpt lat="42.2856" lon="3.2899">
        <ele>8.3</ele>
        <time>2024-11-10T09:31:11Z</time>
      </trkpt>
      <trkpt lat="42.2856" lon="3.28991">
        <ele>8.3</ele>
        <time>2024-11-10T09:31:12Z</time>
      </trkpt>
      <trkpt lat="42.28559" lon="3.28993">
        <ele>8.2</ele>
        <time>2024-11-10T09:31:13Z</time>
      </trkpt>
      <trkpt lat="42.28559" lon="3.28994">
        <ele>8.2</ele>
        <time>2024-11-10T09:31:14Z</time>
      </trkpt>
      <trkpt lat="42.28558" lon="3.28996">
        <ele>8.2</ele>
        <time>2024-11-10T09:31:15Z</time>
      </trkpt>
      <trkpt lat="42.28558" lon="3.28997">
        <ele>8.2</ele>
        <time>2024-11-10T09:31:16Z</time>
      </trkpt>
      <trkpt lat="42.28557" lon="3.28999">
        <ele>8.1</ele>
        <time>2024-11-10T09:31:17Z</time>
      </trkpt>
      <trkpt lat="42.28557" lon="3.29">
        <ele>8.1</ele>
        <time>2024-11-10T09:31:18Z</time>
      </trkpt>
      <trkpt lat="42.28557" lon="3.29002">
        <ele>8.1</ele>
        <time>2024-11-10T09:31:19Z</time>
      </trkpt>
      <trkpt lat="42.28556" lon="3.29003">
        <ele>8.1</ele>
        <time>2024-11-10T09:31:20Z</time>
      </trkpt>
      <trkpt lat="42.28555" lon="3.29005">
        <ele>8</ele>
        <time>2024-11-10T09:31:21Z</time>
      </trkpt>
      <trkpt lat="42.28555" lon="3.29007">
        <ele>8</ele>
        <time>2024-11-10T09:31:22Z</time>
      </trkpt>
      <trkpt lat="42.28555" lon="3.29008">
        <ele>8</ele>
        <time>2024-11-10T09:31:23Z</time>
      </trkpt>
      <trkpt lat="42.28555" lon="3.29011">
        <ele>7.9</ele>
        <time>2024-11-10T09:31:24Z</time>
      </trkpt>
      <trkpt lat="42.28554" lon="3.29012">
        <ele>7.9</ele>
        <time>2024-11-10T09:31:25Z</time>
      </trkpt>
      <trkpt lat="42.28554" lon="3.29013">
        <ele>7.9</ele>
        <time>2024-11-10T09:31:26Z</time>
      </trkpt>
      <trkpt lat="42.28554" lon="3.29014">
        <ele>7.9</ele>
        <time>2024-11-10T09:31:27Z</time>
      </trkpt>
      <trkpt lat="42.28553" lon="3.29016">
        <ele>7.8</ele>
        <time>2024-11-10T09:31:28Z</time>
      </trkpt>
      <trkpt lat="42.28552" lon="3.29017">
        <ele>7.8</ele>
        <time>2024-11-10T09:31:29Z</time>
      </trkpt>
      <trkpt lat="42.28552" lon="3.29018">
        <ele>7.8</ele>
        <time>2024-11-10T09:31:30Z</time>
      </trkpt>
      <trkpt lat="42.28552" lon="3.2902">
        <ele>7.8</ele>
        <time>2024-11-10T09:31:31Z</time>
      </trkpt>
      <trkpt lat="42.28551" lon="3.29022">
        <ele>7.7</ele>
        <time>2024-11-10T09:31:32Z</time>
      </trkpt>
      <trkpt lat="42.2855" lon="3.29023">
        <ele>7.7</ele>
        <time>2024-11-10T09:31:33Z</time>
      </trkpt>
      <trkpt lat="42.2855" lon="3.29024">
        <ele>7.7</ele>
        <time>2024-11-10T09:31:34Z</time>
      </trkpt>
      <trkpt lat="42.2855" lon="3.29026">
        <ele>7.6</ele>
        <time>2024-11-10T09:31:35Z</time>
      </trkpt>
      <trkpt lat="42.28549" lon="3.29027">
        <ele>7.6</ele>
        <time>2024-11-10T09:31:36Z</time>
      </trkpt>
      <trkpt lat="42.28549" lon="3.29029">
        <ele>7.6</ele>
        <time>2024-11-10T09:31:37Z</time>
      </trkpt>
      <trkpt lat="42.28549" lon="3.2903">
        <ele>7.5</ele>
        <time>2024-11-10T09:31:38Z</time>
      </trkpt>
      <trkpt lat="42.28548" lon="3.29032">
        <ele>7.5</ele>
        <time>2024-11-10T09:31:39Z</time>
      </trkpt>
      <trkpt lat="42.28547" lon="3.29033">
        <ele>7.5</ele>
        <time>2024-11-10T09:31:40Z</time>
      </trkpt>
      <trkpt lat="42.28547" lon="3.29034">
        <ele>7.4</ele>
        <time>2024-11-10T09:31:41Z</time>
      </trkpt>
      <trkpt lat="42.28546" lon="3.29036">
        <ele>7.4</ele>
        <time>2024-11-10T09:31:42Z</time>
      </trkpt>
      <trkpt lat="42.28546" lon="3.29037">
        <ele>7.4</ele>
        <time>2024-11-10T09:31:43Z</time>
      </trkpt>
      <trkpt lat="42.28545" lon="3.29038">
        <ele>7.3</ele>
        <time>2024-11-10T09:31:44Z</time>
      </trkpt>
      <trkpt lat="42.28544" lon="3.29039">
        <ele>7.3</ele>
        <time>2024-11-10T09:31:45Z</time>
      </trkpt>
      <trkpt lat="42.28543" lon="3.2904">
        <ele>7.3</ele>
        <time>2024-11-10T09:31:46Z</time>
      </trkpt>
      <trkpt lat="42.28542" lon="3.29041">
        <ele>7.3</ele>
        <time>2024-11-10T09:31:47Z</time>
      </trkpt>
      <trkpt lat="42.28542" lon="3.29042">
        <ele>7.2</ele>
        <time>2024-11-10T09:31:48Z</time>
      </trkpt>
      <trkpt lat="42.28541" lon="3.29043">
        <ele>7.2</ele>
        <time>2024-11-10T09:31:49Z</time>
      </trkpt>
      <trkpt lat="42.2854" lon="3.29044">
        <ele>7.2</ele>
        <time>2024-11-10T09:31:50Z</time>
      </trkpt>
      <trkpt lat="42.28539" lon="3.29045">
        <ele>7.1</ele>
        <time>2024-11-10T09:31:51Z</time>
      </trkpt>
      <trkpt lat="42.28538" lon="3.29046">
        <ele>7.1</ele>
        <time>2024-11-10T09:31:52Z</time>
      </trkpt>
      <trkpt lat="42.28537" lon="3.29047">
        <ele>7.1</ele>
        <time>2024-11-10T09:31:53Z</time>
      </trkpt>
      <trkpt lat="42.28536" lon="3.29048">
        <ele>7.1</ele>
        <time>2024-11-10T09:31:54Z</time>
      </trkpt>
      <trkpt lat="42.28535" lon="3.29049">
        <ele>7</ele>
        <time>2024-11-10T09:31:55Z</time>
      </trkpt>
      <trkpt lat="42.28534" lon="3.2905">
        <ele>7</ele>
        <time>2024-11-10T09:31:56Z</time>
      </trkpt>
      <trkpt lat="42.28533" lon="3.29051">
        <ele>7</ele>
        <time>2024-11-10T09:31:57Z</time>
      </trkpt>
      <trkpt lat="42.28532" lon="3.29052">
        <ele>7</ele>
        <time>2024-11-10T09:31:58Z</time>
      </trkpt>
      <trkpt lat="42.28532" lon="3.29053">
        <ele>7</ele>
        <time>2024-11-10T09:31:59Z</time>
      </trkpt>
      <trkpt lat="42.28531" lon="3.29054">
        <ele>6.9</ele>
        <time>2024-11-10T09:32:00Z</time>
      </trkpt>
      <trkpt lat="42.2853" lon="3.29055">
        <ele>6.9</ele>
        <time>2024-11-10T09:32:01Z</time>
      </trkpt>
      <trkpt lat="42.28529" lon="3.29056">
        <ele>6.9</ele>
        <time>2024-11-10T09:32:02Z</time>
      </trkpt>
      <trkpt lat="42.28529" lon="3.29057">
        <ele>6.9</ele>
        <time>2024-11-10T09:32:03Z</time>
      </trkpt>
      <trkpt lat="42.28528" lon="3.29058">
        <ele>6.8</ele>
        <time>2024-11-10T09:32:04Z</time>
      </trkpt>
      <trkpt lat="42.28527" lon="3.29058">
        <ele>6.8</ele>
        <time>2024-11-10T09:32:05Z</time>
      </trkpt>
      <trkpt lat="42.28526" lon="3.29059">
        <ele>6.8</ele>
        <time>2024-11-10T09:32:06Z</time>
      </trkpt>
      <trkpt lat="42.28526" lon="3.2906">
        <ele>6.8</ele>
        <time>2024-11-10T09:32:07Z</time>
      </trkpt>
      <trkpt lat="42.28525" lon="3.29061">
        <ele>6.8</ele>
        <time>2024-11-10T09:32:08Z</time>
      </trkpt>
      <trkpt lat="42.28524" lon="3.29062">
        <ele>6.7</ele>
        <time>2024-11-10T09:32:09Z</time>
      </trkpt>
      <trkpt lat="42.28524" lon="3.29063">
        <ele>6.7</ele>
        <time>2024-11-10T09:32:10Z</time>
      </trkpt>
      <trkpt lat="42.28523" lon="3.29064">
        <ele>6.7</ele>
        <time>2024-11-10T09:32:11Z</time>
      </trkpt>
      <trkpt lat="42.28523" lon="3.29066">
        <ele>6.7</ele>
        <time>2024-11-10T09:32:12Z</time>
      </trkpt>
      <trkpt lat="42.28522" lon="3.29067">
        <ele>6.7</ele>
        <time>2024-11-10T09:32:13Z</time>
      </trkpt>
      <trkpt lat="42.28522" lon="3.29068">
        <ele>6.6</ele>
        <time>2024-11-10T09:32:14Z</time>
      </trkpt>
      <trkpt lat="42.28521" lon="3.29069">
        <ele>6.6</ele>
        <time>2024-11-10T09:32:15Z</time>
      </trkpt>
      <trkpt lat="42.28521" lon="3.29071">
        <ele>6.6</ele>
        <time>2024-11-10T09:32:16Z</time>
      </trkpt>
      <trkpt lat="42.2852" lon="3.2907">
        <ele>6.6</ele>
        <time>2024-11-10T09:32:17Z</time>
      </trkpt>
      <trkpt lat="42.2852" lon="3.2907">
        <ele>6.6</ele>
        <time>2024-11-10T09:32:18Z</time>
      </trkpt>
      <trkpt lat="42.2852" lon="3.2907">
        <ele>6.6</ele>
        <time>2024-11-10T09:32:19Z</time>
      </trkpt>
      <trkpt lat="42.28521" lon="3.2907">
        <ele>6.6</ele>
        <time>2024-11-10T09:32:20Z</time>
      </trkpt>
      <trkpt lat="42.28521" lon="3.2907">
        <ele>6.6</ele>
        <time>2024-11-10T09:32:21Z</time>
      </trkpt>
      <trkpt lat="42.28521" lon="3.2907">
        <ele>6.6</ele>
        <time>2024-11-10T09:32:22Z</time>
      </trkpt>
      <trkpt lat="42.28521" lon="3.2907">
        <ele>6.6</ele>
        <time>2024-11-10T09:32:23Z</time>
      </trkpt>
      <trkpt lat="42.28521" lon="3.2907">
        <ele>6.6</ele>
        <time>2024-11-10T09:32:24Z</time>
      </trkpt>
      <trkpt lat="42.28521" lon="3.2907">
        <ele>6.6</ele>
        <time>2024-11-10T09:32:25Z</time>
      </trkpt>
      <trkpt lat="42.28521" lon="3.2907">
        <ele>6.6</ele>
        <time>2024-11-10T09:32:26Z</time>
      </trkpt>
      <trkpt lat="42.28521" lon="3.2907">
        <ele>6.5</ele>
        <time>2024-11-10T09:32:27Z</time>
      </trkpt>
      <trkpt lat="42.2852" lon="3.29071">
        <ele>6.5</ele>
        <time>2024-11-10T09:32:28Z</time>
      </trkpt>
      <trkpt lat="42.28519" lon="3.29071">
        <ele>6.5</ele>
        <time>2024-11-10T09:32:29Z</time>
      </trkpt>
      <trkpt lat="42.28518" lon="3.29073">
        <ele>6.5</ele>
        <time>2024-11-10T09:32:30Z</time>
      </trkpt>
      <trkpt lat="42.28517" lon="3.29073">
        <ele>6.5</ele>
        <time>2024-11-10T09:32:31Z</time>
      </trkpt>
      <trkpt lat="42.28517" lon="3.29072">
        <ele>6.5</ele>
        <time>2024-11-10T09:32:32Z</time>
      </trkpt>
      <trkpt lat="42.28517" lon="3.29072">
        <ele>6.4</ele>
        <time>2024-11-10T09:32:33Z</time>
      </trkpt>
      <trkpt lat="42.28515" lon="3.29074">
        <ele>6.4</ele>
        <time>2024-11-10T09:32:34Z</time>
      </trkpt>
      <trkpt lat="42.28515" lon="3.29075">
        <ele>6.4</ele>
        <time>2024-11-10T09:32:35Z</time>
      </trkpt>
      <trkpt lat="42.28514" lon="3.29077">
        <ele>6.3</ele>
        <time>2024-11-10T09:32:36Z</time>
      </trkpt>
      <trkpt lat="42.28513" lon="3.29077">
        <ele>6.3</ele>
        <time>2024-11-10T09:32:37Z</time>
      </trkpt>
      <trkpt lat="42.28513" lon="3.29076">
        <ele>6.3</ele>
        <time>2024-11-10T09:32:38Z</time>
      </trkpt>
      <trkpt lat="42.28514" lon="3.29076">
        <ele>6.3</ele>
        <time>2024-11-10T09:32:39Z</time>
      </trkpt>
      <trkpt lat="42.28514" lon="3.29076">
        <ele>6.3</ele>
        <time>2024-11-10T09:32:40Z</time>
      </trkpt>
      <trkpt lat="42.28514" lon="3.29076">
        <ele>6.3</ele>
        <time>2024-11-10T09:32:41Z</time>
      </trkpt>
      <trkpt lat="42.28514" lon="3.29076">
        <ele>6.3</ele>
        <time>2024-11-10T09:32:42Z</time>
      </trkpt>
      <trkpt lat="42.28514" lon="3.29076">
        <ele>6.3</ele>
        <time>2024-11-10T09:32:43Z</time>
      </trkpt>
      <trkpt lat="42.28514" lon="3.29076">
        <ele>6.3</ele>
        <time>2024-11-10T09:32:44Z</time>
      </trkpt>
      <trkpt lat="42.28513" lon="3.29077">
        <ele>6.3</ele>
        <time>2024-11-10T09:32:45Z</time>
      </trkpt>
      <trkpt lat="42.28512" lon="3.29078">
        <ele>6.2</ele>
        <time>2024-11-10T09:32:46Z</time>
      </trkpt>
      <trkpt lat="42.28511" lon="3.29079">
        <ele>6.2</ele>
        <time>2024-11-10T09:32:47Z</time>
      </trkpt>
      <trkpt lat="42.2851" lon="3.2908">
        <ele>6.2</ele>
        <time>2024-11-10T09:32:48Z</time>
      </trkpt>
      <trkpt lat="42.28509" lon="3.29082">
        <ele>6.1</ele>
        <time>2024-11-10T09:32:49Z</time>
      </trkpt>
      <trkpt lat="42.28508" lon="3.29083">
        <ele>6.1</ele>
        <time>2024-11-10T09:32:50Z</time>
      </trkpt>
      <trkpt lat="42.28507" lon="3.29084">
        <ele>6.1</ele>
        <time>2024-11-10T09:32:51Z</time>
      </trkpt>
      <trkpt lat="42.28506" lon="3.29085">
        <ele>6</ele>
        <time>2024-11-10T09:32:52Z</time>
      </trkpt>
      <trkpt lat="42.28505" lon="3.29086">
        <ele>6</ele>
        <time>2024-11-10T09:32:53Z</time>
      </trkpt>
      <trkpt lat="42.28504" lon="3.29087">
        <ele>6</ele>
        <time>2024-11-10T09:32:54Z</time>
      </trkpt>
      <trkpt lat="42.28503" lon="3.29087">
        <ele>6</ele>
        <time>2024-11-10T09:32:55Z</time>
      </trkpt>
      <trkpt lat="42.28502" lon="3.29088">
        <ele>5.9</ele>
        <time>2024-11-10T09:32:56Z</time>
      </trkpt>
      <trkpt lat="42.28501" lon="3.29089">
        <ele>5.9</ele>
        <time>2024-11-10T09:32:57Z</time>
      </trkpt>
      <trkpt lat="42.285" lon="3.2909">
        <ele>5.9</ele>
        <time>2024-11-10T09:32:58Z</time>
      </trkpt>
      <trkpt lat="42.28499" lon="3.2909">
        <ele>5.9</ele>
        <time>2024-11-10T09:32:59Z</time>
      </trkpt>
      <trkpt lat="42.28498" lon="3.29091">
        <ele>5.8</ele>
        <time>2024-11-10T09:33:00Z</time>
      </trkpt>
      <trkpt lat="42.28497" lon="3.29091">
        <ele>5.8</ele>
        <time>2024-11-10T09:33:01Z</time>
      </trkpt>
      <trkpt lat="42.28496" lon="3.29092">
        <ele>5.8</ele>
        <time>2024-11-10T09:33:02Z</time>
      </trkpt>
      <trkpt lat="42.28495" lon="3.29093">
        <ele>5.8</ele>
        <time>2024-11-10T09:33:03Z</time>
      </trkpt>
      <trkpt lat="42.28494" lon="3.29093">
        <ele>5.8</ele>
        <time>2024-11-10T09:33:04Z</time>
      </trkpt>
      <trkpt lat="42.28493" lon="3.29094">
        <ele>5.8</ele>
        <time>2024-11-10T09:33:05Z</time>
      </trkpt>
      <trkpt lat="42.28493" lon="3.29095">
        <ele>5.8</ele>
        <time>2024-11-10T09:33:06Z</time>
      </trkpt>
      <trkpt lat="42.28492" lon="3.29096">
        <ele>5.7</ele>
        <time>2024-11-10T09:33:07Z</time>
      </trkpt>
      <trkpt lat="42.28491" lon="3.29096">
        <ele>5.7</ele>
        <time>2024-11-10T09:33:08Z</time>
      </trkpt>
      <trkpt lat="42.2849" lon="3.29097">
        <ele>5.7</ele>
        <time>2024-11-10T09:33:09Z</time>
      </trkpt>
      <trkpt lat="42.28489" lon="3.29098">
        <ele>5.7</ele>
        <time>2024-11-10T09:33:10Z</time>
      </trkpt>
      <trkpt lat="42.28489" lon="3.29099">
        <ele>5.7</ele>
        <time>2024-11-10T09:33:11Z</time>
      </trkpt>
      <trkpt lat="42.28488" lon="3.291">
        <ele>5.7</ele>
        <time>2024-11-10T09:33:12Z</time>
      </trkpt>
      <trkpt lat="42.28487" lon="3.291">
        <ele>5.7</ele>
        <time>2024-11-10T09:33:13Z</time>
      </trkpt>
      <trkpt lat="42.28486" lon="3.291">
        <ele>5.7</ele>
        <time>2024-11-10T09:33:14Z</time>
      </trkpt>
      <trkpt lat="42.28486" lon="3.29101">
        <ele>5.7</ele>
        <time>2024-11-10T09:33:15Z</time>
      </trkpt>
      <trkpt lat="42.28486" lon="3.29101">
        <ele>5.7</ele>
        <time>2024-11-10T09:33:16Z</time>
      </trkpt>
      <trkpt lat="42.28486" lon="3.29101">
        <ele>5.7</ele>
        <time>2024-11-10T09:33:17Z</time>
      </trkpt>
      <trkpt lat="42.28486" lon="3.29101">
        <ele>5.7</ele>
        <time>2024-11-10T09:33:18Z</time>
      </trkpt>
      <trkpt lat="42.28486" lon="3.29101">
        <ele>5.7</ele>
        <time>2024-11-10T09:33:19Z</time>
      </trkpt>
      <trkpt lat="42.28486" lon="3.29101">
        <ele>5.7</ele>
        <time>2024-11-10T09:33:20Z</time>
      </trkpt>
      <trkpt lat="42.28486" lon="3.29101">
        <ele>5.7</ele>
        <time>2024-11-10T09:33:21Z</time>
      </trkpt>
      <trkpt lat="42.28486" lon="3.29101">
        <ele>5.7</ele>
        <time>2024-11-10T09:33:22Z</time>
      </trkpt>
      <trkpt lat="42.28486" lon="3.29101">
        <ele>5.7</ele>
        <time>2024-11-10T09:33:23Z</time>
      </trkpt>
      <trkpt lat="42.28486" lon="3.29101">
        <ele>5.7</ele>
        <time>2024-11-10T09:33:24Z</time>
      </trkpt>
      <trkpt lat="42.28486" lon="3.29101">
        <ele>5.7</ele>
        <time>2024-11-10T09:33:26Z</time>
      </trkpt>
      <trkpt lat="42.29334" lon="3.28583">
        <ele>8.8</ele>
        <time>2024-11-10T10:33:58Z</time>
      </trkpt>
      <trkpt lat="42.29337" lon="3.28588">
        <ele>8.7</ele>
        <time>2024-11-10T10:33:59Z</time>
      </trkpt>
      <trkpt lat="42.29336" lon="3.28593">
        <ele>8.6</ele>
        <time>2024-11-10T10:34:00Z</time>
      </trkpt>
      <trkpt lat="42.29336" lon="3.28592">
        <ele>8.6</ele>
        <time>2024-11-10T10:34:01Z</time>
      </trkpt>
      <trkpt lat="42.29336" lon="3.28592">
        <ele>8.6</ele>
        <time>2024-11-10T10:34:02Z</time>
      </trkpt>
      <trkpt lat="42.29337" lon="3.28592">
        <ele>8.6</ele>
        <time>2024-11-10T10:34:03Z</time>
      </trkpt>
      <trkpt lat="42.29337" lon="3.28592">
        <ele>8.6</ele>
        <time>2024-11-10T10:34:04Z</time>
      </trkpt>
      <trkpt lat="42.29336" lon="3.28592">
        <ele>8.6</ele>
        <time>2024-11-10T10:34:05Z</time>
      </trkpt>
      <trkpt lat="42.29336" lon="3.28592">
        <ele>8.6</ele>
        <time>2024-11-10T10:34:06Z</time>
      </trkpt>
      <trkpt lat="42.29336" lon="3.28592">
        <ele>8.6</ele>
        <time>2024-11-10T10:34:07Z</time>
      </trkpt>
      <trkpt lat="42.29336" lon="3.28592">
        <ele>8.6</ele>
        <time>2024-11-10T10:34:08Z</time>
      </trkpt>
      <trkpt lat="42.29336" lon="3.28592">
        <ele>8.6</ele>
        <time>2024-11-10T10:34:09Z</time>
      </trkpt>
      <trkpt lat="42.29336" lon="3.28593">
        <ele>8.5</ele>
        <time>2024-11-10T10:34:10Z</time>
      </trkpt>
      <trkpt lat="42.29336" lon="3.28593">
        <ele>8.5</ele>
        <time>2024-11-10T10:34:11Z</time>
      </trkpt>
      <trkpt lat="42.29336" lon="3.28593">
        <ele>8.5</ele>
        <time>2024-11-10T10:34:12Z</time>
      </trkpt>
      <trkpt lat="42.29336" lon="3.28593">
        <ele>8.5</ele>
        <time>2024-11-10T10:34:13Z</time>
      </trkpt>
      <trkpt lat="42.29336" lon="3.28593">
        <ele>8.5</ele>
        <time>2024-11-10T10:34:14Z</time>
      </trkpt>
      <trkpt lat="42.29336" lon="3.28593">
        <ele>8.5</ele>
        <time>2024-11-10T10:34:15Z</time>
      </trkpt>
      <trkpt lat="42.29336" lon="3.28593">
        <ele>8.5</ele>
        <time>2024-11-10T10:34:16Z</time>
      </trkpt>
      <trkpt lat="42.29336" lon="3.28593">
        <ele>8.5</ele>
        <time>2024-11-10T10:34:17Z</time>
      </trkpt>
      <trkpt lat="42.29336" lon="3.28593">
        <ele>8.5</ele>
        <time>2024-11-10T10:34:18Z</time>
      </trkpt>
      <trkpt lat="42.29336" lon="3.28593">
        <ele>8.5</ele>
        <time>2024-11-10T10:34:19Z</time>
      </trkpt>
      <trkpt lat="42.29335" lon="3.28593">
        <ele>8.5</ele>
        <time>2024-11-10T10:34:20Z</time>
      </trkpt>
      <trkpt lat="42.29335" lon="3.28593">
        <ele>8.5</ele>
        <time>2024-11-10T10:34:21Z</time>
      </trkpt>
      <trkpt lat="42.29335" lon="3.28593">
        <ele>8.5</ele>
        <time>2024-11-10T10:34:22Z</time>
      </trkpt>
      <trkpt lat="42.29336" lon="3.28593">
        <ele>8.5</ele>
        <time>2024-11-10T10:34:23Z</time>
      </trkpt>
      <trkpt lat="42.29335" lon="3.28593">
        <ele>8.5</ele>
        <time>2024-11-10T10:34:24Z</time>
      </trkpt>
      <trkpt lat="42.29335" lon="3.28593">
        <ele>8.5</ele>
        <time>2024-11-10T10:34:25Z</time>
      </trkpt>
      <trkpt lat="42.29335" lon="3.28593">
        <ele>8.5</ele>
        <time>2024-11-10T10:34:26Z</time>
      </trkpt>
      <trkpt lat="42.29335" lon="3.28593">
        <ele>8.5</ele>
        <time>2024-11-10T10:34:27Z</time>
      </trkpt>
      <trkpt lat="42.29335" lon="3.28593">
        <ele>8.5</ele>
        <time>2024-11-10T10:34:28Z</time>
      </trkpt>
      <trkpt lat="42.29335" lon="3.28593">
        <ele>8.5</ele>
        <time>2024-11-10T10:34:29Z</time>
      </trkpt>
      <trkpt lat="42.29336" lon="3.28593">
        <ele>8.5</ele>
        <time>2024-11-10T10:34:30Z</time>
      </trkpt>
      <trkpt lat="42.29336" lon="3.28594">
        <ele>8.5</ele>
        <time>2024-11-10T10:34:31Z</time>
      </trkpt>
      <trkpt lat="42.29336" lon="3.28594">
        <ele>8.5</ele>
        <time>2024-11-10T10:34:32Z</time>
      </trkpt>
      <trkpt lat="42.29336" lon="3.28594">
        <ele>8.5</ele>
        <time>2024-11-10T10:34:33Z</time>
      </trkpt>
      <trkpt lat="42.29336" lon="3.28594">
        <ele>8.5</ele>
        <time>2024-11-10T10:34:34Z</time>
      </trkpt>
      <trkpt lat="42.29336" lon="3.28593">
        <ele>8.5</ele>
        <time>2024-11-10T10:34:35Z</time>
      </trkpt>
      <trkpt lat="42.29337" lon="3.28593">
        <ele>8.5</ele>
        <time>2024-11-10T10:34:36Z</time>
      </trkpt>
      <trkpt lat="42.29337" lon="3.28593">
        <ele>8.5</ele>
        <time>2024-11-10T10:34:37Z</time>
      </trkpt>
      <trkpt lat="42.29337" lon="3.28593">
        <ele>8.5</ele>
        <time>2024-11-10T10:34:38Z</time>
      </trkpt>
      <trkpt lat="42.29337" lon="3.28593">
        <ele>8.5</ele>
        <time>2024-11-10T10:34:39Z</time>
      </trkpt>
      <trkpt lat="42.29336" lon="3.28593">
        <ele>8.5</ele>
        <time>2024-11-10T10:34:40Z</time>
      </trkpt>
      <trkpt lat="42.29337" lon="3.28593">
        <ele>8.5</ele>
        <time>2024-11-10T10:34:41Z</time>
      </trkpt>
      <trkpt lat="42.29337" lon="3.28593">
        <ele>8.5</ele>
        <time>2024-11-10T10:34:42Z</time>
      </trkpt>
      <trkpt lat="42.29337" lon="3.28593">
        <ele>8.5</ele>
        <time>2024-11-10T10:34:43Z</time>
      </trkpt>
      <trkpt lat="42.29337" lon="3.28593">
        <ele>8.5</ele>
        <time>2024-11-10T10:34:44Z</time>
      </trkpt>
      <trkpt lat="42.29337" lon="3.28593">
        <ele>8.5</ele>
        <time>2024-11-10T10:34:45Z</time>
      </trkpt>
      <trkpt lat="42.29337" lon="3.28593">
        <ele>8.5</ele>
        <time>2024-11-10T10:34:46Z</time>
      </trkpt>
      <trkpt lat="42.29337" lon="3.28593">
        <ele>8.5</ele>
        <time>2024-11-10T10:34:47Z</time>
      </trkpt>
      <trkpt lat="42.29337" lon="3.28593">
        <ele>8.5</ele>
        <time>2024-11-10T10:34:48Z</time>
      </trkpt>
      <trkpt lat="42.29337" lon="3.28593">
        <ele>8.5</ele>
        <time>2024-11-10T10:34:49Z</time>
      </trkpt>
      <trkpt lat="42.29337" lon="3.28593">
        <ele>8.5</ele>
        <time>2024-11-10T10:34:50Z</time>
      </trkpt>
      <trkpt lat="42.29337" lon="3.28593">
        <ele>8.5</ele>
        <time>2024-11-10T10:34:51Z</time>
      </trkpt>
      <trkpt lat="42.29337" lon="3.28593">
        <ele>8.4</ele>
        <time>2024-11-10T10:34:52Z</time>
      </trkpt>
      <trkpt lat="42.29337" lon="3.28593">
        <ele>8.4</ele>
        <time>2024-11-10T10:34:53Z</time>
      </trkpt>
      <trkpt lat="42.29337" lon="3.28593">
        <ele>8.4</ele>
        <time>2024-11-10T10:34:54Z</time>
      </trkpt>
      <trkpt lat="42.29337" lon="3.28593">
        <ele>8.4</ele>
        <time>2024-11-10T10:34:55Z</time>
      </trkpt>
      <trkpt lat="42.29337" lon="3.28593">
        <ele>8.4</ele>
        <time>2024-11-10T10:34:56Z</time>
      </trkpt>
      <trkpt lat="42.29337" lon="3.28593">
        <ele>8.4</ele>
        <time>2024-11-10T10:34:57Z</time>
      </trkpt>
      <trkpt lat="42.29337" lon="3.28593">
        <ele>8.4</ele>
        <time>2024-11-10T10:34:58Z</time>
      </trkpt>
      <trkpt lat="42.29337" lon="3.28593">
        <ele>8.4</ele>
        <time>2024-11-10T10:34:59Z</time>
      </trkpt>
      <trkpt lat="42.29337" lon="3.28593">
        <ele>8.4</ele>
        <time>2024-11-10T10:35:00Z</time>
      </trkpt>
      <trkpt lat="42.29337" lon="3.28593">
        <ele>8.4</ele>
        <time>2024-11-10T10:35:01Z</time>
      </trkpt>
      <trkpt lat="42.29337" lon="3.28594">
        <ele>8.4</ele>
        <time>2024-11-10T10:35:02Z</time>
      </trkpt>
      <trkpt lat="42.29337" lon="3.28593">
        <ele>8.4</ele>
        <time>2024-11-10T10:35:03Z</time>
      </trkpt>
      <trkpt lat="42.29337" lon="3.28593">
        <ele>8.4</ele>
        <time>2024-11-10T10:35:05Z</time>
      </trkpt>
      <trkpt lat="42.29337" lon="3.28593">
        <ele>8.4</ele>
        <time>2024-11-10T10:35:06Z</time>
      </trkpt>
      <trkpt lat="42.29337" lon="3.28593">
        <ele>8.4</ele>
        <time>2024-11-10T10:35:07Z</time>
      </trkpt>
      <trkpt lat="42.29337" lon="3.28593">
        <ele>8.4</ele>
        <time>2024-11-10T10:35:08Z</time>
      </trkpt>
      <trkpt lat="42.29337" lon="3.28593">
        <ele>8.4</ele>
        <time>2024-11-10T10:35:09Z</time>
      </trkpt>
      <trkpt lat="42.29337" lon="3.28593">
        <ele>8.4</ele>
        <time>2024-11-10T10:35:10Z</time>
      </trkpt>
      <trkpt lat="42.29337" lon="3.28593">
        <ele>8.4</ele>
        <time>2024-11-10T10:35:11Z</time>
      </trkpt>
      <trkpt lat="42.29337" lon="3.28593">
        <ele>8.4</ele>
        <time>2024-11-10T10:35:12Z</time>
      </trkpt>
      <trkpt lat="42.29337" lon="3.28593">
        <ele>8.4</ele>
        <time>2024-11-10T10:35:13Z</time>
      </trkpt>
      <trkpt lat="42.29337" lon="3.28593">
        <ele>8.4</ele>
        <time>2024-11-10T10:35:14Z</time>
      </trkpt>
      <trkpt lat="42.29337" lon="3.28593">
        <ele>8.4</ele>
        <time>2024-11-10T10:35:15Z</time>
      </trkpt>
      <trkpt lat="42.29337" lon="3.28593">
        <ele>8.4</ele>
        <time>2024-11-10T10:35:16Z</time>
      </trkpt>
      <trkpt lat="42.29337" lon="3.28593">
        <ele>8.4</ele>
        <time>2024-11-10T10:35:17Z</time>
      </trkpt>
      <trkpt lat="42.29337" lon="3.28593">
        <ele>8.4</ele>
        <time>2024-11-10T10:35:18Z</time>
      </trkpt>
      <trkpt lat="42.29337" lon="3.28593">
        <ele>8.4</ele>
        <time>2024-11-10T10:35:19Z</time>
      </trkpt>
      <trkpt lat="42.29337" lon="3.28593">
        <ele>8.4</ele>
        <time>2024-11-10T10:35:20Z</time>
      </trkpt>
      <trkpt lat="42.29337" lon="3.28593">
        <ele>8.4</ele>
        <time>2024-11-10T10:35:21Z</time>
      </trkpt>
      <trkpt lat="42.29337" lon="3.28593">
        <ele>8.4</ele>
        <time>2024-11-10T10:35:22Z</time>
      </trkpt>
      <trkpt lat="42.29337" lon="3.28593">
        <ele>8.4</ele>
        <time>2024-11-10T10:35:23Z</time>
      </trkpt>
      <trkpt lat="42.29337" lon="3.28593">
        <ele>8.4</ele>
        <time>2024-11-10T10:35:24Z</time>
      </trkpt>
      <trkpt lat="42.29337" lon="3.28593">
        <ele>8.4</ele>
        <time>2024-11-10T10:35:25Z</time>
      </trkpt>
      <trkpt lat="42.29337" lon="3.28593">
        <ele>8.4</ele>
        <time>2024-11-10T10:35:26Z</time>
      </trkpt>
      <trkpt lat="42.29337" lon="3.28593">
        <ele>8.4</ele>
        <time>2024-11-10T10:35:27Z</time>
      </trkpt>
      <trkpt lat="42.29337" lon="3.28593">
        <ele>8.4</ele>
        <time>2024-11-10T10:35:28Z</time>
      </trkpt>
      <trkpt lat="42.29337" lon="3.28593">
        <ele>8.4</ele>
        <time>2024-11-10T10:35:29Z</time>
      </trkpt>
      <trkpt lat="42.29337" lon="3.28593">
        <ele>8.4</ele>
        <time>2024-11-10T10:35:30Z</time>
      </trkpt>
      <trkpt lat="42.29337" lon="3.28593">
        <ele>8.4</ele>
        <time>2024-11-10T10:35:31Z</time>
      </trkpt>
      <trkpt lat="42.29337" lon="3.28593">
        <ele>8.4</ele>
        <time>2024-11-10T10:35:32Z</time>
      </trkpt>
      <trkpt lat="42.29337" lon="3.28593">
        <ele>8.4</ele>
        <time>2024-11-10T10:35:33Z</time>
      </trkpt>
      <trkpt lat="42.29337" lon="3.28593">
        <ele>8.4</ele>
        <time>2024-11-10T10:35:34Z</time>
      </trkpt>
      <trkpt lat="42.29337" lon="3.28593">
        <ele>8.4</ele>
        <time>2024-11-10T10:35:35Z</time>
      </trkpt>
      <trkpt lat="42.29337" lon="3.28593">
        <ele>8.4</ele>
        <time>2024-11-10T10:35:36Z</time>
      </trkpt>
      <trkpt lat="42.29337" lon="3.28593">
        <ele>8.4</ele>
        <time>2024-11-10T10:35:37Z</time>
      </trkpt>
      <trkpt lat="42.29337" lon="3.28593">
        <ele>8.4</ele>
        <time>2024-11-10T10:35:38Z</time>
      </trkpt>
      <trkpt lat="42.29337" lon="3.28593">
        <ele>8.4</ele>
        <time>2024-11-10T10:35:39Z</time>
      </trkpt>
      <trkpt lat="42.29337" lon="3.28593">
        <ele>8.4</ele>
        <time>2024-11-10T10:35:40Z</time>
      </trkpt>
      <trkpt lat="42.29337" lon="3.28593">
        <ele>8.4</ele>
        <time>2024-11-10T10:35:41Z</time>
      </trkpt>
      <trkpt lat="42.29337" lon="3.28593">
        <ele>8.4</ele>
        <time>2024-11-10T10:35:42Z</time>
      </trkpt>
      <trkpt lat="42.29337" lon="3.28593">
        <ele>8.4</ele>
        <time>2024-11-10T10:35:43Z</time>
      </trkpt>
      <trkpt lat="42.29337" lon="3.28593">
        <ele>8.4</ele>
        <time>2024-11-10T10:35:44Z</time>
      </trkpt>
      <trkpt lat="42.29337" lon="3.28593">
        <ele>8.4</ele>
        <time>2024-11-10T10:35:45Z</time>
      </trkpt>
      <trkpt lat="42.29337" lon="3.28593">
        <ele>8.4</ele>
        <time>2024-11-10T10:35:46Z</time>
      </trkpt>
      <trkpt lat="42.29337" lon="3.28593">
        <ele>8.4</ele>
        <time>2024-11-10T10:35:47Z</time>
      </trkpt>
      <trkpt lat="42.29337" lon="3.28593">
        <ele>8.4</ele>
        <time>2024-11-10T10:35:48Z</time>
      </trkpt>
      <trkpt lat="42.29337" lon="3.28593">
        <ele>8.4</ele>
        <time>2024-11-10T10:35:49Z</time>
      </trkpt>
      <trkpt lat="42.29337" lon="3.28593">
        <ele>8.4</ele>
        <time>2024-11-10T10:35:50Z</time>
      </trkpt>
      <trkpt lat="42.29337" lon="3.28593">
        <ele>8.4</ele>
        <time>2024-11-10T10:35:51Z</time>
      </trkpt>
      <trkpt lat="42.29337" lon="3.28593">
        <ele>8.4</ele>
        <time>2024-11-10T10:35:52Z</time>
      </trkpt>
      <trkpt lat="42.29337" lon="3.28593">
        <ele>8.4</ele>
        <time>2024-11-10T10:35:53Z</time>
      </trkpt>
      <trkpt lat="42.29337" lon="3.28593">
        <ele>8.4</ele>
        <time>2024-11-10T10:35:54Z</time>
      </trkpt>
      <trkpt lat="42.29337" lon="3.28593">
        <ele>8.4</ele>
        <time>2024-11-10T10:35:55Z</time>
      </trkpt>
      <trkpt lat="42.29337" lon="3.28593">
        <ele>8.4</ele>
        <time>2024-11-10T10:35:56Z</time>
      </trkpt>
      <trkpt lat="42.29337" lon="3.28593">
        <ele>8.4</ele>
        <time>2024-11-10T10:35:57Z</time>
      </trkpt>
      <trkpt lat="42.29337" lon="3.28593">
        <ele>8.4</ele>
        <time>2024-11-10T10:35:58Z</time>
      </trkpt>
      <trkpt lat="42.29337" lon="3.28593">
        <ele>8.4</ele>
        <time>2024-11-10T10:35:59Z</time>
      </trkpt>
      <trkpt lat="42.29337" lon="3.28593">
        <ele>8.4</ele>
        <time>2024-11-10T10:36:00Z</time>
      </trkpt>
      <trkpt lat="42.29337" lon="3.28593">
        <ele>8.4</ele>
        <time>2024-11-10T10:36:01Z</time>
      </trkpt>
      <trkpt lat="42.29337" lon="3.28593">
        <ele>8.4</ele>
        <time>2024-11-10T10:36:02Z</time>
      </trkpt>
      <trkpt lat="42.29337" lon="3.28593">
        <ele>8.4</ele>
        <time>2024-11-10T10:36:03Z</time>
      </trkpt>
      <trkpt lat="42.29337" lon="3.28593">
        <ele>8.4</ele>
        <time>2024-11-10T10:36:04Z</time>
      </trkpt>
      <trkpt lat="42.29337" lon="3.28593">
        <ele>8.4</ele>
        <time>2024-11-10T10:36:05Z</time>
      </trkpt>
      <trkpt lat="42.29337" lon="3.28593">
        <ele>8.4</ele>
        <time>2024-11-10T10:36:06Z</time>
      </trkpt>
      <trkpt lat="42.29337" lon="3.28593">
        <ele>8.4</ele>
        <time>2024-11-10T10:36:07Z</time>
      </trkpt>
      <trkpt lat="42.29337" lon="3.28593">
        <ele>8.4</ele>
        <time>2024-11-10T10:36:08Z</time>
      </trkpt>
      <trkpt lat="42.29337" lon="3.28593">
        <ele>8.4</ele>
        <time>2024-11-10T10:36:09Z</time>
      </trkpt>
      <trkpt lat="42.29337" lon="3.28593">
        <ele>8.4</ele>
        <time>2024-11-10T10:36:10Z</time>
      </trkpt>
      <trkpt lat="42.29337" lon="3.28593">
        <ele>8.4</ele>
        <time>2024-11-10T10:36:11Z</time>
      </trkpt>
      <trkpt lat="42.29337" lon="3.28593">
        <ele>8.4</ele>
        <time>2024-11-10T10:36:12Z</time>
      </trkpt>
      <trkpt lat="42.29337" lon="3.28593">
        <ele>8.4</ele>
        <time>2024-11-10T10:36:13Z</time>
      </trkpt>
      <trkpt lat="42.29337" lon="3.28593">
        <ele>8.4</ele>
        <time>2024-11-10T10:36:14Z</time>
      </trkpt>
      <trkpt lat="42.29337" lon="3.28593">
        <ele>8.4</ele>
        <time>2024-11-10T10:36:15Z</time>
      </trkpt>
      <trkpt lat="42.29337" lon="3.28593">
        <ele>8.4</ele>
        <time>2024-11-10T10:36:16Z</time>
      </trkpt>
      <trkpt lat="42.29337" lon="3.28593">
        <ele>8.4</ele>
        <time>2024-11-10T10:36:17Z</time>
      </trkpt>
      <trkpt lat="42.29337" lon="3.28593">
        <ele>8.4</ele>
        <time>2024-11-10T10:36:18Z</time>
      </trkpt>
      <trkpt lat="42.29337" lon="3.28593">
        <ele>8.4</ele>
        <time>2024-11-10T10:36:19Z</time>
      </trkpt>
      <trkpt lat="42.29337" lon="3.28593">
        <ele>8.4</ele>
        <time>2024-11-10T10:36:20Z</time>
      </trkpt>
      <trkpt lat="42.29337" lon="3.28593">
        <ele>8.4</ele>
        <time>2024-11-10T10:36:21Z</time>
      </trkpt>
      <trkpt lat="42.29337" lon="3.28593">
        <ele>8.4</ele>
        <time>2024-11-10T10:36:22Z</time>
      </trkpt>
      <trkpt lat="42.29337" lon="3.28593">
        <ele>8.4</ele>
        <time>2024-11-10T10:36:23Z</time>
      </trkpt>
      <trkpt lat="42.29337" lon="3.28593">
        <ele>8.4</ele>
        <time>2024-11-10T10:36:24Z</time>
      </trkpt>
      <trkpt lat="42.29337" lon="3.28593">
        <ele>8.4</ele>
        <time>2024-11-10T10:36:25Z</time>
      </trkpt>
      <trkpt lat="42.29337" lon="3.28593">
        <ele>8.4</ele>
        <time>2024-11-10T10:36:26Z</time>
      </trkpt>
      <trkpt lat="42.29337" lon="3.28593">
        <ele>8.4</ele>
        <time>2024-11-10T10:36:27Z</time>
      </trkpt>
      <trkpt lat="42.29337" lon="3.28593">
        <ele>8.4</ele>
        <time>2024-11-10T10:36:28Z</time>
      </trkpt>
      <trkpt lat="42.29337" lon="3.28593">
        <ele>8.4</ele>
        <time>2024-11-10T10:36:29Z</time>
      </trkpt>
      <trkpt lat="42.29337" lon="3.28593">
        <ele>8.4</ele>
        <time>2024-11-10T10:36:30Z</time>
      </trkpt>
      <trkpt lat="42.29337" lon="3.28593">
        <ele>8.4</ele>
        <time>2024-11-10T10:36:31Z</time>
      </trkpt>
      <trkpt lat="42.29337" lon="3.28593">
        <ele>8.4</ele>
        <time>2024-11-10T10:36:32Z</time>
      </trkpt>
      <trkpt lat="42.29337" lon="3.28593">
        <ele>8.4</ele>
        <time>2024-11-10T10:36:33Z</time>
      </trkpt>
      <trkpt lat="42.29337" lon="3.28593">
        <ele>8.4</ele>
        <time>2024-11-10T10:36:34Z</time>
      </trkpt>
      <trkpt lat="42.29337" lon="3.28593">
        <ele>8.4</ele>
        <time>2024-11-10T10:36:35Z</time>
      </trkpt>
      <trkpt lat="42.29337" lon="3.28593">
        <ele>8.4</ele>
        <time>2024-11-10T10:36:36Z</time>
      </trkpt>
      <trkpt lat="42.29337" lon="3.28593">
        <ele>8.4</ele>
        <time>2024-11-10T10:36:37Z</time>
      </trkpt>
      <trkpt lat="42.29337" lon="3.28593">
        <ele>8.4</ele>
        <time>2024-11-10T10:36:38Z</time>
      </trkpt>
      <trkpt lat="42.29337" lon="3.28593">
        <ele>8.4</ele>
        <time>2024-11-10T10:36:39Z</time>
      </trkpt>
      <trkpt lat="42.29337" lon="3.28593">
        <ele>8.4</ele>
        <time>2024-11-10T10:36:40Z</time>
      </trkpt>
      <trkpt lat="42.29337" lon="3.28593">
        <ele>8.4</ele>
        <time>2024-11-10T10:36:41Z</time>
      </trkpt>
      <trkpt lat="42.29337" lon="3.28593">
        <ele>8.4</ele>
        <time>2024-11-10T10:36:42Z</time>
      </trkpt>
      <trkpt lat="42.29337" lon="3.28593">
        <ele>8.4</ele>
        <time>2024-11-10T10:36:43Z</time>
      </trkpt>
      <trkpt lat="42.29337" lon="3.28593">
        <ele>8.4</ele>
        <time>2024-11-10T10:36:44Z</time>
      </trkpt>
      <trkpt lat="42.29337" lon="3.28593">
        <ele>8.4</ele>
        <time>2024-11-10T10:36:45Z</time>
      </trkpt>
      <trkpt lat="42.29337" lon="3.28593">
        <ele>8.4</ele>
        <time>2024-11-10T10:36:46Z</time>
      </trkpt>
      <trkpt lat="42.29337" lon="3.28593">
        <ele>8.4</ele>
        <time>2024-11-10T10:36:47Z</time>
      </trkpt>
      <trkpt lat="42.29337" lon="3.28593">
        <ele>8.4</ele>
        <time>2024-11-10T10:36:48Z</time>
      </trkpt>
      <trkpt lat="42.29337" lon="3.28593">
        <ele>8.4</ele>
        <time>2024-11-10T10:36:49Z</time>
      </trkpt>
      <trkpt lat="42.29337" lon="3.28593">
        <ele>8.4</ele>
        <time>2024-11-10T10:36:50Z</time>
      </trkpt>
      <trkpt lat="42.29337" lon="3.28593">
        <ele>8.4</ele>
        <time>2024-11-10T10:36:51Z</time>
      </trkpt>
      <trkpt lat="42.29337" lon="3.28593">
        <ele>8.4</ele>
        <time>2024-11-10T10:36:52Z</time>
      </trkpt>
      <trkpt lat="42.29337" lon="3.28593">
        <ele>8.4</ele>
        <time>2024-11-10T10:36:53Z</time>
      </trkpt>
      <trkpt lat="42.29337" lon="3.28593">
        <ele>8.4</ele>
        <time>2024-11-10T10:36:54Z</time>
      </trkpt>
      <trkpt lat="42.29337" lon="3.28593">
        <ele>8.4</ele>
        <time>2024-11-10T10:36:55Z</time>
      </trkpt>
      <trkpt lat="42.29337" lon="3.28593">
        <ele>8.4</ele>
        <time>2024-11-10T10:36:56Z</time>
      </trkpt>
      <trkpt lat="42.29337" lon="3.28593">
        <ele>8.4</ele>
        <time>2024-11-10T10:36:57Z</time>
      </trkpt>
      <trkpt lat="42.29337" lon="3.28593">
        <ele>8.4</ele>
        <time>2024-11-10T10:36:58Z</time>
      </trkpt>
      <trkpt lat="42.29337" lon="3.28593">
        <ele>8.4</ele>
        <time>2024-11-10T10:36:59Z</time>
      </trkpt>
      <trkpt lat="42.29337" lon="3.28593">
        <ele>8.4</ele>
        <time>2024-11-10T10:37:00Z</time>
      </trkpt>
      <trkpt lat="42.29337" lon="3.28593">
        <ele>8.4</ele>
        <time>2024-11-10T10:37:01Z</time>
      </trkpt>
      <trkpt lat="42.29337" lon="3.28593">
        <ele>8.4</ele>
        <time>2024-11-10T10:37:02Z</time>
      </trkpt>
      <trkpt lat="42.29337" lon="3.28593">
        <ele>8.4</ele>
        <time>2024-11-10T10:37:03Z</time>
      </trkpt>
      <trkpt lat="42.29337" lon="3.28593">
        <ele>8.4</ele>
        <time>2024-11-10T10:37:04Z</time>
      </trkpt>
      <trkpt lat="42.29337" lon="3.28593">
        <ele>8.4</ele>
        <time>2024-11-10T10:37:05Z</time>
      </trkpt>
      <trkpt lat="42.29337" lon="3.28593">
        <ele>8.4</ele>
        <time>2024-11-10T10:37:06Z</time>
      </trkpt>
      <trkpt lat="42.29337" lon="3.28593">
        <ele>8.4</ele>
        <time>2024-11-10T10:37:07Z</time>
      </trkpt>
      <trkpt lat="42.29337" lon="3.28593">
        <ele>8.4</ele>
        <time>2024-11-10T10:37:08Z</time>
      </trkpt>
      <trkpt lat="42.29337" lon="3.28593">
        <ele>8.4</ele>
        <time>2024-11-10T10:37:09Z</time>
      </trkpt>
      <trkpt lat="42.29337" lon="3.28593">
        <ele>8.4</ele>
        <time>2024-11-10T10:37:10Z</time>
      </trkpt>
      <trkpt lat="42.29337" lon="3.28593">
        <ele>8.4</ele>
        <time>2024-11-10T10:37:11Z</time>
      </trkpt>
      <trkpt lat="42.29337" lon="3.28593">
        <ele>8.4</ele>
        <time>2024-11-10T10:37:12Z</time>
      </trkpt>
      <trkpt lat="42.29337" lon="3.28593">
        <ele>8.4</ele>
        <time>2024-11-10T10:37:13Z</time>
      </trkpt>
      <trkpt lat="42.29337" lon="3.28593">
        <ele>8.4</ele>
        <time>2024-11-10T10:37:14Z</time>
      </trkpt>
      <trkpt lat="42.29337" lon="3.28593">
        <ele>8.4</ele>
        <time>2024-11-10T10:37:15Z</time>
      </trkpt>
      <trkpt lat="42.29337" lon="3.28593">
        <ele>8.4</ele>
        <time>2024-11-10T10:37:16Z</time>
      </trkpt>
      <trkpt lat="42.29337" lon="3.28593">
        <ele>8.4</ele>
        <time>2024-11-10T10:37:17Z</time>
      </trkpt>
      <trkpt lat="42.29337" lon="3.28593">
        <ele>8.4</ele>
        <time>2024-11-10T10:37:18Z</time>
      </trkpt>
      <trkpt lat="42.29337" lon="3.28593">
        <ele>8.4</ele>
        <time>2024-11-10T10:37:19Z</time>
      </trkpt>
      <trkpt lat="42.29337" lon="3.28593">
        <ele>8.4</ele>
        <time>2024-11-10T10:37:20Z</time>
      </trkpt>
      <trkpt lat="42.29337" lon="3.28593">
        <ele>8.4</ele>
        <time>2024-11-10T10:37:21Z</time>
      </trkpt>
      <trkpt lat="42.29337" lon="3.28593">
        <ele>8.4</ele>
        <time>2024-11-10T10:37:22Z</time>
      </trkpt>
      <trkpt lat="42.29337" lon="3.28593">
        <ele>8.4</ele>
        <time>2024-11-10T10:37:23Z</time>
      </trkpt>
      <trkpt lat="42.29337" lon="3.28593">
        <ele>8.4</ele>
        <time>2024-11-10T10:37:25Z</time>
      </trkpt>
      <trkpt lat="42.29337" lon="3.28593">
        <ele>8.4</ele>
        <time>2024-11-10T10:37:26Z</time>
      </trkpt>
      <trkpt lat="42.29337" lon="3.28593">
        <ele>8.4</ele>
        <time>2024-11-10T10:37:27Z</time>
      </trkpt>
      <trkpt lat="42.29337" lon="3.28593">
        <ele>8.4</ele>
        <time>2024-11-10T10:37:28Z</time>
      </trkpt>
      <trkpt lat="42.29337" lon="3.28593">
        <ele>8.4</ele>
        <time>2024-11-10T10:37:29Z</time>
      </trkpt>
      <trkpt lat="42.29337" lon="3.28593">
        <ele>8.4</ele>
        <time>2024-11-10T10:37:30Z</time>
      </trkpt>
      <trkpt lat="42.29337" lon="3.28593">
        <ele>8.4</ele>
        <time>2024-11-10T10:37:31Z</time>
      </trkpt>
      <trkpt lat="42.29337" lon="3.28593">
        <ele>8.4</ele>
        <time>2024-11-10T10:37:32Z</time>
      </trkpt>
      <trkpt lat="42.29337" lon="3.28593">
        <ele>8.4</ele>
        <time>2024-11-10T10:37:33Z</time>
      </trkpt>
      <trkpt lat="42.29337" lon="3.28593">
        <ele>8.4</ele>
        <time>2024-11-10T10:37:34Z</time>
      </trkpt>
      <trkpt lat="42.29337" lon="3.28593">
        <ele>8.4</ele>
        <time>2024-11-10T10:37:35Z</time>
      </trkpt>
      <trkpt lat="42.29337" lon="3.28593">
        <ele>8.4</ele>
        <time>2024-11-10T10:37:36Z</time>
      </trkpt>
      <trkpt lat="42.29337" lon="3.28593">
        <ele>8.4</ele>
        <time>2024-11-10T10:37:37Z</time>
      </trkpt>
      <trkpt lat="42.29337" lon="3.28593">
        <ele>8.4</ele>
        <time>2024-11-10T10:37:38Z</time>
      </trkpt>
      <trkpt lat="42.29337" lon="3.28593">
        <ele>8.4</ele>
        <time>2024-11-10T10:37:39Z</time>
      </trkpt>
      <trkpt lat="42.29337" lon="3.28593">
        <ele>8.4</ele>
        <time>2024-11-10T10:37:40Z</time>
      </trkpt>
      <trkpt lat="42.29337" lon="3.28593">
        <ele>8.4</ele>
        <time>2024-11-10T10:37:41Z</time>
      </trkpt>
      <trkpt lat="42.29337" lon="3.28593">
        <ele>8.4</ele>
        <time>2024-11-10T10:37:42Z</time>
      </trkpt>
      <trkpt lat="42.29337" lon="3.28593">
        <ele>8.4</ele>
        <time>2024-11-10T10:37:43Z</time>
      </trkpt>
      <trkpt lat="42.29337" lon="3.28593">
        <ele>8.4</ele>
        <time>2024-11-10T10:37:44Z</time>
      </trkpt>
      <trkpt lat="42.29337" lon="3.28593">
        <ele>8.4</ele>
        <time>2024-11-10T10:37:45Z</time>
      </trkpt>
      <trkpt lat="42.29337" lon="3.28593">
        <ele>8.4</ele>
        <time>2024-11-10T10:37:46Z</time>
      </trkpt>
      <trkpt lat="42.29337" lon="3.28593">
        <ele>8.4</ele>
        <time>2024-11-10T10:37:47Z</time>
      </trkpt>
      <trkpt lat="42.29337" lon="3.28593">
        <ele>8.4</ele>
        <time>2024-11-10T10:37:48Z</time>
      </trkpt>
      <trkpt lat="42.29337" lon="3.28593">
        <ele>8.4</ele>
        <time>2024-11-10T10:37:49Z</time>
      </trkpt>
      <trkpt lat="42.29337" lon="3.28593">
        <ele>8.4</ele>
        <time>2024-11-10T10:37:50Z</time>
      </trkpt>
      <trkpt lat="42.29337" lon="3.28593">
        <ele>8.4</ele>
        <time>2024-11-10T10:37:51Z</time>
      </trkpt>
      <trkpt lat="42.29337" lon="3.28593">
        <ele>8.4</ele>
        <time>2024-11-10T10:37:52Z</time>
      </trkpt>
      <trkpt lat="42.29337" lon="3.28593">
        <ele>8.4</ele>
        <time>2024-11-10T10:37:53Z</time>
      </trkpt>
      <trkpt lat="42.29337" lon="3.28593">
        <ele>8.4</ele>
        <time>2024-11-10T10:37:54Z</time>
      </trkpt>
      <trkpt lat="42.29337" lon="3.28593">
        <ele>8.4</ele>
        <time>2024-11-10T10:37:55Z</time>
      </trkpt>
      <trkpt lat="42.29337" lon="3.28593">
        <ele>8.4</ele>
        <time>2024-11-10T10:37:56Z</time>
      </trkpt>
      <trkpt lat="42.29337" lon="3.28593">
        <ele>8.4</ele>
        <time>2024-11-10T10:37:57Z</time>
      </trkpt>
      <trkpt lat="42.29337" lon="3.28593">
        <ele>8.4</ele>
        <time>2024-11-10T10:37:58Z</time>
      </trkpt>
      <trkpt lat="42.29337" lon="3.28593">
        <ele>8.4</ele>
        <time>2024-11-10T10:37:59Z</time>
      </trkpt>
      <trkpt lat="42.29337" lon="3.28593">
        <ele>8.4</ele>
        <time>2024-11-10T10:38:00Z</time>
      </trkpt>
      <trkpt lat="42.29337" lon="3.28593">
        <ele>8.4</ele>
        <time>2024-11-10T10:38:01Z</time>
      </trkpt>
      <trkpt lat="42.29337" lon="3.28593">
        <ele>8.4</ele>
        <time>2024-11-10T10:38:02Z</time>
      </trkpt>
      <trkpt lat="42.29337" lon="3.28593">
        <ele>8.4</ele>
        <time>2024-11-10T10:38:03Z</time>
      </trkpt>
      <trkpt lat="42.29337" lon="3.28593">
        <ele>8.4</ele>
        <time>2024-11-10T10:38:04Z</time>
      </trkpt>
      <trkpt lat="42.29337" lon="3.28593">
        <ele>8.4</ele>
        <time>2024-11-10T10:38:05Z</time>
      </trkpt>
      <trkpt lat="42.29337" lon="3.28593">
        <ele>8.4</ele>
        <time>2024-11-10T10:38:06Z</time>
      </trkpt>
      <trkpt lat="42.29337" lon="3.28593">
        <ele>8.4</ele>
        <time>2024-11-10T10:38:07Z</time>
      </trkpt>
      <trkpt lat="42.29338" lon="3.28593">
        <ele>8.4</ele>
        <time>2024-11-10T10:38:08Z</time>
      </trkpt>
      <trkpt lat="42.29337" lon="3.28593">
        <ele>8.4</ele>
        <time>2024-11-10T10:38:09Z</time>
      </trkpt>
      <trkpt lat="42.29337" lon="3.28593">
        <ele>8.4</ele>
        <time>2024-11-10T10:38:10Z</time>
      </trkpt>
      <trkpt lat="42.29337" lon="3.28593">
        <ele>8.4</ele>
        <time>2024-11-10T10:38:11Z</time>
      </trkpt>
      <trkpt lat="42.29338" lon="3.28593">
        <ele>8.4</ele>
        <time>2024-11-10T10:38:12Z</time>
      </trkpt>
      <trkpt lat="42.29338" lon="3.28593">
        <ele>8.4</ele>
        <time>2024-11-10T10:38:13Z</time>
      </trkpt>
      <trkpt lat="42.29338" lon="3.28593">
        <ele>8.4</ele>
        <time>2024-11-10T10:38:14Z</time>
      </trkpt>
      <trkpt lat="42.29338" lon="3.28593">
        <ele>8.4</ele>
        <time>2024-11-10T10:38:15Z</time>
      </trkpt>
      <trkpt lat="42.29338" lon="3.28593">
        <ele>8.4</ele>
        <time>2024-11-10T10:38:16Z</time>
      </trkpt>
      <trkpt lat="42.29338" lon="3.28593">
        <ele>8.4</ele>
        <time>2024-11-10T10:38:17Z</time>
      </trkpt>
      <trkpt lat="42.29338" lon="3.28593">
        <ele>8.4</ele>
        <time>2024-11-10T10:38:18Z</time>
      </trkpt>
      <trkpt lat="42.29338" lon="3.28593">
        <ele>8.4</ele>
        <time>2024-11-10T10:38:19Z</time>
      </trkpt>
      <trkpt lat="42.29338" lon="3.28593">
        <ele>8.4</ele>
        <time>2024-11-10T10:38:20Z</time>
      </trkpt>
      <trkpt lat="42.29338" lon="3.28593">
        <ele>8.4</ele>
        <time>2024-11-10T10:38:21Z</time>
      </trkpt>
      <trkpt lat="42.29338" lon="3.28593">
        <ele>8.4</ele>
        <time>2024-11-10T10:38:22Z</time>
      </trkpt>
      <trkpt lat="42.29338" lon="3.28593">
        <ele>8.4</ele>
        <time>2024-11-10T10:38:23Z</time>
      </trkpt>
      <trkpt lat="42.29338" lon="3.28593">
        <ele>8.4</ele>
        <time>2024-11-10T10:38:24Z</time>
      </trkpt>
      <trkpt lat="42.29338" lon="3.28593">
        <ele>8.4</ele>
        <time>2024-11-10T10:38:25Z</time>
      </trkpt>
      <trkpt lat="42.29338" lon="3.28593">
        <ele>8.4</ele>
        <time>2024-11-10T10:38:26Z</time>
      </trkpt>
      <trkpt lat="42.29338" lon="3.28593">
        <ele>8.4</ele>
        <time>2024-11-10T10:38:27Z</time>
      </trkpt>
      <trkpt lat="42.29338" lon="3.28593">
        <ele>8.4</ele>
        <time>2024-11-10T10:38:28Z</time>
      </trkpt>
      <trkpt lat="42.29338" lon="3.28593">
        <ele>8.4</ele>
        <time>2024-11-10T10:38:29Z</time>
      </trkpt>
      <trkpt lat="42.29338" lon="3.28593">
        <ele>8.4</ele>
        <time>2024-11-10T10:38:30Z</time>
      </trkpt>
      <trkpt lat="42.29338" lon="3.28593">
        <ele>8.4</ele>
        <time>2024-11-10T10:38:31Z</time>
      </trkpt>
      <trkpt lat="42.29338" lon="3.28593">
        <ele>8.4</ele>
        <time>2024-11-10T10:38:32Z</time>
      </trkpt>
      <trkpt lat="42.29338" lon="3.28593">
        <ele>8.4</ele>
        <time>2024-11-10T10:38:33Z</time>
      </trkpt>
      <trkpt lat="42.29338" lon="3.28593">
        <ele>8.4</ele>
        <time>2024-11-10T10:38:34Z</time>
      </trkpt>
      <trkpt lat="42.29338" lon="3.28593">
        <ele>8.4</ele>
        <time>2024-11-10T10:38:35Z</time>
      </trkpt>
      <trkpt lat="42.29338" lon="3.28593">
        <ele>8.4</ele>
        <time>2024-11-10T10:38:36Z</time>
      </trkpt>
      <trkpt lat="42.29338" lon="3.28593">
        <ele>8.4</ele>
        <time>2024-11-10T10:38:37Z</time>
      </trkpt>
      <trkpt lat="42.29338" lon="3.28593">
        <ele>8.3</ele>
        <time>2024-11-10T10:38:38Z</time>
      </trkpt>
      <trkpt lat="42.29338" lon="3.28593">
        <ele>8.3</ele>
        <time>2024-11-10T10:38:39Z</time>
      </trkpt>
      <trkpt lat="42.29338" lon="3.28593">
        <ele>8.3</ele>
        <time>2024-11-10T10:38:40Z</time>
      </trkpt>
      <trkpt lat="42.29338" lon="3.28593">
        <ele>8.3</ele>
        <time>2024-11-10T10:38:41Z</time>
      </trkpt>
      <trkpt lat="42.29338" lon="3.28593">
        <ele>8.3</ele>
        <time>2024-11-10T10:38:42Z</time>
      </trkpt>
      <trkpt lat="42.29338" lon="3.28593">
        <ele>8.3</ele>
        <time>2024-11-10T10:38:43Z</time>
      </trkpt>
      <trkpt lat="42.29338" lon="3.28593">
        <ele>8.3</ele>
        <time>2024-11-10T10:38:44Z</time>
      </trkpt>
      <trkpt lat="42.29338" lon="3.28593">
        <ele>8.3</ele>
        <time>2024-11-10T10:38:45Z</time>
      </trkpt>
      <trkpt lat="42.29338" lon="3.28593">
        <ele>8.3</ele>
        <time>2024-11-10T10:38:46Z</time>
      </trkpt>
      <trkpt lat="42.29338" lon="3.28593">
        <ele>8.3</ele>
        <time>2024-11-10T10:38:47Z</time>
      </trkpt>
      <trkpt lat="42.29338" lon="3.28593">
        <ele>8.3</ele>
        <time>2024-11-10T10:38:48Z</time>
      </trkpt>
      <trkpt lat="42.29338" lon="3.28593">
        <ele>8.3</ele>
        <time>2024-11-10T10:38:49Z</time>
      </trkpt>
      <trkpt lat="42.29338" lon="3.28593">
        <ele>8.3</ele>
        <time>2024-11-10T10:38:50Z</time>
      </trkpt>
      <trkpt lat="42.29338" lon="3.28593">
        <ele>8.3</ele>
        <time>2024-11-10T10:38:51Z</time>
      </trkpt>
      <trkpt lat="42.29338" lon="3.28593">
        <ele>8.3</ele>
        <time>2024-11-10T10:38:52Z</time>
      </trkpt>
      <trkpt lat="42.29338" lon="3.28593">
        <ele>8.3</ele>
        <time>2024-11-10T10:38:53Z</time>
      </trkpt>
      <trkpt lat="42.29338" lon="3.28593">
        <ele>8.3</ele>
        <time>2024-11-10T10:38:54Z</time>
      </trkpt>
      <trkpt lat="42.29338" lon="3.28593">
        <ele>8.3</ele>
        <time>2024-11-10T10:38:55Z</time>
      </trkpt>
      <trkpt lat="42.29338" lon="3.28593">
        <ele>8.3</ele>
        <time>2024-11-10T10:38:56Z</time>
      </trkpt>
      <trkpt lat="42.29338" lon="3.28593">
        <ele>8.3</ele>
        <time>2024-11-10T10:38:57Z</time>
      </trkpt>
      <trkpt lat="42.29338" lon="3.28593">
        <ele>8.3</ele>
        <time>2024-11-10T10:38:58Z</time>
      </trkpt>
      <trkpt lat="42.29338" lon="3.28593">
        <ele>8.3</ele>
        <time>2024-11-10T10:38:59Z</time>
      </trkpt>
      <trkpt lat="42.29338" lon="3.28593">
        <ele>8.3</ele>
        <time>2024-11-10T10:39:00Z</time>
      </trkpt>
      <trkpt lat="42.29338" lon="3.28593">
        <ele>8.3</ele>
        <time>2024-11-10T10:39:01Z</time>
      </trkpt>
      <trkpt lat="42.29338" lon="3.28593">
        <ele>8.3</ele>
        <time>2024-11-10T10:39:02Z</time>
      </trkpt>
      <trkpt lat="42.29338" lon="3.28593">
        <ele>8.3</ele>
        <time>2024-11-10T10:39:03Z</time>
      </trkpt>
      <trkpt lat="42.29338" lon="3.28593">
        <ele>8.3</ele>
        <time>2024-11-10T10:39:04Z</time>
      </trkpt>
      <trkpt lat="42.29338" lon="3.28593">
        <ele>8.3</ele>
        <time>2024-11-10T10:39:05Z</time>
      </trkpt>
      <trkpt lat="42.29338" lon="3.28593">
        <ele>8.3</ele>
        <time>2024-11-10T10:39:06Z</time>
      </trkpt>
      <trkpt lat="42.29338" lon="3.28593">
        <ele>8.3</ele>
        <time>2024-11-10T10:39:07Z</time>
      </trkpt>
      <trkpt lat="42.29338" lon="3.28593">
        <ele>8.3</ele>
        <time>2024-11-10T10:39:08Z</time>
      </trkpt>
      <trkpt lat="42.29338" lon="3.28593">
        <ele>8.3</ele>
        <time>2024-11-10T10:39:09Z</time>
      </trkpt>
      <trkpt lat="42.29338" lon="3.28593">
        <ele>8.3</ele>
        <time>2024-11-10T10:39:10Z</time>
      </trkpt>
      <trkpt lat="42.29338" lon="3.28593">
        <ele>8.3</ele>
        <time>2024-11-10T10:39:11Z</time>
      </trkpt>
      <trkpt lat="42.29338" lon="3.28593">
        <ele>8.3</ele>
        <time>2024-11-10T10:39:12Z</time>
      </trkpt>
      <trkpt lat="42.29338" lon="3.28593">
        <ele>8.3</ele>
        <time>2024-11-10T10:39:13Z</time>
      </trkpt>
      <trkpt lat="42.29338" lon="3.28593">
        <ele>8.3</ele>
        <time>2024-11-10T10:39:14Z</time>
      </trkpt>
      <trkpt lat="42.29338" lon="3.28593">
        <ele>8.3</ele>
        <time>2024-11-10T10:39:15Z</time>
      </trkpt>
      <trkpt lat="42.29338" lon="3.28593">
        <ele>8.3</ele>
        <time>2024-11-10T10:39:16Z</time>
      </trkpt>
      <trkpt lat="42.29338" lon="3.28593">
        <ele>8.3</ele>
        <time>2024-11-10T10:39:17Z</time>
      </trkpt>
      <trkpt lat="42.29338" lon="3.28593">
        <ele>8.3</ele>
        <time>2024-11-10T10:39:18Z</time>
      </trkpt>
      <trkpt lat="42.29338" lon="3.28593">
        <ele>8.3</ele>
        <time>2024-11-10T10:39:19Z</time>
      </trkpt>
      <trkpt lat="42.29338" lon="3.28593">
        <ele>8.3</ele>
        <time>2024-11-10T10:39:20Z</time>
      </trkpt>
      <trkpt lat="42.29338" lon="3.28593">
        <ele>8.3</ele>
        <time>2024-11-10T10:39:21Z</time>
      </trkpt>
      <trkpt lat="42.29338" lon="3.28593">
        <ele>8.3</ele>
        <time>2024-11-10T10:39:22Z</time>
      </trkpt>
      <trkpt lat="42.29338" lon="3.28593">
        <ele>8.3</ele>
        <time>2024-11-10T10:39:23Z</time>
      </trkpt>
      <trkpt lat="42.29338" lon="3.28593">
        <ele>8.3</ele>
        <time>2024-11-10T10:39:24Z</time>
      </trkpt>
      <trkpt lat="42.29338" lon="3.28593">
        <ele>8.3</ele>
        <time>2024-11-10T10:39:25Z</time>
      </trkpt>
      <trkpt lat="42.29338" lon="3.28593">
        <ele>8.3</ele>
        <time>2024-11-10T10:39:26Z</time>
      </trkpt>
      <trkpt lat="42.29338" lon="3.28593">
        <ele>8.3</ele>
        <time>2024-11-10T10:39:27Z</time>
      </trkpt>
      <trkpt lat="42.29338" lon="3.28593">
        <ele>8.3</ele>
        <time>2024-11-10T10:39:28Z</time>
      </trkpt>
      <trkpt lat="42.29338" lon="3.28593">
        <ele>8.3</ele>
        <time>2024-11-10T10:39:29Z</time>
      </trkpt>
      <trkpt lat="42.29338" lon="3.28593">
        <ele>8.3</ele>
        <time>2024-11-10T10:39:30Z</time>
      </trkpt>
      <trkpt lat="42.29338" lon="3.28593">
        <ele>8.3</ele>
        <time>2024-11-10T10:39:31Z</time>
      </trkpt>
      <trkpt lat="42.29338" lon="3.28593">
        <ele>8.3</ele>
        <time>2024-11-10T10:39:32Z</time>
      </trkpt>
      <trkpt lat="42.29338" lon="3.28593">
        <ele>8.3</ele>
        <time>2024-11-10T10:39:33Z</time>
      </trkpt>
      <trkpt lat="42.29338" lon="3.28593">
        <ele>8.3</ele>
        <time>2024-11-10T10:39:34Z</time>
      </trkpt>
      <trkpt lat="42.29338" lon="3.28593">
        <ele>8.3</ele>
        <time>2024-11-10T10:39:35Z</time>
      </trkpt>
      <trkpt lat="42.29338" lon="3.28593">
        <ele>8.3</ele>
        <time>2024-11-10T10:39:36Z</time>
      </trkpt>
      <trkpt lat="42.29338" lon="3.28593">
        <ele>8.3</ele>
        <time>2024-11-10T10:39:37Z</time>
      </trkpt>
      <trkpt lat="42.29338" lon="3.28593">
        <ele>8.3</ele>
        <time>2024-11-10T10:39:38Z</time>
      </trkpt>
      <trkpt lat="42.29338" lon="3.28593">
        <ele>8.3</ele>
        <time>2024-11-10T10:39:39Z</time>
      </trkpt>
      <trkpt lat="42.29338" lon="3.28593">
        <ele>8.3</ele>
        <time>2024-11-10T10:39:40Z</time>
      </trkpt>
      <trkpt lat="42.29338" lon="3.28593">
        <ele>8.3</ele>
        <time>2024-11-10T10:39:41Z</time>
      </trkpt>
      <trkpt lat="42.29338" lon="3.28593">
        <ele>8.3</ele>
        <time>2024-11-10T10:39:42Z</time>
      </trkpt>
      <trkpt lat="42.29338" lon="3.28593">
        <ele>8.3</ele>
        <time>2024-11-10T10:39:43Z</time>
      </trkpt>
      <trkpt lat="42.29338" lon="3.28593">
        <ele>8.3</ele>
        <time>2024-11-10T10:39:44Z</time>
      </trkpt>
      <trkpt lat="42.29338" lon="3.28593">
        <ele>8.3</ele>
        <time>2024-11-10T10:39:45Z</time>
      </trkpt>
      <trkpt lat="42.29338" lon="3.28593">
        <ele>8.3</ele>
        <time>2024-11-10T10:39:46Z</time>
      </trkpt>
      <trkpt lat="42.29338" lon="3.28593">
        <ele>8.3</ele>
        <time>2024-11-10T10:39:47Z</time>
      </trkpt>
      <trkpt lat="42.29338" lon="3.28593">
        <ele>8.3</ele>
        <time>2024-11-10T10:39:48Z</time>
      </trkpt>
      <trkpt lat="42.29338" lon="3.28593">
        <ele>8.3</ele>
        <time>2024-11-10T10:39:49Z</time>
      </trkpt>
      <trkpt lat="42.29338" lon="3.28593">
        <ele>8.3</ele>
        <time>2024-11-10T10:39:50Z</time>
      </trkpt>
      <trkpt lat="42.29338" lon="3.28593">
        <ele>8.3</ele>
        <time>2024-11-10T10:39:51Z</time>
      </trkpt>
      <trkpt lat="42.29338" lon="3.28593">
        <ele>8.3</ele>
        <time>2024-11-10T10:39:52Z</time>
      </trkpt>
      <trkpt lat="42.29338" lon="3.28593">
        <ele>8.3</ele>
        <time>2024-11-10T10:39:53Z</time>
      </trkpt>
      <trkpt lat="42.29338" lon="3.28593">
        <ele>8.3</ele>
        <time>2024-11-10T10:39:54Z</time>
      </trkpt>
      <trkpt lat="42.29338" lon="3.28593">
        <ele>8.3</ele>
        <time>2024-11-10T10:39:55Z</time>
      </trkpt>
      <trkpt lat="42.29338" lon="3.28593">
        <ele>8.3</ele>
        <time>2024-11-10T10:39:56Z</time>
      </trkpt>
      <trkpt lat="42.29338" lon="3.28593">
        <ele>8.3</ele>
        <time>2024-11-10T10:39:57Z</time>
      </trkpt>
      <trkpt lat="42.29338" lon="3.28593">
        <ele>8.3</ele>
        <time>2024-11-10T10:39:58Z</time>
      </trkpt>
      <trkpt lat="42.29338" lon="3.28593">
        <ele>8.3</ele>
        <time>2024-11-10T10:39:59Z</time>
      </trkpt>
      <trkpt lat="42.29338" lon="3.28593">
        <ele>8.3</ele>
        <time>2024-11-10T10:40:00Z</time>
      </trkpt>
      <trkpt lat="42.29338" lon="3.28593">
        <ele>8.3</ele>
        <time>2024-11-10T10:40:01Z</time>
      </trkpt>
      <trkpt lat="42.29338" lon="3.28593">
        <ele>8.3</ele>
        <time>2024-11-10T10:40:02Z</time>
      </trkpt>
      <trkpt lat="42.29338" lon="3.28593">
        <ele>8.3</ele>
        <time>2024-11-10T10:40:03Z</time>
      </trkpt>
      <trkpt lat="42.29338" lon="3.28593">
        <ele>8.3</ele>
        <time>2024-11-10T10:40:04Z</time>
      </trkpt>
      <trkpt lat="42.29338" lon="3.28593">
        <ele>8.3</ele>
        <time>2024-11-10T10:40:05Z</time>
      </trkpt>
      <trkpt lat="42.29338" lon="3.28593">
        <ele>8.3</ele>
        <time>2024-11-10T10:40:06Z</time>
      </trkpt>
      <trkpt lat="42.29338" lon="3.28593">
        <ele>8.3</ele>
        <time>2024-11-10T10:40:07Z</time>
      </trkpt>
      <trkpt lat="42.29338" lon="3.28593">
        <ele>8.3</ele>
        <time>2024-11-10T10:40:08Z</time>
      </trkpt>
      <trkpt lat="42.29338" lon="3.28593">
        <ele>8.3</ele>
        <time>2024-11-10T10:40:09Z</time>
      </trkpt>
      <trkpt lat="42.29338" lon="3.28593">
        <ele>8.3</ele>
        <time>2024-11-10T10:40:10Z</time>
      </trkpt>
      <trkpt lat="42.29338" lon="3.28593">
        <ele>8.3</ele>
        <time>2024-11-10T10:40:11Z</time>
      </trkpt>
      <trkpt lat="42.29338" lon="3.28593">
        <ele>8.3</ele>
        <time>2024-11-10T10:40:12Z</time>
      </trkpt>
      <trkpt lat="42.29338" lon="3.28593">
        <ele>8.3</ele>
        <time>2024-11-10T10:40:13Z</time>
      </trkpt>
      <trkpt lat="42.29338" lon="3.28593">
        <ele>8.3</ele>
        <time>2024-11-10T10:40:14Z</time>
      </trkpt>
      <trkpt lat="42.29338" lon="3.28593">
        <ele>8.3</ele>
        <time>2024-11-10T10:40:15Z</time>
      </trkpt>
      <trkpt lat="42.29338" lon="3.28593">
        <ele>8.3</ele>
        <time>2024-11-10T10:40:16Z</time>
      </trkpt>
      <trkpt lat="42.29338" lon="3.28593">
        <ele>8.3</ele>
        <time>2024-11-10T10:40:17Z</time>
      </trkpt>
      <trkpt lat="42.29338" lon="3.28593">
        <ele>8.3</ele>
        <time>2024-11-10T10:40:18Z</time>
      </trkpt>
      <trkpt lat="42.29338" lon="3.28593">
        <ele>8.3</ele>
        <time>2024-11-10T10:40:19Z</time>
      </trkpt>
      <trkpt lat="42.29338" lon="3.28593">
        <ele>8.3</ele>
        <time>2024-11-10T10:40:20Z</time>
      </trkpt>
      <trkpt lat="42.29338" lon="3.28593">
        <ele>8.3</ele>
        <time>2024-11-10T10:40:21Z</time>
      </trkpt>
      <trkpt lat="42.29338" lon="3.28593">
        <ele>8.3</ele>
        <time>2024-11-10T10:40:22Z</time>
      </trkpt>
      <trkpt lat="42.29338" lon="3.28593">
        <ele>8.3</ele>
        <time>2024-11-10T10:40:23Z</time>
      </trkpt>
      <trkpt lat="42.29338" lon="3.28593">
        <ele>8.3</ele>
        <time>2024-11-10T10:40:24Z</time>
      </trkpt>
      <trkpt lat="42.29338" lon="3.28593">
        <ele>8.3</ele>
        <time>2024-11-10T10:40:25Z</time>
      </trkpt>
      <trkpt lat="42.29338" lon="3.28593">
        <ele>8.3</ele>
        <time>2024-11-10T10:40:26Z</time>
      </trkpt>
      <trkpt lat="42.29338" lon="3.28593">
        <ele>8.3</ele>
        <time>2024-11-10T10:40:27Z</time>
      </trkpt>
      <trkpt lat="42.29338" lon="3.28593">
        <ele>8.3</ele>
        <time>2024-11-10T10:40:28Z</time>
      </trkpt>
      <trkpt lat="42.29338" lon="3.28593">
        <ele>8.3</ele>
        <time>2024-11-10T10:40:29Z</time>
      </trkpt>
      <trkpt lat="42.29338" lon="3.28593">
        <ele>8.3</ele>
        <time>2024-11-10T10:40:30Z</time>
      </trkpt>
      <trkpt lat="42.29338" lon="3.28593">
        <ele>8.3</ele>
        <time>2024-11-10T10:40:31Z</time>
      </trkpt>
      <trkpt lat="42.29338" lon="3.28593">
        <ele>8.3</ele>
        <time>2024-11-10T10:40:32Z</time>
      </trkpt>
      <trkpt lat="42.29338" lon="3.28593">
        <ele>8.3</ele>
        <time>2024-11-10T10:40:33Z</time>
      </trkpt>
      <trkpt lat="42.29338" lon="3.28593">
        <ele>8.3</ele>
        <time>2024-11-10T10:40:34Z</time>
      </trkpt>
      <trkpt lat="42.29338" lon="3.28593">
        <ele>8.3</ele>
        <time>2024-11-10T10:40:35Z</time>
      </trkpt>
      <trkpt lat="42.29338" lon="3.28593">
        <ele>8.3</ele>
        <time>2024-11-10T10:40:36Z</time>
      </trkpt>
      <trkpt lat="42.29338" lon="3.28593">
        <ele>8.3</ele>
        <time>2024-11-10T10:40:37Z</time>
      </trkpt>
      <trkpt lat="42.29338" lon="3.28593">
        <ele>8.3</ele>
        <time>2024-11-10T10:40:38Z</time>
      </trkpt>
      <trkpt lat="42.29338" lon="3.28593">
        <ele>8.3</ele>
        <time>2024-11-10T10:40:39Z</time>
      </trkpt>
      <trkpt lat="42.29338" lon="3.28593">
        <ele>8.3</ele>
        <time>2024-11-10T10:40:40Z</time>
      </trkpt>
      <trkpt lat="42.29338" lon="3.28593">
        <ele>8.3</ele>
        <time>2024-11-10T10:40:41Z</time>
      </trkpt>
      <trkpt lat="42.29338" lon="3.28593">
        <ele>8.3</ele>
        <time>2024-11-10T10:40:42Z</time>
      </trkpt>
      <trkpt lat="42.29338" lon="3.28593">
        <ele>8.3</ele>
        <time>2024-11-10T10:40:43Z</time>
      </trkpt>
      <trkpt lat="42.29338" lon="3.28593">
        <ele>8.3</ele>
        <time>2024-11-10T10:40:44Z</time>
      </trkpt>
      <trkpt lat="42.29338" lon="3.28593">
        <ele>8.3</ele>
        <time>2024-11-10T10:40:45Z</time>
      </trkpt>
      <trkpt lat="42.29338" lon="3.28593">
        <ele>8.3</ele>
        <time>2024-11-10T10:40:46Z</time>
      </trkpt>
      <trkpt lat="42.29338" lon="3.28593">
        <ele>8.3</ele>
        <time>2024-11-10T10:40:47Z</time>
      </trkpt>
      <trkpt lat="42.29338" lon="3.28593">
        <ele>8.3</ele>
        <time>2024-11-10T10:40:48Z</time>
      </trkpt>
      <trkpt lat="42.29338" lon="3.28593">
        <ele>8.3</ele>
        <time>2024-11-10T10:40:49Z</time>
      </trkpt>
      <trkpt lat="42.29338" lon="3.28593">
        <ele>8.3</ele>
        <time>2024-11-10T10:40:50Z</time>
      </trkpt>
      <trkpt lat="42.29338" lon="3.28593">
        <ele>8.3</ele>
        <time>2024-11-10T10:40:51Z</time>
      </trkpt>
      <trkpt lat="42.29338" lon="3.28593">
        <ele>8.3</ele>
        <time>2024-11-10T10:40:52Z</time>
      </trkpt>
      <trkpt lat="42.29338" lon="3.28593">
        <ele>8.3</ele>
        <time>2024-11-10T10:40:53Z</time>
      </trkpt>
      <trkpt lat="42.29338" lon="3.28593">
        <ele>8.3</ele>
        <time>2024-11-10T10:40:54Z</time>
      </trkpt>
      <trkpt lat="42.29338" lon="3.28593">
        <ele>8.3</ele>
        <time>2024-11-10T10:40:55Z</time>
      </trkpt>
      <trkpt lat="42.29338" lon="3.28593">
        <ele>8.3</ele>
        <time>2024-11-10T10:40:56Z</time>
      </trkpt>
      <trkpt lat="42.29338" lon="3.28593">
        <ele>8.3</ele>
        <time>2024-11-10T10:40:57Z</time>
      </trkpt>
      <trkpt lat="42.29338" lon="3.28593">
        <ele>8.3</ele>
        <time>2024-11-10T10:40:58Z</time>
      </trkpt>
      <trkpt lat="42.29338" lon="3.28593">
        <ele>8.3</ele>
        <time>2024-11-10T10:40:59Z</time>
      </trkpt>
      <trkpt lat="42.29338" lon="3.28593">
        <ele>8.3</ele>
        <time>2024-11-10T10:41:00Z</time>
      </trkpt>
      <trkpt lat="42.29338" lon="3.28593">
        <ele>8.3</ele>
        <time>2024-11-10T10:41:01Z</time>
      </trkpt>
      <trkpt lat="42.29338" lon="3.28593">
        <ele>8.3</ele>
        <time>2024-11-10T10:41:02Z</time>
      </trkpt>
      <trkpt lat="42.29338" lon="3.28593">
        <ele>8.3</ele>
        <time>2024-11-10T10:41:03Z</time>
      </trkpt>
      <trkpt lat="42.29338" lon="3.28593">
        <ele>8.3</ele>
        <time>2024-11-10T10:41:04Z</time>
      </trkpt>
      <trkpt lat="42.29338" lon="3.28593">
        <ele>8.3</ele>
        <time>2024-11-10T10:41:05Z</time>
      </trkpt>
      <trkpt lat="42.29338" lon="3.28593">
        <ele>8.3</ele>
        <time>2024-11-10T10:41:06Z</time>
      </trkpt>
      <trkpt lat="42.29338" lon="3.28593">
        <ele>8.3</ele>
        <time>2024-11-10T10:41:07Z</time>
      </trkpt>
      <trkpt lat="42.29338" lon="3.28593">
        <ele>8.3</ele>
        <time>2024-11-10T10:41:08Z</time>
      </trkpt>
      <trkpt lat="42.29338" lon="3.28593">
        <ele>8.3</ele>
        <time>2024-11-10T10:41:09Z</time>
      </trkpt>
      <trkpt lat="42.29338" lon="3.28593">
        <ele>8.3</ele>
        <time>2024-11-10T10:41:10Z</time>
      </trkpt>
      <trkpt lat="42.29338" lon="3.28593">
        <ele>8.3</ele>
        <time>2024-11-10T10:41:11Z</time>
      </trkpt>
      <trkpt lat="42.29338" lon="3.28593">
        <ele>8.3</ele>
        <time>2024-11-10T10:41:12Z</time>
      </trkpt>
      <trkpt lat="42.29338" lon="3.28593">
        <ele>8.3</ele>
        <time>2024-11-10T10:41:13Z</time>
      </trkpt>
      <trkpt lat="42.29338" lon="3.28592">
        <ele>8.3</ele>
        <time>2024-11-10T10:41:14Z</time>
      </trkpt>
      <trkpt lat="42.29338" lon="3.28592">
        <ele>8.3</ele>
        <time>2024-11-10T10:41:15Z</time>
      </trkpt>
      <trkpt lat="42.29338" lon="3.28592">
        <ele>8.3</ele>
        <time>2024-11-10T10:41:16Z</time>
      </trkpt>
      <trkpt lat="42.29338" lon="3.28592">
        <ele>8.3</ele>
        <time>2024-11-10T10:41:17Z</time>
      </trkpt>
      <trkpt lat="42.29338" lon="3.28592">
        <ele>8.3</ele>
        <time>2024-11-10T10:41:18Z</time>
      </trkpt>
      <trkpt lat="42.29338" lon="3.28592">
        <ele>8.3</ele>
        <time>2024-11-10T10:41:19Z</time>
      </trkpt>
      <trkpt lat="42.29338" lon="3.28592">
        <ele>8.3</ele>
        <time>2024-11-10T10:41:20Z</time>
      </trkpt>
      <trkpt lat="42.29338" lon="3.28592">
        <ele>8.3</ele>
        <time>2024-11-10T10:41:21Z</time>
      </trkpt>
      <trkpt lat="42.29338" lon="3.28592">
        <ele>8.3</ele>
        <time>2024-11-10T10:41:22Z</time>
      </trkpt>
      <trkpt lat="42.29338" lon="3.28592">
        <ele>8.3</ele>
        <time>2024-11-10T10:41:23Z</time>
      </trkpt>
      <trkpt lat="42.29338" lon="3.28592">
        <ele>8.3</ele>
        <time>2024-11-10T10:41:24Z</time>
      </trkpt>
      <trkpt lat="42.29338" lon="3.28592">
        <ele>8.3</ele>
        <time>2024-11-10T10:41:25Z</time>
      </trkpt>
      <trkpt lat="42.29338" lon="3.28592">
        <ele>8.3</ele>
        <time>2024-11-10T10:41:26Z</time>
      </trkpt>
      <trkpt lat="42.29338" lon="3.28592">
        <ele>8.3</ele>
        <time>2024-11-10T10:41:27Z</time>
      </trkpt>
      <trkpt lat="42.29338" lon="3.28592">
        <ele>8.3</ele>
        <time>2024-11-10T10:41:28Z</time>
      </trkpt>
      <trkpt lat="42.29338" lon="3.28592">
        <ele>8.3</ele>
        <time>2024-11-10T10:41:29Z</time>
      </trkpt>
      <trkpt lat="42.29338" lon="3.28592">
        <ele>8.3</ele>
        <time>2024-11-10T10:41:30Z</time>
      </trkpt>
      <trkpt lat="42.29338" lon="3.28592">
        <ele>8.3</ele>
        <time>2024-11-10T10:41:31Z</time>
      </trkpt>
      <trkpt lat="42.29338" lon="3.28592">
        <ele>8.3</ele>
        <time>2024-11-10T10:41:32Z</time>
      </trkpt>
      <trkpt lat="42.29338" lon="3.28592">
        <ele>8.3</ele>
        <time>2024-11-10T10:41:33Z</time>
      </trkpt>
      <trkpt lat="42.29338" lon="3.28592">
        <ele>8.3</ele>
        <time>2024-11-10T10:41:34Z</time>
      </trkpt>
      <trkpt lat="42.29338" lon="3.28592">
        <ele>8.3</ele>
        <time>2024-11-10T10:41:35Z</time>
      </trkpt>
      <trkpt lat="42.29338" lon="3.28592">
        <ele>8.3</ele>
        <time>2024-11-10T10:41:36Z</time>
      </trkpt>
      <trkpt lat="42.29338" lon="3.28592">
        <ele>8.3</ele>
        <time>2024-11-10T10:41:37Z</time>
      </trkpt>
      <trkpt lat="42.29338" lon="3.28592">
        <ele>8.3</ele>
        <time>2024-11-10T10:41:38Z</time>
      </trkpt>
      <trkpt lat="42.29338" lon="3.28592">
        <ele>8.3</ele>
        <time>2024-11-10T10:41:39Z</time>
      </trkpt>
      <trkpt lat="42.29338" lon="3.28592">
        <ele>8.3</ele>
        <time>2024-11-10T10:41:40Z</time>
      </trkpt>
      <trkpt lat="42.29338" lon="3.28592">
        <ele>8.3</ele>
        <time>2024-11-10T10:41:41Z</time>
      </trkpt>
      <trkpt lat="42.29338" lon="3.28592">
        <ele>8.3</ele>
        <time>2024-11-10T10:41:42Z</time>
      </trkpt>
      <trkpt lat="42.29338" lon="3.28592">
        <ele>8.3</ele>
        <time>2024-11-10T10:41:43Z</time>
      </trkpt>
      <trkpt lat="42.29338" lon="3.28592">
        <ele>8.3</ele>
        <time>2024-11-10T10:41:44Z</time>
      </trkpt>
      <trkpt lat="42.29338" lon="3.28592">
        <ele>8.3</ele>
        <time>2024-11-10T10:41:45Z</time>
      </trkpt>
      <trkpt lat="42.29338" lon="3.28592">
        <ele>8.3</ele>
        <time>2024-11-10T10:41:46Z</time>
      </trkpt>
      <trkpt lat="42.29338" lon="3.28592">
        <ele>8.3</ele>
        <time>2024-11-10T10:41:47Z</time>
      </trkpt>
      <trkpt lat="42.29338" lon="3.28592">
        <ele>8.3</ele>
        <time>2024-11-10T10:41:48Z</time>
      </trkpt>
      <trkpt lat="42.29338" lon="3.28592">
        <ele>8.3</ele>
        <time>2024-11-10T10:41:49Z</time>
      </trkpt>
      <trkpt lat="42.29338" lon="3.28592">
        <ele>8.3</ele>
        <time>2024-11-10T10:41:50Z</time>
      </trkpt>
      <trkpt lat="42.29338" lon="3.28592">
        <ele>8.3</ele>
        <time>2024-11-10T10:41:51Z</time>
      </trkpt>
      <trkpt lat="42.29338" lon="3.28592">
        <ele>8.3</ele>
        <time>2024-11-10T10:41:52Z</time>
      </trkpt>
      <trkpt lat="42.29338" lon="3.28592">
        <ele>8.3</ele>
        <time>2024-11-10T10:41:53Z</time>
      </trkpt>
      <trkpt lat="42.29338" lon="3.28592">
        <ele>8.3</ele>
        <time>2024-11-10T10:41:54Z</time>
      </trkpt>
      <trkpt lat="42.29338" lon="3.28592">
        <ele>8.3</ele>
        <time>2024-11-10T10:41:55Z</time>
      </trkpt>
      <trkpt lat="42.29338" lon="3.28592">
        <ele>8.3</ele>
        <time>2024-11-10T10:41:56Z</time>
      </trkpt>
      <trkpt lat="42.29338" lon="3.28592">
        <ele>8.3</ele>
        <time>2024-11-10T10:41:57Z</time>
      </trkpt>
      <trkpt lat="42.29338" lon="3.28592">
        <ele>8.3</ele>
        <time>2024-11-10T10:41:58Z</time>
      </trkpt>
      <trkpt lat="42.29338" lon="3.28592">
        <ele>8.3</ele>
        <time>2024-11-10T10:41:59Z</time>
      </trkpt>
      <trkpt lat="42.29338" lon="3.28592">
        <ele>8.3</ele>
        <time>2024-11-10T10:42:00Z</time>
      </trkpt>
      <trkpt lat="42.29338" lon="3.28592">
        <ele>8.3</ele>
        <time>2024-11-10T10:42:01Z</time>
      </trkpt>
      <trkpt lat="42.29338" lon="3.28592">
        <ele>8.3</ele>
        <time>2024-11-10T10:42:02Z</time>
      </trkpt>
      <trkpt lat="42.29338" lon="3.28592">
        <ele>8.3</ele>
        <time>2024-11-10T10:42:03Z</time>
      </trkpt>
      <trkpt lat="42.29338" lon="3.28592">
        <ele>8.3</ele>
        <time>2024-11-10T10:42:04Z</time>
      </trkpt>
      <trkpt lat="42.29338" lon="3.28592">
        <ele>8.3</ele>
        <time>2024-11-10T10:42:05Z</time>
      </trkpt>
      <trkpt lat="42.29338" lon="3.28592">
        <ele>8.3</ele>
        <time>2024-11-10T10:42:06Z</time>
      </trkpt>
      <trkpt lat="42.29338" lon="3.28592">
        <ele>8.3</ele>
        <time>2024-11-10T10:42:07Z</time>
      </trkpt>
      <trkpt lat="42.29338" lon="3.28592">
        <ele>8.3</ele>
        <time>2024-11-10T10:42:08Z</time>
      </trkpt>
      <trkpt lat="42.29338" lon="3.28592">
        <ele>8.3</ele>
        <time>2024-11-10T10:42:09Z</time>
      </trkpt>
      <trkpt lat="42.29338" lon="3.28592">
        <ele>8.3</ele>
        <time>2024-11-10T10:42:10Z</time>
      </trkpt>
      <trkpt lat="42.29338" lon="3.28592">
        <ele>8.3</ele>
        <time>2024-11-10T10:42:11Z</time>
      </trkpt>
      <trkpt lat="42.29338" lon="3.28592">
        <ele>8.3</ele>
        <time>2024-11-10T10:42:12Z</time>
      </trkpt>
      <trkpt lat="42.29338" lon="3.28592">
        <ele>8.3</ele>
        <time>2024-11-10T10:42:13Z</time>
      </trkpt>
      <trkpt lat="42.29338" lon="3.28592">
        <ele>8.3</ele>
        <time>2024-11-10T10:42:14Z</time>
      </trkpt>
      <trkpt lat="42.29338" lon="3.28592">
        <ele>8.3</ele>
        <time>2024-11-10T10:42:15Z</time>
      </trkpt>
      <trkpt lat="42.29338" lon="3.28592">
        <ele>8.3</ele>
        <time>2024-11-10T10:42:16Z</time>
      </trkpt>
      <trkpt lat="42.29338" lon="3.28592">
        <ele>8.3</ele>
        <time>2024-11-10T10:42:17Z</time>
      </trkpt>
      <trkpt lat="42.29338" lon="3.28592">
        <ele>8.3</ele>
        <time>2024-11-10T10:42:18Z</time>
      </trkpt>
      <trkpt lat="42.29338" lon="3.28592">
        <ele>8.3</ele>
        <time>2024-11-10T10:42:19Z</time>
      </trkpt>
      <trkpt lat="42.29338" lon="3.28592">
        <ele>8.3</ele>
        <time>2024-11-10T10:42:20Z</time>
      </trkpt>
      <trkpt lat="42.29338" lon="3.28592">
        <ele>8.3</ele>
        <time>2024-11-10T10:42:21Z</time>
      </trkpt>
      <trkpt lat="42.29338" lon="3.28592">
        <ele>8.3</ele>
        <time>2024-11-10T10:42:22Z</time>
      </trkpt>
      <trkpt lat="42.29338" lon="3.28592">
        <ele>8.3</ele>
        <time>2024-11-10T10:42:23Z</time>
      </trkpt>
      <trkpt lat="42.29338" lon="3.28592">
        <ele>8.3</ele>
        <time>2024-11-10T10:42:24Z</time>
      </trkpt>
      <trkpt lat="42.29338" lon="3.28592">
        <ele>8.3</ele>
        <time>2024-11-10T10:42:25Z</time>
      </trkpt>
      <trkpt lat="42.29338" lon="3.28592">
        <ele>8.3</ele>
        <time>2024-11-10T10:42:26Z</time>
      </trkpt>
      <trkpt lat="42.29338" lon="3.28592">
        <ele>8.3</ele>
        <time>2024-11-10T10:42:27Z</time>
      </trkpt>
      <trkpt lat="42.29338" lon="3.28592">
        <ele>8.3</ele>
        <time>2024-11-10T10:42:28Z</time>
      </trkpt>
      <trkpt lat="42.29338" lon="3.28592">
        <ele>8.3</ele>
        <time>2024-11-10T10:42:29Z</time>
      </trkpt>
      <trkpt lat="42.29338" lon="3.28592">
        <ele>8.3</ele>
        <time>2024-11-10T10:42:30Z</time>
      </trkpt>
      <trkpt lat="42.29338" lon="3.28592">
        <ele>8.3</ele>
        <time>2024-11-10T10:42:31Z</time>
      </trkpt>
      <trkpt lat="42.29338" lon="3.28592">
        <ele>8.3</ele>
        <time>2024-11-10T10:42:32Z</time>
      </trkpt>
      <trkpt lat="42.29338" lon="3.28592">
        <ele>8.3</ele>
        <time>2024-11-10T10:42:33Z</time>
      </trkpt>
      <trkpt lat="42.29338" lon="3.28592">
        <ele>8.3</ele>
        <time>2024-11-10T10:42:34Z</time>
      </trkpt>
      <trkpt lat="42.29338" lon="3.28592">
        <ele>8.3</ele>
        <time>2024-11-10T10:42:35Z</time>
      </trkpt>
      <trkpt lat="42.29338" lon="3.28592">
        <ele>8.3</ele>
        <time>2024-11-10T10:42:36Z</time>
      </trkpt>
      <trkpt lat="42.29338" lon="3.28592">
        <ele>8.3</ele>
        <time>2024-11-10T10:42:37Z</time>
      </trkpt>
      <trkpt lat="42.29338" lon="3.28592">
        <ele>8.3</ele>
        <time>2024-11-10T10:42:38Z</time>
      </trkpt>
      <trkpt lat="42.29338" lon="3.28592">
        <ele>8.3</ele>
        <time>2024-11-10T10:42:39Z</time>
      </trkpt>
      <trkpt lat="42.29338" lon="3.28592">
        <ele>8.3</ele>
        <time>2024-11-10T10:42:40Z</time>
      </trkpt>
      <trkpt lat="42.29338" lon="3.28592">
        <ele>8.3</ele>
        <time>2024-11-10T10:42:41Z</time>
      </trkpt>
      <trkpt lat="42.29338" lon="3.28592">
        <ele>8.3</ele>
        <time>2024-11-10T10:42:42Z</time>
      </trkpt>
      <trkpt lat="42.29338" lon="3.28592">
        <ele>8.3</ele>
        <time>2024-11-10T10:42:43Z</time>
      </trkpt>
      <trkpt lat="42.29338" lon="3.28592">
        <ele>8.3</ele>
        <time>2024-11-10T10:42:44Z</time>
      </trkpt>
      <trkpt lat="42.29338" lon="3.28592">
        <ele>8.3</ele>
        <time>2024-11-10T10:42:45Z</time>
      </trkpt>
      <trkpt lat="42.29338" lon="3.28592">
        <ele>8.3</ele>
        <time>2024-11-10T10:42:46Z</time>
      </trkpt>
      <trkpt lat="42.29338" lon="3.28592">
        <ele>8.3</ele>
        <time>2024-11-10T10:42:47Z</time>
      </trkpt>
      <trkpt lat="42.29338" lon="3.28592">
        <ele>8.3</ele>
        <time>2024-11-10T10:42:48Z</time>
      </trkpt>
      <trkpt lat="42.29338" lon="3.28592">
        <ele>8.3</ele>
        <time>2024-11-10T10:42:49Z</time>
      </trkpt>
      <trkpt lat="42.29338" lon="3.28592">
        <ele>8.3</ele>
        <time>2024-11-10T10:42:50Z</time>
      </trkpt>
      <trkpt lat="42.29338" lon="3.28592">
        <ele>8.3</ele>
        <time>2024-11-10T10:42:51Z</time>
      </trkpt>
      <trkpt lat="42.29338" lon="3.28592">
        <ele>8.3</ele>
        <time>2024-11-10T10:42:52Z</time>
      </trkpt>
      <trkpt lat="42.29338" lon="3.28592">
        <ele>8.3</ele>
        <time>2024-11-10T10:42:53Z</time>
      </trkpt>
      <trkpt lat="42.29338" lon="3.28592">
        <ele>8.3</ele>
        <time>2024-11-10T10:42:54Z</time>
      </trkpt>
      <trkpt lat="42.29338" lon="3.28592">
        <ele>8.3</ele>
        <time>2024-11-10T10:42:55Z</time>
      </trkpt>
      <trkpt lat="42.29338" lon="3.28592">
        <ele>8.3</ele>
        <time>2024-11-10T10:42:56Z</time>
      </trkpt>
      <trkpt lat="42.29338" lon="3.28592">
        <ele>8.3</ele>
        <time>2024-11-10T10:42:57Z</time>
      </trkpt>
      <trkpt lat="42.29338" lon="3.28592">
        <ele>8.3</ele>
        <time>2024-11-10T10:42:58Z</time>
      </trkpt>
      <trkpt lat="42.29338" lon="3.28592">
        <ele>8.3</ele>
        <time>2024-11-10T10:42:59Z</time>
      </trkpt>
      <trkpt lat="42.29338" lon="3.28592">
        <ele>8.3</ele>
        <time>2024-11-10T10:43:00Z</time>
      </trkpt>
      <trkpt lat="42.29338" lon="3.28592">
        <ele>8.3</ele>
        <time>2024-11-10T10:43:01Z</time>
      </trkpt>
      <trkpt lat="42.29338" lon="3.28592">
        <ele>8.3</ele>
        <time>2024-11-10T10:43:02Z</time>
      </trkpt>
      <trkpt lat="42.29338" lon="3.28592">
        <ele>8.3</ele>
        <time>2024-11-10T10:43:03Z</time>
      </trkpt>
      <trkpt lat="42.29338" lon="3.28592">
        <ele>8.3</ele>
        <time>2024-11-10T10:43:04Z</time>
      </trkpt>
      <trkpt lat="42.29338" lon="3.28592">
        <ele>8.3</ele>
        <time>2024-11-10T10:43:05Z</time>
      </trkpt>
      <trkpt lat="42.29338" lon="3.28592">
        <ele>8.3</ele>
        <time>2024-11-10T10:43:06Z</time>
      </trkpt>
      <trkpt lat="42.29338" lon="3.28592">
        <ele>8.3</ele>
        <time>2024-11-10T10:43:07Z</time>
      </trkpt>
      <trkpt lat="42.29338" lon="3.28592">
        <ele>8.3</ele>
        <time>2024-11-10T10:43:08Z</time>
      </trkpt>
      <trkpt lat="42.29338" lon="3.28592">
        <ele>8.3</ele>
        <time>2024-11-10T10:43:09Z</time>
      </trkpt>
      <trkpt lat="42.29338" lon="3.28592">
        <ele>8.3</ele>
        <time>2024-11-10T10:43:10Z</time>
      </trkpt>
      <trkpt lat="42.29338" lon="3.28592">
        <ele>8.3</ele>
        <time>2024-11-10T10:43:11Z</time>
      </trkpt>
      <trkpt lat="42.29338" lon="3.28592">
        <ele>8.3</ele>
        <time>2024-11-10T10:43:12Z</time>
      </trkpt>
      <trkpt lat="42.29338" lon="3.28592">
        <ele>8.3</ele>
        <time>2024-11-10T10:43:13Z</time>
      </trkpt>
      <trkpt lat="42.29338" lon="3.28592">
        <ele>8.3</ele>
        <time>2024-11-10T10:43:14Z</time>
      </trkpt>
      <trkpt lat="42.29338" lon="3.28592">
        <ele>8.3</ele>
        <time>2024-11-10T10:43:15Z</time>
      </trkpt>
      <trkpt lat="42.29338" lon="3.28592">
        <ele>8.3</ele>
        <time>2024-11-10T10:43:16Z</time>
      </trkpt>
      <trkpt lat="42.29338" lon="3.28592">
        <ele>8.3</ele>
        <time>2024-11-10T10:43:17Z</time>
      </trkpt>
      <trkpt lat="42.29338" lon="3.28592">
        <ele>8.3</ele>
        <time>2024-11-10T10:43:18Z</time>
      </trkpt>
      <trkpt lat="42.29338" lon="3.28592">
        <ele>8.3</ele>
        <time>2024-11-10T10:43:19Z</time>
      </trkpt>
      <trkpt lat="42.29338" lon="3.28592">
        <ele>8.3</ele>
        <time>2024-11-10T10:43:20Z</time>
      </trkpt>
      <trkpt lat="42.29338" lon="3.28592">
        <ele>8.3</ele>
        <time>2024-11-10T10:43:21Z</time>
      </trkpt>
      <trkpt lat="42.29338" lon="3.28592">
        <ele>8.3</ele>
        <time>2024-11-10T10:43:22Z</time>
      </trkpt>
      <trkpt lat="42.29338" lon="3.28592">
        <ele>8.3</ele>
        <time>2024-11-10T10:43:23Z</time>
      </trkpt>
      <trkpt lat="42.29338" lon="3.28592">
        <ele>8.3</ele>
        <time>2024-11-10T10:43:24Z</time>
      </trkpt>
      <trkpt lat="42.29338" lon="3.28592">
        <ele>8.3</ele>
        <time>2024-11-10T10:43:25Z</time>
      </trkpt>
      <trkpt lat="42.29338" lon="3.28592">
        <ele>8.3</ele>
        <time>2024-11-10T10:43:26Z</time>
      </trkpt>
      <trkpt lat="42.29338" lon="3.28592">
        <ele>8.3</ele>
        <time>2024-11-10T10:43:27Z</time>
      </trkpt>
      <trkpt lat="42.29338" lon="3.28592">
        <ele>8.3</ele>
        <time>2024-11-10T10:43:28Z</time>
      </trkpt>
      <trkpt lat="42.29338" lon="3.28592">
        <ele>8.3</ele>
        <time>2024-11-10T10:43:29Z</time>
      </trkpt>
      <trkpt lat="42.29338" lon="3.28592">
        <ele>8.3</ele>
        <time>2024-11-10T10:43:30Z</time>
      </trkpt>
      <trkpt lat="42.29338" lon="3.28592">
        <ele>8.3</ele>
        <time>2024-11-10T10:43:31Z</time>
      </trkpt>
      <trkpt lat="42.29338" lon="3.28592">
        <ele>8.3</ele>
        <time>2024-11-10T10:43:32Z</time>
      </trkpt>
      <trkpt lat="42.29338" lon="3.28592">
        <ele>8.3</ele>
        <time>2024-11-10T10:43:33Z</time>
      </trkpt>
      <trkpt lat="42.29338" lon="3.28592">
        <ele>8.3</ele>
        <time>2024-11-10T10:43:34Z</time>
      </trkpt>
      <trkpt lat="42.29338" lon="3.28592">
        <ele>8.3</ele>
        <time>2024-11-10T10:43:35Z</time>
      </trkpt>
      <trkpt lat="42.29338" lon="3.28592">
        <ele>8.3</ele>
        <time>2024-11-10T10:43:36Z</time>
      </trkpt>
      <trkpt lat="42.29338" lon="3.28592">
        <ele>8.3</ele>
        <time>2024-11-10T10:43:37Z</time>
      </trkpt>
      <trkpt lat="42.29338" lon="3.28592">
        <ele>8.3</ele>
        <time>2024-11-10T10:43:38Z</time>
      </trkpt>
      <trkpt lat="42.29338" lon="3.28592">
        <ele>8.3</ele>
        <time>2024-11-10T10:43:39Z</time>
      </trkpt>
      <trkpt lat="42.29338" lon="3.28592">
        <ele>8.3</ele>
        <time>2024-11-10T10:43:40Z</time>
      </trkpt>
      <trkpt lat="42.29338" lon="3.28592">
        <ele>8.3</ele>
        <time>2024-11-10T10:43:41Z</time>
      </trkpt>
      <trkpt lat="42.29338" lon="3.28592">
        <ele>8.3</ele>
        <time>2024-11-10T10:43:42Z</time>
      </trkpt>
      <trkpt lat="42.29338" lon="3.28592">
        <ele>8.3</ele>
        <time>2024-11-10T10:43:43Z</time>
      </trkpt>
      <trkpt lat="42.29338" lon="3.28592">
        <ele>8.3</ele>
        <time>2024-11-10T10:43:44Z</time>
      </trkpt>
      <trkpt lat="42.29338" lon="3.28592">
        <ele>8.3</ele>
        <time>2024-11-10T10:43:45Z</time>
      </trkpt>
      <trkpt lat="42.29338" lon="3.28592">
        <ele>8.3</ele>
        <time>2024-11-10T10:43:46Z</time>
      </trkpt>
      <trkpt lat="42.29338" lon="3.28592">
        <ele>8.3</ele>
        <time>2024-11-10T10:43:47Z</time>
      </trkpt>
      <trkpt lat="42.29338" lon="3.28592">
        <ele>8.3</ele>
        <time>2024-11-10T10:43:48Z</time>
      </trkpt>
      <trkpt lat="42.29338" lon="3.28592">
        <ele>8.3</ele>
        <time>2024-11-10T10:43:49Z</time>
      </trkpt>
      <trkpt lat="42.29338" lon="3.28592">
        <ele>8.3</ele>
        <time>2024-11-10T10:43:50Z</time>
      </trkpt>
      <trkpt lat="42.29338" lon="3.28592">
        <ele>8.3</ele>
        <time>2024-11-10T10:43:51Z</time>
      </trkpt>
      <trkpt lat="42.29338" lon="3.28592">
        <ele>8.3</ele>
        <time>2024-11-10T10:43:52Z</time>
      </trkpt>
      <trkpt lat="42.29338" lon="3.28592">
        <ele>8.3</ele>
        <time>2024-11-10T10:43:53Z</time>
      </trkpt>
      <trkpt lat="42.29338" lon="3.28592">
        <ele>8.3</ele>
        <time>2024-11-10T10:43:54Z</time>
      </trkpt>
      <trkpt lat="42.29338" lon="3.28592">
        <ele>8.3</ele>
        <time>2024-11-10T10:43:55Z</time>
      </trkpt>
      <trkpt lat="42.29338" lon="3.28592">
        <ele>8.3</ele>
        <time>2024-11-10T10:43:56Z</time>
      </trkpt>
      <trkpt lat="42.29338" lon="3.28592">
        <ele>8.3</ele>
        <time>2024-11-10T10:43:57Z</time>
      </trkpt>
      <trkpt lat="42.29338" lon="3.28592">
        <ele>8.3</ele>
        <time>2024-11-10T10:43:58Z</time>
      </trkpt>
      <trkpt lat="42.29338" lon="3.28592">
        <ele>8.3</ele>
        <time>2024-11-10T10:43:59Z</time>
      </trkpt>
      <trkpt lat="42.29338" lon="3.28592">
        <ele>8.3</ele>
        <time>2024-11-10T10:44:00Z</time>
      </trkpt>
      <trkpt lat="42.29338" lon="3.28592">
        <ele>8.3</ele>
        <time>2024-11-10T10:44:01Z</time>
      </trkpt>
      <trkpt lat="42.29338" lon="3.28592">
        <ele>8.3</ele>
        <time>2024-11-10T10:44:02Z</time>
      </trkpt>
      <trkpt lat="42.29338" lon="3.28592">
        <ele>8.3</ele>
        <time>2024-11-10T10:44:03Z</time>
      </trkpt>
      <trkpt lat="42.29338" lon="3.28592">
        <ele>8.3</ele>
        <time>2024-11-10T10:44:04Z</time>
      </trkpt>
      <trkpt lat="42.29338" lon="3.28592">
        <ele>8.3</ele>
        <time>2024-11-10T10:44:05Z</time>
      </trkpt>
      <trkpt lat="42.29338" lon="3.28592">
        <ele>8.3</ele>
        <time>2024-11-10T10:44:06Z</time>
      </trkpt>
      <trkpt lat="42.29338" lon="3.28592">
        <ele>8.3</ele>
        <time>2024-11-10T10:44:07Z</time>
      </trkpt>
      <trkpt lat="42.29338" lon="3.28592">
        <ele>8.3</ele>
        <time>2024-11-10T10:44:08Z</time>
      </trkpt>
      <trkpt lat="42.29338" lon="3.28592">
        <ele>8.3</ele>
        <time>2024-11-10T10:44:09Z</time>
      </trkpt>
      <trkpt lat="42.29338" lon="3.28592">
        <ele>8.3</ele>
        <time>2024-11-10T10:44:10Z</time>
      </trkpt>
      <trkpt lat="42.29338" lon="3.28592">
        <ele>8.3</ele>
        <time>2024-11-10T10:44:11Z</time>
      </trkpt>
      <trkpt lat="42.29338" lon="3.28592">
        <ele>8.3</ele>
        <time>2024-11-10T10:44:12Z</time>
      </trkpt>
      <trkpt lat="42.29338" lon="3.28592">
        <ele>8.3</ele>
        <time>2024-11-10T10:44:13Z</time>
      </trkpt>
      <trkpt lat="42.29338" lon="3.28592">
        <ele>8.3</ele>
        <time>2024-11-10T10:44:14Z</time>
      </trkpt>
      <trkpt lat="42.29338" lon="3.28592">
        <ele>8.3</ele>
        <time>2024-11-10T10:44:15Z</time>
      </trkpt>
      <trkpt lat="42.29338" lon="3.28592">
        <ele>8.3</ele>
        <time>2024-11-10T10:44:16Z</time>
      </trkpt>
      <trkpt lat="42.29338" lon="3.28592">
        <ele>8.3</ele>
        <time>2024-11-10T10:44:17Z</time>
      </trkpt>
      <trkpt lat="42.29338" lon="3.28592">
        <ele>8.3</ele>
        <time>2024-11-10T10:44:18Z</time>
      </trkpt>
      <trkpt lat="42.29338" lon="3.28592">
        <ele>8.3</ele>
        <time>2024-11-10T10:44:19Z</time>
      </trkpt>
      <trkpt lat="42.29338" lon="3.28592">
        <ele>8.3</ele>
        <time>2024-11-10T10:44:20Z</time>
      </trkpt>
      <trkpt lat="42.29338" lon="3.28592">
        <ele>8.3</ele>
        <time>2024-11-10T10:44:21Z</time>
      </trkpt>
      <trkpt lat="42.29338" lon="3.28592">
        <ele>8.3</ele>
        <time>2024-11-10T10:44:22Z</time>
      </trkpt>
      <trkpt lat="42.29338" lon="3.28592">
        <ele>8.3</ele>
        <time>2024-11-10T10:44:23Z</time>
      </trkpt>
      <trkpt lat="42.29338" lon="3.28592">
        <ele>8.3</ele>
        <time>2024-11-10T10:44:24Z</time>
      </trkpt>
      <trkpt lat="42.29338" lon="3.28592">
        <ele>8.3</ele>
        <time>2024-11-10T10:44:25Z</time>
      </trkpt>
      <trkpt lat="42.29338" lon="3.28592">
        <ele>8.3</ele>
        <time>2024-11-10T10:44:26Z</time>
      </trkpt>
      <trkpt lat="42.29338" lon="3.28592">
        <ele>8.3</ele>
        <time>2024-11-10T10:44:27Z</time>
      </trkpt>
      <trkpt lat="42.29338" lon="3.28592">
        <ele>8.3</ele>
        <time>2024-11-10T10:44:28Z</time>
      </trkpt>
      <trkpt lat="42.29338" lon="3.28592">
        <ele>8.3</ele>
        <time>2024-11-10T10:44:29Z</time>
      </trkpt>
      <trkpt lat="42.29338" lon="3.28592">
        <ele>8.3</ele>
        <time>2024-11-10T10:44:30Z</time>
      </trkpt>
      <trkpt lat="42.29338" lon="3.28592">
        <ele>8.3</ele>
        <time>2024-11-10T10:44:31Z</time>
      </trkpt>
      <trkpt lat="42.29338" lon="3.28592">
        <ele>8.3</ele>
        <time>2024-11-10T10:44:32Z</time>
      </trkpt>
      <trkpt lat="42.29338" lon="3.28592">
        <ele>8.3</ele>
        <time>2024-11-10T10:44:33Z</time>
      </trkpt>
      <trkpt lat="42.29338" lon="3.28592">
        <ele>8.3</ele>
        <time>2024-11-10T10:44:34Z</time>
      </trkpt>
      <trkpt lat="42.29338" lon="3.28592">
        <ele>8.3</ele>
        <time>2024-11-10T10:44:35Z</time>
      </trkpt>
      <trkpt lat="42.29338" lon="3.28592">
        <ele>8.3</ele>
        <time>2024-11-10T10:44:36Z</time>
      </trkpt>
      <trkpt lat="42.29338" lon="3.28592">
        <ele>8.3</ele>
        <time>2024-11-10T10:44:37Z</time>
      </trkpt>
      <trkpt lat="42.29338" lon="3.28592">
        <ele>8.3</ele>
        <time>2024-11-10T10:44:38Z</time>
      </trkpt>
      <trkpt lat="42.29338" lon="3.28592">
        <ele>8.3</ele>
        <time>2024-11-10T10:44:39Z</time>
      </trkpt>
      <trkpt lat="42.29338" lon="3.28592">
        <ele>8.3</ele>
        <time>2024-11-10T10:44:40Z</time>
      </trkpt>
      <trkpt lat="42.29338" lon="3.28592">
        <ele>8.3</ele>
        <time>2024-11-10T10:44:41Z</time>
      </trkpt>
      <trkpt lat="42.29338" lon="3.28592">
        <ele>8.3</ele>
        <time>2024-11-10T10:44:42Z</time>
      </trkpt>
      <trkpt lat="42.29338" lon="3.28592">
        <ele>8.3</ele>
        <time>2024-11-10T10:44:43Z</time>
      </trkpt>
      <trkpt lat="42.29338" lon="3.28592">
        <ele>8.3</ele>
        <time>2024-11-10T10:44:44Z</time>
      </trkpt>
      <trkpt lat="42.29338" lon="3.28592">
        <ele>8.3</ele>
        <time>2024-11-10T10:44:45Z</time>
      </trkpt>
      <trkpt lat="42.29338" lon="3.28592">
        <ele>8.3</ele>
        <time>2024-11-10T10:44:46Z</time>
      </trkpt>
      <trkpt lat="42.29338" lon="3.28592">
        <ele>8.3</ele>
        <time>2024-11-10T10:44:47Z</time>
      </trkpt>
      <trkpt lat="42.29338" lon="3.28592">
        <ele>8.3</ele>
        <time>2024-11-10T10:44:48Z</time>
      </trkpt>
      <trkpt lat="42.29338" lon="3.28592">
        <ele>8.3</ele>
        <time>2024-11-10T10:44:49Z</time>
      </trkpt>
      <trkpt lat="42.29338" lon="3.28592">
        <ele>8.3</ele>
        <time>2024-11-10T10:44:50Z</time>
      </trkpt>
      <trkpt lat="42.29338" lon="3.28592">
        <ele>8.3</ele>
        <time>2024-11-10T10:44:51Z</time>
      </trkpt>
      <trkpt lat="42.29338" lon="3.28592">
        <ele>8.3</ele>
        <time>2024-11-10T10:44:52Z</time>
      </trkpt>
      <trkpt lat="42.29338" lon="3.28592">
        <ele>8.3</ele>
        <time>2024-11-10T10:44:53Z</time>
      </trkpt>
      <trkpt lat="42.29338" lon="3.28592">
        <ele>8.3</ele>
        <time>2024-11-10T10:44:54Z</time>
      </trkpt>
      <trkpt lat="42.29338" lon="3.28592">
        <ele>8.3</ele>
        <time>2024-11-10T10:44:55Z</time>
      </trkpt>
      <trkpt lat="42.29338" lon="3.28592">
        <ele>8.3</ele>
        <time>2024-11-10T10:44:56Z</time>
      </trkpt>
      <trkpt lat="42.29338" lon="3.28592">
        <ele>8.3</ele>
        <time>2024-11-10T10:44:57Z</time>
      </trkpt>
      <trkpt lat="42.29338" lon="3.28592">
        <ele>8.3</ele>
        <time>2024-11-10T10:44:58Z</time>
      </trkpt>
      <trkpt lat="42.29338" lon="3.28592">
        <ele>8.3</ele>
        <time>2024-11-10T10:44:59Z</time>
      </trkpt>
      <trkpt lat="42.29338" lon="3.28592">
        <ele>8.3</ele>
        <time>2024-11-10T10:45:00Z</time>
      </trkpt>
      <trkpt lat="42.29338" lon="3.28592">
        <ele>8.3</ele>
        <time>2024-11-10T10:45:01Z</time>
      </trkpt>
      <trkpt lat="42.29338" lon="3.28592">
        <ele>8.3</ele>
        <time>2024-11-10T10:45:02Z</time>
      </trkpt>
      <trkpt lat="42.29338" lon="3.28592">
        <ele>8.3</ele>
        <time>2024-11-10T10:45:03Z</time>
      </trkpt>
      <trkpt lat="42.29338" lon="3.28592">
        <ele>8.3</ele>
        <time>2024-11-10T10:45:04Z</time>
      </trkpt>
      <trkpt lat="42.29338" lon="3.28592">
        <ele>8.3</ele>
        <time>2024-11-10T10:45:05Z</time>
      </trkpt>
      <trkpt lat="42.29338" lon="3.28592">
        <ele>8.3</ele>
        <time>2024-11-10T10:45:06Z</time>
      </trkpt>
      <trkpt lat="42.29338" lon="3.28592">
        <ele>8.3</ele>
        <time>2024-11-10T10:45:07Z</time>
      </trkpt>
      <trkpt lat="42.29338" lon="3.28592">
        <ele>8.3</ele>
        <time>2024-11-10T10:45:08Z</time>
      </trkpt>
      <trkpt lat="42.29338" lon="3.28592">
        <ele>8.3</ele>
        <time>2024-11-10T10:45:09Z</time>
      </trkpt>
      <trkpt lat="42.29338" lon="3.28592">
        <ele>8.3</ele>
        <time>2024-11-10T10:45:10Z</time>
      </trkpt>
      <trkpt lat="42.29338" lon="3.28592">
        <ele>8.3</ele>
        <time>2024-11-10T10:45:11Z</time>
      </trkpt>
      <trkpt lat="42.29338" lon="3.28592">
        <ele>8.3</ele>
        <time>2024-11-10T10:45:12Z</time>
      </trkpt>
      <trkpt lat="42.29338" lon="3.28592">
        <ele>8.3</ele>
        <time>2024-11-10T10:45:13Z</time>
      </trkpt>
      <trkpt lat="42.29338" lon="3.28592">
        <ele>8.3</ele>
        <time>2024-11-10T10:45:14Z</time>
      </trkpt>
      <trkpt lat="42.29338" lon="3.28592">
        <ele>8.3</ele>
        <time>2024-11-10T10:45:15Z</time>
      </trkpt>
      <trkpt lat="42.29338" lon="3.28592">
        <ele>8.3</ele>
        <time>2024-11-10T10:45:16Z</time>
      </trkpt>
      <trkpt lat="42.29338" lon="3.28592">
        <ele>8.3</ele>
        <time>2024-11-10T10:45:17Z</time>
      </trkpt>
      <trkpt lat="42.29338" lon="3.28592">
        <ele>8.3</ele>
        <time>2024-11-10T10:45:18Z</time>
      </trkpt>
      <trkpt lat="42.29338" lon="3.28592">
        <ele>8.3</ele>
        <time>2024-11-10T10:45:19Z</time>
      </trkpt>
      <trkpt lat="42.29338" lon="3.28592">
        <ele>8.3</ele>
        <time>2024-11-10T10:45:20Z</time>
      </trkpt>
      <trkpt lat="42.29338" lon="3.28592">
        <ele>8.3</ele>
        <time>2024-11-10T10:45:21Z</time>
      </trkpt>
      <trkpt lat="42.29338" lon="3.28592">
        <ele>8.3</ele>
        <time>2024-11-10T10:45:22Z</time>
      </trkpt>
      <trkpt lat="42.29338" lon="3.28592">
        <ele>8.3</ele>
        <time>2024-11-10T10:45:23Z</time>
      </trkpt>
      <trkpt lat="42.29338" lon="3.28592">
        <ele>8.3</ele>
        <time>2024-11-10T10:45:24Z</time>
      </trkpt>
      <trkpt lat="42.29338" lon="3.28592">
        <ele>8.3</ele>
        <time>2024-11-10T10:45:25Z</time>
      </trkpt>
      <trkpt lat="42.29338" lon="3.28592">
        <ele>8.3</ele>
        <time>2024-11-10T10:45:26Z</time>
      </trkpt>
      <trkpt lat="42.29338" lon="3.28592">
        <ele>8.3</ele>
        <time>2024-11-10T10:45:27Z</time>
      </trkpt>
      <trkpt lat="42.29338" lon="3.28592">
        <ele>8.3</ele>
        <time>2024-11-10T10:45:28Z</time>
      </trkpt>
      <trkpt lat="42.29338" lon="3.28592">
        <ele>8.3</ele>
        <time>2024-11-10T10:45:29Z</time>
      </trkpt>
      <trkpt lat="42.29338" lon="3.28592">
        <ele>8.3</ele>
        <time>2024-11-10T10:45:30Z</time>
      </trkpt>
      <trkpt lat="42.29338" lon="3.28592">
        <ele>8.3</ele>
        <time>2024-11-10T10:45:31Z</time>
      </trkpt>
      <trkpt lat="42.29338" lon="3.28592">
        <ele>8.3</ele>
        <time>2024-11-10T10:45:32Z</time>
      </trkpt>
      <trkpt lat="42.29338" lon="3.28592">
        <ele>8.3</ele>
        <time>2024-11-10T10:45:33Z</time>
      </trkpt>
      <trkpt lat="42.29338" lon="3.28592">
        <ele>8.3</ele>
        <time>2024-11-10T10:45:34Z</time>
      </trkpt>
      <trkpt lat="42.29338" lon="3.28592">
        <ele>8.3</ele>
        <time>2024-11-10T10:45:35Z</time>
      </trkpt>
      <trkpt lat="42.29338" lon="3.28592">
        <ele>8.3</ele>
        <time>2024-11-10T10:45:36Z</time>
      </trkpt>
      <trkpt lat="42.29338" lon="3.28592">
        <ele>8.3</ele>
        <time>2024-11-10T10:45:37Z</time>
      </trkpt>
      <trkpt lat="42.29338" lon="3.28592">
        <ele>8.3</ele>
        <time>2024-11-10T10:45:38Z</time>
      </trkpt>
      <trkpt lat="42.29338" lon="3.28592">
        <ele>8.3</ele>
        <time>2024-11-10T10:45:39Z</time>
      </trkpt>
      <trkpt lat="42.29338" lon="3.28592">
        <ele>8.3</ele>
        <time>2024-11-10T10:45:40Z</time>
      </trkpt>
      <trkpt lat="42.29338" lon="3.28592">
        <ele>8.3</ele>
        <time>2024-11-10T10:45:41Z</time>
      </trkpt>
      <trkpt lat="42.29338" lon="3.28592">
        <ele>8.3</ele>
        <time>2024-11-10T10:45:42Z</time>
      </trkpt>
      <trkpt lat="42.29338" lon="3.28592">
        <ele>8.3</ele>
        <time>2024-11-10T10:45:43Z</time>
      </trkpt>
      <trkpt lat="42.29338" lon="3.28592">
        <ele>8.3</ele>
        <time>2024-11-10T10:45:44Z</time>
      </trkpt>
      <trkpt lat="42.29338" lon="3.28592">
        <ele>8.3</ele>
        <time>2024-11-10T10:45:45Z</time>
      </trkpt>
      <trkpt lat="42.29338" lon="3.28592">
        <ele>8.3</ele>
        <time>2024-11-10T10:45:46Z</time>
      </trkpt>
      <trkpt lat="42.29338" lon="3.28592">
        <ele>8.3</ele>
        <time>2024-11-10T10:45:47Z</time>
      </trkpt>
      <trkpt lat="42.29338" lon="3.28592">
        <ele>8.3</ele>
        <time>2024-11-10T10:45:48Z</time>
      </trkpt>
      <trkpt lat="42.29338" lon="3.28592">
        <ele>8.3</ele>
        <time>2024-11-10T10:45:49Z</time>
      </trkpt>
      <trkpt lat="42.29338" lon="3.28592">
        <ele>8.3</ele>
        <time>2024-11-10T10:45:50Z</time>
      </trkpt>
      <trkpt lat="42.29338" lon="3.28592">
        <ele>8.3</ele>
        <time>2024-11-10T10:45:51Z</time>
      </trkpt>
      <trkpt lat="42.29338" lon="3.28592">
        <ele>8.3</ele>
        <time>2024-11-10T10:45:52Z</time>
      </trkpt>
      <trkpt lat="42.29338" lon="3.28592">
        <ele>8.3</ele>
        <time>2024-11-10T10:45:53Z</time>
      </trkpt>
      <trkpt lat="42.29338" lon="3.28592">
        <ele>8.3</ele>
        <time>2024-11-10T10:45:54Z</time>
      </trkpt>
      <trkpt lat="42.29338" lon="3.28592">
        <ele>8.3</ele>
        <time>2024-11-10T10:45:55Z</time>
      </trkpt>
      <trkpt lat="42.29338" lon="3.28592">
        <ele>8.3</ele>
        <time>2024-11-10T10:45:56Z</time>
      </trkpt>
      <trkpt lat="42.29338" lon="3.28592">
        <ele>8.3</ele>
        <time>2024-11-10T10:45:57Z</time>
      </trkpt>
      <trkpt lat="42.29338" lon="3.28592">
        <ele>8.3</ele>
        <time>2024-11-10T10:45:58Z</time>
      </trkpt>
      <trkpt lat="42.29338" lon="3.28592">
        <ele>8.3</ele>
        <time>2024-11-10T10:45:59Z</time>
      </trkpt>
      <trkpt lat="42.29338" lon="3.28592">
        <ele>8.3</ele>
        <time>2024-11-10T10:46:00Z</time>
      </trkpt>
      <trkpt lat="42.29338" lon="3.28592">
        <ele>8.3</ele>
        <time>2024-11-10T10:46:01Z</time>
      </trkpt>
      <trkpt lat="42.29338" lon="3.28592">
        <ele>8.3</ele>
        <time>2024-11-10T10:46:02Z</time>
      </trkpt>
      <trkpt lat="42.29338" lon="3.28592">
        <ele>8.3</ele>
        <time>2024-11-10T10:46:03Z</time>
      </trkpt>
      <trkpt lat="42.29338" lon="3.28592">
        <ele>8.3</ele>
        <time>2024-11-10T10:46:04Z</time>
      </trkpt>
      <trkpt lat="42.29338" lon="3.28592">
        <ele>8.3</ele>
        <time>2024-11-10T10:46:05Z</time>
      </trkpt>
      <trkpt lat="42.29338" lon="3.28592">
        <ele>8.3</ele>
        <time>2024-11-10T10:46:06Z</time>
      </trkpt>
      <trkpt lat="42.29338" lon="3.28592">
        <ele>8.3</ele>
        <time>2024-11-10T10:46:07Z</time>
      </trkpt>
      <trkpt lat="42.29338" lon="3.28592">
        <ele>8.3</ele>
        <time>2024-11-10T10:46:08Z</time>
      </trkpt>
      <trkpt lat="42.29338" lon="3.28592">
        <ele>8.3</ele>
        <time>2024-11-10T10:46:09Z</time>
      </trkpt>
      <trkpt lat="42.29338" lon="3.28592">
        <ele>8.3</ele>
        <time>2024-11-10T10:46:10Z</time>
      </trkpt>
      <trkpt lat="42.29338" lon="3.28592">
        <ele>8.3</ele>
        <time>2024-11-10T10:46:11Z</time>
      </trkpt>
      <trkpt lat="42.29338" lon="3.28592">
        <ele>8.3</ele>
        <time>2024-11-10T10:46:12Z</time>
      </trkpt>
      <trkpt lat="42.29338" lon="3.28591">
        <ele>8.3</ele>
        <time>2024-11-10T10:46:13Z</time>
      </trkpt>
      <trkpt lat="42.29338" lon="3.28592">
        <ele>8.3</ele>
        <time>2024-11-10T10:46:14Z</time>
      </trkpt>
      <trkpt lat="42.29338" lon="3.28591">
        <ele>8.3</ele>
        <time>2024-11-10T10:46:15Z</time>
      </trkpt>
      <trkpt lat="42.29338" lon="3.28591">
        <ele>8.3</ele>
        <time>2024-11-10T10:46:16Z</time>
      </trkpt>
      <trkpt lat="42.29338" lon="3.28591">
        <ele>8.3</ele>
        <time>2024-11-10T10:46:17Z</time>
      </trkpt>
      <trkpt lat="42.29338" lon="3.28591">
        <ele>8.3</ele>
        <time>2024-11-10T10:46:18Z</time>
      </trkpt>
      <trkpt lat="42.29338" lon="3.28591">
        <ele>8.3</ele>
        <time>2024-11-10T10:46:19Z</time>
      </trkpt>
      <trkpt lat="42.29338" lon="3.28591">
        <ele>8.3</ele>
        <time>2024-11-10T10:46:20Z</time>
      </trkpt>
      <trkpt lat="42.29338" lon="3.28591">
        <ele>8.3</ele>
        <time>2024-11-10T10:46:21Z</time>
      </trkpt>
      <trkpt lat="42.29338" lon="3.28591">
        <ele>8.3</ele>
        <time>2024-11-10T10:46:22Z</time>
      </trkpt>
      <trkpt lat="42.29338" lon="3.28591">
        <ele>8.3</ele>
        <time>2024-11-10T10:46:23Z</time>
      </trkpt>
      <trkpt lat="42.29338" lon="3.28591">
        <ele>8.3</ele>
        <time>2024-11-10T10:46:24Z</time>
      </trkpt>
      <trkpt lat="42.29338" lon="3.28591">
        <ele>8.3</ele>
        <time>2024-11-10T10:46:25Z</time>
      </trkpt>
      <trkpt lat="42.29338" lon="3.28591">
        <ele>8.3</ele>
        <time>2024-11-10T10:46:26Z</time>
      </trkpt>
      <trkpt lat="42.29338" lon="3.28591">
        <ele>8.3</ele>
        <time>2024-11-10T10:46:27Z</time>
      </trkpt>
      <trkpt lat="42.29338" lon="3.28591">
        <ele>8.3</ele>
        <time>2024-11-10T10:46:28Z</time>
      </trkpt>
      <trkpt lat="42.29338" lon="3.28591">
        <ele>8.3</ele>
        <time>2024-11-10T10:46:29Z</time>
      </trkpt>
      <trkpt lat="42.29338" lon="3.28591">
        <ele>8.3</ele>
        <time>2024-11-10T10:46:30Z</time>
      </trkpt>
      <trkpt lat="42.29338" lon="3.28591">
        <ele>8.3</ele>
        <time>2024-11-10T10:46:31Z</time>
      </trkpt>
      <trkpt lat="42.29338" lon="3.28591">
        <ele>8.3</ele>
        <time>2024-11-10T10:46:32Z</time>
      </trkpt>
      <trkpt lat="42.29338" lon="3.28591">
        <ele>8.3</ele>
        <time>2024-11-10T10:46:33Z</time>
      </trkpt>
      <trkpt lat="42.29338" lon="3.28591">
        <ele>8.3</ele>
        <time>2024-11-10T10:46:34Z</time>
      </trkpt>
      <trkpt lat="42.29338" lon="3.28591">
        <ele>8.3</ele>
        <time>2024-11-10T10:46:35Z</time>
      </trkpt>
      <trkpt lat="42.29338" lon="3.28591">
        <ele>8.3</ele>
        <time>2024-11-10T10:46:36Z</time>
      </trkpt>
      <trkpt lat="42.29338" lon="3.28591">
        <ele>8.3</ele>
        <time>2024-11-10T10:46:37Z</time>
      </trkpt>
      <trkpt lat="42.29338" lon="3.28591">
        <ele>8.3</ele>
        <time>2024-11-10T10:46:38Z</time>
      </trkpt>
      <trkpt lat="42.29338" lon="3.28591">
        <ele>8.3</ele>
        <time>2024-11-10T10:46:39Z</time>
      </trkpt>
      <trkpt lat="42.29338" lon="3.28591">
        <ele>8.3</ele>
        <time>2024-11-10T10:46:40Z</time>
      </trkpt>
      <trkpt lat="42.29338" lon="3.28591">
        <ele>8.3</ele>
        <time>2024-11-10T10:46:41Z</time>
      </trkpt>
      <trkpt lat="42.29338" lon="3.28591">
        <ele>8.3</ele>
        <time>2024-11-10T10:46:42Z</time>
      </trkpt>
      <trkpt lat="42.29338" lon="3.28591">
        <ele>8.3</ele>
        <time>2024-11-10T10:46:43Z</time>
      </trkpt>
      <trkpt lat="42.29338" lon="3.28591">
        <ele>8.3</ele>
        <time>2024-11-10T10:46:44Z</time>
      </trkpt>
      <trkpt lat="42.29338" lon="3.28591">
        <ele>8.3</ele>
        <time>2024-11-10T10:46:45Z</time>
      </trkpt>
      <trkpt lat="42.29338" lon="3.28591">
        <ele>8.3</ele>
        <time>2024-11-10T10:46:46Z</time>
      </trkpt>
      <trkpt lat="42.29338" lon="3.28591">
        <ele>8.3</ele>
        <time>2024-11-10T10:46:47Z</time>
      </trkpt>
      <trkpt lat="42.29338" lon="3.28591">
        <ele>8.3</ele>
        <time>2024-11-10T10:46:48Z</time>
      </trkpt>
      <trkpt lat="42.29338" lon="3.28591">
        <ele>8.3</ele>
        <time>2024-11-10T10:46:49Z</time>
      </trkpt>
      <trkpt lat="42.29338" lon="3.28591">
        <ele>8.3</ele>
        <time>2024-11-10T10:46:50Z</time>
      </trkpt>
      <trkpt lat="42.29338" lon="3.28591">
        <ele>8.3</ele>
        <time>2024-11-10T10:46:51Z</time>
      </trkpt>
      <trkpt lat="42.29338" lon="3.28591">
        <ele>8.3</ele>
        <time>2024-11-10T10:46:52Z</time>
      </trkpt>
      <trkpt lat="42.29338" lon="3.28591">
        <ele>8.3</ele>
        <time>2024-11-10T10:46:53Z</time>
      </trkpt>
      <trkpt lat="42.29338" lon="3.28591">
        <ele>8.3</ele>
        <time>2024-11-10T10:46:54Z</time>
      </trkpt>
      <trkpt lat="42.29338" lon="3.28591">
        <ele>8.3</ele>
        <time>2024-11-10T10:46:55Z</time>
      </trkpt>
      <trkpt lat="42.29338" lon="3.28591">
        <ele>8.3</ele>
        <time>2024-11-10T10:46:56Z</time>
      </trkpt>
      <trkpt lat="42.29338" lon="3.28591">
        <ele>8.3</ele>
        <time>2024-11-10T10:46:57Z</time>
      </trkpt>
      <trkpt lat="42.29338" lon="3.28591">
        <ele>8.3</ele>
        <time>2024-11-10T10:46:58Z</time>
      </trkpt>
      <trkpt lat="42.29338" lon="3.28591">
        <ele>8.3</ele>
        <time>2024-11-10T10:46:59Z</time>
      </trkpt>
      <trkpt lat="42.29338" lon="3.28591">
        <ele>8.3</ele>
        <time>2024-11-10T10:47:00Z</time>
      </trkpt>
      <trkpt lat="42.29338" lon="3.28591">
        <ele>8.3</ele>
        <time>2024-11-10T10:47:01Z</time>
      </trkpt>
      <trkpt lat="42.29338" lon="3.28591">
        <ele>8.3</ele>
        <time>2024-11-10T10:47:02Z</time>
      </trkpt>
      <trkpt lat="42.29338" lon="3.28591">
        <ele>8.3</ele>
        <time>2024-11-10T10:47:03Z</time>
      </trkpt>
      <trkpt lat="42.29338" lon="3.28591">
        <ele>8.3</ele>
        <time>2024-11-10T10:47:04Z</time>
      </trkpt>
      <trkpt lat="42.29338" lon="3.28591">
        <ele>8.3</ele>
        <time>2024-11-10T10:47:05Z</time>
      </trkpt>
      <trkpt lat="42.29338" lon="3.28591">
        <ele>8.3</ele>
        <time>2024-11-10T10:47:06Z</time>
      </trkpt>
      <trkpt lat="42.29338" lon="3.28591">
        <ele>8.3</ele>
        <time>2024-11-10T10:47:07Z</time>
      </trkpt>
      <trkpt lat="42.29338" lon="3.28591">
        <ele>8.3</ele>
        <time>2024-11-10T10:47:08Z</time>
      </trkpt>
      <trkpt lat="42.29338" lon="3.28591">
        <ele>8.3</ele>
        <time>2024-11-10T10:47:09Z</time>
      </trkpt>
      <trkpt lat="42.29338" lon="3.28591">
        <ele>8.3</ele>
        <time>2024-11-10T10:47:11Z</time>
      </trkpt>
      <trkpt lat="42.29338" lon="3.28591">
        <ele>8.3</ele>
        <time>2024-11-10T10:47:12Z</time>
      </trkpt>
      <trkpt lat="42.29338" lon="3.28591">
        <ele>8.3</ele>
        <time>2024-11-10T10:47:13Z</time>
      </trkpt>
      <trkpt lat="42.29338" lon="3.28591">
        <ele>8.3</ele>
        <time>2024-11-10T10:47:14Z</time>
      </trkpt>
      <trkpt lat="42.29338" lon="3.28591">
        <ele>8.3</ele>
        <time>2024-11-10T10:47:15Z</time>
      </trkpt>
      <trkpt lat="42.29338" lon="3.28591">
        <ele>8.3</ele>
        <time>2024-11-10T10:47:16Z</time>
      </trkpt>
      <trkpt lat="42.29338" lon="3.28591">
        <ele>8.3</ele>
        <time>2024-11-10T10:47:17Z</time>
      </trkpt>
      <trkpt lat="42.29338" lon="3.28591">
        <ele>8.3</ele>
        <time>2024-11-10T10:47:18Z</time>
      </trkpt>
      <trkpt lat="42.29338" lon="3.28591">
        <ele>8.3</ele>
        <time>2024-11-10T10:47:19Z</time>
      </trkpt>
      <trkpt lat="42.29338" lon="3.28591">
        <ele>8.3</ele>
        <time>2024-11-10T10:47:20Z</time>
      </trkpt>
      <trkpt lat="42.29338" lon="3.28591">
        <ele>8.3</ele>
        <time>2024-11-10T10:47:21Z</time>
      </trkpt>
      <trkpt lat="42.29338" lon="3.28591">
        <ele>8.3</ele>
        <time>2024-11-10T10:47:22Z</time>
      </trkpt>
      <trkpt lat="42.29338" lon="3.28591">
        <ele>8.3</ele>
        <time>2024-11-10T10:47:23Z</time>
      </trkpt>
      <trkpt lat="42.29338" lon="3.28591">
        <ele>8.3</ele>
        <time>2024-11-10T10:47:24Z</time>
      </trkpt>
      <trkpt lat="42.29338" lon="3.28591">
        <ele>8.3</ele>
        <time>2024-11-10T10:47:25Z</time>
      </trkpt>
      <trkpt lat="42.29338" lon="3.28591">
        <ele>8.3</ele>
        <time>2024-11-10T10:47:26Z</time>
      </trkpt>
      <trkpt lat="42.29338" lon="3.28591">
        <ele>8.3</ele>
        <time>2024-11-10T10:47:27Z</time>
      </trkpt>
      <trkpt lat="42.29338" lon="3.28591">
        <ele>8.3</ele>
        <time>2024-11-10T10:47:28Z</time>
      </trkpt>
      <trkpt lat="42.29338" lon="3.28591">
        <ele>8.3</ele>
        <time>2024-11-10T10:47:29Z</time>
      </trkpt>
      <trkpt lat="42.29338" lon="3.28591">
        <ele>8.3</ele>
        <time>2024-11-10T10:47:30Z</time>
      </trkpt>
      <trkpt lat="42.29338" lon="3.28591">
        <ele>8.3</ele>
        <time>2024-11-10T10:47:31Z</time>
      </trkpt>
      <trkpt lat="42.29338" lon="3.28591">
        <ele>8.3</ele>
        <time>2024-11-10T10:47:32Z</time>
      </trkpt>
      <trkpt lat="42.29338" lon="3.28591">
        <ele>8.3</ele>
        <time>2024-11-10T10:47:33Z</time>
      </trkpt>
      <trkpt lat="42.29338" lon="3.28591">
        <ele>8.3</ele>
        <time>2024-11-10T10:47:34Z</time>
      </trkpt>
      <trkpt lat="42.29338" lon="3.28591">
        <ele>8.3</ele>
        <time>2024-11-10T10:47:35Z</time>
      </trkpt>
      <trkpt lat="42.29338" lon="3.28591">
        <ele>8.3</ele>
        <time>2024-11-10T10:47:36Z</time>
      </trkpt>
      <trkpt lat="42.29338" lon="3.28591">
        <ele>8.3</ele>
        <time>2024-11-10T10:47:37Z</time>
      </trkpt>
      <trkpt lat="42.29338" lon="3.28591">
        <ele>8.3</ele>
        <time>2024-11-10T10:47:38Z</time>
      </trkpt>
      <trkpt lat="42.29338" lon="3.28591">
        <ele>8.3</ele>
        <time>2024-11-10T10:47:39Z</time>
      </trkpt>
      <trkpt lat="42.29338" lon="3.28591">
        <ele>8.3</ele>
        <time>2024-11-10T10:47:40Z</time>
      </trkpt>
      <trkpt lat="42.29338" lon="3.28591">
        <ele>8.3</ele>
        <time>2024-11-10T10:47:41Z</time>
      </trkpt>
      <trkpt lat="42.29338" lon="3.28591">
        <ele>8.3</ele>
        <time>2024-11-10T10:47:42Z</time>
      </trkpt>
      <trkpt lat="42.29338" lon="3.28591">
        <ele>8.3</ele>
        <time>2024-11-10T10:47:43Z</time>
      </trkpt>
      <trkpt lat="42.29338" lon="3.28591">
        <ele>8.3</ele>
        <time>2024-11-10T10:47:44Z</time>
      </trkpt>
      <trkpt lat="42.29338" lon="3.28591">
        <ele>8.3</ele>
        <time>2024-11-10T10:47:45Z</time>
      </trkpt>
      <trkpt lat="42.29338" lon="3.28591">
        <ele>8.3</ele>
        <time>2024-11-10T10:47:46Z</time>
      </trkpt>
      <trkpt lat="42.29338" lon="3.28591">
        <ele>8.3</ele>
        <time>2024-11-10T10:47:47Z</time>
      </trkpt>
      <trkpt lat="42.29338" lon="3.28591">
        <ele>8.3</ele>
        <time>2024-11-10T10:47:48Z</time>
      </trkpt>
      <trkpt lat="42.29338" lon="3.28591">
        <ele>8.3</ele>
        <time>2024-11-10T10:47:49Z</time>
      </trkpt>
      <trkpt lat="42.29338" lon="3.28591">
        <ele>8.3</ele>
        <time>2024-11-10T10:47:50Z</time>
      </trkpt>
      <trkpt lat="42.29338" lon="3.28591">
        <ele>8.3</ele>
        <time>2024-11-10T10:47:51Z</time>
      </trkpt>
      <trkpt lat="42.29338" lon="3.28591">
        <ele>8.3</ele>
        <time>2024-11-10T10:47:52Z</time>
      </trkpt>
      <trkpt lat="42.29338" lon="3.28591">
        <ele>8.3</ele>
        <time>2024-11-10T10:47:53Z</time>
      </trkpt>
      <trkpt lat="42.29338" lon="3.28591">
        <ele>8.3</ele>
        <time>2024-11-10T10:47:54Z</time>
      </trkpt>
      <trkpt lat="42.29338" lon="3.28591">
        <ele>8.3</ele>
        <time>2024-11-10T10:47:55Z</time>
      </trkpt>
      <trkpt lat="42.29338" lon="3.28591">
        <ele>8.3</ele>
        <time>2024-11-10T10:47:56Z</time>
      </trkpt>
      <trkpt lat="42.29338" lon="3.28591">
        <ele>8.3</ele>
        <time>2024-11-10T10:47:57Z</time>
      </trkpt>
      <trkpt lat="42.29338" lon="3.28591">
        <ele>8.3</ele>
        <time>2024-11-10T10:47:58Z</time>
      </trkpt>
      <trkpt lat="42.29338" lon="3.28591">
        <ele>8.3</ele>
        <time>2024-11-10T10:47:59Z</time>
      </trkpt>
      <trkpt lat="42.29338" lon="3.28591">
        <ele>8.3</ele>
        <time>2024-11-10T10:48:00Z</time>
      </trkpt>
      <trkpt lat="42.29338" lon="3.28591">
        <ele>8.3</ele>
        <time>2024-11-10T10:48:01Z</time>
      </trkpt>
      <trkpt lat="42.29338" lon="3.28591">
        <ele>8.3</ele>
        <time>2024-11-10T10:48:02Z</time>
      </trkpt>
      <trkpt lat="42.29338" lon="3.28591">
        <ele>8.3</ele>
        <time>2024-11-10T10:48:03Z</time>
      </trkpt>
      <trkpt lat="42.29338" lon="3.28591">
        <ele>8.3</ele>
        <time>2024-11-10T10:48:04Z</time>
      </trkpt>
      <trkpt lat="42.29338" lon="3.28591">
        <ele>8.3</ele>
        <time>2024-11-10T10:48:05Z</time>
      </trkpt>
      <trkpt lat="42.29338" lon="3.28591">
        <ele>8.3</ele>
        <time>2024-11-10T10:48:06Z</time>
      </trkpt>
      <trkpt lat="42.29338" lon="3.28591">
        <ele>8.3</ele>
        <time>2024-11-10T10:48:07Z</time>
      </trkpt>
      <trkpt lat="42.29338" lon="3.28591">
        <ele>8.3</ele>
        <time>2024-11-10T10:48:08Z</time>
      </trkpt>
      <trkpt lat="42.29338" lon="3.28591">
        <ele>8.3</ele>
        <time>2024-11-10T10:48:09Z</time>
      </trkpt>
      <trkpt lat="42.29338" lon="3.28591">
        <ele>8.3</ele>
        <time>2024-11-10T10:48:10Z</time>
      </trkpt>
      <trkpt lat="42.29339" lon="3.28592">
        <ele>8.3</ele>
        <time>2024-11-10T10:48:11Z</time>
      </trkpt>
      <trkpt lat="42.2934" lon="3.28593">
        <ele>8.2</ele>
        <time>2024-11-10T10:48:12Z</time>
      </trkpt>
      <trkpt lat="42.2934" lon="3.28594">
        <ele>8.2</ele>
        <time>2024-11-10T10:48:13Z</time>
      </trkpt>
      <trkpt lat="42.29341" lon="3.28595">
        <ele>8.2</ele>
        <time>2024-11-10T10:48:14Z</time>
      </trkpt>
      <trkpt lat="42.29341" lon="3.28596">
        <ele>8.2</ele>
        <time>2024-11-10T10:48:15Z</time>
      </trkpt>
      <trkpt lat="42.29341" lon="3.28597">
        <ele>8.2</ele>
        <time>2024-11-10T10:48:16Z</time>
      </trkpt>
      <trkpt lat="42.29341" lon="3.28598">
        <ele>8.1</ele>
        <time>2024-11-10T10:48:17Z</time>
      </trkpt>
      <trkpt lat="42.29342" lon="3.286">
        <ele>8.1</ele>
        <time>2024-11-10T10:48:18Z</time>
      </trkpt>
      <trkpt lat="42.29342" lon="3.286">
        <ele>8.1</ele>
        <time>2024-11-10T10:48:19Z</time>
      </trkpt>
      <trkpt lat="42.29343" lon="3.28601">
        <ele>8.1</ele>
        <time>2024-11-10T10:48:20Z</time>
      </trkpt>
      <trkpt lat="42.29344" lon="3.28602">
        <ele>8.1</ele>
        <time>2024-11-10T10:48:21Z</time>
      </trkpt>
      <trkpt lat="42.29345" lon="3.28603">
        <ele>8.1</ele>
        <time>2024-11-10T10:48:22Z</time>
      </trkpt>
      <trkpt lat="42.29346" lon="3.28603">
        <ele>8</ele>
        <time>2024-11-10T10:48:23Z</time>
      </trkpt>
      <trkpt lat="42.29346" lon="3.28604">
        <ele>8</ele>
        <time>2024-11-10T10:48:24Z</time>
      </trkpt>
      <trkpt lat="42.29347" lon="3.28604">
        <ele>8</ele>
        <time>2024-11-10T10:48:25Z</time>
      </trkpt>
      <trkpt lat="42.29347" lon="3.28605">
        <ele>8</ele>
        <time>2024-11-10T10:48:26Z</time>
      </trkpt>
      <trkpt lat="42.29348" lon="3.28606">
        <ele>8</ele>
        <time>2024-11-10T10:48:27Z</time>
      </trkpt>
      <trkpt lat="42.29348" lon="3.28607">
        <ele>8</ele>
        <time>2024-11-10T10:48:28Z</time>
      </trkpt>
      <trkpt lat="42.29349" lon="3.28607">
        <ele>7.9</ele>
        <time>2024-11-10T10:48:29Z</time>
      </trkpt>
      <trkpt lat="42.29349" lon="3.28607">
        <ele>7.9</ele>
        <time>2024-11-10T10:48:30Z</time>
      </trkpt>
      <trkpt lat="42.2935" lon="3.28608">
        <ele>7.9</ele>
        <time>2024-11-10T10:48:31Z</time>
      </trkpt>
      <trkpt lat="42.2935" lon="3.28607">
        <ele>7.9</ele>
        <time>2024-11-10T10:48:32Z</time>
      </trkpt>
      <trkpt lat="42.2935" lon="3.28607">
        <ele>7.9</ele>
        <time>2024-11-10T10:48:33Z</time>
      </trkpt>
      <trkpt lat="42.2935" lon="3.28608">
        <ele>7.9</ele>
        <time>2024-11-10T10:48:34Z</time>
      </trkpt>
      <trkpt lat="42.2935" lon="3.28608">
        <ele>7.9</ele>
        <time>2024-11-10T10:48:35Z</time>
      </trkpt>
      <trkpt lat="42.2935" lon="3.28608">
        <ele>7.9</ele>
        <time>2024-11-10T10:48:36Z</time>
      </trkpt>
      <trkpt lat="42.2935" lon="3.28609">
        <ele>7.9</ele>
        <time>2024-11-10T10:48:37Z</time>
      </trkpt>
      <trkpt lat="42.29349" lon="3.2861">
        <ele>7.9</ele>
        <time>2024-11-10T10:48:38Z</time>
      </trkpt>
      <trkpt lat="42.29349" lon="3.28611">
        <ele>7.8</ele>
        <time>2024-11-10T10:48:39Z</time>
      </trkpt>
      <trkpt lat="42.29349" lon="3.28613">
        <ele>7.8</ele>
        <time>2024-11-10T10:48:40Z</time>
      </trkpt>
      <trkpt lat="42.29349" lon="3.28614">
        <ele>7.8</ele>
        <time>2024-11-10T10:48:41Z</time>
      </trkpt>
      <trkpt lat="42.2935" lon="3.28615">
        <ele>7.8</ele>
        <time>2024-11-10T10:48:42Z</time>
      </trkpt>
      <trkpt lat="42.2935" lon="3.28616">
        <ele>7.8</ele>
        <time>2024-11-10T10:48:43Z</time>
      </trkpt>
      <trkpt lat="42.2935" lon="3.28617">
        <ele>7.8</ele>
        <time>2024-11-10T10:48:44Z</time>
      </trkpt>
      <trkpt lat="42.29351" lon="3.28618">
        <ele>7.7</ele>
        <time>2024-11-10T10:48:45Z</time>
      </trkpt>
      <trkpt lat="42.29351" lon="3.28618">
        <ele>7.7</ele>
        <time>2024-11-10T10:48:46Z</time>
      </trkpt>
      <trkpt lat="42.2935" lon="3.28619">
        <ele>7.7</ele>
        <time>2024-11-10T10:48:47Z</time>
      </trkpt>
      <trkpt lat="42.2935" lon="3.28619">
        <ele>7.7</ele>
        <time>2024-11-10T10:48:48Z</time>
      </trkpt>
      <trkpt lat="42.2935" lon="3.28618">
        <ele>7.7</ele>
        <time>2024-11-10T10:48:49Z</time>
      </trkpt>
      <trkpt lat="42.29349" lon="3.28618">
        <ele>7.7</ele>
        <time>2024-11-10T10:48:50Z</time>
      </trkpt>
      <trkpt lat="42.29349" lon="3.28618">
        <ele>7.7</ele>
        <time>2024-11-10T10:48:51Z</time>
      </trkpt>
      <trkpt lat="42.29349" lon="3.28618">
        <ele>7.7</ele>
        <time>2024-11-10T10:48:52Z</time>
      </trkpt>
      <trkpt lat="42.29349" lon="3.28618">
        <ele>7.7</ele>
        <time>2024-11-10T10:48:53Z</time>
      </trkpt>
      <trkpt lat="42.29349" lon="3.28618">
        <ele>7.7</ele>
        <time>2024-11-10T10:48:54Z</time>
      </trkpt>
      <trkpt lat="42.29349" lon="3.28618">
        <ele>7.7</ele>
        <time>2024-11-10T10:48:55Z</time>
      </trkpt>
      <trkpt lat="42.29349" lon="3.28618">
        <ele>7.7</ele>
        <time>2024-11-10T10:48:56Z</time>
      </trkpt>
      <trkpt lat="42.29349" lon="3.28618">
        <ele>7.7</ele>
        <time>2024-11-10T10:48:57Z</time>
      </trkpt>
      <trkpt lat="42.29349" lon="3.28619">
        <ele>7.7</ele>
        <time>2024-11-10T10:48:58Z</time>
      </trkpt>
      <trkpt lat="42.29349" lon="3.28619">
        <ele>7.7</ele>
        <time>2024-11-10T10:48:59Z</time>
      </trkpt>
      <trkpt lat="42.29349" lon="3.28619">
        <ele>7.7</ele>
        <time>2024-11-10T10:49:00Z</time>
      </trkpt>
      <trkpt lat="42.29349" lon="3.28618">
        <ele>7.7</ele>
        <time>2024-11-10T10:49:01Z</time>
      </trkpt>
      <trkpt lat="42.29349" lon="3.28618">
        <ele>7.7</ele>
        <time>2024-11-10T10:49:02Z</time>
      </trkpt>
      <trkpt lat="42.29349" lon="3.28618">
        <ele>7.7</ele>
        <time>2024-11-10T10:49:03Z</time>
      </trkpt>
      <trkpt lat="42.29349" lon="3.28618">
        <ele>7.7</ele>
        <time>2024-11-10T10:49:04Z</time>
      </trkpt>
      <trkpt lat="42.29349" lon="3.28618">
        <ele>7.7</ele>
        <time>2024-11-10T10:49:05Z</time>
      </trkpt>
      <trkpt lat="42.29349" lon="3.28618">
        <ele>7.7</ele>
        <time>2024-11-10T10:49:06Z</time>
      </trkpt>
      <trkpt lat="42.29349" lon="3.28618">
        <ele>7.7</ele>
        <time>2024-11-10T10:49:07Z</time>
      </trkpt>
      <trkpt lat="42.29349" lon="3.28618">
        <ele>7.7</ele>
        <time>2024-11-10T10:49:08Z</time>
      </trkpt>
      <trkpt lat="42.29349" lon="3.28618">
        <ele>7.7</ele>
        <time>2024-11-10T10:49:09Z</time>
      </trkpt>
      <trkpt lat="42.29349" lon="3.28618">
        <ele>7.7</ele>
        <time>2024-11-10T10:49:10Z</time>
      </trkpt>
      <trkpt lat="42.29349" lon="3.28618">
        <ele>7.7</ele>
        <time>2024-11-10T10:49:11Z</time>
      </trkpt>
      <trkpt lat="42.29349" lon="3.28618">
        <ele>7.7</ele>
        <time>2024-11-10T10:49:12Z</time>
      </trkpt>
      <trkpt lat="42.29349" lon="3.28618">
        <ele>7.7</ele>
        <time>2024-11-10T10:49:13Z</time>
      </trkpt>
      <trkpt lat="42.29349" lon="3.28618">
        <ele>7.7</ele>
        <time>2024-11-10T10:49:14Z</time>
      </trkpt>
      <trkpt lat="42.29349" lon="3.28618">
        <ele>7.7</ele>
        <time>2024-11-10T10:49:15Z</time>
      </trkpt>
      <trkpt lat="42.29349" lon="3.28618">
        <ele>7.7</ele>
        <time>2024-11-10T10:49:16Z</time>
      </trkpt>
      <trkpt lat="42.29349" lon="3.28618">
        <ele>7.7</ele>
        <time>2024-11-10T10:49:17Z</time>
      </trkpt>
      <trkpt lat="42.29349" lon="3.28618">
        <ele>7.7</ele>
        <time>2024-11-10T10:49:18Z</time>
      </trkpt>
      <trkpt lat="42.29349" lon="3.28618">
        <ele>7.7</ele>
        <time>2024-11-10T10:49:19Z</time>
      </trkpt>
      <trkpt lat="42.29349" lon="3.28618">
        <ele>7.7</ele>
        <time>2024-11-10T10:49:20Z</time>
      </trkpt>
      <trkpt lat="42.29349" lon="3.28618">
        <ele>7.7</ele>
        <time>2024-11-10T10:49:21Z</time>
      </trkpt>
      <trkpt lat="42.29349" lon="3.28618">
        <ele>7.7</ele>
        <time>2024-11-10T10:49:22Z</time>
      </trkpt>
      <trkpt lat="42.29349" lon="3.28618">
        <ele>7.7</ele>
        <time>2024-11-10T10:49:23Z</time>
      </trkpt>
      <trkpt lat="42.29349" lon="3.28618">
        <ele>7.7</ele>
        <time>2024-11-10T10:49:24Z</time>
      </trkpt>
      <trkpt lat="42.29349" lon="3.28618">
        <ele>7.7</ele>
        <time>2024-11-10T10:49:25Z</time>
      </trkpt>
      <trkpt lat="42.29349" lon="3.28618">
        <ele>7.7</ele>
        <time>2024-11-10T10:49:26Z</time>
      </trkpt>
      <trkpt lat="42.29349" lon="3.28618">
        <ele>7.7</ele>
        <time>2024-11-10T10:49:27Z</time>
      </trkpt>
      <trkpt lat="42.29349" lon="3.28618">
        <ele>7.7</ele>
        <time>2024-11-10T10:49:28Z</time>
      </trkpt>
      <trkpt lat="42.29349" lon="3.28618">
        <ele>7.7</ele>
        <time>2024-11-10T10:49:29Z</time>
      </trkpt>
      <trkpt lat="42.29349" lon="3.28618">
        <ele>7.7</ele>
        <time>2024-11-10T10:49:30Z</time>
      </trkpt>
      <trkpt lat="42.29349" lon="3.28618">
        <ele>7.7</ele>
        <time>2024-11-10T10:49:31Z</time>
      </trkpt>
      <trkpt lat="42.29349" lon="3.28618">
        <ele>7.7</ele>
        <time>2024-11-10T10:49:32Z</time>
      </trkpt>
      <trkpt lat="42.29349" lon="3.28618">
        <ele>7.7</ele>
        <time>2024-11-10T10:49:33Z</time>
      </trkpt>
      <trkpt lat="42.29349" lon="3.28618">
        <ele>7.7</ele>
        <time>2024-11-10T10:49:34Z</time>
      </trkpt>
      <trkpt lat="42.29349" lon="3.28618">
        <ele>7.7</ele>
        <time>2024-11-10T10:49:35Z</time>
      </trkpt>
      <trkpt lat="42.29349" lon="3.28618">
        <ele>7.7</ele>
        <time>2024-11-10T10:49:36Z</time>
      </trkpt>
      <trkpt lat="42.29349" lon="3.28618">
        <ele>7.7</ele>
        <time>2024-11-10T10:49:37Z</time>
      </trkpt>
      <trkpt lat="42.29349" lon="3.28618">
        <ele>7.7</ele>
        <time>2024-11-10T10:49:38Z</time>
      </trkpt>
      <trkpt lat="42.29349" lon="3.28618">
        <ele>7.7</ele>
        <time>2024-11-10T10:49:39Z</time>
      </trkpt>
      <trkpt lat="42.29349" lon="3.28618">
        <ele>7.7</ele>
        <time>2024-11-10T10:49:40Z</time>
      </trkpt>
      <trkpt lat="42.29349" lon="3.28618">
        <ele>7.7</ele>
        <time>2024-11-10T10:49:41Z</time>
      </trkpt>
      <trkpt lat="42.29349" lon="3.28618">
        <ele>7.7</ele>
        <time>2024-11-10T10:49:42Z</time>
      </trkpt>
      <trkpt lat="42.29349" lon="3.28618">
        <ele>7.7</ele>
        <time>2024-11-10T10:49:43Z</time>
      </trkpt>
      <trkpt lat="42.29349" lon="3.28618">
        <ele>7.7</ele>
        <time>2024-11-10T10:49:44Z</time>
      </trkpt>
      <trkpt lat="42.29349" lon="3.28618">
        <ele>7.7</ele>
        <time>2024-11-10T10:49:45Z</time>
      </trkpt>
      <trkpt lat="42.29349" lon="3.28618">
        <ele>7.7</ele>
        <time>2024-11-10T10:49:46Z</time>
      </trkpt>
      <trkpt lat="42.29349" lon="3.28618">
        <ele>7.7</ele>
        <time>2024-11-10T10:49:47Z</time>
      </trkpt>
      <trkpt lat="42.29349" lon="3.28619">
        <ele>7.7</ele>
        <time>2024-11-10T10:49:48Z</time>
      </trkpt>
      <trkpt lat="42.29349" lon="3.28619">
        <ele>7.6</ele>
        <time>2024-11-10T10:49:49Z</time>
      </trkpt>
      <trkpt lat="42.29349" lon="3.28619">
        <ele>7.6</ele>
        <time>2024-11-10T10:49:50Z</time>
      </trkpt>
      <trkpt lat="42.29349" lon="3.28618">
        <ele>7.6</ele>
        <time>2024-11-10T10:49:51Z</time>
      </trkpt>
      <trkpt lat="42.29349" lon="3.28618">
        <ele>7.6</ele>
        <time>2024-11-10T10:49:52Z</time>
      </trkpt>
      <trkpt lat="42.29349" lon="3.28618">
        <ele>7.6</ele>
        <time>2024-11-10T10:49:53Z</time>
      </trkpt>
      <trkpt lat="42.29349" lon="3.28618">
        <ele>7.6</ele>
        <time>2024-11-10T10:49:54Z</time>
      </trkpt>
      <trkpt lat="42.29349" lon="3.28618">
        <ele>7.6</ele>
        <time>2024-11-10T10:49:55Z</time>
      </trkpt>
      <trkpt lat="42.29349" lon="3.28618">
        <ele>7.6</ele>
        <time>2024-11-10T10:49:56Z</time>
      </trkpt>
      <trkpt lat="42.29349" lon="3.28618">
        <ele>7.6</ele>
        <time>2024-11-10T10:49:57Z</time>
      </trkpt>
      <trkpt lat="42.29349" lon="3.28618">
        <ele>7.6</ele>
        <time>2024-11-10T10:49:58Z</time>
      </trkpt>
      <trkpt lat="42.29349" lon="3.28618">
        <ele>7.6</ele>
        <time>2024-11-10T10:49:59Z</time>
      </trkpt>
      <trkpt lat="42.29349" lon="3.28618">
        <ele>7.6</ele>
        <time>2024-11-10T10:50:00Z</time>
      </trkpt>
      <trkpt lat="42.29349" lon="3.28618">
        <ele>7.6</ele>
        <time>2024-11-10T10:50:01Z</time>
      </trkpt>
      <trkpt lat="42.29349" lon="3.28618">
        <ele>7.6</ele>
        <time>2024-11-10T10:50:02Z</time>
      </trkpt>
      <trkpt lat="42.29349" lon="3.28618">
        <ele>7.6</ele>
        <time>2024-11-10T10:50:03Z</time>
      </trkpt>
      <trkpt lat="42.29349" lon="3.28618">
        <ele>7.6</ele>
        <time>2024-11-10T10:50:04Z</time>
      </trkpt>
      <trkpt lat="42.29349" lon="3.28618">
        <ele>7.6</ele>
        <time>2024-11-10T10:50:05Z</time>
      </trkpt>
      <trkpt lat="42.29349" lon="3.28618">
        <ele>7.6</ele>
        <time>2024-11-10T10:50:06Z</time>
      </trkpt>
      <trkpt lat="42.29349" lon="3.28618">
        <ele>7.6</ele>
        <time>2024-11-10T10:50:07Z</time>
      </trkpt>
      <trkpt lat="42.29349" lon="3.28618">
        <ele>7.6</ele>
        <time>2024-11-10T10:50:08Z</time>
      </trkpt>
      <trkpt lat="42.29349" lon="3.28618">
        <ele>7.6</ele>
        <time>2024-11-10T10:50:09Z</time>
      </trkpt>
      <trkpt lat="42.29349" lon="3.28618">
        <ele>7.6</ele>
        <time>2024-11-10T10:50:10Z</time>
      </trkpt>
      <trkpt lat="42.29349" lon="3.28618">
        <ele>7.6</ele>
        <time>2024-11-10T10:50:12Z</time>
      </trkpt>
      <trkpt lat="42.29349" lon="3.28618">
        <ele>7.6</ele>
        <time>2024-11-10T10:50:13Z</time>
      </trkpt>
      <trkpt lat="42.29349" lon="3.28618">
        <ele>7.6</ele>
        <time>2024-11-10T10:50:14Z</time>
      </trkpt>
      <trkpt lat="42.29349" lon="3.28618">
        <ele>7.6</ele>
        <time>2024-11-10T10:50:15Z</time>
      </trkpt>
      <trkpt lat="42.29349" lon="3.28618">
        <ele>7.6</ele>
        <time>2024-11-10T10:50:16Z</time>
      </trkpt>
      <trkpt lat="42.29349" lon="3.28618">
        <ele>7.6</ele>
        <time>2024-11-10T10:50:17Z</time>
      </trkpt>
      <trkpt lat="42.29349" lon="3.28618">
        <ele>7.6</ele>
        <time>2024-11-10T10:50:18Z</time>
      </trkpt>
      <trkpt lat="42.29349" lon="3.28618">
        <ele>7.6</ele>
        <time>2024-11-10T10:50:19Z</time>
      </trkpt>
      <trkpt lat="42.29349" lon="3.28618">
        <ele>7.6</ele>
        <time>2024-11-10T10:50:20Z</time>
      </trkpt>
      <trkpt lat="42.29349" lon="3.28618">
        <ele>7.6</ele>
        <time>2024-11-10T10:50:21Z</time>
      </trkpt>
      <trkpt lat="42.29349" lon="3.28618">
        <ele>7.6</ele>
        <time>2024-11-10T10:50:22Z</time>
      </trkpt>
      <trkpt lat="42.29349" lon="3.28618">
        <ele>7.6</ele>
        <time>2024-11-10T10:50:23Z</time>
      </trkpt>
      <trkpt lat="42.29349" lon="3.28618">
        <ele>7.6</ele>
        <time>2024-11-10T10:50:24Z</time>
      </trkpt>
      <trkpt lat="42.29349" lon="3.28618">
        <ele>7.6</ele>
        <time>2024-11-10T10:50:25Z</time>
      </trkpt>
      <trkpt lat="42.29349" lon="3.28618">
        <ele>7.6</ele>
        <time>2024-11-10T10:50:26Z</time>
      </trkpt>
      <trkpt lat="42.29349" lon="3.28618">
        <ele>7.6</ele>
        <time>2024-11-10T10:50:27Z</time>
      </trkpt>
      <trkpt lat="42.29349" lon="3.28618">
        <ele>7.6</ele>
        <time>2024-11-10T10:50:28Z</time>
      </trkpt>
      <trkpt lat="42.29349" lon="3.28618">
        <ele>7.6</ele>
        <time>2024-11-10T10:50:29Z</time>
      </trkpt>
      <trkpt lat="42.29349" lon="3.28618">
        <ele>7.6</ele>
        <time>2024-11-10T10:50:30Z</time>
      </trkpt>
      <trkpt lat="42.29349" lon="3.28618">
        <ele>7.6</ele>
        <time>2024-11-10T10:50:31Z</time>
      </trkpt>
      <trkpt lat="42.29349" lon="3.28618">
        <ele>7.6</ele>
        <time>2024-11-10T10:50:32Z</time>
      </trkpt>
      <trkpt lat="42.29349" lon="3.28618">
        <ele>7.6</ele>
        <time>2024-11-10T10:50:33Z</time>
      </trkpt>
      <trkpt lat="42.29349" lon="3.28618">
        <ele>7.6</ele>
        <time>2024-11-10T10:50:34Z</time>
      </trkpt>
      <trkpt lat="42.29349" lon="3.28618">
        <ele>7.6</ele>
        <time>2024-11-10T10:50:35Z</time>
      </trkpt>
      <trkpt lat="42.29349" lon="3.28618">
        <ele>7.6</ele>
        <time>2024-11-10T10:50:36Z</time>
      </trkpt>
      <trkpt lat="42.29349" lon="3.28618">
        <ele>7.6</ele>
        <time>2024-11-10T10:50:37Z</time>
      </trkpt>
      <trkpt lat="42.29349" lon="3.28618">
        <ele>7.6</ele>
        <time>2024-11-10T10:50:38Z</time>
      </trkpt>
      <trkpt lat="42.29349" lon="3.28618">
        <ele>7.6</ele>
        <time>2024-11-10T10:50:39Z</time>
      </trkpt>
      <trkpt lat="42.29349" lon="3.28618">
        <ele>7.6</ele>
        <time>2024-11-10T10:50:40Z</time>
      </trkpt>
      <trkpt lat="42.2935" lon="3.28618">
        <ele>7.6</ele>
        <time>2024-11-10T10:50:41Z</time>
      </trkpt>
      <trkpt lat="42.2935" lon="3.28618">
        <ele>7.6</ele>
        <time>2024-11-10T10:50:42Z</time>
      </trkpt>
      <trkpt lat="42.2935" lon="3.28618">
        <ele>7.6</ele>
        <time>2024-11-10T10:50:43Z</time>
      </trkpt>
      <trkpt lat="42.2935" lon="3.28618">
        <ele>7.6</ele>
        <time>2024-11-10T10:50:44Z</time>
      </trkpt>
      <trkpt lat="42.2935" lon="3.28618">
        <ele>7.6</ele>
        <time>2024-11-10T10:50:45Z</time>
      </trkpt>
      <trkpt lat="42.2935" lon="3.28618">
        <ele>7.6</ele>
        <time>2024-11-10T10:50:46Z</time>
      </trkpt>
      <trkpt lat="42.2935" lon="3.28618">
        <ele>7.6</ele>
        <time>2024-11-10T10:50:47Z</time>
      </trkpt>
      <trkpt lat="42.2935" lon="3.28618">
        <ele>7.6</ele>
        <time>2024-11-10T10:50:48Z</time>
      </trkpt>
      <trkpt lat="42.2935" lon="3.28618">
        <ele>7.6</ele>
        <time>2024-11-10T10:50:49Z</time>
      </trkpt>
      <trkpt lat="42.2935" lon="3.28618">
        <ele>7.6</ele>
        <time>2024-11-10T10:50:50Z</time>
      </trkpt>
      <trkpt lat="42.2935" lon="3.28618">
        <ele>7.6</ele>
        <time>2024-11-10T10:50:51Z</time>
      </trkpt>
      <trkpt lat="42.2935" lon="3.28618">
        <ele>7.6</ele>
        <time>2024-11-10T10:50:52Z</time>
      </trkpt>
      <trkpt lat="42.2935" lon="3.28618">
        <ele>7.6</ele>
        <time>2024-11-10T10:50:53Z</time>
      </trkpt>
      <trkpt lat="42.2935" lon="3.28618">
        <ele>7.6</ele>
        <time>2024-11-10T10:50:54Z</time>
      </trkpt>
      <trkpt lat="42.2935" lon="3.28618">
        <ele>7.6</ele>
        <time>2024-11-10T10:50:55Z</time>
      </trkpt>
      <trkpt lat="42.2935" lon="3.28618">
        <ele>7.6</ele>
        <time>2024-11-10T10:50:56Z</time>
      </trkpt>
      <trkpt lat="42.2935" lon="3.28618">
        <ele>7.6</ele>
        <time>2024-11-10T10:50:57Z</time>
      </trkpt>
      <trkpt lat="42.2935" lon="3.28618">
        <ele>7.6</ele>
        <time>2024-11-10T10:50:58Z</time>
      </trkpt>
      <trkpt lat="42.2935" lon="3.28618">
        <ele>7.6</ele>
        <time>2024-11-10T10:50:59Z</time>
      </trkpt>
      <trkpt lat="42.2935" lon="3.28618">
        <ele>7.6</ele>
        <time>2024-11-10T10:51:00Z</time>
      </trkpt>
      <trkpt lat="42.2935" lon="3.28618">
        <ele>7.6</ele>
        <time>2024-11-10T10:51:01Z</time>
      </trkpt>
      <trkpt lat="42.2935" lon="3.28618">
        <ele>7.6</ele>
        <time>2024-11-10T10:51:02Z</time>
      </trkpt>
      <trkpt lat="42.2935" lon="3.28618">
        <ele>7.6</ele>
        <time>2024-11-10T10:51:03Z</time>
      </trkpt>
      <trkpt lat="42.2935" lon="3.28618">
        <ele>7.6</ele>
        <time>2024-11-10T10:51:04Z</time>
      </trkpt>
      <trkpt lat="42.2935" lon="3.28618">
        <ele>7.6</ele>
        <time>2024-11-10T10:51:05Z</time>
      </trkpt>
      <trkpt lat="42.2935" lon="3.28618">
        <ele>7.6</ele>
        <time>2024-11-10T10:51:06Z</time>
      </trkpt>
      <trkpt lat="42.2935" lon="3.28618">
        <ele>7.6</ele>
        <time>2024-11-10T10:51:07Z</time>
      </trkpt>
      <trkpt lat="42.2935" lon="3.28618">
        <ele>7.6</ele>
        <time>2024-11-10T10:51:08Z</time>
      </trkpt>
      <trkpt lat="42.2935" lon="3.28618">
        <ele>7.6</ele>
        <time>2024-11-10T10:51:09Z</time>
      </trkpt>
      <trkpt lat="42.2935" lon="3.28618">
        <ele>7.6</ele>
        <time>2024-11-10T10:51:10Z</time>
      </trkpt>
      <trkpt lat="42.2935" lon="3.28618">
        <ele>7.6</ele>
        <time>2024-11-10T10:51:11Z</time>
      </trkpt>
      <trkpt lat="42.2935" lon="3.28618">
        <ele>7.6</ele>
        <time>2024-11-10T10:51:12Z</time>
      </trkpt>
      <trkpt lat="42.2935" lon="3.28618">
        <ele>7.6</ele>
        <time>2024-11-10T10:51:13Z</time>
      </trkpt>
      <trkpt lat="42.2935" lon="3.28618">
        <ele>7.6</ele>
        <time>2024-11-10T10:51:14Z</time>
      </trkpt>
      <trkpt lat="42.2935" lon="3.28618">
        <ele>7.6</ele>
        <time>2024-11-10T10:51:15Z</time>
      </trkpt>
      <trkpt lat="42.2935" lon="3.28618">
        <ele>7.6</ele>
        <time>2024-11-10T10:51:16Z</time>
      </trkpt>
      <trkpt lat="42.2935" lon="3.28618">
        <ele>7.6</ele>
        <time>2024-11-10T10:51:17Z</time>
      </trkpt>
      <trkpt lat="42.2935" lon="3.28618">
        <ele>7.6</ele>
        <time>2024-11-10T10:51:18Z</time>
      </trkpt>
      <trkpt lat="42.2935" lon="3.28618">
        <ele>7.6</ele>
        <time>2024-11-10T10:51:19Z</time>
      </trkpt>
      <trkpt lat="42.2935" lon="3.28618">
        <ele>7.6</ele>
        <time>2024-11-10T10:51:20Z</time>
      </trkpt>
      <trkpt lat="42.2935" lon="3.28618">
        <ele>7.6</ele>
        <time>2024-11-10T10:51:21Z</time>
      </trkpt>
      <trkpt lat="42.2935" lon="3.28618">
        <ele>7.6</ele>
        <time>2024-11-10T10:51:22Z</time>
      </trkpt>
      <trkpt lat="42.2935" lon="3.28618">
        <ele>7.6</ele>
        <time>2024-11-10T10:51:23Z</time>
      </trkpt>
      <trkpt lat="42.2935" lon="3.28618">
        <ele>7.6</ele>
        <time>2024-11-10T10:51:24Z</time>
      </trkpt>
      <trkpt lat="42.2935" lon="3.28618">
        <ele>7.6</ele>
        <time>2024-11-10T10:51:25Z</time>
      </trkpt>
      <trkpt lat="42.2935" lon="3.28618">
        <ele>7.6</ele>
        <time>2024-11-10T10:51:26Z</time>
      </trkpt>
      <trkpt lat="42.2935" lon="3.28618">
        <ele>7.6</ele>
        <time>2024-11-10T10:51:27Z</time>
      </trkpt>
      <trkpt lat="42.2935" lon="3.28618">
        <ele>7.6</ele>
        <time>2024-11-10T10:51:28Z</time>
      </trkpt>
      <trkpt lat="42.2935" lon="3.28618">
        <ele>7.6</ele>
        <time>2024-11-10T10:51:29Z</time>
      </trkpt>
      <trkpt lat="42.2935" lon="3.28618">
        <ele>7.6</ele>
        <time>2024-11-10T10:51:30Z</time>
      </trkpt>
      <trkpt lat="42.2935" lon="3.28618">
        <ele>7.6</ele>
        <time>2024-11-10T10:51:31Z</time>
      </trkpt>
      <trkpt lat="42.2935" lon="3.28618">
        <ele>7.6</ele>
        <time>2024-11-10T10:51:32Z</time>
      </trkpt>
      <trkpt lat="42.2935" lon="3.28618">
        <ele>7.6</ele>
        <time>2024-11-10T10:51:33Z</time>
      </trkpt>
      <trkpt lat="42.2935" lon="3.28618">
        <ele>7.6</ele>
        <time>2024-11-10T10:51:34Z</time>
      </trkpt>
      <trkpt lat="42.2935" lon="3.28618">
        <ele>7.6</ele>
        <time>2024-11-10T10:51:35Z</time>
      </trkpt>
      <trkpt lat="42.2935" lon="3.28618">
        <ele>7.6</ele>
        <time>2024-11-10T10:51:36Z</time>
      </trkpt>
      <trkpt lat="42.2935" lon="3.28618">
        <ele>7.6</ele>
        <time>2024-11-10T10:51:37Z</time>
      </trkpt>
      <trkpt lat="42.2935" lon="3.28618">
        <ele>7.6</ele>
        <time>2024-11-10T10:51:38Z</time>
      </trkpt>
      <trkpt lat="42.2935" lon="3.28618">
        <ele>7.6</ele>
        <time>2024-11-10T10:51:39Z</time>
      </trkpt>
      <trkpt lat="42.2935" lon="3.28618">
        <ele>7.6</ele>
        <time>2024-11-10T10:51:40Z</time>
      </trkpt>
      <trkpt lat="42.2935" lon="3.28618">
        <ele>7.6</ele>
        <time>2024-11-10T10:51:41Z</time>
      </trkpt>
      <trkpt lat="42.2935" lon="3.28618">
        <ele>7.6</ele>
        <time>2024-11-10T10:51:42Z</time>
      </trkpt>
      <trkpt lat="42.2935" lon="3.28618">
        <ele>7.6</ele>
        <time>2024-11-10T10:51:43Z</time>
      </trkpt>
      <trkpt lat="42.2935" lon="3.28618">
        <ele>7.6</ele>
        <time>2024-11-10T10:51:44Z</time>
      </trkpt>
      <trkpt lat="42.2935" lon="3.28618">
        <ele>7.6</ele>
        <time>2024-11-10T10:51:45Z</time>
      </trkpt>
      <trkpt lat="42.2935" lon="3.28618">
        <ele>7.6</ele>
        <time>2024-11-10T10:51:46Z</time>
      </trkpt>
      <trkpt lat="42.2935" lon="3.28618">
        <ele>7.6</ele>
        <time>2024-11-10T10:51:47Z</time>
      </trkpt>
      <trkpt lat="42.2935" lon="3.28618">
        <ele>7.6</ele>
        <time>2024-11-10T10:51:48Z</time>
      </trkpt>
      <trkpt lat="42.2935" lon="3.28618">
        <ele>7.6</ele>
        <time>2024-11-10T10:51:49Z</time>
      </trkpt>
      <trkpt lat="42.2935" lon="3.28618">
        <ele>7.6</ele>
        <time>2024-11-10T10:51:50Z</time>
      </trkpt>
      <trkpt lat="42.2935" lon="3.28618">
        <ele>7.6</ele>
        <time>2024-11-10T10:51:51Z</time>
      </trkpt>
      <trkpt lat="42.2935" lon="3.28618">
        <ele>7.6</ele>
        <time>2024-11-10T10:51:52Z</time>
      </trkpt>
      <trkpt lat="42.2935" lon="3.28618">
        <ele>7.6</ele>
        <time>2024-11-10T10:51:53Z</time>
      </trkpt>
      <trkpt lat="42.2935" lon="3.28618">
        <ele>7.6</ele>
        <time>2024-11-10T10:51:54Z</time>
      </trkpt>
      <trkpt lat="42.2935" lon="3.28618">
        <ele>7.6</ele>
        <time>2024-11-10T10:51:55Z</time>
      </trkpt>
      <trkpt lat="42.2935" lon="3.28618">
        <ele>7.6</ele>
        <time>2024-11-10T10:51:56Z</time>
      </trkpt>
      <trkpt lat="42.2935" lon="3.28618">
        <ele>7.6</ele>
        <time>2024-11-10T10:51:57Z</time>
      </trkpt>
      <trkpt lat="42.2935" lon="3.28618">
        <ele>7.6</ele>
        <time>2024-11-10T10:51:58Z</time>
      </trkpt>
      <trkpt lat="42.2935" lon="3.28618">
        <ele>7.6</ele>
        <time>2024-11-10T10:51:59Z</time>
      </trkpt>
      <trkpt lat="42.2935" lon="3.28618">
        <ele>7.6</ele>
        <time>2024-11-10T10:52:00Z</time>
      </trkpt>
      <trkpt lat="42.2935" lon="3.28618">
        <ele>7.6</ele>
        <time>2024-11-10T10:52:01Z</time>
      </trkpt>
      <trkpt lat="42.2935" lon="3.28618">
        <ele>7.6</ele>
        <time>2024-11-10T10:52:02Z</time>
      </trkpt>
      <trkpt lat="42.2935" lon="3.28618">
        <ele>7.6</ele>
        <time>2024-11-10T10:52:03Z</time>
      </trkpt>
      <trkpt lat="42.2935" lon="3.28618">
        <ele>7.6</ele>
        <time>2024-11-10T10:52:04Z</time>
      </trkpt>
      <trkpt lat="42.2935" lon="3.28618">
        <ele>7.6</ele>
        <time>2024-11-10T10:52:05Z</time>
      </trkpt>
      <trkpt lat="42.2935" lon="3.28618">
        <ele>7.6</ele>
        <time>2024-11-10T10:52:06Z</time>
      </trkpt>
      <trkpt lat="42.2935" lon="3.28618">
        <ele>7.6</ele>
        <time>2024-11-10T10:52:07Z</time>
      </trkpt>
      <trkpt lat="42.2935" lon="3.28618">
        <ele>7.6</ele>
        <time>2024-11-10T10:52:08Z</time>
      </trkpt>
      <trkpt lat="42.2935" lon="3.28618">
        <ele>7.6</ele>
        <time>2024-11-10T10:52:09Z</time>
      </trkpt>
      <trkpt lat="42.2935" lon="3.28618">
        <ele>7.6</ele>
        <time>2024-11-10T10:52:10Z</time>
      </trkpt>
      <trkpt lat="42.2935" lon="3.28618">
        <ele>7.6</ele>
        <time>2024-11-10T10:52:11Z</time>
      </trkpt>
      <trkpt lat="42.2935" lon="3.28618">
        <ele>7.6</ele>
        <time>2024-11-10T10:52:12Z</time>
      </trkpt>
      <trkpt lat="42.2935" lon="3.28618">
        <ele>7.6</ele>
        <time>2024-11-10T10:52:13Z</time>
      </trkpt>
      <trkpt lat="42.2935" lon="3.28618">
        <ele>7.6</ele>
        <time>2024-11-10T10:52:14Z</time>
      </trkpt>
      <trkpt lat="42.2935" lon="3.28618">
        <ele>7.6</ele>
        <time>2024-11-10T10:52:15Z</time>
      </trkpt>
      <trkpt lat="42.2935" lon="3.28618">
        <ele>7.6</ele>
        <time>2024-11-10T10:52:16Z</time>
      </trkpt>
      <trkpt lat="42.2935" lon="3.28618">
        <ele>7.6</ele>
        <time>2024-11-10T10:52:17Z</time>
      </trkpt>
      <trkpt lat="42.2935" lon="3.28618">
        <ele>7.6</ele>
        <time>2024-11-10T10:52:18Z</time>
      </trkpt>
      <trkpt lat="42.2935" lon="3.28618">
        <ele>7.6</ele>
        <time>2024-11-10T10:52:19Z</time>
      </trkpt>
      <trkpt lat="42.2935" lon="3.28618">
        <ele>7.6</ele>
        <time>2024-11-10T10:52:20Z</time>
      </trkpt>
      <trkpt lat="42.2935" lon="3.28618">
        <ele>7.6</ele>
        <time>2024-11-10T10:52:21Z</time>
      </trkpt>
      <trkpt lat="42.2935" lon="3.28618">
        <ele>7.6</ele>
        <time>2024-11-10T10:52:22Z</time>
      </trkpt>
      <trkpt lat="42.2935" lon="3.28618">
        <ele>7.6</ele>
        <time>2024-11-10T10:52:23Z</time>
      </trkpt>
      <trkpt lat="42.2935" lon="3.28618">
        <ele>7.6</ele>
        <time>2024-11-10T10:52:24Z</time>
      </trkpt>
      <trkpt lat="42.2935" lon="3.28618">
        <ele>7.6</ele>
        <time>2024-11-10T10:52:25Z</time>
      </trkpt>
      <trkpt lat="42.2935" lon="3.28618">
        <ele>7.6</ele>
        <time>2024-11-10T10:52:26Z</time>
      </trkpt>
      <trkpt lat="42.2935" lon="3.28618">
        <ele>7.6</ele>
        <time>2024-11-10T10:52:27Z</time>
      </trkpt>
      <trkpt lat="42.2935" lon="3.28618">
        <ele>7.6</ele>
        <time>2024-11-10T10:52:28Z</time>
      </trkpt>
      <trkpt lat="42.2935" lon="3.28618">
        <ele>7.6</ele>
        <time>2024-11-10T10:52:29Z</time>
      </trkpt>
      <trkpt lat="42.2935" lon="3.28618">
        <ele>7.6</ele>
        <time>2024-11-10T10:52:30Z</time>
      </trkpt>
      <trkpt lat="42.2935" lon="3.28618">
        <ele>7.6</ele>
        <time>2024-11-10T10:52:31Z</time>
      </trkpt>
      <trkpt lat="42.2935" lon="3.28618">
        <ele>7.6</ele>
        <time>2024-11-10T10:52:32Z</time>
      </trkpt>
      <trkpt lat="42.2935" lon="3.28618">
        <ele>7.6</ele>
        <time>2024-11-10T10:52:33Z</time>
      </trkpt>
      <trkpt lat="42.2935" lon="3.28618">
        <ele>7.6</ele>
        <time>2024-11-10T10:52:34Z</time>
      </trkpt>
      <trkpt lat="42.2935" lon="3.28618">
        <ele>7.6</ele>
        <time>2024-11-10T10:52:35Z</time>
      </trkpt>
      <trkpt lat="42.2935" lon="3.28618">
        <ele>7.6</ele>
        <time>2024-11-10T10:52:36Z</time>
      </trkpt>
      <trkpt lat="42.2935" lon="3.28618">
        <ele>7.6</ele>
        <time>2024-11-10T10:52:37Z</time>
      </trkpt>
      <trkpt lat="42.29351" lon="3.28618">
        <ele>7.6</ele>
        <time>2024-11-10T10:52:38Z</time>
      </trkpt>
      <trkpt lat="42.29351" lon="3.28618">
        <ele>7.6</ele>
        <time>2024-11-10T10:52:39Z</time>
      </trkpt>
      <trkpt lat="42.29351" lon="3.28618">
        <ele>7.6</ele>
        <time>2024-11-10T10:52:40Z</time>
      </trkpt>
      <trkpt lat="42.29351" lon="3.28618">
        <ele>7.6</ele>
        <time>2024-11-10T10:52:41Z</time>
      </trkpt>
      <trkpt lat="42.29351" lon="3.28618">
        <ele>7.6</ele>
        <time>2024-11-10T10:52:42Z</time>
      </trkpt>
      <trkpt lat="42.29351" lon="3.28618">
        <ele>7.6</ele>
        <time>2024-11-10T10:52:43Z</time>
      </trkpt>
      <trkpt lat="42.29351" lon="3.28618">
        <ele>7.6</ele>
        <time>2024-11-10T10:52:44Z</time>
      </trkpt>
      <trkpt lat="42.29351" lon="3.28618">
        <ele>7.6</ele>
        <time>2024-11-10T10:52:45Z</time>
      </trkpt>
      <trkpt lat="42.29351" lon="3.28618">
        <ele>7.6</ele>
        <time>2024-11-10T10:52:46Z</time>
      </trkpt>
      <trkpt lat="42.29351" lon="3.28618">
        <ele>7.6</ele>
        <time>2024-11-10T10:52:47Z</time>
      </trkpt>
      <trkpt lat="42.29351" lon="3.28618">
        <ele>7.6</ele>
        <time>2024-11-10T10:52:48Z</time>
      </trkpt>
      <trkpt lat="42.29351" lon="3.28618">
        <ele>7.6</ele>
        <time>2024-11-10T10:52:49Z</time>
      </trkpt>
      <trkpt lat="42.29351" lon="3.28618">
        <ele>7.6</ele>
        <time>2024-11-10T10:52:50Z</time>
      </trkpt>
      <trkpt lat="42.29351" lon="3.28618">
        <ele>7.6</ele>
        <time>2024-11-10T10:52:51Z</time>
      </trkpt>
      <trkpt lat="42.29351" lon="3.28618">
        <ele>7.6</ele>
        <time>2024-11-10T10:52:52Z</time>
      </trkpt>
      <trkpt lat="42.29351" lon="3.28618">
        <ele>7.6</ele>
        <time>2024-11-10T10:52:53Z</time>
      </trkpt>
      <trkpt lat="42.29351" lon="3.28618">
        <ele>7.6</ele>
        <time>2024-11-10T10:52:54Z</time>
      </trkpt>
      <trkpt lat="42.29351" lon="3.28618">
        <ele>7.6</ele>
        <time>2024-11-10T10:52:55Z</time>
      </trkpt>
      <trkpt lat="42.29351" lon="3.28618">
        <ele>7.6</ele>
        <time>2024-11-10T10:52:56Z</time>
      </trkpt>
      <trkpt lat="42.29351" lon="3.28618">
        <ele>7.6</ele>
        <time>2024-11-10T10:52:57Z</time>
      </trkpt>
      <trkpt lat="42.29351" lon="3.28618">
        <ele>7.6</ele>
        <time>2024-11-10T10:52:58Z</time>
      </trkpt>
      <trkpt lat="42.29351" lon="3.28618">
        <ele>7.6</ele>
        <time>2024-11-10T10:52:59Z</time>
      </trkpt>
      <trkpt lat="42.29351" lon="3.28618">
        <ele>7.6</ele>
        <time>2024-11-10T10:53:00Z</time>
      </trkpt>
      <trkpt lat="42.29351" lon="3.28618">
        <ele>7.6</ele>
        <time>2024-11-10T10:53:01Z</time>
      </trkpt>
      <trkpt lat="42.29351" lon="3.28618">
        <ele>7.6</ele>
        <time>2024-11-10T10:53:02Z</time>
      </trkpt>
      <trkpt lat="42.29351" lon="3.28618">
        <ele>7.6</ele>
        <time>2024-11-10T10:53:03Z</time>
      </trkpt>
      <trkpt lat="42.29351" lon="3.28618">
        <ele>7.6</ele>
        <time>2024-11-10T10:53:04Z</time>
      </trkpt>
      <trkpt lat="42.29351" lon="3.28618">
        <ele>7.6</ele>
        <time>2024-11-10T10:53:05Z</time>
      </trkpt>
      <trkpt lat="42.29351" lon="3.28618">
        <ele>7.6</ele>
        <time>2024-11-10T10:53:06Z</time>
      </trkpt>
      <trkpt lat="42.29351" lon="3.28618">
        <ele>7.6</ele>
        <time>2024-11-10T10:53:07Z</time>
      </trkpt>
      <trkpt lat="42.29351" lon="3.28618">
        <ele>7.6</ele>
        <time>2024-11-10T10:53:08Z</time>
      </trkpt>
      <trkpt lat="42.29351" lon="3.28618">
        <ele>7.6</ele>
        <time>2024-11-10T10:53:09Z</time>
      </trkpt>
      <trkpt lat="42.29351" lon="3.28618">
        <ele>7.6</ele>
        <time>2024-11-10T10:53:10Z</time>
      </trkpt>
      <trkpt lat="42.29351" lon="3.28618">
        <ele>7.6</ele>
        <time>2024-11-10T10:53:11Z</time>
      </trkpt>
      <trkpt lat="42.29351" lon="3.28618">
        <ele>7.6</ele>
        <time>2024-11-10T10:53:12Z</time>
      </trkpt>
      <trkpt lat="42.29351" lon="3.28618">
        <ele>7.6</ele>
        <time>2024-11-10T10:53:13Z</time>
      </trkpt>
      <trkpt lat="42.29351" lon="3.28618">
        <ele>7.6</ele>
        <time>2024-11-10T10:53:14Z</time>
      </trkpt>
      <trkpt lat="42.29351" lon="3.28618">
        <ele>7.6</ele>
        <time>2024-11-10T10:53:15Z</time>
      </trkpt>
      <trkpt lat="42.29351" lon="3.28618">
        <ele>7.6</ele>
        <time>2024-11-10T10:53:16Z</time>
      </trkpt>
      <trkpt lat="42.29351" lon="3.28618">
        <ele>7.6</ele>
        <time>2024-11-10T10:53:17Z</time>
      </trkpt>
      <trkpt lat="42.29351" lon="3.28618">
        <ele>7.6</ele>
        <time>2024-11-10T10:53:18Z</time>
      </trkpt>
      <trkpt lat="42.29351" lon="3.28618">
        <ele>7.6</ele>
        <time>2024-11-10T10:53:19Z</time>
      </trkpt>
      <trkpt lat="42.29351" lon="3.28618">
        <ele>7.6</ele>
        <time>2024-11-10T10:53:20Z</time>
      </trkpt>
      <trkpt lat="42.29351" lon="3.28618">
        <ele>7.6</ele>
        <time>2024-11-10T10:53:21Z</time>
      </trkpt>
      <trkpt lat="42.29351" lon="3.28618">
        <ele>7.6</ele>
        <time>2024-11-10T10:53:22Z</time>
      </trkpt>
      <trkpt lat="42.29351" lon="3.28618">
        <ele>7.6</ele>
        <time>2024-11-10T10:53:23Z</time>
      </trkpt>
      <trkpt lat="42.29351" lon="3.28618">
        <ele>7.6</ele>
        <time>2024-11-10T10:53:24Z</time>
      </trkpt>
      <trkpt lat="42.29351" lon="3.28618">
        <ele>7.6</ele>
        <time>2024-11-10T10:53:25Z</time>
      </trkpt>
      <trkpt lat="42.29351" lon="3.28618">
        <ele>7.6</ele>
        <time>2024-11-10T10:53:26Z</time>
      </trkpt>
      <trkpt lat="42.29351" lon="3.28618">
        <ele>7.6</ele>
        <time>2024-11-10T10:53:27Z</time>
      </trkpt>
      <trkpt lat="42.29351" lon="3.28618">
        <ele>7.6</ele>
        <time>2024-11-10T10:53:28Z</time>
      </trkpt>
      <trkpt lat="42.29351" lon="3.28618">
        <ele>7.6</ele>
        <time>2024-11-10T10:53:29Z</time>
      </trkpt>
      <trkpt lat="42.29351" lon="3.28618">
        <ele>7.6</ele>
        <time>2024-11-10T10:53:30Z</time>
      </trkpt>
      <trkpt lat="42.29351" lon="3.28618">
        <ele>7.6</ele>
        <time>2024-11-10T10:53:31Z</time>
      </trkpt>
      <trkpt lat="42.29351" lon="3.28618">
        <ele>7.6</ele>
        <time>2024-11-10T10:53:32Z</time>
      </trkpt>
      <trkpt lat="42.29351" lon="3.28618">
        <ele>7.6</ele>
        <time>2024-11-10T10:53:33Z</time>
      </trkpt>
      <trkpt lat="42.29351" lon="3.28618">
        <ele>7.6</ele>
        <time>2024-11-10T10:53:34Z</time>
      </trkpt>
      <trkpt lat="42.29351" lon="3.28618">
        <ele>7.6</ele>
        <time>2024-11-10T10:53:35Z</time>
      </trkpt>
      <trkpt lat="42.29351" lon="3.28618">
        <ele>7.6</ele>
        <time>2024-11-10T10:53:36Z</time>
      </trkpt>
      <trkpt lat="42.29351" lon="3.28618">
        <ele>7.6</ele>
        <time>2024-11-10T10:53:37Z</time>
      </trkpt>
      <trkpt lat="42.29351" lon="3.28618">
        <ele>7.6</ele>
        <time>2024-11-10T10:53:38Z</time>
      </trkpt>
      <trkpt lat="42.29351" lon="3.28618">
        <ele>7.6</ele>
        <time>2024-11-10T10:53:39Z</time>
      </trkpt>
      <trkpt lat="42.29351" lon="3.28618">
        <ele>7.6</ele>
        <time>2024-11-10T10:53:40Z</time>
      </trkpt>
      <trkpt lat="42.29351" lon="3.28618">
        <ele>7.6</ele>
        <time>2024-11-10T10:53:41Z</time>
      </trkpt>
      <trkpt lat="42.29351" lon="3.28618">
        <ele>7.6</ele>
        <time>2024-11-10T10:53:42Z</time>
      </trkpt>
      <trkpt lat="42.29351" lon="3.28618">
        <ele>7.6</ele>
        <time>2024-11-10T10:53:43Z</time>
      </trkpt>
      <trkpt lat="42.29351" lon="3.28618">
        <ele>7.6</ele>
        <time>2024-11-10T10:53:44Z</time>
      </trkpt>
      <trkpt lat="42.29351" lon="3.28618">
        <ele>7.6</ele>
        <time>2024-11-10T10:53:45Z</time>
      </trkpt>
      <trkpt lat="42.29351" lon="3.28618">
        <ele>7.6</ele>
        <time>2024-11-10T10:53:46Z</time>
      </trkpt>
      <trkpt lat="42.29351" lon="3.28618">
        <ele>7.6</ele>
        <time>2024-11-10T10:53:47Z</time>
      </trkpt>
      <trkpt lat="42.29351" lon="3.28618">
        <ele>7.6</ele>
        <time>2024-11-10T10:53:48Z</time>
      </trkpt>
      <trkpt lat="42.29351" lon="3.28618">
        <ele>7.6</ele>
        <time>2024-11-10T10:53:49Z</time>
      </trkpt>
      <trkpt lat="42.29351" lon="3.28618">
        <ele>7.6</ele>
        <time>2024-11-10T10:53:50Z</time>
      </trkpt>
      <trkpt lat="42.29351" lon="3.28618">
        <ele>7.6</ele>
        <time>2024-11-10T10:53:51Z</time>
      </trkpt>
      <trkpt lat="42.29351" lon="3.28618">
        <ele>7.6</ele>
        <time>2024-11-10T10:53:52Z</time>
      </trkpt>
      <trkpt lat="42.29351" lon="3.28618">
        <ele>7.6</ele>
        <time>2024-11-10T10:53:53Z</time>
      </trkpt>
      <trkpt lat="42.29351" lon="3.28618">
        <ele>7.6</ele>
        <time>2024-11-10T10:53:54Z</time>
      </trkpt>
      <trkpt lat="42.29351" lon="3.28618">
        <ele>7.6</ele>
        <time>2024-11-10T10:53:55Z</time>
      </trkpt>
      <trkpt lat="42.29351" lon="3.28618">
        <ele>7.6</ele>
        <time>2024-11-10T10:53:56Z</time>
      </trkpt>
      <trkpt lat="42.29351" lon="3.28618">
        <ele>7.6</ele>
        <time>2024-11-10T10:53:57Z</time>
      </trkpt>
      <trkpt lat="42.29351" lon="3.28618">
        <ele>7.6</ele>
        <time>2024-11-10T10:53:58Z</time>
      </trkpt>
      <trkpt lat="42.29351" lon="3.28618">
        <ele>7.6</ele>
        <time>2024-11-10T10:53:59Z</time>
      </trkpt>
      <trkpt lat="42.29351" lon="3.28618">
        <ele>7.6</ele>
        <time>2024-11-10T10:54:00Z</time>
      </trkpt>
      <trkpt lat="42.29351" lon="3.28618">
        <ele>7.6</ele>
        <time>2024-11-10T10:54:01Z</time>
      </trkpt>
      <trkpt lat="42.29351" lon="3.28618">
        <ele>7.6</ele>
        <time>2024-11-10T10:54:02Z</time>
      </trkpt>
      <trkpt lat="42.29351" lon="3.28618">
        <ele>7.6</ele>
        <time>2024-11-10T10:54:03Z</time>
      </trkpt>
      <trkpt lat="42.29351" lon="3.28618">
        <ele>7.6</ele>
        <time>2024-11-10T10:54:04Z</time>
      </trkpt>
      <trkpt lat="42.29351" lon="3.28618">
        <ele>7.6</ele>
        <time>2024-11-10T10:54:05Z</time>
      </trkpt>
      <trkpt lat="42.29351" lon="3.28618">
        <ele>7.6</ele>
        <time>2024-11-10T10:54:06Z</time>
      </trkpt>
      <trkpt lat="42.29351" lon="3.28618">
        <ele>7.6</ele>
        <time>2024-11-10T10:54:07Z</time>
      </trkpt>
      <trkpt lat="42.29351" lon="3.28618">
        <ele>7.6</ele>
        <time>2024-11-10T10:54:08Z</time>
      </trkpt>
      <trkpt lat="42.29351" lon="3.28618">
        <ele>7.6</ele>
        <time>2024-11-10T10:54:09Z</time>
      </trkpt>
      <trkpt lat="42.29351" lon="3.28618">
        <ele>7.6</ele>
        <time>2024-11-10T10:54:10Z</time>
      </trkpt>
      <trkpt lat="42.29351" lon="3.28618">
        <ele>7.6</ele>
        <time>2024-11-10T10:54:11Z</time>
      </trkpt>
      <trkpt lat="42.29351" lon="3.28618">
        <ele>7.6</ele>
        <time>2024-11-10T10:54:12Z</time>
      </trkpt>
      <trkpt lat="42.29351" lon="3.28618">
        <ele>7.6</ele>
        <time>2024-11-10T10:54:13Z</time>
      </trkpt>
      <trkpt lat="42.29351" lon="3.28618">
        <ele>7.6</ele>
        <time>2024-11-10T10:54:14Z</time>
      </trkpt>
      <trkpt lat="42.29351" lon="3.28618">
        <ele>7.6</ele>
        <time>2024-11-10T10:54:15Z</time>
      </trkpt>
      <trkpt lat="42.29351" lon="3.28618">
        <ele>7.6</ele>
        <time>2024-11-10T10:54:16Z</time>
      </trkpt>
      <trkpt lat="42.29351" lon="3.28618">
        <ele>7.6</ele>
        <time>2024-11-10T10:54:17Z</time>
      </trkpt>
      <trkpt lat="42.29351" lon="3.28618">
        <ele>7.6</ele>
        <time>2024-11-10T10:54:18Z</time>
      </trkpt>
      <trkpt lat="42.29351" lon="3.28618">
        <ele>7.6</ele>
        <time>2024-11-10T10:54:19Z</time>
      </trkpt>
      <trkpt lat="42.29351" lon="3.28618">
        <ele>7.6</ele>
        <time>2024-11-10T10:54:20Z</time>
      </trkpt>
      <trkpt lat="42.29351" lon="3.28618">
        <ele>7.6</ele>
        <time>2024-11-10T10:54:21Z</time>
      </trkpt>
      <trkpt lat="42.29351" lon="3.28618">
        <ele>7.6</ele>
        <time>2024-11-10T10:54:22Z</time>
      </trkpt>
      <trkpt lat="42.29351" lon="3.28618">
        <ele>7.6</ele>
        <time>2024-11-10T10:54:23Z</time>
      </trkpt>
      <trkpt lat="42.29351" lon="3.28618">
        <ele>7.6</ele>
        <time>2024-11-10T10:54:24Z</time>
      </trkpt>
      <trkpt lat="42.29351" lon="3.28618">
        <ele>7.6</ele>
        <time>2024-11-10T10:54:25Z</time>
      </trkpt>
      <trkpt lat="42.29351" lon="3.28618">
        <ele>7.6</ele>
        <time>2024-11-10T10:54:26Z</time>
      </trkpt>
      <trkpt lat="42.29351" lon="3.28618">
        <ele>7.6</ele>
        <time>2024-11-10T10:54:27Z</time>
      </trkpt>
      <trkpt lat="42.29351" lon="3.28618">
        <ele>7.6</ele>
        <time>2024-11-10T10:54:28Z</time>
      </trkpt>
      <trkpt lat="42.29351" lon="3.28618">
        <ele>7.6</ele>
        <time>2024-11-10T10:54:29Z</time>
      </trkpt>
      <trkpt lat="42.29351" lon="3.28618">
        <ele>7.6</ele>
        <time>2024-11-10T10:54:30Z</time>
      </trkpt>
      <trkpt lat="42.29351" lon="3.28618">
        <ele>7.6</ele>
        <time>2024-11-10T10:54:31Z</time>
      </trkpt>
      <trkpt lat="42.29351" lon="3.28618">
        <ele>7.6</ele>
        <time>2024-11-10T10:54:32Z</time>
      </trkpt>
      <trkpt lat="42.29351" lon="3.28618">
        <ele>7.6</ele>
        <time>2024-11-10T10:54:33Z</time>
      </trkpt>
      <trkpt lat="42.29351" lon="3.28618">
        <ele>7.6</ele>
        <time>2024-11-10T10:54:34Z</time>
      </trkpt>
      <trkpt lat="42.29351" lon="3.28618">
        <ele>7.6</ele>
        <time>2024-11-10T10:54:35Z</time>
      </trkpt>
      <trkpt lat="42.29351" lon="3.28618">
        <ele>7.6</ele>
        <time>2024-11-10T10:54:36Z</time>
      </trkpt>
      <trkpt lat="42.29351" lon="3.28618">
        <ele>7.6</ele>
        <time>2024-11-10T10:54:37Z</time>
      </trkpt>
      <trkpt lat="42.29351" lon="3.28618">
        <ele>7.6</ele>
        <time>2024-11-10T10:54:38Z</time>
      </trkpt>
      <trkpt lat="42.29351" lon="3.28618">
        <ele>7.6</ele>
        <time>2024-11-10T10:54:39Z</time>
      </trkpt>
      <trkpt lat="42.29351" lon="3.28618">
        <ele>7.6</ele>
        <time>2024-11-10T10:54:40Z</time>
      </trkpt>
      <trkpt lat="42.29351" lon="3.28618">
        <ele>7.6</ele>
        <time>2024-11-10T10:54:41Z</time>
      </trkpt>
      <trkpt lat="42.29351" lon="3.28618">
        <ele>7.6</ele>
        <time>2024-11-10T10:54:42Z</time>
      </trkpt>
      <trkpt lat="42.29351" lon="3.28618">
        <ele>7.6</ele>
        <time>2024-11-10T10:54:43Z</time>
      </trkpt>
      <trkpt lat="42.29351" lon="3.28618">
        <ele>7.6</ele>
        <time>2024-11-10T10:54:44Z</time>
      </trkpt>
      <trkpt lat="42.29351" lon="3.28618">
        <ele>7.6</ele>
        <time>2024-11-10T10:54:45Z</time>
      </trkpt>
      <trkpt lat="42.29351" lon="3.28618">
        <ele>7.6</ele>
        <time>2024-11-10T10:54:46Z</time>
      </trkpt>
      <trkpt lat="42.29351" lon="3.28618">
        <ele>7.6</ele>
        <time>2024-11-10T10:54:47Z</time>
      </trkpt>
      <trkpt lat="42.29351" lon="3.28618">
        <ele>7.6</ele>
        <time>2024-11-10T10:54:48Z</time>
      </trkpt>
      <trkpt lat="42.29351" lon="3.28618">
        <ele>7.6</ele>
        <time>2024-11-10T10:54:49Z</time>
      </trkpt>
      <trkpt lat="42.29351" lon="3.28618">
        <ele>7.6</ele>
        <time>2024-11-10T10:54:50Z</time>
      </trkpt>
      <trkpt lat="42.29351" lon="3.28618">
        <ele>7.6</ele>
        <time>2024-11-10T10:54:51Z</time>
      </trkpt>
      <trkpt lat="42.29351" lon="3.28618">
        <ele>7.6</ele>
        <time>2024-11-10T10:54:52Z</time>
      </trkpt>
      <trkpt lat="42.29351" lon="3.28618">
        <ele>7.6</ele>
        <time>2024-11-10T10:54:53Z</time>
      </trkpt>
      <trkpt lat="42.29351" lon="3.28618">
        <ele>7.6</ele>
        <time>2024-11-10T10:54:54Z</time>
      </trkpt>
      <trkpt lat="42.29351" lon="3.28618">
        <ele>7.6</ele>
        <time>2024-11-10T10:54:55Z</time>
      </trkpt>
      <trkpt lat="42.29351" lon="3.28618">
        <ele>7.6</ele>
        <time>2024-11-10T10:54:56Z</time>
      </trkpt>
      <trkpt lat="42.29351" lon="3.28618">
        <ele>7.6</ele>
        <time>2024-11-10T10:54:57Z</time>
      </trkpt>
      <trkpt lat="42.29351" lon="3.28618">
        <ele>7.6</ele>
        <time>2024-11-10T10:54:58Z</time>
      </trkpt>
      <trkpt lat="42.29351" lon="3.28618">
        <ele>7.6</ele>
        <time>2024-11-10T10:54:59Z</time>
      </trkpt>
      <trkpt lat="42.29351" lon="3.28618">
        <ele>7.6</ele>
        <time>2024-11-10T10:55:00Z</time>
      </trkpt>
      <trkpt lat="42.29351" lon="3.28618">
        <ele>7.6</ele>
        <time>2024-11-10T10:55:01Z</time>
      </trkpt>
      <trkpt lat="42.29351" lon="3.28618">
        <ele>7.6</ele>
        <time>2024-11-10T10:55:02Z</time>
      </trkpt>
      <trkpt lat="42.29351" lon="3.28618">
        <ele>7.6</ele>
        <time>2024-11-10T10:55:03Z</time>
      </trkpt>
      <trkpt lat="42.29351" lon="3.28618">
        <ele>7.6</ele>
        <time>2024-11-10T10:55:04Z</time>
      </trkpt>
      <trkpt lat="42.29351" lon="3.28618">
        <ele>7.6</ele>
        <time>2024-11-10T10:55:05Z</time>
      </trkpt>
      <trkpt lat="42.29351" lon="3.28618">
        <ele>7.6</ele>
        <time>2024-11-10T10:55:06Z</time>
      </trkpt>
      <trkpt lat="42.29351" lon="3.28618">
        <ele>7.6</ele>
        <time>2024-11-10T10:55:07Z</time>
      </trkpt>
      <trkpt lat="42.29351" lon="3.28618">
        <ele>7.6</ele>
        <time>2024-11-10T10:55:08Z</time>
      </trkpt>
      <trkpt lat="42.29351" lon="3.28618">
        <ele>7.6</ele>
        <time>2024-11-10T10:55:09Z</time>
      </trkpt>
      <trkpt lat="42.29351" lon="3.28618">
        <ele>7.6</ele>
        <time>2024-11-10T10:55:10Z</time>
      </trkpt>
      <trkpt lat="42.29351" lon="3.28618">
        <ele>7.6</ele>
        <time>2024-11-10T10:55:11Z</time>
      </trkpt>
      <trkpt lat="42.29351" lon="3.28618">
        <ele>7.6</ele>
        <time>2024-11-10T10:55:12Z</time>
      </trkpt>
      <trkpt lat="42.29351" lon="3.28618">
        <ele>7.6</ele>
        <time>2024-11-10T10:55:13Z</time>
      </trkpt>
      <trkpt lat="42.29351" lon="3.28618">
        <ele>7.6</ele>
        <time>2024-11-10T10:55:14Z</time>
      </trkpt>
      <trkpt lat="42.29351" lon="3.28618">
        <ele>7.6</ele>
        <time>2024-11-10T10:55:15Z</time>
      </trkpt>
      <trkpt lat="42.29351" lon="3.28618">
        <ele>7.6</ele>
        <time>2024-11-10T10:55:16Z</time>
      </trkpt>
      <trkpt lat="42.29351" lon="3.28618">
        <ele>7.6</ele>
        <time>2024-11-10T10:55:17Z</time>
      </trkpt>
      <trkpt lat="42.29351" lon="3.28618">
        <ele>7.6</ele>
        <time>2024-11-10T10:55:18Z</time>
      </trkpt>
      <trkpt lat="42.29351" lon="3.28618">
        <ele>7.6</ele>
        <time>2024-11-10T10:55:19Z</time>
      </trkpt>
      <trkpt lat="42.29351" lon="3.28618">
        <ele>7.6</ele>
        <time>2024-11-10T10:55:20Z</time>
      </trkpt>
      <trkpt lat="42.29351" lon="3.28618">
        <ele>7.6</ele>
        <time>2024-11-10T10:55:21Z</time>
      </trkpt>
      <trkpt lat="42.29351" lon="3.28618">
        <ele>7.6</ele>
        <time>2024-11-10T10:55:22Z</time>
      </trkpt>
      <trkpt lat="42.29351" lon="3.28618">
        <ele>7.6</ele>
        <time>2024-11-10T10:55:23Z</time>
      </trkpt>
      <trkpt lat="42.29351" lon="3.28618">
        <ele>7.6</ele>
        <time>2024-11-10T10:55:24Z</time>
      </trkpt>
      <trkpt lat="42.29351" lon="3.28618">
        <ele>7.6</ele>
        <time>2024-11-10T10:55:25Z</time>
      </trkpt>
      <trkpt lat="42.29351" lon="3.28618">
        <ele>7.6</ele>
        <time>2024-11-10T10:55:26Z</time>
      </trkpt>
      <trkpt lat="42.29351" lon="3.28618">
        <ele>7.6</ele>
        <time>2024-11-10T10:55:27Z</time>
      </trkpt>
      <trkpt lat="42.29351" lon="3.28618">
        <ele>7.6</ele>
        <time>2024-11-10T10:55:28Z</time>
      </trkpt>
      <trkpt lat="42.29351" lon="3.28618">
        <ele>7.6</ele>
        <time>2024-11-10T10:55:29Z</time>
      </trkpt>
      <trkpt lat="42.29351" lon="3.28618">
        <ele>7.6</ele>
        <time>2024-11-10T10:55:30Z</time>
      </trkpt>
      <trkpt lat="42.29351" lon="3.28618">
        <ele>7.6</ele>
        <time>2024-11-10T10:55:31Z</time>
      </trkpt>
      <trkpt lat="42.29351" lon="3.28618">
        <ele>7.6</ele>
        <time>2024-11-10T10:55:32Z</time>
      </trkpt>
      <trkpt lat="42.29351" lon="3.28618">
        <ele>7.6</ele>
        <time>2024-11-10T10:55:33Z</time>
      </trkpt>
      <trkpt lat="42.29351" lon="3.28618">
        <ele>7.6</ele>
        <time>2024-11-10T10:55:34Z</time>
      </trkpt>
      <trkpt lat="42.29351" lon="3.28618">
        <ele>7.6</ele>
        <time>2024-11-10T10:55:35Z</time>
      </trkpt>
      <trkpt lat="42.29351" lon="3.28618">
        <ele>7.6</ele>
        <time>2024-11-10T10:55:36Z</time>
      </trkpt>
      <trkpt lat="42.29351" lon="3.28618">
        <ele>7.6</ele>
        <time>2024-11-10T10:55:37Z</time>
      </trkpt>
      <trkpt lat="42.29351" lon="3.28618">
        <ele>7.6</ele>
        <time>2024-11-10T10:55:38Z</time>
      </trkpt>
      <trkpt lat="42.29351" lon="3.28618">
        <ele>7.6</ele>
        <time>2024-11-10T10:55:39Z</time>
      </trkpt>
      <trkpt lat="42.29351" lon="3.28618">
        <ele>7.6</ele>
        <time>2024-11-10T10:55:40Z</time>
      </trkpt>
      <trkpt lat="42.29351" lon="3.28618">
        <ele>7.6</ele>
        <time>2024-11-10T10:55:41Z</time>
      </trkpt>
      <trkpt lat="42.29351" lon="3.28618">
        <ele>7.6</ele>
        <time>2024-11-10T10:55:42Z</time>
      </trkpt>
      <trkpt lat="42.29351" lon="3.28618">
        <ele>7.6</ele>
        <time>2024-11-10T10:55:43Z</time>
      </trkpt>
      <trkpt lat="42.29351" lon="3.28618">
        <ele>7.6</ele>
        <time>2024-11-10T10:55:44Z</time>
      </trkpt>
      <trkpt lat="42.29351" lon="3.28618">
        <ele>7.6</ele>
        <time>2024-11-10T10:55:45Z</time>
      </trkpt>
      <trkpt lat="42.29351" lon="3.28618">
        <ele>7.6</ele>
        <time>2024-11-10T10:55:46Z</time>
      </trkpt>
      <trkpt lat="42.29351" lon="3.28618">
        <ele>7.6</ele>
        <time>2024-11-10T10:55:47Z</time>
      </trkpt>
      <trkpt lat="42.29351" lon="3.28618">
        <ele>7.6</ele>
        <time>2024-11-10T10:55:48Z</time>
      </trkpt>
      <trkpt lat="42.29351" lon="3.28618">
        <ele>7.6</ele>
        <time>2024-11-10T10:55:49Z</time>
      </trkpt>
      <trkpt lat="42.29351" lon="3.28618">
        <ele>7.6</ele>
        <time>2024-11-10T10:55:50Z</time>
      </trkpt>
      <trkpt lat="42.29351" lon="3.28618">
        <ele>7.6</ele>
        <time>2024-11-10T10:55:51Z</time>
      </trkpt>
      <trkpt lat="42.29351" lon="3.28618">
        <ele>7.6</ele>
        <time>2024-11-10T10:55:52Z</time>
      </trkpt>
      <trkpt lat="42.29351" lon="3.28618">
        <ele>7.6</ele>
        <time>2024-11-10T10:55:53Z</time>
      </trkpt>
      <trkpt lat="42.29351" lon="3.28618">
        <ele>7.6</ele>
        <time>2024-11-10T10:55:54Z</time>
      </trkpt>
      <trkpt lat="42.29351" lon="3.28618">
        <ele>7.6</ele>
        <time>2024-11-10T10:55:55Z</time>
      </trkpt>
      <trkpt lat="42.29351" lon="3.28618">
        <ele>7.6</ele>
        <time>2024-11-10T10:55:56Z</time>
      </trkpt>
      <trkpt lat="42.29351" lon="3.28618">
        <ele>7.6</ele>
        <time>2024-11-10T10:55:57Z</time>
      </trkpt>
      <trkpt lat="42.29351" lon="3.28618">
        <ele>7.6</ele>
        <time>2024-11-10T10:55:58Z</time>
      </trkpt>
      <trkpt lat="42.29351" lon="3.28618">
        <ele>7.6</ele>
        <time>2024-11-10T10:55:59Z</time>
      </trkpt>
      <trkpt lat="42.29351" lon="3.28618">
        <ele>7.6</ele>
        <time>2024-11-10T10:56:00Z</time>
      </trkpt>
      <trkpt lat="42.29351" lon="3.28618">
        <ele>7.6</ele>
        <time>2024-11-10T10:56:01Z</time>
      </trkpt>
      <trkpt lat="42.29351" lon="3.28618">
        <ele>7.6</ele>
        <time>2024-11-10T10:56:02Z</time>
      </trkpt>
      <trkpt lat="42.29351" lon="3.28618">
        <ele>7.6</ele>
        <time>2024-11-10T10:56:03Z</time>
      </trkpt>
      <trkpt lat="42.29351" lon="3.28618">
        <ele>7.6</ele>
        <time>2024-11-10T10:56:04Z</time>
      </trkpt>
      <trkpt lat="42.29351" lon="3.28618">
        <ele>7.6</ele>
        <time>2024-11-10T10:56:05Z</time>
      </trkpt>
      <trkpt lat="42.29351" lon="3.28618">
        <ele>7.6</ele>
        <time>2024-11-10T10:56:06Z</time>
      </trkpt>
      <trkpt lat="42.29351" lon="3.28618">
        <ele>7.6</ele>
        <time>2024-11-10T10:56:07Z</time>
      </trkpt>
      <trkpt lat="42.29351" lon="3.28618">
        <ele>7.6</ele>
        <time>2024-11-10T10:56:08Z</time>
      </trkpt>
      <trkpt lat="42.29351" lon="3.28618">
        <ele>7.6</ele>
        <time>2024-11-10T10:56:09Z</time>
      </trkpt>
      <trkpt lat="42.29351" lon="3.28618">
        <ele>7.6</ele>
        <time>2024-11-10T10:56:10Z</time>
      </trkpt>
      <trkpt lat="42.29351" lon="3.28618">
        <ele>7.6</ele>
        <time>2024-11-10T10:56:11Z</time>
      </trkpt>
      <trkpt lat="42.29351" lon="3.28618">
        <ele>7.6</ele>
        <time>2024-11-10T10:56:12Z</time>
      </trkpt>
      <trkpt lat="42.29351" lon="3.28618">
        <ele>7.6</ele>
        <time>2024-11-10T10:56:13Z</time>
      </trkpt>
      <trkpt lat="42.29351" lon="3.28618">
        <ele>7.6</ele>
        <time>2024-11-10T10:56:14Z</time>
      </trkpt>
      <trkpt lat="42.29351" lon="3.28618">
        <ele>7.6</ele>
        <time>2024-11-10T10:56:15Z</time>
      </trkpt>
      <trkpt lat="42.29351" lon="3.28618">
        <ele>7.6</ele>
        <time>2024-11-10T10:56:16Z</time>
      </trkpt>
      <trkpt lat="42.29351" lon="3.28618">
        <ele>7.6</ele>
        <time>2024-11-10T10:56:17Z</time>
      </trkpt>
      <trkpt lat="42.29351" lon="3.28618">
        <ele>7.6</ele>
        <time>2024-11-10T10:56:18Z</time>
      </trkpt>
      <trkpt lat="42.29351" lon="3.28618">
        <ele>7.6</ele>
        <time>2024-11-10T10:56:19Z</time>
      </trkpt>
      <trkpt lat="42.29351" lon="3.28618">
        <ele>7.6</ele>
        <time>2024-11-10T10:56:20Z</time>
      </trkpt>
      <trkpt lat="42.29351" lon="3.28618">
        <ele>7.6</ele>
        <time>2024-11-10T10:56:21Z</time>
      </trkpt>
      <trkpt lat="42.29351" lon="3.28618">
        <ele>7.6</ele>
        <time>2024-11-10T10:56:22Z</time>
      </trkpt>
      <trkpt lat="42.29351" lon="3.28618">
        <ele>7.6</ele>
        <time>2024-11-10T10:56:23Z</time>
      </trkpt>
      <trkpt lat="42.29351" lon="3.28618">
        <ele>7.6</ele>
        <time>2024-11-10T10:56:24Z</time>
      </trkpt>
      <trkpt lat="42.29351" lon="3.28618">
        <ele>7.6</ele>
        <time>2024-11-10T10:56:25Z</time>
      </trkpt>
      <trkpt lat="42.29351" lon="3.28618">
        <ele>7.6</ele>
        <time>2024-11-10T10:56:26Z</time>
      </trkpt>
      <trkpt lat="42.29351" lon="3.28618">
        <ele>7.6</ele>
        <time>2024-11-10T10:56:27Z</time>
      </trkpt>
      <trkpt lat="42.29351" lon="3.28618">
        <ele>7.6</ele>
        <time>2024-11-10T10:56:28Z</time>
      </trkpt>
      <trkpt lat="42.29351" lon="3.28618">
        <ele>7.6</ele>
        <time>2024-11-10T10:56:29Z</time>
      </trkpt>
      <trkpt lat="42.29351" lon="3.28618">
        <ele>7.6</ele>
        <time>2024-11-10T10:56:30Z</time>
      </trkpt>
      <trkpt lat="42.29351" lon="3.28618">
        <ele>7.6</ele>
        <time>2024-11-10T10:56:31Z</time>
      </trkpt>
      <trkpt lat="42.29351" lon="3.28618">
        <ele>7.6</ele>
        <time>2024-11-10T10:56:32Z</time>
      </trkpt>
      <trkpt lat="42.29351" lon="3.28618">
        <ele>7.6</ele>
        <time>2024-11-10T10:56:33Z</time>
      </trkpt>
      <trkpt lat="42.29351" lon="3.28618">
        <ele>7.6</ele>
        <time>2024-11-10T10:56:34Z</time>
      </trkpt>
      <trkpt lat="42.29351" lon="3.28618">
        <ele>7.6</ele>
        <time>2024-11-10T10:56:35Z</time>
      </trkpt>
      <trkpt lat="42.29351" lon="3.28618">
        <ele>7.6</ele>
        <time>2024-11-10T10:56:36Z</time>
      </trkpt>
      <trkpt lat="42.29351" lon="3.28618">
        <ele>7.6</ele>
        <time>2024-11-10T10:56:37Z</time>
      </trkpt>
      <trkpt lat="42.29351" lon="3.28618">
        <ele>7.6</ele>
        <time>2024-11-10T10:56:38Z</time>
      </trkpt>
      <trkpt lat="42.29351" lon="3.28618">
        <ele>7.6</ele>
        <time>2024-11-10T10:56:39Z</time>
      </trkpt>
      <trkpt lat="42.29351" lon="3.28618">
        <ele>7.6</ele>
        <time>2024-11-10T10:56:40Z</time>
      </trkpt>
      <trkpt lat="42.29351" lon="3.28618">
        <ele>7.6</ele>
        <time>2024-11-10T10:56:41Z</time>
      </trkpt>
      <trkpt lat="42.29351" lon="3.28618">
        <ele>7.6</ele>
        <time>2024-11-10T10:56:42Z</time>
      </trkpt>
      <trkpt lat="42.29351" lon="3.28618">
        <ele>7.6</ele>
        <time>2024-11-10T10:56:43Z</time>
      </trkpt>
      <trkpt lat="42.29351" lon="3.28618">
        <ele>7.6</ele>
        <time>2024-11-10T10:56:44Z</time>
      </trkpt>
      <trkpt lat="42.29351" lon="3.28618">
        <ele>7.6</ele>
        <time>2024-11-10T10:56:45Z</time>
      </trkpt>
      <trkpt lat="42.29351" lon="3.28618">
        <ele>7.6</ele>
        <time>2024-11-10T10:56:46Z</time>
      </trkpt>
      <trkpt lat="42.29351" lon="3.28618">
        <ele>7.6</ele>
        <time>2024-11-10T10:56:47Z</time>
      </trkpt>
      <trkpt lat="42.29351" lon="3.28618">
        <ele>7.6</ele>
        <time>2024-11-10T10:56:48Z</time>
      </trkpt>
      <trkpt lat="42.29351" lon="3.28618">
        <ele>7.6</ele>
        <time>2024-11-10T10:56:49Z</time>
      </trkpt>
      <trkpt lat="42.29351" lon="3.28618">
        <ele>7.6</ele>
        <time>2024-11-10T10:56:50Z</time>
      </trkpt>
      <trkpt lat="42.29351" lon="3.28618">
        <ele>7.6</ele>
        <time>2024-11-10T10:56:51Z</time>
      </trkpt>
      <trkpt lat="42.29351" lon="3.28618">
        <ele>7.6</ele>
        <time>2024-11-10T10:56:52Z</time>
      </trkpt>
      <trkpt lat="42.29351" lon="3.28618">
        <ele>7.6</ele>
        <time>2024-11-10T10:56:53Z</time>
      </trkpt>
      <trkpt lat="42.29351" lon="3.28618">
        <ele>7.6</ele>
        <time>2024-11-10T10:56:54Z</time>
      </trkpt>
      <trkpt lat="42.29351" lon="3.28618">
        <ele>7.6</ele>
        <time>2024-11-10T10:56:55Z</time>
      </trkpt>
      <trkpt lat="42.29351" lon="3.28618">
        <ele>7.6</ele>
        <time>2024-11-10T10:56:56Z</time>
      </trkpt>
      <trkpt lat="42.29351" lon="3.28618">
        <ele>7.6</ele>
        <time>2024-11-10T10:56:57Z</time>
      </trkpt>
      <trkpt lat="42.29351" lon="3.28618">
        <ele>7.6</ele>
        <time>2024-11-10T10:56:58Z</time>
      </trkpt>
      <trkpt lat="42.29351" lon="3.28618">
        <ele>7.6</ele>
        <time>2024-11-10T10:56:59Z</time>
      </trkpt>
      <trkpt lat="42.29351" lon="3.28618">
        <ele>7.6</ele>
        <time>2024-11-10T10:57:00Z</time>
      </trkpt>
      <trkpt lat="42.29351" lon="3.28618">
        <ele>7.6</ele>
        <time>2024-11-10T10:57:01Z</time>
      </trkpt>
      <trkpt lat="42.29351" lon="3.28618">
        <ele>7.6</ele>
        <time>2024-11-10T10:57:02Z</time>
      </trkpt>
      <trkpt lat="42.29351" lon="3.28618">
        <ele>7.6</ele>
        <time>2024-11-10T10:57:03Z</time>
      </trkpt>
      <trkpt lat="42.29351" lon="3.28618">
        <ele>7.6</ele>
        <time>2024-11-10T10:57:04Z</time>
      </trkpt>
      <trkpt lat="42.29351" lon="3.28618">
        <ele>7.6</ele>
        <time>2024-11-10T10:57:05Z</time>
      </trkpt>
      <trkpt lat="42.29351" lon="3.28618">
        <ele>7.6</ele>
        <time>2024-11-10T10:57:06Z</time>
      </trkpt>
      <trkpt lat="42.29351" lon="3.28618">
        <ele>7.6</ele>
        <time>2024-11-10T10:57:07Z</time>
      </trkpt>
      <trkpt lat="42.29351" lon="3.28618">
        <ele>7.6</ele>
        <time>2024-11-10T10:57:08Z</time>
      </trkpt>
      <trkpt lat="42.29351" lon="3.28618">
        <ele>7.6</ele>
        <time>2024-11-10T10:57:09Z</time>
      </trkpt>
      <trkpt lat="42.29351" lon="3.28618">
        <ele>7.6</ele>
        <time>2024-11-10T10:57:10Z</time>
      </trkpt>
      <trkpt lat="42.29351" lon="3.28618">
        <ele>7.6</ele>
        <time>2024-11-10T10:57:11Z</time>
      </trkpt>
      <trkpt lat="42.29351" lon="3.28618">
        <ele>7.6</ele>
        <time>2024-11-10T10:57:12Z</time>
      </trkpt>
      <trkpt lat="42.29351" lon="3.28618">
        <ele>7.6</ele>
        <time>2024-11-10T10:57:13Z</time>
      </trkpt>
      <trkpt lat="42.29351" lon="3.28618">
        <ele>7.6</ele>
        <time>2024-11-10T10:57:14Z</time>
      </trkpt>
      <trkpt lat="42.29351" lon="3.28618">
        <ele>7.6</ele>
        <time>2024-11-10T10:57:15Z</time>
      </trkpt>
      <trkpt lat="42.29351" lon="3.28618">
        <ele>7.6</ele>
        <time>2024-11-10T10:57:16Z</time>
      </trkpt>
      <trkpt lat="42.29351" lon="3.28618">
        <ele>7.6</ele>
        <time>2024-11-10T10:57:17Z</time>
      </trkpt>
      <trkpt lat="42.29351" lon="3.28618">
        <ele>7.6</ele>
        <time>2024-11-10T10:57:18Z</time>
      </trkpt>
      <trkpt lat="42.29351" lon="3.28618">
        <ele>7.6</ele>
        <time>2024-11-10T10:57:19Z</time>
      </trkpt>
      <trkpt lat="42.29351" lon="3.28618">
        <ele>7.6</ele>
        <time>2024-11-10T10:57:20Z</time>
      </trkpt>
      <trkpt lat="42.29351" lon="3.28618">
        <ele>7.6</ele>
        <time>2024-11-10T10:57:21Z</time>
      </trkpt>
      <trkpt lat="42.29351" lon="3.28618">
        <ele>7.6</ele>
        <time>2024-11-10T10:57:22Z</time>
      </trkpt>
      <trkpt lat="42.29351" lon="3.28618">
        <ele>7.6</ele>
        <time>2024-11-10T10:57:23Z</time>
      </trkpt>
      <trkpt lat="42.29351" lon="3.28618">
        <ele>7.6</ele>
        <time>2024-11-10T10:57:24Z</time>
      </trkpt>
      <trkpt lat="42.29351" lon="3.28618">
        <ele>7.6</ele>
        <time>2024-11-10T10:57:25Z</time>
      </trkpt>
      <trkpt lat="42.29351" lon="3.28618">
        <ele>7.6</ele>
        <time>2024-11-10T10:57:26Z</time>
      </trkpt>
      <trkpt lat="42.29351" lon="3.28618">
        <ele>7.6</ele>
        <time>2024-11-10T10:57:27Z</time>
      </trkpt>
      <trkpt lat="42.29351" lon="3.28618">
        <ele>7.6</ele>
        <time>2024-11-10T10:57:28Z</time>
      </trkpt>
      <trkpt lat="42.29351" lon="3.28618">
        <ele>7.6</ele>
        <time>2024-11-10T10:57:29Z</time>
      </trkpt>
      <trkpt lat="42.29351" lon="3.28618">
        <ele>7.6</ele>
        <time>2024-11-10T10:57:30Z</time>
      </trkpt>
      <trkpt lat="42.29351" lon="3.28618">
        <ele>7.6</ele>
        <time>2024-11-10T10:57:31Z</time>
      </trkpt>
      <trkpt lat="42.29351" lon="3.28618">
        <ele>7.6</ele>
        <time>2024-11-10T10:57:32Z</time>
      </trkpt>
      <trkpt lat="42.29351" lon="3.28618">
        <ele>7.6</ele>
        <time>2024-11-10T10:57:33Z</time>
      </trkpt>
      <trkpt lat="42.29351" lon="3.28618">
        <ele>7.6</ele>
        <time>2024-11-10T10:57:34Z</time>
      </trkpt>
      <trkpt lat="42.29351" lon="3.28618">
        <ele>7.6</ele>
        <time>2024-11-10T10:57:35Z</time>
      </trkpt>
      <trkpt lat="42.29351" lon="3.28618">
        <ele>7.6</ele>
        <time>2024-11-10T10:57:36Z</time>
      </trkpt>
      <trkpt lat="42.29351" lon="3.28618">
        <ele>7.6</ele>
        <time>2024-11-10T10:57:37Z</time>
      </trkpt>
      <trkpt lat="42.29351" lon="3.28618">
        <ele>7.6</ele>
        <time>2024-11-10T10:57:38Z</time>
      </trkpt>
      <trkpt lat="42.29351" lon="3.28618">
        <ele>7.6</ele>
        <time>2024-11-10T10:57:39Z</time>
      </trkpt>
      <trkpt lat="42.29351" lon="3.28618">
        <ele>7.6</ele>
        <time>2024-11-10T10:57:40Z</time>
      </trkpt>
      <trkpt lat="42.29351" lon="3.28618">
        <ele>7.6</ele>
        <time>2024-11-10T10:57:41Z</time>
      </trkpt>
      <trkpt lat="42.29351" lon="3.28618">
        <ele>7.6</ele>
        <time>2024-11-10T10:57:42Z</time>
      </trkpt>
      <trkpt lat="42.29351" lon="3.28618">
        <ele>7.6</ele>
        <time>2024-11-10T10:57:43Z</time>
      </trkpt>
      <trkpt lat="42.29351" lon="3.28618">
        <ele>7.6</ele>
        <time>2024-11-10T10:57:44Z</time>
      </trkpt>
      <trkpt lat="42.29351" lon="3.28618">
        <ele>7.6</ele>
        <time>2024-11-10T10:57:45Z</time>
      </trkpt>
      <trkpt lat="42.29351" lon="3.28618">
        <ele>7.6</ele>
        <time>2024-11-10T10:57:46Z</time>
      </trkpt>
      <trkpt lat="42.29351" lon="3.28618">
        <ele>7.6</ele>
        <time>2024-11-10T10:57:47Z</time>
      </trkpt>
      <trkpt lat="42.29351" lon="3.28618">
        <ele>7.6</ele>
        <time>2024-11-10T10:57:48Z</time>
      </trkpt>
      <trkpt lat="42.29351" lon="3.28618">
        <ele>7.6</ele>
        <time>2024-11-10T10:57:50Z</time>
      </trkpt>
      <trkpt lat="42.29351" lon="3.28618">
        <ele>7.6</ele>
        <time>2024-11-10T10:57:51Z</time>
      </trkpt>
      <trkpt lat="42.29351" lon="3.28618">
        <ele>7.6</ele>
        <time>2024-11-10T10:57:52Z</time>
      </trkpt>
      <trkpt lat="42.29351" lon="3.28618">
        <ele>7.6</ele>
        <time>2024-11-10T10:57:53Z</time>
      </trkpt>
      <trkpt lat="42.29351" lon="3.28618">
        <ele>7.6</ele>
        <time>2024-11-10T10:57:54Z</time>
      </trkpt>
      <trkpt lat="42.29351" lon="3.28618">
        <ele>7.6</ele>
        <time>2024-11-10T10:57:55Z</time>
      </trkpt>
      <trkpt lat="42.29351" lon="3.28618">
        <ele>7.6</ele>
        <time>2024-11-10T10:57:56Z</time>
      </trkpt>
      <trkpt lat="42.29351" lon="3.28618">
        <ele>7.6</ele>
        <time>2024-11-10T10:57:57Z</time>
      </trkpt>
      <trkpt lat="42.29351" lon="3.28618">
        <ele>7.6</ele>
        <time>2024-11-10T10:57:58Z</time>
      </trkpt>
      <trkpt lat="42.29351" lon="3.28618">
        <ele>7.6</ele>
        <time>2024-11-10T10:57:59Z</time>
      </trkpt>
      <trkpt lat="42.29351" lon="3.28618">
        <ele>7.6</ele>
        <time>2024-11-10T10:58:00Z</time>
      </trkpt>
      <trkpt lat="42.29351" lon="3.28618">
        <ele>7.6</ele>
        <time>2024-11-10T10:58:01Z</time>
      </trkpt>
      <trkpt lat="42.29351" lon="3.28618">
        <ele>7.6</ele>
        <time>2024-11-10T10:58:02Z</time>
      </trkpt>
      <trkpt lat="42.29351" lon="3.28618">
        <ele>7.6</ele>
        <time>2024-11-10T10:58:03Z</time>
      </trkpt>
      <trkpt lat="42.29351" lon="3.28618">
        <ele>7.6</ele>
        <time>2024-11-10T10:58:04Z</time>
      </trkpt>
      <trkpt lat="42.29351" lon="3.28618">
        <ele>7.6</ele>
        <time>2024-11-10T10:58:05Z</time>
      </trkpt>
      <trkpt lat="42.29351" lon="3.28618">
        <ele>7.6</ele>
        <time>2024-11-10T10:58:06Z</time>
      </trkpt>
      <trkpt lat="42.29351" lon="3.28618">
        <ele>7.6</ele>
        <time>2024-11-10T10:58:07Z</time>
      </trkpt>
      <trkpt lat="42.29351" lon="3.28618">
        <ele>7.6</ele>
        <time>2024-11-10T10:58:08Z</time>
      </trkpt>
      <trkpt lat="42.29351" lon="3.28618">
        <ele>7.6</ele>
        <time>2024-11-10T10:58:09Z</time>
      </trkpt>
      <trkpt lat="42.29351" lon="3.28618">
        <ele>7.6</ele>
        <time>2024-11-10T10:58:10Z</time>
      </trkpt>
      <trkpt lat="42.29351" lon="3.28618">
        <ele>7.6</ele>
        <time>2024-11-10T10:58:11Z</time>
      </trkpt>
      <trkpt lat="42.29351" lon="3.28618">
        <ele>7.6</ele>
        <time>2024-11-10T10:58:12Z</time>
      </trkpt>
      <trkpt lat="42.29351" lon="3.28618">
        <ele>7.6</ele>
        <time>2024-11-10T10:58:13Z</time>
      </trkpt>
      <trkpt lat="42.29351" lon="3.28618">
        <ele>7.6</ele>
        <time>2024-11-10T10:58:14Z</time>
      </trkpt>
      <trkpt lat="42.29351" lon="3.28618">
        <ele>7.6</ele>
        <time>2024-11-10T10:58:15Z</time>
      </trkpt>
      <trkpt lat="42.29351" lon="3.28618">
        <ele>7.6</ele>
        <time>2024-11-10T10:58:16Z</time>
      </trkpt>
      <trkpt lat="42.29351" lon="3.28618">
        <ele>7.6</ele>
        <time>2024-11-10T10:58:17Z</time>
      </trkpt>
      <trkpt lat="42.29351" lon="3.28618">
        <ele>7.6</ele>
        <time>2024-11-10T10:58:18Z</time>
      </trkpt>
      <trkpt lat="42.29351" lon="3.28618">
        <ele>7.6</ele>
        <time>2024-11-10T10:58:19Z</time>
      </trkpt>
      <trkpt lat="42.29351" lon="3.28618">
        <ele>7.6</ele>
        <time>2024-11-10T10:58:20Z</time>
      </trkpt>
      <trkpt lat="42.29351" lon="3.28618">
        <ele>7.6</ele>
        <time>2024-11-10T10:58:21Z</time>
      </trkpt>
      <trkpt lat="42.29351" lon="3.28618">
        <ele>7.6</ele>
        <time>2024-11-10T10:58:22Z</time>
      </trkpt>
      <trkpt lat="42.29351" lon="3.28618">
        <ele>7.6</ele>
        <time>2024-11-10T10:58:23Z</time>
      </trkpt>
      <trkpt lat="42.29351" lon="3.28618">
        <ele>7.6</ele>
        <time>2024-11-10T10:58:24Z</time>
      </trkpt>
      <trkpt lat="42.29351" lon="3.28618">
        <ele>7.6</ele>
        <time>2024-11-10T10:58:25Z</time>
      </trkpt>
      <trkpt lat="42.29351" lon="3.28618">
        <ele>7.6</ele>
        <time>2024-11-10T10:58:26Z</time>
      </trkpt>
      <trkpt lat="42.29351" lon="3.28618">
        <ele>7.6</ele>
        <time>2024-11-10T10:58:27Z</time>
      </trkpt>
      <trkpt lat="42.29351" lon="3.28618">
        <ele>7.6</ele>
        <time>2024-11-10T10:58:28Z</time>
      </trkpt>
      <trkpt lat="42.29351" lon="3.28618">
        <ele>7.6</ele>
        <time>2024-11-10T10:58:29Z</time>
      </trkpt>
      <trkpt lat="42.29351" lon="3.28618">
        <ele>7.6</ele>
        <time>2024-11-10T10:58:30Z</time>
      </trkpt>
      <trkpt lat="42.29351" lon="3.28618">
        <ele>7.6</ele>
        <time>2024-11-10T10:58:31Z</time>
      </trkpt>
      <trkpt lat="42.29351" lon="3.28618">
        <ele>7.6</ele>
        <time>2024-11-10T10:58:32Z</time>
      </trkpt>
      <trkpt lat="42.29351" lon="3.28618">
        <ele>7.6</ele>
        <time>2024-11-10T10:58:33Z</time>
      </trkpt>
      <trkpt lat="42.29351" lon="3.28618">
        <ele>7.6</ele>
        <time>2024-11-10T10:58:34Z</time>
      </trkpt>
      <trkpt lat="42.29351" lon="3.28618">
        <ele>7.6</ele>
        <time>2024-11-10T10:58:35Z</time>
      </trkpt>
      <trkpt lat="42.29351" lon="3.28618">
        <ele>7.6</ele>
        <time>2024-11-10T10:58:36Z</time>
      </trkpt>
      <trkpt lat="42.29351" lon="3.28618">
        <ele>7.6</ele>
        <time>2024-11-10T10:58:37Z</time>
      </trkpt>
      <trkpt lat="42.29351" lon="3.28618">
        <ele>7.6</ele>
        <time>2024-11-10T10:58:38Z</time>
      </trkpt>
      <trkpt lat="42.29351" lon="3.28618">
        <ele>7.6</ele>
        <time>2024-11-10T10:58:39Z</time>
      </trkpt>
      <trkpt lat="42.29351" lon="3.28618">
        <ele>7.6</ele>
        <time>2024-11-10T10:58:40Z</time>
      </trkpt>
      <trkpt lat="42.29351" lon="3.28618">
        <ele>7.6</ele>
        <time>2024-11-10T10:58:41Z</time>
      </trkpt>
      <trkpt lat="42.29351" lon="3.28618">
        <ele>7.6</ele>
        <time>2024-11-10T10:58:42Z</time>
      </trkpt>
      <trkpt lat="42.29351" lon="3.28618">
        <ele>7.6</ele>
        <time>2024-11-10T10:58:43Z</time>
      </trkpt>
      <trkpt lat="42.29351" lon="3.28618">
        <ele>7.6</ele>
        <time>2024-11-10T10:58:44Z</time>
      </trkpt>
      <trkpt lat="42.29351" lon="3.28618">
        <ele>7.6</ele>
        <time>2024-11-10T10:58:45Z</time>
      </trkpt>
      <trkpt lat="42.29351" lon="3.28618">
        <ele>7.6</ele>
        <time>2024-11-10T10:58:46Z</time>
      </trkpt>
      <trkpt lat="42.29351" lon="3.28618">
        <ele>7.6</ele>
        <time>2024-11-10T10:58:47Z</time>
      </trkpt>
      <trkpt lat="42.2935" lon="3.28618">
        <ele>7.6</ele>
        <time>2024-11-10T10:58:48Z</time>
      </trkpt>
      <trkpt lat="42.29351" lon="3.28618">
        <ele>7.6</ele>
        <time>2024-11-10T10:58:49Z</time>
      </trkpt>
      <trkpt lat="42.29351" lon="3.28618">
        <ele>7.6</ele>
        <time>2024-11-10T10:58:50Z</time>
      </trkpt>
      <trkpt lat="42.29351" lon="3.28618">
        <ele>7.6</ele>
        <time>2024-11-10T10:58:51Z</time>
      </trkpt>
      <trkpt lat="42.29351" lon="3.28618">
        <ele>7.6</ele>
        <time>2024-11-10T10:58:52Z</time>
      </trkpt>
      <trkpt lat="42.29351" lon="3.28618">
        <ele>7.6</ele>
        <time>2024-11-10T10:58:53Z</time>
      </trkpt>
      <trkpt lat="42.29351" lon="3.28618">
        <ele>7.6</ele>
        <time>2024-11-10T10:58:54Z</time>
      </trkpt>
      <trkpt lat="42.29351" lon="3.28618">
        <ele>7.6</ele>
        <time>2024-11-10T10:58:55Z</time>
      </trkpt>
      <trkpt lat="42.29351" lon="3.28618">
        <ele>7.6</ele>
        <time>2024-11-10T10:58:56Z</time>
      </trkpt>
      <trkpt lat="42.29351" lon="3.28618">
        <ele>7.6</ele>
        <time>2024-11-10T10:58:57Z</time>
      </trkpt>
      <trkpt lat="42.29351" lon="3.28618">
        <ele>7.6</ele>
        <time>2024-11-10T10:58:58Z</time>
      </trkpt>
      <trkpt lat="42.29351" lon="3.28618">
        <ele>7.6</ele>
        <time>2024-11-10T10:58:59Z</time>
      </trkpt>
      <trkpt lat="42.29351" lon="3.28618">
        <ele>7.6</ele>
        <time>2024-11-10T10:59:00Z</time>
      </trkpt>
      <trkpt lat="42.29351" lon="3.28618">
        <ele>7.6</ele>
        <time>2024-11-10T10:59:01Z</time>
      </trkpt>
      <trkpt lat="42.29351" lon="3.28618">
        <ele>7.6</ele>
        <time>2024-11-10T10:59:02Z</time>
      </trkpt>
      <trkpt lat="42.29351" lon="3.28618">
        <ele>7.6</ele>
        <time>2024-11-10T10:59:03Z</time>
      </trkpt>
      <trkpt lat="42.29351" lon="3.28618">
        <ele>7.6</ele>
        <time>2024-11-10T10:59:04Z</time>
      </trkpt>
      <trkpt lat="42.29351" lon="3.28618">
        <ele>7.6</ele>
        <time>2024-11-10T10:59:05Z</time>
      </trkpt>
      <trkpt lat="42.29351" lon="3.28618">
        <ele>7.6</ele>
        <time>2024-11-10T10:59:06Z</time>
      </trkpt>
      <trkpt lat="42.29351" lon="3.28618">
        <ele>7.6</ele>
        <time>2024-11-10T10:59:07Z</time>
      </trkpt>
      <trkpt lat="42.29351" lon="3.28618">
        <ele>7.6</ele>
        <time>2024-11-10T10:59:08Z</time>
      </trkpt>
      <trkpt lat="42.29351" lon="3.28618">
        <ele>7.6</ele>
        <time>2024-11-10T10:59:09Z</time>
      </trkpt>
      <trkpt lat="42.29351" lon="3.28618">
        <ele>7.6</ele>
        <time>2024-11-10T10:59:10Z</time>
      </trkpt>
      <trkpt lat="42.29351" lon="3.28618">
        <ele>7.6</ele>
        <time>2024-11-10T10:59:11Z</time>
      </trkpt>
      <trkpt lat="42.29351" lon="3.28618">
        <ele>7.6</ele>
        <time>2024-11-10T10:59:12Z</time>
      </trkpt>
      <trkpt lat="42.29351" lon="3.28618">
        <ele>7.6</ele>
        <time>2024-11-10T10:59:13Z</time>
      </trkpt>
      <trkpt lat="42.29351" lon="3.28618">
        <ele>7.6</ele>
        <time>2024-11-10T10:59:14Z</time>
      </trkpt>
      <trkpt lat="42.29351" lon="3.28618">
        <ele>7.6</ele>
        <time>2024-11-10T10:59:15Z</time>
      </trkpt>
      <trkpt lat="42.29351" lon="3.28618">
        <ele>7.6</ele>
        <time>2024-11-10T10:59:16Z</time>
      </trkpt>
      <trkpt lat="42.29351" lon="3.28618">
        <ele>7.6</ele>
        <time>2024-11-10T10:59:17Z</time>
      </trkpt>
      <trkpt lat="42.29351" lon="3.28618">
        <ele>7.6</ele>
        <time>2024-11-10T10:59:18Z</time>
      </trkpt>
      <trkpt lat="42.29351" lon="3.28618">
        <ele>7.6</ele>
        <time>2024-11-10T10:59:19Z</time>
      </trkpt>
      <trkpt lat="42.29351" lon="3.28618">
        <ele>7.6</ele>
        <time>2024-11-10T10:59:20Z</time>
      </trkpt>
      <trkpt lat="42.29351" lon="3.28618">
        <ele>7.6</ele>
        <time>2024-11-10T10:59:21Z</time>
      </trkpt>
      <trkpt lat="42.29351" lon="3.28618">
        <ele>7.6</ele>
        <time>2024-11-10T10:59:22Z</time>
      </trkpt>
      <trkpt lat="42.29351" lon="3.28618">
        <ele>7.6</ele>
        <time>2024-11-10T10:59:23Z</time>
      </trkpt>
      <trkpt lat="42.29351" lon="3.28618">
        <ele>7.6</ele>
        <time>2024-11-10T10:59:24Z</time>
      </trkpt>
      <trkpt lat="42.29351" lon="3.28618">
        <ele>7.6</ele>
        <time>2024-11-10T10:59:25Z</time>
      </trkpt>
      <trkpt lat="42.29351" lon="3.28618">
        <ele>7.6</ele>
        <time>2024-11-10T10:59:26Z</time>
      </trkpt>
      <trkpt lat="42.29351" lon="3.28618">
        <ele>7.6</ele>
        <time>2024-11-10T10:59:27Z</time>
      </trkpt>
      <trkpt lat="42.29351" lon="3.28618">
        <ele>7.6</ele>
        <time>2024-11-10T10:59:28Z</time>
      </trkpt>
      <trkpt lat="42.29351" lon="3.28618">
        <ele>7.6</ele>
        <time>2024-11-10T10:59:29Z</time>
      </trkpt>
      <trkpt lat="42.29351" lon="3.28618">
        <ele>7.6</ele>
        <time>2024-11-10T10:59:30Z</time>
      </trkpt>
      <trkpt lat="42.29351" lon="3.28618">
        <ele>7.6</ele>
        <time>2024-11-10T10:59:31Z</time>
      </trkpt>
      <trkpt lat="42.29351" lon="3.28618">
        <ele>7.6</ele>
        <time>2024-11-10T10:59:32Z</time>
      </trkpt>
      <trkpt lat="42.29351" lon="3.28618">
        <ele>7.6</ele>
        <time>2024-11-10T10:59:33Z</time>
      </trkpt>
      <trkpt lat="42.29351" lon="3.28618">
        <ele>7.6</ele>
        <time>2024-11-10T10:59:34Z</time>
      </trkpt>
      <trkpt lat="42.29351" lon="3.28618">
        <ele>7.6</ele>
        <time>2024-11-10T10:59:35Z</time>
      </trkpt>
      <trkpt lat="42.29351" lon="3.28618">
        <ele>7.6</ele>
        <time>2024-11-10T10:59:36Z</time>
      </trkpt>
      <trkpt lat="42.29351" lon="3.28618">
        <ele>7.6</ele>
        <time>2024-11-10T10:59:37Z</time>
      </trkpt>
      <trkpt lat="42.29351" lon="3.28618">
        <ele>7.6</ele>
        <time>2024-11-10T10:59:38Z</time>
      </trkpt>
      <trkpt lat="42.29351" lon="3.28618">
        <ele>7.6</ele>
        <time>2024-11-10T10:59:39Z</time>
      </trkpt>
      <trkpt lat="42.29351" lon="3.28618">
        <ele>7.6</ele>
        <time>2024-11-10T10:59:40Z</time>
      </trkpt>
      <trkpt lat="42.29351" lon="3.28618">
        <ele>7.6</ele>
        <time>2024-11-10T10:59:41Z</time>
      </trkpt>
      <trkpt lat="42.29351" lon="3.28618">
        <ele>7.6</ele>
        <time>2024-11-10T10:59:42Z</time>
      </trkpt>
      <trkpt lat="42.29351" lon="3.28618">
        <ele>7.6</ele>
        <time>2024-11-10T10:59:43Z</time>
      </trkpt>
      <trkpt lat="42.29351" lon="3.28618">
        <ele>7.6</ele>
        <time>2024-11-10T10:59:44Z</time>
      </trkpt>
      <trkpt lat="42.29351" lon="3.28618">
        <ele>7.6</ele>
        <time>2024-11-10T10:59:45Z</time>
      </trkpt>
      <trkpt lat="42.29351" lon="3.28618">
        <ele>7.6</ele>
        <time>2024-11-10T10:59:46Z</time>
      </trkpt>
      <trkpt lat="42.29351" lon="3.28618">
        <ele>7.6</ele>
        <time>2024-11-10T10:59:47Z</time>
      </trkpt>
      <trkpt lat="42.29351" lon="3.28618">
        <ele>7.6</ele>
        <time>2024-11-10T10:59:48Z</time>
      </trkpt>
      <trkpt lat="42.29351" lon="3.28618">
        <ele>7.6</ele>
        <time>2024-11-10T10:59:49Z</time>
      </trkpt>
      <trkpt lat="42.29351" lon="3.28618">
        <ele>7.6</ele>
        <time>2024-11-10T10:59:50Z</time>
      </trkpt>
      <trkpt lat="42.29351" lon="3.28618">
        <ele>7.6</ele>
        <time>2024-11-10T10:59:51Z</time>
      </trkpt>
      <trkpt lat="42.29351" lon="3.28618">
        <ele>7.6</ele>
        <time>2024-11-10T10:59:52Z</time>
      </trkpt>
      <trkpt lat="42.29351" lon="3.28618">
        <ele>7.6</ele>
        <time>2024-11-10T10:59:53Z</time>
      </trkpt>
      <trkpt lat="42.29351" lon="3.28618">
        <ele>7.6</ele>
        <time>2024-11-10T10:59:54Z</time>
      </trkpt>
      <trkpt lat="42.29351" lon="3.28618">
        <ele>7.6</ele>
        <time>2024-11-10T10:59:55Z</time>
      </trkpt>
      <trkpt lat="42.29351" lon="3.28618">
        <ele>7.6</ele>
        <time>2024-11-10T10:59:56Z</time>
      </trkpt>
      <trkpt lat="42.29351" lon="3.28618">
        <ele>7.6</ele>
        <time>2024-11-10T10:59:57Z</time>
      </trkpt>
      <trkpt lat="42.29351" lon="3.28618">
        <ele>7.6</ele>
        <time>2024-11-10T10:59:58Z</time>
      </trkpt>
      <trkpt lat="42.29351" lon="3.28618">
        <ele>7.6</ele>
        <time>2024-11-10T10:59:59Z</time>
      </trkpt>
      <trkpt lat="42.29351" lon="3.28618">
        <ele>7.6</ele>
        <time>2024-11-10T11:00:00Z</time>
      </trkpt>
      <trkpt lat="42.29351" lon="3.28618">
        <ele>7.6</ele>
        <time>2024-11-10T11:00:01Z</time>
      </trkpt>
      <trkpt lat="42.29351" lon="3.28618">
        <ele>7.6</ele>
        <time>2024-11-10T11:00:02Z</time>
      </trkpt>
      <trkpt lat="42.29351" lon="3.28618">
        <ele>7.6</ele>
        <time>2024-11-10T11:00:03Z</time>
      </trkpt>
      <trkpt lat="42.29351" lon="3.28618">
        <ele>7.6</ele>
        <time>2024-11-10T11:00:04Z</time>
      </trkpt>
      <trkpt lat="42.29351" lon="3.28618">
        <ele>7.6</ele>
        <time>2024-11-10T11:00:05Z</time>
      </trkpt>
      <trkpt lat="42.29351" lon="3.28618">
        <ele>7.6</ele>
        <time>2024-11-10T11:00:06Z</time>
      </trkpt>
      <trkpt lat="42.29351" lon="3.28618">
        <ele>7.6</ele>
        <time>2024-11-10T11:00:07Z</time>
      </trkpt>
      <trkpt lat="42.29351" lon="3.28618">
        <ele>7.6</ele>
        <time>2024-11-10T11:00:08Z</time>
      </trkpt>
      <trkpt lat="42.29351" lon="3.28618">
        <ele>7.6</ele>
        <time>2024-11-10T11:00:09Z</time>
      </trkpt>
      <trkpt lat="42.29351" lon="3.28618">
        <ele>7.6</ele>
        <time>2024-11-10T11:00:10Z</time>
      </trkpt>
      <trkpt lat="42.29351" lon="3.28618">
        <ele>7.6</ele>
        <time>2024-11-10T11:00:11Z</time>
      </trkpt>
      <trkpt lat="42.29351" lon="3.28618">
        <ele>7.6</ele>
        <time>2024-11-10T11:00:12Z</time>
      </trkpt>
      <trkpt lat="42.29351" lon="3.28618">
        <ele>7.6</ele>
        <time>2024-11-10T11:00:13Z</time>
      </trkpt>
      <trkpt lat="42.29351" lon="3.28618">
        <ele>7.6</ele>
        <time>2024-11-10T11:00:14Z</time>
      </trkpt>
      <trkpt lat="42.29351" lon="3.28618">
        <ele>7.6</ele>
        <time>2024-11-10T11:00:15Z</time>
      </trkpt>
      <trkpt lat="42.29351" lon="3.28618">
        <ele>7.6</ele>
        <time>2024-11-10T11:00:16Z</time>
      </trkpt>
      <trkpt lat="42.29351" lon="3.28618">
        <ele>7.6</ele>
        <time>2024-11-10T11:00:17Z</time>
      </trkpt>
      <trkpt lat="42.29351" lon="3.28618">
        <ele>7.6</ele>
        <time>2024-11-10T11:00:18Z</time>
      </trkpt>
      <trkpt lat="42.29351" lon="3.28618">
        <ele>7.6</ele>
        <time>2024-11-10T11:00:19Z</time>
      </trkpt>
      <trkpt lat="42.29351" lon="3.28618">
        <ele>7.6</ele>
        <time>2024-11-10T11:00:20Z</time>
      </trkpt>
      <trkpt lat="42.29351" lon="3.28618">
        <ele>7.6</ele>
        <time>2024-11-10T11:00:21Z</time>
      </trkpt>
      <trkpt lat="42.29351" lon="3.28618">
        <ele>7.6</ele>
        <time>2024-11-10T11:00:22Z</time>
      </trkpt>
      <trkpt lat="42.29351" lon="3.28618">
        <ele>7.6</ele>
        <time>2024-11-10T11:00:23Z</time>
      </trkpt>
      <trkpt lat="42.29351" lon="3.28618">
        <ele>7.6</ele>
        <time>2024-11-10T11:00:24Z</time>
      </trkpt>
      <trkpt lat="42.29351" lon="3.28618">
        <ele>7.6</ele>
        <time>2024-11-10T11:00:25Z</time>
      </trkpt>
      <trkpt lat="42.29351" lon="3.28618">
        <ele>7.6</ele>
        <time>2024-11-10T11:00:26Z</time>
      </trkpt>
      <trkpt lat="42.29351" lon="3.28618">
        <ele>7.6</ele>
        <time>2024-11-10T11:00:27Z</time>
      </trkpt>
      <trkpt lat="42.29351" lon="3.28618">
        <ele>7.6</ele>
        <time>2024-11-10T11:00:28Z</time>
      </trkpt>
      <trkpt lat="42.29351" lon="3.28618">
        <ele>7.6</ele>
        <time>2024-11-10T11:00:29Z</time>
      </trkpt>
      <trkpt lat="42.29351" lon="3.28618">
        <ele>7.6</ele>
        <time>2024-11-10T11:00:30Z</time>
      </trkpt>
      <trkpt lat="42.29351" lon="3.28618">
        <ele>7.6</ele>
        <time>2024-11-10T11:00:31Z</time>
      </trkpt>
      <trkpt lat="42.29351" lon="3.28618">
        <ele>7.6</ele>
        <time>2024-11-10T11:00:32Z</time>
      </trkpt>
      <trkpt lat="42.29351" lon="3.28618">
        <ele>7.6</ele>
        <time>2024-11-10T11:00:33Z</time>
      </trkpt>
      <trkpt lat="42.29351" lon="3.28618">
        <ele>7.6</ele>
        <time>2024-11-10T11:00:34Z</time>
      </trkpt>
      <trkpt lat="42.29351" lon="3.28618">
        <ele>7.6</ele>
        <time>2024-11-10T11:00:35Z</time>
      </trkpt>
      <trkpt lat="42.29351" lon="3.28618">
        <ele>7.6</ele>
        <time>2024-11-10T11:00:36Z</time>
      </trkpt>
      <trkpt lat="42.29351" lon="3.28618">
        <ele>7.6</ele>
        <time>2024-11-10T11:00:37Z</time>
      </trkpt>
      <trkpt lat="42.29351" lon="3.28618">
        <ele>7.6</ele>
        <time>2024-11-10T11:00:38Z</time>
      </trkpt>
      <trkpt lat="42.29351" lon="3.28618">
        <ele>7.6</ele>
        <time>2024-11-10T11:00:39Z</time>
      </trkpt>
      <trkpt lat="42.29351" lon="3.28618">
        <ele>7.6</ele>
        <time>2024-11-10T11:00:40Z</time>
      </trkpt>
      <trkpt lat="42.29351" lon="3.28618">
        <ele>7.6</ele>
        <time>2024-11-10T11:00:41Z</time>
      </trkpt>
      <trkpt lat="42.29351" lon="3.28618">
        <ele>7.6</ele>
        <time>2024-11-10T11:00:42Z</time>
      </trkpt>
      <trkpt lat="42.29351" lon="3.28618">
        <ele>7.6</ele>
        <time>2024-11-10T11:00:43Z</time>
      </trkpt>
      <trkpt lat="42.29351" lon="3.28618">
        <ele>7.6</ele>
        <time>2024-11-10T11:00:44Z</time>
      </trkpt>
      <trkpt lat="42.29351" lon="3.28618">
        <ele>7.6</ele>
        <time>2024-11-10T11:00:45Z</time>
      </trkpt>
      <trkpt lat="42.29351" lon="3.28618">
        <ele>7.6</ele>
        <time>2024-11-10T11:00:46Z</time>
      </trkpt>
      <trkpt lat="42.29351" lon="3.28618">
        <ele>7.6</ele>
        <time>2024-11-10T11:00:47Z</time>
      </trkpt>
      <trkpt lat="42.29351" lon="3.28618">
        <ele>7.6</ele>
        <time>2024-11-10T11:00:48Z</time>
      </trkpt>
      <trkpt lat="42.29351" lon="3.28618">
        <ele>7.6</ele>
        <time>2024-11-10T11:00:49Z</time>
      </trkpt>
      <trkpt lat="42.29351" lon="3.28618">
        <ele>7.6</ele>
        <time>2024-11-10T11:00:50Z</time>
      </trkpt>
      <trkpt lat="42.29351" lon="3.28618">
        <ele>7.6</ele>
        <time>2024-11-10T11:00:51Z</time>
      </trkpt>
      <trkpt lat="42.29351" lon="3.28618">
        <ele>7.6</ele>
        <time>2024-11-10T11:00:52Z</time>
      </trkpt>
      <trkpt lat="42.29351" lon="3.28618">
        <ele>7.6</ele>
        <time>2024-11-10T11:00:53Z</time>
      </trkpt>
      <trkpt lat="42.29351" lon="3.28618">
        <ele>7.6</ele>
        <time>2024-11-10T11:00:54Z</time>
      </trkpt>
      <trkpt lat="42.29351" lon="3.28618">
        <ele>7.6</ele>
        <time>2024-11-10T11:00:55Z</time>
      </trkpt>
      <trkpt lat="42.29351" lon="3.28618">
        <ele>7.6</ele>
        <time>2024-11-10T11:00:56Z</time>
      </trkpt>
      <trkpt lat="42.29351" lon="3.28618">
        <ele>7.6</ele>
        <time>2024-11-10T11:00:57Z</time>
      </trkpt>
      <trkpt lat="42.29351" lon="3.28618">
        <ele>7.6</ele>
        <time>2024-11-10T11:00:58Z</time>
      </trkpt>
      <trkpt lat="42.29351" lon="3.28618">
        <ele>7.6</ele>
        <time>2024-11-10T11:00:59Z</time>
      </trkpt>
      <trkpt lat="42.29351" lon="3.28618">
        <ele>7.6</ele>
        <time>2024-11-10T11:01:00Z</time>
      </trkpt>
      <trkpt lat="42.29351" lon="3.28618">
        <ele>7.6</ele>
        <time>2024-11-10T11:01:01Z</time>
      </trkpt>
      <trkpt lat="42.29351" lon="3.28618">
        <ele>7.6</ele>
        <time>2024-11-10T11:01:02Z</time>
      </trkpt>
      <trkpt lat="42.29351" lon="3.28618">
        <ele>7.6</ele>
        <time>2024-11-10T11:01:03Z</time>
      </trkpt>
      <trkpt lat="42.29351" lon="3.28618">
        <ele>7.6</ele>
        <time>2024-11-10T11:01:04Z</time>
      </trkpt>
      <trkpt lat="42.29351" lon="3.28618">
        <ele>7.6</ele>
        <time>2024-11-10T11:01:05Z</time>
      </trkpt>
      <trkpt lat="42.29351" lon="3.28618">
        <ele>7.6</ele>
        <time>2024-11-10T11:01:06Z</time>
      </trkpt>
      <trkpt lat="42.29351" lon="3.28618">
        <ele>7.6</ele>
        <time>2024-11-10T11:01:07Z</time>
      </trkpt>
      <trkpt lat="42.29351" lon="3.28618">
        <ele>7.6</ele>
        <time>2024-11-10T11:01:08Z</time>
      </trkpt>
      <trkpt lat="42.29351" lon="3.28618">
        <ele>7.6</ele>
        <time>2024-11-10T11:01:09Z</time>
      </trkpt>
      <trkpt lat="42.29351" lon="3.28618">
        <ele>7.6</ele>
        <time>2024-11-10T11:01:10Z</time>
      </trkpt>
      <trkpt lat="42.29351" lon="3.28618">
        <ele>7.6</ele>
        <time>2024-11-10T11:01:11Z</time>
      </trkpt>
      <trkpt lat="42.29351" lon="3.28618">
        <ele>7.6</ele>
        <time>2024-11-10T11:01:12Z</time>
      </trkpt>
      <trkpt lat="42.29351" lon="3.28618">
        <ele>7.6</ele>
        <time>2024-11-10T11:01:13Z</time>
      </trkpt>
      <trkpt lat="42.29351" lon="3.28618">
        <ele>7.6</ele>
        <time>2024-11-10T11:01:14Z</time>
      </trkpt>
      <trkpt lat="42.29351" lon="3.28618">
        <ele>7.6</ele>
        <time>2024-11-10T11:01:15Z</time>
      </trkpt>
      <trkpt lat="42.29351" lon="3.28618">
        <ele>7.6</ele>
        <time>2024-11-10T11:01:16Z</time>
      </trkpt>
      <trkpt lat="42.29351" lon="3.28618">
        <ele>7.6</ele>
        <time>2024-11-10T11:01:17Z</time>
      </trkpt>
      <trkpt lat="42.29351" lon="3.28618">
        <ele>7.6</ele>
        <time>2024-11-10T11:01:18Z</time>
      </trkpt>
      <trkpt lat="42.29351" lon="3.28618">
        <ele>7.6</ele>
        <time>2024-11-10T11:01:19Z</time>
      </trkpt>
      <trkpt lat="42.29351" lon="3.28618">
        <ele>7.6</ele>
        <time>2024-11-10T11:01:20Z</time>
      </trkpt>
      <trkpt lat="42.29351" lon="3.28618">
        <ele>7.6</ele>
        <time>2024-11-10T11:01:21Z</time>
      </trkpt>
      <trkpt lat="42.29351" lon="3.28618">
        <ele>7.6</ele>
        <time>2024-11-10T11:01:22Z</time>
      </trkpt>
      <trkpt lat="42.29351" lon="3.28618">
        <ele>7.6</ele>
        <time>2024-11-10T11:01:23Z</time>
      </trkpt>
      <trkpt lat="42.29351" lon="3.28618">
        <ele>7.6</ele>
        <time>2024-11-10T11:01:24Z</time>
      </trkpt>
      <trkpt lat="42.29351" lon="3.28618">
        <ele>7.6</ele>
        <time>2024-11-10T11:01:25Z</time>
      </trkpt>
      <trkpt lat="42.29351" lon="3.28618">
        <ele>7.6</ele>
        <time>2024-11-10T11:01:26Z</time>
      </trkpt>
      <trkpt lat="42.29351" lon="3.28618">
        <ele>7.6</ele>
        <time>2024-11-10T11:01:27Z</time>
      </trkpt>
      <trkpt lat="42.29351" lon="3.28618">
        <ele>7.6</ele>
        <time>2024-11-10T11:01:28Z</time>
      </trkpt>
      <trkpt lat="42.29351" lon="3.28618">
        <ele>7.6</ele>
        <time>2024-11-10T11:01:29Z</time>
      </trkpt>
      <trkpt lat="42.29351" lon="3.28618">
        <ele>7.6</ele>
        <time>2024-11-10T11:01:30Z</time>
      </trkpt>
      <trkpt lat="42.29351" lon="3.28618">
        <ele>7.6</ele>
        <time>2024-11-10T11:01:32Z</time>
      </trkpt>
      <trkpt lat="42.29351" lon="3.28618">
        <ele>7.6</ele>
        <time>2024-11-10T11:01:33Z</time>
      </trkpt>
      <trkpt lat="42.29351" lon="3.28618">
        <ele>7.6</ele>
        <time>2024-11-10T11:01:34Z</time>
      </trkpt>
      <trkpt lat="42.29351" lon="3.28618">
        <ele>7.6</ele>
        <time>2024-11-10T11:01:35Z</time>
      </trkpt>
      <trkpt lat="42.29351" lon="3.28618">
        <ele>7.6</ele>
        <time>2024-11-10T11:01:36Z</time>
      </trkpt>
      <trkpt lat="42.29351" lon="3.28618">
        <ele>7.6</ele>
        <time>2024-11-10T11:01:37Z</time>
      </trkpt>
      <trkpt lat="42.29351" lon="3.28618">
        <ele>7.6</ele>
        <time>2024-11-10T11:01:38Z</time>
      </trkpt>
      <trkpt lat="42.29351" lon="3.28618">
        <ele>7.6</ele>
        <time>2024-11-10T11:01:39Z</time>
      </trkpt>
      <trkpt lat="42.29351" lon="3.28618">
        <ele>7.6</ele>
        <time>2024-11-10T11:01:40Z</time>
      </trkpt>
      <trkpt lat="42.29351" lon="3.28618">
        <ele>7.6</ele>
        <time>2024-11-10T11:01:41Z</time>
      </trkpt>
      <trkpt lat="42.29351" lon="3.28618">
        <ele>7.6</ele>
        <time>2024-11-10T11:01:42Z</time>
      </trkpt>
      <trkpt lat="42.29351" lon="3.28618">
        <ele>7.6</ele>
        <time>2024-11-10T11:01:43Z</time>
      </trkpt>
      <trkpt lat="42.29351" lon="3.28618">
        <ele>7.6</ele>
        <time>2024-11-10T11:01:44Z</time>
      </trkpt>
      <trkpt lat="42.29351" lon="3.28618">
        <ele>7.6</ele>
        <time>2024-11-10T11:01:45Z</time>
      </trkpt>
      <trkpt lat="42.29351" lon="3.28618">
        <ele>7.6</ele>
        <time>2024-11-10T11:01:46Z</time>
      </trkpt>
      <trkpt lat="42.29351" lon="3.28618">
        <ele>7.6</ele>
        <time>2024-11-10T11:01:47Z</time>
      </trkpt>
      <trkpt lat="42.29351" lon="3.28618">
        <ele>7.6</ele>
        <time>2024-11-10T11:01:48Z</time>
      </trkpt>
      <trkpt lat="42.29351" lon="3.28618">
        <ele>7.6</ele>
        <time>2024-11-10T11:01:49Z</time>
      </trkpt>
      <trkpt lat="42.29351" lon="3.28618">
        <ele>7.6</ele>
        <time>2024-11-10T11:01:50Z</time>
      </trkpt>
      <trkpt lat="42.29351" lon="3.28618">
        <ele>7.6</ele>
        <time>2024-11-10T11:01:51Z</time>
      </trkpt>
      <trkpt lat="42.29351" lon="3.28618">
        <ele>7.6</ele>
        <time>2024-11-10T11:01:52Z</time>
      </trkpt>
      <trkpt lat="42.29351" lon="3.28618">
        <ele>7.6</ele>
        <time>2024-11-10T11:01:53Z</time>
      </trkpt>
      <trkpt lat="42.29351" lon="3.28618">
        <ele>7.6</ele>
        <time>2024-11-10T11:01:54Z</time>
      </trkpt>
      <trkpt lat="42.29351" lon="3.28618">
        <ele>7.6</ele>
        <time>2024-11-10T11:01:55Z</time>
      </trkpt>
      <trkpt lat="42.29351" lon="3.28618">
        <ele>7.6</ele>
        <time>2024-11-10T11:01:56Z</time>
      </trkpt>
      <trkpt lat="42.29351" lon="3.28618">
        <ele>7.6</ele>
        <time>2024-11-10T11:01:57Z</time>
      </trkpt>
      <trkpt lat="42.29351" lon="3.28618">
        <ele>7.6</ele>
        <time>2024-11-10T11:01:58Z</time>
      </trkpt>
      <trkpt lat="42.29351" lon="3.28618">
        <ele>7.5</ele>
        <time>2024-11-10T11:01:59Z</time>
      </trkpt>
      <trkpt lat="42.29351" lon="3.28618">
        <ele>7.5</ele>
        <time>2024-11-10T11:02:00Z</time>
      </trkpt>
      <trkpt lat="42.29351" lon="3.28618">
        <ele>7.5</ele>
        <time>2024-11-10T11:02:01Z</time>
      </trkpt>
      <trkpt lat="42.29351" lon="3.28618">
        <ele>7.5</ele>
        <time>2024-11-10T11:02:02Z</time>
      </trkpt>
      <trkpt lat="42.29351" lon="3.28618">
        <ele>7.5</ele>
        <time>2024-11-10T11:02:03Z</time>
      </trkpt>
      <trkpt lat="42.29351" lon="3.28618">
        <ele>7.5</ele>
        <time>2024-11-10T11:02:04Z</time>
      </trkpt>
      <trkpt lat="42.29351" lon="3.28618">
        <ele>7.5</ele>
        <time>2024-11-10T11:02:05Z</time>
      </trkpt>
      <trkpt lat="42.29351" lon="3.28618">
        <ele>7.5</ele>
        <time>2024-11-10T11:02:06Z</time>
      </trkpt>
      <trkpt lat="42.29351" lon="3.28618">
        <ele>7.5</ele>
        <time>2024-11-10T11:02:07Z</time>
      </trkpt>
      <trkpt lat="42.29351" lon="3.28618">
        <ele>7.5</ele>
        <time>2024-11-10T11:02:08Z</time>
      </trkpt>
      <trkpt lat="42.29351" lon="3.28618">
        <ele>7.5</ele>
        <time>2024-11-10T11:02:09Z</time>
      </trkpt>
      <trkpt lat="42.29351" lon="3.28618">
        <ele>7.5</ele>
        <time>2024-11-10T11:02:10Z</time>
      </trkpt>
      <trkpt lat="42.29351" lon="3.28618">
        <ele>7.5</ele>
        <time>2024-11-10T11:02:11Z</time>
      </trkpt>
      <trkpt lat="42.29351" lon="3.28618">
        <ele>7.5</ele>
        <time>2024-11-10T11:02:12Z</time>
      </trkpt>
      <trkpt lat="42.29351" lon="3.28618">
        <ele>7.5</ele>
        <time>2024-11-10T11:02:13Z</time>
      </trkpt>
      <trkpt lat="42.29351" lon="3.28618">
        <ele>7.5</ele>
        <time>2024-11-10T11:02:14Z</time>
      </trkpt>
      <trkpt lat="42.29351" lon="3.28618">
        <ele>7.5</ele>
        <time>2024-11-10T11:02:15Z</time>
      </trkpt>
      <trkpt lat="42.29351" lon="3.28618">
        <ele>7.5</ele>
        <time>2024-11-10T11:02:16Z</time>
      </trkpt>
      <trkpt lat="42.29351" lon="3.28618">
        <ele>7.5</ele>
        <time>2024-11-10T11:02:17Z</time>
      </trkpt>
      <trkpt lat="42.29351" lon="3.28618">
        <ele>7.5</ele>
        <time>2024-11-10T11:02:18Z</time>
      </trkpt>
      <trkpt lat="42.29351" lon="3.28618">
        <ele>7.5</ele>
        <time>2024-11-10T11:02:19Z</time>
      </trkpt>
      <trkpt lat="42.29351" lon="3.28618">
        <ele>7.5</ele>
        <time>2024-11-10T11:02:20Z</time>
      </trkpt>
      <trkpt lat="42.29351" lon="3.28618">
        <ele>7.5</ele>
        <time>2024-11-10T11:02:21Z</time>
      </trkpt>
      <trkpt lat="42.29351" lon="3.28618">
        <ele>7.5</ele>
        <time>2024-11-10T11:02:22Z</time>
      </trkpt>
      <trkpt lat="42.29351" lon="3.28618">
        <ele>7.5</ele>
        <time>2024-11-10T11:02:23Z</time>
      </trkpt>
      <trkpt lat="42.29351" lon="3.28618">
        <ele>7.5</ele>
        <time>2024-11-10T11:02:24Z</time>
      </trkpt>
      <trkpt lat="42.29351" lon="3.28618">
        <ele>7.5</ele>
        <time>2024-11-10T11:02:25Z</time>
      </trkpt>
      <trkpt lat="42.29351" lon="3.28618">
        <ele>7.5</ele>
        <time>2024-11-10T11:02:26Z</time>
      </trkpt>
      <trkpt lat="42.29351" lon="3.28618">
        <ele>7.5</ele>
        <time>2024-11-10T11:02:27Z</time>
      </trkpt>
      <trkpt lat="42.29351" lon="3.28618">
        <ele>7.5</ele>
        <time>2024-11-10T11:02:28Z</time>
      </trkpt>
      <trkpt lat="42.29351" lon="3.28618">
        <ele>7.5</ele>
        <time>2024-11-10T11:02:29Z</time>
      </trkpt>
      <trkpt lat="42.29351" lon="3.28618">
        <ele>7.5</ele>
        <time>2024-11-10T11:02:30Z</time>
      </trkpt>
      <trkpt lat="42.29351" lon="3.28618">
        <ele>7.5</ele>
        <time>2024-11-10T11:02:31Z</time>
      </trkpt>
      <trkpt lat="42.29351" lon="3.28618">
        <ele>7.5</ele>
        <time>2024-11-10T11:02:32Z</time>
      </trkpt>
      <trkpt lat="42.29351" lon="3.28618">
        <ele>7.5</ele>
        <time>2024-11-10T11:02:33Z</time>
      </trkpt>
      <trkpt lat="42.29351" lon="3.28618">
        <ele>7.5</ele>
        <time>2024-11-10T11:02:34Z</time>
      </trkpt>
      <trkpt lat="42.29351" lon="3.28618">
        <ele>7.5</ele>
        <time>2024-11-10T11:02:35Z</time>
      </trkpt>
      <trkpt lat="42.29351" lon="3.28618">
        <ele>7.5</ele>
        <time>2024-11-10T11:02:36Z</time>
      </trkpt>
      <trkpt lat="42.29351" lon="3.28618">
        <ele>7.5</ele>
        <time>2024-11-10T11:02:37Z</time>
      </trkpt>
      <trkpt lat="42.29351" lon="3.28618">
        <ele>7.5</ele>
        <time>2024-11-10T11:02:38Z</time>
      </trkpt>
      <trkpt lat="42.29351" lon="3.28618">
        <ele>7.5</ele>
        <time>2024-11-10T11:02:39Z</time>
      </trkpt>
      <trkpt lat="42.29351" lon="3.28618">
        <ele>7.5</ele>
        <time>2024-11-10T11:02:40Z</time>
      </trkpt>
      <trkpt lat="42.29351" lon="3.28618">
        <ele>7.5</ele>
        <time>2024-11-10T11:02:41Z</time>
      </trkpt>
      <trkpt lat="42.29351" lon="3.28618">
        <ele>7.5</ele>
        <time>2024-11-10T11:02:42Z</time>
      </trkpt>
      <trkpt lat="42.29351" lon="3.28618">
        <ele>7.5</ele>
        <time>2024-11-10T11:02:43Z</time>
      </trkpt>
      <trkpt lat="42.29351" lon="3.28618">
        <ele>7.5</ele>
        <time>2024-11-10T11:02:44Z</time>
      </trkpt>
      <trkpt lat="42.29351" lon="3.28618">
        <ele>7.5</ele>
        <time>2024-11-10T11:02:45Z</time>
      </trkpt>
      <trkpt lat="42.29351" lon="3.28618">
        <ele>7.5</ele>
        <time>2024-11-10T11:02:46Z</time>
      </trkpt>
      <trkpt lat="42.29351" lon="3.28618">
        <ele>7.5</ele>
        <time>2024-11-10T11:02:47Z</time>
      </trkpt>
      <trkpt lat="42.29351" lon="3.28618">
        <ele>7.5</ele>
        <time>2024-11-10T11:02:48Z</time>
      </trkpt>
      <trkpt lat="42.29351" lon="3.28618">
        <ele>7.5</ele>
        <time>2024-11-10T11:02:49Z</time>
      </trkpt>
      <trkpt lat="42.29351" lon="3.28618">
        <ele>7.5</ele>
        <time>2024-11-10T11:02:50Z</time>
      </trkpt>
      <trkpt lat="42.29351" lon="3.28618">
        <ele>7.5</ele>
        <time>2024-11-10T11:02:51Z</time>
      </trkpt>
      <trkpt lat="42.29351" lon="3.28618">
        <ele>7.5</ele>
        <time>2024-11-10T11:02:52Z</time>
      </trkpt>
      <trkpt lat="42.29351" lon="3.28618">
        <ele>7.5</ele>
        <time>2024-11-10T11:02:53Z</time>
      </trkpt>
      <trkpt lat="42.29351" lon="3.28618">
        <ele>7.5</ele>
        <time>2024-11-10T11:02:54Z</time>
      </trkpt>
      <trkpt lat="42.29351" lon="3.28618">
        <ele>7.5</ele>
        <time>2024-11-10T11:02:55Z</time>
      </trkpt>
      <trkpt lat="42.29351" lon="3.28618">
        <ele>7.5</ele>
        <time>2024-11-10T11:02:56Z</time>
      </trkpt>
      <trkpt lat="42.29351" lon="3.28618">
        <ele>7.5</ele>
        <time>2024-11-10T11:02:57Z</time>
      </trkpt>
      <trkpt lat="42.29351" lon="3.28618">
        <ele>7.5</ele>
        <time>2024-11-10T11:02:58Z</time>
      </trkpt>
      <trkpt lat="42.29351" lon="3.28618">
        <ele>7.5</ele>
        <time>2024-11-10T11:02:59Z</time>
      </trkpt>
      <trkpt lat="42.29351" lon="3.28618">
        <ele>7.5</ele>
        <time>2024-11-10T11:03:00Z</time>
      </trkpt>
      <trkpt lat="42.29351" lon="3.28618">
        <ele>7.5</ele>
        <time>2024-11-10T11:03:01Z</time>
      </trkpt>
      <trkpt lat="42.29351" lon="3.28618">
        <ele>7.5</ele>
        <time>2024-11-10T11:03:02Z</time>
      </trkpt>
      <trkpt lat="42.29351" lon="3.28618">
        <ele>7.5</ele>
        <time>2024-11-10T11:03:03Z</time>
      </trkpt>
      <trkpt lat="42.29351" lon="3.28618">
        <ele>7.5</ele>
        <time>2024-11-10T11:03:04Z</time>
      </trkpt>
      <trkpt lat="42.29351" lon="3.28618">
        <ele>7.5</ele>
        <time>2024-11-10T11:03:05Z</time>
      </trkpt>
      <trkpt lat="42.29351" lon="3.28618">
        <ele>7.5</ele>
        <time>2024-11-10T11:03:06Z</time>
      </trkpt>
      <trkpt lat="42.29351" lon="3.28618">
        <ele>7.5</ele>
        <time>2024-11-10T11:03:07Z</time>
      </trkpt>
      <trkpt lat="42.29351" lon="3.28618">
        <ele>7.5</ele>
        <time>2024-11-10T11:03:08Z</time>
      </trkpt>
      <trkpt lat="42.29351" lon="3.28618">
        <ele>7.5</ele>
        <time>2024-11-10T11:03:09Z</time>
      </trkpt>
      <trkpt lat="42.29351" lon="3.28618">
        <ele>7.5</ele>
        <time>2024-11-10T11:03:10Z</time>
      </trkpt>
      <trkpt lat="42.29351" lon="3.28618">
        <ele>7.5</ele>
        <time>2024-11-10T11:03:11Z</time>
      </trkpt>
      <trkpt lat="42.29351" lon="3.28618">
        <ele>7.5</ele>
        <time>2024-11-10T11:03:12Z</time>
      </trkpt>
      <trkpt lat="42.29351" lon="3.28618">
        <ele>7.5</ele>
        <time>2024-11-10T11:03:13Z</time>
      </trkpt>
      <trkpt lat="42.29351" lon="3.28618">
        <ele>7.5</ele>
        <time>2024-11-10T11:03:14Z</time>
      </trkpt>
      <trkpt lat="42.29351" lon="3.28618">
        <ele>7.5</ele>
        <time>2024-11-10T11:03:15Z</time>
      </trkpt>
      <trkpt lat="42.29351" lon="3.28618">
        <ele>7.5</ele>
        <time>2024-11-10T11:03:16Z</time>
      </trkpt>
      <trkpt lat="42.29351" lon="3.28618">
        <ele>7.5</ele>
        <time>2024-11-10T11:03:17Z</time>
      </trkpt>
      <trkpt lat="42.29351" lon="3.28618">
        <ele>7.5</ele>
        <time>2024-11-10T11:03:18Z</time>
      </trkpt>
      <trkpt lat="42.29351" lon="3.28618">
        <ele>7.5</ele>
        <time>2024-11-10T11:03:19Z</time>
      </trkpt>
      <trkpt lat="42.29351" lon="3.28618">
        <ele>7.5</ele>
        <time>2024-11-10T11:03:20Z</time>
      </trkpt>
      <trkpt lat="42.29351" lon="3.28618">
        <ele>7.5</ele>
        <time>2024-11-10T11:03:21Z</time>
      </trkpt>
      <trkpt lat="42.29351" lon="3.28618">
        <ele>7.5</ele>
        <time>2024-11-10T11:03:22Z</time>
      </trkpt>
      <trkpt lat="42.29351" lon="3.28618">
        <ele>7.5</ele>
        <time>2024-11-10T11:03:23Z</time>
      </trkpt>
      <trkpt lat="42.29351" lon="3.28618">
        <ele>7.5</ele>
        <time>2024-11-10T11:03:24Z</time>
      </trkpt>
      <trkpt lat="42.29351" lon="3.28618">
        <ele>7.5</ele>
        <time>2024-11-10T11:03:25Z</time>
      </trkpt>
      <trkpt lat="42.29351" lon="3.28618">
        <ele>7.5</ele>
        <time>2024-11-10T11:03:26Z</time>
      </trkpt>
      <trkpt lat="42.29351" lon="3.28618">
        <ele>7.5</ele>
        <time>2024-11-10T11:03:27Z</time>
      </trkpt>
      <trkpt lat="42.29351" lon="3.28618">
        <ele>7.5</ele>
        <time>2024-11-10T11:03:28Z</time>
      </trkpt>
      <trkpt lat="42.29351" lon="3.28618">
        <ele>7.5</ele>
        <time>2024-11-10T11:03:29Z</time>
      </trkpt>
      <trkpt lat="42.29351" lon="3.28618">
        <ele>7.5</ele>
        <time>2024-11-10T11:03:30Z</time>
      </trkpt>
      <trkpt lat="42.29351" lon="3.28618">
        <ele>7.5</ele>
        <time>2024-11-10T11:03:31Z</time>
      </trkpt>
      <trkpt lat="42.29351" lon="3.28618">
        <ele>7.5</ele>
        <time>2024-11-10T11:03:32Z</time>
      </trkpt>
      <trkpt lat="42.29351" lon="3.28618">
        <ele>7.5</ele>
        <time>2024-11-10T11:03:33Z</time>
      </trkpt>
      <trkpt lat="42.29351" lon="3.28618">
        <ele>7.5</ele>
        <time>2024-11-10T11:03:34Z</time>
      </trkpt>
      <trkpt lat="42.29351" lon="3.28618">
        <ele>7.5</ele>
        <time>2024-11-10T11:03:35Z</time>
      </trkpt>
      <trkpt lat="42.29351" lon="3.28618">
        <ele>7.5</ele>
        <time>2024-11-10T11:03:36Z</time>
      </trkpt>
      <trkpt lat="42.29351" lon="3.28618">
        <ele>7.5</ele>
        <time>2024-11-10T11:03:37Z</time>
      </trkpt>
      <trkpt lat="42.29351" lon="3.28618">
        <ele>7.5</ele>
        <time>2024-11-10T11:03:38Z</time>
      </trkpt>
      <trkpt lat="42.29351" lon="3.28618">
        <ele>7.5</ele>
        <time>2024-11-10T11:03:39Z</time>
      </trkpt>
      <trkpt lat="42.29351" lon="3.28618">
        <ele>7.5</ele>
        <time>2024-11-10T11:03:40Z</time>
      </trkpt>
      <trkpt lat="42.29351" lon="3.28618">
        <ele>7.5</ele>
        <time>2024-11-10T11:03:41Z</time>
      </trkpt>
      <trkpt lat="42.29351" lon="3.28618">
        <ele>7.5</ele>
        <time>2024-11-10T11:03:42Z</time>
      </trkpt>
      <trkpt lat="42.29351" lon="3.28618">
        <ele>7.5</ele>
        <time>2024-11-10T11:03:43Z</time>
      </trkpt>
      <trkpt lat="42.29351" lon="3.28618">
        <ele>7.5</ele>
        <time>2024-11-10T11:03:44Z</time>
      </trkpt>
      <trkpt lat="42.29351" lon="3.28618">
        <ele>7.5</ele>
        <time>2024-11-10T11:03:45Z</time>
      </trkpt>
      <trkpt lat="42.29351" lon="3.28618">
        <ele>7.5</ele>
        <time>2024-11-10T11:03:46Z</time>
      </trkpt>
      <trkpt lat="42.29351" lon="3.28618">
        <ele>7.5</ele>
        <time>2024-11-10T11:03:47Z</time>
      </trkpt>
      <trkpt lat="42.29351" lon="3.28618">
        <ele>7.5</ele>
        <time>2024-11-10T11:03:48Z</time>
      </trkpt>
      <trkpt lat="42.29351" lon="3.28618">
        <ele>7.5</ele>
        <time>2024-11-10T11:03:49Z</time>
      </trkpt>
      <trkpt lat="42.29351" lon="3.28618">
        <ele>7.5</ele>
        <time>2024-11-10T11:03:50Z</time>
      </trkpt>
      <trkpt lat="42.29351" lon="3.28618">
        <ele>7.5</ele>
        <time>2024-11-10T11:03:51Z</time>
      </trkpt>
      <trkpt lat="42.29351" lon="3.28618">
        <ele>7.5</ele>
        <time>2024-11-10T11:03:52Z</time>
      </trkpt>
      <trkpt lat="42.29351" lon="3.28618">
        <ele>7.5</ele>
        <time>2024-11-10T11:03:53Z</time>
      </trkpt>
      <trkpt lat="42.29351" lon="3.28618">
        <ele>7.5</ele>
        <time>2024-11-10T11:03:54Z</time>
      </trkpt>
      <trkpt lat="42.29351" lon="3.28618">
        <ele>7.5</ele>
        <time>2024-11-10T11:03:55Z</time>
      </trkpt>
      <trkpt lat="42.29351" lon="3.28618">
        <ele>7.5</ele>
        <time>2024-11-10T11:03:56Z</time>
      </trkpt>
      <trkpt lat="42.29351" lon="3.28618">
        <ele>7.5</ele>
        <time>2024-11-10T11:03:57Z</time>
      </trkpt>
      <trkpt lat="42.29351" lon="3.28618">
        <ele>7.5</ele>
        <time>2024-11-10T11:03:58Z</time>
      </trkpt>
      <trkpt lat="42.29351" lon="3.28618">
        <ele>7.5</ele>
        <time>2024-11-10T11:03:59Z</time>
      </trkpt>
      <trkpt lat="42.29351" lon="3.28618">
        <ele>7.5</ele>
        <time>2024-11-10T11:04:00Z</time>
      </trkpt>
      <trkpt lat="42.29351" lon="3.28618">
        <ele>7.5</ele>
        <time>2024-11-10T11:04:01Z</time>
      </trkpt>
      <trkpt lat="42.29351" lon="3.28618">
        <ele>7.5</ele>
        <time>2024-11-10T11:04:02Z</time>
      </trkpt>
      <trkpt lat="42.29351" lon="3.28618">
        <ele>7.5</ele>
        <time>2024-11-10T11:04:03Z</time>
      </trkpt>
      <trkpt lat="42.29351" lon="3.28618">
        <ele>7.5</ele>
        <time>2024-11-10T11:04:04Z</time>
      </trkpt>
      <trkpt lat="42.29351" lon="3.28618">
        <ele>7.5</ele>
        <time>2024-11-10T11:04:05Z</time>
      </trkpt>
      <trkpt lat="42.29351" lon="3.28618">
        <ele>7.5</ele>
        <time>2024-11-10T11:04:06Z</time>
      </trkpt>
      <trkpt lat="42.29351" lon="3.28618">
        <ele>7.5</ele>
        <time>2024-11-10T11:04:07Z</time>
      </trkpt>
      <trkpt lat="42.29351" lon="3.28618">
        <ele>7.5</ele>
        <time>2024-11-10T11:04:08Z</time>
      </trkpt>
      <trkpt lat="42.29351" lon="3.28618">
        <ele>7.5</ele>
        <time>2024-11-10T11:04:09Z</time>
      </trkpt>
      <trkpt lat="42.29351" lon="3.28618">
        <ele>7.5</ele>
        <time>2024-11-10T11:04:10Z</time>
      </trkpt>
      <trkpt lat="42.29351" lon="3.28618">
        <ele>7.5</ele>
        <time>2024-11-10T11:04:11Z</time>
      </trkpt>
      <trkpt lat="42.29351" lon="3.28618">
        <ele>7.5</ele>
        <time>2024-11-10T11:04:12Z</time>
      </trkpt>
      <trkpt lat="42.29351" lon="3.28618">
        <ele>7.5</ele>
        <time>2024-11-10T11:04:13Z</time>
      </trkpt>
      <trkpt lat="42.29351" lon="3.28618">
        <ele>7.5</ele>
        <time>2024-11-10T11:04:14Z</time>
      </trkpt>
      <trkpt lat="42.29351" lon="3.28618">
        <ele>7.5</ele>
        <time>2024-11-10T11:04:15Z</time>
      </trkpt>
      <trkpt lat="42.29351" lon="3.28618">
        <ele>7.5</ele>
        <time>2024-11-10T11:04:16Z</time>
      </trkpt>
      <trkpt lat="42.29351" lon="3.28618">
        <ele>7.5</ele>
        <time>2024-11-10T11:04:17Z</time>
      </trkpt>
      <trkpt lat="42.29351" lon="3.28618">
        <ele>7.5</ele>
        <time>2024-11-10T11:04:18Z</time>
      </trkpt>
      <trkpt lat="42.29351" lon="3.28618">
        <ele>7.5</ele>
        <time>2024-11-10T11:04:19Z</time>
      </trkpt>
      <trkpt lat="42.29351" lon="3.28618">
        <ele>7.5</ele>
        <time>2024-11-10T11:04:20Z</time>
      </trkpt>
      <trkpt lat="42.29351" lon="3.28618">
        <ele>7.5</ele>
        <time>2024-11-10T11:04:21Z</time>
      </trkpt>
      <trkpt lat="42.29351" lon="3.28618">
        <ele>7.5</ele>
        <time>2024-11-10T11:04:22Z</time>
      </trkpt>
      <trkpt lat="42.29351" lon="3.28618">
        <ele>7.5</ele>
        <time>2024-11-10T11:04:23Z</time>
      </trkpt>
      <trkpt lat="42.29351" lon="3.28618">
        <ele>7.5</ele>
        <time>2024-11-10T11:04:24Z</time>
      </trkpt>
      <trkpt lat="42.29351" lon="3.28618">
        <ele>7.5</ele>
        <time>2024-11-10T11:04:25Z</time>
      </trkpt>
      <trkpt lat="42.29351" lon="3.28618">
        <ele>7.5</ele>
        <time>2024-11-10T11:04:26Z</time>
      </trkpt>
      <trkpt lat="42.29351" lon="3.28618">
        <ele>7.5</ele>
        <time>2024-11-10T11:04:27Z</time>
      </trkpt>
      <trkpt lat="42.29351" lon="3.28618">
        <ele>7.5</ele>
        <time>2024-11-10T11:04:28Z</time>
      </trkpt>
      <trkpt lat="42.29351" lon="3.28618">
        <ele>7.5</ele>
        <time>2024-11-10T11:04:29Z</time>
      </trkpt>
      <trkpt lat="42.29351" lon="3.28618">
        <ele>7.5</ele>
        <time>2024-11-10T11:04:30Z</time>
      </trkpt>
      <trkpt lat="42.29351" lon="3.28618">
        <ele>7.5</ele>
        <time>2024-11-10T11:04:31Z</time>
      </trkpt>
      <trkpt lat="42.29351" lon="3.28618">
        <ele>7.5</ele>
        <time>2024-11-10T11:04:32Z</time>
      </trkpt>
      <trkpt lat="42.29351" lon="3.28618">
        <ele>7.5</ele>
        <time>2024-11-10T11:04:33Z</time>
      </trkpt>
      <trkpt lat="42.29351" lon="3.28618">
        <ele>7.5</ele>
        <time>2024-11-10T11:04:34Z</time>
      </trkpt>
      <trkpt lat="42.29351" lon="3.28618">
        <ele>7.5</ele>
        <time>2024-11-10T11:04:35Z</time>
      </trkpt>
      <trkpt lat="42.29351" lon="3.28618">
        <ele>7.5</ele>
        <time>2024-11-10T11:04:36Z</time>
      </trkpt>
      <trkpt lat="42.29351" lon="3.28618">
        <ele>7.5</ele>
        <time>2024-11-10T11:04:37Z</time>
      </trkpt>
      <trkpt lat="42.29351" lon="3.28618">
        <ele>7.5</ele>
        <time>2024-11-10T11:04:38Z</time>
      </trkpt>
      <trkpt lat="42.29351" lon="3.28618">
        <ele>7.5</ele>
        <time>2024-11-10T11:04:39Z</time>
      </trkpt>
      <trkpt lat="42.29351" lon="3.28618">
        <ele>7.5</ele>
        <time>2024-11-10T11:04:40Z</time>
      </trkpt>
      <trkpt lat="42.29351" lon="3.28618">
        <ele>7.5</ele>
        <time>2024-11-10T11:04:41Z</time>
      </trkpt>
      <trkpt lat="42.29351" lon="3.28618">
        <ele>7.5</ele>
        <time>2024-11-10T11:04:42Z</time>
      </trkpt>
      <trkpt lat="42.29351" lon="3.28618">
        <ele>7.5</ele>
        <time>2024-11-10T11:04:43Z</time>
      </trkpt>
      <trkpt lat="42.29351" lon="3.28618">
        <ele>7.5</ele>
        <time>2024-11-10T11:04:44Z</time>
      </trkpt>
      <trkpt lat="42.29351" lon="3.28618">
        <ele>7.5</ele>
        <time>2024-11-10T11:04:45Z</time>
      </trkpt>
      <trkpt lat="42.29351" lon="3.28618">
        <ele>7.5</ele>
        <time>2024-11-10T11:04:46Z</time>
      </trkpt>
      <trkpt lat="42.29351" lon="3.28618">
        <ele>7.5</ele>
        <time>2024-11-10T11:04:47Z</time>
      </trkpt>
      <trkpt lat="42.29351" lon="3.28618">
        <ele>7.5</ele>
        <time>2024-11-10T11:04:48Z</time>
      </trkpt>
      <trkpt lat="42.29351" lon="3.28618">
        <ele>7.5</ele>
        <time>2024-11-10T11:04:49Z</time>
      </trkpt>
      <trkpt lat="42.29351" lon="3.28618">
        <ele>7.5</ele>
        <time>2024-11-10T11:04:50Z</time>
      </trkpt>
      <trkpt lat="42.29351" lon="3.28618">
        <ele>7.5</ele>
        <time>2024-11-10T11:04:51Z</time>
      </trkpt>
      <trkpt lat="42.29351" lon="3.28618">
        <ele>7.5</ele>
        <time>2024-11-10T11:04:52Z</time>
      </trkpt>
      <trkpt lat="42.29351" lon="3.28618">
        <ele>7.5</ele>
        <time>2024-11-10T11:04:53Z</time>
      </trkpt>
      <trkpt lat="42.29351" lon="3.28618">
        <ele>7.5</ele>
        <time>2024-11-10T11:04:54Z</time>
      </trkpt>
      <trkpt lat="42.29351" lon="3.28618">
        <ele>7.5</ele>
        <time>2024-11-10T11:04:55Z</time>
      </trkpt>
      <trkpt lat="42.29351" lon="3.28618">
        <ele>7.5</ele>
        <time>2024-11-10T11:04:56Z</time>
      </trkpt>
      <trkpt lat="42.29351" lon="3.28617">
        <ele>7.5</ele>
        <time>2024-11-10T11:04:57Z</time>
      </trkpt>
      <trkpt lat="42.29351" lon="3.28616">
        <ele>7.5</ele>
        <time>2024-11-10T11:04:58Z</time>
      </trkpt>
      <trkpt lat="42.29352" lon="3.28616">
        <ele>7.5</ele>
        <time>2024-11-10T11:04:59Z</time>
      </trkpt>
      <trkpt lat="42.29352" lon="3.28616">
        <ele>7.5</ele>
        <time>2024-11-10T11:05:00Z</time>
      </trkpt>
      <trkpt lat="42.29352" lon="3.28616">
        <ele>7.4</ele>
        <time>2024-11-10T11:05:01Z</time>
      </trkpt>
      <trkpt lat="42.29352" lon="3.28616">
        <ele>7.4</ele>
        <time>2024-11-10T11:05:02Z</time>
      </trkpt>
      <trkpt lat="42.29352" lon="3.28616">
        <ele>7.4</ele>
        <time>2024-11-10T11:05:03Z</time>
      </trkpt>
      <trkpt lat="42.29352" lon="3.28616">
        <ele>7.4</ele>
        <time>2024-11-10T11:05:04Z</time>
      </trkpt>
      <trkpt lat="42.29352" lon="3.28616">
        <ele>7.4</ele>
        <time>2024-11-10T11:05:05Z</time>
      </trkpt>
      <trkpt lat="42.29352" lon="3.28616">
        <ele>7.4</ele>
        <time>2024-11-10T11:05:06Z</time>
      </trkpt>
      <trkpt lat="42.29352" lon="3.28616">
        <ele>7.4</ele>
        <time>2024-11-10T11:05:07Z</time>
      </trkpt>
      <trkpt lat="42.29352" lon="3.28616">
        <ele>7.4</ele>
        <time>2024-11-10T11:05:08Z</time>
      </trkpt>
      <trkpt lat="42.29352" lon="3.28616">
        <ele>7.4</ele>
        <time>2024-11-10T11:05:09Z</time>
      </trkpt>
      <trkpt lat="42.29352" lon="3.28616">
        <ele>7.4</ele>
        <time>2024-11-10T11:05:10Z</time>
      </trkpt>
      <trkpt lat="42.29352" lon="3.28616">
        <ele>7.4</ele>
        <time>2024-11-10T11:05:11Z</time>
      </trkpt>
      <trkpt lat="42.29352" lon="3.28616">
        <ele>7.4</ele>
        <time>2024-11-10T11:05:12Z</time>
      </trkpt>
      <trkpt lat="42.29352" lon="3.28616">
        <ele>7.4</ele>
        <time>2024-11-10T11:05:13Z</time>
      </trkpt>
      <trkpt lat="42.29352" lon="3.28616">
        <ele>7.4</ele>
        <time>2024-11-10T11:05:14Z</time>
      </trkpt>
      <trkpt lat="42.29352" lon="3.28616">
        <ele>7.4</ele>
        <time>2024-11-10T11:05:15Z</time>
      </trkpt>
      <trkpt lat="42.29352" lon="3.28616">
        <ele>7.4</ele>
        <time>2024-11-10T11:05:16Z</time>
      </trkpt>
      <trkpt lat="42.29352" lon="3.28616">
        <ele>7.4</ele>
        <time>2024-11-10T11:05:17Z</time>
      </trkpt>
      <trkpt lat="42.29352" lon="3.28616">
        <ele>7.4</ele>
        <time>2024-11-10T11:05:18Z</time>
      </trkpt>
      <trkpt lat="42.29352" lon="3.28616">
        <ele>7.4</ele>
        <time>2024-11-10T11:05:19Z</time>
      </trkpt>
      <trkpt lat="42.29352" lon="3.28616">
        <ele>7.4</ele>
        <time>2024-11-10T11:05:20Z</time>
      </trkpt>
      <trkpt lat="42.29352" lon="3.28616">
        <ele>7.4</ele>
        <time>2024-11-10T11:05:21Z</time>
      </trkpt>
      <trkpt lat="42.29352" lon="3.28616">
        <ele>7.4</ele>
        <time>2024-11-10T11:05:22Z</time>
      </trkpt>
      <trkpt lat="42.29352" lon="3.28616">
        <ele>7.4</ele>
        <time>2024-11-10T11:05:23Z</time>
      </trkpt>
      <trkpt lat="42.29352" lon="3.28616">
        <ele>7.4</ele>
        <time>2024-11-10T11:05:24Z</time>
      </trkpt>
      <trkpt lat="42.29352" lon="3.28616">
        <ele>7.4</ele>
        <time>2024-11-10T11:05:25Z</time>
      </trkpt>
      <trkpt lat="42.29352" lon="3.28616">
        <ele>7.4</ele>
        <time>2024-11-10T11:05:26Z</time>
      </trkpt>
      <trkpt lat="42.29352" lon="3.28616">
        <ele>7.4</ele>
        <time>2024-11-10T11:05:27Z</time>
      </trkpt>
      <trkpt lat="42.29352" lon="3.28616">
        <ele>7.4</ele>
        <time>2024-11-10T11:05:28Z</time>
      </trkpt>
      <trkpt lat="42.29352" lon="3.28616">
        <ele>7.4</ele>
        <time>2024-11-10T11:05:29Z</time>
      </trkpt>
      <trkpt lat="42.29352" lon="3.28616">
        <ele>7.4</ele>
        <time>2024-11-10T11:05:30Z</time>
      </trkpt>
      <trkpt lat="42.29352" lon="3.28616">
        <ele>7.4</ele>
        <time>2024-11-10T11:05:31Z</time>
      </trkpt>
      <trkpt lat="42.29352" lon="3.28616">
        <ele>7.4</ele>
        <time>2024-11-10T11:05:32Z</time>
      </trkpt>
      <trkpt lat="42.29352" lon="3.28616">
        <ele>7.4</ele>
        <time>2024-11-10T11:05:33Z</time>
      </trkpt>
      <trkpt lat="42.29352" lon="3.28616">
        <ele>7.4</ele>
        <time>2024-11-10T11:05:34Z</time>
      </trkpt>
      <trkpt lat="42.29352" lon="3.28616">
        <ele>7.4</ele>
        <time>2024-11-10T11:05:35Z</time>
      </trkpt>
      <trkpt lat="42.29352" lon="3.28616">
        <ele>7.4</ele>
        <time>2024-11-10T11:05:36Z</time>
      </trkpt>
      <trkpt lat="42.29352" lon="3.28616">
        <ele>7.4</ele>
        <time>2024-11-10T11:05:37Z</time>
      </trkpt>
      <trkpt lat="42.29352" lon="3.28616">
        <ele>7.4</ele>
        <time>2024-11-10T11:05:38Z</time>
      </trkpt>
      <trkpt lat="42.29352" lon="3.28616">
        <ele>7.4</ele>
        <time>2024-11-10T11:05:39Z</time>
      </trkpt>
      <trkpt lat="42.29352" lon="3.28616">
        <ele>7.4</ele>
        <time>2024-11-10T11:05:40Z</time>
      </trkpt>
      <trkpt lat="42.29352" lon="3.28616">
        <ele>7.4</ele>
        <time>2024-11-10T11:05:41Z</time>
      </trkpt>
      <trkpt lat="42.29352" lon="3.28616">
        <ele>7.4</ele>
        <time>2024-11-10T11:05:42Z</time>
      </trkpt>
      <trkpt lat="42.29352" lon="3.28616">
        <ele>7.4</ele>
        <time>2024-11-10T11:05:43Z</time>
      </trkpt>
      <trkpt lat="42.29352" lon="3.28616">
        <ele>7.4</ele>
        <time>2024-11-10T11:05:44Z</time>
      </trkpt>
      <trkpt lat="42.29352" lon="3.28616">
        <ele>7.4</ele>
        <time>2024-11-10T11:05:45Z</time>
      </trkpt>
      <trkpt lat="42.29352" lon="3.28616">
        <ele>7.4</ele>
        <time>2024-11-10T11:05:46Z</time>
      </trkpt>
      <trkpt lat="42.29352" lon="3.28616">
        <ele>7.4</ele>
        <time>2024-11-10T11:05:47Z</time>
      </trkpt>
      <trkpt lat="42.29352" lon="3.28616">
        <ele>7.4</ele>
        <time>2024-11-10T11:05:48Z</time>
      </trkpt>
      <trkpt lat="42.29352" lon="3.28616">
        <ele>7.4</ele>
        <time>2024-11-10T11:05:49Z</time>
      </trkpt>
      <trkpt lat="42.29352" lon="3.28616">
        <ele>7.4</ele>
        <time>2024-11-10T11:05:50Z</time>
      </trkpt>
      <trkpt lat="42.29352" lon="3.28616">
        <ele>7.4</ele>
        <time>2024-11-10T11:05:51Z</time>
      </trkpt>
      <trkpt lat="42.29352" lon="3.28616">
        <ele>7.4</ele>
        <time>2024-11-10T11:05:52Z</time>
      </trkpt>
      <trkpt lat="42.29352" lon="3.28616">
        <ele>7.4</ele>
        <time>2024-11-10T11:05:53Z</time>
      </trkpt>
      <trkpt lat="42.29352" lon="3.28616">
        <ele>7.4</ele>
        <time>2024-11-10T11:05:54Z</time>
      </trkpt>
      <trkpt lat="42.29352" lon="3.28616">
        <ele>7.4</ele>
        <time>2024-11-10T11:05:55Z</time>
      </trkpt>
      <trkpt lat="42.29352" lon="3.28616">
        <ele>7.4</ele>
        <time>2024-11-10T11:05:56Z</time>
      </trkpt>
      <trkpt lat="42.29352" lon="3.28616">
        <ele>7.4</ele>
        <time>2024-11-10T11:05:57Z</time>
      </trkpt>
      <trkpt lat="42.29352" lon="3.28616">
        <ele>7.4</ele>
        <time>2024-11-10T11:05:58Z</time>
      </trkpt>
      <trkpt lat="42.29352" lon="3.28616">
        <ele>7.4</ele>
        <time>2024-11-10T11:05:59Z</time>
      </trkpt>
      <trkpt lat="42.29352" lon="3.28616">
        <ele>7.4</ele>
        <time>2024-11-10T11:06:00Z</time>
      </trkpt>
      <trkpt lat="42.29352" lon="3.28616">
        <ele>7.4</ele>
        <time>2024-11-10T11:06:01Z</time>
      </trkpt>
      <trkpt lat="42.29352" lon="3.28616">
        <ele>7.4</ele>
        <time>2024-11-10T11:06:02Z</time>
      </trkpt>
      <trkpt lat="42.29352" lon="3.28616">
        <ele>7.4</ele>
        <time>2024-11-10T11:06:03Z</time>
      </trkpt>
      <trkpt lat="42.29352" lon="3.28616">
        <ele>7.4</ele>
        <time>2024-11-10T11:06:04Z</time>
      </trkpt>
      <trkpt lat="42.29352" lon="3.28616">
        <ele>7.4</ele>
        <time>2024-11-10T11:06:05Z</time>
      </trkpt>
      <trkpt lat="42.29352" lon="3.28616">
        <ele>7.4</ele>
        <time>2024-11-10T11:06:06Z</time>
      </trkpt>
      <trkpt lat="42.29352" lon="3.28616">
        <ele>7.4</ele>
        <time>2024-11-10T11:06:07Z</time>
      </trkpt>
      <trkpt lat="42.29352" lon="3.28616">
        <ele>7.4</ele>
        <time>2024-11-10T11:06:08Z</time>
      </trkpt>
      <trkpt lat="42.29352" lon="3.28616">
        <ele>7.4</ele>
        <time>2024-11-10T11:06:09Z</time>
      </trkpt>
      <trkpt lat="42.29352" lon="3.28616">
        <ele>7.4</ele>
        <time>2024-11-10T11:06:10Z</time>
      </trkpt>
      <trkpt lat="42.29352" lon="3.28616">
        <ele>7.4</ele>
        <time>2024-11-10T11:06:11Z</time>
      </trkpt>
      <trkpt lat="42.29352" lon="3.28616">
        <ele>7.4</ele>
        <time>2024-11-10T11:06:12Z</time>
      </trkpt>
      <trkpt lat="42.29352" lon="3.28616">
        <ele>7.4</ele>
        <time>2024-11-10T11:06:13Z</time>
      </trkpt>
      <trkpt lat="42.29352" lon="3.28616">
        <ele>7.4</ele>
        <time>2024-11-10T11:06:14Z</time>
      </trkpt>
      <trkpt lat="42.29352" lon="3.28616">
        <ele>7.4</ele>
        <time>2024-11-10T11:06:15Z</time>
      </trkpt>
      <trkpt lat="42.29352" lon="3.28616">
        <ele>7.4</ele>
        <time>2024-11-10T11:06:16Z</time>
      </trkpt>
      <trkpt lat="42.29352" lon="3.28616">
        <ele>7.4</ele>
        <time>2024-11-10T11:06:17Z</time>
      </trkpt>
      <trkpt lat="42.29352" lon="3.28616">
        <ele>7.4</ele>
        <time>2024-11-10T11:06:18Z</time>
      </trkpt>
      <trkpt lat="42.29352" lon="3.28616">
        <ele>7.4</ele>
        <time>2024-11-10T11:06:19Z</time>
      </trkpt>
      <trkpt lat="42.29352" lon="3.28616">
        <ele>7.4</ele>
        <time>2024-11-10T11:06:20Z</time>
      </trkpt>
      <trkpt lat="42.29352" lon="3.28616">
        <ele>7.4</ele>
        <time>2024-11-10T11:06:21Z</time>
      </trkpt>
      <trkpt lat="42.29352" lon="3.28616">
        <ele>7.4</ele>
        <time>2024-11-10T11:06:22Z</time>
      </trkpt>
      <trkpt lat="42.29352" lon="3.28616">
        <ele>7.4</ele>
        <time>2024-11-10T11:06:23Z</time>
      </trkpt>
      <trkpt lat="42.29352" lon="3.28616">
        <ele>7.4</ele>
        <time>2024-11-10T11:06:24Z</time>
      </trkpt>
      <trkpt lat="42.29352" lon="3.28616">
        <ele>7.4</ele>
        <time>2024-11-10T11:06:25Z</time>
      </trkpt>
      <trkpt lat="42.29352" lon="3.28616">
        <ele>7.4</ele>
        <time>2024-11-10T11:06:26Z</time>
      </trkpt>
      <trkpt lat="42.29352" lon="3.28616">
        <ele>7.4</ele>
        <time>2024-11-10T11:06:27Z</time>
      </trkpt>
      <trkpt lat="42.29352" lon="3.28616">
        <ele>7.4</ele>
        <time>2024-11-10T11:06:28Z</time>
      </trkpt>
      <trkpt lat="42.29352" lon="3.28616">
        <ele>7.4</ele>
        <time>2024-11-10T11:06:29Z</time>
      </trkpt>
      <trkpt lat="42.29352" lon="3.28616">
        <ele>7.4</ele>
        <time>2024-11-10T11:06:30Z</time>
      </trkpt>
      <trkpt lat="42.29352" lon="3.28616">
        <ele>7.4</ele>
        <time>2024-11-10T11:06:31Z</time>
      </trkpt>
      <trkpt lat="42.29352" lon="3.28616">
        <ele>7.4</ele>
        <time>2024-11-10T11:06:32Z</time>
      </trkpt>
      <trkpt lat="42.29352" lon="3.28616">
        <ele>7.4</ele>
        <time>2024-11-10T11:06:33Z</time>
      </trkpt>
      <trkpt lat="42.29352" lon="3.28616">
        <ele>7.4</ele>
        <time>2024-11-10T11:06:34Z</time>
      </trkpt>
      <trkpt lat="42.29352" lon="3.28616">
        <ele>7.4</ele>
        <time>2024-11-10T11:06:35Z</time>
      </trkpt>
      <trkpt lat="42.29352" lon="3.28616">
        <ele>7.4</ele>
        <time>2024-11-10T11:06:36Z</time>
      </trkpt>
      <trkpt lat="42.29352" lon="3.28616">
        <ele>7.4</ele>
        <time>2024-11-10T11:06:37Z</time>
      </trkpt>
      <trkpt lat="42.29352" lon="3.28616">
        <ele>7.4</ele>
        <time>2024-11-10T11:06:38Z</time>
      </trkpt>
      <trkpt lat="42.29352" lon="3.28616">
        <ele>7.4</ele>
        <time>2024-11-10T11:06:39Z</time>
      </trkpt>
      <trkpt lat="42.29352" lon="3.28616">
        <ele>7.4</ele>
        <time>2024-11-10T11:06:40Z</time>
      </trkpt>
      <trkpt lat="42.29352" lon="3.28616">
        <ele>7.4</ele>
        <time>2024-11-10T11:06:41Z</time>
      </trkpt>
      <trkpt lat="42.29352" lon="3.28616">
        <ele>7.4</ele>
        <time>2024-11-10T11:06:42Z</time>
      </trkpt>
      <trkpt lat="42.29352" lon="3.28616">
        <ele>7.4</ele>
        <time>2024-11-10T11:06:43Z</time>
      </trkpt>
      <trkpt lat="42.29352" lon="3.28616">
        <ele>7.4</ele>
        <time>2024-11-10T11:06:44Z</time>
      </trkpt>
      <trkpt lat="42.29352" lon="3.28616">
        <ele>7.4</ele>
        <time>2024-11-10T11:06:45Z</time>
      </trkpt>
      <trkpt lat="42.29352" lon="3.28616">
        <ele>7.4</ele>
        <time>2024-11-10T11:06:46Z</time>
      </trkpt>
      <trkpt lat="42.29352" lon="3.28616">
        <ele>7.4</ele>
        <time>2024-11-10T11:06:47Z</time>
      </trkpt>
      <trkpt lat="42.29352" lon="3.28616">
        <ele>7.4</ele>
        <time>2024-11-10T11:06:48Z</time>
      </trkpt>
      <trkpt lat="42.29352" lon="3.28616">
        <ele>7.4</ele>
        <time>2024-11-10T11:06:49Z</time>
      </trkpt>
      <trkpt lat="42.29352" lon="3.28616">
        <ele>7.4</ele>
        <time>2024-11-10T11:06:50Z</time>
      </trkpt>
      <trkpt lat="42.29352" lon="3.28616">
        <ele>7.4</ele>
        <time>2024-11-10T11:06:51Z</time>
      </trkpt>
      <trkpt lat="42.29352" lon="3.28616">
        <ele>7.4</ele>
        <time>2024-11-10T11:06:52Z</time>
      </trkpt>
      <trkpt lat="42.29352" lon="3.28616">
        <ele>7.4</ele>
        <time>2024-11-10T11:06:53Z</time>
      </trkpt>
      <trkpt lat="42.29352" lon="3.28616">
        <ele>7.4</ele>
        <time>2024-11-10T11:06:54Z</time>
      </trkpt>
      <trkpt lat="42.29352" lon="3.28616">
        <ele>7.4</ele>
        <time>2024-11-10T11:06:55Z</time>
      </trkpt>
      <trkpt lat="42.29352" lon="3.28616">
        <ele>7.4</ele>
        <time>2024-11-10T11:06:56Z</time>
      </trkpt>
      <trkpt lat="42.29352" lon="3.28616">
        <ele>7.4</ele>
        <time>2024-11-10T11:06:57Z</time>
      </trkpt>
      <trkpt lat="42.29352" lon="3.28616">
        <ele>7.4</ele>
        <time>2024-11-10T11:06:58Z</time>
      </trkpt>
      <trkpt lat="42.29352" lon="3.28616">
        <ele>7.4</ele>
        <time>2024-11-10T11:06:59Z</time>
      </trkpt>
      <trkpt lat="42.29352" lon="3.28616">
        <ele>7.4</ele>
        <time>2024-11-10T11:07:00Z</time>
      </trkpt>
      <trkpt lat="42.29352" lon="3.28616">
        <ele>7.4</ele>
        <time>2024-11-10T11:07:01Z</time>
      </trkpt>
      <trkpt lat="42.29352" lon="3.28616">
        <ele>7.4</ele>
        <time>2024-11-10T11:07:02Z</time>
      </trkpt>
      <trkpt lat="42.29352" lon="3.28616">
        <ele>7.4</ele>
        <time>2024-11-10T11:07:03Z</time>
      </trkpt>
      <trkpt lat="42.29352" lon="3.28616">
        <ele>7.4</ele>
        <time>2024-11-10T11:07:04Z</time>
      </trkpt>
      <trkpt lat="42.29352" lon="3.28616">
        <ele>7.4</ele>
        <time>2024-11-10T11:07:05Z</time>
      </trkpt>
      <trkpt lat="42.29352" lon="3.28616">
        <ele>7.4</ele>
        <time>2024-11-10T11:07:06Z</time>
      </trkpt>
      <trkpt lat="42.29352" lon="3.28616">
        <ele>7.4</ele>
        <time>2024-11-10T11:07:07Z</time>
      </trkpt>
      <trkpt lat="42.29352" lon="3.28616">
        <ele>7.4</ele>
        <time>2024-11-10T11:07:08Z</time>
      </trkpt>
      <trkpt lat="42.29352" lon="3.28616">
        <ele>7.4</ele>
        <time>2024-11-10T11:07:09Z</time>
      </trkpt>
      <trkpt lat="42.29352" lon="3.28616">
        <ele>7.4</ele>
        <time>2024-11-10T11:07:10Z</time>
      </trkpt>
      <trkpt lat="42.29352" lon="3.28616">
        <ele>7.4</ele>
        <time>2024-11-10T11:07:11Z</time>
      </trkpt>
      <trkpt lat="42.29352" lon="3.28616">
        <ele>7.4</ele>
        <time>2024-11-10T11:07:12Z</time>
      </trkpt>
      <trkpt lat="42.29352" lon="3.28616">
        <ele>7.4</ele>
        <time>2024-11-10T11:07:13Z</time>
      </trkpt>
      <trkpt lat="42.29352" lon="3.28616">
        <ele>7.4</ele>
        <time>2024-11-10T11:07:14Z</time>
      </trkpt>
      <trkpt lat="42.29352" lon="3.28616">
        <ele>7.4</ele>
        <time>2024-11-10T11:07:15Z</time>
      </trkpt>
      <trkpt lat="42.29352" lon="3.28616">
        <ele>7.4</ele>
        <time>2024-11-10T11:07:16Z</time>
      </trkpt>
      <trkpt lat="42.29352" lon="3.28616">
        <ele>7.4</ele>
        <time>2024-11-10T11:07:17Z</time>
      </trkpt>
      <trkpt lat="42.29352" lon="3.28616">
        <ele>7.4</ele>
        <time>2024-11-10T11:07:18Z</time>
      </trkpt>
      <trkpt lat="42.29352" lon="3.28616">
        <ele>7.4</ele>
        <time>2024-11-10T11:07:19Z</time>
      </trkpt>
      <trkpt lat="42.29352" lon="3.28616">
        <ele>7.4</ele>
        <time>2024-11-10T11:07:20Z</time>
      </trkpt>
      <trkpt lat="42.29352" lon="3.28616">
        <ele>7.4</ele>
        <time>2024-11-10T11:07:21Z</time>
      </trkpt>
      <trkpt lat="42.29352" lon="3.28616">
        <ele>7.4</ele>
        <time>2024-11-10T11:07:22Z</time>
      </trkpt>
      <trkpt lat="42.29352" lon="3.28616">
        <ele>7.4</ele>
        <time>2024-11-10T11:07:23Z</time>
      </trkpt>
      <trkpt lat="42.29352" lon="3.28616">
        <ele>7.4</ele>
        <time>2024-11-10T11:07:24Z</time>
      </trkpt>
      <trkpt lat="42.29352" lon="3.28616">
        <ele>7.4</ele>
        <time>2024-11-10T11:07:25Z</time>
      </trkpt>
      <trkpt lat="42.29352" lon="3.28616">
        <ele>7.4</ele>
        <time>2024-11-10T11:07:26Z</time>
      </trkpt>
      <trkpt lat="42.29352" lon="3.28616">
        <ele>7.4</ele>
        <time>2024-11-10T11:07:27Z</time>
      </trkpt>
      <trkpt lat="42.29352" lon="3.28616">
        <ele>7.4</ele>
        <time>2024-11-10T11:07:28Z</time>
      </trkpt>
      <trkpt lat="42.29352" lon="3.28616">
        <ele>7.4</ele>
        <time>2024-11-10T11:07:29Z</time>
      </trkpt>
      <trkpt lat="42.29352" lon="3.28616">
        <ele>7.4</ele>
        <time>2024-11-10T11:07:30Z</time>
      </trkpt>
      <trkpt lat="42.29352" lon="3.28616">
        <ele>7.4</ele>
        <time>2024-11-10T11:07:31Z</time>
      </trkpt>
      <trkpt lat="42.29352" lon="3.28616">
        <ele>7.4</ele>
        <time>2024-11-10T11:07:32Z</time>
      </trkpt>
      <trkpt lat="42.29352" lon="3.28616">
        <ele>7.4</ele>
        <time>2024-11-10T11:07:33Z</time>
      </trkpt>
      <trkpt lat="42.29352" lon="3.28616">
        <ele>7.4</ele>
        <time>2024-11-10T11:07:34Z</time>
      </trkpt>
      <trkpt lat="42.29352" lon="3.28616">
        <ele>7.4</ele>
        <time>2024-11-10T11:07:35Z</time>
      </trkpt>
      <trkpt lat="42.29352" lon="3.28616">
        <ele>7.4</ele>
        <time>2024-11-10T11:07:36Z</time>
      </trkpt>
      <trkpt lat="42.29352" lon="3.28616">
        <ele>7.4</ele>
        <time>2024-11-10T11:07:37Z</time>
      </trkpt>
      <trkpt lat="42.29352" lon="3.28616">
        <ele>7.4</ele>
        <time>2024-11-10T11:07:38Z</time>
      </trkpt>
      <trkpt lat="42.29352" lon="3.28616">
        <ele>7.4</ele>
        <time>2024-11-10T11:07:39Z</time>
      </trkpt>
      <trkpt lat="42.29352" lon="3.28616">
        <ele>7.4</ele>
        <time>2024-11-10T11:07:40Z</time>
      </trkpt>
      <trkpt lat="42.29352" lon="3.28616">
        <ele>7.4</ele>
        <time>2024-11-10T11:07:41Z</time>
      </trkpt>
      <trkpt lat="42.29352" lon="3.28616">
        <ele>7.4</ele>
        <time>2024-11-10T11:07:42Z</time>
      </trkpt>
      <trkpt lat="42.29352" lon="3.28616">
        <ele>7.4</ele>
        <time>2024-11-10T11:07:43Z</time>
      </trkpt>
      <trkpt lat="42.29352" lon="3.28616">
        <ele>7.4</ele>
        <time>2024-11-10T11:07:44Z</time>
      </trkpt>
      <trkpt lat="42.29352" lon="3.28616">
        <ele>7.4</ele>
        <time>2024-11-10T11:07:45Z</time>
      </trkpt>
      <trkpt lat="42.29352" lon="3.28616">
        <ele>7.4</ele>
        <time>2024-11-10T11:07:46Z</time>
      </trkpt>
      <trkpt lat="42.29352" lon="3.28616">
        <ele>7.4</ele>
        <time>2024-11-10T11:07:47Z</time>
      </trkpt>
      <trkpt lat="42.29352" lon="3.28616">
        <ele>7.4</ele>
        <time>2024-11-10T11:07:48Z</time>
      </trkpt>
      <trkpt lat="42.29352" lon="3.28616">
        <ele>7.4</ele>
        <time>2024-11-10T11:07:49Z</time>
      </trkpt>
      <trkpt lat="42.29352" lon="3.28616">
        <ele>7.4</ele>
        <time>2024-11-10T11:07:50Z</time>
      </trkpt>
      <trkpt lat="42.29352" lon="3.28616">
        <ele>7.4</ele>
        <time>2024-11-10T11:07:51Z</time>
      </trkpt>
      <trkpt lat="42.29352" lon="3.28616">
        <ele>7.4</ele>
        <time>2024-11-10T11:07:52Z</time>
      </trkpt>
      <trkpt lat="42.29352" lon="3.28616">
        <ele>7.4</ele>
        <time>2024-11-10T11:07:53Z</time>
      </trkpt>
      <trkpt lat="42.29352" lon="3.28616">
        <ele>7.4</ele>
        <time>2024-11-10T11:07:54Z</time>
      </trkpt>
      <trkpt lat="42.29352" lon="3.28616">
        <ele>7.4</ele>
        <time>2024-11-10T11:07:55Z</time>
      </trkpt>
      <trkpt lat="42.29352" lon="3.28616">
        <ele>7.4</ele>
        <time>2024-11-10T11:07:56Z</time>
      </trkpt>
      <trkpt lat="42.29352" lon="3.28616">
        <ele>7.4</ele>
        <time>2024-11-10T11:07:57Z</time>
      </trkpt>
      <trkpt lat="42.29352" lon="3.28616">
        <ele>7.4</ele>
        <time>2024-11-10T11:07:58Z</time>
      </trkpt>
      <trkpt lat="42.29352" lon="3.28616">
        <ele>7.4</ele>
        <time>2024-11-10T11:07:59Z</time>
      </trkpt>
      <trkpt lat="42.29352" lon="3.28616">
        <ele>7.4</ele>
        <time>2024-11-10T11:08:00Z</time>
      </trkpt>
      <trkpt lat="42.29352" lon="3.28616">
        <ele>7.4</ele>
        <time>2024-11-10T11:08:01Z</time>
      </trkpt>
      <trkpt lat="42.29352" lon="3.28616">
        <ele>7.4</ele>
        <time>2024-11-10T11:08:02Z</time>
      </trkpt>
      <trkpt lat="42.29352" lon="3.28616">
        <ele>7.4</ele>
        <time>2024-11-10T11:08:03Z</time>
      </trkpt>
      <trkpt lat="42.29352" lon="3.28616">
        <ele>7.4</ele>
        <time>2024-11-10T11:08:04Z</time>
      </trkpt>
      <trkpt lat="42.29352" lon="3.28616">
        <ele>7.4</ele>
        <time>2024-11-10T11:08:05Z</time>
      </trkpt>
      <trkpt lat="42.29352" lon="3.28616">
        <ele>7.4</ele>
        <time>2024-11-10T11:08:06Z</time>
      </trkpt>
      <trkpt lat="42.29352" lon="3.28616">
        <ele>7.4</ele>
        <time>2024-11-10T11:08:07Z</time>
      </trkpt>
      <trkpt lat="42.29352" lon="3.28616">
        <ele>7.4</ele>
        <time>2024-11-10T11:08:08Z</time>
      </trkpt>
      <trkpt lat="42.29352" lon="3.28616">
        <ele>7.4</ele>
        <time>2024-11-10T11:08:09Z</time>
      </trkpt>
      <trkpt lat="42.29352" lon="3.28616">
        <ele>7.4</ele>
        <time>2024-11-10T11:08:10Z</time>
      </trkpt>
      <trkpt lat="42.29352" lon="3.28616">
        <ele>7.4</ele>
        <time>2024-11-10T11:08:11Z</time>
      </trkpt>
      <trkpt lat="42.29352" lon="3.28616">
        <ele>7.4</ele>
        <time>2024-11-10T11:08:12Z</time>
      </trkpt>
      <trkpt lat="42.29352" lon="3.28616">
        <ele>7.4</ele>
        <time>2024-11-10T11:08:13Z</time>
      </trkpt>
      <trkpt lat="42.29352" lon="3.28616">
        <ele>7.4</ele>
        <time>2024-11-10T11:08:14Z</time>
      </trkpt>
      <trkpt lat="42.29352" lon="3.28616">
        <ele>7.4</ele>
        <time>2024-11-10T11:08:15Z</time>
      </trkpt>
      <trkpt lat="42.29352" lon="3.28616">
        <ele>7.4</ele>
        <time>2024-11-10T11:08:16Z</time>
      </trkpt>
      <trkpt lat="42.29352" lon="3.28616">
        <ele>7.4</ele>
        <time>2024-11-10T11:08:17Z</time>
      </trkpt>
      <trkpt lat="42.29352" lon="3.28616">
        <ele>7.4</ele>
        <time>2024-11-10T11:08:18Z</time>
      </trkpt>
      <trkpt lat="42.29352" lon="3.28616">
        <ele>7.4</ele>
        <time>2024-11-10T11:08:19Z</time>
      </trkpt>
      <trkpt lat="42.29352" lon="3.28616">
        <ele>7.4</ele>
        <time>2024-11-10T11:08:20Z</time>
      </trkpt>
      <trkpt lat="42.29352" lon="3.28616">
        <ele>7.4</ele>
        <time>2024-11-10T11:08:21Z</time>
      </trkpt>
      <trkpt lat="42.29352" lon="3.28616">
        <ele>7.4</ele>
        <time>2024-11-10T11:08:22Z</time>
      </trkpt>
      <trkpt lat="42.29352" lon="3.28616">
        <ele>7.4</ele>
        <time>2024-11-10T11:08:23Z</time>
      </trkpt>
      <trkpt lat="42.29352" lon="3.28616">
        <ele>7.4</ele>
        <time>2024-11-10T11:08:24Z</time>
      </trkpt>
      <trkpt lat="42.29352" lon="3.28616">
        <ele>7.4</ele>
        <time>2024-11-10T11:08:25Z</time>
      </trkpt>
      <trkpt lat="42.29352" lon="3.28616">
        <ele>7.4</ele>
        <time>2024-11-10T11:08:26Z</time>
      </trkpt>
      <trkpt lat="42.29352" lon="3.28616">
        <ele>7.4</ele>
        <time>2024-11-10T11:08:27Z</time>
      </trkpt>
      <trkpt lat="42.29352" lon="3.28616">
        <ele>7.4</ele>
        <time>2024-11-10T11:08:28Z</time>
      </trkpt>
      <trkpt lat="42.29352" lon="3.28616">
        <ele>7.4</ele>
        <time>2024-11-10T11:08:29Z</time>
      </trkpt>
      <trkpt lat="42.29352" lon="3.28616">
        <ele>7.4</ele>
        <time>2024-11-10T11:08:30Z</time>
      </trkpt>
      <trkpt lat="42.29352" lon="3.28616">
        <ele>7.4</ele>
        <time>2024-11-10T11:08:31Z</time>
      </trkpt>
      <trkpt lat="42.29352" lon="3.28616">
        <ele>7.4</ele>
        <time>2024-11-10T11:08:32Z</time>
      </trkpt>
      <trkpt lat="42.29352" lon="3.28616">
        <ele>7.4</ele>
        <time>2024-11-10T11:08:33Z</time>
      </trkpt>
      <trkpt lat="42.29352" lon="3.28616">
        <ele>7.4</ele>
        <time>2024-11-10T11:08:34Z</time>
      </trkpt>
      <trkpt lat="42.29352" lon="3.28616">
        <ele>7.4</ele>
        <time>2024-11-10T11:08:35Z</time>
      </trkpt>
      <trkpt lat="42.29352" lon="3.28616">
        <ele>7.4</ele>
        <time>2024-11-10T11:08:36Z</time>
      </trkpt>
      <trkpt lat="42.29352" lon="3.28616">
        <ele>7.4</ele>
        <time>2024-11-10T11:08:37Z</time>
      </trkpt>
      <trkpt lat="42.29352" lon="3.28616">
        <ele>7.4</ele>
        <time>2024-11-10T11:08:38Z</time>
      </trkpt>
      <trkpt lat="42.29352" lon="3.28616">
        <ele>7.4</ele>
        <time>2024-11-10T11:08:39Z</time>
      </trkpt>
      <trkpt lat="42.29352" lon="3.28616">
        <ele>7.4</ele>
        <time>2024-11-10T11:08:40Z</time>
      </trkpt>
      <trkpt lat="42.29352" lon="3.28616">
        <ele>7.4</ele>
        <time>2024-11-10T11:08:41Z</time>
      </trkpt>
      <trkpt lat="42.29352" lon="3.28616">
        <ele>7.4</ele>
        <time>2024-11-10T11:08:42Z</time>
      </trkpt>
      <trkpt lat="42.29352" lon="3.28616">
        <ele>7.4</ele>
        <time>2024-11-10T11:08:43Z</time>
      </trkpt>
      <trkpt lat="42.29352" lon="3.28616">
        <ele>7.4</ele>
        <time>2024-11-10T11:08:44Z</time>
      </trkpt>
      <trkpt lat="42.29352" lon="3.28616">
        <ele>7.4</ele>
        <time>2024-11-10T11:08:45Z</time>
      </trkpt>
      <trkpt lat="42.29352" lon="3.28616">
        <ele>7.4</ele>
        <time>2024-11-10T11:08:46Z</time>
      </trkpt>
      <trkpt lat="42.29352" lon="3.28616">
        <ele>7.4</ele>
        <time>2024-11-10T11:08:47Z</time>
      </trkpt>
      <trkpt lat="42.29352" lon="3.28616">
        <ele>7.4</ele>
        <time>2024-11-10T11:08:48Z</time>
      </trkpt>
      <trkpt lat="42.29352" lon="3.28616">
        <ele>7.4</ele>
        <time>2024-11-10T11:08:49Z</time>
      </trkpt>
      <trkpt lat="42.29352" lon="3.28616">
        <ele>7.4</ele>
        <time>2024-11-10T11:08:50Z</time>
      </trkpt>
      <trkpt lat="42.29352" lon="3.28616">
        <ele>7.4</ele>
        <time>2024-11-10T11:08:51Z</time>
      </trkpt>
      <trkpt lat="42.29352" lon="3.28616">
        <ele>7.4</ele>
        <time>2024-11-10T11:08:52Z</time>
      </trkpt>
      <trkpt lat="42.29352" lon="3.28616">
        <ele>7.4</ele>
        <time>2024-11-10T11:08:53Z</time>
      </trkpt>
      <trkpt lat="42.29352" lon="3.28616">
        <ele>7.4</ele>
        <time>2024-11-10T11:08:54Z</time>
      </trkpt>
      <trkpt lat="42.29352" lon="3.28616">
        <ele>7.4</ele>
        <time>2024-11-10T11:08:55Z</time>
      </trkpt>
      <trkpt lat="42.29352" lon="3.28616">
        <ele>7.4</ele>
        <time>2024-11-10T11:08:56Z</time>
      </trkpt>
      <trkpt lat="42.29352" lon="3.28616">
        <ele>7.4</ele>
        <time>2024-11-10T11:08:57Z</time>
      </trkpt>
      <trkpt lat="42.29352" lon="3.28616">
        <ele>7.4</ele>
        <time>2024-11-10T11:08:58Z</time>
      </trkpt>
      <trkpt lat="42.29352" lon="3.28616">
        <ele>7.4</ele>
        <time>2024-11-10T11:08:59Z</time>
      </trkpt>
      <trkpt lat="42.29352" lon="3.28616">
        <ele>7.4</ele>
        <time>2024-11-10T11:09:00Z</time>
      </trkpt>
      <trkpt lat="42.29352" lon="3.28616">
        <ele>7.4</ele>
        <time>2024-11-10T11:09:01Z</time>
      </trkpt>
      <trkpt lat="42.29352" lon="3.28616">
        <ele>7.4</ele>
        <time>2024-11-10T11:09:02Z</time>
      </trkpt>
      <trkpt lat="42.29352" lon="3.28616">
        <ele>7.4</ele>
        <time>2024-11-10T11:09:03Z</time>
      </trkpt>
      <trkpt lat="42.29352" lon="3.28616">
        <ele>7.4</ele>
        <time>2024-11-10T11:09:04Z</time>
      </trkpt>
      <trkpt lat="42.29352" lon="3.28616">
        <ele>7.4</ele>
        <time>2024-11-10T11:09:05Z</time>
      </trkpt>
      <trkpt lat="42.29352" lon="3.28616">
        <ele>7.4</ele>
        <time>2024-11-10T11:09:06Z</time>
      </trkpt>
      <trkpt lat="42.29352" lon="3.28616">
        <ele>7.4</ele>
        <time>2024-11-10T11:09:07Z</time>
      </trkpt>
      <trkpt lat="42.29352" lon="3.28616">
        <ele>7.4</ele>
        <time>2024-11-10T11:09:08Z</time>
      </trkpt>
      <trkpt lat="42.29352" lon="3.28616">
        <ele>7.4</ele>
        <time>2024-11-10T11:09:09Z</time>
      </trkpt>
      <trkpt lat="42.29352" lon="3.28616">
        <ele>7.4</ele>
        <time>2024-11-10T11:09:10Z</time>
      </trkpt>
      <trkpt lat="42.29352" lon="3.28616">
        <ele>7.4</ele>
        <time>2024-11-10T11:09:11Z</time>
      </trkpt>
      <trkpt lat="42.29352" lon="3.28616">
        <ele>7.4</ele>
        <time>2024-11-10T11:09:12Z</time>
      </trkpt>
      <trkpt lat="42.29352" lon="3.28616">
        <ele>7.4</ele>
        <time>2024-11-10T11:09:13Z</time>
      </trkpt>
      <trkpt lat="42.29352" lon="3.28616">
        <ele>7.4</ele>
        <time>2024-11-10T11:09:14Z</time>
      </trkpt>
      <trkpt lat="42.29352" lon="3.28616">
        <ele>7.4</ele>
        <time>2024-11-10T11:09:15Z</time>
      </trkpt>
      <trkpt lat="42.29352" lon="3.28616">
        <ele>7.4</ele>
        <time>2024-11-10T11:09:16Z</time>
      </trkpt>
      <trkpt lat="42.29352" lon="3.28616">
        <ele>7.4</ele>
        <time>2024-11-10T11:09:17Z</time>
      </trkpt>
      <trkpt lat="42.29352" lon="3.28616">
        <ele>7.4</ele>
        <time>2024-11-10T11:09:18Z</time>
      </trkpt>
      <trkpt lat="42.29352" lon="3.28616">
        <ele>7.4</ele>
        <time>2024-11-10T11:09:19Z</time>
      </trkpt>
      <trkpt lat="42.29352" lon="3.28616">
        <ele>7.4</ele>
        <time>2024-11-10T11:09:20Z</time>
      </trkpt>
      <trkpt lat="42.29352" lon="3.28616">
        <ele>7.4</ele>
        <time>2024-11-10T11:09:21Z</time>
      </trkpt>
      <trkpt lat="42.29352" lon="3.28616">
        <ele>7.4</ele>
        <time>2024-11-10T11:09:22Z</time>
      </trkpt>
      <trkpt lat="42.29352" lon="3.28616">
        <ele>7.4</ele>
        <time>2024-11-10T11:09:23Z</time>
      </trkpt>
      <trkpt lat="42.29352" lon="3.28616">
        <ele>7.4</ele>
        <time>2024-11-10T11:09:24Z</time>
      </trkpt>
      <trkpt lat="42.29352" lon="3.28616">
        <ele>7.4</ele>
        <time>2024-11-10T11:09:25Z</time>
      </trkpt>
      <trkpt lat="42.29352" lon="3.28616">
        <ele>7.4</ele>
        <time>2024-11-10T11:09:26Z</time>
      </trkpt>
      <trkpt lat="42.29352" lon="3.28616">
        <ele>7.4</ele>
        <time>2024-11-10T11:09:27Z</time>
      </trkpt>
      <trkpt lat="42.29352" lon="3.28616">
        <ele>7.4</ele>
        <time>2024-11-10T11:09:28Z</time>
      </trkpt>
      <trkpt lat="42.29352" lon="3.28616">
        <ele>7.4</ele>
        <time>2024-11-10T11:09:29Z</time>
      </trkpt>
      <trkpt lat="42.29352" lon="3.28616">
        <ele>7.4</ele>
        <time>2024-11-10T11:09:30Z</time>
      </trkpt>
      <trkpt lat="42.29352" lon="3.28616">
        <ele>7.4</ele>
        <time>2024-11-10T11:09:31Z</time>
      </trkpt>
      <trkpt lat="42.29352" lon="3.28616">
        <ele>7.4</ele>
        <time>2024-11-10T11:09:32Z</time>
      </trkpt>
      <trkpt lat="42.29352" lon="3.28616">
        <ele>7.4</ele>
        <time>2024-11-10T11:09:33Z</time>
      </trkpt>
      <trkpt lat="42.29352" lon="3.28616">
        <ele>7.4</ele>
        <time>2024-11-10T11:09:34Z</time>
      </trkpt>
      <trkpt lat="42.29352" lon="3.28616">
        <ele>7.4</ele>
        <time>2024-11-10T11:09:35Z</time>
      </trkpt>
      <trkpt lat="42.29352" lon="3.28616">
        <ele>7.4</ele>
        <time>2024-11-10T11:09:36Z</time>
      </trkpt>
      <trkpt lat="42.29352" lon="3.28616">
        <ele>7.4</ele>
        <time>2024-11-10T11:09:37Z</time>
      </trkpt>
      <trkpt lat="42.29352" lon="3.28616">
        <ele>7.4</ele>
        <time>2024-11-10T11:09:38Z</time>
      </trkpt>
      <trkpt lat="42.29352" lon="3.28616">
        <ele>7.4</ele>
        <time>2024-11-10T11:09:39Z</time>
      </trkpt>
      <trkpt lat="42.29352" lon="3.28616">
        <ele>7.4</ele>
        <time>2024-11-10T11:09:40Z</time>
      </trkpt>
      <trkpt lat="42.29352" lon="3.28616">
        <ele>7.4</ele>
        <time>2024-11-10T11:09:41Z</time>
      </trkpt>
      <trkpt lat="42.29352" lon="3.28616">
        <ele>7.4</ele>
        <time>2024-11-10T11:09:42Z</time>
      </trkpt>
      <trkpt lat="42.29352" lon="3.28616">
        <ele>7.4</ele>
        <time>2024-11-10T11:09:43Z</time>
      </trkpt>
      <trkpt lat="42.29352" lon="3.28616">
        <ele>7.4</ele>
        <time>2024-11-10T11:09:44Z</time>
      </trkpt>
      <trkpt lat="42.29352" lon="3.28616">
        <ele>7.4</ele>
        <time>2024-11-10T11:09:45Z</time>
      </trkpt>
      <trkpt lat="42.29352" lon="3.28616">
        <ele>7.4</ele>
        <time>2024-11-10T11:09:46Z</time>
      </trkpt>
      <trkpt lat="42.29352" lon="3.28616">
        <ele>7.4</ele>
        <time>2024-11-10T11:09:47Z</time>
      </trkpt>
      <trkpt lat="42.29352" lon="3.28616">
        <ele>7.4</ele>
        <time>2024-11-10T11:09:48Z</time>
      </trkpt>
      <trkpt lat="42.29352" lon="3.28616">
        <ele>7.4</ele>
        <time>2024-11-10T11:09:49Z</time>
      </trkpt>
      <trkpt lat="42.29352" lon="3.28616">
        <ele>7.4</ele>
        <time>2024-11-10T11:09:50Z</time>
      </trkpt>
      <trkpt lat="42.29352" lon="3.28616">
        <ele>7.4</ele>
        <time>2024-11-10T11:09:51Z</time>
      </trkpt>
      <trkpt lat="42.29352" lon="3.28616">
        <ele>7.4</ele>
        <time>2024-11-10T11:09:52Z</time>
      </trkpt>
      <trkpt lat="42.29352" lon="3.28616">
        <ele>7.4</ele>
        <time>2024-11-10T11:09:53Z</time>
      </trkpt>
      <trkpt lat="42.29352" lon="3.28616">
        <ele>7.4</ele>
        <time>2024-11-10T11:09:54Z</time>
      </trkpt>
      <trkpt lat="42.29352" lon="3.28616">
        <ele>7.4</ele>
        <time>2024-11-10T11:09:55Z</time>
      </trkpt>
      <trkpt lat="42.29352" lon="3.28616">
        <ele>7.4</ele>
        <time>2024-11-10T11:09:56Z</time>
      </trkpt>
      <trkpt lat="42.29352" lon="3.28616">
        <ele>7.4</ele>
        <time>2024-11-10T11:09:57Z</time>
      </trkpt>
      <trkpt lat="42.29352" lon="3.28616">
        <ele>7.4</ele>
        <time>2024-11-10T11:09:58Z</time>
      </trkpt>
      <trkpt lat="42.29352" lon="3.28616">
        <ele>7.4</ele>
        <time>2024-11-10T11:09:59Z</time>
      </trkpt>
      <trkpt lat="42.29352" lon="3.28616">
        <ele>7.4</ele>
        <time>2024-11-10T11:10:00Z</time>
      </trkpt>
      <trkpt lat="42.29352" lon="3.28616">
        <ele>7.4</ele>
        <time>2024-11-10T11:10:01Z</time>
      </trkpt>
      <trkpt lat="42.29352" lon="3.28616">
        <ele>7.4</ele>
        <time>2024-11-10T11:10:02Z</time>
      </trkpt>
      <trkpt lat="42.29352" lon="3.28616">
        <ele>7.4</ele>
        <time>2024-11-10T11:10:03Z</time>
      </trkpt>
      <trkpt lat="42.29352" lon="3.28616">
        <ele>7.4</ele>
        <time>2024-11-10T11:10:04Z</time>
      </trkpt>
      <trkpt lat="42.29352" lon="3.28616">
        <ele>7.4</ele>
        <time>2024-11-10T11:10:05Z</time>
      </trkpt>
      <trkpt lat="42.29352" lon="3.28616">
        <ele>7.4</ele>
        <time>2024-11-10T11:10:06Z</time>
      </trkpt>
      <trkpt lat="42.29352" lon="3.28616">
        <ele>7.4</ele>
        <time>2024-11-10T11:10:07Z</time>
      </trkpt>
      <trkpt lat="42.29352" lon="3.28616">
        <ele>7.4</ele>
        <time>2024-11-10T11:10:08Z</time>
      </trkpt>
      <trkpt lat="42.29352" lon="3.28616">
        <ele>7.4</ele>
        <time>2024-11-10T11:10:09Z</time>
      </trkpt>
      <trkpt lat="42.29352" lon="3.28616">
        <ele>7.4</ele>
        <time>2024-11-10T11:10:10Z</time>
      </trkpt>
      <trkpt lat="42.29352" lon="3.28616">
        <ele>7.4</ele>
        <time>2024-11-10T11:10:11Z</time>
      </trkpt>
      <trkpt lat="42.29352" lon="3.28616">
        <ele>7.4</ele>
        <time>2024-11-10T11:10:12Z</time>
      </trkpt>
      <trkpt lat="42.29352" lon="3.28616">
        <ele>7.4</ele>
        <time>2024-11-10T11:10:13Z</time>
      </trkpt>
      <trkpt lat="42.29352" lon="3.28616">
        <ele>7.4</ele>
        <time>2024-11-10T11:10:14Z</time>
      </trkpt>
      <trkpt lat="42.29352" lon="3.28616">
        <ele>7.4</ele>
        <time>2024-11-10T11:10:15Z</time>
      </trkpt>
      <trkpt lat="42.29352" lon="3.28616">
        <ele>7.4</ele>
        <time>2024-11-10T11:10:16Z</time>
      </trkpt>
      <trkpt lat="42.29352" lon="3.28616">
        <ele>7.4</ele>
        <time>2024-11-10T11:10:17Z</time>
      </trkpt>
      <trkpt lat="42.29352" lon="3.28616">
        <ele>7.4</ele>
        <time>2024-11-10T11:10:18Z</time>
      </trkpt>
      <trkpt lat="42.29352" lon="3.28616">
        <ele>7.4</ele>
        <time>2024-11-10T11:10:19Z</time>
      </trkpt>
      <trkpt lat="42.29352" lon="3.28616">
        <ele>7.4</ele>
        <time>2024-11-10T11:10:20Z</time>
      </trkpt>
      <trkpt lat="42.29352" lon="3.28616">
        <ele>7.4</ele>
        <time>2024-11-10T11:10:21Z</time>
      </trkpt>
      <trkpt lat="42.29352" lon="3.28616">
        <ele>7.4</ele>
        <time>2024-11-10T11:10:22Z</time>
      </trkpt>
      <trkpt lat="42.29352" lon="3.28616">
        <ele>7.4</ele>
        <time>2024-11-10T11:10:23Z</time>
      </trkpt>
      <trkpt lat="42.29352" lon="3.28616">
        <ele>7.4</ele>
        <time>2024-11-10T11:10:24Z</time>
      </trkpt>
      <trkpt lat="42.29352" lon="3.28616">
        <ele>7.4</ele>
        <time>2024-11-10T11:10:25Z</time>
      </trkpt>
      <trkpt lat="42.29352" lon="3.28616">
        <ele>7.4</ele>
        <time>2024-11-10T11:10:26Z</time>
      </trkpt>
      <trkpt lat="42.29352" lon="3.28616">
        <ele>7.4</ele>
        <time>2024-11-10T11:10:27Z</time>
      </trkpt>
      <trkpt lat="42.29352" lon="3.28616">
        <ele>7.4</ele>
        <time>2024-11-10T11:10:28Z</time>
      </trkpt>
      <trkpt lat="42.29352" lon="3.28616">
        <ele>7.4</ele>
        <time>2024-11-10T11:10:29Z</time>
      </trkpt>
      <trkpt lat="42.29352" lon="3.28616">
        <ele>7.4</ele>
        <time>2024-11-10T11:10:30Z</time>
      </trkpt>
      <trkpt lat="42.29352" lon="3.28616">
        <ele>7.4</ele>
        <time>2024-11-10T11:10:31Z</time>
      </trkpt>
      <trkpt lat="42.29352" lon="3.28616">
        <ele>7.4</ele>
        <time>2024-11-10T11:10:32Z</time>
      </trkpt>
      <trkpt lat="42.29352" lon="3.28616">
        <ele>7.4</ele>
        <time>2024-11-10T11:10:33Z</time>
      </trkpt>
      <trkpt lat="42.29352" lon="3.28616">
        <ele>7.4</ele>
        <time>2024-11-10T11:10:34Z</time>
      </trkpt>
      <trkpt lat="42.29352" lon="3.28616">
        <ele>7.4</ele>
        <time>2024-11-10T11:10:35Z</time>
      </trkpt>
      <trkpt lat="42.29352" lon="3.28616">
        <ele>7.4</ele>
        <time>2024-11-10T11:10:36Z</time>
      </trkpt>
      <trkpt lat="42.29352" lon="3.28616">
        <ele>7.4</ele>
        <time>2024-11-10T11:10:37Z</time>
      </trkpt>
      <trkpt lat="42.29352" lon="3.28616">
        <ele>7.4</ele>
        <time>2024-11-10T11:10:38Z</time>
      </trkpt>
      <trkpt lat="42.29352" lon="3.28616">
        <ele>7.4</ele>
        <time>2024-11-10T11:10:39Z</time>
      </trkpt>
      <trkpt lat="42.29352" lon="3.28616">
        <ele>7.4</ele>
        <time>2024-11-10T11:10:40Z</time>
      </trkpt>
      <trkpt lat="42.29352" lon="3.28616">
        <ele>7.4</ele>
        <time>2024-11-10T11:10:41Z</time>
      </trkpt>
      <trkpt lat="42.29352" lon="3.28616">
        <ele>7.4</ele>
        <time>2024-11-10T11:10:42Z</time>
      </trkpt>
      <trkpt lat="42.29352" lon="3.28616">
        <ele>7.4</ele>
        <time>2024-11-10T11:10:43Z</time>
      </trkpt>
      <trkpt lat="42.29352" lon="3.28616">
        <ele>7.4</ele>
        <time>2024-11-10T11:10:44Z</time>
      </trkpt>
      <trkpt lat="42.29352" lon="3.28616">
        <ele>7.4</ele>
        <time>2024-11-10T11:10:45Z</time>
      </trkpt>
      <trkpt lat="42.29352" lon="3.28616">
        <ele>7.4</ele>
        <time>2024-11-10T11:10:46Z</time>
      </trkpt>
      <trkpt lat="42.29352" lon="3.28616">
        <ele>7.4</ele>
        <time>2024-11-10T11:10:47Z</time>
      </trkpt>
      <trkpt lat="42.29352" lon="3.28616">
        <ele>7.4</ele>
        <time>2024-11-10T11:10:48Z</time>
      </trkpt>
      <trkpt lat="42.29352" lon="3.28616">
        <ele>7.4</ele>
        <time>2024-11-10T11:10:49Z</time>
      </trkpt>
      <trkpt lat="42.29352" lon="3.28616">
        <ele>7.4</ele>
        <time>2024-11-10T11:10:50Z</time>
      </trkpt>
      <trkpt lat="42.29352" lon="3.28616">
        <ele>7.4</ele>
        <time>2024-11-10T11:10:51Z</time>
      </trkpt>
      <trkpt lat="42.29352" lon="3.28616">
        <ele>7.4</ele>
        <time>2024-11-10T11:10:52Z</time>
      </trkpt>
      <trkpt lat="42.29352" lon="3.28616">
        <ele>7.4</ele>
        <time>2024-11-10T11:10:53Z</time>
      </trkpt>
      <trkpt lat="42.29352" lon="3.28616">
        <ele>7.4</ele>
        <time>2024-11-10T11:10:54Z</time>
      </trkpt>
      <trkpt lat="42.29352" lon="3.28616">
        <ele>7.4</ele>
        <time>2024-11-10T11:10:55Z</time>
      </trkpt>
      <trkpt lat="42.29352" lon="3.28616">
        <ele>7.4</ele>
        <time>2024-11-10T11:10:56Z</time>
      </trkpt>
      <trkpt lat="42.29352" lon="3.28616">
        <ele>7.4</ele>
        <time>2024-11-10T11:10:57Z</time>
      </trkpt>
      <trkpt lat="42.29352" lon="3.28616">
        <ele>7.4</ele>
        <time>2024-11-10T11:10:58Z</time>
      </trkpt>
      <trkpt lat="42.29352" lon="3.28616">
        <ele>7.4</ele>
        <time>2024-11-10T11:10:59Z</time>
      </trkpt>
      <trkpt lat="42.29352" lon="3.28616">
        <ele>7.4</ele>
        <time>2024-11-10T11:11:00Z</time>
      </trkpt>
      <trkpt lat="42.29352" lon="3.28616">
        <ele>7.4</ele>
        <time>2024-11-10T11:11:01Z</time>
      </trkpt>
      <trkpt lat="42.29352" lon="3.28616">
        <ele>7.4</ele>
        <time>2024-11-10T11:11:02Z</time>
      </trkpt>
      <trkpt lat="42.29352" lon="3.28616">
        <ele>7.4</ele>
        <time>2024-11-10T11:11:03Z</time>
      </trkpt>
      <trkpt lat="42.29352" lon="3.28616">
        <ele>7.4</ele>
        <time>2024-11-10T11:11:04Z</time>
      </trkpt>
      <trkpt lat="42.29352" lon="3.28616">
        <ele>7.4</ele>
        <time>2024-11-10T11:11:05Z</time>
      </trkpt>
      <trkpt lat="42.29352" lon="3.28616">
        <ele>7.4</ele>
        <time>2024-11-10T11:11:06Z</time>
      </trkpt>
      <trkpt lat="42.29352" lon="3.28616">
        <ele>7.4</ele>
        <time>2024-11-10T11:11:07Z</time>
      </trkpt>
      <trkpt lat="42.29352" lon="3.28616">
        <ele>7.4</ele>
        <time>2024-11-10T11:11:08Z</time>
      </trkpt>
      <trkpt lat="42.29352" lon="3.28616">
        <ele>7.4</ele>
        <time>2024-11-10T11:11:09Z</time>
      </trkpt>
      <trkpt lat="42.29352" lon="3.28616">
        <ele>7.4</ele>
        <time>2024-11-10T11:11:10Z</time>
      </trkpt>
      <trkpt lat="42.29352" lon="3.28616">
        <ele>7.4</ele>
        <time>2024-11-10T11:11:11Z</time>
      </trkpt>
      <trkpt lat="42.29352" lon="3.28616">
        <ele>7.4</ele>
        <time>2024-11-10T11:11:12Z</time>
      </trkpt>
      <trkpt lat="42.29352" lon="3.28616">
        <ele>7.4</ele>
        <time>2024-11-10T11:11:13Z</time>
      </trkpt>
      <trkpt lat="42.29352" lon="3.28616">
        <ele>7.4</ele>
        <time>2024-11-10T11:11:14Z</time>
      </trkpt>
      <trkpt lat="42.29352" lon="3.28616">
        <ele>7.4</ele>
        <time>2024-11-10T11:11:15Z</time>
      </trkpt>
      <trkpt lat="42.29352" lon="3.28616">
        <ele>7.4</ele>
        <time>2024-11-10T11:11:16Z</time>
      </trkpt>
      <trkpt lat="42.29352" lon="3.28615">
        <ele>7.4</ele>
        <time>2024-11-10T11:11:17Z</time>
      </trkpt>
      <trkpt lat="42.29352" lon="3.28615">
        <ele>7.4</ele>
        <time>2024-11-10T11:11:18Z</time>
      </trkpt>
      <trkpt lat="42.29352" lon="3.28615">
        <ele>7.4</ele>
        <time>2024-11-10T11:11:19Z</time>
      </trkpt>
      <trkpt lat="42.29352" lon="3.28616">
        <ele>7.4</ele>
        <time>2024-11-10T11:11:20Z</time>
      </trkpt>
      <trkpt lat="42.29352" lon="3.28615">
        <ele>7.4</ele>
        <time>2024-11-10T11:11:21Z</time>
      </trkpt>
      <trkpt lat="42.29352" lon="3.28615">
        <ele>7.4</ele>
        <time>2024-11-10T11:11:22Z</time>
      </trkpt>
      <trkpt lat="42.29352" lon="3.28615">
        <ele>7.4</ele>
        <time>2024-11-10T11:11:23Z</time>
      </trkpt>
      <trkpt lat="42.29352" lon="3.28615">
        <ele>7.4</ele>
        <time>2024-11-10T11:11:24Z</time>
      </trkpt>
      <trkpt lat="42.29352" lon="3.28615">
        <ele>7.4</ele>
        <time>2024-11-10T11:11:25Z</time>
      </trkpt>
      <trkpt lat="42.29352" lon="3.28615">
        <ele>7.4</ele>
        <time>2024-11-10T11:11:26Z</time>
      </trkpt>
      <trkpt lat="42.29352" lon="3.28615">
        <ele>7.4</ele>
        <time>2024-11-10T11:11:27Z</time>
      </trkpt>
      <trkpt lat="42.29352" lon="3.28615">
        <ele>7.4</ele>
        <time>2024-11-10T11:11:28Z</time>
      </trkpt>
      <trkpt lat="42.29352" lon="3.28615">
        <ele>7.4</ele>
        <time>2024-11-10T11:11:29Z</time>
      </trkpt>
      <trkpt lat="42.29352" lon="3.28615">
        <ele>7.4</ele>
        <time>2024-11-10T11:11:30Z</time>
      </trkpt>
      <trkpt lat="42.29352" lon="3.28615">
        <ele>7.4</ele>
        <time>2024-11-10T11:11:31Z</time>
      </trkpt>
      <trkpt lat="42.29352" lon="3.28615">
        <ele>7.4</ele>
        <time>2024-11-10T11:11:32Z</time>
      </trkpt>
      <trkpt lat="42.29352" lon="3.28615">
        <ele>7.4</ele>
        <time>2024-11-10T11:11:33Z</time>
      </trkpt>
      <trkpt lat="42.29352" lon="3.28615">
        <ele>7.4</ele>
        <time>2024-11-10T11:11:34Z</time>
      </trkpt>
      <trkpt lat="42.29352" lon="3.28615">
        <ele>7.4</ele>
        <time>2024-11-10T11:11:35Z</time>
      </trkpt>
      <trkpt lat="42.29352" lon="3.28615">
        <ele>7.4</ele>
        <time>2024-11-10T11:11:36Z</time>
      </trkpt>
      <trkpt lat="42.29352" lon="3.28615">
        <ele>7.4</ele>
        <time>2024-11-10T11:11:37Z</time>
      </trkpt>
      <trkpt lat="42.29353" lon="3.28615">
        <ele>7.4</ele>
        <time>2024-11-10T11:11:38Z</time>
      </trkpt>
      <trkpt lat="42.29353" lon="3.28615">
        <ele>7.4</ele>
        <time>2024-11-10T11:11:39Z</time>
      </trkpt>
      <trkpt lat="42.29352" lon="3.28614">
        <ele>7.4</ele>
        <time>2024-11-10T11:11:40Z</time>
      </trkpt>
      <trkpt lat="42.29352" lon="3.28614">
        <ele>7.3</ele>
        <time>2024-11-10T11:11:41Z</time>
      </trkpt>
      <trkpt lat="42.29352" lon="3.28613">
        <ele>7.3</ele>
        <time>2024-11-10T11:11:42Z</time>
      </trkpt>
      <trkpt lat="42.29351" lon="3.28612">
        <ele>7.3</ele>
        <time>2024-11-10T11:11:43Z</time>
      </trkpt>
      <trkpt lat="42.29351" lon="3.28611">
        <ele>7.3</ele>
        <time>2024-11-10T11:11:44Z</time>
      </trkpt>
      <trkpt lat="42.2935" lon="3.2861">
        <ele>7.3</ele>
        <time>2024-11-10T11:11:45Z</time>
      </trkpt>
      <trkpt lat="42.29349" lon="3.28609">
        <ele>7.3</ele>
        <time>2024-11-10T11:11:46Z</time>
      </trkpt>
      <trkpt lat="42.29349" lon="3.28609">
        <ele>7.3</ele>
        <time>2024-11-10T11:11:47Z</time>
      </trkpt>
      <trkpt lat="42.29349" lon="3.28608">
        <ele>7.2</ele>
        <time>2024-11-10T11:11:48Z</time>
      </trkpt>
      <trkpt lat="42.29349" lon="3.28607">
        <ele>7.2</ele>
        <time>2024-11-10T11:11:49Z</time>
      </trkpt>
      <trkpt lat="42.29349" lon="3.28605">
        <ele>7.2</ele>
        <time>2024-11-10T11:11:50Z</time>
      </trkpt>
      <trkpt lat="42.29348" lon="3.28604">
        <ele>7.2</ele>
        <time>2024-11-10T11:11:51Z</time>
      </trkpt>
      <trkpt lat="42.29348" lon="3.28603">
        <ele>7.2</ele>
        <time>2024-11-10T11:11:52Z</time>
      </trkpt>
      <trkpt lat="42.29347" lon="3.28602">
        <ele>7.1</ele>
        <time>2024-11-10T11:11:53Z</time>
      </trkpt>
      <trkpt lat="42.29346" lon="3.28601">
        <ele>7.1</ele>
        <time>2024-11-10T11:11:54Z</time>
      </trkpt>
      <trkpt lat="42.29346" lon="3.28601">
        <ele>7.1</ele>
        <time>2024-11-10T11:11:55Z</time>
      </trkpt>
      <trkpt lat="42.29345" lon="3.28601">
        <ele>7.1</ele>
        <time>2024-11-10T11:11:56Z</time>
      </trkpt>
      <trkpt lat="42.29344" lon="3.28601">
        <ele>7.1</ele>
        <time>2024-11-10T11:11:57Z</time>
      </trkpt>
      <trkpt lat="42.29343" lon="3.286">
        <ele>7</ele>
        <time>2024-11-10T11:11:58Z</time>
      </trkpt>
      <trkpt lat="42.29342" lon="3.28599">
        <ele>7</ele>
        <time>2024-11-10T11:11:59Z</time>
      </trkpt>
      <trkpt lat="42.29342" lon="3.28598">
        <ele>7</ele>
        <time>2024-11-10T11:12:00Z</time>
      </trkpt>
      <trkpt lat="42.29342" lon="3.28597">
        <ele>7</ele>
        <time>2024-11-10T11:12:01Z</time>
      </trkpt>
      <trkpt lat="42.29341" lon="3.28596">
        <ele>7</ele>
        <time>2024-11-10T11:12:02Z</time>
      </trkpt>
      <trkpt lat="42.29341" lon="3.28595">
        <ele>6.9</ele>
        <time>2024-11-10T11:12:03Z</time>
      </trkpt>
      <trkpt lat="42.2934" lon="3.28595">
        <ele>6.9</ele>
        <time>2024-11-10T11:12:04Z</time>
      </trkpt>
      <trkpt lat="42.2934" lon="3.28595">
        <ele>6.9</ele>
        <time>2024-11-10T11:12:05Z</time>
      </trkpt>
      <trkpt lat="42.29339" lon="3.28596">
        <ele>6.9</ele>
        <time>2024-11-10T11:12:06Z</time>
      </trkpt>
      <trkpt lat="42.29339" lon="3.28596">
        <ele>6.9</ele>
        <time>2024-11-10T11:12:07Z</time>
      </trkpt>
      <trkpt lat="42.29339" lon="3.28596">
        <ele>6.9</ele>
        <time>2024-11-10T11:12:08Z</time>
      </trkpt>
      <trkpt lat="42.29338" lon="3.28596">
        <ele>6.9</ele>
        <time>2024-11-10T11:12:09Z</time>
      </trkpt>
      <trkpt lat="42.29338" lon="3.28596">
        <ele>6.9</ele>
        <time>2024-11-10T11:12:10Z</time>
      </trkpt>
      <trkpt lat="42.29337" lon="3.28595">
        <ele>6.8</ele>
        <time>2024-11-10T11:12:11Z</time>
      </trkpt>
      <trkpt lat="42.29337" lon="3.28594">
        <ele>6.8</ele>
        <time>2024-11-10T11:12:12Z</time>
      </trkpt>
      <trkpt lat="42.29336" lon="3.28593">
        <ele>6.8</ele>
        <time>2024-11-10T11:12:13Z</time>
      </trkpt>
      <trkpt lat="42.29336" lon="3.28592">
        <ele>6.8</ele>
        <time>2024-11-10T11:12:14Z</time>
      </trkpt>
      <trkpt lat="42.29335" lon="3.28591">
        <ele>6.8</ele>
        <time>2024-11-10T11:12:15Z</time>
      </trkpt>
      <trkpt lat="42.29335" lon="3.2859">
        <ele>6.7</ele>
        <time>2024-11-10T11:12:16Z</time>
      </trkpt>
      <trkpt lat="42.29335" lon="3.28589">
        <ele>6.7</ele>
        <time>2024-11-10T11:12:17Z</time>
      </trkpt>
      <trkpt lat="42.29334" lon="3.28588">
        <ele>6.7</ele>
        <time>2024-11-10T11:12:18Z</time>
      </trkpt>
      <trkpt lat="42.29334" lon="3.28586">
        <ele>6.7</ele>
        <time>2024-11-10T11:12:19Z</time>
      </trkpt>
      <trkpt lat="42.29334" lon="3.28585">
        <ele>6.7</ele>
        <time>2024-11-10T11:12:20Z</time>
      </trkpt>
      <trkpt lat="42.29335" lon="3.28584">
        <ele>6.7</ele>
        <time>2024-11-10T11:12:21Z</time>
      </trkpt>
      <trkpt lat="42.29334" lon="3.28583">
        <ele>6.6</ele>
        <time>2024-11-10T11:12:22Z</time>
      </trkpt>
      <trkpt lat="42.29334" lon="3.28583">
        <ele>6.6</ele>
        <time>2024-11-10T11:12:23Z</time>
      </trkpt>
      <trkpt lat="42.29334" lon="3.28582">
        <ele>6.6</ele>
        <time>2024-11-10T11:12:24Z</time>
      </trkpt>
      <trkpt lat="42.29333" lon="3.28581">
        <ele>6.6</ele>
        <time>2024-11-10T11:12:25Z</time>
      </trkpt>
      <trkpt lat="42.29333" lon="3.2858">
        <ele>6.6</ele>
        <time>2024-11-10T11:12:26Z</time>
      </trkpt>
      <trkpt lat="42.29333" lon="3.28579">
        <ele>6.6</ele>
        <time>2024-11-10T11:12:27Z</time>
      </trkpt>
      <trkpt lat="42.29333" lon="3.28578">
        <ele>6.5</ele>
        <time>2024-11-10T11:12:28Z</time>
      </trkpt>
      <trkpt lat="42.29333" lon="3.28577">
        <ele>6.5</ele>
        <time>2024-11-10T11:12:29Z</time>
      </trkpt>
      <trkpt lat="42.29333" lon="3.28576">
        <ele>6.5</ele>
        <time>2024-11-10T11:12:30Z</time>
      </trkpt>
      <trkpt lat="42.29332" lon="3.28575">
        <ele>6.5</ele>
        <time>2024-11-10T11:12:31Z</time>
      </trkpt>
      <trkpt lat="42.29332" lon="3.28574">
        <ele>6.5</ele>
        <time>2024-11-10T11:12:32Z</time>
      </trkpt>
      <trkpt lat="42.29332" lon="3.28574">
        <ele>6.5</ele>
        <time>2024-11-10T11:12:33Z</time>
      </trkpt>
      <trkpt lat="42.29332" lon="3.28573">
        <ele>6.5</ele>
        <time>2024-11-10T11:12:34Z</time>
      </trkpt>
      <trkpt lat="42.29332" lon="3.28572">
        <ele>6.4</ele>
        <time>2024-11-10T11:12:35Z</time>
      </trkpt>
      <trkpt lat="42.29331" lon="3.28571">
        <ele>6.4</ele>
        <time>2024-11-10T11:12:36Z</time>
      </trkpt>
      <trkpt lat="42.29331" lon="3.2857">
        <ele>6.4</ele>
        <time>2024-11-10T11:12:37Z</time>
      </trkpt>
      <trkpt lat="42.29331" lon="3.2857">
        <ele>6.4</ele>
        <time>2024-11-10T11:12:38Z</time>
      </trkpt>
      <trkpt lat="42.29331" lon="3.28569">
        <ele>6.4</ele>
        <time>2024-11-10T11:12:39Z</time>
      </trkpt>
      <trkpt lat="42.29331" lon="3.28569">
        <ele>6.4</ele>
        <time>2024-11-10T11:12:40Z</time>
      </trkpt>
      <trkpt lat="42.29331" lon="3.28568">
        <ele>6.4</ele>
        <time>2024-11-10T11:12:41Z</time>
      </trkpt>
      <trkpt lat="42.2933" lon="3.28568">
        <ele>6.4</ele>
        <time>2024-11-10T11:12:42Z</time>
      </trkpt>
      <trkpt lat="42.2933" lon="3.28567">
        <ele>6.4</ele>
        <time>2024-11-10T11:12:43Z</time>
      </trkpt>
      <trkpt lat="42.2933" lon="3.28567">
        <ele>6.4</ele>
        <time>2024-11-10T11:12:44Z</time>
      </trkpt>
      <trkpt lat="42.2933" lon="3.28567">
        <ele>6.4</ele>
        <time>2024-11-10T11:12:45Z</time>
      </trkpt>
      <trkpt lat="42.29329" lon="3.28566">
        <ele>6.3</ele>
        <time>2024-11-10T11:12:46Z</time>
      </trkpt>
      <trkpt lat="42.29329" lon="3.28566">
        <ele>6.3</ele>
        <time>2024-11-10T11:12:47Z</time>
      </trkpt>
      <trkpt lat="42.29329" lon="3.28565">
        <ele>6.3</ele>
        <time>2024-11-10T11:12:48Z</time>
      </trkpt>
      <trkpt lat="42.29328" lon="3.28564">
        <ele>6.3</ele>
        <time>2024-11-10T11:12:49Z</time>
      </trkpt>
      <trkpt lat="42.29328" lon="3.28564">
        <ele>6.3</ele>
        <time>2024-11-10T11:12:50Z</time>
      </trkpt>
      <trkpt lat="42.29328" lon="3.28563">
        <ele>6.3</ele>
        <time>2024-11-10T11:12:51Z</time>
      </trkpt>
      <trkpt lat="42.29327" lon="3.28563">
        <ele>6.3</ele>
        <time>2024-11-10T11:12:52Z</time>
      </trkpt>
      <trkpt lat="42.29327" lon="3.28562">
        <ele>6.3</ele>
        <time>2024-11-10T11:12:53Z</time>
      </trkpt>
      <trkpt lat="42.29327" lon="3.28562">
        <ele>6.3</ele>
        <time>2024-11-10T11:12:54Z</time>
      </trkpt>
      <trkpt lat="42.29326" lon="3.28562">
        <ele>6.3</ele>
        <time>2024-11-10T11:12:55Z</time>
      </trkpt>
      <trkpt lat="42.29326" lon="3.28562">
        <ele>6.2</ele>
        <time>2024-11-10T11:12:56Z</time>
      </trkpt>
      <trkpt lat="42.29326" lon="3.28562">
        <ele>6.2</ele>
        <time>2024-11-10T11:12:57Z</time>
      </trkpt>
      <trkpt lat="42.29326" lon="3.28562">
        <ele>6.2</ele>
        <time>2024-11-10T11:12:58Z</time>
      </trkpt>
      <trkpt lat="42.29326" lon="3.28562">
        <ele>6.2</ele>
        <time>2024-11-10T11:12:59Z</time>
      </trkpt>
      <trkpt lat="42.29326" lon="3.28562">
        <ele>6.2</ele>
        <time>2024-11-10T11:13:00Z</time>
      </trkpt>
      <trkpt lat="42.29325" lon="3.28562">
        <ele>6.2</ele>
        <time>2024-11-10T11:13:01Z</time>
      </trkpt>
      <trkpt lat="42.29325" lon="3.28562">
        <ele>6.2</ele>
        <time>2024-11-10T11:13:02Z</time>
      </trkpt>
      <trkpt lat="42.29325" lon="3.28561">
        <ele>6.2</ele>
        <time>2024-11-10T11:13:03Z</time>
      </trkpt>
      <trkpt lat="42.29325" lon="3.28562">
        <ele>6.2</ele>
        <time>2024-11-10T11:13:04Z</time>
      </trkpt>
      <trkpt lat="42.29325" lon="3.28562">
        <ele>6.2</ele>
        <time>2024-11-10T11:13:05Z</time>
      </trkpt>
      <trkpt lat="42.29325" lon="3.28562">
        <ele>6.2</ele>
        <time>2024-11-10T11:13:06Z</time>
      </trkpt>
      <trkpt lat="42.29325" lon="3.28563">
        <ele>6.2</ele>
        <time>2024-11-10T11:13:07Z</time>
      </trkpt>
      <trkpt lat="42.29326" lon="3.28563">
        <ele>6.2</ele>
        <time>2024-11-10T11:13:08Z</time>
      </trkpt>
      <trkpt lat="42.29326" lon="3.28564">
        <ele>6.2</ele>
        <time>2024-11-10T11:13:09Z</time>
      </trkpt>
      <trkpt lat="42.29326" lon="3.28565">
        <ele>6.2</ele>
        <time>2024-11-10T11:13:10Z</time>
      </trkpt>
      <trkpt lat="42.29326" lon="3.28565">
        <ele>6.2</ele>
        <time>2024-11-10T11:13:11Z</time>
      </trkpt>
      <trkpt lat="42.29326" lon="3.28565">
        <ele>6.2</ele>
        <time>2024-11-10T11:13:12Z</time>
      </trkpt>
      <trkpt lat="42.29326" lon="3.28566">
        <ele>6.1</ele>
        <time>2024-11-10T11:13:13Z</time>
      </trkpt>
      <trkpt lat="42.29327" lon="3.28567">
        <ele>6.1</ele>
        <time>2024-11-10T11:13:14Z</time>
      </trkpt>
      <trkpt lat="42.29328" lon="3.28569">
        <ele>6.1</ele>
        <time>2024-11-10T11:13:15Z</time>
      </trkpt>
      <trkpt lat="42.29329" lon="3.2857">
        <ele>6.1</ele>
        <time>2024-11-10T11:13:16Z</time>
      </trkpt>
      <trkpt lat="42.29329" lon="3.28571">
        <ele>6</ele>
        <time>2024-11-10T11:13:17Z</time>
      </trkpt>
      <trkpt lat="42.2933" lon="3.28572">
        <ele>6</ele>
        <time>2024-11-10T11:13:18Z</time>
      </trkpt>
      <trkpt lat="42.2933" lon="3.28573">
        <ele>6</ele>
        <time>2024-11-10T11:13:19Z</time>
      </trkpt>
      <trkpt lat="42.29331" lon="3.28574">
        <ele>6</ele>
        <time>2024-11-10T11:13:20Z</time>
      </trkpt>
      <trkpt lat="42.29332" lon="3.28575">
        <ele>6</ele>
        <time>2024-11-10T11:13:21Z</time>
      </trkpt>
      <trkpt lat="42.29332" lon="3.28576">
        <ele>5.9</ele>
        <time>2024-11-10T11:13:22Z</time>
      </trkpt>
      <trkpt lat="42.29333" lon="3.28577">
        <ele>5.9</ele>
        <time>2024-11-10T11:13:23Z</time>
      </trkpt>
      <trkpt lat="42.29333" lon="3.28578">
        <ele>5.9</ele>
        <time>2024-11-10T11:13:24Z</time>
      </trkpt>
      <trkpt lat="42.29334" lon="3.28579">
        <ele>5.9</ele>
        <time>2024-11-10T11:13:25Z</time>
      </trkpt>
      <trkpt lat="42.29334" lon="3.2858">
        <ele>5.9</ele>
        <time>2024-11-10T11:13:26Z</time>
      </trkpt>
      <trkpt lat="42.29334" lon="3.28581">
        <ele>5.8</ele>
        <time>2024-11-10T11:13:27Z</time>
      </trkpt>
      <trkpt lat="42.29335" lon="3.28582">
        <ele>5.8</ele>
        <time>2024-11-10T11:13:28Z</time>
      </trkpt>
      <trkpt lat="42.29335" lon="3.28583">
        <ele>5.8</ele>
        <time>2024-11-10T11:13:29Z</time>
      </trkpt>
      <trkpt lat="42.29335" lon="3.28584">
        <ele>5.8</ele>
        <time>2024-11-10T11:13:30Z</time>
      </trkpt>
      <trkpt lat="42.29335" lon="3.28586">
        <ele>5.8</ele>
        <time>2024-11-10T11:13:31Z</time>
      </trkpt>
      <trkpt lat="42.29335" lon="3.28586">
        <ele>5.8</ele>
        <time>2024-11-10T11:13:32Z</time>
      </trkpt>
      <trkpt lat="42.29336" lon="3.28587">
        <ele>5.7</ele>
        <time>2024-11-10T11:13:33Z</time>
      </trkpt>
      <trkpt lat="42.29337" lon="3.28588">
        <ele>5.7</ele>
        <time>2024-11-10T11:13:34Z</time>
      </trkpt>
      <trkpt lat="42.29337" lon="3.28589">
        <ele>5.7</ele>
        <time>2024-11-10T11:13:35Z</time>
      </trkpt>
      <trkpt lat="42.29338" lon="3.2859">
        <ele>5.7</ele>
        <time>2024-11-10T11:13:36Z</time>
      </trkpt>
      <trkpt lat="42.29338" lon="3.28591">
        <ele>5.7</ele>
        <time>2024-11-10T11:13:37Z</time>
      </trkpt>
      <trkpt lat="42.29339" lon="3.28593">
        <ele>5.6</ele>
        <time>2024-11-10T11:13:38Z</time>
      </trkpt>
      <trkpt lat="42.29339" lon="3.28594">
        <ele>5.6</ele>
        <time>2024-11-10T11:13:39Z</time>
      </trkpt>
      <trkpt lat="42.2934" lon="3.28595">
        <ele>5.6</ele>
        <time>2024-11-10T11:13:40Z</time>
      </trkpt>
      <trkpt lat="42.2934" lon="3.28596">
        <ele>5.6</ele>
        <time>2024-11-10T11:13:41Z</time>
      </trkpt>
      <trkpt lat="42.29341" lon="3.28597">
        <ele>5.6</ele>
        <time>2024-11-10T11:13:42Z</time>
      </trkpt>
      <trkpt lat="42.29342" lon="3.28598">
        <ele>5.5</ele>
        <time>2024-11-10T11:13:43Z</time>
      </trkpt>
      <trkpt lat="42.29343" lon="3.28598">
        <ele>5.5</ele>
        <time>2024-11-10T11:13:44Z</time>
      </trkpt>
      <trkpt lat="42.29344" lon="3.28599">
        <ele>5.5</ele>
        <time>2024-11-10T11:13:45Z</time>
      </trkpt>
      <trkpt lat="42.29344" lon="3.286">
        <ele>5.5</ele>
        <time>2024-11-10T11:13:46Z</time>
      </trkpt>
      <trkpt lat="42.29344" lon="3.28601">
        <ele>5.5</ele>
        <time>2024-11-10T11:13:47Z</time>
      </trkpt>
      <trkpt lat="42.29344" lon="3.28602">
        <ele>5.4</ele>
        <time>2024-11-10T11:13:48Z</time>
      </trkpt>
      <trkpt lat="42.29344" lon="3.28602">
        <ele>5.4</ele>
        <time>2024-11-10T11:13:49Z</time>
      </trkpt>
      <trkpt lat="42.29345" lon="3.28604">
        <ele>5.4</ele>
        <time>2024-11-10T11:13:50Z</time>
      </trkpt>
      <trkpt lat="42.29346" lon="3.28604">
        <ele>5.4</ele>
        <time>2024-11-10T11:13:51Z</time>
      </trkpt>
      <trkpt lat="42.29346" lon="3.28604">
        <ele>5.5</ele>
        <time>2024-11-10T11:13:52Z</time>
      </trkpt>
      <trkpt lat="42.29347" lon="3.28605">
        <ele>5.6</ele>
        <time>2024-11-10T11:13:53Z</time>
      </trkpt>
      <trkpt lat="42.29347" lon="3.28605">
        <ele>5.6</ele>
        <time>2024-11-10T11:13:54Z</time>
      </trkpt>
      <trkpt lat="42.29348" lon="3.28606">
        <ele>5.7</ele>
        <time>2024-11-10T11:13:55Z</time>
      </trkpt>
      <trkpt lat="42.2935" lon="3.28606">
        <ele>5.9</ele>
        <time>2024-11-10T11:13:56Z</time>
      </trkpt>
      <trkpt lat="42.2935" lon="3.28606">
        <ele>6</ele>
        <time>2024-11-10T11:13:57Z</time>
      </trkpt>
      <trkpt lat="42.29351" lon="3.28607">
        <ele>6.1</ele>
        <time>2024-11-10T11:13:58Z</time>
      </trkpt>
      <trkpt lat="42.29352" lon="3.28608">
        <ele>6.2</ele>
        <time>2024-11-10T11:13:59Z</time>
      </trkpt>
      <trkpt lat="42.29353" lon="3.28608">
        <ele>6.3</ele>
        <time>2024-11-10T11:14:00Z</time>
      </trkpt>
      <trkpt lat="42.29354" lon="3.28608">
        <ele>6.4</ele>
        <time>2024-11-10T11:14:01Z</time>
      </trkpt>
      <trkpt lat="42.29354" lon="3.28608">
        <ele>6.4</ele>
        <time>2024-11-10T11:14:02Z</time>
      </trkpt>
      <trkpt lat="42.29355" lon="3.28607">
        <ele>6.6</ele>
        <time>2024-11-10T11:14:03Z</time>
      </trkpt>
      <trkpt lat="42.29356" lon="3.28607">
        <ele>6.8</ele>
        <time>2024-11-10T11:14:04Z</time>
      </trkpt>
      <trkpt lat="42.29356" lon="3.28607">
        <ele>6.9</ele>
        <time>2024-11-10T11:14:05Z</time>
      </trkpt>
      <trkpt lat="42.29357" lon="3.28606">
        <ele>7.1</ele>
        <time>2024-11-10T11:14:06Z</time>
      </trkpt>
      <trkpt lat="42.29357" lon="3.28606">
        <ele>7.3</ele>
        <time>2024-11-10T11:14:07Z</time>
      </trkpt>
      <trkpt lat="42.29358" lon="3.28605">
        <ele>7.4</ele>
        <time>2024-11-10T11:14:08Z</time>
      </trkpt>
      <trkpt lat="42.29358" lon="3.28605">
        <ele>7.6</ele>
        <time>2024-11-10T11:14:09Z</time>
      </trkpt>
      <trkpt lat="42.29359" lon="3.28605">
        <ele>7.7</ele>
        <time>2024-11-10T11:14:10Z</time>
      </trkpt>
      <trkpt lat="42.2936" lon="3.28604">
        <ele>8</ele>
        <time>2024-11-10T11:14:11Z</time>
      </trkpt>
      <trkpt lat="42.2936" lon="3.28604">
        <ele>8</ele>
        <time>2024-11-10T11:14:12Z</time>
      </trkpt>
      <trkpt lat="42.29361" lon="3.28604">
        <ele>8.2</ele>
        <time>2024-11-10T11:14:13Z</time>
      </trkpt>
      <trkpt lat="42.29361" lon="3.28604">
        <ele>8.3</ele>
        <time>2024-11-10T11:14:14Z</time>
      </trkpt>
      <trkpt lat="42.29361" lon="3.28603">
        <ele>8.5</ele>
        <time>2024-11-10T11:14:15Z</time>
      </trkpt>
      <trkpt lat="42.29362" lon="3.28603">
        <ele>8.6</ele>
        <time>2024-11-10T11:14:16Z</time>
      </trkpt>
      <trkpt lat="42.29362" lon="3.28603">
        <ele>8.6</ele>
        <time>2024-11-10T11:14:17Z</time>
      </trkpt>
      <trkpt lat="42.29362" lon="3.28602">
        <ele>8.8</ele>
        <time>2024-11-10T11:14:18Z</time>
      </trkpt>
      <trkpt lat="42.29363" lon="3.28601">
        <ele>8.9</ele>
        <time>2024-11-10T11:14:19Z</time>
      </trkpt>
      <trkpt lat="42.29363" lon="3.28601">
        <ele>9.1</ele>
        <time>2024-11-10T11:14:20Z</time>
      </trkpt>
      <trkpt lat="42.29364" lon="3.286">
        <ele>9.4</ele>
        <time>2024-11-10T11:14:21Z</time>
      </trkpt>
      <trkpt lat="42.29364" lon="3.28599">
        <ele>9.5</ele>
        <time>2024-11-10T11:14:22Z</time>
      </trkpt>
      <trkpt lat="42.29365" lon="3.28597">
        <ele>9.9</ele>
        <time>2024-11-10T11:14:23Z</time>
      </trkpt>
      <trkpt lat="42.29364" lon="3.28596">
        <ele>10.1</ele>
        <time>2024-11-10T11:14:24Z</time>
      </trkpt>
      <trkpt lat="42.29364" lon="3.28595">
        <ele>10.3</ele>
        <time>2024-11-10T11:14:25Z</time>
      </trkpt>
      <trkpt lat="42.29364" lon="3.28594">
        <ele>10.5</ele>
        <time>2024-11-10T11:14:26Z</time>
      </trkpt>
      <trkpt lat="42.29364" lon="3.28593">
        <ele>10.6</ele>
        <time>2024-11-10T11:14:27Z</time>
      </trkpt>
      <trkpt lat="42.29363" lon="3.28593">
        <ele>10.8</ele>
        <time>2024-11-10T11:14:28Z</time>
      </trkpt>
      <trkpt lat="42.29363" lon="3.28592">
        <ele>10.9</ele>
        <time>2024-11-10T11:14:29Z</time>
      </trkpt>
      <trkpt lat="42.29363" lon="3.28591">
        <ele>11.1</ele>
        <time>2024-11-10T11:14:30Z</time>
      </trkpt>
      <trkpt lat="42.29362" lon="3.2859">
        <ele>11.2</ele>
        <time>2024-11-10T11:14:31Z</time>
      </trkpt>
      <trkpt lat="42.29362" lon="3.2859">
        <ele>11.4</ele>
        <time>2024-11-10T11:14:32Z</time>
      </trkpt>
      <trkpt lat="42.29362" lon="3.28589">
        <ele>11.4</ele>
        <time>2024-11-10T11:14:33Z</time>
      </trkpt>
      <trkpt lat="42.29362" lon="3.28589">
        <ele>11.5</ele>
        <time>2024-11-10T11:14:34Z</time>
      </trkpt>
      <trkpt lat="42.29362" lon="3.28588">
        <ele>11.6</ele>
        <time>2024-11-10T11:14:35Z</time>
      </trkpt>
      <trkpt lat="42.29362" lon="3.28586">
        <ele>11.9</ele>
        <time>2024-11-10T11:14:36Z</time>
      </trkpt>
      <trkpt lat="42.29362" lon="3.28586">
        <ele>12</ele>
        <time>2024-11-10T11:14:37Z</time>
      </trkpt>
      <trkpt lat="42.29362" lon="3.28585">
        <ele>12.1</ele>
        <time>2024-11-10T11:14:38Z</time>
      </trkpt>
      <trkpt lat="42.29362" lon="3.28585">
        <ele>12.2</ele>
        <time>2024-11-10T11:14:39Z</time>
      </trkpt>
      <trkpt lat="42.29362" lon="3.28585">
        <ele>12.3</ele>
        <time>2024-11-10T11:14:40Z</time>
      </trkpt>
      <trkpt lat="42.29362" lon="3.28586">
        <ele>12.3</ele>
        <time>2024-11-10T11:14:41Z</time>
      </trkpt>
      <trkpt lat="42.29363" lon="3.28586">
        <ele>12.4</ele>
        <time>2024-11-10T11:14:42Z</time>
      </trkpt>
      <trkpt lat="42.29363" lon="3.28586">
        <ele>12.4</ele>
        <time>2024-11-10T11:14:43Z</time>
      </trkpt>
      <trkpt lat="42.29363" lon="3.28586">
        <ele>12.5</ele>
        <time>2024-11-10T11:14:44Z</time>
      </trkpt>
      <trkpt lat="42.29363" lon="3.28586">
        <ele>12.6</ele>
        <time>2024-11-10T11:14:45Z</time>
      </trkpt>
      <trkpt lat="42.29364" lon="3.28586">
        <ele>12.7</ele>
        <time>2024-11-10T11:14:46Z</time>
      </trkpt>
      <trkpt lat="42.29364" lon="3.28586">
        <ele>12.7</ele>
        <time>2024-11-10T11:14:47Z</time>
      </trkpt>
      <trkpt lat="42.29364" lon="3.28586">
        <ele>12.7</ele>
        <time>2024-11-10T11:14:48Z</time>
      </trkpt>
      <trkpt lat="42.29364" lon="3.28586">
        <ele>12.8</ele>
        <time>2024-11-10T11:14:49Z</time>
      </trkpt>
      <trkpt lat="42.29364" lon="3.28585">
        <ele>12.9</ele>
        <time>2024-11-10T11:14:50Z</time>
      </trkpt>
      <trkpt lat="42.29364" lon="3.28585">
        <ele>12.9</ele>
        <time>2024-11-10T11:14:51Z</time>
      </trkpt>
      <trkpt lat="42.29364" lon="3.28585">
        <ele>12.9</ele>
        <time>2024-11-10T11:14:52Z</time>
      </trkpt>
      <trkpt lat="42.29364" lon="3.28585">
        <ele>13</ele>
        <time>2024-11-10T11:14:53Z</time>
      </trkpt>
      <trkpt lat="42.29364" lon="3.28585">
        <ele>13</ele>
        <time>2024-11-10T11:14:54Z</time>
      </trkpt>
      <trkpt lat="42.29364" lon="3.28585">
        <ele>13.1</ele>
        <time>2024-11-10T11:14:55Z</time>
      </trkpt>
      <trkpt lat="42.29365" lon="3.28585">
        <ele>13.2</ele>
        <time>2024-11-10T11:14:56Z</time>
      </trkpt>
      <trkpt lat="42.29365" lon="3.28585">
        <ele>13.3</ele>
        <time>2024-11-10T11:14:57Z</time>
      </trkpt>
      <trkpt lat="42.29366" lon="3.28585">
        <ele>13.4</ele>
        <time>2024-11-10T11:14:58Z</time>
      </trkpt>
      <trkpt lat="42.29366" lon="3.28585">
        <ele>13.6</ele>
        <time>2024-11-10T11:14:59Z</time>
      </trkpt>
      <trkpt lat="42.29367" lon="3.28583">
        <ele>13.8</ele>
        <time>2024-11-10T11:15:00Z</time>
      </trkpt>
      <trkpt lat="42.29367" lon="3.28583">
        <ele>14</ele>
        <time>2024-11-10T11:15:01Z</time>
      </trkpt>
      <trkpt lat="42.29368" lon="3.28582">
        <ele>14.2</ele>
        <time>2024-11-10T11:15:02Z</time>
      </trkpt>
      <trkpt lat="42.29368" lon="3.28581">
        <ele>14.4</ele>
        <time>2024-11-10T11:15:03Z</time>
      </trkpt>
      <trkpt lat="42.29369" lon="3.2858">
        <ele>14.6</ele>
        <time>2024-11-10T11:15:04Z</time>
      </trkpt>
      <trkpt lat="42.2937" lon="3.28579">
        <ele>14.8</ele>
        <time>2024-11-10T11:15:05Z</time>
      </trkpt>
      <trkpt lat="42.2937" lon="3.28578">
        <ele>15</ele>
        <time>2024-11-10T11:15:06Z</time>
      </trkpt>
      <trkpt lat="42.2937" lon="3.28576">
        <ele>15.4</ele>
        <time>2024-11-10T11:15:07Z</time>
      </trkpt>
      <trkpt lat="42.29371" lon="3.28575">
        <ele>15.5</ele>
        <time>2024-11-10T11:15:08Z</time>
      </trkpt>
      <trkpt lat="42.29371" lon="3.28574">
        <ele>15.8</ele>
        <time>2024-11-10T11:15:09Z</time>
      </trkpt>
      <trkpt lat="42.29371" lon="3.28572">
        <ele>16</ele>
        <time>2024-11-10T11:15:10Z</time>
      </trkpt>
      <trkpt lat="42.29371" lon="3.2857">
        <ele>16.3</ele>
        <time>2024-11-10T11:15:11Z</time>
      </trkpt>
      <trkpt lat="42.29371" lon="3.28569">
        <ele>16.5</ele>
        <time>2024-11-10T11:15:12Z</time>
      </trkpt>
      <trkpt lat="42.29371" lon="3.28568">
        <ele>16.7</ele>
        <time>2024-11-10T11:15:13Z</time>
      </trkpt>
      <trkpt lat="42.2937" lon="3.28567">
        <ele>16.9</ele>
        <time>2024-11-10T11:15:14Z</time>
      </trkpt>
      <trkpt lat="42.2937" lon="3.28566">
        <ele>17.1</ele>
        <time>2024-11-10T11:15:15Z</time>
      </trkpt>
      <trkpt lat="42.2937" lon="3.28565">
        <ele>17.2</ele>
        <time>2024-11-10T11:15:16Z</time>
      </trkpt>
      <trkpt lat="42.2937" lon="3.28563">
        <ele>17.4</ele>
        <time>2024-11-10T11:15:17Z</time>
      </trkpt>
      <trkpt lat="42.2937" lon="3.28562">
        <ele>17.5</ele>
        <time>2024-11-10T11:15:18Z</time>
      </trkpt>
      <trkpt lat="42.2937" lon="3.28561">
        <ele>17.7</ele>
        <time>2024-11-10T11:15:19Z</time>
      </trkpt>
      <trkpt lat="42.2937" lon="3.2856">
        <ele>17.8</ele>
        <time>2024-11-10T11:15:20Z</time>
      </trkpt>
      <trkpt lat="42.2937" lon="3.28559">
        <ele>17.9</ele>
        <time>2024-11-10T11:15:21Z</time>
      </trkpt>
      <trkpt lat="42.2937" lon="3.28559">
        <ele>18.1</ele>
        <time>2024-11-10T11:15:22Z</time>
      </trkpt>
      <trkpt lat="42.2937" lon="3.28557">
        <ele>18.2</ele>
        <time>2024-11-10T11:15:23Z</time>
      </trkpt>
      <trkpt lat="42.2937" lon="3.28557">
        <ele>18.3</ele>
        <time>2024-11-10T11:15:24Z</time>
      </trkpt>
      <trkpt lat="42.29371" lon="3.28556">
        <ele>18.5</ele>
        <time>2024-11-10T11:15:25Z</time>
      </trkpt>
      <trkpt lat="42.29371" lon="3.28555">
        <ele>18.5</ele>
        <time>2024-11-10T11:15:26Z</time>
      </trkpt>
      <trkpt lat="42.29371" lon="3.28554">
        <ele>18.6</ele>
        <time>2024-11-10T11:15:27Z</time>
      </trkpt>
      <trkpt lat="42.29372" lon="3.28553">
        <ele>18.8</ele>
        <time>2024-11-10T11:15:28Z</time>
      </trkpt>
      <trkpt lat="42.29372" lon="3.28552">
        <ele>18.9</ele>
        <time>2024-11-10T11:15:29Z</time>
      </trkpt>
      <trkpt lat="42.29372" lon="3.28551">
        <ele>19.1</ele>
        <time>2024-11-10T11:15:30Z</time>
      </trkpt>
      <trkpt lat="42.29373" lon="3.2855">
        <ele>19.2</ele>
        <time>2024-11-10T11:15:31Z</time>
      </trkpt>
      <trkpt lat="42.29373" lon="3.28549">
        <ele>19.3</ele>
        <time>2024-11-10T11:15:32Z</time>
      </trkpt>
      <trkpt lat="42.29373" lon="3.28548">
        <ele>19.4</ele>
        <time>2024-11-10T11:15:33Z</time>
      </trkpt>
      <trkpt lat="42.29373" lon="3.28547">
        <ele>19.6</ele>
        <time>2024-11-10T11:15:34Z</time>
      </trkpt>
      <trkpt lat="42.29373" lon="3.28546">
        <ele>19.7</ele>
        <time>2024-11-10T11:15:35Z</time>
      </trkpt>
      <trkpt lat="42.29374" lon="3.28545">
        <ele>19.8</ele>
        <time>2024-11-10T11:15:36Z</time>
      </trkpt>
      <trkpt lat="42.29374" lon="3.28544">
        <ele>19.9</ele>
        <time>2024-11-10T11:15:37Z</time>
      </trkpt>
      <trkpt lat="42.29375" lon="3.28544">
        <ele>20</ele>
        <time>2024-11-10T11:15:38Z</time>
      </trkpt>
      <trkpt lat="42.29375" lon="3.28543">
        <ele>20.1</ele>
        <time>2024-11-10T11:15:39Z</time>
      </trkpt>
      <trkpt lat="42.29376" lon="3.28542">
        <ele>20.3</ele>
        <time>2024-11-10T11:15:40Z</time>
      </trkpt>
      <trkpt lat="42.29377" lon="3.28541">
        <ele>20.4</ele>
        <time>2024-11-10T11:15:41Z</time>
      </trkpt>
      <trkpt lat="42.29377" lon="3.2854">
        <ele>20.5</ele>
        <time>2024-11-10T11:15:42Z</time>
      </trkpt>
      <trkpt lat="42.29377" lon="3.28539">
        <ele>20.6</ele>
        <time>2024-11-10T11:15:43Z</time>
      </trkpt>
      <trkpt lat="42.29377" lon="3.28538">
        <ele>20.6</ele>
        <time>2024-11-10T11:15:44Z</time>
      </trkpt>
      <trkpt lat="42.29377" lon="3.28537">
        <ele>20.6</ele>
        <time>2024-11-10T11:15:45Z</time>
      </trkpt>
      <trkpt lat="42.29377" lon="3.28536">
        <ele>20.6</ele>
        <time>2024-11-10T11:15:46Z</time>
      </trkpt>
      <trkpt lat="42.29378" lon="3.28535">
        <ele>20.6</ele>
        <time>2024-11-10T11:15:47Z</time>
      </trkpt>
      <trkpt lat="42.29378" lon="3.28535">
        <ele>20.7</ele>
        <time>2024-11-10T11:15:48Z</time>
      </trkpt>
      <trkpt lat="42.29378" lon="3.28534">
        <ele>20.7</ele>
        <time>2024-11-10T11:15:49Z</time>
      </trkpt>
      <trkpt lat="42.29379" lon="3.28533">
        <ele>20.7</ele>
        <time>2024-11-10T11:15:50Z</time>
      </trkpt>
      <trkpt lat="42.29379" lon="3.28532">
        <ele>20.7</ele>
        <time>2024-11-10T11:15:51Z</time>
      </trkpt>
      <trkpt lat="42.29379" lon="3.28531">
        <ele>20.7</ele>
        <time>2024-11-10T11:15:52Z</time>
      </trkpt>
      <trkpt lat="42.29379" lon="3.2853">
        <ele>20.7</ele>
        <time>2024-11-10T11:15:53Z</time>
      </trkpt>
      <trkpt lat="42.29379" lon="3.28528">
        <ele>20.7</ele>
        <time>2024-11-10T11:15:54Z</time>
      </trkpt>
      <trkpt lat="42.29379" lon="3.28527">
        <ele>20.8</ele>
        <time>2024-11-10T11:15:55Z</time>
      </trkpt>
      <trkpt lat="42.29379" lon="3.28527">
        <ele>20.8</ele>
        <time>2024-11-10T11:15:56Z</time>
      </trkpt>
      <trkpt lat="42.29378" lon="3.28526">
        <ele>20.8</ele>
        <time>2024-11-10T11:15:57Z</time>
      </trkpt>
      <trkpt lat="42.29377" lon="3.28526">
        <ele>20.9</ele>
        <time>2024-11-10T11:15:58Z</time>
      </trkpt>
      <trkpt lat="42.29376" lon="3.28526">
        <ele>20.9</ele>
        <time>2024-11-10T11:15:59Z</time>
      </trkpt>
      <trkpt lat="42.29375" lon="3.28526">
        <ele>20.9</ele>
        <time>2024-11-10T11:16:00Z</time>
      </trkpt>
      <trkpt lat="42.29374" lon="3.28526">
        <ele>21</ele>
        <time>2024-11-10T11:16:01Z</time>
      </trkpt>
      <trkpt lat="42.29373" lon="3.28526">
        <ele>21</ele>
        <time>2024-11-10T11:16:02Z</time>
      </trkpt>
      <trkpt lat="42.29372" lon="3.28525">
        <ele>21.1</ele>
        <time>2024-11-10T11:16:03Z</time>
      </trkpt>
      <trkpt lat="42.29371" lon="3.28525">
        <ele>21.1</ele>
        <time>2024-11-10T11:16:04Z</time>
      </trkpt>
      <trkpt lat="42.2937" lon="3.28524">
        <ele>21.2</ele>
        <time>2024-11-10T11:16:05Z</time>
      </trkpt>
      <trkpt lat="42.2937" lon="3.28523">
        <ele>21.2</ele>
        <time>2024-11-10T11:16:06Z</time>
      </trkpt>
      <trkpt lat="42.29369" lon="3.28523">
        <ele>21.3</ele>
        <time>2024-11-10T11:16:07Z</time>
      </trkpt>
      <trkpt lat="42.29368" lon="3.28523">
        <ele>21.3</ele>
        <time>2024-11-10T11:16:08Z</time>
      </trkpt>
      <trkpt lat="42.29368" lon="3.28522">
        <ele>21.3</ele>
        <time>2024-11-10T11:16:09Z</time>
      </trkpt>
      <trkpt lat="42.29367" lon="3.28521">
        <ele>21.4</ele>
        <time>2024-11-10T11:16:10Z</time>
      </trkpt>
      <trkpt lat="42.29367" lon="3.28521">
        <ele>21.4</ele>
        <time>2024-11-10T11:16:11Z</time>
      </trkpt>
      <trkpt lat="42.29366" lon="3.2852">
        <ele>21.4</ele>
        <time>2024-11-10T11:16:12Z</time>
      </trkpt>
      <trkpt lat="42.29366" lon="3.28519">
        <ele>21.5</ele>
        <time>2024-11-10T11:16:13Z</time>
      </trkpt>
      <trkpt lat="42.29365" lon="3.28518">
        <ele>21.5</ele>
        <time>2024-11-10T11:16:14Z</time>
      </trkpt>
      <trkpt lat="42.29365" lon="3.28516">
        <ele>21.6</ele>
        <time>2024-11-10T11:16:15Z</time>
      </trkpt>
      <trkpt lat="42.29365" lon="3.28515">
        <ele>21.7</ele>
        <time>2024-11-10T11:16:16Z</time>
      </trkpt>
      <trkpt lat="42.29364" lon="3.28514">
        <ele>21.7</ele>
        <time>2024-11-10T11:16:17Z</time>
      </trkpt>
      <trkpt lat="42.29364" lon="3.28513">
        <ele>21.7</ele>
        <time>2024-11-10T11:16:18Z</time>
      </trkpt>
      <trkpt lat="42.29363" lon="3.28512">
        <ele>21.8</ele>
        <time>2024-11-10T11:16:19Z</time>
      </trkpt>
      <trkpt lat="42.29363" lon="3.28511">
        <ele>21.8</ele>
        <time>2024-11-10T11:16:20Z</time>
      </trkpt>
      <trkpt lat="42.29363" lon="3.2851">
        <ele>21.9</ele>
        <time>2024-11-10T11:16:21Z</time>
      </trkpt>
      <trkpt lat="42.29362" lon="3.2851">
        <ele>21.9</ele>
        <time>2024-11-10T11:16:22Z</time>
      </trkpt>
      <trkpt lat="42.29362" lon="3.28509">
        <ele>22</ele>
        <time>2024-11-10T11:16:23Z</time>
      </trkpt>
      <trkpt lat="42.29361" lon="3.28508">
        <ele>22</ele>
        <time>2024-11-10T11:16:24Z</time>
      </trkpt>
      <trkpt lat="42.2936" lon="3.28507">
        <ele>22.1</ele>
        <time>2024-11-10T11:16:25Z</time>
      </trkpt>
      <trkpt lat="42.2936" lon="3.28506">
        <ele>22.1</ele>
        <time>2024-11-10T11:16:26Z</time>
      </trkpt>
      <trkpt lat="42.29359" lon="3.28507">
        <ele>22.2</ele>
        <time>2024-11-10T11:16:27Z</time>
      </trkpt>
      <trkpt lat="42.29359" lon="3.28507">
        <ele>22.2</ele>
        <time>2024-11-10T11:16:28Z</time>
      </trkpt>
      <trkpt lat="42.29359" lon="3.28507">
        <ele>22.2</ele>
        <time>2024-11-10T11:16:29Z</time>
      </trkpt>
      <trkpt lat="42.29358" lon="3.28506">
        <ele>22.3</ele>
        <time>2024-11-10T11:16:30Z</time>
      </trkpt>
      <trkpt lat="42.29358" lon="3.28506">
        <ele>22.3</ele>
        <time>2024-11-10T11:16:31Z</time>
      </trkpt>
      <trkpt lat="42.29358" lon="3.28506">
        <ele>22.3</ele>
        <time>2024-11-10T11:16:32Z</time>
      </trkpt>
      <trkpt lat="42.29358" lon="3.28506">
        <ele>22.3</ele>
        <time>2024-11-10T11:16:33Z</time>
      </trkpt>
      <trkpt lat="42.29358" lon="3.28505">
        <ele>22.3</ele>
        <time>2024-11-10T11:16:34Z</time>
      </trkpt>
      <trkpt lat="42.29358" lon="3.28505">
        <ele>22.3</ele>
        <time>2024-11-10T11:16:35Z</time>
      </trkpt>
      <trkpt lat="42.29358" lon="3.28505">
        <ele>22.3</ele>
        <time>2024-11-10T11:16:36Z</time>
      </trkpt>
      <trkpt lat="42.29358" lon="3.28505">
        <ele>22.4</ele>
        <time>2024-11-10T11:16:37Z</time>
      </trkpt>
      <trkpt lat="42.29358" lon="3.28504">
        <ele>22.4</ele>
        <time>2024-11-10T11:16:38Z</time>
      </trkpt>
      <trkpt lat="42.29358" lon="3.28504">
        <ele>22.4</ele>
        <time>2024-11-10T11:16:39Z</time>
      </trkpt>
      <trkpt lat="42.29357" lon="3.28504">
        <ele>22.4</ele>
        <time>2024-11-10T11:16:40Z</time>
      </trkpt>
      <trkpt lat="42.29357" lon="3.28504">
        <ele>22.4</ele>
        <time>2024-11-10T11:16:41Z</time>
      </trkpt>
      <trkpt lat="42.29357" lon="3.28504">
        <ele>22.4</ele>
        <time>2024-11-10T11:16:42Z</time>
      </trkpt>
      <trkpt lat="42.29357" lon="3.28503">
        <ele>22.4</ele>
        <time>2024-11-10T11:16:43Z</time>
      </trkpt>
      <trkpt lat="42.29357" lon="3.28503">
        <ele>22.4</ele>
        <time>2024-11-10T11:16:44Z</time>
      </trkpt>
      <trkpt lat="42.29357" lon="3.28503">
        <ele>22.5</ele>
        <time>2024-11-10T11:16:45Z</time>
      </trkpt>
      <trkpt lat="42.29357" lon="3.28503">
        <ele>22.5</ele>
        <time>2024-11-10T11:16:46Z</time>
      </trkpt>
      <trkpt lat="42.29357" lon="3.28502">
        <ele>22.5</ele>
        <time>2024-11-10T11:16:47Z</time>
      </trkpt>
      <trkpt lat="42.29357" lon="3.28502">
        <ele>22.5</ele>
        <time>2024-11-10T11:16:48Z</time>
      </trkpt>
      <trkpt lat="42.29357" lon="3.28502">
        <ele>22.5</ele>
        <time>2024-11-10T11:16:49Z</time>
      </trkpt>
      <trkpt lat="42.29357" lon="3.28501">
        <ele>22.6</ele>
        <time>2024-11-10T11:16:50Z</time>
      </trkpt>
      <trkpt lat="42.29356" lon="3.285">
        <ele>22.6</ele>
        <time>2024-11-10T11:16:51Z</time>
      </trkpt>
      <trkpt lat="42.29355" lon="3.285">
        <ele>22.7</ele>
        <time>2024-11-10T11:16:52Z</time>
      </trkpt>
      <trkpt lat="42.29354" lon="3.28499">
        <ele>22.8</ele>
        <time>2024-11-10T11:16:53Z</time>
      </trkpt>
      <trkpt lat="42.29354" lon="3.28498">
        <ele>22.8</ele>
        <time>2024-11-10T11:16:54Z</time>
      </trkpt>
      <trkpt lat="42.29353" lon="3.28497">
        <ele>22.9</ele>
        <time>2024-11-10T11:16:55Z</time>
      </trkpt>
      <trkpt lat="42.29352" lon="3.28497">
        <ele>23</ele>
        <time>2024-11-10T11:16:56Z</time>
      </trkpt>
      <trkpt lat="42.29352" lon="3.28496">
        <ele>23</ele>
        <time>2024-11-10T11:16:57Z</time>
      </trkpt>
      <trkpt lat="42.29351" lon="3.28495">
        <ele>23.1</ele>
        <time>2024-11-10T11:16:58Z</time>
      </trkpt>
      <trkpt lat="42.29351" lon="3.28495">
        <ele>23.1</ele>
        <time>2024-11-10T11:16:59Z</time>
      </trkpt>
      <trkpt lat="42.2935" lon="3.28494">
        <ele>23.2</ele>
        <time>2024-11-10T11:17:00Z</time>
      </trkpt>
      <trkpt lat="42.29349" lon="3.28494">
        <ele>23.3</ele>
        <time>2024-11-10T11:17:01Z</time>
      </trkpt>
      <trkpt lat="42.29348" lon="3.28493">
        <ele>23.3</ele>
        <time>2024-11-10T11:17:02Z</time>
      </trkpt>
      <trkpt lat="42.29348" lon="3.28493">
        <ele>23.4</ele>
        <time>2024-11-10T11:17:03Z</time>
      </trkpt>
      <trkpt lat="42.29347" lon="3.28493">
        <ele>23.4</ele>
        <time>2024-11-10T11:17:04Z</time>
      </trkpt>
      <trkpt lat="42.29346" lon="3.28492">
        <ele>23.5</ele>
        <time>2024-11-10T11:17:05Z</time>
      </trkpt>
      <trkpt lat="42.29346" lon="3.28492">
        <ele>23.5</ele>
        <time>2024-11-10T11:17:06Z</time>
      </trkpt>
      <trkpt lat="42.29345" lon="3.28492">
        <ele>23.6</ele>
        <time>2024-11-10T11:17:07Z</time>
      </trkpt>
      <trkpt lat="42.29344" lon="3.28491">
        <ele>23.7</ele>
        <time>2024-11-10T11:17:08Z</time>
      </trkpt>
      <trkpt lat="42.29344" lon="3.28491">
        <ele>23.7</ele>
        <time>2024-11-10T11:17:09Z</time>
      </trkpt>
      <trkpt lat="42.29343" lon="3.2849">
        <ele>23.8</ele>
        <time>2024-11-10T11:17:10Z</time>
      </trkpt>
      <trkpt lat="42.29342" lon="3.2849">
        <ele>23.9</ele>
        <time>2024-11-10T11:17:11Z</time>
      </trkpt>
      <trkpt lat="42.29341" lon="3.28489">
        <ele>23.9</ele>
        <time>2024-11-10T11:17:12Z</time>
      </trkpt>
      <trkpt lat="42.29341" lon="3.28489">
        <ele>24</ele>
        <time>2024-11-10T11:17:13Z</time>
      </trkpt>
      <trkpt lat="42.2934" lon="3.28489">
        <ele>24.1</ele>
        <time>2024-11-10T11:17:14Z</time>
      </trkpt>
      <trkpt lat="42.29339" lon="3.28488">
        <ele>24.1</ele>
        <time>2024-11-10T11:17:15Z</time>
      </trkpt>
      <trkpt lat="42.29338" lon="3.28488">
        <ele>24.2</ele>
        <time>2024-11-10T11:17:16Z</time>
      </trkpt>
      <trkpt lat="42.29338" lon="3.28488">
        <ele>24.3</ele>
        <time>2024-11-10T11:17:17Z</time>
      </trkpt>
      <trkpt lat="42.29337" lon="3.28487">
        <ele>24.3</ele>
        <time>2024-11-10T11:17:18Z</time>
      </trkpt>
      <trkpt lat="42.29336" lon="3.28487">
        <ele>24.4</ele>
        <time>2024-11-10T11:17:19Z</time>
      </trkpt>
      <trkpt lat="42.29335" lon="3.28487">
        <ele>24.5</ele>
        <time>2024-11-10T11:17:20Z</time>
      </trkpt>
      <trkpt lat="42.29334" lon="3.28486">
        <ele>24.6</ele>
        <time>2024-11-10T11:17:21Z</time>
      </trkpt>
      <trkpt lat="42.29334" lon="3.28485">
        <ele>24.7</ele>
        <time>2024-11-10T11:17:22Z</time>
      </trkpt>
      <trkpt lat="42.29333" lon="3.28485">
        <ele>24.8</ele>
        <time>2024-11-10T11:17:23Z</time>
      </trkpt>
      <trkpt lat="42.29332" lon="3.28484">
        <ele>24.9</ele>
        <time>2024-11-10T11:17:24Z</time>
      </trkpt>
      <trkpt lat="42.29332" lon="3.28483">
        <ele>24.9</ele>
        <time>2024-11-10T11:17:25Z</time>
      </trkpt>
      <trkpt lat="42.29331" lon="3.28483">
        <ele>25</ele>
        <time>2024-11-10T11:17:26Z</time>
      </trkpt>
      <trkpt lat="42.2933" lon="3.28482">
        <ele>25.1</ele>
        <time>2024-11-10T11:17:27Z</time>
      </trkpt>
      <trkpt lat="42.2933" lon="3.28482">
        <ele>25.2</ele>
        <time>2024-11-10T11:17:28Z</time>
      </trkpt>
      <trkpt lat="42.29329" lon="3.28481">
        <ele>25.3</ele>
        <time>2024-11-10T11:17:29Z</time>
      </trkpt>
      <trkpt lat="42.29328" lon="3.28481">
        <ele>25.4</ele>
        <time>2024-11-10T11:17:30Z</time>
      </trkpt>
      <trkpt lat="42.29327" lon="3.2848">
        <ele>25.5</ele>
        <time>2024-11-10T11:17:31Z</time>
      </trkpt>
      <trkpt lat="42.29327" lon="3.2848">
        <ele>25.5</ele>
        <time>2024-11-10T11:17:32Z</time>
      </trkpt>
      <trkpt lat="42.29326" lon="3.28479">
        <ele>25.6</ele>
        <time>2024-11-10T11:17:33Z</time>
      </trkpt>
      <trkpt lat="42.29326" lon="3.28478">
        <ele>25.7</ele>
        <time>2024-11-10T11:17:34Z</time>
      </trkpt>
      <trkpt lat="42.29325" lon="3.28477">
        <ele>25.8</ele>
        <time>2024-11-10T11:17:35Z</time>
      </trkpt>
      <trkpt lat="42.29325" lon="3.28476">
        <ele>25.9</ele>
        <time>2024-11-10T11:17:36Z</time>
      </trkpt>
      <trkpt lat="42.29324" lon="3.28476">
        <ele>26</ele>
        <time>2024-11-10T11:17:37Z</time>
      </trkpt>
      <trkpt lat="42.29323" lon="3.28475">
        <ele>26.1</ele>
        <time>2024-11-10T11:17:38Z</time>
      </trkpt>
      <trkpt lat="42.29323" lon="3.28475">
        <ele>26.2</ele>
        <time>2024-11-10T11:17:39Z</time>
      </trkpt>
      <trkpt lat="42.29322" lon="3.28475">
        <ele>26.3</ele>
        <time>2024-11-10T11:17:40Z</time>
      </trkpt>
      <trkpt lat="42.29321" lon="3.28474">
        <ele>26.4</ele>
        <time>2024-11-10T11:17:41Z</time>
      </trkpt>
      <trkpt lat="42.29321" lon="3.28473">
        <ele>26.5</ele>
        <time>2024-11-10T11:17:42Z</time>
      </trkpt>
      <trkpt lat="42.2932" lon="3.28473">
        <ele>26.6</ele>
        <time>2024-11-10T11:17:43Z</time>
      </trkpt>
      <trkpt lat="42.29319" lon="3.28472">
        <ele>26.7</ele>
        <time>2024-11-10T11:17:44Z</time>
      </trkpt>
      <trkpt lat="42.29319" lon="3.28472">
        <ele>26.7</ele>
        <time>2024-11-10T11:17:45Z</time>
      </trkpt>
      <trkpt lat="42.29318" lon="3.28471">
        <ele>26.8</ele>
        <time>2024-11-10T11:17:46Z</time>
      </trkpt>
      <trkpt lat="42.29317" lon="3.28471">
        <ele>26.9</ele>
        <time>2024-11-10T11:17:47Z</time>
      </trkpt>
      <trkpt lat="42.29317" lon="3.28471">
        <ele>27</ele>
        <time>2024-11-10T11:17:48Z</time>
      </trkpt>
      <trkpt lat="42.29316" lon="3.2847">
        <ele>27.1</ele>
        <time>2024-11-10T11:17:49Z</time>
      </trkpt>
      <trkpt lat="42.29315" lon="3.2847">
        <ele>27.2</ele>
        <time>2024-11-10T11:17:50Z</time>
      </trkpt>
      <trkpt lat="42.29315" lon="3.2847">
        <ele>27.2</ele>
        <time>2024-11-10T11:17:51Z</time>
      </trkpt>
      <trkpt lat="42.29314" lon="3.28469">
        <ele>27.3</ele>
        <time>2024-11-10T11:17:52Z</time>
      </trkpt>
      <trkpt lat="42.29314" lon="3.28469">
        <ele>27.4</ele>
        <time>2024-11-10T11:17:53Z</time>
      </trkpt>
      <trkpt lat="42.29313" lon="3.28468">
        <ele>27.5</ele>
        <time>2024-11-10T11:17:54Z</time>
      </trkpt>
      <trkpt lat="42.29313" lon="3.28468">
        <ele>27.6</ele>
        <time>2024-11-10T11:17:55Z</time>
      </trkpt>
      <trkpt lat="42.29312" lon="3.28467">
        <ele>27.7</ele>
        <time>2024-11-10T11:17:56Z</time>
      </trkpt>
      <trkpt lat="42.29311" lon="3.28467">
        <ele>27.8</ele>
        <time>2024-11-10T11:17:57Z</time>
      </trkpt>
      <trkpt lat="42.29311" lon="3.28467">
        <ele>27.9</ele>
        <time>2024-11-10T11:17:58Z</time>
      </trkpt>
      <trkpt lat="42.2931" lon="3.28467">
        <ele>27.9</ele>
        <time>2024-11-10T11:17:59Z</time>
      </trkpt>
      <trkpt lat="42.2931" lon="3.28467">
        <ele>28</ele>
        <time>2024-11-10T11:18:00Z</time>
      </trkpt>
      <trkpt lat="42.2931" lon="3.28467">
        <ele>28</ele>
        <time>2024-11-10T11:18:01Z</time>
      </trkpt>
      <trkpt lat="42.2931" lon="3.28467">
        <ele>28</ele>
        <time>2024-11-10T11:18:02Z</time>
      </trkpt>
      <trkpt lat="42.2931" lon="3.28468">
        <ele>28</ele>
        <time>2024-11-10T11:18:03Z</time>
      </trkpt>
      <trkpt lat="42.2931" lon="3.28468">
        <ele>28.1</ele>
        <time>2024-11-10T11:18:04Z</time>
      </trkpt>
      <trkpt lat="42.2931" lon="3.28468">
        <ele>28.1</ele>
        <time>2024-11-10T11:18:05Z</time>
      </trkpt>
      <trkpt lat="42.29309" lon="3.28468">
        <ele>28.1</ele>
        <time>2024-11-10T11:18:06Z</time>
      </trkpt>
      <trkpt lat="42.29309" lon="3.28468">
        <ele>28.1</ele>
        <time>2024-11-10T11:18:07Z</time>
      </trkpt>
      <trkpt lat="42.29309" lon="3.28468">
        <ele>28.1</ele>
        <time>2024-11-10T11:18:08Z</time>
      </trkpt>
      <trkpt lat="42.29309" lon="3.28468">
        <ele>28.1</ele>
        <time>2024-11-10T11:18:09Z</time>
      </trkpt>
      <trkpt lat="42.29309" lon="3.28468">
        <ele>28.1</ele>
        <time>2024-11-10T11:18:10Z</time>
      </trkpt>
      <trkpt lat="42.29309" lon="3.28468">
        <ele>28.1</ele>
        <time>2024-11-10T11:18:12Z</time>
      </trkpt>
      <trkpt lat="42.29309" lon="3.28469">
        <ele>28.2</ele>
        <time>2024-11-10T11:18:13Z</time>
      </trkpt>
      <trkpt lat="42.29309" lon="3.28469">
        <ele>28.2</ele>
        <time>2024-11-10T11:18:14Z</time>
      </trkpt>
      <trkpt lat="42.29309" lon="3.28469">
        <ele>28.2</ele>
        <time>2024-11-10T11:18:15Z</time>
      </trkpt>
      <trkpt lat="42.29309" lon="3.28469">
        <ele>28.2</ele>
        <time>2024-11-10T11:18:16Z</time>
      </trkpt>
      <trkpt lat="42.29309" lon="3.28469">
        <ele>28.2</ele>
        <time>2024-11-10T11:18:17Z</time>
      </trkpt>
      <trkpt lat="42.29309" lon="3.28469">
        <ele>28.2</ele>
        <time>2024-11-10T11:18:18Z</time>
      </trkpt>
      <trkpt lat="42.29309" lon="3.28469">
        <ele>28.2</ele>
        <time>2024-11-10T11:18:19Z</time>
      </trkpt>
      <trkpt lat="42.29309" lon="3.28469">
        <ele>28.2</ele>
        <time>2024-11-10T11:18:20Z</time>
      </trkpt>
      <trkpt lat="42.29309" lon="3.28469">
        <ele>28.3</ele>
        <time>2024-11-10T11:18:21Z</time>
      </trkpt>
      <trkpt lat="42.29309" lon="3.2847">
        <ele>28.3</ele>
        <time>2024-11-10T11:18:22Z</time>
      </trkpt>
      <trkpt lat="42.29254" lon="3.28425">
        <ele>35.1</ele>
        <time>2024-11-10T11:21:11Z</time>
      </trkpt>
      <trkpt lat="42.29255" lon="3.28424">
        <ele>35.2</ele>
        <time>2024-11-10T11:21:13Z</time>
      </trkpt>
      <trkpt lat="42.29254" lon="3.28423">
        <ele>35.3</ele>
        <time>2024-11-10T11:21:14Z</time>
      </trkpt>
      <trkpt lat="42.29252" lon="3.28423">
        <ele>35.6</ele>
        <time>2024-11-10T11:21:16Z</time>
      </trkpt>
      <trkpt lat="42.29251" lon="3.28422">
        <ele>35.7</ele>
        <time>2024-11-10T11:21:17Z</time>
      </trkpt>
      <trkpt lat="42.2925" lon="3.28421">
        <ele>35.8</ele>
        <time>2024-11-10T11:21:18Z</time>
      </trkpt>
      <trkpt lat="42.2925" lon="3.28421">
        <ele>35.9</ele>
        <time>2024-11-10T11:21:19Z</time>
      </trkpt>
      <trkpt lat="42.29249" lon="3.2842">
        <ele>36</ele>
        <time>2024-11-10T11:21:20Z</time>
      </trkpt>
      <trkpt lat="42.29248" lon="3.2842">
        <ele>36.1</ele>
        <time>2024-11-10T11:21:21Z</time>
      </trkpt>
      <trkpt lat="42.29246" lon="3.28421">
        <ele>36.4</ele>
        <time>2024-11-10T11:21:22Z</time>
      </trkpt>
      <trkpt lat="42.29245" lon="3.2842">
        <ele>36.5</ele>
        <time>2024-11-10T11:21:23Z</time>
      </trkpt>
      <trkpt lat="42.29244" lon="3.2842">
        <ele>36.6</ele>
        <time>2024-11-10T11:21:24Z</time>
      </trkpt>
      <trkpt lat="42.29243" lon="3.2842">
        <ele>36.7</ele>
        <time>2024-11-10T11:21:25Z</time>
      </trkpt>
      <trkpt lat="42.29243" lon="3.2842">
        <ele>36.8</ele>
        <time>2024-11-10T11:21:26Z</time>
      </trkpt>
      <trkpt lat="42.29241" lon="3.28419">
        <ele>37</ele>
        <time>2024-11-10T11:21:27Z</time>
      </trkpt>
      <trkpt lat="42.2924" lon="3.28419">
        <ele>37.1</ele>
        <time>2024-11-10T11:21:29Z</time>
      </trkpt>
      <trkpt lat="42.2924" lon="3.28419">
        <ele>37.2</ele>
        <time>2024-11-10T11:21:30Z</time>
      </trkpt>
      <trkpt lat="42.29239" lon="3.28419">
        <ele>37.3</ele>
        <time>2024-11-10T11:21:31Z</time>
      </trkpt>
      <trkpt lat="42.29237" lon="3.28418">
        <ele>37.5</ele>
        <time>2024-11-10T11:21:32Z</time>
      </trkpt>
      <trkpt lat="42.29237" lon="3.28418">
        <ele>37.6</ele>
        <time>2024-11-10T11:21:33Z</time>
      </trkpt>
      <trkpt lat="42.29236" lon="3.28417">
        <ele>37.7</ele>
        <time>2024-11-10T11:21:34Z</time>
      </trkpt>
      <trkpt lat="42.29236" lon="3.28417">
        <ele>37.8</ele>
        <time>2024-11-10T11:21:35Z</time>
      </trkpt>
      <trkpt lat="42.29235" lon="3.28416">
        <ele>37.9</ele>
        <time>2024-11-10T11:21:36Z</time>
      </trkpt>
      <trkpt lat="42.29234" lon="3.28416">
        <ele>38</ele>
        <time>2024-11-10T11:21:37Z</time>
      </trkpt>
      <trkpt lat="42.29233" lon="3.28415">
        <ele>38.2</ele>
        <time>2024-11-10T11:21:38Z</time>
      </trkpt>
      <trkpt lat="42.29232" lon="3.28415">
        <ele>38.3</ele>
        <time>2024-11-10T11:21:39Z</time>
      </trkpt>
      <trkpt lat="42.29231" lon="3.28414">
        <ele>38.4</ele>
        <time>2024-11-10T11:21:40Z</time>
      </trkpt>
      <trkpt lat="42.2923" lon="3.28413">
        <ele>38.5</ele>
        <time>2024-11-10T11:21:41Z</time>
      </trkpt>
      <trkpt lat="42.29229" lon="3.28412">
        <ele>38.7</ele>
        <time>2024-11-10T11:21:42Z</time>
      </trkpt>
      <trkpt lat="42.29229" lon="3.28411">
        <ele>38.8</ele>
        <time>2024-11-10T11:21:43Z</time>
      </trkpt>
      <trkpt lat="42.29228" lon="3.28411">
        <ele>38.9</ele>
        <time>2024-11-10T11:21:44Z</time>
      </trkpt>
      <trkpt lat="42.29227" lon="3.2841">
        <ele>39</ele>
        <time>2024-11-10T11:21:45Z</time>
      </trkpt>
      <trkpt lat="42.29226" lon="3.2841">
        <ele>39.1</ele>
        <time>2024-11-10T11:21:46Z</time>
      </trkpt>
      <trkpt lat="42.29225" lon="3.28409">
        <ele>39.2</ele>
        <time>2024-11-10T11:21:47Z</time>
      </trkpt>
      <trkpt lat="42.29224" lon="3.28408">
        <ele>39.4</ele>
        <time>2024-11-10T11:21:48Z</time>
      </trkpt>
      <trkpt lat="42.29224" lon="3.28407">
        <ele>39.5</ele>
        <time>2024-11-10T11:21:49Z</time>
      </trkpt>
      <trkpt lat="42.29223" lon="3.28406">
        <ele>39.6</ele>
        <time>2024-11-10T11:21:50Z</time>
      </trkpt>
      <trkpt lat="42.29223" lon="3.28405">
        <ele>39.7</ele>
        <time>2024-11-10T11:21:51Z</time>
      </trkpt>
      <trkpt lat="42.29222" lon="3.28404">
        <ele>39.8</ele>
        <time>2024-11-10T11:21:52Z</time>
      </trkpt>
      <trkpt lat="42.29221" lon="3.28403">
        <ele>39.9</ele>
        <time>2024-11-10T11:21:53Z</time>
      </trkpt>
      <trkpt lat="42.2922" lon="3.28402">
        <ele>40</ele>
        <time>2024-11-10T11:21:54Z</time>
      </trkpt>
      <trkpt lat="42.2922" lon="3.28401">
        <ele>40.1</ele>
        <time>2024-11-10T11:21:55Z</time>
      </trkpt>
      <trkpt lat="42.29219" lon="3.284">
        <ele>40.2</ele>
        <time>2024-11-10T11:21:56Z</time>
      </trkpt>
      <trkpt lat="42.29218" lon="3.28399">
        <ele>40.3</ele>
        <time>2024-11-10T11:21:57Z</time>
      </trkpt>
      <trkpt lat="42.29217" lon="3.28399">
        <ele>40.4</ele>
        <time>2024-11-10T11:21:58Z</time>
      </trkpt>
      <trkpt lat="42.29216" lon="3.28398">
        <ele>40.5</ele>
        <time>2024-11-10T11:21:59Z</time>
      </trkpt>
      <trkpt lat="42.29215" lon="3.28397">
        <ele>40.6</ele>
        <time>2024-11-10T11:22:00Z</time>
      </trkpt>
      <trkpt lat="42.29214" lon="3.28397">
        <ele>40.6</ele>
        <time>2024-11-10T11:22:01Z</time>
      </trkpt>
      <trkpt lat="42.29213" lon="3.28396">
        <ele>40.7</ele>
        <time>2024-11-10T11:22:02Z</time>
      </trkpt>
      <trkpt lat="42.29212" lon="3.28395">
        <ele>40.8</ele>
        <time>2024-11-10T11:22:03Z</time>
      </trkpt>
      <trkpt lat="42.29211" lon="3.28394">
        <ele>41</ele>
        <time>2024-11-10T11:22:04Z</time>
      </trkpt>
      <trkpt lat="42.2921" lon="3.28394">
        <ele>41</ele>
        <time>2024-11-10T11:22:05Z</time>
      </trkpt>
      <trkpt lat="42.29209" lon="3.28393">
        <ele>41.1</ele>
        <time>2024-11-10T11:22:06Z</time>
      </trkpt>
      <trkpt lat="42.29208" lon="3.28392">
        <ele>41.2</ele>
        <time>2024-11-10T11:22:07Z</time>
      </trkpt>
      <trkpt lat="42.29207" lon="3.28392">
        <ele>41.3</ele>
        <time>2024-11-10T11:22:08Z</time>
      </trkpt>
      <trkpt lat="42.29207" lon="3.2839">
        <ele>41.3</ele>
        <time>2024-11-10T11:22:09Z</time>
      </trkpt>
      <trkpt lat="42.29207" lon="3.2839">
        <ele>41.3</ele>
        <time>2024-11-10T11:22:10Z</time>
      </trkpt>
      <trkpt lat="42.29206" lon="3.28389">
        <ele>41.3</ele>
        <time>2024-11-10T11:22:11Z</time>
      </trkpt>
      <trkpt lat="42.29206" lon="3.28389">
        <ele>41.3</ele>
        <time>2024-11-10T11:22:12Z</time>
      </trkpt>
      <trkpt lat="42.29206" lon="3.28389">
        <ele>41.3</ele>
        <time>2024-11-10T11:22:13Z</time>
      </trkpt>
      <trkpt lat="42.29206" lon="3.28389">
        <ele>41.4</ele>
        <time>2024-11-10T11:22:14Z</time>
      </trkpt>
      <trkpt lat="42.29206" lon="3.28388">
        <ele>41.4</ele>
        <time>2024-11-10T11:22:15Z</time>
      </trkpt>
      <trkpt lat="42.29206" lon="3.28388">
        <ele>41.4</ele>
        <time>2024-11-10T11:22:16Z</time>
      </trkpt>
      <trkpt lat="42.29205" lon="3.28388">
        <ele>41.4</ele>
        <time>2024-11-10T11:22:17Z</time>
      </trkpt>
      <trkpt lat="42.29205" lon="3.28387">
        <ele>41.4</ele>
        <time>2024-11-10T11:22:18Z</time>
      </trkpt>
      <trkpt lat="42.29205" lon="3.28387">
        <ele>41.4</ele>
        <time>2024-11-10T11:22:19Z</time>
      </trkpt>
      <trkpt lat="42.29203" lon="3.28386">
        <ele>41.4</ele>
        <time>2024-11-10T11:22:20Z</time>
      </trkpt>
      <trkpt lat="42.29203" lon="3.28385">
        <ele>41.4</ele>
        <time>2024-11-10T11:22:21Z</time>
      </trkpt>
      <trkpt lat="42.29202" lon="3.28385">
        <ele>41.5</ele>
        <time>2024-11-10T11:22:22Z</time>
      </trkpt>
      <trkpt lat="42.29201" lon="3.28384">
        <ele>41.5</ele>
        <time>2024-11-10T11:22:23Z</time>
      </trkpt>
      <trkpt lat="42.29201" lon="3.28382">
        <ele>41.5</ele>
        <time>2024-11-10T11:22:24Z</time>
      </trkpt>
      <trkpt lat="42.292" lon="3.28382">
        <ele>41.5</ele>
        <time>2024-11-10T11:22:25Z</time>
      </trkpt>
      <trkpt lat="42.29199" lon="3.28381">
        <ele>41.5</ele>
        <time>2024-11-10T11:22:26Z</time>
      </trkpt>
      <trkpt lat="42.29198" lon="3.2838">
        <ele>41.5</ele>
        <time>2024-11-10T11:22:27Z</time>
      </trkpt>
      <trkpt lat="42.29197" lon="3.28379">
        <ele>41.6</ele>
        <time>2024-11-10T11:22:28Z</time>
      </trkpt>
      <trkpt lat="42.29196" lon="3.28377">
        <ele>41.6</ele>
        <time>2024-11-10T11:22:29Z</time>
      </trkpt>
      <trkpt lat="42.29196" lon="3.28376">
        <ele>41.6</ele>
        <time>2024-11-10T11:22:30Z</time>
      </trkpt>
      <trkpt lat="42.29195" lon="3.28375">
        <ele>41.6</ele>
        <time>2024-11-10T11:22:31Z</time>
      </trkpt>
      <trkpt lat="42.29194" lon="3.28373">
        <ele>41.7</ele>
        <time>2024-11-10T11:22:32Z</time>
      </trkpt>
      <trkpt lat="42.29194" lon="3.28372">
        <ele>41.7</ele>
        <time>2024-11-10T11:22:33Z</time>
      </trkpt>
      <trkpt lat="42.29194" lon="3.28371">
        <ele>41.7</ele>
        <time>2024-11-10T11:22:34Z</time>
      </trkpt>
      <trkpt lat="42.29193" lon="3.28369">
        <ele>41.7</ele>
        <time>2024-11-10T11:22:35Z</time>
      </trkpt>
      <trkpt lat="42.29192" lon="3.28368">
        <ele>41.7</ele>
        <time>2024-11-10T11:22:36Z</time>
      </trkpt>
      <trkpt lat="42.29191" lon="3.28367">
        <ele>41.7</ele>
        <time>2024-11-10T11:22:37Z</time>
      </trkpt>
      <trkpt lat="42.29191" lon="3.28367">
        <ele>41.7</ele>
        <time>2024-11-10T11:22:38Z</time>
      </trkpt>
      <trkpt lat="42.2919" lon="3.28365">
        <ele>41.7</ele>
        <time>2024-11-10T11:22:39Z</time>
      </trkpt>
      <trkpt lat="42.2919" lon="3.28364">
        <ele>41.8</ele>
        <time>2024-11-10T11:22:40Z</time>
      </trkpt>
      <trkpt lat="42.2919" lon="3.28363">
        <ele>41.8</ele>
        <time>2024-11-10T11:22:41Z</time>
      </trkpt>
      <trkpt lat="42.2919" lon="3.28362">
        <ele>41.8</ele>
        <time>2024-11-10T11:22:42Z</time>
      </trkpt>
      <trkpt lat="42.2919" lon="3.28361">
        <ele>41.8</ele>
        <time>2024-11-10T11:22:43Z</time>
      </trkpt>
      <trkpt lat="42.2919" lon="3.28361">
        <ele>41.8</ele>
        <time>2024-11-10T11:22:44Z</time>
      </trkpt>
      <trkpt lat="42.2919" lon="3.28362">
        <ele>41.8</ele>
        <time>2024-11-10T11:22:45Z</time>
      </trkpt>
      <trkpt lat="42.29189" lon="3.28362">
        <ele>41.8</ele>
        <time>2024-11-10T11:22:46Z</time>
      </trkpt>
      <trkpt lat="42.29189" lon="3.28363">
        <ele>41.8</ele>
        <time>2024-11-10T11:22:47Z</time>
      </trkpt>
      <trkpt lat="42.29189" lon="3.28363">
        <ele>41.8</ele>
        <time>2024-11-10T11:22:49Z</time>
      </trkpt>
      <trkpt lat="42.29189" lon="3.28363">
        <ele>41.8</ele>
        <time>2024-11-10T11:22:50Z</time>
      </trkpt>
      <trkpt lat="42.29189" lon="3.28362">
        <ele>41.8</ele>
        <time>2024-11-10T11:22:51Z</time>
      </trkpt>
      <trkpt lat="42.29189" lon="3.2836">
        <ele>41.8</ele>
        <time>2024-11-10T11:22:53Z</time>
      </trkpt>
      <trkpt lat="42.29189" lon="3.28359">
        <ele>41.8</ele>
        <time>2024-11-10T11:22:54Z</time>
      </trkpt>
      <trkpt lat="42.29189" lon="3.28359">
        <ele>41.8</ele>
        <time>2024-11-10T11:22:55Z</time>
      </trkpt>
      <trkpt lat="42.29188" lon="3.28358">
        <ele>41.8</ele>
        <time>2024-11-10T11:22:56Z</time>
      </trkpt>
      <trkpt lat="42.29188" lon="3.28357">
        <ele>41.9</ele>
        <time>2024-11-10T11:22:57Z</time>
      </trkpt>
      <trkpt lat="42.29188" lon="3.28356">
        <ele>41.9</ele>
        <time>2024-11-10T11:22:58Z</time>
      </trkpt>
      <trkpt lat="42.29187" lon="3.28355">
        <ele>41.9</ele>
        <time>2024-11-10T11:22:59Z</time>
      </trkpt>
      <trkpt lat="42.29186" lon="3.28354">
        <ele>41.9</ele>
        <time>2024-11-10T11:23:00Z</time>
      </trkpt>
      <trkpt lat="42.29186" lon="3.28353">
        <ele>41.9</ele>
        <time>2024-11-10T11:23:01Z</time>
      </trkpt>
      <trkpt lat="42.29185" lon="3.28351">
        <ele>41.9</ele>
        <time>2024-11-10T11:23:04Z</time>
      </trkpt>
      <trkpt lat="42.29184" lon="3.2835">
        <ele>41.9</ele>
        <time>2024-11-10T11:23:05Z</time>
      </trkpt>
      <trkpt lat="42.29184" lon="3.28348">
        <ele>42</ele>
        <time>2024-11-10T11:23:06Z</time>
      </trkpt>
      <trkpt lat="42.29183" lon="3.28347">
        <ele>42</ele>
        <time>2024-11-10T11:23:07Z</time>
      </trkpt>
      <trkpt lat="42.29183" lon="3.28346">
        <ele>42</ele>
        <time>2024-11-10T11:23:08Z</time>
      </trkpt>
      <trkpt lat="42.29183" lon="3.28345">
        <ele>42</ele>
        <time>2024-11-10T11:23:09Z</time>
      </trkpt>
      <trkpt lat="42.29182" lon="3.28343">
        <ele>42</ele>
        <time>2024-11-10T11:23:10Z</time>
      </trkpt>
      <trkpt lat="42.29182" lon="3.28342">
        <ele>42</ele>
        <time>2024-11-10T11:23:11Z</time>
      </trkpt>
      <trkpt lat="42.29181" lon="3.2834">
        <ele>42</ele>
        <time>2024-11-10T11:23:12Z</time>
      </trkpt>
      <trkpt lat="42.29181" lon="3.28338">
        <ele>42</ele>
        <time>2024-11-10T11:23:14Z</time>
      </trkpt>
      <trkpt lat="42.2918" lon="3.28335">
        <ele>42.1</ele>
        <time>2024-11-10T11:23:15Z</time>
      </trkpt>
      <trkpt lat="42.2918" lon="3.28334">
        <ele>42.1</ele>
        <time>2024-11-10T11:23:16Z</time>
      </trkpt>
      <trkpt lat="42.29179" lon="3.28333">
        <ele>42.1</ele>
        <time>2024-11-10T11:23:17Z</time>
      </trkpt>
      <trkpt lat="42.29179" lon="3.28331">
        <ele>42.1</ele>
        <time>2024-11-10T11:23:18Z</time>
      </trkpt>
      <trkpt lat="42.29178" lon="3.2833">
        <ele>42.1</ele>
        <time>2024-11-10T11:23:19Z</time>
      </trkpt>
      <trkpt lat="42.29178" lon="3.28329">
        <ele>42.1</ele>
        <time>2024-11-10T11:23:20Z</time>
      </trkpt>
      <trkpt lat="42.29178" lon="3.28328">
        <ele>42.1</ele>
        <time>2024-11-10T11:23:21Z</time>
      </trkpt>
      <trkpt lat="42.29178" lon="3.28326">
        <ele>42.1</ele>
        <time>2024-11-10T11:23:22Z</time>
      </trkpt>
      <trkpt lat="42.29177" lon="3.28325">
        <ele>42.1</ele>
        <time>2024-11-10T11:23:24Z</time>
      </trkpt>
      <trkpt lat="42.29177" lon="3.28323">
        <ele>42.1</ele>
        <time>2024-11-10T11:23:25Z</time>
      </trkpt>
      <trkpt lat="42.29177" lon="3.28322">
        <ele>42.1</ele>
        <time>2024-11-10T11:23:26Z</time>
      </trkpt>
      <trkpt lat="42.29176" lon="3.2832">
        <ele>42.2</ele>
        <time>2024-11-10T11:23:27Z</time>
      </trkpt>
      <trkpt lat="42.29176" lon="3.28319">
        <ele>42.2</ele>
        <time>2024-11-10T11:23:28Z</time>
      </trkpt>
      <trkpt lat="42.29176" lon="3.28317">
        <ele>42.2</ele>
        <time>2024-11-10T11:23:29Z</time>
      </trkpt>
      <trkpt lat="42.29176" lon="3.28316">
        <ele>42.2</ele>
        <time>2024-11-10T11:23:30Z</time>
      </trkpt>
      <trkpt lat="42.29176" lon="3.28315">
        <ele>42.2</ele>
        <time>2024-11-10T11:23:31Z</time>
      </trkpt>
      <trkpt lat="42.29176" lon="3.28314">
        <ele>42.2</ele>
        <time>2024-11-10T11:23:32Z</time>
      </trkpt>
      <trkpt lat="42.29175" lon="3.28313">
        <ele>42.2</ele>
        <time>2024-11-10T11:23:33Z</time>
      </trkpt>
      <trkpt lat="42.29175" lon="3.28313">
        <ele>42.2</ele>
        <time>2024-11-10T11:23:34Z</time>
      </trkpt>
      <trkpt lat="42.29174" lon="3.28312">
        <ele>42.2</ele>
        <time>2024-11-10T11:23:35Z</time>
      </trkpt>
      <trkpt lat="42.29174" lon="3.28312">
        <ele>42.2</ele>
        <time>2024-11-10T11:23:36Z</time>
      </trkpt>
      <trkpt lat="42.29173" lon="3.28312">
        <ele>42.2</ele>
        <time>2024-11-10T11:23:37Z</time>
      </trkpt>
      <trkpt lat="42.29172" lon="3.28312">
        <ele>42.2</ele>
        <time>2024-11-10T11:23:38Z</time>
      </trkpt>
      <trkpt lat="42.29172" lon="3.28312">
        <ele>42.2</ele>
        <time>2024-11-10T11:23:39Z</time>
      </trkpt>
      <trkpt lat="42.29171" lon="3.28312">
        <ele>42.2</ele>
        <time>2024-11-10T11:23:40Z</time>
      </trkpt>
      <trkpt lat="42.2917" lon="3.28312">
        <ele>42.2</ele>
        <time>2024-11-10T11:23:41Z</time>
      </trkpt>
      <trkpt lat="42.2917" lon="3.28312">
        <ele>42.2</ele>
        <time>2024-11-10T11:23:42Z</time>
      </trkpt>
      <trkpt lat="42.29169" lon="3.28312">
        <ele>42.2</ele>
        <time>2024-11-10T11:23:43Z</time>
      </trkpt>
      <trkpt lat="42.29169" lon="3.28312">
        <ele>42.2</ele>
        <time>2024-11-10T11:23:44Z</time>
      </trkpt>
      <trkpt lat="42.2917" lon="3.28312">
        <ele>42.2</ele>
        <time>2024-11-10T11:23:45Z</time>
      </trkpt>
      <trkpt lat="42.2917" lon="3.28312">
        <ele>42.2</ele>
        <time>2024-11-10T11:23:46Z</time>
      </trkpt>
      <trkpt lat="42.2917" lon="3.28312">
        <ele>42.2</ele>
        <time>2024-11-10T11:23:47Z</time>
      </trkpt>
      <trkpt lat="42.2917" lon="3.28312">
        <ele>42.2</ele>
        <time>2024-11-10T11:23:48Z</time>
      </trkpt>
      <trkpt lat="42.29169" lon="3.28313">
        <ele>42.2</ele>
        <time>2024-11-10T11:23:49Z</time>
      </trkpt>
      <trkpt lat="42.29169" lon="3.28313">
        <ele>42.2</ele>
        <time>2024-11-10T11:23:50Z</time>
      </trkpt>
      <trkpt lat="42.29168" lon="3.28314">
        <ele>42.2</ele>
        <time>2024-11-10T11:23:51Z</time>
      </trkpt>
      <trkpt lat="42.29167" lon="3.28315">
        <ele>42.2</ele>
        <time>2024-11-10T11:23:52Z</time>
      </trkpt>
      <trkpt lat="42.29166" lon="3.28316">
        <ele>42.1</ele>
        <time>2024-11-10T11:23:53Z</time>
      </trkpt>
      <trkpt lat="42.29165" lon="3.28317">
        <ele>42.1</ele>
        <time>2024-11-10T11:23:54Z</time>
      </trkpt>
      <trkpt lat="42.29164" lon="3.28317">
        <ele>42.1</ele>
        <time>2024-11-10T11:23:55Z</time>
      </trkpt>
      <trkpt lat="42.29163" lon="3.28318">
        <ele>42.1</ele>
        <time>2024-11-10T11:23:56Z</time>
      </trkpt>
      <trkpt lat="42.29162" lon="3.28318">
        <ele>42.1</ele>
        <time>2024-11-10T11:23:57Z</time>
      </trkpt>
      <trkpt lat="42.29161" lon="3.28319">
        <ele>42.1</ele>
        <time>2024-11-10T11:23:58Z</time>
      </trkpt>
      <trkpt lat="42.2916" lon="3.28319">
        <ele>42.1</ele>
        <time>2024-11-10T11:23:59Z</time>
      </trkpt>
      <trkpt lat="42.29159" lon="3.28319">
        <ele>42.1</ele>
        <time>2024-11-10T11:24:00Z</time>
      </trkpt>
      <trkpt lat="42.29158" lon="3.28319">
        <ele>42.1</ele>
        <time>2024-11-10T11:24:01Z</time>
      </trkpt>
      <trkpt lat="42.29157" lon="3.28319">
        <ele>42</ele>
        <time>2024-11-10T11:24:02Z</time>
      </trkpt>
      <trkpt lat="42.29157" lon="3.28319">
        <ele>42</ele>
        <time>2024-11-10T11:24:03Z</time>
      </trkpt>
      <trkpt lat="42.29156" lon="3.2832">
        <ele>42</ele>
        <time>2024-11-10T11:24:04Z</time>
      </trkpt>
      <trkpt lat="42.29155" lon="3.2832">
        <ele>42</ele>
        <time>2024-11-10T11:24:05Z</time>
      </trkpt>
      <trkpt lat="42.29154" lon="3.2832">
        <ele>42</ele>
        <time>2024-11-10T11:24:06Z</time>
      </trkpt>
      <trkpt lat="42.29153" lon="3.2832">
        <ele>41.9</ele>
        <time>2024-11-10T11:24:07Z</time>
      </trkpt>
      <trkpt lat="42.29152" lon="3.2832">
        <ele>41.9</ele>
        <time>2024-11-10T11:24:08Z</time>
      </trkpt>
      <trkpt lat="42.29151" lon="3.28321">
        <ele>41.9</ele>
        <time>2024-11-10T11:24:09Z</time>
      </trkpt>
      <trkpt lat="42.2915" lon="3.28321">
        <ele>41.8</ele>
        <time>2024-11-10T11:24:10Z</time>
      </trkpt>
      <trkpt lat="42.29149" lon="3.28322">
        <ele>41.8</ele>
        <time>2024-11-10T11:24:11Z</time>
      </trkpt>
      <trkpt lat="42.29148" lon="3.28322">
        <ele>41.8</ele>
        <time>2024-11-10T11:24:12Z</time>
      </trkpt>
      <trkpt lat="42.29147" lon="3.28322">
        <ele>41.8</ele>
        <time>2024-11-10T11:24:13Z</time>
      </trkpt>
      <trkpt lat="42.29147" lon="3.28323">
        <ele>41.7</ele>
        <time>2024-11-10T11:24:14Z</time>
      </trkpt>
      <trkpt lat="42.29145" lon="3.28323">
        <ele>41.7</ele>
        <time>2024-11-10T11:24:15Z</time>
      </trkpt>
      <trkpt lat="42.29145" lon="3.28323">
        <ele>41.6</ele>
        <time>2024-11-10T11:24:16Z</time>
      </trkpt>
      <trkpt lat="42.29144" lon="3.28323">
        <ele>41.6</ele>
        <time>2024-11-10T11:24:17Z</time>
      </trkpt>
      <trkpt lat="42.29143" lon="3.28323">
        <ele>41.6</ele>
        <time>2024-11-10T11:24:18Z</time>
      </trkpt>
      <trkpt lat="42.29142" lon="3.28323">
        <ele>41.5</ele>
        <time>2024-11-10T11:24:19Z</time>
      </trkpt>
      <trkpt lat="42.29141" lon="3.28322">
        <ele>41.5</ele>
        <time>2024-11-10T11:24:20Z</time>
      </trkpt>
      <trkpt lat="42.2914" lon="3.28322">
        <ele>41.4</ele>
        <time>2024-11-10T11:24:21Z</time>
      </trkpt>
      <trkpt lat="42.29139" lon="3.28321">
        <ele>41.4</ele>
        <time>2024-11-10T11:24:22Z</time>
      </trkpt>
      <trkpt lat="42.29138" lon="3.2832">
        <ele>41.4</ele>
        <time>2024-11-10T11:24:23Z</time>
      </trkpt>
      <trkpt lat="42.29138" lon="3.28319">
        <ele>41.3</ele>
        <time>2024-11-10T11:24:24Z</time>
      </trkpt>
      <trkpt lat="42.29137" lon="3.28318">
        <ele>41.3</ele>
        <time>2024-11-10T11:24:25Z</time>
      </trkpt>
      <trkpt lat="42.29136" lon="3.28318">
        <ele>41.3</ele>
        <time>2024-11-10T11:24:26Z</time>
      </trkpt>
      <trkpt lat="42.29135" lon="3.28318">
        <ele>41.2</ele>
        <time>2024-11-10T11:24:27Z</time>
      </trkpt>
      <trkpt lat="42.29134" lon="3.28318">
        <ele>41.2</ele>
        <time>2024-11-10T11:24:28Z</time>
      </trkpt>
      <trkpt lat="42.29133" lon="3.28318">
        <ele>41.1</ele>
        <time>2024-11-10T11:24:29Z</time>
      </trkpt>
      <trkpt lat="42.29132" lon="3.28318">
        <ele>41.1</ele>
        <time>2024-11-10T11:24:30Z</time>
      </trkpt>
      <trkpt lat="42.29131" lon="3.28319">
        <ele>41.1</ele>
        <time>2024-11-10T11:24:31Z</time>
      </trkpt>
      <trkpt lat="42.2913" lon="3.28319">
        <ele>41</ele>
        <time>2024-11-10T11:24:32Z</time>
      </trkpt>
      <trkpt lat="42.29128" lon="3.28319">
        <ele>41</ele>
        <time>2024-11-10T11:24:33Z</time>
      </trkpt>
      <trkpt lat="42.29128" lon="3.28319">
        <ele>41</ele>
        <time>2024-11-10T11:24:34Z</time>
      </trkpt>
      <trkpt lat="42.29126" lon="3.28319">
        <ele>40.9</ele>
        <time>2024-11-10T11:24:35Z</time>
      </trkpt>
      <trkpt lat="42.29126" lon="3.28319">
        <ele>40.9</ele>
        <time>2024-11-10T11:24:36Z</time>
      </trkpt>
      <trkpt lat="42.29125" lon="3.2832">
        <ele>40.9</ele>
        <time>2024-11-10T11:24:37Z</time>
      </trkpt>
      <trkpt lat="42.29124" lon="3.2832">
        <ele>40.8</ele>
        <time>2024-11-10T11:24:38Z</time>
      </trkpt>
      <trkpt lat="42.29123" lon="3.2832">
        <ele>40.8</ele>
        <time>2024-11-10T11:24:39Z</time>
      </trkpt>
      <trkpt lat="42.29122" lon="3.2832">
        <ele>40.8</ele>
        <time>2024-11-10T11:24:40Z</time>
      </trkpt>
      <trkpt lat="42.29121" lon="3.2832">
        <ele>40.7</ele>
        <time>2024-11-10T11:24:41Z</time>
      </trkpt>
      <trkpt lat="42.2912" lon="3.2832">
        <ele>40.7</ele>
        <time>2024-11-10T11:24:42Z</time>
      </trkpt>
      <trkpt lat="42.29119" lon="3.28319">
        <ele>40.7</ele>
        <time>2024-11-10T11:24:43Z</time>
      </trkpt>
      <trkpt lat="42.29118" lon="3.28319">
        <ele>40.6</ele>
        <time>2024-11-10T11:24:44Z</time>
      </trkpt>
      <trkpt lat="42.29117" lon="3.28319">
        <ele>40.6</ele>
        <time>2024-11-10T11:24:45Z</time>
      </trkpt>
      <trkpt lat="42.29116" lon="3.28319">
        <ele>40.6</ele>
        <time>2024-11-10T11:24:46Z</time>
      </trkpt>
      <trkpt lat="42.29115" lon="3.28318">
        <ele>40.5</ele>
        <time>2024-11-10T11:24:47Z</time>
      </trkpt>
      <trkpt lat="42.29113" lon="3.28318">
        <ele>40.5</ele>
        <time>2024-11-10T11:24:48Z</time>
      </trkpt>
      <trkpt lat="42.29112" lon="3.28318">
        <ele>40.4</ele>
        <time>2024-11-10T11:24:49Z</time>
      </trkpt>
      <trkpt lat="42.29111" lon="3.28317">
        <ele>40.4</ele>
        <time>2024-11-10T11:24:50Z</time>
      </trkpt>
      <trkpt lat="42.2911" lon="3.28317">
        <ele>40.3</ele>
        <time>2024-11-10T11:24:51Z</time>
      </trkpt>
      <trkpt lat="42.29109" lon="3.28317">
        <ele>40.3</ele>
        <time>2024-11-10T11:24:52Z</time>
      </trkpt>
      <trkpt lat="42.29108" lon="3.28316">
        <ele>40.2</ele>
        <time>2024-11-10T11:24:53Z</time>
      </trkpt>
      <trkpt lat="42.29108" lon="3.28316">
        <ele>40.2</ele>
        <time>2024-11-10T11:24:54Z</time>
      </trkpt>
      <trkpt lat="42.29107" lon="3.28316">
        <ele>40.2</ele>
        <time>2024-11-10T11:24:55Z</time>
      </trkpt>
      <trkpt lat="42.29106" lon="3.28316">
        <ele>40.1</ele>
        <time>2024-11-10T11:24:56Z</time>
      </trkpt>
      <trkpt lat="42.29105" lon="3.28317">
        <ele>40.1</ele>
        <time>2024-11-10T11:24:57Z</time>
      </trkpt>
      <trkpt lat="42.29105" lon="3.28316">
        <ele>40.1</ele>
        <time>2024-11-10T11:24:58Z</time>
      </trkpt>
      <trkpt lat="42.29104" lon="3.28316">
        <ele>40</ele>
        <time>2024-11-10T11:24:59Z</time>
      </trkpt>
      <trkpt lat="42.29103" lon="3.28315">
        <ele>39.9</ele>
        <time>2024-11-10T11:25:00Z</time>
      </trkpt>
      <trkpt lat="42.29102" lon="3.28314">
        <ele>39.9</ele>
        <time>2024-11-10T11:25:01Z</time>
      </trkpt>
      <trkpt lat="42.29101" lon="3.28312">
        <ele>39.8</ele>
        <time>2024-11-10T11:25:02Z</time>
      </trkpt>
      <trkpt lat="42.29101" lon="3.28312">
        <ele>39.8</ele>
        <time>2024-11-10T11:25:03Z</time>
      </trkpt>
      <trkpt lat="42.291" lon="3.28311">
        <ele>39.7</ele>
        <time>2024-11-10T11:25:04Z</time>
      </trkpt>
      <trkpt lat="42.291" lon="3.2831">
        <ele>39.7</ele>
        <time>2024-11-10T11:25:05Z</time>
      </trkpt>
      <trkpt lat="42.29099" lon="3.28309">
        <ele>39.6</ele>
        <time>2024-11-10T11:25:06Z</time>
      </trkpt>
      <trkpt lat="42.29098" lon="3.28308">
        <ele>39.6</ele>
        <time>2024-11-10T11:25:07Z</time>
      </trkpt>
      <trkpt lat="42.29098" lon="3.28307">
        <ele>39.5</ele>
        <time>2024-11-10T11:25:08Z</time>
      </trkpt>
      <trkpt lat="42.29097" lon="3.28306">
        <ele>39.5</ele>
        <time>2024-11-10T11:25:09Z</time>
      </trkpt>
      <trkpt lat="42.29096" lon="3.28305">
        <ele>39.5</ele>
        <time>2024-11-10T11:25:10Z</time>
      </trkpt>
      <trkpt lat="42.29096" lon="3.28304">
        <ele>39.4</ele>
        <time>2024-11-10T11:25:11Z</time>
      </trkpt>
      <trkpt lat="42.29095" lon="3.28303">
        <ele>39.4</ele>
        <time>2024-11-10T11:25:12Z</time>
      </trkpt>
      <trkpt lat="42.29094" lon="3.28302">
        <ele>39.4</ele>
        <time>2024-11-10T11:25:13Z</time>
      </trkpt>
      <trkpt lat="42.29094" lon="3.28301">
        <ele>39.3</ele>
        <time>2024-11-10T11:25:14Z</time>
      </trkpt>
      <trkpt lat="42.29093" lon="3.283">
        <ele>39.3</ele>
        <time>2024-11-10T11:25:15Z</time>
      </trkpt>
      <trkpt lat="42.29092" lon="3.28299">
        <ele>39.3</ele>
        <time>2024-11-10T11:25:16Z</time>
      </trkpt>
      <trkpt lat="42.29091" lon="3.28298">
        <ele>39.2</ele>
        <time>2024-11-10T11:25:17Z</time>
      </trkpt>
      <trkpt lat="42.2909" lon="3.28297">
        <ele>39.2</ele>
        <time>2024-11-10T11:25:18Z</time>
      </trkpt>
      <trkpt lat="42.2909" lon="3.28295">
        <ele>39.2</ele>
        <time>2024-11-10T11:25:19Z</time>
      </trkpt>
      <trkpt lat="42.29089" lon="3.28294">
        <ele>39.2</ele>
        <time>2024-11-10T11:25:20Z</time>
      </trkpt>
      <trkpt lat="42.29089" lon="3.28293">
        <ele>39.1</ele>
        <time>2024-11-10T11:25:21Z</time>
      </trkpt>
      <trkpt lat="42.29088" lon="3.28292">
        <ele>39.1</ele>
        <time>2024-11-10T11:25:22Z</time>
      </trkpt>
      <trkpt lat="42.29087" lon="3.28291">
        <ele>39.1</ele>
        <time>2024-11-10T11:25:23Z</time>
      </trkpt>
      <trkpt lat="42.29086" lon="3.2829">
        <ele>39.1</ele>
        <time>2024-11-10T11:25:24Z</time>
      </trkpt>
      <trkpt lat="42.29086" lon="3.28289">
        <ele>39</ele>
        <time>2024-11-10T11:25:25Z</time>
      </trkpt>
      <trkpt lat="42.29085" lon="3.28288">
        <ele>39</ele>
        <time>2024-11-10T11:25:26Z</time>
      </trkpt>
      <trkpt lat="42.29084" lon="3.28287">
        <ele>39</ele>
        <time>2024-11-10T11:25:27Z</time>
      </trkpt>
      <trkpt lat="42.29083" lon="3.28286">
        <ele>39</ele>
        <time>2024-11-10T11:25:28Z</time>
      </trkpt>
      <trkpt lat="42.29083" lon="3.28285">
        <ele>38.9</ele>
        <time>2024-11-10T11:25:29Z</time>
      </trkpt>
      <trkpt lat="42.29082" lon="3.28284">
        <ele>38.9</ele>
        <time>2024-11-10T11:25:30Z</time>
      </trkpt>
      <trkpt lat="42.29081" lon="3.28284">
        <ele>38.9</ele>
        <time>2024-11-10T11:25:31Z</time>
      </trkpt>
      <trkpt lat="42.2908" lon="3.28283">
        <ele>38.9</ele>
        <time>2024-11-10T11:25:32Z</time>
      </trkpt>
      <trkpt lat="42.29079" lon="3.28283">
        <ele>38.8</ele>
        <time>2024-11-10T11:25:33Z</time>
      </trkpt>
      <trkpt lat="42.29078" lon="3.28282">
        <ele>38.8</ele>
        <time>2024-11-10T11:25:34Z</time>
      </trkpt>
      <trkpt lat="42.29078" lon="3.28282">
        <ele>38.8</ele>
        <time>2024-11-10T11:25:35Z</time>
      </trkpt>
      <trkpt lat="42.29077" lon="3.28281">
        <ele>38.7</ele>
        <time>2024-11-10T11:25:36Z</time>
      </trkpt>
      <trkpt lat="42.29076" lon="3.2828">
        <ele>38.7</ele>
        <time>2024-11-10T11:25:37Z</time>
      </trkpt>
      <trkpt lat="42.29075" lon="3.28279">
        <ele>38.7</ele>
        <time>2024-11-10T11:25:38Z</time>
      </trkpt>
      <trkpt lat="42.29075" lon="3.28279">
        <ele>38.6</ele>
        <time>2024-11-10T11:25:39Z</time>
      </trkpt>
      <trkpt lat="42.29074" lon="3.28279">
        <ele>38.6</ele>
        <time>2024-11-10T11:25:40Z</time>
      </trkpt>
      <trkpt lat="42.29073" lon="3.28278">
        <ele>38.5</ele>
        <time>2024-11-10T11:25:41Z</time>
      </trkpt>
      <trkpt lat="42.29072" lon="3.28278">
        <ele>38.5</ele>
        <time>2024-11-10T11:25:42Z</time>
      </trkpt>
      <trkpt lat="42.29072" lon="3.28277">
        <ele>38.4</ele>
        <time>2024-11-10T11:25:43Z</time>
      </trkpt>
      <trkpt lat="42.29071" lon="3.28276">
        <ele>38.4</ele>
        <time>2024-11-10T11:25:44Z</time>
      </trkpt>
      <trkpt lat="42.2907" lon="3.28275">
        <ele>38.3</ele>
        <time>2024-11-10T11:25:45Z</time>
      </trkpt>
      <trkpt lat="42.29069" lon="3.28274">
        <ele>38.3</ele>
        <time>2024-11-10T11:25:46Z</time>
      </trkpt>
      <trkpt lat="42.29068" lon="3.28274">
        <ele>38.2</ele>
        <time>2024-11-10T11:25:47Z</time>
      </trkpt>
      <trkpt lat="42.29067" lon="3.28273">
        <ele>38.1</ele>
        <time>2024-11-10T11:25:48Z</time>
      </trkpt>
      <trkpt lat="42.29067" lon="3.28271">
        <ele>38</ele>
        <time>2024-11-10T11:25:49Z</time>
      </trkpt>
      <trkpt lat="42.29067" lon="3.2827">
        <ele>37.9</ele>
        <time>2024-11-10T11:25:50Z</time>
      </trkpt>
      <trkpt lat="42.29066" lon="3.28269">
        <ele>37.9</ele>
        <time>2024-11-10T11:25:51Z</time>
      </trkpt>
      <trkpt lat="42.29066" lon="3.28269">
        <ele>37.8</ele>
        <time>2024-11-10T11:25:52Z</time>
      </trkpt>
      <trkpt lat="42.29065" lon="3.28268">
        <ele>37.7</ele>
        <time>2024-11-10T11:25:53Z</time>
      </trkpt>
      <trkpt lat="42.29065" lon="3.28267">
        <ele>37.7</ele>
        <time>2024-11-10T11:25:54Z</time>
      </trkpt>
      <trkpt lat="42.29064" lon="3.28266">
        <ele>37.6</ele>
        <time>2024-11-10T11:25:55Z</time>
      </trkpt>
      <trkpt lat="42.29063" lon="3.28264">
        <ele>37.4</ele>
        <time>2024-11-10T11:25:56Z</time>
      </trkpt>
      <trkpt lat="42.29063" lon="3.28263">
        <ele>37.3</ele>
        <time>2024-11-10T11:25:57Z</time>
      </trkpt>
      <trkpt lat="42.29062" lon="3.28262">
        <ele>37.2</ele>
        <time>2024-11-10T11:25:58Z</time>
      </trkpt>
      <trkpt lat="42.29062" lon="3.28262">
        <ele>37.1</ele>
        <time>2024-11-10T11:25:59Z</time>
      </trkpt>
      <trkpt lat="42.29062" lon="3.2826">
        <ele>36.9</ele>
        <time>2024-11-10T11:26:00Z</time>
      </trkpt>
      <trkpt lat="42.29061" lon="3.2826">
        <ele>36.8</ele>
        <time>2024-11-10T11:26:01Z</time>
      </trkpt>
      <trkpt lat="42.29061" lon="3.28259">
        <ele>36.7</ele>
        <time>2024-11-10T11:26:02Z</time>
      </trkpt>
      <trkpt lat="42.2906" lon="3.28257">
        <ele>36.5</ele>
        <time>2024-11-10T11:26:03Z</time>
      </trkpt>
      <trkpt lat="42.29059" lon="3.28256">
        <ele>36.4</ele>
        <time>2024-11-10T11:26:04Z</time>
      </trkpt>
      <trkpt lat="42.29059" lon="3.28255">
        <ele>36.2</ele>
        <time>2024-11-10T11:26:05Z</time>
      </trkpt>
      <trkpt lat="42.29059" lon="3.28254">
        <ele>36.1</ele>
        <time>2024-11-10T11:26:06Z</time>
      </trkpt>
      <trkpt lat="42.29058" lon="3.28253">
        <ele>36</ele>
        <time>2024-11-10T11:26:07Z</time>
      </trkpt>
      <trkpt lat="42.29058" lon="3.28252">
        <ele>35.9</ele>
        <time>2024-11-10T11:26:08Z</time>
      </trkpt>
      <trkpt lat="42.29057" lon="3.28251">
        <ele>35.7</ele>
        <time>2024-11-10T11:26:09Z</time>
      </trkpt>
      <trkpt lat="42.29057" lon="3.2825">
        <ele>35.6</ele>
        <time>2024-11-10T11:26:10Z</time>
      </trkpt>
      <trkpt lat="42.29056" lon="3.28249">
        <ele>35.4</ele>
        <time>2024-11-10T11:26:11Z</time>
      </trkpt>
      <trkpt lat="42.29055" lon="3.28248">
        <ele>35.3</ele>
        <time>2024-11-10T11:26:12Z</time>
      </trkpt>
      <trkpt lat="42.29054" lon="3.28247">
        <ele>35</ele>
        <time>2024-11-10T11:26:13Z</time>
      </trkpt>
      <trkpt lat="42.29054" lon="3.28246">
        <ele>34.9</ele>
        <time>2024-11-10T11:26:14Z</time>
      </trkpt>
      <trkpt lat="42.29053" lon="3.28245">
        <ele>34.8</ele>
        <time>2024-11-10T11:26:15Z</time>
      </trkpt>
      <trkpt lat="42.29053" lon="3.28245">
        <ele>34.7</ele>
        <time>2024-11-10T11:26:16Z</time>
      </trkpt>
      <trkpt lat="42.29052" lon="3.28244">
        <ele>34.6</ele>
        <time>2024-11-10T11:26:17Z</time>
      </trkpt>
      <trkpt lat="42.29051" lon="3.28243">
        <ele>34.4</ele>
        <time>2024-11-10T11:26:18Z</time>
      </trkpt>
      <trkpt lat="42.29051" lon="3.28242">
        <ele>34.3</ele>
        <time>2024-11-10T11:26:19Z</time>
      </trkpt>
      <trkpt lat="42.2905" lon="3.28241">
        <ele>34.1</ele>
        <time>2024-11-10T11:26:20Z</time>
      </trkpt>
      <trkpt lat="42.29049" lon="3.28241">
        <ele>34</ele>
        <time>2024-11-10T11:26:21Z</time>
      </trkpt>
      <trkpt lat="42.29049" lon="3.2824">
        <ele>33.8</ele>
        <time>2024-11-10T11:26:22Z</time>
      </trkpt>
      <trkpt lat="42.29048" lon="3.28239">
        <ele>33.7</ele>
        <time>2024-11-10T11:26:23Z</time>
      </trkpt>
      <trkpt lat="42.29047" lon="3.28238">
        <ele>33.6</ele>
        <time>2024-11-10T11:26:24Z</time>
      </trkpt>
      <trkpt lat="42.29047" lon="3.28238">
        <ele>33.4</ele>
        <time>2024-11-10T11:26:25Z</time>
      </trkpt>
      <trkpt lat="42.29046" lon="3.28237">
        <ele>33.3</ele>
        <time>2024-11-10T11:26:26Z</time>
      </trkpt>
      <trkpt lat="42.29045" lon="3.28236">
        <ele>33.2</ele>
        <time>2024-11-10T11:26:27Z</time>
      </trkpt>
      <trkpt lat="42.29045" lon="3.28235">
        <ele>33</ele>
        <time>2024-11-10T11:26:28Z</time>
      </trkpt>
      <trkpt lat="42.29044" lon="3.28235">
        <ele>32.9</ele>
        <time>2024-11-10T11:26:29Z</time>
      </trkpt>
      <trkpt lat="42.29043" lon="3.28234">
        <ele>32.7</ele>
        <time>2024-11-10T11:26:30Z</time>
      </trkpt>
      <trkpt lat="42.29042" lon="3.28234">
        <ele>32.5</ele>
        <time>2024-11-10T11:26:31Z</time>
      </trkpt>
      <trkpt lat="42.29041" lon="3.28233">
        <ele>32.3</ele>
        <time>2024-11-10T11:26:32Z</time>
      </trkpt>
      <trkpt lat="42.2904" lon="3.28233">
        <ele>32</ele>
        <time>2024-11-10T11:26:33Z</time>
      </trkpt>
      <trkpt lat="42.29039" lon="3.28232">
        <ele>31.8</ele>
        <time>2024-11-10T11:26:34Z</time>
      </trkpt>
      <trkpt lat="42.29038" lon="3.28231">
        <ele>31.6</ele>
        <time>2024-11-10T11:26:35Z</time>
      </trkpt>
      <trkpt lat="42.29037" lon="3.28231">
        <ele>31.4</ele>
        <time>2024-11-10T11:26:36Z</time>
      </trkpt>
      <trkpt lat="42.29037" lon="3.2823">
        <ele>31.2</ele>
        <time>2024-11-10T11:26:37Z</time>
      </trkpt>
      <trkpt lat="42.29036" lon="3.2823">
        <ele>31</ele>
        <time>2024-11-10T11:26:38Z</time>
      </trkpt>
      <trkpt lat="42.29035" lon="3.2823">
        <ele>30.9</ele>
        <time>2024-11-10T11:26:39Z</time>
      </trkpt>
      <trkpt lat="42.29035" lon="3.28229">
        <ele>30.7</ele>
        <time>2024-11-10T11:26:40Z</time>
      </trkpt>
      <trkpt lat="42.29034" lon="3.2823">
        <ele>30.7</ele>
        <time>2024-11-10T11:26:41Z</time>
      </trkpt>
      <trkpt lat="42.29034" lon="3.2823">
        <ele>30.5</ele>
        <time>2024-11-10T11:26:42Z</time>
      </trkpt>
      <trkpt lat="42.29033" lon="3.28229">
        <ele>30.4</ele>
        <time>2024-11-10T11:26:43Z</time>
      </trkpt>
      <trkpt lat="42.29032" lon="3.28229">
        <ele>30.1</ele>
        <time>2024-11-10T11:26:44Z</time>
      </trkpt>
      <trkpt lat="42.29031" lon="3.28229">
        <ele>30</ele>
        <time>2024-11-10T11:26:45Z</time>
      </trkpt>
      <trkpt lat="42.2903" lon="3.28228">
        <ele>29.8</ele>
        <time>2024-11-10T11:26:46Z</time>
      </trkpt>
      <trkpt lat="42.2903" lon="3.28228">
        <ele>29.7</ele>
        <time>2024-11-10T11:26:47Z</time>
      </trkpt>
      <trkpt lat="42.29029" lon="3.28227">
        <ele>29.5</ele>
        <time>2024-11-10T11:26:48Z</time>
      </trkpt>
      <trkpt lat="42.29029" lon="3.28226">
        <ele>29.3</ele>
        <time>2024-11-10T11:26:49Z</time>
      </trkpt>
      <trkpt lat="42.29028" lon="3.28226">
        <ele>29.1</ele>
        <time>2024-11-10T11:26:50Z</time>
      </trkpt>
      <trkpt lat="42.29027" lon="3.28226">
        <ele>28.9</ele>
        <time>2024-11-10T11:26:51Z</time>
      </trkpt>
      <trkpt lat="42.29027" lon="3.28225">
        <ele>28.8</ele>
        <time>2024-11-10T11:26:52Z</time>
      </trkpt>
      <trkpt lat="42.29026" lon="3.28225">
        <ele>28.6</ele>
        <time>2024-11-10T11:26:53Z</time>
      </trkpt>
      <trkpt lat="42.29025" lon="3.28224">
        <ele>28.4</ele>
        <time>2024-11-10T11:26:54Z</time>
      </trkpt>
      <trkpt lat="42.29025" lon="3.28224">
        <ele>28.3</ele>
        <time>2024-11-10T11:26:55Z</time>
      </trkpt>
      <trkpt lat="42.29024" lon="3.28223">
        <ele>28.1</ele>
        <time>2024-11-10T11:26:56Z</time>
      </trkpt>
      <trkpt lat="42.29023" lon="3.28223">
        <ele>27.9</ele>
        <time>2024-11-10T11:26:57Z</time>
      </trkpt>
      <trkpt lat="42.29023" lon="3.28223">
        <ele>27.8</ele>
        <time>2024-11-10T11:26:58Z</time>
      </trkpt>
      <trkpt lat="42.29022" lon="3.28222">
        <ele>27.5</ele>
        <time>2024-11-10T11:26:59Z</time>
      </trkpt>
      <trkpt lat="42.29021" lon="3.28222">
        <ele>27.4</ele>
        <time>2024-11-10T11:27:00Z</time>
      </trkpt>
      <trkpt lat="42.2902" lon="3.28221">
        <ele>27.2</ele>
        <time>2024-11-10T11:27:01Z</time>
      </trkpt>
      <trkpt lat="42.2902" lon="3.28221">
        <ele>27.1</ele>
        <time>2024-11-10T11:27:02Z</time>
      </trkpt>
      <trkpt lat="42.29019" lon="3.28221">
        <ele>26.9</ele>
        <time>2024-11-10T11:27:03Z</time>
      </trkpt>
      <trkpt lat="42.29018" lon="3.28221">
        <ele>26.7</ele>
        <time>2024-11-10T11:27:04Z</time>
      </trkpt>
      <trkpt lat="42.29018" lon="3.2822">
        <ele>26.7</ele>
        <time>2024-11-10T11:27:05Z</time>
      </trkpt>
      <trkpt lat="42.29017" lon="3.2822">
        <ele>26.6</ele>
        <time>2024-11-10T11:27:06Z</time>
      </trkpt>
      <trkpt lat="42.29017" lon="3.2822">
        <ele>26.4</ele>
        <time>2024-11-10T11:27:07Z</time>
      </trkpt>
      <trkpt lat="42.29016" lon="3.2822">
        <ele>26.3</ele>
        <time>2024-11-10T11:27:08Z</time>
      </trkpt>
      <trkpt lat="42.29015" lon="3.28219">
        <ele>26.1</ele>
        <time>2024-11-10T11:27:09Z</time>
      </trkpt>
      <trkpt lat="42.29015" lon="3.28219">
        <ele>26</ele>
        <time>2024-11-10T11:27:10Z</time>
      </trkpt>
      <trkpt lat="42.29013" lon="3.28219">
        <ele>25.8</ele>
        <time>2024-11-10T11:27:11Z</time>
      </trkpt>
      <trkpt lat="42.29013" lon="3.28219">
        <ele>25.6</ele>
        <time>2024-11-10T11:27:12Z</time>
      </trkpt>
      <trkpt lat="42.29012" lon="3.28218">
        <ele>25.4</ele>
        <time>2024-11-10T11:27:13Z</time>
      </trkpt>
      <trkpt lat="42.29011" lon="3.28218">
        <ele>25.3</ele>
        <time>2024-11-10T11:27:14Z</time>
      </trkpt>
      <trkpt lat="42.2901" lon="3.28218">
        <ele>25.2</ele>
        <time>2024-11-10T11:27:15Z</time>
      </trkpt>
      <trkpt lat="42.29009" lon="3.28217">
        <ele>25</ele>
        <time>2024-11-10T11:27:16Z</time>
      </trkpt>
      <trkpt lat="42.29008" lon="3.28217">
        <ele>24.9</ele>
        <time>2024-11-10T11:27:17Z</time>
      </trkpt>
      <trkpt lat="42.29007" lon="3.28217">
        <ele>24.8</ele>
        <time>2024-11-10T11:27:18Z</time>
      </trkpt>
      <trkpt lat="42.29007" lon="3.28217">
        <ele>24.7</ele>
        <time>2024-11-10T11:27:19Z</time>
      </trkpt>
      <trkpt lat="42.29006" lon="3.28217">
        <ele>24.7</ele>
        <time>2024-11-10T11:27:20Z</time>
      </trkpt>
      <trkpt lat="42.29005" lon="3.28217">
        <ele>24.6</ele>
        <time>2024-11-10T11:27:21Z</time>
      </trkpt>
      <trkpt lat="42.29004" lon="3.28217">
        <ele>24.5</ele>
        <time>2024-11-10T11:27:22Z</time>
      </trkpt>
      <trkpt lat="42.29003" lon="3.28217">
        <ele>24.4</ele>
        <time>2024-11-10T11:27:23Z</time>
      </trkpt>
      <trkpt lat="42.29003" lon="3.28217">
        <ele>24.3</ele>
        <time>2024-11-10T11:27:24Z</time>
      </trkpt>
      <trkpt lat="42.29002" lon="3.28217">
        <ele>24.2</ele>
        <time>2024-11-10T11:27:25Z</time>
      </trkpt>
      <trkpt lat="42.29" lon="3.28216">
        <ele>24.1</ele>
        <time>2024-11-10T11:27:26Z</time>
      </trkpt>
      <trkpt lat="42.29" lon="3.28216">
        <ele>24.1</ele>
        <time>2024-11-10T11:27:27Z</time>
      </trkpt>
      <trkpt lat="42.28999" lon="3.28216">
        <ele>24</ele>
        <time>2024-11-10T11:27:28Z</time>
      </trkpt>
      <trkpt lat="42.28998" lon="3.28216">
        <ele>23.9</ele>
        <time>2024-11-10T11:27:29Z</time>
      </trkpt>
      <trkpt lat="42.28997" lon="3.28215">
        <ele>23.8</ele>
        <time>2024-11-10T11:27:30Z</time>
      </trkpt>
      <trkpt lat="42.28996" lon="3.28215">
        <ele>23.8</ele>
        <time>2024-11-10T11:27:31Z</time>
      </trkpt>
      <trkpt lat="42.28995" lon="3.28215">
        <ele>23.7</ele>
        <time>2024-11-10T11:27:32Z</time>
      </trkpt>
      <trkpt lat="42.28994" lon="3.28215">
        <ele>23.7</ele>
        <time>2024-11-10T11:27:33Z</time>
      </trkpt>
      <trkpt lat="42.28993" lon="3.28215">
        <ele>23.6</ele>
        <time>2024-11-10T11:27:34Z</time>
      </trkpt>
      <trkpt lat="42.28992" lon="3.28215">
        <ele>23.5</ele>
        <time>2024-11-10T11:27:35Z</time>
      </trkpt>
      <trkpt lat="42.28991" lon="3.28214">
        <ele>23.5</ele>
        <time>2024-11-10T11:27:36Z</time>
      </trkpt>
      <trkpt lat="42.2899" lon="3.28214">
        <ele>23.4</ele>
        <time>2024-11-10T11:27:37Z</time>
      </trkpt>
      <trkpt lat="42.28989" lon="3.28213">
        <ele>23.4</ele>
        <time>2024-11-10T11:27:38Z</time>
      </trkpt>
      <trkpt lat="42.28988" lon="3.28213">
        <ele>23.3</ele>
        <time>2024-11-10T11:27:39Z</time>
      </trkpt>
      <trkpt lat="42.28987" lon="3.28212">
        <ele>23.2</ele>
        <time>2024-11-10T11:27:40Z</time>
      </trkpt>
      <trkpt lat="42.28986" lon="3.28211">
        <ele>23.1</ele>
        <time>2024-11-10T11:27:41Z</time>
      </trkpt>
      <trkpt lat="42.28985" lon="3.28211">
        <ele>23.1</ele>
        <time>2024-11-10T11:27:42Z</time>
      </trkpt>
      <trkpt lat="42.28985" lon="3.2821">
        <ele>23.1</ele>
        <time>2024-11-10T11:27:43Z</time>
      </trkpt>
      <trkpt lat="42.28984" lon="3.2821">
        <ele>23</ele>
        <time>2024-11-10T11:27:44Z</time>
      </trkpt>
      <trkpt lat="42.28983" lon="3.28209">
        <ele>22.9</ele>
        <time>2024-11-10T11:27:45Z</time>
      </trkpt>
      <trkpt lat="42.28981" lon="3.28208">
        <ele>22.8</ele>
        <time>2024-11-10T11:27:46Z</time>
      </trkpt>
      <trkpt lat="42.2898" lon="3.28208">
        <ele>22.7</ele>
        <time>2024-11-10T11:27:47Z</time>
      </trkpt>
      <trkpt lat="42.2898" lon="3.28207">
        <ele>22.7</ele>
        <time>2024-11-10T11:27:48Z</time>
      </trkpt>
      <trkpt lat="42.28979" lon="3.28206">
        <ele>22.6</ele>
        <time>2024-11-10T11:27:49Z</time>
      </trkpt>
      <trkpt lat="42.28978" lon="3.28206">
        <ele>22.5</ele>
        <time>2024-11-10T11:27:50Z</time>
      </trkpt>
      <trkpt lat="42.28977" lon="3.28205">
        <ele>22.4</ele>
        <time>2024-11-10T11:27:51Z</time>
      </trkpt>
      <trkpt lat="42.28977" lon="3.28205">
        <ele>22.3</ele>
        <time>2024-11-10T11:27:52Z</time>
      </trkpt>
      <trkpt lat="42.28976" lon="3.28204">
        <ele>22.2</ele>
        <time>2024-11-10T11:27:53Z</time>
      </trkpt>
      <trkpt lat="42.28975" lon="3.28203">
        <ele>22.1</ele>
        <time>2024-11-10T11:27:54Z</time>
      </trkpt>
      <trkpt lat="42.28974" lon="3.28203">
        <ele>22</ele>
        <time>2024-11-10T11:27:55Z</time>
      </trkpt>
      <trkpt lat="42.28973" lon="3.28203">
        <ele>21.9</ele>
        <time>2024-11-10T11:27:56Z</time>
      </trkpt>
      <trkpt lat="42.28972" lon="3.28202">
        <ele>21.8</ele>
        <time>2024-11-10T11:27:57Z</time>
      </trkpt>
      <trkpt lat="42.28971" lon="3.28201">
        <ele>21.7</ele>
        <time>2024-11-10T11:27:58Z</time>
      </trkpt>
      <trkpt lat="42.2897" lon="3.28201">
        <ele>21.6</ele>
        <time>2024-11-10T11:27:59Z</time>
      </trkpt>
      <trkpt lat="42.2897" lon="3.282">
        <ele>21.4</ele>
        <time>2024-11-10T11:28:00Z</time>
      </trkpt>
      <trkpt lat="42.28968" lon="3.28199">
        <ele>21.3</ele>
        <time>2024-11-10T11:28:01Z</time>
      </trkpt>
      <trkpt lat="42.28967" lon="3.28199">
        <ele>21.1</ele>
        <time>2024-11-10T11:28:02Z</time>
      </trkpt>
      <trkpt lat="42.28967" lon="3.28198">
        <ele>21</ele>
        <time>2024-11-10T11:28:03Z</time>
      </trkpt>
      <trkpt lat="42.28966" lon="3.28197">
        <ele>20.8</ele>
        <time>2024-11-10T11:28:04Z</time>
      </trkpt>
      <trkpt lat="42.28965" lon="3.28197">
        <ele>20.7</ele>
        <time>2024-11-10T11:28:05Z</time>
      </trkpt>
      <trkpt lat="42.28964" lon="3.28196">
        <ele>20.5</ele>
        <time>2024-11-10T11:28:06Z</time>
      </trkpt>
      <trkpt lat="42.28963" lon="3.28196">
        <ele>20.3</ele>
        <time>2024-11-10T11:28:07Z</time>
      </trkpt>
      <trkpt lat="42.28962" lon="3.28195">
        <ele>20.2</ele>
        <time>2024-11-10T11:28:08Z</time>
      </trkpt>
      <trkpt lat="42.28961" lon="3.28194">
        <ele>20</ele>
        <time>2024-11-10T11:28:09Z</time>
      </trkpt>
      <trkpt lat="42.2896" lon="3.28193">
        <ele>19.8</ele>
        <time>2024-11-10T11:28:10Z</time>
      </trkpt>
      <trkpt lat="42.28959" lon="3.28192">
        <ele>19.7</ele>
        <time>2024-11-10T11:28:11Z</time>
      </trkpt>
      <trkpt lat="42.28958" lon="3.28192">
        <ele>19.5</ele>
        <time>2024-11-10T11:28:12Z</time>
      </trkpt>
      <trkpt lat="42.28957" lon="3.28191">
        <ele>19.3</ele>
        <time>2024-11-10T11:28:13Z</time>
      </trkpt>
      <trkpt lat="42.28957" lon="3.2819">
        <ele>19.2</ele>
        <time>2024-11-10T11:28:14Z</time>
      </trkpt>
      <trkpt lat="42.28956" lon="3.28189">
        <ele>19</ele>
        <time>2024-11-10T11:28:15Z</time>
      </trkpt>
      <trkpt lat="42.28955" lon="3.28189">
        <ele>18.8</ele>
        <time>2024-11-10T11:28:16Z</time>
      </trkpt>
      <trkpt lat="42.28954" lon="3.28188">
        <ele>18.7</ele>
        <time>2024-11-10T11:28:17Z</time>
      </trkpt>
      <trkpt lat="42.28954" lon="3.28188">
        <ele>18.6</ele>
        <time>2024-11-10T11:28:18Z</time>
      </trkpt>
      <trkpt lat="42.28952" lon="3.28188">
        <ele>18.4</ele>
        <time>2024-11-10T11:28:19Z</time>
      </trkpt>
      <trkpt lat="42.28951" lon="3.28187">
        <ele>18.2</ele>
        <time>2024-11-10T11:28:20Z</time>
      </trkpt>
      <trkpt lat="42.28951" lon="3.28187">
        <ele>18.1</ele>
        <time>2024-11-10T11:28:21Z</time>
      </trkpt>
      <trkpt lat="42.2895" lon="3.28187">
        <ele>17.9</ele>
        <time>2024-11-10T11:28:22Z</time>
      </trkpt>
      <trkpt lat="42.28949" lon="3.28187">
        <ele>17.8</ele>
        <time>2024-11-10T11:28:23Z</time>
      </trkpt>
      <trkpt lat="42.28948" lon="3.28186">
        <ele>17.6</ele>
        <time>2024-11-10T11:28:24Z</time>
      </trkpt>
      <trkpt lat="42.28947" lon="3.28185">
        <ele>17.4</ele>
        <time>2024-11-10T11:28:25Z</time>
      </trkpt>
      <trkpt lat="42.28946" lon="3.28185">
        <ele>17.3</ele>
        <time>2024-11-10T11:28:26Z</time>
      </trkpt>
      <trkpt lat="42.28946" lon="3.28184">
        <ele>17.1</ele>
        <time>2024-11-10T11:28:27Z</time>
      </trkpt>
      <trkpt lat="42.28945" lon="3.28184">
        <ele>17</ele>
        <time>2024-11-10T11:28:28Z</time>
      </trkpt>
      <trkpt lat="42.28944" lon="3.28183">
        <ele>16.8</ele>
        <time>2024-11-10T11:28:29Z</time>
      </trkpt>
      <trkpt lat="42.28944" lon="3.28183">
        <ele>16.7</ele>
        <time>2024-11-10T11:28:30Z</time>
      </trkpt>
      <trkpt lat="42.28943" lon="3.28183">
        <ele>16.5</ele>
        <time>2024-11-10T11:28:31Z</time>
      </trkpt>
      <trkpt lat="42.28942" lon="3.28182">
        <ele>16.3</ele>
        <time>2024-11-10T11:28:32Z</time>
      </trkpt>
      <trkpt lat="42.28941" lon="3.28182">
        <ele>16.2</ele>
        <time>2024-11-10T11:28:33Z</time>
      </trkpt>
      <trkpt lat="42.2894" lon="3.28181">
        <ele>16</ele>
        <time>2024-11-10T11:28:34Z</time>
      </trkpt>
      <trkpt lat="42.28939" lon="3.28181">
        <ele>15.8</ele>
        <time>2024-11-10T11:28:35Z</time>
      </trkpt>
      <trkpt lat="42.28938" lon="3.2818">
        <ele>15.7</ele>
        <time>2024-11-10T11:28:36Z</time>
      </trkpt>
      <trkpt lat="42.28937" lon="3.28179">
        <ele>15.5</ele>
        <time>2024-11-10T11:28:37Z</time>
      </trkpt>
      <trkpt lat="42.28937" lon="3.28178">
        <ele>15.5</ele>
        <time>2024-11-10T11:28:38Z</time>
      </trkpt>
      <trkpt lat="42.28936" lon="3.28177">
        <ele>15.4</ele>
        <time>2024-11-10T11:28:39Z</time>
      </trkpt>
      <trkpt lat="42.28936" lon="3.28176">
        <ele>15.3</ele>
        <time>2024-11-10T11:28:40Z</time>
      </trkpt>
      <trkpt lat="42.28935" lon="3.28175">
        <ele>15.2</ele>
        <time>2024-11-10T11:28:41Z</time>
      </trkpt>
      <trkpt lat="42.28935" lon="3.28175">
        <ele>15.1</ele>
        <time>2024-11-10T11:28:42Z</time>
      </trkpt>
      <trkpt lat="42.28934" lon="3.28174">
        <ele>15.1</ele>
        <time>2024-11-10T11:28:43Z</time>
      </trkpt>
      <trkpt lat="42.28933" lon="3.28173">
        <ele>14.9</ele>
        <time>2024-11-10T11:28:44Z</time>
      </trkpt>
      <trkpt lat="42.28933" lon="3.28173">
        <ele>14.9</ele>
        <time>2024-11-10T11:28:45Z</time>
      </trkpt>
      <trkpt lat="42.28932" lon="3.28172">
        <ele>14.8</ele>
        <time>2024-11-10T11:28:46Z</time>
      </trkpt>
      <trkpt lat="42.28932" lon="3.28171">
        <ele>14.7</ele>
        <time>2024-11-10T11:28:47Z</time>
      </trkpt>
      <trkpt lat="42.28931" lon="3.28171">
        <ele>14.6</ele>
        <time>2024-11-10T11:28:48Z</time>
      </trkpt>
      <trkpt lat="42.2893" lon="3.2817">
        <ele>14.5</ele>
        <time>2024-11-10T11:28:49Z</time>
      </trkpt>
      <trkpt lat="42.2893" lon="3.28169">
        <ele>14.4</ele>
        <time>2024-11-10T11:28:50Z</time>
      </trkpt>
      <trkpt lat="42.28929" lon="3.28169">
        <ele>14.3</ele>
        <time>2024-11-10T11:28:51Z</time>
      </trkpt>
      <trkpt lat="42.28929" lon="3.28168">
        <ele>14.2</ele>
        <time>2024-11-10T11:28:52Z</time>
      </trkpt>
      <trkpt lat="42.28928" lon="3.28168">
        <ele>14.1</ele>
        <time>2024-11-10T11:28:53Z</time>
      </trkpt>
      <trkpt lat="42.28928" lon="3.28167">
        <ele>14</ele>
        <time>2024-11-10T11:28:54Z</time>
      </trkpt>
      <trkpt lat="42.28927" lon="3.28167">
        <ele>13.9</ele>
        <time>2024-11-10T11:28:55Z</time>
      </trkpt>
      <trkpt lat="42.28926" lon="3.28166">
        <ele>13.8</ele>
        <time>2024-11-10T11:28:56Z</time>
      </trkpt>
      <trkpt lat="42.28926" lon="3.28166">
        <ele>13.6</ele>
        <time>2024-11-10T11:28:57Z</time>
      </trkpt>
      <trkpt lat="42.28925" lon="3.28165">
        <ele>13.5</ele>
        <time>2024-11-10T11:28:58Z</time>
      </trkpt>
      <trkpt lat="42.28924" lon="3.28165">
        <ele>13.4</ele>
        <time>2024-11-10T11:28:59Z</time>
      </trkpt>
      <trkpt lat="42.28924" lon="3.28164">
        <ele>13.3</ele>
        <time>2024-11-10T11:29:00Z</time>
      </trkpt>
      <trkpt lat="42.28923" lon="3.28164">
        <ele>13.2</ele>
        <time>2024-11-10T11:29:01Z</time>
      </trkpt>
      <trkpt lat="42.28922" lon="3.28163">
        <ele>13</ele>
        <time>2024-11-10T11:29:02Z</time>
      </trkpt>
      <trkpt lat="42.28921" lon="3.28162">
        <ele>12.8</ele>
        <time>2024-11-10T11:29:03Z</time>
      </trkpt>
      <trkpt lat="42.28921" lon="3.28162">
        <ele>12.7</ele>
        <time>2024-11-10T11:29:04Z</time>
      </trkpt>
      <trkpt lat="42.2892" lon="3.28162">
        <ele>12.6</ele>
        <time>2024-11-10T11:29:05Z</time>
      </trkpt>
      <trkpt lat="42.28919" lon="3.28161">
        <ele>12.5</ele>
        <time>2024-11-10T11:29:06Z</time>
      </trkpt>
      <trkpt lat="42.28919" lon="3.2816">
        <ele>12.4</ele>
        <time>2024-11-10T11:29:07Z</time>
      </trkpt>
      <trkpt lat="42.28918" lon="3.2816">
        <ele>12.3</ele>
        <time>2024-11-10T11:29:08Z</time>
      </trkpt>
      <trkpt lat="42.28918" lon="3.28159">
        <ele>12.3</ele>
        <time>2024-11-10T11:29:09Z</time>
      </trkpt>
      <trkpt lat="42.28917" lon="3.28158">
        <ele>12.2</ele>
        <time>2024-11-10T11:29:10Z</time>
      </trkpt>
      <trkpt lat="42.28917" lon="3.28157">
        <ele>12</ele>
        <time>2024-11-10T11:29:11Z</time>
      </trkpt>
      <trkpt lat="42.28916" lon="3.28157">
        <ele>12</ele>
        <time>2024-11-10T11:29:12Z</time>
      </trkpt>
      <trkpt lat="42.28916" lon="3.28156">
        <ele>11.9</ele>
        <time>2024-11-10T11:29:13Z</time>
      </trkpt>
      <trkpt lat="42.28915" lon="3.28156">
        <ele>11.8</ele>
        <time>2024-11-10T11:29:14Z</time>
      </trkpt>
      <trkpt lat="42.28914" lon="3.28155">
        <ele>11.7</ele>
        <time>2024-11-10T11:29:15Z</time>
      </trkpt>
      <trkpt lat="42.28913" lon="3.28155">
        <ele>11.6</ele>
        <time>2024-11-10T11:29:16Z</time>
      </trkpt>
      <trkpt lat="42.28913" lon="3.28155">
        <ele>11.5</ele>
        <time>2024-11-10T11:29:17Z</time>
      </trkpt>
      <trkpt lat="42.28912" lon="3.28154">
        <ele>11.4</ele>
        <time>2024-11-10T11:29:18Z</time>
      </trkpt>
      <trkpt lat="42.28911" lon="3.28153">
        <ele>11.3</ele>
        <time>2024-11-10T11:29:19Z</time>
      </trkpt>
      <trkpt lat="42.28911" lon="3.28153">
        <ele>11.2</ele>
        <time>2024-11-10T11:29:20Z</time>
      </trkpt>
      <trkpt lat="42.2891" lon="3.28152">
        <ele>11.1</ele>
        <time>2024-11-10T11:29:21Z</time>
      </trkpt>
      <trkpt lat="42.2891" lon="3.28151">
        <ele>11</ele>
        <time>2024-11-10T11:29:22Z</time>
      </trkpt>
      <trkpt lat="42.28909" lon="3.28151">
        <ele>10.9</ele>
        <time>2024-11-10T11:29:23Z</time>
      </trkpt>
      <trkpt lat="42.28908" lon="3.28151">
        <ele>10.8</ele>
        <time>2024-11-10T11:29:24Z</time>
      </trkpt>
      <trkpt lat="42.28907" lon="3.2815">
        <ele>10.7</ele>
        <time>2024-11-10T11:29:25Z</time>
      </trkpt>
      <trkpt lat="42.28906" lon="3.28149">
        <ele>10.6</ele>
        <time>2024-11-10T11:29:26Z</time>
      </trkpt>
      <trkpt lat="42.28906" lon="3.28149">
        <ele>10.5</ele>
        <time>2024-11-10T11:29:27Z</time>
      </trkpt>
      <trkpt lat="42.28905" lon="3.28148">
        <ele>10.3</ele>
        <time>2024-11-10T11:29:28Z</time>
      </trkpt>
      <trkpt lat="42.28904" lon="3.28147">
        <ele>10.2</ele>
        <time>2024-11-10T11:29:29Z</time>
      </trkpt>
      <trkpt lat="42.28904" lon="3.28147">
        <ele>10.1</ele>
        <time>2024-11-10T11:29:30Z</time>
      </trkpt>
      <trkpt lat="42.28903" lon="3.28146">
        <ele>10</ele>
        <time>2024-11-10T11:29:31Z</time>
      </trkpt>
      <trkpt lat="42.28902" lon="3.28145">
        <ele>9.9</ele>
        <time>2024-11-10T11:29:32Z</time>
      </trkpt>
      <trkpt lat="42.28901" lon="3.28144">
        <ele>9.8</ele>
        <time>2024-11-10T11:29:33Z</time>
      </trkpt>
      <trkpt lat="42.28901" lon="3.28143">
        <ele>9.7</ele>
        <time>2024-11-10T11:29:34Z</time>
      </trkpt>
      <trkpt lat="42.28901" lon="3.28142">
        <ele>9.6</ele>
        <time>2024-11-10T11:29:35Z</time>
      </trkpt>
      <trkpt lat="42.289" lon="3.28141">
        <ele>9.5</ele>
        <time>2024-11-10T11:29:36Z</time>
      </trkpt>
      <trkpt lat="42.289" lon="3.28139">
        <ele>9.4</ele>
        <time>2024-11-10T11:29:37Z</time>
      </trkpt>
      <trkpt lat="42.28899" lon="3.28137">
        <ele>9.4</ele>
        <time>2024-11-10T11:29:38Z</time>
      </trkpt>
      <trkpt lat="42.28899" lon="3.28136">
        <ele>9.3</ele>
        <time>2024-11-10T11:29:39Z</time>
      </trkpt>
      <trkpt lat="42.28898" lon="3.28135">
        <ele>9.3</ele>
        <time>2024-11-10T11:29:40Z</time>
      </trkpt>
      <trkpt lat="42.28898" lon="3.28134">
        <ele>9.3</ele>
        <time>2024-11-10T11:29:41Z</time>
      </trkpt>
      <trkpt lat="42.28898" lon="3.28133">
        <ele>9.2</ele>
        <time>2024-11-10T11:29:42Z</time>
      </trkpt>
      <trkpt lat="42.28897" lon="3.28132">
        <ele>9.2</ele>
        <time>2024-11-10T11:29:43Z</time>
      </trkpt>
      <trkpt lat="42.28896" lon="3.2813">
        <ele>9.2</ele>
        <time>2024-11-10T11:29:44Z</time>
      </trkpt>
      <trkpt lat="42.28896" lon="3.2813">
        <ele>9.2</ele>
        <time>2024-11-10T11:29:45Z</time>
      </trkpt>
      <trkpt lat="42.28895" lon="3.28129">
        <ele>9.1</ele>
        <time>2024-11-10T11:29:46Z</time>
      </trkpt>
      <trkpt lat="42.28895" lon="3.28128">
        <ele>9.1</ele>
        <time>2024-11-10T11:29:47Z</time>
      </trkpt>
      <trkpt lat="42.28894" lon="3.28127">
        <ele>9.1</ele>
        <time>2024-11-10T11:29:48Z</time>
      </trkpt>
      <trkpt lat="42.28894" lon="3.28126">
        <ele>9.1</ele>
        <time>2024-11-10T11:29:49Z</time>
      </trkpt>
      <trkpt lat="42.28893" lon="3.28125">
        <ele>9</ele>
        <time>2024-11-10T11:29:50Z</time>
      </trkpt>
      <trkpt lat="42.28892" lon="3.28124">
        <ele>9</ele>
        <time>2024-11-10T11:29:51Z</time>
      </trkpt>
      <trkpt lat="42.28892" lon="3.28123">
        <ele>9</ele>
        <time>2024-11-10T11:29:52Z</time>
      </trkpt>
      <trkpt lat="42.28891" lon="3.28122">
        <ele>8.9</ele>
        <time>2024-11-10T11:29:53Z</time>
      </trkpt>
      <trkpt lat="42.2889" lon="3.28122">
        <ele>8.9</ele>
        <time>2024-11-10T11:29:54Z</time>
      </trkpt>
      <trkpt lat="42.28889" lon="3.28121">
        <ele>8.9</ele>
        <time>2024-11-10T11:29:55Z</time>
      </trkpt>
      <trkpt lat="42.28889" lon="3.2812">
        <ele>8.8</ele>
        <time>2024-11-10T11:29:56Z</time>
      </trkpt>
      <trkpt lat="42.28888" lon="3.28118">
        <ele>8.8</ele>
        <time>2024-11-10T11:29:57Z</time>
      </trkpt>
      <trkpt lat="42.28887" lon="3.28118">
        <ele>8.8</ele>
        <time>2024-11-10T11:29:58Z</time>
      </trkpt>
      <trkpt lat="42.28886" lon="3.28117">
        <ele>8.7</ele>
        <time>2024-11-10T11:29:59Z</time>
      </trkpt>
      <trkpt lat="42.28886" lon="3.28117">
        <ele>8.7</ele>
        <time>2024-11-10T11:30:00Z</time>
      </trkpt>
      <trkpt lat="42.28886" lon="3.28116">
        <ele>8.7</ele>
        <time>2024-11-10T11:30:01Z</time>
      </trkpt>
      <trkpt lat="42.28886" lon="3.28116">
        <ele>8.7</ele>
        <time>2024-11-10T11:30:02Z</time>
      </trkpt>
      <trkpt lat="42.28886" lon="3.28116">
        <ele>8.7</ele>
        <time>2024-11-10T11:30:03Z</time>
      </trkpt>
      <trkpt lat="42.28886" lon="3.28116">
        <ele>8.7</ele>
        <time>2024-11-10T11:30:04Z</time>
      </trkpt>
      <trkpt lat="42.28885" lon="3.28115">
        <ele>8.7</ele>
        <time>2024-11-10T11:30:05Z</time>
      </trkpt>
      <trkpt lat="42.28885" lon="3.28115">
        <ele>8.7</ele>
        <time>2024-11-10T11:30:06Z</time>
      </trkpt>
      <trkpt lat="42.28885" lon="3.28115">
        <ele>8.7</ele>
        <time>2024-11-10T11:30:07Z</time>
      </trkpt>
      <trkpt lat="42.28885" lon="3.28115">
        <ele>8.7</ele>
        <time>2024-11-10T11:30:08Z</time>
      </trkpt>
      <trkpt lat="42.28885" lon="3.28114">
        <ele>8.7</ele>
        <time>2024-11-10T11:30:09Z</time>
      </trkpt>
      <trkpt lat="42.28885" lon="3.28114">
        <ele>8.7</ele>
        <time>2024-11-10T11:30:10Z</time>
      </trkpt>
      <trkpt lat="42.28885" lon="3.28114">
        <ele>8.6</ele>
        <time>2024-11-10T11:30:11Z</time>
      </trkpt>
      <trkpt lat="42.28884" lon="3.28112">
        <ele>8.6</ele>
        <time>2024-11-10T11:30:12Z</time>
      </trkpt>
      <trkpt lat="42.28884" lon="3.28111">
        <ele>8.6</ele>
        <time>2024-11-10T11:30:13Z</time>
      </trkpt>
      <trkpt lat="42.28884" lon="3.2811">
        <ele>8.6</ele>
        <time>2024-11-10T11:30:14Z</time>
      </trkpt>
      <trkpt lat="42.28883" lon="3.28107">
        <ele>8.5</ele>
        <time>2024-11-10T11:30:15Z</time>
      </trkpt>
      <trkpt lat="42.28883" lon="3.28106">
        <ele>8.5</ele>
        <time>2024-11-10T11:30:16Z</time>
      </trkpt>
      <trkpt lat="42.28883" lon="3.28105">
        <ele>8.4</ele>
        <time>2024-11-10T11:30:17Z</time>
      </trkpt>
      <trkpt lat="42.28883" lon="3.28104">
        <ele>8.4</ele>
        <time>2024-11-10T11:30:18Z</time>
      </trkpt>
      <trkpt lat="42.28883" lon="3.28102">
        <ele>8.4</ele>
        <time>2024-11-10T11:30:19Z</time>
      </trkpt>
      <trkpt lat="42.28882" lon="3.28101">
        <ele>8.4</ele>
        <time>2024-11-10T11:30:20Z</time>
      </trkpt>
      <trkpt lat="42.28882" lon="3.281">
        <ele>8.3</ele>
        <time>2024-11-10T11:30:21Z</time>
      </trkpt>
      <trkpt lat="42.28882" lon="3.28099">
        <ele>8.3</ele>
        <time>2024-11-10T11:30:22Z</time>
      </trkpt>
      <trkpt lat="42.28881" lon="3.28098">
        <ele>8.3</ele>
        <time>2024-11-10T11:30:23Z</time>
      </trkpt>
      <trkpt lat="42.2888" lon="3.28097">
        <ele>8.2</ele>
        <time>2024-11-10T11:30:24Z</time>
      </trkpt>
      <trkpt lat="42.28879" lon="3.28097">
        <ele>8.2</ele>
        <time>2024-11-10T11:30:25Z</time>
      </trkpt>
      <trkpt lat="42.28879" lon="3.28097">
        <ele>8.2</ele>
        <time>2024-11-10T11:30:26Z</time>
      </trkpt>
      <trkpt lat="42.28878" lon="3.28096">
        <ele>8.2</ele>
        <time>2024-11-10T11:30:27Z</time>
      </trkpt>
      <trkpt lat="42.28878" lon="3.28095">
        <ele>8.1</ele>
        <time>2024-11-10T11:30:28Z</time>
      </trkpt>
      <trkpt lat="42.28878" lon="3.28094">
        <ele>8.1</ele>
        <time>2024-11-10T11:30:29Z</time>
      </trkpt>
      <trkpt lat="42.28878" lon="3.28093">
        <ele>8.1</ele>
        <time>2024-11-10T11:30:30Z</time>
      </trkpt>
      <trkpt lat="42.28878" lon="3.28092">
        <ele>8.1</ele>
        <time>2024-11-10T11:30:31Z</time>
      </trkpt>
      <trkpt lat="42.28878" lon="3.28091">
        <ele>8</ele>
        <time>2024-11-10T11:30:32Z</time>
      </trkpt>
      <trkpt lat="42.28879" lon="3.2809">
        <ele>8</ele>
        <time>2024-11-10T11:30:33Z</time>
      </trkpt>
      <trkpt lat="42.28879" lon="3.28089">
        <ele>8</ele>
        <time>2024-11-10T11:30:34Z</time>
      </trkpt>
      <trkpt lat="42.28879" lon="3.28089">
        <ele>8</ele>
        <time>2024-11-10T11:30:35Z</time>
      </trkpt>
      <trkpt lat="42.2888" lon="3.28088">
        <ele>8</ele>
        <time>2024-11-10T11:30:36Z</time>
      </trkpt>
      <trkpt lat="42.28881" lon="3.28087">
        <ele>7.9</ele>
        <time>2024-11-10T11:30:37Z</time>
      </trkpt>
      <trkpt lat="42.28881" lon="3.28087">
        <ele>7.9</ele>
        <time>2024-11-10T11:30:38Z</time>
      </trkpt>
      <trkpt lat="42.28882" lon="3.28087">
        <ele>7.9</ele>
        <time>2024-11-10T11:30:39Z</time>
      </trkpt>
      <trkpt lat="42.28883" lon="3.28087">
        <ele>7.9</ele>
        <time>2024-11-10T11:30:40Z</time>
      </trkpt>
      <trkpt lat="42.28883" lon="3.28087">
        <ele>7.9</ele>
        <time>2024-11-10T11:30:41Z</time>
      </trkpt>
      <trkpt lat="42.28885" lon="3.28087">
        <ele>7.8</ele>
        <time>2024-11-10T11:30:42Z</time>
      </trkpt>
      <trkpt lat="42.28884" lon="3.28088">
        <ele>7.8</ele>
        <time>2024-11-10T11:30:43Z</time>
      </trkpt>
      <trkpt lat="42.28884" lon="3.28088">
        <ele>7.8</ele>
        <time>2024-11-10T11:30:44Z</time>
      </trkpt>
      <trkpt lat="42.28884" lon="3.28088">
        <ele>7.8</ele>
        <time>2024-11-10T11:30:45Z</time>
      </trkpt>
      <trkpt lat="42.28884" lon="3.28088">
        <ele>7.8</ele>
        <time>2024-11-10T11:30:46Z</time>
      </trkpt>
      <trkpt lat="42.28884" lon="3.28088">
        <ele>7.8</ele>
        <time>2024-11-10T11:30:47Z</time>
      </trkpt>
      <trkpt lat="42.28884" lon="3.28088">
        <ele>7.8</ele>
        <time>2024-11-10T11:30:48Z</time>
      </trkpt>
      <trkpt lat="42.28883" lon="3.28088">
        <ele>7.8</ele>
        <time>2024-11-10T11:30:49Z</time>
      </trkpt>
      <trkpt lat="42.28883" lon="3.28089">
        <ele>7.8</ele>
        <time>2024-11-10T11:30:50Z</time>
      </trkpt>
      <trkpt lat="42.28883" lon="3.28089">
        <ele>7.8</ele>
        <time>2024-11-10T11:30:51Z</time>
      </trkpt>
      <trkpt lat="42.28883" lon="3.28089">
        <ele>7.8</ele>
        <time>2024-11-10T11:30:52Z</time>
      </trkpt>
      <trkpt lat="42.28883" lon="3.28089">
        <ele>7.8</ele>
        <time>2024-11-10T11:30:53Z</time>
      </trkpt>
      <trkpt lat="42.28883" lon="3.28089">
        <ele>7.8</ele>
        <time>2024-11-10T11:30:54Z</time>
      </trkpt>
      <trkpt lat="42.28882" lon="3.28089">
        <ele>7.8</ele>
        <time>2024-11-10T11:30:55Z</time>
      </trkpt>
      <trkpt lat="42.28882" lon="3.28089">
        <ele>7.8</ele>
        <time>2024-11-10T11:30:56Z</time>
      </trkpt>
      <trkpt lat="42.28882" lon="3.28089">
        <ele>7.7</ele>
        <time>2024-11-10T11:30:57Z</time>
      </trkpt>
      <trkpt lat="42.28882" lon="3.28089">
        <ele>7.7</ele>
        <time>2024-11-10T11:30:58Z</time>
      </trkpt>
      <trkpt lat="42.28882" lon="3.2809">
        <ele>7.7</ele>
        <time>2024-11-10T11:30:59Z</time>
      </trkpt>
      <trkpt lat="42.28882" lon="3.2809">
        <ele>7.7</ele>
        <time>2024-11-10T11:31:00Z</time>
      </trkpt>
      <trkpt lat="42.28881" lon="3.2809">
        <ele>7.7</ele>
        <time>2024-11-10T11:31:01Z</time>
      </trkpt>
      <trkpt lat="42.28881" lon="3.2809">
        <ele>7.7</ele>
        <time>2024-11-10T11:31:02Z</time>
      </trkpt>
      <trkpt lat="42.28881" lon="3.2809">
        <ele>7.7</ele>
        <time>2024-11-10T11:31:03Z</time>
      </trkpt>
      <trkpt lat="42.28882" lon="3.28091">
        <ele>7.7</ele>
        <time>2024-11-10T11:31:04Z</time>
      </trkpt>
      <trkpt lat="42.28882" lon="3.28091">
        <ele>7.7</ele>
        <time>2024-11-10T11:31:05Z</time>
      </trkpt>
      <trkpt lat="42.28882" lon="3.28091">
        <ele>7.7</ele>
        <time>2024-11-10T11:31:06Z</time>
      </trkpt>
      <trkpt lat="42.28882" lon="3.28092">
        <ele>7.7</ele>
        <time>2024-11-10T11:31:07Z</time>
      </trkpt>
      <trkpt lat="42.28883" lon="3.28092">
        <ele>7.7</ele>
        <time>2024-11-10T11:31:08Z</time>
      </trkpt>
      <trkpt lat="42.28883" lon="3.28092">
        <ele>7.6</ele>
        <time>2024-11-10T11:31:09Z</time>
      </trkpt>
      <trkpt lat="42.28883" lon="3.28093">
        <ele>7.6</ele>
        <time>2024-11-10T11:31:10Z</time>
      </trkpt>
      <trkpt lat="42.28883" lon="3.28093">
        <ele>7.6</ele>
        <time>2024-11-10T11:31:11Z</time>
      </trkpt>
      <trkpt lat="42.28884" lon="3.28093">
        <ele>7.6</ele>
        <time>2024-11-10T11:31:12Z</time>
      </trkpt>
      <trkpt lat="42.28884" lon="3.28092">
        <ele>7.6</ele>
        <time>2024-11-10T11:31:13Z</time>
      </trkpt>
      <trkpt lat="42.28884" lon="3.28092">
        <ele>7.6</ele>
        <time>2024-11-10T11:31:14Z</time>
      </trkpt>
      <trkpt lat="42.28884" lon="3.28093">
        <ele>7.6</ele>
        <time>2024-11-10T11:31:15Z</time>
      </trkpt>
      <trkpt lat="42.28884" lon="3.28093">
        <ele>7.6</ele>
        <time>2024-11-10T11:31:16Z</time>
      </trkpt>
      <trkpt lat="42.28884" lon="3.28093">
        <ele>7.6</ele>
        <time>2024-11-10T11:31:17Z</time>
      </trkpt>
      <trkpt lat="42.28884" lon="3.28093">
        <ele>7.6</ele>
        <time>2024-11-10T11:31:18Z</time>
      </trkpt>
      <trkpt lat="42.28884" lon="3.28093">
        <ele>7.6</ele>
        <time>2024-11-10T11:31:19Z</time>
      </trkpt>
      <trkpt lat="42.28884" lon="3.28093">
        <ele>7.6</ele>
        <time>2024-11-10T11:31:20Z</time>
      </trkpt>
      <trkpt lat="42.28884" lon="3.28093">
        <ele>7.6</ele>
        <time>2024-11-10T11:31:21Z</time>
      </trkpt>
      <trkpt lat="42.28885" lon="3.28093">
        <ele>7.6</ele>
        <time>2024-11-10T11:31:22Z</time>
      </trkpt>
      <trkpt lat="42.28885" lon="3.28093">
        <ele>7.6</ele>
        <time>2024-11-10T11:31:23Z</time>
      </trkpt>
      <trkpt lat="42.28884" lon="3.28093">
        <ele>7.6</ele>
        <time>2024-11-10T11:31:24Z</time>
      </trkpt>
      <trkpt lat="42.28884" lon="3.28093">
        <ele>7.6</ele>
        <time>2024-11-10T11:31:25Z</time>
      </trkpt>
      <trkpt lat="42.28884" lon="3.28093">
        <ele>7.6</ele>
        <time>2024-11-10T11:31:26Z</time>
      </trkpt>
      <trkpt lat="42.28885" lon="3.28093">
        <ele>7.5</ele>
        <time>2024-11-10T11:31:27Z</time>
      </trkpt>
      <trkpt lat="42.28885" lon="3.28093">
        <ele>7.5</ele>
        <time>2024-11-10T11:31:28Z</time>
      </trkpt>
      <trkpt lat="42.28883" lon="3.28093">
        <ele>7.5</ele>
        <time>2024-11-10T11:31:29Z</time>
      </trkpt>
      <trkpt lat="42.28883" lon="3.28094">
        <ele>7.5</ele>
        <time>2024-11-10T11:31:30Z</time>
      </trkpt>
      <trkpt lat="42.28883" lon="3.28094">
        <ele>7.5</ele>
        <time>2024-11-10T11:31:31Z</time>
      </trkpt>
      <trkpt lat="42.28883" lon="3.28094">
        <ele>7.5</ele>
        <time>2024-11-10T11:31:32Z</time>
      </trkpt>
      <trkpt lat="42.28883" lon="3.28094">
        <ele>7.5</ele>
        <time>2024-11-10T11:31:33Z</time>
      </trkpt>
      <trkpt lat="42.28883" lon="3.28094">
        <ele>7.5</ele>
        <time>2024-11-10T11:31:34Z</time>
      </trkpt>
      <trkpt lat="42.28883" lon="3.28094">
        <ele>7.5</ele>
        <time>2024-11-10T11:31:35Z</time>
      </trkpt>
      <trkpt lat="42.28883" lon="3.28094">
        <ele>7.5</ele>
        <time>2024-11-10T11:31:36Z</time>
      </trkpt>
      <trkpt lat="42.28883" lon="3.28094">
        <ele>7.5</ele>
        <time>2024-11-10T11:31:37Z</time>
      </trkpt>
      <trkpt lat="42.28883" lon="3.28094">
        <ele>7.5</ele>
        <time>2024-11-10T11:31:38Z</time>
      </trkpt>
      <trkpt lat="42.28883" lon="3.28094">
        <ele>7.5</ele>
        <time>2024-11-10T11:31:39Z</time>
      </trkpt>
      <trkpt lat="42.28883" lon="3.28094">
        <ele>7.5</ele>
        <time>2024-11-10T11:31:40Z</time>
      </trkpt>
      <trkpt lat="42.28883" lon="3.28094">
        <ele>7.5</ele>
        <time>2024-11-10T11:31:41Z</time>
      </trkpt>
      <trkpt lat="42.28883" lon="3.28094">
        <ele>7.5</ele>
        <time>2024-11-10T11:31:42Z</time>
      </trkpt>
      <trkpt lat="42.28883" lon="3.28094">
        <ele>7.5</ele>
        <time>2024-11-10T11:31:43Z</time>
      </trkpt>
      <trkpt lat="42.28883" lon="3.28094">
        <ele>7.5</ele>
        <time>2024-11-10T11:31:44Z</time>
      </trkpt>
      <trkpt lat="42.28883" lon="3.28094">
        <ele>7.5</ele>
        <time>2024-11-10T11:31:45Z</time>
      </trkpt>
      <trkpt lat="42.28883" lon="3.28094">
        <ele>7.5</ele>
        <time>2024-11-10T11:31:46Z</time>
      </trkpt>
      <trkpt lat="42.28883" lon="3.28094">
        <ele>7.5</ele>
        <time>2024-11-10T11:31:47Z</time>
      </trkpt>
      <trkpt lat="42.28883" lon="3.28094">
        <ele>7.5</ele>
        <time>2024-11-10T11:31:48Z</time>
      </trkpt>
      <trkpt lat="42.28883" lon="3.28094">
        <ele>7.5</ele>
        <time>2024-11-10T11:31:49Z</time>
      </trkpt>
      <trkpt lat="42.28883" lon="3.28094">
        <ele>7.5</ele>
        <time>2024-11-10T11:31:50Z</time>
      </trkpt>
      <trkpt lat="42.28883" lon="3.28094">
        <ele>7.5</ele>
        <time>2024-11-10T11:31:51Z</time>
      </trkpt>
      <trkpt lat="42.28883" lon="3.28094">
        <ele>7.5</ele>
        <time>2024-11-10T11:31:52Z</time>
      </trkpt>
      <trkpt lat="42.28883" lon="3.28094">
        <ele>7.5</ele>
        <time>2024-11-10T11:31:53Z</time>
      </trkpt>
      <trkpt lat="42.28883" lon="3.28094">
        <ele>7.5</ele>
        <time>2024-11-10T11:31:54Z</time>
      </trkpt>
      <trkpt lat="42.28883" lon="3.28094">
        <ele>7.5</ele>
        <time>2024-11-10T11:31:55Z</time>
      </trkpt>
      <trkpt lat="42.28883" lon="3.28094">
        <ele>7.5</ele>
        <time>2024-11-10T11:31:56Z</time>
      </trkpt>
      <trkpt lat="42.28883" lon="3.28094">
        <ele>7.5</ele>
        <time>2024-11-10T11:31:57Z</time>
      </trkpt>
      <trkpt lat="42.28883" lon="3.28094">
        <ele>7.5</ele>
        <time>2024-11-10T11:31:58Z</time>
      </trkpt>
      <trkpt lat="42.28883" lon="3.28094">
        <ele>7.5</ele>
        <time>2024-11-10T11:31:59Z</time>
      </trkpt>
      <trkpt lat="42.28883" lon="3.28094">
        <ele>7.5</ele>
        <time>2024-11-10T11:32:00Z</time>
      </trkpt>
      <trkpt lat="42.28883" lon="3.28094">
        <ele>7.5</ele>
        <time>2024-11-10T11:32:01Z</time>
      </trkpt>
      <trkpt lat="42.28883" lon="3.28094">
        <ele>7.5</ele>
        <time>2024-11-10T11:32:02Z</time>
      </trkpt>
      <trkpt lat="42.28883" lon="3.28094">
        <ele>7.5</ele>
        <time>2024-11-10T11:32:03Z</time>
      </trkpt>
      <trkpt lat="42.28883" lon="3.28094">
        <ele>7.5</ele>
        <time>2024-11-10T11:32:04Z</time>
      </trkpt>
      <trkpt lat="42.28883" lon="3.28094">
        <ele>7.5</ele>
        <time>2024-11-10T11:32:05Z</time>
      </trkpt>
      <trkpt lat="42.28883" lon="3.28094">
        <ele>7.5</ele>
        <time>2024-11-10T11:32:06Z</time>
      </trkpt>
      <trkpt lat="42.28883" lon="3.28094">
        <ele>7.5</ele>
        <time>2024-11-10T11:32:07Z</time>
      </trkpt>
      <trkpt lat="42.28883" lon="3.28094">
        <ele>7.5</ele>
        <time>2024-11-10T11:32:08Z</time>
      </trkpt>
      <trkpt lat="42.28883" lon="3.28094">
        <ele>7.5</ele>
        <time>2024-11-10T11:32:09Z</time>
      </trkpt>
      <trkpt lat="42.28883" lon="3.28094">
        <ele>7.5</ele>
        <time>2024-11-10T11:32:10Z</time>
      </trkpt>
      <trkpt lat="42.28883" lon="3.28094">
        <ele>7.5</ele>
        <time>2024-11-10T11:32:11Z</time>
      </trkpt>
      <trkpt lat="42.28883" lon="3.28094">
        <ele>7.5</ele>
        <time>2024-11-10T11:32:12Z</time>
      </trkpt>
      <trkpt lat="42.28883" lon="3.28094">
        <ele>7.5</ele>
        <time>2024-11-10T11:32:13Z</time>
      </trkpt>
      <trkpt lat="42.28883" lon="3.28094">
        <ele>7.5</ele>
        <time>2024-11-10T11:32:14Z</time>
      </trkpt>
      <trkpt lat="42.28883" lon="3.28094">
        <ele>7.5</ele>
        <time>2024-11-10T11:32:15Z</time>
      </trkpt>
      <trkpt lat="42.28883" lon="3.28094">
        <ele>7.5</ele>
        <time>2024-11-10T11:32:16Z</time>
      </trkpt>
      <trkpt lat="42.28883" lon="3.28094">
        <ele>7.5</ele>
        <time>2024-11-10T11:32:17Z</time>
      </trkpt>
      <trkpt lat="42.28883" lon="3.28094">
        <ele>7.5</ele>
        <time>2024-11-10T11:32:18Z</time>
      </trkpt>
      <trkpt lat="42.28883" lon="3.28094">
        <ele>7.5</ele>
        <time>2024-11-10T11:32:19Z</time>
      </trkpt>
      <trkpt lat="42.28883" lon="3.28094">
        <ele>7.5</ele>
        <time>2024-11-10T11:32:20Z</time>
      </trkpt>
      <trkpt lat="42.28883" lon="3.28094">
        <ele>7.5</ele>
        <time>2024-11-10T11:32:21Z</time>
      </trkpt>
      <trkpt lat="42.28883" lon="3.28094">
        <ele>7.5</ele>
        <time>2024-11-10T11:32:22Z</time>
      </trkpt>
      <trkpt lat="42.28883" lon="3.28094">
        <ele>7.5</ele>
        <time>2024-11-10T11:32:23Z</time>
      </trkpt>
      <trkpt lat="42.28883" lon="3.28094">
        <ele>7.5</ele>
        <time>2024-11-10T11:32:24Z</time>
      </trkpt>
      <trkpt lat="42.28883" lon="3.28094">
        <ele>7.5</ele>
        <time>2024-11-10T11:32:25Z</time>
      </trkpt>
      <trkpt lat="42.28883" lon="3.28094">
        <ele>7.5</ele>
        <time>2024-11-10T11:32:26Z</time>
      </trkpt>
      <trkpt lat="42.28883" lon="3.28094">
        <ele>7.5</ele>
        <time>2024-11-10T11:32:27Z</time>
      </trkpt>
      <trkpt lat="42.28883" lon="3.28094">
        <ele>7.5</ele>
        <time>2024-11-10T11:32:28Z</time>
      </trkpt>
      <trkpt lat="42.28883" lon="3.28094">
        <ele>7.5</ele>
        <time>2024-11-10T11:32:29Z</time>
      </trkpt>
      <trkpt lat="42.28883" lon="3.28094">
        <ele>7.5</ele>
        <time>2024-11-10T11:32:30Z</time>
      </trkpt>
      <trkpt lat="42.28883" lon="3.28094">
        <ele>7.5</ele>
        <time>2024-11-10T11:32:31Z</time>
      </trkpt>
      <trkpt lat="42.28883" lon="3.28094">
        <ele>7.5</ele>
        <time>2024-11-10T11:32:32Z</time>
      </trkpt>
      <trkpt lat="42.28883" lon="3.28094">
        <ele>7.5</ele>
        <time>2024-11-10T11:32:33Z</time>
      </trkpt>
      <trkpt lat="42.28883" lon="3.28094">
        <ele>7.5</ele>
        <time>2024-11-10T11:32:34Z</time>
      </trkpt>
      <trkpt lat="42.28883" lon="3.28094">
        <ele>7.5</ele>
        <time>2024-11-10T11:32:35Z</time>
      </trkpt>
      <trkpt lat="42.28883" lon="3.28094">
        <ele>7.5</ele>
        <time>2024-11-10T11:32:36Z</time>
      </trkpt>
      <trkpt lat="42.28883" lon="3.28094">
        <ele>7.5</ele>
        <time>2024-11-10T11:32:37Z</time>
      </trkpt>
      <trkpt lat="42.28883" lon="3.28094">
        <ele>7.5</ele>
        <time>2024-11-10T11:32:38Z</time>
      </trkpt>
      <trkpt lat="42.28883" lon="3.28094">
        <ele>7.5</ele>
        <time>2024-11-10T11:32:39Z</time>
      </trkpt>
      <trkpt lat="42.28883" lon="3.28094">
        <ele>7.5</ele>
        <time>2024-11-10T11:32:40Z</time>
      </trkpt>
      <trkpt lat="42.28883" lon="3.28094">
        <ele>7.5</ele>
        <time>2024-11-10T11:32:41Z</time>
      </trkpt>
      <trkpt lat="42.28883" lon="3.28094">
        <ele>7.5</ele>
        <time>2024-11-10T11:32:42Z</time>
      </trkpt>
      <trkpt lat="42.28883" lon="3.28094">
        <ele>7.5</ele>
        <time>2024-11-10T11:32:43Z</time>
      </trkpt>
      <trkpt lat="42.28883" lon="3.28094">
        <ele>7.5</ele>
        <time>2024-11-10T11:32:44Z</time>
      </trkpt>
      <trkpt lat="42.28883" lon="3.28094">
        <ele>7.5</ele>
        <time>2024-11-10T11:32:45Z</time>
      </trkpt>
      <trkpt lat="42.28883" lon="3.28094">
        <ele>7.5</ele>
        <time>2024-11-10T11:32:46Z</time>
      </trkpt>
      <trkpt lat="42.28883" lon="3.28094">
        <ele>7.5</ele>
        <time>2024-11-10T11:32:47Z</time>
      </trkpt>
      <trkpt lat="42.28883" lon="3.28094">
        <ele>7.5</ele>
        <time>2024-11-10T11:32:48Z</time>
      </trkpt>
      <trkpt lat="42.28883" lon="3.28094">
        <ele>7.5</ele>
        <time>2024-11-10T11:32:49Z</time>
      </trkpt>
      <trkpt lat="42.28883" lon="3.28094">
        <ele>7.5</ele>
        <time>2024-11-10T11:32:50Z</time>
      </trkpt>
      <trkpt lat="42.28883" lon="3.28094">
        <ele>7.5</ele>
        <time>2024-11-10T11:32:51Z</time>
      </trkpt>
      <trkpt lat="42.28883" lon="3.28094">
        <ele>7.5</ele>
        <time>2024-11-10T11:32:52Z</time>
      </trkpt>
      <trkpt lat="42.28883" lon="3.28094">
        <ele>7.5</ele>
        <time>2024-11-10T11:32:53Z</time>
      </trkpt>
      <trkpt lat="42.28883" lon="3.28094">
        <ele>7.5</ele>
        <time>2024-11-10T11:32:54Z</time>
      </trkpt>
      <trkpt lat="42.28883" lon="3.28094">
        <ele>7.5</ele>
        <time>2024-11-10T11:32:55Z</time>
      </trkpt>
      <trkpt lat="42.28883" lon="3.28094">
        <ele>7.5</ele>
        <time>2024-11-10T11:32:56Z</time>
      </trkpt>
      <trkpt lat="42.28883" lon="3.28094">
        <ele>7.5</ele>
        <time>2024-11-10T11:32:57Z</time>
      </trkpt>
      <trkpt lat="42.28883" lon="3.28094">
        <ele>7.5</ele>
        <time>2024-11-10T11:32:58Z</time>
      </trkpt>
      <trkpt lat="42.28883" lon="3.28094">
        <ele>7.5</ele>
        <time>2024-11-10T11:32:59Z</time>
      </trkpt>
      <trkpt lat="42.28883" lon="3.28094">
        <ele>7.5</ele>
        <time>2024-11-10T11:33:00Z</time>
      </trkpt>
      <trkpt lat="42.28883" lon="3.28094">
        <ele>7.5</ele>
        <time>2024-11-10T11:33:01Z</time>
      </trkpt>
      <trkpt lat="42.28883" lon="3.28094">
        <ele>7.5</ele>
        <time>2024-11-10T11:33:02Z</time>
      </trkpt>
      <trkpt lat="42.28883" lon="3.28094">
        <ele>7.5</ele>
        <time>2024-11-10T11:33:03Z</time>
      </trkpt>
      <trkpt lat="42.28883" lon="3.28094">
        <ele>7.5</ele>
        <time>2024-11-10T11:33:04Z</time>
      </trkpt>
      <trkpt lat="42.28883" lon="3.28094">
        <ele>7.5</ele>
        <time>2024-11-10T11:33:05Z</time>
      </trkpt>
      <trkpt lat="42.28883" lon="3.28094">
        <ele>7.5</ele>
        <time>2024-11-10T11:33:06Z</time>
      </trkpt>
      <trkpt lat="42.28883" lon="3.28094">
        <ele>7.5</ele>
        <time>2024-11-10T11:33:07Z</time>
      </trkpt>
      <trkpt lat="42.28883" lon="3.28094">
        <ele>7.5</ele>
        <time>2024-11-10T11:33:08Z</time>
      </trkpt>
      <trkpt lat="42.28883" lon="3.28094">
        <ele>7.5</ele>
        <time>2024-11-10T11:33:09Z</time>
      </trkpt>
      <trkpt lat="42.28883" lon="3.28094">
        <ele>7.5</ele>
        <time>2024-11-10T11:33:10Z</time>
      </trkpt>
      <trkpt lat="42.28883" lon="3.28094">
        <ele>7.5</ele>
        <time>2024-11-10T11:33:11Z</time>
      </trkpt>
      <trkpt lat="42.28883" lon="3.28094">
        <ele>7.5</ele>
        <time>2024-11-10T11:33:12Z</time>
      </trkpt>
      <trkpt lat="42.28883" lon="3.28094">
        <ele>7.5</ele>
        <time>2024-11-10T11:33:13Z</time>
      </trkpt>
      <trkpt lat="42.28883" lon="3.28094">
        <ele>7.5</ele>
        <time>2024-11-10T11:33:14Z</time>
      </trkpt>
      <trkpt lat="42.28883" lon="3.28094">
        <ele>7.5</ele>
        <time>2024-11-10T11:33:15Z</time>
      </trkpt>
      <trkpt lat="42.28883" lon="3.28094">
        <ele>7.5</ele>
        <time>2024-11-10T11:33:16Z</time>
      </trkpt>
      <trkpt lat="42.28883" lon="3.28094">
        <ele>7.5</ele>
        <time>2024-11-10T11:33:17Z</time>
      </trkpt>
      <trkpt lat="42.28883" lon="3.28094">
        <ele>7.5</ele>
        <time>2024-11-10T11:33:18Z</time>
      </trkpt>
      <trkpt lat="42.28883" lon="3.28094">
        <ele>7.5</ele>
        <time>2024-11-10T11:33:19Z</time>
      </trkpt>
      <trkpt lat="42.28883" lon="3.28094">
        <ele>7.5</ele>
        <time>2024-11-10T11:33:20Z</time>
      </trkpt>
      <trkpt lat="42.28883" lon="3.28094">
        <ele>7.5</ele>
        <time>2024-11-10T11:33:21Z</time>
      </trkpt>
      <trkpt lat="42.28883" lon="3.28094">
        <ele>7.5</ele>
        <time>2024-11-10T11:33:22Z</time>
      </trkpt>
      <trkpt lat="42.28883" lon="3.28094">
        <ele>7.5</ele>
        <time>2024-11-10T11:33:23Z</time>
      </trkpt>
      <trkpt lat="42.28883" lon="3.28094">
        <ele>7.5</ele>
        <time>2024-11-10T11:33:24Z</time>
      </trkpt>
      <trkpt lat="42.28883" lon="3.28094">
        <ele>7.5</ele>
        <time>2024-11-10T11:33:25Z</time>
      </trkpt>
      <trkpt lat="42.28883" lon="3.28094">
        <ele>7.5</ele>
        <time>2024-11-10T11:33:26Z</time>
      </trkpt>
      <trkpt lat="42.28884" lon="3.28094">
        <ele>7.5</ele>
        <time>2024-11-10T11:33:27Z</time>
      </trkpt>
      <trkpt lat="42.28884" lon="3.28094">
        <ele>7.5</ele>
        <time>2024-11-10T11:33:28Z</time>
      </trkpt>
      <trkpt lat="42.28884" lon="3.28094">
        <ele>7.5</ele>
        <time>2024-11-10T11:33:29Z</time>
      </trkpt>
      <trkpt lat="42.28884" lon="3.28094">
        <ele>7.5</ele>
        <time>2024-11-10T11:33:30Z</time>
      </trkpt>
      <trkpt lat="42.28884" lon="3.28094">
        <ele>7.5</ele>
        <time>2024-11-10T11:33:31Z</time>
      </trkpt>
      <trkpt lat="42.28884" lon="3.28094">
        <ele>7.5</ele>
        <time>2024-11-10T11:33:32Z</time>
      </trkpt>
      <trkpt lat="42.28884" lon="3.28094">
        <ele>7.5</ele>
        <time>2024-11-10T11:33:33Z</time>
      </trkpt>
      <trkpt lat="42.28884" lon="3.28094">
        <ele>7.5</ele>
        <time>2024-11-10T11:33:34Z</time>
      </trkpt>
      <trkpt lat="42.28883" lon="3.28094">
        <ele>7.5</ele>
        <time>2024-11-10T11:33:35Z</time>
      </trkpt>
      <trkpt lat="42.28883" lon="3.28094">
        <ele>7.5</ele>
        <time>2024-11-10T11:33:36Z</time>
      </trkpt>
      <trkpt lat="42.28883" lon="3.28094">
        <ele>7.5</ele>
        <time>2024-11-10T11:33:37Z</time>
      </trkpt>
      <trkpt lat="42.28883" lon="3.28094">
        <ele>7.5</ele>
        <time>2024-11-10T11:33:38Z</time>
      </trkpt>
      <trkpt lat="42.28883" lon="3.28094">
        <ele>7.5</ele>
        <time>2024-11-10T11:33:39Z</time>
      </trkpt>
      <trkpt lat="42.28883" lon="3.28094">
        <ele>7.4</ele>
        <time>2024-11-10T11:33:40Z</time>
      </trkpt>
      <trkpt lat="42.28883" lon="3.28094">
        <ele>7.4</ele>
        <time>2024-11-10T11:33:41Z</time>
      </trkpt>
      <trkpt lat="42.28883" lon="3.28094">
        <ele>7.4</ele>
        <time>2024-11-10T11:33:42Z</time>
      </trkpt>
      <trkpt lat="42.28883" lon="3.28094">
        <ele>7.4</ele>
        <time>2024-11-10T11:33:43Z</time>
      </trkpt>
      <trkpt lat="42.28883" lon="3.28094">
        <ele>7.4</ele>
        <time>2024-11-10T11:33:44Z</time>
      </trkpt>
      <trkpt lat="42.28883" lon="3.28094">
        <ele>7.4</ele>
        <time>2024-11-10T11:33:45Z</time>
      </trkpt>
      <trkpt lat="42.28883" lon="3.28094">
        <ele>7.4</ele>
        <time>2024-11-10T11:33:46Z</time>
      </trkpt>
      <trkpt lat="42.28883" lon="3.28094">
        <ele>7.4</ele>
        <time>2024-11-10T11:33:47Z</time>
      </trkpt>
      <trkpt lat="42.28883" lon="3.28094">
        <ele>7.4</ele>
        <time>2024-11-10T11:33:48Z</time>
      </trkpt>
      <trkpt lat="42.28883" lon="3.28094">
        <ele>7.4</ele>
        <time>2024-11-10T11:33:49Z</time>
      </trkpt>
      <trkpt lat="42.28883" lon="3.28094">
        <ele>7.4</ele>
        <time>2024-11-10T11:33:50Z</time>
      </trkpt>
      <trkpt lat="42.28883" lon="3.28094">
        <ele>7.4</ele>
        <time>2024-11-10T11:33:51Z</time>
      </trkpt>
      <trkpt lat="42.28883" lon="3.28094">
        <ele>7.4</ele>
        <time>2024-11-10T11:33:52Z</time>
      </trkpt>
      <trkpt lat="42.28883" lon="3.28094">
        <ele>7.4</ele>
        <time>2024-11-10T11:33:53Z</time>
      </trkpt>
      <trkpt lat="42.28883" lon="3.28094">
        <ele>7.4</ele>
        <time>2024-11-10T11:33:54Z</time>
      </trkpt>
      <trkpt lat="42.28883" lon="3.28094">
        <ele>7.4</ele>
        <time>2024-11-10T11:33:55Z</time>
      </trkpt>
      <trkpt lat="42.28883" lon="3.28094">
        <ele>7.4</ele>
        <time>2024-11-10T11:33:56Z</time>
      </trkpt>
      <trkpt lat="42.28883" lon="3.28094">
        <ele>7.4</ele>
        <time>2024-11-10T11:33:57Z</time>
      </trkpt>
      <trkpt lat="42.28883" lon="3.28094">
        <ele>7.4</ele>
        <time>2024-11-10T11:33:58Z</time>
      </trkpt>
      <trkpt lat="42.28883" lon="3.28094">
        <ele>7.4</ele>
        <time>2024-11-10T11:33:59Z</time>
      </trkpt>
      <trkpt lat="42.28883" lon="3.28094">
        <ele>7.4</ele>
        <time>2024-11-10T11:34:00Z</time>
      </trkpt>
      <trkpt lat="42.28883" lon="3.28094">
        <ele>7.4</ele>
        <time>2024-11-10T11:34:01Z</time>
      </trkpt>
      <trkpt lat="42.28883" lon="3.28094">
        <ele>7.4</ele>
        <time>2024-11-10T11:34:02Z</time>
      </trkpt>
      <trkpt lat="42.28883" lon="3.28094">
        <ele>7.4</ele>
        <time>2024-11-10T11:34:03Z</time>
      </trkpt>
      <trkpt lat="42.28883" lon="3.28094">
        <ele>7.4</ele>
        <time>2024-11-10T11:34:04Z</time>
      </trkpt>
      <trkpt lat="42.28883" lon="3.28094">
        <ele>7.4</ele>
        <time>2024-11-10T11:34:05Z</time>
      </trkpt>
      <trkpt lat="42.28883" lon="3.28094">
        <ele>7.4</ele>
        <time>2024-11-10T11:34:06Z</time>
      </trkpt>
      <trkpt lat="42.28883" lon="3.28094">
        <ele>7.4</ele>
        <time>2024-11-10T11:34:07Z</time>
      </trkpt>
      <trkpt lat="42.28883" lon="3.28094">
        <ele>7.4</ele>
        <time>2024-11-10T11:34:08Z</time>
      </trkpt>
      <trkpt lat="42.28883" lon="3.28094">
        <ele>7.4</ele>
        <time>2024-11-10T11:34:09Z</time>
      </trkpt>
      <trkpt lat="42.28883" lon="3.28094">
        <ele>7.4</ele>
        <time>2024-11-10T11:34:10Z</time>
      </trkpt>
      <trkpt lat="42.28883" lon="3.28094">
        <ele>7.4</ele>
        <time>2024-11-10T11:34:11Z</time>
      </trkpt>
      <trkpt lat="42.28883" lon="3.28094">
        <ele>7.4</ele>
        <time>2024-11-10T11:34:12Z</time>
      </trkpt>
      <trkpt lat="42.28883" lon="3.28094">
        <ele>7.4</ele>
        <time>2024-11-10T11:34:13Z</time>
      </trkpt>
      <trkpt lat="42.28883" lon="3.28094">
        <ele>7.4</ele>
        <time>2024-11-10T11:34:14Z</time>
      </trkpt>
      <trkpt lat="42.28883" lon="3.28094">
        <ele>7.4</ele>
        <time>2024-11-10T11:34:15Z</time>
      </trkpt>
      <trkpt lat="42.28883" lon="3.28094">
        <ele>7.4</ele>
        <time>2024-11-10T11:34:16Z</time>
      </trkpt>
      <trkpt lat="42.28883" lon="3.28094">
        <ele>7.4</ele>
        <time>2024-11-10T11:34:17Z</time>
      </trkpt>
      <trkpt lat="42.28883" lon="3.28094">
        <ele>7.4</ele>
        <time>2024-11-10T11:34:18Z</time>
      </trkpt>
      <trkpt lat="42.28883" lon="3.28093">
        <ele>7.4</ele>
        <time>2024-11-10T11:34:19Z</time>
      </trkpt>
      <trkpt lat="42.28883" lon="3.28093">
        <ele>7.4</ele>
        <time>2024-11-10T11:34:20Z</time>
      </trkpt>
      <trkpt lat="42.28883" lon="3.28093">
        <ele>7.4</ele>
        <time>2024-11-10T11:34:21Z</time>
      </trkpt>
      <trkpt lat="42.28883" lon="3.28093">
        <ele>7.4</ele>
        <time>2024-11-10T11:34:22Z</time>
      </trkpt>
      <trkpt lat="42.28883" lon="3.28093">
        <ele>7.4</ele>
        <time>2024-11-10T11:34:23Z</time>
      </trkpt>
      <trkpt lat="42.28883" lon="3.28093">
        <ele>7.4</ele>
        <time>2024-11-10T11:34:24Z</time>
      </trkpt>
      <trkpt lat="42.28883" lon="3.28093">
        <ele>7.4</ele>
        <time>2024-11-10T11:34:25Z</time>
      </trkpt>
      <trkpt lat="42.28883" lon="3.28093">
        <ele>7.4</ele>
        <time>2024-11-10T11:34:26Z</time>
      </trkpt>
      <trkpt lat="42.28883" lon="3.28093">
        <ele>7.4</ele>
        <time>2024-11-10T11:34:27Z</time>
      </trkpt>
      <trkpt lat="42.28883" lon="3.28093">
        <ele>7.4</ele>
        <time>2024-11-10T11:34:28Z</time>
      </trkpt>
      <trkpt lat="42.28883" lon="3.28093">
        <ele>7.4</ele>
        <time>2024-11-10T11:34:29Z</time>
      </trkpt>
      <trkpt lat="42.28883" lon="3.28093">
        <ele>7.4</ele>
        <time>2024-11-10T11:34:30Z</time>
      </trkpt>
      <trkpt lat="42.28883" lon="3.28093">
        <ele>7.4</ele>
        <time>2024-11-10T11:34:31Z</time>
      </trkpt>
      <trkpt lat="42.28883" lon="3.28093">
        <ele>7.4</ele>
        <time>2024-11-10T11:34:32Z</time>
      </trkpt>
      <trkpt lat="42.28883" lon="3.28093">
        <ele>7.4</ele>
        <time>2024-11-10T11:34:33Z</time>
      </trkpt>
      <trkpt lat="42.28883" lon="3.28093">
        <ele>7.4</ele>
        <time>2024-11-10T11:34:34Z</time>
      </trkpt>
      <trkpt lat="42.28883" lon="3.28093">
        <ele>7.4</ele>
        <time>2024-11-10T11:34:35Z</time>
      </trkpt>
      <trkpt lat="42.28883" lon="3.28093">
        <ele>7.4</ele>
        <time>2024-11-10T11:34:36Z</time>
      </trkpt>
      <trkpt lat="42.28883" lon="3.28091">
        <ele>7.4</ele>
        <time>2024-11-10T11:34:37Z</time>
      </trkpt>
      <trkpt lat="42.28884" lon="3.2809">
        <ele>7.4</ele>
        <time>2024-11-10T11:34:38Z</time>
      </trkpt>
      <trkpt lat="42.28886" lon="3.28092">
        <ele>7.3</ele>
        <time>2024-11-10T11:34:39Z</time>
      </trkpt>
      <trkpt lat="42.28887" lon="3.28095">
        <ele>7.3</ele>
        <time>2024-11-10T11:34:40Z</time>
      </trkpt>
      <trkpt lat="42.28884" lon="3.28095">
        <ele>7.2</ele>
        <time>2024-11-10T11:34:41Z</time>
      </trkpt>
      <trkpt lat="42.28883" lon="3.28095">
        <ele>7.2</ele>
        <time>2024-11-10T11:34:42Z</time>
      </trkpt>
      <trkpt lat="42.28882" lon="3.28095">
        <ele>7.1</ele>
        <time>2024-11-10T11:34:43Z</time>
      </trkpt>
      <trkpt lat="42.28881" lon="3.28096">
        <ele>7.1</ele>
        <time>2024-11-10T11:34:44Z</time>
      </trkpt>
      <trkpt lat="42.28881" lon="3.28097">
        <ele>7.1</ele>
        <time>2024-11-10T11:34:45Z</time>
      </trkpt>
      <trkpt lat="42.28879" lon="3.28098">
        <ele>7.1</ele>
        <time>2024-11-10T11:34:46Z</time>
      </trkpt>
      <trkpt lat="42.28879" lon="3.28099">
        <ele>7</ele>
        <time>2024-11-10T11:34:47Z</time>
      </trkpt>
      <trkpt lat="42.28879" lon="3.28101">
        <ele>7</ele>
        <time>2024-11-10T11:34:48Z</time>
      </trkpt>
      <trkpt lat="42.28879" lon="3.28102">
        <ele>7</ele>
        <time>2024-11-10T11:34:49Z</time>
      </trkpt>
      <trkpt lat="42.28879" lon="3.28104">
        <ele>7</ele>
        <time>2024-11-10T11:34:50Z</time>
      </trkpt>
      <trkpt lat="42.2888" lon="3.28105">
        <ele>6.9</ele>
        <time>2024-11-10T11:34:51Z</time>
      </trkpt>
      <trkpt lat="42.2888" lon="3.28106">
        <ele>6.9</ele>
        <time>2024-11-10T11:34:52Z</time>
      </trkpt>
      <trkpt lat="42.28881" lon="3.28107">
        <ele>6.9</ele>
        <time>2024-11-10T11:34:53Z</time>
      </trkpt>
      <trkpt lat="42.28881" lon="3.28109">
        <ele>6.9</ele>
        <time>2024-11-10T11:34:54Z</time>
      </trkpt>
      <trkpt lat="42.28882" lon="3.2811">
        <ele>6.8</ele>
        <time>2024-11-10T11:34:55Z</time>
      </trkpt>
      <trkpt lat="42.28882" lon="3.28112">
        <ele>6.8</ele>
        <time>2024-11-10T11:34:56Z</time>
      </trkpt>
      <trkpt lat="42.28883" lon="3.28113">
        <ele>6.8</ele>
        <time>2024-11-10T11:34:57Z</time>
      </trkpt>
      <trkpt lat="42.28883" lon="3.28114">
        <ele>6.8</ele>
        <time>2024-11-10T11:34:58Z</time>
      </trkpt>
      <trkpt lat="42.28884" lon="3.28115">
        <ele>6.7</ele>
        <time>2024-11-10T11:34:59Z</time>
      </trkpt>
      <trkpt lat="42.28884" lon="3.28116">
        <ele>6.7</ele>
        <time>2024-11-10T11:35:00Z</time>
      </trkpt>
      <trkpt lat="42.28884" lon="3.28116">
        <ele>6.7</ele>
        <time>2024-11-10T11:35:01Z</time>
      </trkpt>
      <trkpt lat="42.28885" lon="3.28117">
        <ele>6.7</ele>
        <time>2024-11-10T11:35:02Z</time>
      </trkpt>
      <trkpt lat="42.28885" lon="3.28118">
        <ele>6.7</ele>
        <time>2024-11-10T11:35:03Z</time>
      </trkpt>
      <trkpt lat="42.28886" lon="3.28119">
        <ele>6.7</ele>
        <time>2024-11-10T11:35:04Z</time>
      </trkpt>
      <trkpt lat="42.28886" lon="3.2812">
        <ele>6.7</ele>
        <time>2024-11-10T11:35:05Z</time>
      </trkpt>
      <trkpt lat="42.28885" lon="3.28121">
        <ele>6.6</ele>
        <time>2024-11-10T11:35:06Z</time>
      </trkpt>
      <trkpt lat="42.28885" lon="3.28122">
        <ele>6.6</ele>
        <time>2024-11-10T11:35:07Z</time>
      </trkpt>
      <trkpt lat="42.28885" lon="3.28123">
        <ele>6.6</ele>
        <time>2024-11-10T11:35:08Z</time>
      </trkpt>
      <trkpt lat="42.28885" lon="3.28123">
        <ele>6.6</ele>
        <time>2024-11-10T11:35:09Z</time>
      </trkpt>
      <trkpt lat="42.28885" lon="3.28123">
        <ele>6.6</ele>
        <time>2024-11-10T11:35:10Z</time>
      </trkpt>
      <trkpt lat="42.28885" lon="3.28123">
        <ele>6.6</ele>
        <time>2024-11-10T11:35:11Z</time>
      </trkpt>
      <trkpt lat="42.28885" lon="3.28123">
        <ele>6.6</ele>
        <time>2024-11-10T11:35:12Z</time>
      </trkpt>
      <trkpt lat="42.28885" lon="3.28123">
        <ele>6.6</ele>
        <time>2024-11-10T11:35:13Z</time>
      </trkpt>
      <trkpt lat="42.28885" lon="3.28123">
        <ele>6.6</ele>
        <time>2024-11-10T11:35:14Z</time>
      </trkpt>
      <trkpt lat="42.28885" lon="3.28123">
        <ele>6.6</ele>
        <time>2024-11-10T11:35:15Z</time>
      </trkpt>
      <trkpt lat="42.28884" lon="3.28124">
        <ele>6.6</ele>
        <time>2024-11-10T11:35:16Z</time>
      </trkpt>
      <trkpt lat="42.28883" lon="3.28124">
        <ele>6.6</ele>
        <time>2024-11-10T11:35:17Z</time>
      </trkpt>
      <trkpt lat="42.28882" lon="3.28125">
        <ele>6.5</ele>
        <time>2024-11-10T11:35:18Z</time>
      </trkpt>
      <trkpt lat="42.28881" lon="3.28126">
        <ele>6.5</ele>
        <time>2024-11-10T11:35:19Z</time>
      </trkpt>
      <trkpt lat="42.2888" lon="3.28126">
        <ele>6.5</ele>
        <time>2024-11-10T11:35:20Z</time>
      </trkpt>
      <trkpt lat="42.28879" lon="3.28125">
        <ele>6.5</ele>
        <time>2024-11-10T11:35:21Z</time>
      </trkpt>
      <trkpt lat="42.2888" lon="3.28122">
        <ele>6.4</ele>
        <time>2024-11-10T11:35:22Z</time>
      </trkpt>
      <trkpt lat="42.2888" lon="3.28121">
        <ele>6.4</ele>
        <time>2024-11-10T11:35:23Z</time>
      </trkpt>
      <trkpt lat="42.28881" lon="3.28119">
        <ele>6.4</ele>
        <time>2024-11-10T11:35:24Z</time>
      </trkpt>
      <trkpt lat="42.28883" lon="3.28119">
        <ele>6.3</ele>
        <time>2024-11-10T11:35:25Z</time>
      </trkpt>
      <trkpt lat="42.28884" lon="3.28119">
        <ele>6.3</ele>
        <time>2024-11-10T11:35:26Z</time>
      </trkpt>
      <trkpt lat="42.28885" lon="3.28118">
        <ele>6.3</ele>
        <time>2024-11-10T11:35:27Z</time>
      </trkpt>
      <trkpt lat="42.28885" lon="3.28117">
        <ele>6.3</ele>
        <time>2024-11-10T11:35:28Z</time>
      </trkpt>
      <trkpt lat="42.28886" lon="3.28116">
        <ele>6.3</ele>
        <time>2024-11-10T11:35:29Z</time>
      </trkpt>
      <trkpt lat="42.28886" lon="3.28115">
        <ele>6.2</ele>
        <time>2024-11-10T11:35:30Z</time>
      </trkpt>
      <trkpt lat="42.28887" lon="3.28114">
        <ele>6.2</ele>
        <time>2024-11-10T11:35:31Z</time>
      </trkpt>
      <trkpt lat="42.28887" lon="3.28113">
        <ele>6.2</ele>
        <time>2024-11-10T11:35:32Z</time>
      </trkpt>
      <trkpt lat="42.28888" lon="3.28112">
        <ele>6.2</ele>
        <time>2024-11-10T11:35:33Z</time>
      </trkpt>
      <trkpt lat="42.28889" lon="3.28111">
        <ele>6.2</ele>
        <time>2024-11-10T11:35:34Z</time>
      </trkpt>
      <trkpt lat="42.2889" lon="3.2811">
        <ele>6.1</ele>
        <time>2024-11-10T11:35:35Z</time>
      </trkpt>
      <trkpt lat="42.28891" lon="3.28109">
        <ele>6.1</ele>
        <time>2024-11-10T11:35:36Z</time>
      </trkpt>
      <trkpt lat="42.28891" lon="3.28108">
        <ele>6.1</ele>
        <time>2024-11-10T11:35:37Z</time>
      </trkpt>
      <trkpt lat="42.28891" lon="3.28107">
        <ele>6.1</ele>
        <time>2024-11-10T11:35:38Z</time>
      </trkpt>
      <trkpt lat="42.2889" lon="3.28106">
        <ele>6</ele>
        <time>2024-11-10T11:35:39Z</time>
      </trkpt>
      <trkpt lat="42.28889" lon="3.28106">
        <ele>6</ele>
        <time>2024-11-10T11:35:40Z</time>
      </trkpt>
      <trkpt lat="42.28888" lon="3.28104">
        <ele>6</ele>
        <time>2024-11-10T11:35:41Z</time>
      </trkpt>
      <trkpt lat="42.28888" lon="3.28103">
        <ele>6</ele>
        <time>2024-11-10T11:35:42Z</time>
      </trkpt>
      <trkpt lat="42.28888" lon="3.28102">
        <ele>6</ele>
        <time>2024-11-10T11:35:43Z</time>
      </trkpt>
      <trkpt lat="42.28887" lon="3.28101">
        <ele>5.9</ele>
        <time>2024-11-10T11:35:44Z</time>
      </trkpt>
      <trkpt lat="42.28887" lon="3.281">
        <ele>5.9</ele>
        <time>2024-11-10T11:35:45Z</time>
      </trkpt>
      <trkpt lat="42.28887" lon="3.28099">
        <ele>5.9</ele>
        <time>2024-11-10T11:35:46Z</time>
      </trkpt>
      <trkpt lat="42.28886" lon="3.28098">
        <ele>5.9</ele>
        <time>2024-11-10T11:35:47Z</time>
      </trkpt>
      <trkpt lat="42.28886" lon="3.28097">
        <ele>5.9</ele>
        <time>2024-11-10T11:35:48Z</time>
      </trkpt>
      <trkpt lat="42.28886" lon="3.28097">
        <ele>5.9</ele>
        <time>2024-11-10T11:35:49Z</time>
      </trkpt>
      <trkpt lat="42.28885" lon="3.28097">
        <ele>5.9</ele>
        <time>2024-11-10T11:35:50Z</time>
      </trkpt>
      <trkpt lat="42.28885" lon="3.28096">
        <ele>5.8</ele>
        <time>2024-11-10T11:35:51Z</time>
      </trkpt>
      <trkpt lat="42.28884" lon="3.28096">
        <ele>5.8</ele>
        <time>2024-11-10T11:35:52Z</time>
      </trkpt>
      <trkpt lat="42.28883" lon="3.28096">
        <ele>5.8</ele>
        <time>2024-11-10T11:35:53Z</time>
      </trkpt>
      <trkpt lat="42.28882" lon="3.28096">
        <ele>5.7</ele>
        <time>2024-11-10T11:35:54Z</time>
      </trkpt>
      <trkpt lat="42.28881" lon="3.28096">
        <ele>5.7</ele>
        <time>2024-11-10T11:35:55Z</time>
      </trkpt>
      <trkpt lat="42.28879" lon="3.28097">
        <ele>5.6</ele>
        <time>2024-11-10T11:35:56Z</time>
      </trkpt>
      <trkpt lat="42.28878" lon="3.28097">
        <ele>5.6</ele>
        <time>2024-11-10T11:35:57Z</time>
      </trkpt>
      <trkpt lat="42.28875" lon="3.28098">
        <ele>5.6</ele>
        <time>2024-11-10T11:35:58Z</time>
      </trkpt>
      <trkpt lat="42.28874" lon="3.28099">
        <ele>5.6</ele>
        <time>2024-11-10T11:35:59Z</time>
      </trkpt>
      <trkpt lat="42.28872" lon="3.28099">
        <ele>5.6</ele>
        <time>2024-11-10T11:36:00Z</time>
      </trkpt>
      <trkpt lat="42.2887" lon="3.281">
        <ele>5.6</ele>
        <time>2024-11-10T11:36:01Z</time>
      </trkpt>
      <trkpt lat="42.28869" lon="3.281">
        <ele>5.6</ele>
        <time>2024-11-10T11:36:02Z</time>
      </trkpt>
      <trkpt lat="42.28869" lon="3.281">
        <ele>5.6</ele>
        <time>2024-11-10T11:36:03Z</time>
      </trkpt>
      <trkpt lat="42.28868" lon="3.281">
        <ele>5.6</ele>
        <time>2024-11-10T11:36:04Z</time>
      </trkpt>
      <trkpt lat="42.28867" lon="3.28101">
        <ele>5.6</ele>
        <time>2024-11-10T11:36:05Z</time>
      </trkpt>
      <trkpt lat="42.28865" lon="3.28101">
        <ele>5.6</ele>
        <time>2024-11-10T11:36:06Z</time>
      </trkpt>
      <trkpt lat="42.28864" lon="3.28101">
        <ele>5.6</ele>
        <time>2024-11-10T11:36:07Z</time>
      </trkpt>
      <trkpt lat="42.28863" lon="3.28101">
        <ele>5.6</ele>
        <time>2024-11-10T11:36:08Z</time>
      </trkpt>
      <trkpt lat="42.28863" lon="3.28101">
        <ele>5.6</ele>
        <time>2024-11-10T11:36:09Z</time>
      </trkpt>
      <trkpt lat="42.28862" lon="3.281">
        <ele>5.6</ele>
        <time>2024-11-10T11:36:10Z</time>
      </trkpt>
      <trkpt lat="42.28861" lon="3.281">
        <ele>5.6</ele>
        <time>2024-11-10T11:36:11Z</time>
      </trkpt>
      <trkpt lat="42.2886" lon="3.281">
        <ele>5.6</ele>
        <time>2024-11-10T11:36:12Z</time>
      </trkpt>
      <trkpt lat="42.28859" lon="3.281">
        <ele>5.6</ele>
        <time>2024-11-10T11:36:13Z</time>
      </trkpt>
      <trkpt lat="42.28857" lon="3.281">
        <ele>5.6</ele>
        <time>2024-11-10T11:36:14Z</time>
      </trkpt>
      <trkpt lat="42.28856" lon="3.281">
        <ele>5.6</ele>
        <time>2024-11-10T11:36:15Z</time>
      </trkpt>
      <trkpt lat="42.28855" lon="3.281">
        <ele>5.6</ele>
        <time>2024-11-10T11:36:16Z</time>
      </trkpt>
      <trkpt lat="42.28854" lon="3.281">
        <ele>5.6</ele>
        <time>2024-11-10T11:36:17Z</time>
      </trkpt>
      <trkpt lat="42.28853" lon="3.28099">
        <ele>5.6</ele>
        <time>2024-11-10T11:36:18Z</time>
      </trkpt>
      <trkpt lat="42.28853" lon="3.28099">
        <ele>5.6</ele>
        <time>2024-11-10T11:36:19Z</time>
      </trkpt>
      <trkpt lat="42.28852" lon="3.28099">
        <ele>5.7</ele>
        <time>2024-11-10T11:36:20Z</time>
      </trkpt>
      <trkpt lat="42.28851" lon="3.28098">
        <ele>5.7</ele>
        <time>2024-11-10T11:36:21Z</time>
      </trkpt>
      <trkpt lat="42.2885" lon="3.28098">
        <ele>5.7</ele>
        <time>2024-11-10T11:36:22Z</time>
      </trkpt>
      <trkpt lat="42.28849" lon="3.28098">
        <ele>5.7</ele>
        <time>2024-11-10T11:36:23Z</time>
      </trkpt>
      <trkpt lat="42.28848" lon="3.28097">
        <ele>5.7</ele>
        <time>2024-11-10T11:36:24Z</time>
      </trkpt>
      <trkpt lat="42.28847" lon="3.28097">
        <ele>5.7</ele>
        <time>2024-11-10T11:36:25Z</time>
      </trkpt>
      <trkpt lat="42.28846" lon="3.28097">
        <ele>5.7</ele>
        <time>2024-11-10T11:36:26Z</time>
      </trkpt>
      <trkpt lat="42.28845" lon="3.28096">
        <ele>5.8</ele>
        <time>2024-11-10T11:36:27Z</time>
      </trkpt>
      <trkpt lat="42.28844" lon="3.28096">
        <ele>5.8</ele>
        <time>2024-11-10T11:36:28Z</time>
      </trkpt>
      <trkpt lat="42.28843" lon="3.28096">
        <ele>5.8</ele>
        <time>2024-11-10T11:36:29Z</time>
      </trkpt>
      <trkpt lat="42.28843" lon="3.28096">
        <ele>5.8</ele>
        <time>2024-11-10T11:36:30Z</time>
      </trkpt>
      <trkpt lat="42.28842" lon="3.28096">
        <ele>5.8</ele>
        <time>2024-11-10T11:36:31Z</time>
      </trkpt>
      <trkpt lat="42.28841" lon="3.28096">
        <ele>5.8</ele>
        <time>2024-11-10T11:36:32Z</time>
      </trkpt>
      <trkpt lat="42.2884" lon="3.28096">
        <ele>5.8</ele>
        <time>2024-11-10T11:36:33Z</time>
      </trkpt>
      <trkpt lat="42.28839" lon="3.28096">
        <ele>5.9</ele>
        <time>2024-11-10T11:36:34Z</time>
      </trkpt>
      <trkpt lat="42.28838" lon="3.28096">
        <ele>5.9</ele>
        <time>2024-11-10T11:36:35Z</time>
      </trkpt>
      <trkpt lat="42.28837" lon="3.28096">
        <ele>5.9</ele>
        <time>2024-11-10T11:36:36Z</time>
      </trkpt>
      <trkpt lat="42.28837" lon="3.28096">
        <ele>5.9</ele>
        <time>2024-11-10T11:36:37Z</time>
      </trkpt>
      <trkpt lat="42.28836" lon="3.28096">
        <ele>5.9</ele>
        <time>2024-11-10T11:36:38Z</time>
      </trkpt>
      <trkpt lat="42.28835" lon="3.28096">
        <ele>5.9</ele>
        <time>2024-11-10T11:36:39Z</time>
      </trkpt>
      <trkpt lat="42.28834" lon="3.28096">
        <ele>5.9</ele>
        <time>2024-11-10T11:36:40Z</time>
      </trkpt>
      <trkpt lat="42.28833" lon="3.28096">
        <ele>6</ele>
        <time>2024-11-10T11:36:41Z</time>
      </trkpt>
      <trkpt lat="42.28832" lon="3.28096">
        <ele>6</ele>
        <time>2024-11-10T11:36:42Z</time>
      </trkpt>
      <trkpt lat="42.28831" lon="3.28096">
        <ele>6</ele>
        <time>2024-11-10T11:36:43Z</time>
      </trkpt>
      <trkpt lat="42.2883" lon="3.28095">
        <ele>6</ele>
        <time>2024-11-10T11:36:44Z</time>
      </trkpt>
      <trkpt lat="42.28829" lon="3.28095">
        <ele>6</ele>
        <time>2024-11-10T11:36:45Z</time>
      </trkpt>
      <trkpt lat="42.28828" lon="3.28095">
        <ele>6</ele>
        <time>2024-11-10T11:36:46Z</time>
      </trkpt>
      <trkpt lat="42.28827" lon="3.28095">
        <ele>6.1</ele>
        <time>2024-11-10T11:36:47Z</time>
      </trkpt>
      <trkpt lat="42.28826" lon="3.28095">
        <ele>6.1</ele>
        <time>2024-11-10T11:36:48Z</time>
      </trkpt>
      <trkpt lat="42.28825" lon="3.28095">
        <ele>6.1</ele>
        <time>2024-11-10T11:36:49Z</time>
      </trkpt>
      <trkpt lat="42.28824" lon="3.28095">
        <ele>6.1</ele>
        <time>2024-11-10T11:36:50Z</time>
      </trkpt>
      <trkpt lat="42.28823" lon="3.28095">
        <ele>6.1</ele>
        <time>2024-11-10T11:36:51Z</time>
      </trkpt>
      <trkpt lat="42.28822" lon="3.28095">
        <ele>6.1</ele>
        <time>2024-11-10T11:36:52Z</time>
      </trkpt>
      <trkpt lat="42.28821" lon="3.28095">
        <ele>6.1</ele>
        <time>2024-11-10T11:36:53Z</time>
      </trkpt>
      <trkpt lat="42.2882" lon="3.28095">
        <ele>6.1</ele>
        <time>2024-11-10T11:36:54Z</time>
      </trkpt>
      <trkpt lat="42.28819" lon="3.28095">
        <ele>6.1</ele>
        <time>2024-11-10T11:36:55Z</time>
      </trkpt>
      <trkpt lat="42.28818" lon="3.28095">
        <ele>6.1</ele>
        <time>2024-11-10T11:36:56Z</time>
      </trkpt>
      <trkpt lat="42.28817" lon="3.28096">
        <ele>6.1</ele>
        <time>2024-11-10T11:36:57Z</time>
      </trkpt>
      <trkpt lat="42.28816" lon="3.28096">
        <ele>6.1</ele>
        <time>2024-11-10T11:36:58Z</time>
      </trkpt>
      <trkpt lat="42.28815" lon="3.28097">
        <ele>6.1</ele>
        <time>2024-11-10T11:36:59Z</time>
      </trkpt>
      <trkpt lat="42.28814" lon="3.28097">
        <ele>6.1</ele>
        <time>2024-11-10T11:37:00Z</time>
      </trkpt>
      <trkpt lat="42.28813" lon="3.28098">
        <ele>6.1</ele>
        <time>2024-11-10T11:37:01Z</time>
      </trkpt>
      <trkpt lat="42.28813" lon="3.28099">
        <ele>6.1</ele>
        <time>2024-11-10T11:37:02Z</time>
      </trkpt>
      <trkpt lat="42.28812" lon="3.28099">
        <ele>6.1</ele>
        <time>2024-11-10T11:37:03Z</time>
      </trkpt>
      <trkpt lat="42.28811" lon="3.281">
        <ele>6.1</ele>
        <time>2024-11-10T11:37:04Z</time>
      </trkpt>
      <trkpt lat="42.2881" lon="3.28101">
        <ele>6.1</ele>
        <time>2024-11-10T11:37:05Z</time>
      </trkpt>
      <trkpt lat="42.28809" lon="3.28102">
        <ele>6.1</ele>
        <time>2024-11-10T11:37:06Z</time>
      </trkpt>
      <trkpt lat="42.28809" lon="3.28103">
        <ele>6.1</ele>
        <time>2024-11-10T11:37:07Z</time>
      </trkpt>
      <trkpt lat="42.28808" lon="3.28104">
        <ele>6.1</ele>
        <time>2024-11-10T11:37:08Z</time>
      </trkpt>
      <trkpt lat="42.28807" lon="3.28105">
        <ele>6.1</ele>
        <time>2024-11-10T11:37:09Z</time>
      </trkpt>
      <trkpt lat="42.28806" lon="3.28106">
        <ele>6.1</ele>
        <time>2024-11-10T11:37:10Z</time>
      </trkpt>
      <trkpt lat="42.28805" lon="3.28107">
        <ele>6.1</ele>
        <time>2024-11-10T11:37:11Z</time>
      </trkpt>
      <trkpt lat="42.28804" lon="3.28108">
        <ele>6.1</ele>
        <time>2024-11-10T11:37:12Z</time>
      </trkpt>
      <trkpt lat="42.28804" lon="3.28109">
        <ele>6.1</ele>
        <time>2024-11-10T11:37:13Z</time>
      </trkpt>
      <trkpt lat="42.28803" lon="3.2811">
        <ele>6.1</ele>
        <time>2024-11-10T11:37:14Z</time>
      </trkpt>
      <trkpt lat="42.28802" lon="3.28111">
        <ele>6.1</ele>
        <time>2024-11-10T11:37:15Z</time>
      </trkpt>
      <trkpt lat="42.28801" lon="3.28112">
        <ele>6.1</ele>
        <time>2024-11-10T11:37:16Z</time>
      </trkpt>
      <trkpt lat="42.288" lon="3.28113">
        <ele>6.1</ele>
        <time>2024-11-10T11:37:17Z</time>
      </trkpt>
      <trkpt lat="42.28799" lon="3.28113">
        <ele>6.1</ele>
        <time>2024-11-10T11:37:18Z</time>
      </trkpt>
      <trkpt lat="42.28798" lon="3.28114">
        <ele>6.1</ele>
        <time>2024-11-10T11:37:19Z</time>
      </trkpt>
      <trkpt lat="42.28798" lon="3.28115">
        <ele>6.1</ele>
        <time>2024-11-10T11:37:20Z</time>
      </trkpt>
      <trkpt lat="42.28797" lon="3.28116">
        <ele>6.1</ele>
        <time>2024-11-10T11:37:21Z</time>
      </trkpt>
      <trkpt lat="42.28797" lon="3.28117">
        <ele>6</ele>
        <time>2024-11-10T11:37:22Z</time>
      </trkpt>
      <trkpt lat="42.28797" lon="3.28118">
        <ele>6</ele>
        <time>2024-11-10T11:37:23Z</time>
      </trkpt>
      <trkpt lat="42.28797" lon="3.2812">
        <ele>6</ele>
        <time>2024-11-10T11:37:24Z</time>
      </trkpt>
      <trkpt lat="42.28797" lon="3.28121">
        <ele>6</ele>
        <time>2024-11-10T11:37:25Z</time>
      </trkpt>
      <trkpt lat="42.28796" lon="3.28123">
        <ele>6</ele>
        <time>2024-11-10T11:37:26Z</time>
      </trkpt>
      <trkpt lat="42.28796" lon="3.28124">
        <ele>6</ele>
        <time>2024-11-10T11:37:27Z</time>
      </trkpt>
      <trkpt lat="42.28795" lon="3.28126">
        <ele>6</ele>
        <time>2024-11-10T11:37:28Z</time>
      </trkpt>
      <trkpt lat="42.28795" lon="3.28127">
        <ele>6</ele>
        <time>2024-11-10T11:37:29Z</time>
      </trkpt>
      <trkpt lat="42.28795" lon="3.28129">
        <ele>6</ele>
        <time>2024-11-10T11:37:30Z</time>
      </trkpt>
      <trkpt lat="42.28794" lon="3.28131">
        <ele>6</ele>
        <time>2024-11-10T11:37:31Z</time>
      </trkpt>
      <trkpt lat="42.28793" lon="3.28132">
        <ele>5.9</ele>
        <time>2024-11-10T11:37:32Z</time>
      </trkpt>
      <trkpt lat="42.28793" lon="3.28134">
        <ele>5.9</ele>
        <time>2024-11-10T11:37:33Z</time>
      </trkpt>
      <trkpt lat="42.28793" lon="3.28135">
        <ele>5.9</ele>
        <time>2024-11-10T11:37:34Z</time>
      </trkpt>
      <trkpt lat="42.28792" lon="3.28137">
        <ele>5.9</ele>
        <time>2024-11-10T11:37:35Z</time>
      </trkpt>
      <trkpt lat="42.28792" lon="3.28138">
        <ele>5.9</ele>
        <time>2024-11-10T11:37:36Z</time>
      </trkpt>
      <trkpt lat="42.28792" lon="3.28139">
        <ele>5.9</ele>
        <time>2024-11-10T11:37:37Z</time>
      </trkpt>
      <trkpt lat="42.28791" lon="3.2814">
        <ele>5.9</ele>
        <time>2024-11-10T11:37:38Z</time>
      </trkpt>
      <trkpt lat="42.28791" lon="3.28142">
        <ele>5.9</ele>
        <time>2024-11-10T11:37:39Z</time>
      </trkpt>
      <trkpt lat="42.2879" lon="3.28143">
        <ele>5.9</ele>
        <time>2024-11-10T11:37:40Z</time>
      </trkpt>
      <trkpt lat="42.2879" lon="3.28144">
        <ele>5.9</ele>
        <time>2024-11-10T11:37:41Z</time>
      </trkpt>
      <trkpt lat="42.2879" lon="3.28146">
        <ele>5.8</ele>
        <time>2024-11-10T11:37:42Z</time>
      </trkpt>
      <trkpt lat="42.28789" lon="3.28146">
        <ele>5.8</ele>
        <time>2024-11-10T11:37:43Z</time>
      </trkpt>
      <trkpt lat="42.28789" lon="3.28147">
        <ele>5.8</ele>
        <time>2024-11-10T11:37:44Z</time>
      </trkpt>
      <trkpt lat="42.28788" lon="3.28149">
        <ele>5.8</ele>
        <time>2024-11-10T11:37:45Z</time>
      </trkpt>
      <trkpt lat="42.28788" lon="3.2815">
        <ele>5.8</ele>
        <time>2024-11-10T11:37:46Z</time>
      </trkpt>
      <trkpt lat="42.28788" lon="3.28151">
        <ele>5.8</ele>
        <time>2024-11-10T11:37:47Z</time>
      </trkpt>
      <trkpt lat="42.28787" lon="3.28152">
        <ele>5.8</ele>
        <time>2024-11-10T11:37:48Z</time>
      </trkpt>
      <trkpt lat="42.28787" lon="3.28153">
        <ele>5.8</ele>
        <time>2024-11-10T11:37:49Z</time>
      </trkpt>
      <trkpt lat="42.28787" lon="3.28153">
        <ele>5.8</ele>
        <time>2024-11-10T11:37:50Z</time>
      </trkpt>
      <trkpt lat="42.28786" lon="3.28155">
        <ele>5.8</ele>
        <time>2024-11-10T11:37:51Z</time>
      </trkpt>
      <trkpt lat="42.28786" lon="3.28155">
        <ele>5.8</ele>
        <time>2024-11-10T11:37:52Z</time>
      </trkpt>
      <trkpt lat="42.28786" lon="3.28156">
        <ele>5.8</ele>
        <time>2024-11-10T11:37:53Z</time>
      </trkpt>
      <trkpt lat="42.28786" lon="3.28157">
        <ele>5.8</ele>
        <time>2024-11-10T11:37:54Z</time>
      </trkpt>
      <trkpt lat="42.28786" lon="3.28159">
        <ele>5.8</ele>
        <time>2024-11-10T11:37:55Z</time>
      </trkpt>
      <trkpt lat="42.28785" lon="3.2816">
        <ele>5.8</ele>
        <time>2024-11-10T11:37:56Z</time>
      </trkpt>
      <trkpt lat="42.28785" lon="3.2816">
        <ele>5.7</ele>
        <time>2024-11-10T11:37:57Z</time>
      </trkpt>
      <trkpt lat="42.28785" lon="3.28161">
        <ele>5.7</ele>
        <time>2024-11-10T11:37:58Z</time>
      </trkpt>
      <trkpt lat="42.28784" lon="3.28164">
        <ele>5.7</ele>
        <time>2024-11-10T11:37:59Z</time>
      </trkpt>
      <trkpt lat="42.28784" lon="3.28165">
        <ele>5.7</ele>
        <time>2024-11-10T11:38:00Z</time>
      </trkpt>
      <trkpt lat="42.28783" lon="3.28166">
        <ele>5.7</ele>
        <time>2024-11-10T11:38:01Z</time>
      </trkpt>
      <trkpt lat="42.28783" lon="3.28167">
        <ele>5.7</ele>
        <time>2024-11-10T11:38:02Z</time>
      </trkpt>
      <trkpt lat="42.28783" lon="3.28168">
        <ele>5.7</ele>
        <time>2024-11-10T11:38:03Z</time>
      </trkpt>
      <trkpt lat="42.28782" lon="3.2817">
        <ele>5.7</ele>
        <time>2024-11-10T11:38:04Z</time>
      </trkpt>
      <trkpt lat="42.28782" lon="3.28171">
        <ele>5.7</ele>
        <time>2024-11-10T11:38:05Z</time>
      </trkpt>
      <trkpt lat="42.28781" lon="3.28173">
        <ele>5.7</ele>
        <time>2024-11-10T11:38:06Z</time>
      </trkpt>
      <trkpt lat="42.28781" lon="3.28174">
        <ele>5.7</ele>
        <time>2024-11-10T11:38:07Z</time>
      </trkpt>
      <trkpt lat="42.2878" lon="3.28176">
        <ele>5.7</ele>
        <time>2024-11-10T11:38:08Z</time>
      </trkpt>
      <trkpt lat="42.28779" lon="3.28178">
        <ele>5.7</ele>
        <time>2024-11-10T11:38:09Z</time>
      </trkpt>
      <trkpt lat="42.28778" lon="3.28179">
        <ele>5.7</ele>
        <time>2024-11-10T11:38:10Z</time>
      </trkpt>
      <trkpt lat="42.28777" lon="3.2818">
        <ele>5.7</ele>
        <time>2024-11-10T11:38:11Z</time>
      </trkpt>
      <trkpt lat="42.28777" lon="3.28181">
        <ele>5.7</ele>
        <time>2024-11-10T11:38:12Z</time>
      </trkpt>
      <trkpt lat="42.28776" lon="3.28182">
        <ele>5.7</ele>
        <time>2024-11-10T11:38:13Z</time>
      </trkpt>
      <trkpt lat="42.28776" lon="3.28183">
        <ele>5.7</ele>
        <time>2024-11-10T11:38:14Z</time>
      </trkpt>
      <trkpt lat="42.28775" lon="3.28184">
        <ele>5.7</ele>
        <time>2024-11-10T11:38:15Z</time>
      </trkpt>
      <trkpt lat="42.28775" lon="3.28185">
        <ele>5.7</ele>
        <time>2024-11-10T11:38:16Z</time>
      </trkpt>
      <trkpt lat="42.28775" lon="3.28185">
        <ele>5.7</ele>
        <time>2024-11-10T11:38:17Z</time>
      </trkpt>
      <trkpt lat="42.28774" lon="3.28186">
        <ele>5.7</ele>
        <time>2024-11-10T11:38:18Z</time>
      </trkpt>
      <trkpt lat="42.28774" lon="3.28187">
        <ele>5.7</ele>
        <time>2024-11-10T11:38:19Z</time>
      </trkpt>
      <trkpt lat="42.28773" lon="3.28187">
        <ele>5.7</ele>
        <time>2024-11-10T11:38:20Z</time>
      </trkpt>
      <trkpt lat="42.28773" lon="3.28188">
        <ele>5.7</ele>
        <time>2024-11-10T11:38:21Z</time>
      </trkpt>
      <trkpt lat="42.28772" lon="3.2819">
        <ele>5.7</ele>
        <time>2024-11-10T11:38:22Z</time>
      </trkpt>
      <trkpt lat="42.28772" lon="3.28191">
        <ele>5.7</ele>
        <time>2024-11-10T11:38:23Z</time>
      </trkpt>
      <trkpt lat="42.28772" lon="3.28193">
        <ele>5.7</ele>
        <time>2024-11-10T11:38:24Z</time>
      </trkpt>
      <trkpt lat="42.28772" lon="3.28193">
        <ele>5.7</ele>
        <time>2024-11-10T11:38:25Z</time>
      </trkpt>
      <trkpt lat="42.28773" lon="3.28194">
        <ele>5.6</ele>
        <time>2024-11-10T11:38:26Z</time>
      </trkpt>
      <trkpt lat="42.28774" lon="3.28195">
        <ele>5.6</ele>
        <time>2024-11-10T11:38:27Z</time>
      </trkpt>
      <trkpt lat="42.28774" lon="3.28196">
        <ele>5.6</ele>
        <time>2024-11-10T11:38:28Z</time>
      </trkpt>
      <trkpt lat="42.28774" lon="3.28197">
        <ele>5.6</ele>
        <time>2024-11-10T11:38:29Z</time>
      </trkpt>
      <trkpt lat="42.28774" lon="3.28198">
        <ele>5.6</ele>
        <time>2024-11-10T11:38:30Z</time>
      </trkpt>
      <trkpt lat="42.28774" lon="3.28199">
        <ele>5.6</ele>
        <time>2024-11-10T11:38:31Z</time>
      </trkpt>
      <trkpt lat="42.28775" lon="3.282">
        <ele>5.6</ele>
        <time>2024-11-10T11:38:32Z</time>
      </trkpt>
      <trkpt lat="42.28774" lon="3.28202">
        <ele>5.6</ele>
        <time>2024-11-10T11:38:33Z</time>
      </trkpt>
      <trkpt lat="42.28774" lon="3.28203">
        <ele>5.6</ele>
        <time>2024-11-10T11:38:34Z</time>
      </trkpt>
      <trkpt lat="42.28773" lon="3.28203">
        <ele>5.6</ele>
        <time>2024-11-10T11:38:35Z</time>
      </trkpt>
      <trkpt lat="42.28773" lon="3.28204">
        <ele>5.6</ele>
        <time>2024-11-10T11:38:36Z</time>
      </trkpt>
      <trkpt lat="42.28772" lon="3.28205">
        <ele>5.6</ele>
        <time>2024-11-10T11:38:37Z</time>
      </trkpt>
      <trkpt lat="42.28772" lon="3.28206">
        <ele>5.6</ele>
        <time>2024-11-10T11:38:38Z</time>
      </trkpt>
      <trkpt lat="42.28772" lon="3.28207">
        <ele>5.6</ele>
        <time>2024-11-10T11:38:39Z</time>
      </trkpt>
      <trkpt lat="42.28771" lon="3.28207">
        <ele>5.6</ele>
        <time>2024-11-10T11:38:40Z</time>
      </trkpt>
      <trkpt lat="42.28771" lon="3.28208">
        <ele>5.6</ele>
        <time>2024-11-10T11:38:41Z</time>
      </trkpt>
      <trkpt lat="42.2877" lon="3.28209">
        <ele>5.6</ele>
        <time>2024-11-10T11:38:42Z</time>
      </trkpt>
      <trkpt lat="42.2877" lon="3.2821">
        <ele>5.6</ele>
        <time>2024-11-10T11:38:43Z</time>
      </trkpt>
      <trkpt lat="42.28769" lon="3.28211">
        <ele>5.6</ele>
        <time>2024-11-10T11:38:44Z</time>
      </trkpt>
      <trkpt lat="42.28769" lon="3.28211">
        <ele>5.6</ele>
        <time>2024-11-10T11:38:45Z</time>
      </trkpt>
      <trkpt lat="42.28768" lon="3.28212">
        <ele>5.6</ele>
        <time>2024-11-10T11:38:46Z</time>
      </trkpt>
      <trkpt lat="42.28768" lon="3.28213">
        <ele>5.6</ele>
        <time>2024-11-10T11:38:47Z</time>
      </trkpt>
      <trkpt lat="42.28771" lon="3.28211">
        <ele>5.6</ele>
        <time>2024-11-10T11:38:48Z</time>
      </trkpt>
      <trkpt lat="42.28774" lon="3.2821">
        <ele>5.6</ele>
        <time>2024-11-10T11:38:49Z</time>
      </trkpt>
      <trkpt lat="42.28775" lon="3.28211">
        <ele>5.6</ele>
        <time>2024-11-10T11:38:50Z</time>
      </trkpt>
      <trkpt lat="42.28775" lon="3.28211">
        <ele>5.6</ele>
        <time>2024-11-10T11:38:51Z</time>
      </trkpt>
      <trkpt lat="42.28774" lon="3.28211">
        <ele>5.6</ele>
        <time>2024-11-10T11:38:52Z</time>
      </trkpt>
      <trkpt lat="42.28774" lon="3.2821">
        <ele>5.6</ele>
        <time>2024-11-10T11:38:53Z</time>
      </trkpt>
      <trkpt lat="42.28774" lon="3.2821">
        <ele>5.6</ele>
        <time>2024-11-10T11:38:54Z</time>
      </trkpt>
      <trkpt lat="42.28774" lon="3.28209">
        <ele>5.6</ele>
        <time>2024-11-10T11:38:55Z</time>
      </trkpt>
      <trkpt lat="42.28774" lon="3.28209">
        <ele>5.6</ele>
        <time>2024-11-10T11:38:56Z</time>
      </trkpt>
      <trkpt lat="42.28774" lon="3.28209">
        <ele>5.6</ele>
        <time>2024-11-10T11:38:57Z</time>
      </trkpt>
      <trkpt lat="42.28774" lon="3.28209">
        <ele>5.6</ele>
        <time>2024-11-10T11:38:58Z</time>
      </trkpt>
      <trkpt lat="42.28774" lon="3.28209">
        <ele>5.6</ele>
        <time>2024-11-10T11:38:59Z</time>
      </trkpt>
      <trkpt lat="42.28774" lon="3.28209">
        <ele>5.6</ele>
        <time>2024-11-10T11:39:00Z</time>
      </trkpt>
      <trkpt lat="42.28774" lon="3.28209">
        <ele>5.6</ele>
        <time>2024-11-10T11:39:01Z</time>
      </trkpt>
      <trkpt lat="42.28774" lon="3.28208">
        <ele>5.6</ele>
        <time>2024-11-10T11:39:02Z</time>
      </trkpt>
      <trkpt lat="42.28774" lon="3.28208">
        <ele>5.6</ele>
        <time>2024-11-10T11:39:03Z</time>
      </trkpt>
      <trkpt lat="42.28774" lon="3.28208">
        <ele>5.6</ele>
        <time>2024-11-10T11:39:04Z</time>
      </trkpt>
      <trkpt lat="42.28774" lon="3.28209">
        <ele>5.6</ele>
        <time>2024-11-10T11:39:05Z</time>
      </trkpt>
      <trkpt lat="42.28773" lon="3.2821">
        <ele>5.6</ele>
        <time>2024-11-10T11:39:06Z</time>
      </trkpt>
      <trkpt lat="42.28772" lon="3.28209">
        <ele>5.6</ele>
        <time>2024-11-10T11:39:07Z</time>
      </trkpt>
      <trkpt lat="42.28771" lon="3.2821">
        <ele>5.6</ele>
        <time>2024-11-10T11:39:08Z</time>
      </trkpt>
      <trkpt lat="42.2877" lon="3.28211">
        <ele>5.6</ele>
        <time>2024-11-10T11:39:09Z</time>
      </trkpt>
      <trkpt lat="42.2877" lon="3.28212">
        <ele>5.6</ele>
        <time>2024-11-10T11:39:10Z</time>
      </trkpt>
      <trkpt lat="42.28769" lon="3.28213">
        <ele>5.6</ele>
        <time>2024-11-10T11:39:11Z</time>
      </trkpt>
      <trkpt lat="42.28768" lon="3.28214">
        <ele>5.6</ele>
        <time>2024-11-10T11:39:12Z</time>
      </trkpt>
      <trkpt lat="42.28768" lon="3.28215">
        <ele>5.6</ele>
        <time>2024-11-10T11:39:13Z</time>
      </trkpt>
      <trkpt lat="42.28768" lon="3.28216">
        <ele>5.6</ele>
        <time>2024-11-10T11:39:14Z</time>
      </trkpt>
      <trkpt lat="42.28767" lon="3.28216">
        <ele>5.6</ele>
        <time>2024-11-10T11:39:15Z</time>
      </trkpt>
      <trkpt lat="42.28766" lon="3.28216">
        <ele>5.6</ele>
        <time>2024-11-10T11:39:16Z</time>
      </trkpt>
      <trkpt lat="42.28763" lon="3.28215">
        <ele>5.6</ele>
        <time>2024-11-10T11:39:17Z</time>
      </trkpt>
      <trkpt lat="42.28762" lon="3.28215">
        <ele>5.6</ele>
        <time>2024-11-10T11:39:18Z</time>
      </trkpt>
      <trkpt lat="42.28761" lon="3.28216">
        <ele>5.6</ele>
        <time>2024-11-10T11:39:19Z</time>
      </trkpt>
      <trkpt lat="42.2876" lon="3.28216">
        <ele>5.6</ele>
        <time>2024-11-10T11:39:20Z</time>
      </trkpt>
      <trkpt lat="42.2876" lon="3.28217">
        <ele>5.6</ele>
        <time>2024-11-10T11:39:21Z</time>
      </trkpt>
      <trkpt lat="42.2876" lon="3.28216">
        <ele>5.6</ele>
        <time>2024-11-10T11:39:22Z</time>
      </trkpt>
      <trkpt lat="42.28761" lon="3.28216">
        <ele>5.6</ele>
        <time>2024-11-10T11:39:23Z</time>
      </trkpt>
      <trkpt lat="42.28761" lon="3.28215">
        <ele>5.6</ele>
        <time>2024-11-10T11:39:24Z</time>
      </trkpt>
      <trkpt lat="42.28761" lon="3.28215">
        <ele>5.6</ele>
        <time>2024-11-10T11:39:25Z</time>
      </trkpt>
      <trkpt lat="42.28762" lon="3.28214">
        <ele>5.6</ele>
        <time>2024-11-10T11:39:26Z</time>
      </trkpt>
      <trkpt lat="42.28763" lon="3.28214">
        <ele>5.6</ele>
        <time>2024-11-10T11:39:27Z</time>
      </trkpt>
      <trkpt lat="42.28763" lon="3.28214">
        <ele>5.6</ele>
        <time>2024-11-10T11:39:28Z</time>
      </trkpt>
      <trkpt lat="42.28764" lon="3.28215">
        <ele>5.6</ele>
        <time>2024-11-10T11:39:29Z</time>
      </trkpt>
      <trkpt lat="42.28764" lon="3.28216">
        <ele>5.6</ele>
        <time>2024-11-10T11:39:30Z</time>
      </trkpt>
      <trkpt lat="42.28764" lon="3.28217">
        <ele>5.6</ele>
        <time>2024-11-10T11:39:31Z</time>
      </trkpt>
      <trkpt lat="42.28765" lon="3.28215">
        <ele>5.6</ele>
        <time>2024-11-10T11:39:32Z</time>
      </trkpt>
      <trkpt lat="42.28765" lon="3.28216">
        <ele>5.6</ele>
        <time>2024-11-10T11:39:33Z</time>
      </trkpt>
      <trkpt lat="42.28765" lon="3.28215">
        <ele>5.6</ele>
        <time>2024-11-10T11:39:37Z</time>
      </trkpt>
      <trkpt lat="42.28766" lon="3.28214">
        <ele>5.6</ele>
        <time>2024-11-10T11:39:38Z</time>
      </trkpt>
      <trkpt lat="42.28766" lon="3.28214">
        <ele>5.6</ele>
        <time>2024-11-10T11:39:40Z</time>
      </trkpt>
      <trkpt lat="42.28766" lon="3.28215">
        <ele>5.6</ele>
        <time>2024-11-10T11:39:42Z</time>
      </trkpt>
      <trkpt lat="42.28766" lon="3.28216">
        <ele>5.6</ele>
        <time>2024-11-10T11:39:44Z</time>
      </trkpt>
      <trkpt lat="42.28766" lon="3.28216">
        <ele>5.6</ele>
        <time>2024-11-10T11:39:46Z</time>
      </trkpt>
      <trkpt lat="42.28765" lon="3.28216">
        <ele>5.6</ele>
        <time>2024-11-10T11:39:47Z</time>
      </trkpt>
      <trkpt lat="42.28765" lon="3.28214">
        <ele>5.6</ele>
        <time>2024-11-10T11:39:48Z</time>
      </trkpt>
      <trkpt lat="42.28764" lon="3.28215">
        <ele>5.6</ele>
        <time>2024-11-10T11:39:50Z</time>
      </trkpt>
      <trkpt lat="42.28764" lon="3.28217">
        <ele>5.6</ele>
        <time>2024-11-10T11:39:51Z</time>
      </trkpt>
      <trkpt lat="42.28765" lon="3.28217">
        <ele>5.6</ele>
        <time>2024-11-10T11:39:52Z</time>
      </trkpt>
      <trkpt lat="42.28765" lon="3.28217">
        <ele>5.6</ele>
        <time>2024-11-10T11:39:53Z</time>
      </trkpt>
      <trkpt lat="42.28766" lon="3.28218">
        <ele>5.6</ele>
        <time>2024-11-10T11:39:54Z</time>
      </trkpt>
      <trkpt lat="42.28766" lon="3.28219">
        <ele>5.6</ele>
        <time>2024-11-10T11:39:55Z</time>
      </trkpt>
      <trkpt lat="42.28766" lon="3.28219">
        <ele>5.6</ele>
        <time>2024-11-10T11:39:56Z</time>
      </trkpt>
      <trkpt lat="42.28766" lon="3.28219">
        <ele>5.6</ele>
        <time>2024-11-10T11:39:57Z</time>
      </trkpt>
      <trkpt lat="42.28766" lon="3.28218">
        <ele>5.6</ele>
        <time>2024-11-10T11:39:58Z</time>
      </trkpt>
      <trkpt lat="42.28766" lon="3.28218">
        <ele>5.6</ele>
        <time>2024-11-10T11:40:02Z</time>
      </trkpt>
      <trkpt lat="42.28765" lon="3.28209">
        <ele>5.6</ele>
        <time>2024-11-10T11:40:12Z</time>
      </trkpt>
      <trkpt lat="42.28765" lon="3.28199">
        <ele>5.6</ele>
        <time>2024-11-10T11:40:17Z</time>
      </trkpt>
      <trkpt lat="42.28765" lon="3.28195">
        <ele>5.6</ele>
        <time>2024-11-10T11:40:23Z</time>
      </trkpt>
      <trkpt lat="42.28767" lon="3.28202">
        <ele>5.6</ele>
        <time>2024-11-10T11:40:32Z</time>
      </trkpt>
      <trkpt lat="42.28765" lon="3.28199">
        <ele>5.6</ele>
        <time>2024-11-10T11:40:37Z</time>
      </trkpt>
      <trkpt lat="42.28764" lon="3.28197">
        <ele>5.6</ele>
        <time>2024-11-10T11:40:42Z</time>
      </trkpt>
      <trkpt lat="42.28766" lon="3.28198">
        <ele>5.6</ele>
        <time>2024-11-10T11:40:47Z</time>
      </trkpt>
      <trkpt lat="42.28766" lon="3.28196">
        <ele>5.6</ele>
        <time>2024-11-10T11:40:52Z</time>
      </trkpt>
      <trkpt lat="42.28765" lon="3.28195">
        <ele>5.6</ele>
        <time>2024-11-10T11:40:58Z</time>
      </trkpt>
      <trkpt lat="42.28765" lon="3.28197">
        <ele>5.6</ele>
        <time>2024-11-10T11:41:00Z</time>
      </trkpt>
      <trkpt lat="42.28765" lon="3.28197">
        <ele>5.6</ele>
        <time>2024-11-10T11:41:01Z</time>
      </trkpt>
      <trkpt lat="42.28765" lon="3.28196">
        <ele>5.6</ele>
        <time>2024-11-10T11:41:07Z</time>
      </trkpt>
      <trkpt lat="42.28765" lon="3.28197">
        <ele>5.6</ele>
        <time>2024-11-10T11:41:13Z</time>
      </trkpt>
      <trkpt lat="42.28766" lon="3.28197">
        <ele>5.6</ele>
        <time>2024-11-10T11:41:22Z</time>
      </trkpt>
      <trkpt lat="42.28765" lon="3.28197">
        <ele>5.6</ele>
        <time>2024-11-10T11:41:24Z</time>
      </trkpt>
      <trkpt lat="42.28766" lon="3.28196">
        <ele>5.6</ele>
        <time>2024-11-10T11:41:25Z</time>
      </trkpt>
      <trkpt lat="42.28767" lon="3.28196">
        <ele>5.6</ele>
        <time>2024-11-10T11:41:27Z</time>
      </trkpt>
      <trkpt lat="42.28767" lon="3.28196">
        <ele>5.6</ele>
        <time>2024-11-10T11:41:28Z</time>
      </trkpt>
      <trkpt lat="42.28768" lon="3.28195">
        <ele>5.6</ele>
        <time>2024-11-10T11:41:29Z</time>
      </trkpt>
      <trkpt lat="42.28774" lon="3.28195">
        <ele>5.6</ele>
        <time>2024-11-10T11:41:37Z</time>
      </trkpt>
      <trkpt lat="42.28774" lon="3.28195">
        <ele>5.6</ele>
        <time>2024-11-10T11:41:38Z</time>
      </trkpt>
      <trkpt lat="42.28773" lon="3.28194">
        <ele>5.6</ele>
        <time>2024-11-10T11:41:39Z</time>
      </trkpt>
      <trkpt lat="42.28773" lon="3.28193">
        <ele>5.6</ele>
        <time>2024-11-10T11:41:40Z</time>
      </trkpt>
      <trkpt lat="42.28773" lon="3.28193">
        <ele>5.6</ele>
        <time>2024-11-10T11:41:41Z</time>
      </trkpt>
      <trkpt lat="42.28773" lon="3.28192">
        <ele>5.6</ele>
        <time>2024-11-10T11:41:42Z</time>
      </trkpt>
      <trkpt lat="42.28772" lon="3.28191">
        <ele>5.6</ele>
        <time>2024-11-10T11:41:43Z</time>
      </trkpt>
      <trkpt lat="42.28772" lon="3.28191">
        <ele>5.6</ele>
        <time>2024-11-10T11:41:44Z</time>
      </trkpt>
      <trkpt lat="42.28772" lon="3.28191">
        <ele>5.6</ele>
        <time>2024-11-10T11:41:45Z</time>
      </trkpt>
      <trkpt lat="42.28772" lon="3.28191">
        <ele>5.6</ele>
        <time>2024-11-10T11:41:46Z</time>
      </trkpt>
      <trkpt lat="42.28772" lon="3.28191">
        <ele>5.6</ele>
        <time>2024-11-10T11:41:47Z</time>
      </trkpt>
      <trkpt lat="42.28772" lon="3.28191">
        <ele>5.6</ele>
        <time>2024-11-10T11:41:48Z</time>
      </trkpt>
      <trkpt lat="42.28772" lon="3.2819">
        <ele>5.6</ele>
        <time>2024-11-10T11:41:49Z</time>
      </trkpt>
      <trkpt lat="42.28772" lon="3.2819">
        <ele>5.6</ele>
        <time>2024-11-10T11:41:50Z</time>
      </trkpt>
      <trkpt lat="42.28772" lon="3.2819">
        <ele>5.6</ele>
        <time>2024-11-10T11:41:51Z</time>
      </trkpt>
      <trkpt lat="42.28772" lon="3.2819">
        <ele>5.6</ele>
        <time>2024-11-10T11:41:52Z</time>
      </trkpt>
      <trkpt lat="42.28771" lon="3.28189">
        <ele>5.6</ele>
        <time>2024-11-10T11:41:53Z</time>
      </trkpt>
      <trkpt lat="42.28771" lon="3.28189">
        <ele>5.6</ele>
        <time>2024-11-10T11:41:54Z</time>
      </trkpt>
      <trkpt lat="42.28771" lon="3.28189">
        <ele>5.6</ele>
        <time>2024-11-10T11:41:55Z</time>
      </trkpt>
      <trkpt lat="42.28771" lon="3.28189">
        <ele>5.6</ele>
        <time>2024-11-10T11:41:56Z</time>
      </trkpt>
      <trkpt lat="42.28771" lon="3.28187">
        <ele>5.6</ele>
        <time>2024-11-10T11:41:57Z</time>
      </trkpt>
      <trkpt lat="42.28772" lon="3.28187">
        <ele>5.6</ele>
        <time>2024-11-10T11:41:58Z</time>
      </trkpt>
      <trkpt lat="42.28772" lon="3.28187">
        <ele>5.6</ele>
        <time>2024-11-10T11:41:59Z</time>
      </trkpt>
      <trkpt lat="42.28772" lon="3.28187">
        <ele>5.6</ele>
        <time>2024-11-10T11:42:00Z</time>
      </trkpt>
      <trkpt lat="42.28772" lon="3.28187">
        <ele>5.6</ele>
        <time>2024-11-10T11:42:01Z</time>
      </trkpt>
      <trkpt lat="42.28772" lon="3.28187">
        <ele>5.6</ele>
        <time>2024-11-10T11:42:02Z</time>
      </trkpt>
      <trkpt lat="42.28772" lon="3.28187">
        <ele>5.6</ele>
        <time>2024-11-10T11:42:03Z</time>
      </trkpt>
      <trkpt lat="42.28772" lon="3.28187">
        <ele>5.6</ele>
        <time>2024-11-10T11:42:04Z</time>
      </trkpt>
      <trkpt lat="42.28771" lon="3.28187">
        <ele>5.6</ele>
        <time>2024-11-10T11:42:05Z</time>
      </trkpt>
      <trkpt lat="42.28771" lon="3.28187">
        <ele>5.6</ele>
        <time>2024-11-10T11:42:06Z</time>
      </trkpt>
      <trkpt lat="42.28771" lon="3.28187">
        <ele>5.6</ele>
        <time>2024-11-10T11:42:07Z</time>
      </trkpt>
      <trkpt lat="42.2877" lon="3.28187">
        <ele>5.6</ele>
        <time>2024-11-10T11:42:08Z</time>
      </trkpt>
      <trkpt lat="42.28769" lon="3.28187">
        <ele>5.6</ele>
        <time>2024-11-10T11:42:09Z</time>
      </trkpt>
      <trkpt lat="42.28769" lon="3.28187">
        <ele>5.6</ele>
        <time>2024-11-10T11:42:10Z</time>
      </trkpt>
      <trkpt lat="42.2877" lon="3.28187">
        <ele>5.6</ele>
        <time>2024-11-10T11:42:11Z</time>
      </trkpt>
      <trkpt lat="42.2877" lon="3.28189">
        <ele>5.6</ele>
        <time>2024-11-10T11:42:12Z</time>
      </trkpt>
      <trkpt lat="42.2877" lon="3.28189">
        <ele>5.6</ele>
        <time>2024-11-10T11:42:13Z</time>
      </trkpt>
      <trkpt lat="42.2877" lon="3.28189">
        <ele>5.6</ele>
        <time>2024-11-10T11:42:14Z</time>
      </trkpt>
      <trkpt lat="42.2877" lon="3.28189">
        <ele>5.6</ele>
        <time>2024-11-10T11:42:15Z</time>
      </trkpt>
      <trkpt lat="42.28771" lon="3.2819">
        <ele>5.6</ele>
        <time>2024-11-10T11:42:16Z</time>
      </trkpt>
      <trkpt lat="42.28771" lon="3.2819">
        <ele>5.6</ele>
        <time>2024-11-10T11:42:17Z</time>
      </trkpt>
      <trkpt lat="42.28771" lon="3.2819">
        <ele>5.6</ele>
        <time>2024-11-10T11:42:18Z</time>
      </trkpt>
      <trkpt lat="42.28771" lon="3.28191">
        <ele>5.6</ele>
        <time>2024-11-10T11:42:19Z</time>
      </trkpt>
      <trkpt lat="42.28771" lon="3.28191">
        <ele>5.6</ele>
        <time>2024-11-10T11:42:20Z</time>
      </trkpt>
      <trkpt lat="42.28771" lon="3.28191">
        <ele>5.6</ele>
        <time>2024-11-10T11:42:21Z</time>
      </trkpt>
      <trkpt lat="42.28771" lon="3.28191">
        <ele>5.6</ele>
        <time>2024-11-10T11:42:22Z</time>
      </trkpt>
      <trkpt lat="42.28771" lon="3.28191">
        <ele>5.6</ele>
        <time>2024-11-10T11:42:23Z</time>
      </trkpt>
      <trkpt lat="42.28771" lon="3.28191">
        <ele>5.6</ele>
        <time>2024-11-10T11:42:24Z</time>
      </trkpt>
      <trkpt lat="42.28771" lon="3.28191">
        <ele>5.6</ele>
        <time>2024-11-10T11:42:25Z</time>
      </trkpt>
      <trkpt lat="42.28771" lon="3.28191">
        <ele>5.6</ele>
        <time>2024-11-10T11:42:26Z</time>
      </trkpt>
      <trkpt lat="42.28771" lon="3.28191">
        <ele>5.6</ele>
        <time>2024-11-10T11:42:27Z</time>
      </trkpt>
      <trkpt lat="42.2877" lon="3.28191">
        <ele>5.6</ele>
        <time>2024-11-10T11:42:28Z</time>
      </trkpt>
      <trkpt lat="42.2877" lon="3.28192">
        <ele>5.6</ele>
        <time>2024-11-10T11:42:29Z</time>
      </trkpt>
      <trkpt lat="42.2877" lon="3.28192">
        <ele>5.6</ele>
        <time>2024-11-10T11:42:30Z</time>
      </trkpt>
      <trkpt lat="42.2877" lon="3.28192">
        <ele>5.6</ele>
        <time>2024-11-10T11:42:31Z</time>
      </trkpt>
      <trkpt lat="42.28771" lon="3.28193">
        <ele>5.6</ele>
        <time>2024-11-10T11:42:32Z</time>
      </trkpt>
      <trkpt lat="42.28771" lon="3.28193">
        <ele>5.6</ele>
        <time>2024-11-10T11:42:33Z</time>
      </trkpt>
      <trkpt lat="42.28771" lon="3.28193">
        <ele>5.6</ele>
        <time>2024-11-10T11:42:34Z</time>
      </trkpt>
      <trkpt lat="42.28771" lon="3.28193">
        <ele>5.6</ele>
        <time>2024-11-10T11:42:35Z</time>
      </trkpt>
      <trkpt lat="42.28771" lon="3.28193">
        <ele>5.6</ele>
        <time>2024-11-10T11:42:36Z</time>
      </trkpt>
      <trkpt lat="42.28771" lon="3.28193">
        <ele>5.6</ele>
        <time>2024-11-10T11:42:37Z</time>
      </trkpt>
      <trkpt lat="42.28771" lon="3.28193">
        <ele>5.6</ele>
        <time>2024-11-10T11:42:38Z</time>
      </trkpt>
      <trkpt lat="42.28771" lon="3.28193">
        <ele>5.6</ele>
        <time>2024-11-10T11:42:39Z</time>
      </trkpt>
      <trkpt lat="42.28771" lon="3.28193">
        <ele>5.6</ele>
        <time>2024-11-10T11:42:40Z</time>
      </trkpt>
      <trkpt lat="42.28771" lon="3.28193">
        <ele>5.6</ele>
        <time>2024-11-10T11:42:41Z</time>
      </trkpt>
      <trkpt lat="42.28771" lon="3.28193">
        <ele>5.6</ele>
        <time>2024-11-10T11:42:42Z</time>
      </trkpt>
      <trkpt lat="42.28771" lon="3.28193">
        <ele>5.6</ele>
        <time>2024-11-10T11:42:43Z</time>
      </trkpt>
      <trkpt lat="42.28771" lon="3.28193">
        <ele>5.6</ele>
        <time>2024-11-10T11:42:44Z</time>
      </trkpt>
      <trkpt lat="42.28771" lon="3.28193">
        <ele>5.6</ele>
        <time>2024-11-10T11:42:45Z</time>
      </trkpt>
      <trkpt lat="42.28771" lon="3.28193">
        <ele>5.6</ele>
        <time>2024-11-10T11:42:46Z</time>
      </trkpt>
      <trkpt lat="42.28771" lon="3.28193">
        <ele>5.6</ele>
        <time>2024-11-10T11:42:47Z</time>
      </trkpt>
      <trkpt lat="42.28771" lon="3.28193">
        <ele>5.6</ele>
        <time>2024-11-10T11:42:48Z</time>
      </trkpt>
      <trkpt lat="42.28771" lon="3.28193">
        <ele>5.6</ele>
        <time>2024-11-10T11:42:49Z</time>
      </trkpt>
      <trkpt lat="42.28771" lon="3.28193">
        <ele>5.6</ele>
        <time>2024-11-10T11:42:50Z</time>
      </trkpt>
      <trkpt lat="42.28771" lon="3.28193">
        <ele>5.6</ele>
        <time>2024-11-10T11:42:51Z</time>
      </trkpt>
      <trkpt lat="42.28771" lon="3.28193">
        <ele>5.6</ele>
        <time>2024-11-10T11:42:52Z</time>
      </trkpt>
      <trkpt lat="42.28771" lon="3.28193">
        <ele>5.6</ele>
        <time>2024-11-10T11:42:53Z</time>
      </trkpt>
      <trkpt lat="42.28771" lon="3.28193">
        <ele>5.6</ele>
        <time>2024-11-10T11:42:54Z</time>
      </trkpt>
      <trkpt lat="42.28771" lon="3.28193">
        <ele>5.6</ele>
        <time>2024-11-10T11:42:55Z</time>
      </trkpt>
      <trkpt lat="42.28771" lon="3.28193">
        <ele>5.6</ele>
        <time>2024-11-10T11:42:56Z</time>
      </trkpt>
      <trkpt lat="42.28771" lon="3.28193">
        <ele>5.6</ele>
        <time>2024-11-10T11:42:57Z</time>
      </trkpt>
      <trkpt lat="42.2877" lon="3.28193">
        <ele>5.6</ele>
        <time>2024-11-10T11:42:58Z</time>
      </trkpt>
      <trkpt lat="42.28771" lon="3.28193">
        <ele>5.6</ele>
        <time>2024-11-10T11:42:59Z</time>
      </trkpt>
      <trkpt lat="42.28771" lon="3.28193">
        <ele>5.6</ele>
        <time>2024-11-10T11:43:00Z</time>
      </trkpt>
      <trkpt lat="42.28772" lon="3.28193">
        <ele>5.7</ele>
        <time>2024-11-10T11:43:01Z</time>
      </trkpt>
      <trkpt lat="42.28772" lon="3.28193">
        <ele>5.7</ele>
        <time>2024-11-10T11:43:02Z</time>
      </trkpt>
      <trkpt lat="42.28772" lon="3.28193">
        <ele>5.7</ele>
        <time>2024-11-10T11:43:03Z</time>
      </trkpt>
      <trkpt lat="42.28772" lon="3.28193">
        <ele>5.7</ele>
        <time>2024-11-10T11:43:04Z</time>
      </trkpt>
      <trkpt lat="42.28773" lon="3.28193">
        <ele>5.7</ele>
        <time>2024-11-10T11:43:05Z</time>
      </trkpt>
      <trkpt lat="42.28774" lon="3.28193">
        <ele>5.7</ele>
        <time>2024-11-10T11:43:06Z</time>
      </trkpt>
      <trkpt lat="42.28775" lon="3.28193">
        <ele>5.7</ele>
        <time>2024-11-10T11:43:07Z</time>
      </trkpt>
      <trkpt lat="42.28776" lon="3.28192">
        <ele>5.7</ele>
        <time>2024-11-10T11:43:08Z</time>
      </trkpt>
      <trkpt lat="42.28777" lon="3.28192">
        <ele>5.7</ele>
        <time>2024-11-10T11:43:09Z</time>
      </trkpt>
      <trkpt lat="42.28778" lon="3.28191">
        <ele>5.7</ele>
        <time>2024-11-10T11:43:10Z</time>
      </trkpt>
      <trkpt lat="42.28779" lon="3.28189">
        <ele>5.7</ele>
        <time>2024-11-10T11:43:11Z</time>
      </trkpt>
      <trkpt lat="42.2878" lon="3.28189">
        <ele>5.7</ele>
        <time>2024-11-10T11:43:12Z</time>
      </trkpt>
      <trkpt lat="42.2878" lon="3.28187">
        <ele>5.7</ele>
        <time>2024-11-10T11:43:13Z</time>
      </trkpt>
      <trkpt lat="42.28779" lon="3.28185">
        <ele>5.7</ele>
        <time>2024-11-10T11:43:14Z</time>
      </trkpt>
      <trkpt lat="42.28779" lon="3.28184">
        <ele>5.7</ele>
        <time>2024-11-10T11:43:15Z</time>
      </trkpt>
      <trkpt lat="42.28779" lon="3.28183">
        <ele>5.7</ele>
        <time>2024-11-10T11:43:16Z</time>
      </trkpt>
      <trkpt lat="42.28779" lon="3.28182">
        <ele>5.7</ele>
        <time>2024-11-10T11:43:17Z</time>
      </trkpt>
      <trkpt lat="42.2878" lon="3.28181">
        <ele>5.7</ele>
        <time>2024-11-10T11:43:18Z</time>
      </trkpt>
      <trkpt lat="42.2878" lon="3.2818">
        <ele>5.7</ele>
        <time>2024-11-10T11:43:19Z</time>
      </trkpt>
      <trkpt lat="42.28779" lon="3.28179">
        <ele>5.7</ele>
        <time>2024-11-10T11:43:20Z</time>
      </trkpt>
      <trkpt lat="42.28779" lon="3.28177">
        <ele>5.7</ele>
        <time>2024-11-10T11:43:21Z</time>
      </trkpt>
      <trkpt lat="42.2878" lon="3.28176">
        <ele>5.7</ele>
        <time>2024-11-10T11:43:22Z</time>
      </trkpt>
      <trkpt lat="42.2878" lon="3.28174">
        <ele>5.7</ele>
        <time>2024-11-10T11:43:23Z</time>
      </trkpt>
      <trkpt lat="42.2878" lon="3.28173">
        <ele>5.7</ele>
        <time>2024-11-10T11:43:24Z</time>
      </trkpt>
      <trkpt lat="42.28781" lon="3.28172">
        <ele>5.7</ele>
        <time>2024-11-10T11:43:25Z</time>
      </trkpt>
      <trkpt lat="42.28781" lon="3.28171">
        <ele>5.7</ele>
        <time>2024-11-10T11:43:26Z</time>
      </trkpt>
      <trkpt lat="42.28782" lon="3.28169">
        <ele>5.7</ele>
        <time>2024-11-10T11:43:27Z</time>
      </trkpt>
      <trkpt lat="42.28783" lon="3.28168">
        <ele>5.7</ele>
        <time>2024-11-10T11:43:28Z</time>
      </trkpt>
      <trkpt lat="42.28783" lon="3.28167">
        <ele>5.7</ele>
        <time>2024-11-10T11:43:29Z</time>
      </trkpt>
      <trkpt lat="42.28784" lon="3.28166">
        <ele>5.7</ele>
        <time>2024-11-10T11:43:30Z</time>
      </trkpt>
      <trkpt lat="42.28784" lon="3.28164">
        <ele>5.7</ele>
        <time>2024-11-10T11:43:31Z</time>
      </trkpt>
      <trkpt lat="42.28784" lon="3.28163">
        <ele>5.7</ele>
        <time>2024-11-10T11:43:32Z</time>
      </trkpt>
      <trkpt lat="42.28785" lon="3.28162">
        <ele>5.7</ele>
        <time>2024-11-10T11:43:33Z</time>
      </trkpt>
      <trkpt lat="42.28785" lon="3.2816">
        <ele>5.7</ele>
        <time>2024-11-10T11:43:34Z</time>
      </trkpt>
      <trkpt lat="42.28786" lon="3.28159">
        <ele>5.7</ele>
        <time>2024-11-10T11:43:35Z</time>
      </trkpt>
      <trkpt lat="42.28786" lon="3.28158">
        <ele>5.7</ele>
        <time>2024-11-10T11:43:36Z</time>
      </trkpt>
      <trkpt lat="42.28786" lon="3.28157">
        <ele>5.8</ele>
        <time>2024-11-10T11:43:37Z</time>
      </trkpt>
      <trkpt lat="42.28787" lon="3.28156">
        <ele>5.8</ele>
        <time>2024-11-10T11:43:38Z</time>
      </trkpt>
      <trkpt lat="42.28787" lon="3.28154">
        <ele>5.8</ele>
        <time>2024-11-10T11:43:39Z</time>
      </trkpt>
      <trkpt lat="42.28787" lon="3.28153">
        <ele>5.8</ele>
        <time>2024-11-10T11:43:40Z</time>
      </trkpt>
      <trkpt lat="42.28787" lon="3.28152">
        <ele>5.8</ele>
        <time>2024-11-10T11:43:41Z</time>
      </trkpt>
      <trkpt lat="42.28788" lon="3.28151">
        <ele>5.8</ele>
        <time>2024-11-10T11:43:42Z</time>
      </trkpt>
      <trkpt lat="42.28788" lon="3.28149">
        <ele>5.8</ele>
        <time>2024-11-10T11:43:43Z</time>
      </trkpt>
      <trkpt lat="42.28788" lon="3.28148">
        <ele>5.8</ele>
        <time>2024-11-10T11:43:44Z</time>
      </trkpt>
      <trkpt lat="42.28789" lon="3.28147">
        <ele>5.8</ele>
        <time>2024-11-10T11:43:45Z</time>
      </trkpt>
      <trkpt lat="42.28789" lon="3.28146">
        <ele>5.8</ele>
        <time>2024-11-10T11:43:46Z</time>
      </trkpt>
      <trkpt lat="42.28789" lon="3.28145">
        <ele>5.8</ele>
        <time>2024-11-10T11:43:47Z</time>
      </trkpt>
      <trkpt lat="42.2879" lon="3.28143">
        <ele>5.8</ele>
        <time>2024-11-10T11:43:48Z</time>
      </trkpt>
      <trkpt lat="42.2879" lon="3.28142">
        <ele>5.8</ele>
        <time>2024-11-10T11:43:49Z</time>
      </trkpt>
      <trkpt lat="42.28791" lon="3.28141">
        <ele>5.8</ele>
        <time>2024-11-10T11:43:50Z</time>
      </trkpt>
      <trkpt lat="42.28791" lon="3.2814">
        <ele>5.8</ele>
        <time>2024-11-10T11:43:51Z</time>
      </trkpt>
      <trkpt lat="42.28791" lon="3.28139">
        <ele>5.8</ele>
        <time>2024-11-10T11:43:52Z</time>
      </trkpt>
      <trkpt lat="42.28792" lon="3.28137">
        <ele>5.9</ele>
        <time>2024-11-10T11:43:53Z</time>
      </trkpt>
      <trkpt lat="42.28792" lon="3.28136">
        <ele>5.9</ele>
        <time>2024-11-10T11:43:54Z</time>
      </trkpt>
      <trkpt lat="42.28792" lon="3.28135">
        <ele>5.9</ele>
        <time>2024-11-10T11:43:55Z</time>
      </trkpt>
      <trkpt lat="42.28793" lon="3.28133">
        <ele>5.9</ele>
        <time>2024-11-10T11:43:56Z</time>
      </trkpt>
      <trkpt lat="42.28794" lon="3.28133">
        <ele>5.9</ele>
        <time>2024-11-10T11:43:57Z</time>
      </trkpt>
      <trkpt lat="42.28794" lon="3.28132">
        <ele>5.9</ele>
        <time>2024-11-10T11:43:58Z</time>
      </trkpt>
      <trkpt lat="42.28795" lon="3.28131">
        <ele>5.9</ele>
        <time>2024-11-10T11:43:59Z</time>
      </trkpt>
      <trkpt lat="42.28795" lon="3.28129">
        <ele>5.9</ele>
        <time>2024-11-10T11:44:00Z</time>
      </trkpt>
      <trkpt lat="42.28795" lon="3.28128">
        <ele>5.9</ele>
        <time>2024-11-10T11:44:01Z</time>
      </trkpt>
      <trkpt lat="42.28796" lon="3.28127">
        <ele>5.9</ele>
        <time>2024-11-10T11:44:02Z</time>
      </trkpt>
      <trkpt lat="42.28796" lon="3.28126">
        <ele>5.9</ele>
        <time>2024-11-10T11:44:03Z</time>
      </trkpt>
      <trkpt lat="42.28796" lon="3.28124">
        <ele>5.9</ele>
        <time>2024-11-10T11:44:04Z</time>
      </trkpt>
      <trkpt lat="42.28797" lon="3.28123">
        <ele>6</ele>
        <time>2024-11-10T11:44:05Z</time>
      </trkpt>
      <trkpt lat="42.28797" lon="3.28122">
        <ele>6</ele>
        <time>2024-11-10T11:44:06Z</time>
      </trkpt>
      <trkpt lat="42.28797" lon="3.28121">
        <ele>6</ele>
        <time>2024-11-10T11:44:07Z</time>
      </trkpt>
      <trkpt lat="42.28797" lon="3.2812">
        <ele>6</ele>
        <time>2024-11-10T11:44:08Z</time>
      </trkpt>
      <trkpt lat="42.28798" lon="3.28119">
        <ele>6</ele>
        <time>2024-11-10T11:44:09Z</time>
      </trkpt>
      <trkpt lat="42.28798" lon="3.28118">
        <ele>6</ele>
        <time>2024-11-10T11:44:10Z</time>
      </trkpt>
      <trkpt lat="42.28798" lon="3.28116">
        <ele>6</ele>
        <time>2024-11-10T11:44:11Z</time>
      </trkpt>
      <trkpt lat="42.28799" lon="3.28115">
        <ele>6</ele>
        <time>2024-11-10T11:44:12Z</time>
      </trkpt>
      <trkpt lat="42.28799" lon="3.28114">
        <ele>6</ele>
        <time>2024-11-10T11:44:13Z</time>
      </trkpt>
      <trkpt lat="42.288" lon="3.28113">
        <ele>6</ele>
        <time>2024-11-10T11:44:14Z</time>
      </trkpt>
      <trkpt lat="42.288" lon="3.28112">
        <ele>6</ele>
        <time>2024-11-10T11:44:15Z</time>
      </trkpt>
      <trkpt lat="42.28801" lon="3.28111">
        <ele>6</ele>
        <time>2024-11-10T11:44:16Z</time>
      </trkpt>
      <trkpt lat="42.28802" lon="3.2811">
        <ele>6</ele>
        <time>2024-11-10T11:44:17Z</time>
      </trkpt>
      <trkpt lat="42.28802" lon="3.2811">
        <ele>6</ele>
        <time>2024-11-10T11:44:18Z</time>
      </trkpt>
      <trkpt lat="42.28803" lon="3.28109">
        <ele>6</ele>
        <time>2024-11-10T11:44:19Z</time>
      </trkpt>
      <trkpt lat="42.28804" lon="3.28108">
        <ele>6</ele>
        <time>2024-11-10T11:44:20Z</time>
      </trkpt>
      <trkpt lat="42.28805" lon="3.28108">
        <ele>6</ele>
        <time>2024-11-10T11:44:21Z</time>
      </trkpt>
      <trkpt lat="42.28805" lon="3.28107">
        <ele>6.1</ele>
        <time>2024-11-10T11:44:22Z</time>
      </trkpt>
      <trkpt lat="42.28807" lon="3.28106">
        <ele>6.1</ele>
        <time>2024-11-10T11:44:23Z</time>
      </trkpt>
      <trkpt lat="42.28808" lon="3.28105">
        <ele>6.1</ele>
        <time>2024-11-10T11:44:24Z</time>
      </trkpt>
      <trkpt lat="42.28809" lon="3.28104">
        <ele>6.1</ele>
        <time>2024-11-10T11:44:25Z</time>
      </trkpt>
      <trkpt lat="42.2881" lon="3.28104">
        <ele>6.1</ele>
        <time>2024-11-10T11:44:26Z</time>
      </trkpt>
      <trkpt lat="42.2881" lon="3.28103">
        <ele>6.1</ele>
        <time>2024-11-10T11:44:27Z</time>
      </trkpt>
      <trkpt lat="42.28812" lon="3.28102">
        <ele>6.1</ele>
        <time>2024-11-10T11:44:28Z</time>
      </trkpt>
      <trkpt lat="42.28812" lon="3.28101">
        <ele>6.1</ele>
        <time>2024-11-10T11:44:29Z</time>
      </trkpt>
      <trkpt lat="42.28813" lon="3.281">
        <ele>6.1</ele>
        <time>2024-11-10T11:44:30Z</time>
      </trkpt>
      <trkpt lat="42.28814" lon="3.281">
        <ele>6.1</ele>
        <time>2024-11-10T11:44:31Z</time>
      </trkpt>
      <trkpt lat="42.28815" lon="3.28099">
        <ele>6.1</ele>
        <time>2024-11-10T11:44:32Z</time>
      </trkpt>
      <trkpt lat="42.28816" lon="3.28099">
        <ele>6.1</ele>
        <time>2024-11-10T11:44:33Z</time>
      </trkpt>
      <trkpt lat="42.28817" lon="3.28098">
        <ele>6.1</ele>
        <time>2024-11-10T11:44:34Z</time>
      </trkpt>
      <trkpt lat="42.28818" lon="3.28098">
        <ele>6.1</ele>
        <time>2024-11-10T11:44:35Z</time>
      </trkpt>
      <trkpt lat="42.28819" lon="3.28097">
        <ele>6.1</ele>
        <time>2024-11-10T11:44:36Z</time>
      </trkpt>
      <trkpt lat="42.2882" lon="3.28096">
        <ele>6.1</ele>
        <time>2024-11-10T11:44:37Z</time>
      </trkpt>
      <trkpt lat="42.28821" lon="3.28096">
        <ele>6.1</ele>
        <time>2024-11-10T11:44:38Z</time>
      </trkpt>
      <trkpt lat="42.28821" lon="3.28095">
        <ele>6.1</ele>
        <time>2024-11-10T11:44:39Z</time>
      </trkpt>
      <trkpt lat="42.28822" lon="3.28095">
        <ele>6.1</ele>
        <time>2024-11-10T11:44:40Z</time>
      </trkpt>
      <trkpt lat="42.28823" lon="3.28095">
        <ele>6.1</ele>
        <time>2024-11-10T11:44:41Z</time>
      </trkpt>
      <trkpt lat="42.28822" lon="3.28095">
        <ele>6.1</ele>
        <time>2024-11-10T11:44:42Z</time>
      </trkpt>
      <trkpt lat="42.28822" lon="3.28095">
        <ele>6.1</ele>
        <time>2024-11-10T11:44:43Z</time>
      </trkpt>
      <trkpt lat="42.28822" lon="3.28094">
        <ele>6.1</ele>
        <time>2024-11-10T11:44:44Z</time>
      </trkpt>
      <trkpt lat="42.28823" lon="3.28094">
        <ele>6.1</ele>
        <time>2024-11-10T11:44:45Z</time>
      </trkpt>
      <trkpt lat="42.28824" lon="3.28094">
        <ele>6.1</ele>
        <time>2024-11-10T11:44:46Z</time>
      </trkpt>
      <trkpt lat="42.28825" lon="3.28093">
        <ele>6.1</ele>
        <time>2024-11-10T11:44:47Z</time>
      </trkpt>
      <trkpt lat="42.28826" lon="3.28093">
        <ele>6.1</ele>
        <time>2024-11-10T11:44:48Z</time>
      </trkpt>
      <trkpt lat="42.28827" lon="3.28093">
        <ele>6.1</ele>
        <time>2024-11-10T11:44:49Z</time>
      </trkpt>
      <trkpt lat="42.28828" lon="3.28093">
        <ele>6.1</ele>
        <time>2024-11-10T11:44:50Z</time>
      </trkpt>
      <trkpt lat="42.28829" lon="3.28093">
        <ele>6.1</ele>
        <time>2024-11-10T11:44:51Z</time>
      </trkpt>
      <trkpt lat="42.2883" lon="3.28093">
        <ele>6.1</ele>
        <time>2024-11-10T11:44:52Z</time>
      </trkpt>
      <trkpt lat="42.28831" lon="3.28093">
        <ele>6.1</ele>
        <time>2024-11-10T11:44:53Z</time>
      </trkpt>
      <trkpt lat="42.28832" lon="3.28093">
        <ele>6.1</ele>
        <time>2024-11-10T11:44:54Z</time>
      </trkpt>
      <trkpt lat="42.28833" lon="3.28094">
        <ele>6.1</ele>
        <time>2024-11-10T11:44:55Z</time>
      </trkpt>
      <trkpt lat="42.28833" lon="3.28094">
        <ele>6.1</ele>
        <time>2024-11-10T11:44:56Z</time>
      </trkpt>
      <trkpt lat="42.28834" lon="3.28094">
        <ele>6.1</ele>
        <time>2024-11-10T11:44:57Z</time>
      </trkpt>
      <trkpt lat="42.28835" lon="3.28095">
        <ele>6.1</ele>
        <time>2024-11-10T11:44:58Z</time>
      </trkpt>
      <trkpt lat="42.28835" lon="3.28096">
        <ele>6.1</ele>
        <time>2024-11-10T11:44:59Z</time>
      </trkpt>
      <trkpt lat="42.28836" lon="3.28096">
        <ele>6.1</ele>
        <time>2024-11-10T11:45:00Z</time>
      </trkpt>
      <trkpt lat="42.28837" lon="3.28097">
        <ele>6.1</ele>
        <time>2024-11-10T11:45:01Z</time>
      </trkpt>
      <trkpt lat="42.28838" lon="3.28097">
        <ele>6.1</ele>
        <time>2024-11-10T11:45:02Z</time>
      </trkpt>
      <trkpt lat="42.28839" lon="3.28098">
        <ele>6.1</ele>
        <time>2024-11-10T11:45:03Z</time>
      </trkpt>
      <trkpt lat="42.28839" lon="3.28098">
        <ele>6.1</ele>
        <time>2024-11-10T11:45:04Z</time>
      </trkpt>
      <trkpt lat="42.2884" lon="3.28098">
        <ele>6.1</ele>
        <time>2024-11-10T11:45:05Z</time>
      </trkpt>
      <trkpt lat="42.28841" lon="3.28099">
        <ele>6.1</ele>
        <time>2024-11-10T11:45:06Z</time>
      </trkpt>
      <trkpt lat="42.28841" lon="3.28099">
        <ele>6.1</ele>
        <time>2024-11-10T11:45:07Z</time>
      </trkpt>
      <trkpt lat="42.28843" lon="3.28099">
        <ele>6.1</ele>
        <time>2024-11-10T11:45:08Z</time>
      </trkpt>
      <trkpt lat="42.28844" lon="3.281">
        <ele>6</ele>
        <time>2024-11-10T11:45:09Z</time>
      </trkpt>
      <trkpt lat="42.28845" lon="3.281">
        <ele>6</ele>
        <time>2024-11-10T11:45:10Z</time>
      </trkpt>
      <trkpt lat="42.28846" lon="3.281">
        <ele>6</ele>
        <time>2024-11-10T11:45:11Z</time>
      </trkpt>
      <trkpt lat="42.28847" lon="3.281">
        <ele>6</ele>
        <time>2024-11-10T11:45:12Z</time>
      </trkpt>
      <trkpt lat="42.28848" lon="3.28099">
        <ele>6</ele>
        <time>2024-11-10T11:45:13Z</time>
      </trkpt>
      <trkpt lat="42.28849" lon="3.281">
        <ele>6</ele>
        <time>2024-11-10T11:45:14Z</time>
      </trkpt>
      <trkpt lat="42.2885" lon="3.281">
        <ele>6</ele>
        <time>2024-11-10T11:45:15Z</time>
      </trkpt>
      <trkpt lat="42.28851" lon="3.281">
        <ele>5.9</ele>
        <time>2024-11-10T11:45:16Z</time>
      </trkpt>
      <trkpt lat="42.28852" lon="3.281">
        <ele>5.9</ele>
        <time>2024-11-10T11:45:17Z</time>
      </trkpt>
      <trkpt lat="42.28853" lon="3.28099">
        <ele>5.9</ele>
        <time>2024-11-10T11:45:18Z</time>
      </trkpt>
      <trkpt lat="42.28854" lon="3.28099">
        <ele>5.9</ele>
        <time>2024-11-10T11:45:19Z</time>
      </trkpt>
      <trkpt lat="42.28855" lon="3.281">
        <ele>5.9</ele>
        <time>2024-11-10T11:45:20Z</time>
      </trkpt>
      <trkpt lat="42.28856" lon="3.281">
        <ele>5.9</ele>
        <time>2024-11-10T11:45:21Z</time>
      </trkpt>
      <trkpt lat="42.28857" lon="3.28101">
        <ele>5.9</ele>
        <time>2024-11-10T11:45:22Z</time>
      </trkpt>
      <trkpt lat="42.28858" lon="3.281">
        <ele>5.8</ele>
        <time>2024-11-10T11:45:23Z</time>
      </trkpt>
      <trkpt lat="42.28859" lon="3.28101">
        <ele>5.8</ele>
        <time>2024-11-10T11:45:24Z</time>
      </trkpt>
      <trkpt lat="42.2886" lon="3.28101">
        <ele>5.8</ele>
        <time>2024-11-10T11:45:25Z</time>
      </trkpt>
      <trkpt lat="42.2886" lon="3.28102">
        <ele>5.8</ele>
        <time>2024-11-10T11:45:26Z</time>
      </trkpt>
      <trkpt lat="42.28861" lon="3.28102">
        <ele>5.8</ele>
        <time>2024-11-10T11:45:27Z</time>
      </trkpt>
      <trkpt lat="42.28862" lon="3.28101">
        <ele>5.8</ele>
        <time>2024-11-10T11:45:28Z</time>
      </trkpt>
      <trkpt lat="42.28863" lon="3.28101">
        <ele>5.8</ele>
        <time>2024-11-10T11:45:29Z</time>
      </trkpt>
      <trkpt lat="42.28864" lon="3.28103">
        <ele>5.8</ele>
        <time>2024-11-10T11:45:30Z</time>
      </trkpt>
      <trkpt lat="42.28864" lon="3.28104">
        <ele>5.7</ele>
        <time>2024-11-10T11:45:31Z</time>
      </trkpt>
      <trkpt lat="42.28864" lon="3.28105">
        <ele>5.7</ele>
        <time>2024-11-10T11:45:32Z</time>
      </trkpt>
      <trkpt lat="42.28865" lon="3.28105">
        <ele>5.7</ele>
        <time>2024-11-10T11:45:33Z</time>
      </trkpt>
      <trkpt lat="42.28865" lon="3.28106">
        <ele>5.7</ele>
        <time>2024-11-10T11:45:34Z</time>
      </trkpt>
      <trkpt lat="42.28865" lon="3.28107">
        <ele>5.7</ele>
        <time>2024-11-10T11:45:35Z</time>
      </trkpt>
      <trkpt lat="42.28865" lon="3.28109">
        <ele>5.7</ele>
        <time>2024-11-10T11:45:36Z</time>
      </trkpt>
      <trkpt lat="42.28865" lon="3.2811">
        <ele>5.7</ele>
        <time>2024-11-10T11:45:37Z</time>
      </trkpt>
      <trkpt lat="42.28866" lon="3.28109">
        <ele>5.7</ele>
        <time>2024-11-10T11:45:38Z</time>
      </trkpt>
      <trkpt lat="42.28866" lon="3.28109">
        <ele>5.7</ele>
        <time>2024-11-10T11:45:39Z</time>
      </trkpt>
      <trkpt lat="42.28867" lon="3.28109">
        <ele>5.7</ele>
        <time>2024-11-10T11:45:40Z</time>
      </trkpt>
      <trkpt lat="42.28867" lon="3.28109">
        <ele>5.7</ele>
        <time>2024-11-10T11:45:41Z</time>
      </trkpt>
      <trkpt lat="42.28867" lon="3.28109">
        <ele>5.7</ele>
        <time>2024-11-10T11:45:42Z</time>
      </trkpt>
      <trkpt lat="42.28867" lon="3.28108">
        <ele>5.7</ele>
        <time>2024-11-10T11:45:43Z</time>
      </trkpt>
      <trkpt lat="42.28867" lon="3.28108">
        <ele>5.6</ele>
        <time>2024-11-10T11:45:44Z</time>
      </trkpt>
      <trkpt lat="42.28867" lon="3.28109">
        <ele>5.6</ele>
        <time>2024-11-10T11:45:45Z</time>
      </trkpt>
      <trkpt lat="42.28867" lon="3.28109">
        <ele>5.6</ele>
        <time>2024-11-10T11:45:46Z</time>
      </trkpt>
      <trkpt lat="42.28867" lon="3.28109">
        <ele>5.6</ele>
        <time>2024-11-10T11:45:47Z</time>
      </trkpt>
      <trkpt lat="42.28867" lon="3.28109">
        <ele>5.6</ele>
        <time>2024-11-10T11:45:48Z</time>
      </trkpt>
      <trkpt lat="42.28867" lon="3.28109">
        <ele>5.6</ele>
        <time>2024-11-10T11:45:49Z</time>
      </trkpt>
      <trkpt lat="42.28867" lon="3.28109">
        <ele>5.6</ele>
        <time>2024-11-10T11:45:50Z</time>
      </trkpt>
      <trkpt lat="42.28867" lon="3.28109">
        <ele>5.6</ele>
        <time>2024-11-10T11:45:51Z</time>
      </trkpt>
      <trkpt lat="42.28867" lon="3.28109">
        <ele>5.6</ele>
        <time>2024-11-10T11:45:52Z</time>
      </trkpt>
      <trkpt lat="42.28868" lon="3.28108">
        <ele>5.6</ele>
        <time>2024-11-10T11:45:53Z</time>
      </trkpt>
      <trkpt lat="42.28868" lon="3.28107">
        <ele>5.6</ele>
        <time>2024-11-10T11:45:54Z</time>
      </trkpt>
      <trkpt lat="42.28868" lon="3.28107">
        <ele>5.6</ele>
        <time>2024-11-10T11:45:55Z</time>
      </trkpt>
      <trkpt lat="42.28869" lon="3.28107">
        <ele>5.6</ele>
        <time>2024-11-10T11:45:56Z</time>
      </trkpt>
      <trkpt lat="42.2887" lon="3.28106">
        <ele>5.6</ele>
        <time>2024-11-10T11:45:57Z</time>
      </trkpt>
      <trkpt lat="42.28871" lon="3.28106">
        <ele>5.6</ele>
        <time>2024-11-10T11:45:58Z</time>
      </trkpt>
      <trkpt lat="42.28872" lon="3.28106">
        <ele>5.6</ele>
        <time>2024-11-10T11:45:59Z</time>
      </trkpt>
      <trkpt lat="42.28872" lon="3.28106">
        <ele>5.6</ele>
        <time>2024-11-10T11:46:00Z</time>
      </trkpt>
      <trkpt lat="42.28873" lon="3.28107">
        <ele>5.6</ele>
        <time>2024-11-10T11:46:01Z</time>
      </trkpt>
      <trkpt lat="42.28873" lon="3.28107">
        <ele>5.6</ele>
        <time>2024-11-10T11:46:02Z</time>
      </trkpt>
      <trkpt lat="42.28873" lon="3.28107">
        <ele>5.6</ele>
        <time>2024-11-10T11:46:03Z</time>
      </trkpt>
      <trkpt lat="42.28872" lon="3.28107">
        <ele>5.6</ele>
        <time>2024-11-10T11:46:04Z</time>
      </trkpt>
      <trkpt lat="42.28872" lon="3.28107">
        <ele>5.6</ele>
        <time>2024-11-10T11:46:05Z</time>
      </trkpt>
      <trkpt lat="42.28872" lon="3.28107">
        <ele>5.6</ele>
        <time>2024-11-10T11:46:06Z</time>
      </trkpt>
      <trkpt lat="42.28872" lon="3.28107">
        <ele>5.6</ele>
        <time>2024-11-10T11:46:07Z</time>
      </trkpt>
      <trkpt lat="42.28872" lon="3.28107">
        <ele>5.6</ele>
        <time>2024-11-10T11:46:08Z</time>
      </trkpt>
      <trkpt lat="42.28872" lon="3.28107">
        <ele>5.6</ele>
        <time>2024-11-10T11:46:09Z</time>
      </trkpt>
      <trkpt lat="42.28872" lon="3.28107">
        <ele>5.6</ele>
        <time>2024-11-10T11:46:10Z</time>
      </trkpt>
      <trkpt lat="42.28872" lon="3.28107">
        <ele>5.6</ele>
        <time>2024-11-10T11:46:11Z</time>
      </trkpt>
      <trkpt lat="42.28872" lon="3.28107">
        <ele>5.6</ele>
        <time>2024-11-10T11:46:12Z</time>
      </trkpt>
      <trkpt lat="42.28872" lon="3.28107">
        <ele>5.6</ele>
        <time>2024-11-10T11:46:13Z</time>
      </trkpt>
      <trkpt lat="42.28872" lon="3.28107">
        <ele>5.6</ele>
        <time>2024-11-10T11:46:14Z</time>
      </trkpt>
      <trkpt lat="42.28872" lon="3.28107">
        <ele>5.6</ele>
        <time>2024-11-10T11:46:15Z</time>
      </trkpt>
      <trkpt lat="42.28872" lon="3.28107">
        <ele>5.6</ele>
        <time>2024-11-10T11:46:16Z</time>
      </trkpt>
      <trkpt lat="42.28872" lon="3.28107">
        <ele>5.6</ele>
        <time>2024-11-10T11:46:17Z</time>
      </trkpt>
      <trkpt lat="42.28872" lon="3.28107">
        <ele>5.6</ele>
        <time>2024-11-10T11:46:18Z</time>
      </trkpt>
      <trkpt lat="42.28872" lon="3.28107">
        <ele>5.6</ele>
        <time>2024-11-10T11:46:19Z</time>
      </trkpt>
      <trkpt lat="42.28872" lon="3.28107">
        <ele>5.6</ele>
        <time>2024-11-10T11:46:20Z</time>
      </trkpt>
      <trkpt lat="42.28872" lon="3.28107">
        <ele>5.6</ele>
        <time>2024-11-10T11:46:21Z</time>
      </trkpt>
      <trkpt lat="42.28872" lon="3.28107">
        <ele>5.6</ele>
        <time>2024-11-10T11:46:22Z</time>
      </trkpt>
      <trkpt lat="42.28872" lon="3.28107">
        <ele>5.6</ele>
        <time>2024-11-10T11:46:23Z</time>
      </trkpt>
      <trkpt lat="42.28872" lon="3.28107">
        <ele>5.6</ele>
        <time>2024-11-10T11:46:24Z</time>
      </trkpt>
      <trkpt lat="42.28872" lon="3.28107">
        <ele>5.6</ele>
        <time>2024-11-10T11:46:25Z</time>
      </trkpt>
      <trkpt lat="42.28872" lon="3.28107">
        <ele>5.6</ele>
        <time>2024-11-10T11:46:26Z</time>
      </trkpt>
      <trkpt lat="42.28872" lon="3.28107">
        <ele>5.6</ele>
        <time>2024-11-10T11:46:27Z</time>
      </trkpt>
      <trkpt lat="42.28872" lon="3.28107">
        <ele>5.6</ele>
        <time>2024-11-10T11:46:28Z</time>
      </trkpt>
      <trkpt lat="42.28873" lon="3.28107">
        <ele>5.6</ele>
        <time>2024-11-10T11:46:29Z</time>
      </trkpt>
      <trkpt lat="42.28873" lon="3.28107">
        <ele>5.6</ele>
        <time>2024-11-10T11:46:30Z</time>
      </trkpt>
      <trkpt lat="42.28873" lon="3.28107">
        <ele>5.6</ele>
        <time>2024-11-10T11:46:31Z</time>
      </trkpt>
      <trkpt lat="42.28873" lon="3.28107">
        <ele>5.6</ele>
        <time>2024-11-10T11:46:32Z</time>
      </trkpt>
      <trkpt lat="42.28873" lon="3.28107">
        <ele>5.6</ele>
        <time>2024-11-10T11:46:33Z</time>
      </trkpt>
      <trkpt lat="42.28873" lon="3.28107">
        <ele>5.6</ele>
        <time>2024-11-10T11:46:34Z</time>
      </trkpt>
      <trkpt lat="42.28873" lon="3.28107">
        <ele>5.6</ele>
        <time>2024-11-10T11:46:35Z</time>
      </trkpt>
      <trkpt lat="42.28873" lon="3.28107">
        <ele>5.6</ele>
        <time>2024-11-10T11:46:36Z</time>
      </trkpt>
      <trkpt lat="42.28873" lon="3.28107">
        <ele>5.6</ele>
        <time>2024-11-10T11:46:37Z</time>
      </trkpt>
      <trkpt lat="42.28873" lon="3.28107">
        <ele>5.6</ele>
        <time>2024-11-10T11:46:38Z</time>
      </trkpt>
      <trkpt lat="42.28873" lon="3.28107">
        <ele>5.6</ele>
        <time>2024-11-10T11:46:39Z</time>
      </trkpt>
      <trkpt lat="42.28873" lon="3.28107">
        <ele>5.6</ele>
        <time>2024-11-10T11:46:40Z</time>
      </trkpt>
      <trkpt lat="42.28873" lon="3.28107">
        <ele>5.6</ele>
        <time>2024-11-10T11:46:41Z</time>
      </trkpt>
      <trkpt lat="42.28873" lon="3.28107">
        <ele>5.6</ele>
        <time>2024-11-10T11:46:42Z</time>
      </trkpt>
      <trkpt lat="42.28873" lon="3.28106">
        <ele>5.6</ele>
        <time>2024-11-10T11:46:43Z</time>
      </trkpt>
      <trkpt lat="42.28873" lon="3.28106">
        <ele>5.6</ele>
        <time>2024-11-10T11:46:44Z</time>
      </trkpt>
      <trkpt lat="42.28873" lon="3.28106">
        <ele>5.6</ele>
        <time>2024-11-10T11:46:45Z</time>
      </trkpt>
      <trkpt lat="42.28873" lon="3.28106">
        <ele>5.6</ele>
        <time>2024-11-10T11:46:46Z</time>
      </trkpt>
      <trkpt lat="42.28873" lon="3.28106">
        <ele>5.6</ele>
        <time>2024-11-10T11:46:47Z</time>
      </trkpt>
      <trkpt lat="42.28873" lon="3.28106">
        <ele>5.6</ele>
        <time>2024-11-10T11:46:48Z</time>
      </trkpt>
      <trkpt lat="42.28873" lon="3.28106">
        <ele>5.6</ele>
        <time>2024-11-10T11:46:49Z</time>
      </trkpt>
      <trkpt lat="42.28872" lon="3.28106">
        <ele>5.6</ele>
        <time>2024-11-10T11:46:50Z</time>
      </trkpt>
      <trkpt lat="42.28872" lon="3.28107">
        <ele>5.6</ele>
        <time>2024-11-10T11:46:51Z</time>
      </trkpt>
      <trkpt lat="42.28872" lon="3.28107">
        <ele>5.6</ele>
        <time>2024-11-10T11:46:52Z</time>
      </trkpt>
      <trkpt lat="42.28872" lon="3.28107">
        <ele>5.6</ele>
        <time>2024-11-10T11:46:53Z</time>
      </trkpt>
      <trkpt lat="42.28872" lon="3.28107">
        <ele>5.6</ele>
        <time>2024-11-10T11:46:54Z</time>
      </trkpt>
      <trkpt lat="42.28872" lon="3.28107">
        <ele>5.6</ele>
        <time>2024-11-10T11:46:55Z</time>
      </trkpt>
      <trkpt lat="42.28872" lon="3.28107">
        <ele>5.6</ele>
        <time>2024-11-10T11:46:56Z</time>
      </trkpt>
      <trkpt lat="42.28872" lon="3.28107">
        <ele>5.6</ele>
        <time>2024-11-10T11:46:57Z</time>
      </trkpt>
      <trkpt lat="42.28872" lon="3.28107">
        <ele>5.6</ele>
        <time>2024-11-10T11:46:58Z</time>
      </trkpt>
      <trkpt lat="42.28872" lon="3.28107">
        <ele>5.6</ele>
        <time>2024-11-10T11:46:59Z</time>
      </trkpt>
      <trkpt lat="42.28872" lon="3.28107">
        <ele>5.6</ele>
        <time>2024-11-10T11:47:00Z</time>
      </trkpt>
      <trkpt lat="42.28872" lon="3.28107">
        <ele>5.6</ele>
        <time>2024-11-10T11:47:01Z</time>
      </trkpt>
      <trkpt lat="42.28872" lon="3.28107">
        <ele>5.6</ele>
        <time>2024-11-10T11:47:02Z</time>
      </trkpt>
      <trkpt lat="42.28872" lon="3.28107">
        <ele>5.6</ele>
        <time>2024-11-10T11:47:03Z</time>
      </trkpt>
      <trkpt lat="42.28872" lon="3.28107">
        <ele>5.6</ele>
        <time>2024-11-10T11:47:04Z</time>
      </trkpt>
      <trkpt lat="42.28872" lon="3.28107">
        <ele>5.6</ele>
        <time>2024-11-10T11:47:05Z</time>
      </trkpt>
      <trkpt lat="42.28872" lon="3.28107">
        <ele>5.6</ele>
        <time>2024-11-10T11:47:06Z</time>
      </trkpt>
      <trkpt lat="42.28872" lon="3.28107">
        <ele>5.6</ele>
        <time>2024-11-10T11:47:07Z</time>
      </trkpt>
      <trkpt lat="42.28872" lon="3.28107">
        <ele>5.6</ele>
        <time>2024-11-10T11:47:08Z</time>
      </trkpt>
      <trkpt lat="42.28872" lon="3.28107">
        <ele>5.6</ele>
        <time>2024-11-10T11:47:09Z</time>
      </trkpt>
      <trkpt lat="42.28872" lon="3.28107">
        <ele>5.6</ele>
        <time>2024-11-10T11:47:10Z</time>
      </trkpt>
      <trkpt lat="42.28872" lon="3.28107">
        <ele>5.6</ele>
        <time>2024-11-10T11:47:11Z</time>
      </trkpt>
      <trkpt lat="42.28872" lon="3.28107">
        <ele>5.6</ele>
        <time>2024-11-10T11:47:12Z</time>
      </trkpt>
      <trkpt lat="42.28872" lon="3.28107">
        <ele>5.6</ele>
        <time>2024-11-10T11:47:13Z</time>
      </trkpt>
      <trkpt lat="42.28872" lon="3.28107">
        <ele>5.6</ele>
        <time>2024-11-10T11:47:14Z</time>
      </trkpt>
      <trkpt lat="42.28872" lon="3.28107">
        <ele>5.6</ele>
        <time>2024-11-10T11:47:15Z</time>
      </trkpt>
      <trkpt lat="42.28872" lon="3.28107">
        <ele>5.6</ele>
        <time>2024-11-10T11:47:16Z</time>
      </trkpt>
      <trkpt lat="42.28872" lon="3.28107">
        <ele>5.6</ele>
        <time>2024-11-10T11:47:17Z</time>
      </trkpt>
      <trkpt lat="42.28872" lon="3.28107">
        <ele>5.6</ele>
        <time>2024-11-10T11:47:18Z</time>
      </trkpt>
      <trkpt lat="42.28872" lon="3.28107">
        <ele>5.6</ele>
        <time>2024-11-10T11:47:19Z</time>
      </trkpt>
      <trkpt lat="42.28872" lon="3.28107">
        <ele>5.6</ele>
        <time>2024-11-10T11:47:20Z</time>
      </trkpt>
      <trkpt lat="42.28872" lon="3.28107">
        <ele>5.6</ele>
        <time>2024-11-10T11:47:21Z</time>
      </trkpt>
      <trkpt lat="42.28872" lon="3.28107">
        <ele>5.6</ele>
        <time>2024-11-10T11:47:22Z</time>
      </trkpt>
      <trkpt lat="42.28872" lon="3.28107">
        <ele>5.6</ele>
        <time>2024-11-10T11:47:23Z</time>
      </trkpt>
      <trkpt lat="42.28872" lon="3.28107">
        <ele>5.6</ele>
        <time>2024-11-10T11:47:24Z</time>
      </trkpt>
      <trkpt lat="42.28872" lon="3.28107">
        <ele>5.6</ele>
        <time>2024-11-10T11:47:25Z</time>
      </trkpt>
      <trkpt lat="42.28872" lon="3.28107">
        <ele>5.6</ele>
        <time>2024-11-10T11:47:26Z</time>
      </trkpt>
      <trkpt lat="42.28872" lon="3.28107">
        <ele>5.6</ele>
        <time>2024-11-10T11:47:27Z</time>
      </trkpt>
      <trkpt lat="42.28872" lon="3.28107">
        <ele>5.6</ele>
        <time>2024-11-10T11:47:28Z</time>
      </trkpt>
      <trkpt lat="42.28872" lon="3.28107">
        <ele>5.6</ele>
        <time>2024-11-10T11:47:29Z</time>
      </trkpt>
      <trkpt lat="42.28872" lon="3.28107">
        <ele>5.6</ele>
        <time>2024-11-10T11:47:30Z</time>
      </trkpt>
      <trkpt lat="42.28872" lon="3.28107">
        <ele>5.6</ele>
        <time>2024-11-10T11:47:31Z</time>
      </trkpt>
      <trkpt lat="42.28872" lon="3.28107">
        <ele>5.6</ele>
        <time>2024-11-10T11:47:32Z</time>
      </trkpt>
      <trkpt lat="42.28872" lon="3.28107">
        <ele>5.6</ele>
        <time>2024-11-10T11:47:33Z</time>
      </trkpt>
      <trkpt lat="42.28872" lon="3.28107">
        <ele>5.6</ele>
        <time>2024-11-10T11:47:34Z</time>
      </trkpt>
      <trkpt lat="42.28872" lon="3.28107">
        <ele>5.6</ele>
        <time>2024-11-10T11:47:35Z</time>
      </trkpt>
      <trkpt lat="42.28872" lon="3.28107">
        <ele>5.6</ele>
        <time>2024-11-10T11:47:36Z</time>
      </trkpt>
      <trkpt lat="42.28872" lon="3.28107">
        <ele>5.6</ele>
        <time>2024-11-10T11:47:37Z</time>
      </trkpt>
      <trkpt lat="42.28872" lon="3.28107">
        <ele>5.6</ele>
        <time>2024-11-10T11:47:38Z</time>
      </trkpt>
      <trkpt lat="42.28872" lon="3.28107">
        <ele>5.6</ele>
        <time>2024-11-10T11:47:39Z</time>
      </trkpt>
      <trkpt lat="42.28872" lon="3.28107">
        <ele>5.6</ele>
        <time>2024-11-10T11:47:40Z</time>
      </trkpt>
      <trkpt lat="42.28872" lon="3.28107">
        <ele>5.6</ele>
        <time>2024-11-10T11:47:41Z</time>
      </trkpt>
      <trkpt lat="42.28872" lon="3.28107">
        <ele>5.6</ele>
        <time>2024-11-10T11:47:42Z</time>
      </trkpt>
      <trkpt lat="42.28872" lon="3.28107">
        <ele>5.6</ele>
        <time>2024-11-10T11:47:43Z</time>
      </trkpt>
      <trkpt lat="42.28872" lon="3.28107">
        <ele>5.6</ele>
        <time>2024-11-10T11:47:44Z</time>
      </trkpt>
      <trkpt lat="42.28872" lon="3.28107">
        <ele>5.6</ele>
        <time>2024-11-10T11:47:45Z</time>
      </trkpt>
      <trkpt lat="42.28872" lon="3.28107">
        <ele>5.6</ele>
        <time>2024-11-10T11:47:46Z</time>
      </trkpt>
      <trkpt lat="42.28872" lon="3.28107">
        <ele>5.6</ele>
        <time>2024-11-10T11:47:47Z</time>
      </trkpt>
      <trkpt lat="42.28872" lon="3.28107">
        <ele>5.6</ele>
        <time>2024-11-10T11:47:48Z</time>
      </trkpt>
      <trkpt lat="42.28872" lon="3.28107">
        <ele>5.6</ele>
        <time>2024-11-10T11:47:49Z</time>
      </trkpt>
      <trkpt lat="42.28872" lon="3.28107">
        <ele>5.6</ele>
        <time>2024-11-10T11:47:50Z</time>
      </trkpt>
      <trkpt lat="42.28872" lon="3.28107">
        <ele>5.6</ele>
        <time>2024-11-10T11:47:51Z</time>
      </trkpt>
      <trkpt lat="42.28873" lon="3.28106">
        <ele>5.6</ele>
        <time>2024-11-10T11:47:52Z</time>
      </trkpt>
      <trkpt lat="42.28873" lon="3.28105">
        <ele>5.6</ele>
        <time>2024-11-10T11:47:53Z</time>
      </trkpt>
      <trkpt lat="42.28872" lon="3.28106">
        <ele>5.6</ele>
        <time>2024-11-10T11:47:54Z</time>
      </trkpt>
      <trkpt lat="42.28872" lon="3.28106">
        <ele>5.6</ele>
        <time>2024-11-10T11:47:55Z</time>
      </trkpt>
      <trkpt lat="42.28872" lon="3.28106">
        <ele>5.6</ele>
        <time>2024-11-10T11:47:56Z</time>
      </trkpt>
      <trkpt lat="42.28872" lon="3.28106">
        <ele>5.6</ele>
        <time>2024-11-10T11:47:57Z</time>
      </trkpt>
      <trkpt lat="42.28872" lon="3.28106">
        <ele>5.6</ele>
        <time>2024-11-10T11:47:58Z</time>
      </trkpt>
      <trkpt lat="42.28872" lon="3.28106">
        <ele>5.6</ele>
        <time>2024-11-10T11:47:59Z</time>
      </trkpt>
      <trkpt lat="42.28872" lon="3.28106">
        <ele>5.6</ele>
        <time>2024-11-10T11:48:00Z</time>
      </trkpt>
      <trkpt lat="42.28872" lon="3.28106">
        <ele>5.6</ele>
        <time>2024-11-10T11:48:01Z</time>
      </trkpt>
      <trkpt lat="42.28872" lon="3.28106">
        <ele>5.6</ele>
        <time>2024-11-10T11:48:02Z</time>
      </trkpt>
      <trkpt lat="42.28872" lon="3.28106">
        <ele>5.6</ele>
        <time>2024-11-10T11:48:03Z</time>
      </trkpt>
      <trkpt lat="42.28872" lon="3.28106">
        <ele>5.6</ele>
        <time>2024-11-10T11:48:04Z</time>
      </trkpt>
      <trkpt lat="42.28872" lon="3.28106">
        <ele>5.6</ele>
        <time>2024-11-10T11:48:05Z</time>
      </trkpt>
      <trkpt lat="42.28872" lon="3.28106">
        <ele>5.6</ele>
        <time>2024-11-10T11:48:06Z</time>
      </trkpt>
      <trkpt lat="42.28872" lon="3.28106">
        <ele>5.6</ele>
        <time>2024-11-10T11:48:07Z</time>
      </trkpt>
      <trkpt lat="42.28872" lon="3.28106">
        <ele>5.6</ele>
        <time>2024-11-10T11:48:08Z</time>
      </trkpt>
      <trkpt lat="42.28872" lon="3.28106">
        <ele>5.6</ele>
        <time>2024-11-10T11:48:09Z</time>
      </trkpt>
      <trkpt lat="42.28872" lon="3.28106">
        <ele>5.6</ele>
        <time>2024-11-10T11:48:11Z</time>
      </trkpt>
      <trkpt lat="42.28872" lon="3.28106">
        <ele>5.6</ele>
        <time>2024-11-10T11:48:12Z</time>
      </trkpt>
      <trkpt lat="42.28872" lon="3.28106">
        <ele>5.6</ele>
        <time>2024-11-10T11:48:13Z</time>
      </trkpt>
      <trkpt lat="42.28872" lon="3.28106">
        <ele>5.6</ele>
        <time>2024-11-10T11:48:15Z</time>
      </trkpt>
      <trkpt lat="42.28872" lon="3.28106">
        <ele>5.6</ele>
        <time>2024-11-10T11:48:16Z</time>
      </trkpt>
      <trkpt lat="42.28872" lon="3.28106">
        <ele>5.6</ele>
        <time>2024-11-10T11:48:17Z</time>
      </trkpt>
      <trkpt lat="42.28872" lon="3.28106">
        <ele>5.6</ele>
        <time>2024-11-10T11:48:18Z</time>
      </trkpt>
      <trkpt lat="42.28872" lon="3.28106">
        <ele>5.6</ele>
        <time>2024-11-10T11:48:19Z</time>
      </trkpt>
      <trkpt lat="42.28872" lon="3.28106">
        <ele>5.6</ele>
        <time>2024-11-10T11:48:20Z</time>
      </trkpt>
      <trkpt lat="42.28872" lon="3.28106">
        <ele>5.6</ele>
        <time>2024-11-10T11:48:21Z</time>
      </trkpt>
      <trkpt lat="42.28872" lon="3.28106">
        <ele>5.6</ele>
        <time>2024-11-10T11:48:22Z</time>
      </trkpt>
      <trkpt lat="42.28872" lon="3.28106">
        <ele>5.6</ele>
        <time>2024-11-10T11:48:23Z</time>
      </trkpt>
      <trkpt lat="42.28872" lon="3.28106">
        <ele>5.6</ele>
        <time>2024-11-10T11:48:24Z</time>
      </trkpt>
      <trkpt lat="42.28872" lon="3.28106">
        <ele>5.6</ele>
        <time>2024-11-10T11:48:25Z</time>
      </trkpt>
      <trkpt lat="42.28872" lon="3.28106">
        <ele>5.6</ele>
        <time>2024-11-10T11:48:26Z</time>
      </trkpt>
      <trkpt lat="42.28872" lon="3.28106">
        <ele>5.6</ele>
        <time>2024-11-10T11:48:27Z</time>
      </trkpt>
      <trkpt lat="42.28872" lon="3.28106">
        <ele>5.6</ele>
        <time>2024-11-10T11:48:28Z</time>
      </trkpt>
      <trkpt lat="42.28872" lon="3.28106">
        <ele>5.6</ele>
        <time>2024-11-10T11:48:29Z</time>
      </trkpt>
      <trkpt lat="42.28872" lon="3.28106">
        <ele>5.6</ele>
        <time>2024-11-10T11:48:30Z</time>
      </trkpt>
      <trkpt lat="42.28872" lon="3.28106">
        <ele>5.6</ele>
        <time>2024-11-10T11:48:31Z</time>
      </trkpt>
      <trkpt lat="42.28872" lon="3.28106">
        <ele>5.6</ele>
        <time>2024-11-10T11:48:32Z</time>
      </trkpt>
      <trkpt lat="42.28872" lon="3.28106">
        <ele>5.6</ele>
        <time>2024-11-10T11:48:33Z</time>
      </trkpt>
      <trkpt lat="42.28872" lon="3.28106">
        <ele>5.6</ele>
        <time>2024-11-10T11:48:34Z</time>
      </trkpt>
      <trkpt lat="42.28872" lon="3.28106">
        <ele>5.6</ele>
        <time>2024-11-10T11:48:35Z</time>
      </trkpt>
      <trkpt lat="42.28872" lon="3.28106">
        <ele>5.6</ele>
        <time>2024-11-10T11:48:36Z</time>
      </trkpt>
      <trkpt lat="42.28872" lon="3.28106">
        <ele>5.6</ele>
        <time>2024-11-10T11:48:37Z</time>
      </trkpt>
      <trkpt lat="42.28872" lon="3.28106">
        <ele>5.6</ele>
        <time>2024-11-10T11:48:38Z</time>
      </trkpt>
      <trkpt lat="42.28872" lon="3.28106">
        <ele>5.6</ele>
        <time>2024-11-10T11:48:39Z</time>
      </trkpt>
      <trkpt lat="42.28872" lon="3.28106">
        <ele>5.6</ele>
        <time>2024-11-10T11:48:40Z</time>
      </trkpt>
      <trkpt lat="42.28872" lon="3.28106">
        <ele>5.6</ele>
        <time>2024-11-10T11:48:41Z</time>
      </trkpt>
      <trkpt lat="42.28872" lon="3.28106">
        <ele>5.6</ele>
        <time>2024-11-10T11:48:42Z</time>
      </trkpt>
      <trkpt lat="42.28872" lon="3.28106">
        <ele>5.6</ele>
        <time>2024-11-10T11:48:43Z</time>
      </trkpt>
      <trkpt lat="42.28872" lon="3.28106">
        <ele>5.6</ele>
        <time>2024-11-10T11:48:44Z</time>
      </trkpt>
      <trkpt lat="42.28872" lon="3.28106">
        <ele>5.6</ele>
        <time>2024-11-10T11:48:45Z</time>
      </trkpt>
      <trkpt lat="42.28872" lon="3.28106">
        <ele>5.6</ele>
        <time>2024-11-10T11:48:46Z</time>
      </trkpt>
      <trkpt lat="42.28872" lon="3.28106">
        <ele>5.6</ele>
        <time>2024-11-10T11:48:47Z</time>
      </trkpt>
      <trkpt lat="42.28872" lon="3.28106">
        <ele>5.6</ele>
        <time>2024-11-10T11:48:48Z</time>
      </trkpt>
      <trkpt lat="42.28872" lon="3.28106">
        <ele>5.6</ele>
        <time>2024-11-10T11:48:49Z</time>
      </trkpt>
      <trkpt lat="42.28872" lon="3.28106">
        <ele>5.6</ele>
        <time>2024-11-10T11:48:50Z</time>
      </trkpt>
      <trkpt lat="42.28872" lon="3.28106">
        <ele>5.6</ele>
        <time>2024-11-10T11:48:51Z</time>
      </trkpt>
      <trkpt lat="42.28872" lon="3.28106">
        <ele>5.6</ele>
        <time>2024-11-10T11:48:52Z</time>
      </trkpt>
      <trkpt lat="42.28872" lon="3.28106">
        <ele>5.6</ele>
        <time>2024-11-10T11:48:53Z</time>
      </trkpt>
      <trkpt lat="42.28872" lon="3.28106">
        <ele>5.6</ele>
        <time>2024-11-10T11:48:54Z</time>
      </trkpt>
      <trkpt lat="42.28872" lon="3.28106">
        <ele>5.6</ele>
        <time>2024-11-10T11:48:55Z</time>
      </trkpt>
      <trkpt lat="42.28872" lon="3.28106">
        <ele>5.6</ele>
        <time>2024-11-10T11:48:56Z</time>
      </trkpt>
      <trkpt lat="42.28872" lon="3.28106">
        <ele>5.6</ele>
        <time>2024-11-10T11:48:57Z</time>
      </trkpt>
      <trkpt lat="42.28872" lon="3.28106">
        <ele>5.6</ele>
        <time>2024-11-10T11:48:58Z</time>
      </trkpt>
      <trkpt lat="42.28872" lon="3.28106">
        <ele>5.6</ele>
        <time>2024-11-10T11:48:59Z</time>
      </trkpt>
      <trkpt lat="42.28872" lon="3.28106">
        <ele>5.6</ele>
        <time>2024-11-10T11:49:00Z</time>
      </trkpt>
      <trkpt lat="42.28872" lon="3.28106">
        <ele>5.6</ele>
        <time>2024-11-10T11:49:01Z</time>
      </trkpt>
      <trkpt lat="42.28872" lon="3.28106">
        <ele>5.6</ele>
        <time>2024-11-10T11:49:02Z</time>
      </trkpt>
      <trkpt lat="42.28872" lon="3.28106">
        <ele>5.6</ele>
        <time>2024-11-10T11:49:03Z</time>
      </trkpt>
      <trkpt lat="42.28872" lon="3.28106">
        <ele>5.6</ele>
        <time>2024-11-10T11:49:04Z</time>
      </trkpt>
      <trkpt lat="42.28872" lon="3.28106">
        <ele>5.6</ele>
        <time>2024-11-10T11:49:05Z</time>
      </trkpt>
      <trkpt lat="42.28872" lon="3.28106">
        <ele>5.6</ele>
        <time>2024-11-10T11:49:06Z</time>
      </trkpt>
      <trkpt lat="42.28872" lon="3.28106">
        <ele>5.6</ele>
        <time>2024-11-10T11:49:07Z</time>
      </trkpt>
      <trkpt lat="42.28872" lon="3.28106">
        <ele>5.6</ele>
        <time>2024-11-10T11:49:08Z</time>
      </trkpt>
      <trkpt lat="42.28872" lon="3.28106">
        <ele>5.6</ele>
        <time>2024-11-10T11:49:09Z</time>
      </trkpt>
      <trkpt lat="42.28872" lon="3.28106">
        <ele>5.6</ele>
        <time>2024-11-10T11:49:10Z</time>
      </trkpt>
      <trkpt lat="42.28872" lon="3.28106">
        <ele>5.6</ele>
        <time>2024-11-10T11:49:11Z</time>
      </trkpt>
      <trkpt lat="42.28872" lon="3.28106">
        <ele>5.6</ele>
        <time>2024-11-10T11:49:12Z</time>
      </trkpt>
      <trkpt lat="42.28872" lon="3.28106">
        <ele>5.6</ele>
        <time>2024-11-10T11:49:13Z</time>
      </trkpt>
      <trkpt lat="42.28872" lon="3.28106">
        <ele>5.6</ele>
        <time>2024-11-10T11:49:14Z</time>
      </trkpt>
      <trkpt lat="42.28872" lon="3.28106">
        <ele>5.6</ele>
        <time>2024-11-10T11:49:15Z</time>
      </trkpt>
      <trkpt lat="42.28872" lon="3.28106">
        <ele>5.6</ele>
        <time>2024-11-10T11:49:16Z</time>
      </trkpt>
      <trkpt lat="42.28872" lon="3.28106">
        <ele>5.6</ele>
        <time>2024-11-10T11:49:17Z</time>
      </trkpt>
      <trkpt lat="42.28872" lon="3.28106">
        <ele>5.6</ele>
        <time>2024-11-10T11:49:18Z</time>
      </trkpt>
      <trkpt lat="42.28872" lon="3.28106">
        <ele>5.6</ele>
        <time>2024-11-10T11:49:19Z</time>
      </trkpt>
      <trkpt lat="42.28872" lon="3.28106">
        <ele>5.6</ele>
        <time>2024-11-10T11:49:20Z</time>
      </trkpt>
      <trkpt lat="42.28872" lon="3.28106">
        <ele>5.6</ele>
        <time>2024-11-10T11:49:21Z</time>
      </trkpt>
      <trkpt lat="42.28872" lon="3.28106">
        <ele>5.6</ele>
        <time>2024-11-10T11:49:22Z</time>
      </trkpt>
      <trkpt lat="42.28872" lon="3.28106">
        <ele>5.6</ele>
        <time>2024-11-10T11:49:23Z</time>
      </trkpt>
      <trkpt lat="42.28872" lon="3.28106">
        <ele>5.6</ele>
        <time>2024-11-10T11:49:24Z</time>
      </trkpt>
      <trkpt lat="42.28872" lon="3.28106">
        <ele>5.6</ele>
        <time>2024-11-10T11:49:25Z</time>
      </trkpt>
      <trkpt lat="42.28872" lon="3.28106">
        <ele>5.6</ele>
        <time>2024-11-10T11:49:26Z</time>
      </trkpt>
      <trkpt lat="42.28872" lon="3.28106">
        <ele>5.6</ele>
        <time>2024-11-10T11:49:27Z</time>
      </trkpt>
      <trkpt lat="42.28872" lon="3.28106">
        <ele>5.6</ele>
        <time>2024-11-10T11:49:28Z</time>
      </trkpt>
      <trkpt lat="42.28872" lon="3.28106">
        <ele>5.6</ele>
        <time>2024-11-10T11:49:29Z</time>
      </trkpt>
      <trkpt lat="42.28872" lon="3.28106">
        <ele>5.6</ele>
        <time>2024-11-10T11:49:30Z</time>
      </trkpt>
      <trkpt lat="42.28872" lon="3.28106">
        <ele>5.6</ele>
        <time>2024-11-10T11:49:31Z</time>
      </trkpt>
      <trkpt lat="42.28872" lon="3.28106">
        <ele>5.6</ele>
        <time>2024-11-10T11:49:32Z</time>
      </trkpt>
      <trkpt lat="42.28872" lon="3.28106">
        <ele>5.6</ele>
        <time>2024-11-10T11:49:33Z</time>
      </trkpt>
      <trkpt lat="42.28872" lon="3.28106">
        <ele>5.6</ele>
        <time>2024-11-10T11:49:34Z</time>
      </trkpt>
      <trkpt lat="42.28872" lon="3.28106">
        <ele>5.6</ele>
        <time>2024-11-10T11:49:35Z</time>
      </trkpt>
      <trkpt lat="42.28872" lon="3.28106">
        <ele>5.6</ele>
        <time>2024-11-10T11:49:36Z</time>
      </trkpt>
      <trkpt lat="42.28872" lon="3.28106">
        <ele>5.6</ele>
        <time>2024-11-10T11:49:37Z</time>
      </trkpt>
      <trkpt lat="42.28872" lon="3.28106">
        <ele>5.6</ele>
        <time>2024-11-10T11:49:38Z</time>
      </trkpt>
      <trkpt lat="42.28872" lon="3.28106">
        <ele>5.6</ele>
        <time>2024-11-10T11:49:39Z</time>
      </trkpt>
      <trkpt lat="42.28872" lon="3.28106">
        <ele>5.6</ele>
        <time>2024-11-10T11:49:40Z</time>
      </trkpt>
      <trkpt lat="42.28872" lon="3.28106">
        <ele>5.6</ele>
        <time>2024-11-10T11:49:41Z</time>
      </trkpt>
      <trkpt lat="42.28872" lon="3.28106">
        <ele>5.6</ele>
        <time>2024-11-10T11:49:42Z</time>
      </trkpt>
      <trkpt lat="42.28872" lon="3.28106">
        <ele>5.6</ele>
        <time>2024-11-10T11:49:43Z</time>
      </trkpt>
      <trkpt lat="42.28872" lon="3.28106">
        <ele>5.6</ele>
        <time>2024-11-10T11:49:44Z</time>
      </trkpt>
      <trkpt lat="42.28872" lon="3.28106">
        <ele>5.6</ele>
        <time>2024-11-10T11:49:45Z</time>
      </trkpt>
      <trkpt lat="42.28872" lon="3.28106">
        <ele>5.6</ele>
        <time>2024-11-10T11:49:46Z</time>
      </trkpt>
      <trkpt lat="42.28872" lon="3.28106">
        <ele>5.6</ele>
        <time>2024-11-10T11:49:47Z</time>
      </trkpt>
      <trkpt lat="42.28872" lon="3.28106">
        <ele>5.6</ele>
        <time>2024-11-10T11:49:48Z</time>
      </trkpt>
      <trkpt lat="42.28872" lon="3.28106">
        <ele>5.6</ele>
        <time>2024-11-10T11:49:49Z</time>
      </trkpt>
      <trkpt lat="42.28872" lon="3.28106">
        <ele>5.6</ele>
        <time>2024-11-10T11:49:50Z</time>
      </trkpt>
      <trkpt lat="42.28872" lon="3.28106">
        <ele>5.6</ele>
        <time>2024-11-10T11:49:51Z</time>
      </trkpt>
      <trkpt lat="42.28872" lon="3.28106">
        <ele>5.6</ele>
        <time>2024-11-10T11:49:52Z</time>
      </trkpt>
      <trkpt lat="42.28872" lon="3.28106">
        <ele>5.6</ele>
        <time>2024-11-10T11:49:53Z</time>
      </trkpt>
      <trkpt lat="42.28872" lon="3.28106">
        <ele>5.6</ele>
        <time>2024-11-10T11:49:54Z</time>
      </trkpt>
      <trkpt lat="42.28872" lon="3.28106">
        <ele>5.6</ele>
        <time>2024-11-10T11:49:55Z</time>
      </trkpt>
      <trkpt lat="42.28872" lon="3.28106">
        <ele>5.6</ele>
        <time>2024-11-10T11:49:56Z</time>
      </trkpt>
      <trkpt lat="42.28872" lon="3.28106">
        <ele>5.6</ele>
        <time>2024-11-10T11:49:57Z</time>
      </trkpt>
      <trkpt lat="42.28872" lon="3.28106">
        <ele>5.6</ele>
        <time>2024-11-10T11:49:58Z</time>
      </trkpt>
      <trkpt lat="42.28872" lon="3.28106">
        <ele>5.6</ele>
        <time>2024-11-10T11:49:59Z</time>
      </trkpt>
      <trkpt lat="42.28872" lon="3.28106">
        <ele>5.6</ele>
        <time>2024-11-10T11:50:00Z</time>
      </trkpt>
      <trkpt lat="42.28872" lon="3.28106">
        <ele>5.6</ele>
        <time>2024-11-10T11:50:01Z</time>
      </trkpt>
      <trkpt lat="42.28872" lon="3.28106">
        <ele>5.6</ele>
        <time>2024-11-10T11:50:02Z</time>
      </trkpt>
      <trkpt lat="42.28872" lon="3.28106">
        <ele>5.6</ele>
        <time>2024-11-10T11:50:03Z</time>
      </trkpt>
      <trkpt lat="42.28872" lon="3.28106">
        <ele>5.6</ele>
        <time>2024-11-10T11:50:04Z</time>
      </trkpt>
      <trkpt lat="42.28872" lon="3.28106">
        <ele>5.6</ele>
        <time>2024-11-10T11:50:05Z</time>
      </trkpt>
      <trkpt lat="42.28872" lon="3.28106">
        <ele>5.6</ele>
        <time>2024-11-10T11:50:06Z</time>
      </trkpt>
      <trkpt lat="42.28872" lon="3.28106">
        <ele>5.6</ele>
        <time>2024-11-10T11:50:07Z</time>
      </trkpt>
      <trkpt lat="42.28872" lon="3.28106">
        <ele>5.6</ele>
        <time>2024-11-10T11:50:08Z</time>
      </trkpt>
      <trkpt lat="42.28872" lon="3.28106">
        <ele>5.6</ele>
        <time>2024-11-10T11:50:09Z</time>
      </trkpt>
      <trkpt lat="42.28872" lon="3.28106">
        <ele>5.6</ele>
        <time>2024-11-10T11:50:10Z</time>
      </trkpt>
      <trkpt lat="42.28872" lon="3.28106">
        <ele>5.6</ele>
        <time>2024-11-10T11:50:11Z</time>
      </trkpt>
      <trkpt lat="42.28872" lon="3.28106">
        <ele>5.6</ele>
        <time>2024-11-10T11:50:12Z</time>
      </trkpt>
      <trkpt lat="42.28872" lon="3.28106">
        <ele>5.6</ele>
        <time>2024-11-10T11:50:13Z</time>
      </trkpt>
      <trkpt lat="42.28872" lon="3.28106">
        <ele>5.6</ele>
        <time>2024-11-10T11:50:14Z</time>
      </trkpt>
      <trkpt lat="42.28872" lon="3.28106">
        <ele>5.6</ele>
        <time>2024-11-10T11:50:15Z</time>
      </trkpt>
      <trkpt lat="42.28872" lon="3.28106">
        <ele>5.6</ele>
        <time>2024-11-10T11:50:16Z</time>
      </trkpt>
      <trkpt lat="42.28872" lon="3.28106">
        <ele>5.6</ele>
        <time>2024-11-10T11:50:17Z</time>
      </trkpt>
      <trkpt lat="42.28872" lon="3.28106">
        <ele>5.6</ele>
        <time>2024-11-10T11:50:18Z</time>
      </trkpt>
      <trkpt lat="42.28872" lon="3.28106">
        <ele>5.6</ele>
        <time>2024-11-10T11:50:19Z</time>
      </trkpt>
      <trkpt lat="42.28872" lon="3.28106">
        <ele>5.6</ele>
        <time>2024-11-10T11:50:20Z</time>
      </trkpt>
      <trkpt lat="42.28872" lon="3.28106">
        <ele>5.6</ele>
        <time>2024-11-10T11:50:21Z</time>
      </trkpt>
      <trkpt lat="42.28872" lon="3.28106">
        <ele>5.6</ele>
        <time>2024-11-10T11:50:22Z</time>
      </trkpt>
      <trkpt lat="42.28872" lon="3.28106">
        <ele>5.6</ele>
        <time>2024-11-10T11:50:23Z</time>
      </trkpt>
      <trkpt lat="42.28872" lon="3.28106">
        <ele>5.6</ele>
        <time>2024-11-10T11:50:24Z</time>
      </trkpt>
      <trkpt lat="42.28872" lon="3.28106">
        <ele>5.6</ele>
        <time>2024-11-10T11:50:25Z</time>
      </trkpt>
      <trkpt lat="42.28872" lon="3.28106">
        <ele>5.6</ele>
        <time>2024-11-10T11:50:26Z</time>
      </trkpt>
      <trkpt lat="42.28872" lon="3.28106">
        <ele>5.6</ele>
        <time>2024-11-10T11:50:27Z</time>
      </trkpt>
      <trkpt lat="42.28872" lon="3.28106">
        <ele>5.6</ele>
        <time>2024-11-10T11:50:28Z</time>
      </trkpt>
      <trkpt lat="42.28872" lon="3.28106">
        <ele>5.6</ele>
        <time>2024-11-10T11:50:29Z</time>
      </trkpt>
      <trkpt lat="42.28872" lon="3.28106">
        <ele>5.6</ele>
        <time>2024-11-10T11:50:30Z</time>
      </trkpt>
      <trkpt lat="42.28872" lon="3.28106">
        <ele>5.6</ele>
        <time>2024-11-10T11:50:31Z</time>
      </trkpt>
      <trkpt lat="42.28872" lon="3.28106">
        <ele>5.6</ele>
        <time>2024-11-10T11:50:32Z</time>
      </trkpt>
      <trkpt lat="42.28872" lon="3.28106">
        <ele>5.6</ele>
        <time>2024-11-10T11:50:33Z</time>
      </trkpt>
      <trkpt lat="42.28872" lon="3.28106">
        <ele>5.6</ele>
        <time>2024-11-10T11:50:34Z</time>
      </trkpt>
      <trkpt lat="42.28872" lon="3.28106">
        <ele>5.6</ele>
        <time>2024-11-10T11:50:35Z</time>
      </trkpt>
      <trkpt lat="42.28872" lon="3.28106">
        <ele>5.6</ele>
        <time>2024-11-10T11:50:36Z</time>
      </trkpt>
      <trkpt lat="42.28872" lon="3.28106">
        <ele>5.6</ele>
        <time>2024-11-10T11:50:37Z</time>
      </trkpt>
      <trkpt lat="42.28872" lon="3.28106">
        <ele>5.6</ele>
        <time>2024-11-10T11:50:38Z</time>
      </trkpt>
      <trkpt lat="42.28872" lon="3.28106">
        <ele>5.6</ele>
        <time>2024-11-10T11:50:39Z</time>
      </trkpt>
      <trkpt lat="42.28872" lon="3.28106">
        <ele>5.6</ele>
        <time>2024-11-10T11:50:40Z</time>
      </trkpt>
      <trkpt lat="42.28872" lon="3.28106">
        <ele>5.6</ele>
        <time>2024-11-10T11:50:41Z</time>
      </trkpt>
      <trkpt lat="42.28872" lon="3.28106">
        <ele>5.6</ele>
        <time>2024-11-10T11:50:42Z</time>
      </trkpt>
      <trkpt lat="42.28872" lon="3.28106">
        <ele>5.6</ele>
        <time>2024-11-10T11:50:43Z</time>
      </trkpt>
      <trkpt lat="42.28872" lon="3.28106">
        <ele>5.6</ele>
        <time>2024-11-10T11:50:44Z</time>
      </trkpt>
      <trkpt lat="42.28872" lon="3.28106">
        <ele>5.6</ele>
        <time>2024-11-10T11:50:45Z</time>
      </trkpt>
      <trkpt lat="42.28872" lon="3.28106">
        <ele>5.6</ele>
        <time>2024-11-10T11:50:46Z</time>
      </trkpt>
      <trkpt lat="42.28872" lon="3.28106">
        <ele>5.6</ele>
        <time>2024-11-10T11:50:47Z</time>
      </trkpt>
      <trkpt lat="42.28872" lon="3.28106">
        <ele>5.6</ele>
        <time>2024-11-10T11:50:48Z</time>
      </trkpt>
      <trkpt lat="42.28872" lon="3.28106">
        <ele>5.6</ele>
        <time>2024-11-10T11:50:49Z</time>
      </trkpt>
      <trkpt lat="42.28872" lon="3.28106">
        <ele>5.6</ele>
        <time>2024-11-10T11:50:50Z</time>
      </trkpt>
      <trkpt lat="42.28872" lon="3.28106">
        <ele>5.6</ele>
        <time>2024-11-10T11:50:51Z</time>
      </trkpt>
      <trkpt lat="42.28872" lon="3.28106">
        <ele>5.6</ele>
        <time>2024-11-10T11:50:52Z</time>
      </trkpt>
      <trkpt lat="42.28872" lon="3.28106">
        <ele>5.6</ele>
        <time>2024-11-10T11:50:53Z</time>
      </trkpt>
      <trkpt lat="42.28872" lon="3.28106">
        <ele>5.6</ele>
        <time>2024-11-10T11:50:54Z</time>
      </trkpt>
      <trkpt lat="42.28872" lon="3.28106">
        <ele>5.6</ele>
        <time>2024-11-10T11:50:55Z</time>
      </trkpt>
      <trkpt lat="42.28872" lon="3.28106">
        <ele>5.6</ele>
        <time>2024-11-10T11:50:56Z</time>
      </trkpt>
      <trkpt lat="42.28872" lon="3.28106">
        <ele>5.6</ele>
        <time>2024-11-10T11:50:57Z</time>
      </trkpt>
      <trkpt lat="42.28872" lon="3.28106">
        <ele>5.6</ele>
        <time>2024-11-10T11:50:58Z</time>
      </trkpt>
      <trkpt lat="42.28872" lon="3.28106">
        <ele>5.6</ele>
        <time>2024-11-10T11:50:59Z</time>
      </trkpt>
      <trkpt lat="42.28872" lon="3.28106">
        <ele>5.6</ele>
        <time>2024-11-10T11:51:00Z</time>
      </trkpt>
      <trkpt lat="42.28872" lon="3.28106">
        <ele>5.6</ele>
        <time>2024-11-10T11:51:01Z</time>
      </trkpt>
      <trkpt lat="42.28872" lon="3.28106">
        <ele>5.6</ele>
        <time>2024-11-10T11:51:02Z</time>
      </trkpt>
      <trkpt lat="42.28872" lon="3.28106">
        <ele>5.6</ele>
        <time>2024-11-10T11:51:03Z</time>
      </trkpt>
      <trkpt lat="42.28872" lon="3.28106">
        <ele>5.6</ele>
        <time>2024-11-10T11:51:04Z</time>
      </trkpt>
      <trkpt lat="42.28872" lon="3.28106">
        <ele>5.6</ele>
        <time>2024-11-10T11:51:05Z</time>
      </trkpt>
      <trkpt lat="42.28872" lon="3.28106">
        <ele>5.6</ele>
        <time>2024-11-10T11:51:06Z</time>
      </trkpt>
      <trkpt lat="42.28872" lon="3.28106">
        <ele>5.6</ele>
        <time>2024-11-10T11:51:07Z</time>
      </trkpt>
      <trkpt lat="42.28872" lon="3.28106">
        <ele>5.6</ele>
        <time>2024-11-10T11:51:08Z</time>
      </trkpt>
      <trkpt lat="42.28872" lon="3.28106">
        <ele>5.6</ele>
        <time>2024-11-10T11:51:09Z</time>
      </trkpt>
      <trkpt lat="42.28872" lon="3.28106">
        <ele>5.6</ele>
        <time>2024-11-10T11:51:10Z</time>
      </trkpt>
      <trkpt lat="42.28872" lon="3.28106">
        <ele>5.6</ele>
        <time>2024-11-10T11:51:11Z</time>
      </trkpt>
      <trkpt lat="42.28872" lon="3.28106">
        <ele>5.6</ele>
        <time>2024-11-10T11:51:12Z</time>
      </trkpt>
      <trkpt lat="42.28872" lon="3.28106">
        <ele>5.6</ele>
        <time>2024-11-10T11:51:13Z</time>
      </trkpt>
      <trkpt lat="42.28872" lon="3.28106">
        <ele>5.6</ele>
        <time>2024-11-10T11:51:14Z</time>
      </trkpt>
      <trkpt lat="42.28872" lon="3.28106">
        <ele>5.6</ele>
        <time>2024-11-10T11:51:15Z</time>
      </trkpt>
      <trkpt lat="42.28872" lon="3.28106">
        <ele>5.6</ele>
        <time>2024-11-10T11:51:16Z</time>
      </trkpt>
      <trkpt lat="42.28872" lon="3.28106">
        <ele>5.6</ele>
        <time>2024-11-10T11:51:17Z</time>
      </trkpt>
      <trkpt lat="42.28872" lon="3.28106">
        <ele>5.6</ele>
        <time>2024-11-10T11:51:18Z</time>
      </trkpt>
      <trkpt lat="42.28872" lon="3.28106">
        <ele>5.6</ele>
        <time>2024-11-10T11:51:19Z</time>
      </trkpt>
      <trkpt lat="42.28872" lon="3.28106">
        <ele>5.6</ele>
        <time>2024-11-10T11:51:20Z</time>
      </trkpt>
      <trkpt lat="42.28872" lon="3.28106">
        <ele>5.6</ele>
        <time>2024-11-10T11:51:21Z</time>
      </trkpt>
      <trkpt lat="42.28872" lon="3.28106">
        <ele>5.6</ele>
        <time>2024-11-10T11:51:22Z</time>
      </trkpt>
      <trkpt lat="42.28872" lon="3.28106">
        <ele>5.6</ele>
        <time>2024-11-10T11:51:23Z</time>
      </trkpt>
      <trkpt lat="42.28872" lon="3.28106">
        <ele>5.6</ele>
        <time>2024-11-10T11:51:24Z</time>
      </trkpt>
      <trkpt lat="42.28872" lon="3.28106">
        <ele>5.6</ele>
        <time>2024-11-10T11:51:25Z</time>
      </trkpt>
      <trkpt lat="42.28872" lon="3.28106">
        <ele>5.6</ele>
        <time>2024-11-10T11:51:26Z</time>
      </trkpt>
      <trkpt lat="42.28872" lon="3.28106">
        <ele>5.6</ele>
        <time>2024-11-10T11:51:27Z</time>
      </trkpt>
      <trkpt lat="42.28872" lon="3.28106">
        <ele>5.6</ele>
        <time>2024-11-10T11:51:28Z</time>
      </trkpt>
      <trkpt lat="42.28872" lon="3.28106">
        <ele>5.6</ele>
        <time>2024-11-10T11:51:29Z</time>
      </trkpt>
      <trkpt lat="42.28872" lon="3.28106">
        <ele>5.6</ele>
        <time>2024-11-10T11:51:30Z</time>
      </trkpt>
      <trkpt lat="42.28872" lon="3.28106">
        <ele>5.6</ele>
        <time>2024-11-10T11:51:31Z</time>
      </trkpt>
      <trkpt lat="42.28872" lon="3.28106">
        <ele>5.6</ele>
        <time>2024-11-10T11:51:32Z</time>
      </trkpt>
      <trkpt lat="42.28872" lon="3.28106">
        <ele>5.6</ele>
        <time>2024-11-10T11:51:33Z</time>
      </trkpt>
      <trkpt lat="42.28872" lon="3.28106">
        <ele>5.6</ele>
        <time>2024-11-10T11:51:34Z</time>
      </trkpt>
      <trkpt lat="42.28872" lon="3.28106">
        <ele>5.6</ele>
        <time>2024-11-10T11:51:35Z</time>
      </trkpt>
      <trkpt lat="42.28872" lon="3.28106">
        <ele>5.6</ele>
        <time>2024-11-10T11:51:36Z</time>
      </trkpt>
      <trkpt lat="42.28872" lon="3.28106">
        <ele>5.6</ele>
        <time>2024-11-10T11:51:37Z</time>
      </trkpt>
      <trkpt lat="42.28872" lon="3.28106">
        <ele>5.6</ele>
        <time>2024-11-10T11:51:38Z</time>
      </trkpt>
      <trkpt lat="42.28872" lon="3.28106">
        <ele>5.6</ele>
        <time>2024-11-10T11:51:39Z</time>
      </trkpt>
      <trkpt lat="42.28872" lon="3.28106">
        <ele>5.6</ele>
        <time>2024-11-10T11:51:40Z</time>
      </trkpt>
      <trkpt lat="42.28872" lon="3.28106">
        <ele>5.6</ele>
        <time>2024-11-10T11:51:41Z</time>
      </trkpt>
      <trkpt lat="42.28872" lon="3.28106">
        <ele>5.6</ele>
        <time>2024-11-10T11:51:42Z</time>
      </trkpt>
      <trkpt lat="42.28872" lon="3.28106">
        <ele>5.6</ele>
        <time>2024-11-10T11:51:43Z</time>
      </trkpt>
      <trkpt lat="42.28872" lon="3.28106">
        <ele>5.6</ele>
        <time>2024-11-10T11:51:44Z</time>
      </trkpt>
      <trkpt lat="42.28872" lon="3.28106">
        <ele>5.6</ele>
        <time>2024-11-10T11:51:45Z</time>
      </trkpt>
      <trkpt lat="42.28872" lon="3.28106">
        <ele>5.6</ele>
        <time>2024-11-10T11:51:46Z</time>
      </trkpt>
      <trkpt lat="42.28872" lon="3.28106">
        <ele>5.6</ele>
        <time>2024-11-10T11:51:47Z</time>
      </trkpt>
      <trkpt lat="42.28872" lon="3.28106">
        <ele>5.6</ele>
        <time>2024-11-10T11:51:48Z</time>
      </trkpt>
      <trkpt lat="42.28872" lon="3.28106">
        <ele>5.6</ele>
        <time>2024-11-10T11:51:49Z</time>
      </trkpt>
      <trkpt lat="42.28872" lon="3.28106">
        <ele>5.6</ele>
        <time>2024-11-10T11:51:50Z</time>
      </trkpt>
      <trkpt lat="42.28872" lon="3.28106">
        <ele>5.6</ele>
        <time>2024-11-10T11:51:51Z</time>
      </trkpt>
      <trkpt lat="42.28872" lon="3.28106">
        <ele>5.6</ele>
        <time>2024-11-10T11:51:52Z</time>
      </trkpt>
      <trkpt lat="42.28872" lon="3.28106">
        <ele>5.6</ele>
        <time>2024-11-10T11:51:53Z</time>
      </trkpt>
      <trkpt lat="42.28872" lon="3.28106">
        <ele>5.6</ele>
        <time>2024-11-10T11:51:54Z</time>
      </trkpt>
      <trkpt lat="42.28872" lon="3.28106">
        <ele>5.6</ele>
        <time>2024-11-10T11:51:55Z</time>
      </trkpt>
      <trkpt lat="42.28872" lon="3.28106">
        <ele>5.6</ele>
        <time>2024-11-10T11:51:56Z</time>
      </trkpt>
      <trkpt lat="42.28872" lon="3.28106">
        <ele>5.6</ele>
        <time>2024-11-10T11:51:57Z</time>
      </trkpt>
      <trkpt lat="42.28872" lon="3.28106">
        <ele>5.6</ele>
        <time>2024-11-10T11:51:58Z</time>
      </trkpt>
      <trkpt lat="42.28872" lon="3.28106">
        <ele>5.6</ele>
        <time>2024-11-10T11:51:59Z</time>
      </trkpt>
      <trkpt lat="42.28872" lon="3.28106">
        <ele>5.6</ele>
        <time>2024-11-10T11:52:00Z</time>
      </trkpt>
      <trkpt lat="42.28872" lon="3.28106">
        <ele>5.6</ele>
        <time>2024-11-10T11:52:01Z</time>
      </trkpt>
      <trkpt lat="42.28872" lon="3.28106">
        <ele>5.6</ele>
        <time>2024-11-10T11:52:02Z</time>
      </trkpt>
      <trkpt lat="42.28872" lon="3.28106">
        <ele>5.6</ele>
        <time>2024-11-10T11:52:03Z</time>
      </trkpt>
      <trkpt lat="42.28872" lon="3.28106">
        <ele>5.6</ele>
        <time>2024-11-10T11:52:04Z</time>
      </trkpt>
      <trkpt lat="42.28872" lon="3.28106">
        <ele>5.6</ele>
        <time>2024-11-10T11:52:05Z</time>
      </trkpt>
      <trkpt lat="42.28872" lon="3.28106">
        <ele>5.6</ele>
        <time>2024-11-10T11:52:06Z</time>
      </trkpt>
      <trkpt lat="42.28872" lon="3.28106">
        <ele>5.6</ele>
        <time>2024-11-10T11:52:07Z</time>
      </trkpt>
      <trkpt lat="42.28872" lon="3.28106">
        <ele>5.6</ele>
        <time>2024-11-10T11:52:08Z</time>
      </trkpt>
      <trkpt lat="42.28872" lon="3.28106">
        <ele>5.6</ele>
        <time>2024-11-10T11:52:09Z</time>
      </trkpt>
      <trkpt lat="42.28872" lon="3.28106">
        <ele>5.6</ele>
        <time>2024-11-10T11:52:10Z</time>
      </trkpt>
      <trkpt lat="42.28872" lon="3.28106">
        <ele>5.6</ele>
        <time>2024-11-10T11:52:11Z</time>
      </trkpt>
      <trkpt lat="42.28872" lon="3.28106">
        <ele>5.6</ele>
        <time>2024-11-10T11:52:12Z</time>
      </trkpt>
      <trkpt lat="42.28872" lon="3.28106">
        <ele>5.6</ele>
        <time>2024-11-10T11:52:13Z</time>
      </trkpt>
      <trkpt lat="42.28872" lon="3.28106">
        <ele>5.6</ele>
        <time>2024-11-10T11:52:14Z</time>
      </trkpt>
      <trkpt lat="42.28872" lon="3.28106">
        <ele>5.6</ele>
        <time>2024-11-10T11:52:15Z</time>
      </trkpt>
      <trkpt lat="42.28872" lon="3.28106">
        <ele>5.6</ele>
        <time>2024-11-10T11:52:16Z</time>
      </trkpt>
      <trkpt lat="42.28872" lon="3.28106">
        <ele>5.6</ele>
        <time>2024-11-10T11:52:17Z</time>
      </trkpt>
      <trkpt lat="42.28872" lon="3.28106">
        <ele>5.6</ele>
        <time>2024-11-10T11:52:18Z</time>
      </trkpt>
      <trkpt lat="42.28872" lon="3.28106">
        <ele>5.6</ele>
        <time>2024-11-10T11:52:19Z</time>
      </trkpt>
      <trkpt lat="42.28872" lon="3.28106">
        <ele>5.6</ele>
        <time>2024-11-10T11:52:20Z</time>
      </trkpt>
      <trkpt lat="42.28872" lon="3.28106">
        <ele>5.6</ele>
        <time>2024-11-10T11:52:21Z</time>
      </trkpt>
      <trkpt lat="42.28872" lon="3.28106">
        <ele>5.6</ele>
        <time>2024-11-10T11:52:22Z</time>
      </trkpt>
      <trkpt lat="42.28872" lon="3.28106">
        <ele>5.6</ele>
        <time>2024-11-10T11:52:23Z</time>
      </trkpt>
      <trkpt lat="42.28872" lon="3.28106">
        <ele>5.6</ele>
        <time>2024-11-10T11:52:24Z</time>
      </trkpt>
      <trkpt lat="42.28872" lon="3.28106">
        <ele>5.6</ele>
        <time>2024-11-10T11:52:25Z</time>
      </trkpt>
      <trkpt lat="42.28872" lon="3.28106">
        <ele>5.6</ele>
        <time>2024-11-10T11:52:26Z</time>
      </trkpt>
      <trkpt lat="42.28872" lon="3.28106">
        <ele>5.6</ele>
        <time>2024-11-10T11:52:27Z</time>
      </trkpt>
      <trkpt lat="42.28872" lon="3.28106">
        <ele>5.6</ele>
        <time>2024-11-10T11:52:28Z</time>
      </trkpt>
      <trkpt lat="42.28872" lon="3.28106">
        <ele>5.6</ele>
        <time>2024-11-10T11:52:29Z</time>
      </trkpt>
      <trkpt lat="42.28872" lon="3.28106">
        <ele>5.6</ele>
        <time>2024-11-10T11:52:30Z</time>
      </trkpt>
      <trkpt lat="42.28872" lon="3.28106">
        <ele>5.6</ele>
        <time>2024-11-10T11:52:31Z</time>
      </trkpt>
      <trkpt lat="42.28872" lon="3.28106">
        <ele>5.6</ele>
        <time>2024-11-10T11:52:32Z</time>
      </trkpt>
      <trkpt lat="42.28872" lon="3.28106">
        <ele>5.6</ele>
        <time>2024-11-10T11:52:33Z</time>
      </trkpt>
      <trkpt lat="42.28872" lon="3.28106">
        <ele>5.6</ele>
        <time>2024-11-10T11:52:34Z</time>
      </trkpt>
      <trkpt lat="42.28872" lon="3.28106">
        <ele>5.6</ele>
        <time>2024-11-10T11:52:35Z</time>
      </trkpt>
      <trkpt lat="42.28872" lon="3.28106">
        <ele>5.6</ele>
        <time>2024-11-10T11:52:36Z</time>
      </trkpt>
      <trkpt lat="42.28872" lon="3.28106">
        <ele>5.6</ele>
        <time>2024-11-10T11:52:37Z</time>
      </trkpt>
      <trkpt lat="42.28872" lon="3.28106">
        <ele>5.6</ele>
        <time>2024-11-10T11:52:38Z</time>
      </trkpt>
      <trkpt lat="42.28872" lon="3.28106">
        <ele>5.6</ele>
        <time>2024-11-10T11:52:39Z</time>
      </trkpt>
      <trkpt lat="42.28872" lon="3.28106">
        <ele>5.6</ele>
        <time>2024-11-10T11:52:40Z</time>
      </trkpt>
      <trkpt lat="42.28872" lon="3.28106">
        <ele>5.6</ele>
        <time>2024-11-10T11:52:41Z</time>
      </trkpt>
      <trkpt lat="42.28872" lon="3.28106">
        <ele>5.6</ele>
        <time>2024-11-10T11:52:42Z</time>
      </trkpt>
      <trkpt lat="42.28872" lon="3.28106">
        <ele>5.6</ele>
        <time>2024-11-10T11:52:43Z</time>
      </trkpt>
      <trkpt lat="42.28872" lon="3.28106">
        <ele>5.6</ele>
        <time>2024-11-10T11:52:44Z</time>
      </trkpt>
      <trkpt lat="42.28872" lon="3.28106">
        <ele>5.6</ele>
        <time>2024-11-10T11:52:45Z</time>
      </trkpt>
      <trkpt lat="42.28872" lon="3.28106">
        <ele>5.6</ele>
        <time>2024-11-10T11:52:46Z</time>
      </trkpt>
      <trkpt lat="42.28872" lon="3.28106">
        <ele>5.6</ele>
        <time>2024-11-10T11:52:47Z</time>
      </trkpt>
      <trkpt lat="42.28872" lon="3.28106">
        <ele>5.6</ele>
        <time>2024-11-10T11:52:48Z</time>
      </trkpt>
      <trkpt lat="42.28872" lon="3.28106">
        <ele>5.6</ele>
        <time>2024-11-10T11:52:49Z</time>
      </trkpt>
      <trkpt lat="42.28872" lon="3.28106">
        <ele>5.6</ele>
        <time>2024-11-10T11:52:50Z</time>
      </trkpt>
      <trkpt lat="42.28872" lon="3.28106">
        <ele>5.6</ele>
        <time>2024-11-10T11:52:51Z</time>
      </trkpt>
      <trkpt lat="42.28872" lon="3.28106">
        <ele>5.6</ele>
        <time>2024-11-10T11:52:52Z</time>
      </trkpt>
      <trkpt lat="42.28872" lon="3.28106">
        <ele>5.6</ele>
        <time>2024-11-10T11:52:53Z</time>
      </trkpt>
      <trkpt lat="42.28872" lon="3.28106">
        <ele>5.6</ele>
        <time>2024-11-10T11:52:54Z</time>
      </trkpt>
      <trkpt lat="42.28872" lon="3.28106">
        <ele>5.6</ele>
        <time>2024-11-10T11:52:55Z</time>
      </trkpt>
      <trkpt lat="42.28872" lon="3.28106">
        <ele>5.6</ele>
        <time>2024-11-10T11:52:56Z</time>
      </trkpt>
      <trkpt lat="42.28872" lon="3.28106">
        <ele>5.6</ele>
        <time>2024-11-10T11:52:57Z</time>
      </trkpt>
      <trkpt lat="42.28872" lon="3.28106">
        <ele>5.6</ele>
        <time>2024-11-10T11:52:58Z</time>
      </trkpt>
      <trkpt lat="42.28872" lon="3.28106">
        <ele>5.6</ele>
        <time>2024-11-10T11:52:59Z</time>
      </trkpt>
      <trkpt lat="42.28872" lon="3.28106">
        <ele>5.6</ele>
        <time>2024-11-10T11:53:00Z</time>
      </trkpt>
      <trkpt lat="42.28872" lon="3.28106">
        <ele>5.6</ele>
        <time>2024-11-10T11:53:01Z</time>
      </trkpt>
      <trkpt lat="42.28872" lon="3.28106">
        <ele>5.6</ele>
        <time>2024-11-10T11:53:02Z</time>
      </trkpt>
      <trkpt lat="42.28872" lon="3.28106">
        <ele>5.6</ele>
        <time>2024-11-10T11:53:03Z</time>
      </trkpt>
      <trkpt lat="42.28872" lon="3.28106">
        <ele>5.6</ele>
        <time>2024-11-10T11:53:04Z</time>
      </trkpt>
      <trkpt lat="42.28872" lon="3.28106">
        <ele>5.6</ele>
        <time>2024-11-10T11:53:05Z</time>
      </trkpt>
      <trkpt lat="42.28872" lon="3.28106">
        <ele>5.6</ele>
        <time>2024-11-10T11:53:06Z</time>
      </trkpt>
      <trkpt lat="42.28872" lon="3.28106">
        <ele>5.6</ele>
        <time>2024-11-10T11:53:07Z</time>
      </trkpt>
      <trkpt lat="42.28872" lon="3.28106">
        <ele>5.6</ele>
        <time>2024-11-10T11:53:08Z</time>
      </trkpt>
      <trkpt lat="42.28872" lon="3.28106">
        <ele>5.6</ele>
        <time>2024-11-10T11:53:09Z</time>
      </trkpt>
      <trkpt lat="42.28872" lon="3.28106">
        <ele>5.6</ele>
        <time>2024-11-10T11:53:10Z</time>
      </trkpt>
      <trkpt lat="42.28872" lon="3.28106">
        <ele>5.6</ele>
        <time>2024-11-10T11:53:11Z</time>
      </trkpt>
      <trkpt lat="42.28872" lon="3.28106">
        <ele>5.6</ele>
        <time>2024-11-10T11:53:12Z</time>
      </trkpt>
      <trkpt lat="42.28872" lon="3.28106">
        <ele>5.6</ele>
        <time>2024-11-10T11:53:13Z</time>
      </trkpt>
      <trkpt lat="42.28872" lon="3.28106">
        <ele>5.6</ele>
        <time>2024-11-10T11:53:14Z</time>
      </trkpt>
      <trkpt lat="42.28872" lon="3.28106">
        <ele>5.6</ele>
        <time>2024-11-10T11:53:15Z</time>
      </trkpt>
      <trkpt lat="42.28872" lon="3.28106">
        <ele>5.6</ele>
        <time>2024-11-10T11:53:16Z</time>
      </trkpt>
      <trkpt lat="42.28872" lon="3.28106">
        <ele>5.6</ele>
        <time>2024-11-10T11:53:17Z</time>
      </trkpt>
      <trkpt lat="42.28872" lon="3.28106">
        <ele>5.6</ele>
        <time>2024-11-10T11:53:18Z</time>
      </trkpt>
      <trkpt lat="42.28872" lon="3.28106">
        <ele>5.6</ele>
        <time>2024-11-10T11:53:19Z</time>
      </trkpt>
      <trkpt lat="42.28872" lon="3.28106">
        <ele>5.6</ele>
        <time>2024-11-10T11:53:20Z</time>
      </trkpt>
      <trkpt lat="42.28872" lon="3.28106">
        <ele>5.6</ele>
        <time>2024-11-10T11:53:21Z</time>
      </trkpt>
      <trkpt lat="42.28872" lon="3.28106">
        <ele>5.6</ele>
        <time>2024-11-10T11:53:22Z</time>
      </trkpt>
      <trkpt lat="42.28872" lon="3.28106">
        <ele>5.6</ele>
        <time>2024-11-10T11:53:23Z</time>
      </trkpt>
      <trkpt lat="42.28872" lon="3.28106">
        <ele>5.6</ele>
        <time>2024-11-10T11:53:24Z</time>
      </trkpt>
      <trkpt lat="42.28872" lon="3.28106">
        <ele>5.6</ele>
        <time>2024-11-10T11:53:25Z</time>
      </trkpt>
      <trkpt lat="42.28872" lon="3.28106">
        <ele>5.6</ele>
        <time>2024-11-10T11:53:26Z</time>
      </trkpt>
      <trkpt lat="42.28872" lon="3.28106">
        <ele>5.6</ele>
        <time>2024-11-10T11:53:27Z</time>
      </trkpt>
      <trkpt lat="42.28872" lon="3.28106">
        <ele>5.6</ele>
        <time>2024-11-10T11:53:28Z</time>
      </trkpt>
      <trkpt lat="42.28872" lon="3.28106">
        <ele>5.6</ele>
        <time>2024-11-10T11:53:29Z</time>
      </trkpt>
      <trkpt lat="42.28872" lon="3.28106">
        <ele>5.6</ele>
        <time>2024-11-10T11:53:30Z</time>
      </trkpt>
      <trkpt lat="42.28872" lon="3.28106">
        <ele>5.6</ele>
        <time>2024-11-10T11:53:31Z</time>
      </trkpt>
      <trkpt lat="42.28872" lon="3.28106">
        <ele>5.6</ele>
        <time>2024-11-10T11:53:32Z</time>
      </trkpt>
      <trkpt lat="42.28872" lon="3.28106">
        <ele>5.6</ele>
        <time>2024-11-10T11:53:33Z</time>
      </trkpt>
      <trkpt lat="42.28872" lon="3.28106">
        <ele>5.6</ele>
        <time>2024-11-10T11:53:34Z</time>
      </trkpt>
      <trkpt lat="42.28872" lon="3.28106">
        <ele>5.6</ele>
        <time>2024-11-10T11:53:35Z</time>
      </trkpt>
      <trkpt lat="42.28872" lon="3.28106">
        <ele>5.6</ele>
        <time>2024-11-10T11:53:36Z</time>
      </trkpt>
      <trkpt lat="42.28872" lon="3.28106">
        <ele>5.6</ele>
        <time>2024-11-10T11:53:37Z</time>
      </trkpt>
      <trkpt lat="42.28872" lon="3.28106">
        <ele>5.6</ele>
        <time>2024-11-10T11:53:38Z</time>
      </trkpt>
      <trkpt lat="42.28872" lon="3.28106">
        <ele>5.6</ele>
        <time>2024-11-10T11:53:39Z</time>
      </trkpt>
      <trkpt lat="42.28872" lon="3.28106">
        <ele>5.6</ele>
        <time>2024-11-10T11:53:40Z</time>
      </trkpt>
      <trkpt lat="42.28872" lon="3.28106">
        <ele>5.6</ele>
        <time>2024-11-10T11:53:41Z</time>
      </trkpt>
      <trkpt lat="42.28872" lon="3.28106">
        <ele>5.6</ele>
        <time>2024-11-10T11:53:42Z</time>
      </trkpt>
      <trkpt lat="42.28872" lon="3.28106">
        <ele>5.6</ele>
        <time>2024-11-10T11:53:43Z</time>
      </trkpt>
      <trkpt lat="42.28872" lon="3.28106">
        <ele>5.6</ele>
        <time>2024-11-10T11:53:44Z</time>
      </trkpt>
      <trkpt lat="42.28872" lon="3.28106">
        <ele>5.6</ele>
        <time>2024-11-10T11:53:45Z</time>
      </trkpt>
      <trkpt lat="42.28872" lon="3.28106">
        <ele>5.6</ele>
        <time>2024-11-10T11:53:46Z</time>
      </trkpt>
      <trkpt lat="42.28872" lon="3.28106">
        <ele>5.6</ele>
        <time>2024-11-10T11:53:47Z</time>
      </trkpt>
      <trkpt lat="42.28872" lon="3.28106">
        <ele>5.6</ele>
        <time>2024-11-10T11:53:48Z</time>
      </trkpt>
      <trkpt lat="42.28872" lon="3.28106">
        <ele>5.6</ele>
        <time>2024-11-10T11:53:49Z</time>
      </trkpt>
      <trkpt lat="42.28872" lon="3.28106">
        <ele>5.6</ele>
        <time>2024-11-10T11:53:50Z</time>
      </trkpt>
      <trkpt lat="42.28872" lon="3.28106">
        <ele>5.6</ele>
        <time>2024-11-10T11:53:51Z</time>
      </trkpt>
      <trkpt lat="42.28872" lon="3.28106">
        <ele>5.6</ele>
        <time>2024-11-10T11:53:52Z</time>
      </trkpt>
      <trkpt lat="42.28872" lon="3.28106">
        <ele>5.6</ele>
        <time>2024-11-10T11:53:53Z</time>
      </trkpt>
      <trkpt lat="42.28872" lon="3.28106">
        <ele>5.6</ele>
        <time>2024-11-10T11:53:54Z</time>
      </trkpt>
      <trkpt lat="42.28872" lon="3.28106">
        <ele>5.6</ele>
        <time>2024-11-10T11:53:55Z</time>
      </trkpt>
      <trkpt lat="42.28872" lon="3.28106">
        <ele>5.6</ele>
        <time>2024-11-10T11:53:56Z</time>
      </trkpt>
      <trkpt lat="42.28872" lon="3.28106">
        <ele>5.6</ele>
        <time>2024-11-10T11:53:57Z</time>
      </trkpt>
      <trkpt lat="42.28872" lon="3.28106">
        <ele>5.6</ele>
        <time>2024-11-10T11:53:58Z</time>
      </trkpt>
      <trkpt lat="42.28872" lon="3.28106">
        <ele>5.6</ele>
        <time>2024-11-10T11:53:59Z</time>
      </trkpt>
      <trkpt lat="42.28872" lon="3.28106">
        <ele>5.6</ele>
        <time>2024-11-10T11:54:00Z</time>
      </trkpt>
      <trkpt lat="42.28872" lon="3.28106">
        <ele>5.6</ele>
        <time>2024-11-10T11:54:01Z</time>
      </trkpt>
      <trkpt lat="42.28872" lon="3.28106">
        <ele>5.6</ele>
        <time>2024-11-10T11:54:02Z</time>
      </trkpt>
      <trkpt lat="42.28872" lon="3.28106">
        <ele>5.6</ele>
        <time>2024-11-10T11:54:03Z</time>
      </trkpt>
      <trkpt lat="42.28872" lon="3.28106">
        <ele>5.6</ele>
        <time>2024-11-10T11:54:04Z</time>
      </trkpt>
      <trkpt lat="42.28872" lon="3.28106">
        <ele>5.6</ele>
        <time>2024-11-10T11:54:05Z</time>
      </trkpt>
      <trkpt lat="42.28872" lon="3.28106">
        <ele>5.6</ele>
        <time>2024-11-10T11:54:06Z</time>
      </trkpt>
      <trkpt lat="42.28872" lon="3.28106">
        <ele>5.6</ele>
        <time>2024-11-10T11:54:07Z</time>
      </trkpt>
      <trkpt lat="42.28872" lon="3.28106">
        <ele>5.6</ele>
        <time>2024-11-10T11:54:08Z</time>
      </trkpt>
      <trkpt lat="42.28872" lon="3.28106">
        <ele>5.6</ele>
        <time>2024-11-10T11:54:09Z</time>
      </trkpt>
      <trkpt lat="42.28872" lon="3.28106">
        <ele>5.6</ele>
        <time>2024-11-10T11:54:10Z</time>
      </trkpt>
      <trkpt lat="42.28872" lon="3.28106">
        <ele>5.6</ele>
        <time>2024-11-10T11:54:11Z</time>
      </trkpt>
      <trkpt lat="42.28872" lon="3.28106">
        <ele>5.6</ele>
        <time>2024-11-10T11:54:12Z</time>
      </trkpt>
      <trkpt lat="42.28872" lon="3.28106">
        <ele>5.6</ele>
        <time>2024-11-10T11:54:13Z</time>
      </trkpt>
      <trkpt lat="42.28872" lon="3.28106">
        <ele>5.6</ele>
        <time>2024-11-10T11:54:14Z</time>
      </trkpt>
      <trkpt lat="42.28872" lon="3.28106">
        <ele>5.6</ele>
        <time>2024-11-10T11:54:15Z</time>
      </trkpt>
      <trkpt lat="42.28872" lon="3.28106">
        <ele>5.6</ele>
        <time>2024-11-10T11:54:16Z</time>
      </trkpt>
      <trkpt lat="42.28872" lon="3.28106">
        <ele>5.6</ele>
        <time>2024-11-10T11:54:17Z</time>
      </trkpt>
      <trkpt lat="42.28872" lon="3.28106">
        <ele>5.6</ele>
        <time>2024-11-10T11:54:18Z</time>
      </trkpt>
      <trkpt lat="42.28872" lon="3.28106">
        <ele>5.6</ele>
        <time>2024-11-10T11:54:19Z</time>
      </trkpt>
      <trkpt lat="42.28872" lon="3.28106">
        <ele>5.6</ele>
        <time>2024-11-10T11:54:20Z</time>
      </trkpt>
      <trkpt lat="42.28872" lon="3.28106">
        <ele>5.6</ele>
        <time>2024-11-10T11:54:21Z</time>
      </trkpt>
      <trkpt lat="42.28872" lon="3.28106">
        <ele>5.6</ele>
        <time>2024-11-10T11:54:22Z</time>
      </trkpt>
      <trkpt lat="42.28872" lon="3.28106">
        <ele>5.6</ele>
        <time>2024-11-10T11:54:23Z</time>
      </trkpt>
      <trkpt lat="42.28872" lon="3.28106">
        <ele>5.6</ele>
        <time>2024-11-10T11:54:24Z</time>
      </trkpt>
      <trkpt lat="42.28872" lon="3.28106">
        <ele>5.6</ele>
        <time>2024-11-10T11:54:25Z</time>
      </trkpt>
      <trkpt lat="42.28872" lon="3.28106">
        <ele>5.6</ele>
        <time>2024-11-10T11:54:26Z</time>
      </trkpt>
      <trkpt lat="42.28872" lon="3.28106">
        <ele>5.6</ele>
        <time>2024-11-10T11:54:27Z</time>
      </trkpt>
      <trkpt lat="42.28872" lon="3.28106">
        <ele>5.6</ele>
        <time>2024-11-10T11:54:28Z</time>
      </trkpt>
      <trkpt lat="42.28872" lon="3.28106">
        <ele>5.6</ele>
        <time>2024-11-10T11:54:29Z</time>
      </trkpt>
      <trkpt lat="42.28872" lon="3.28106">
        <ele>5.6</ele>
        <time>2024-11-10T11:54:30Z</time>
      </trkpt>
      <trkpt lat="42.28872" lon="3.28106">
        <ele>5.6</ele>
        <time>2024-11-10T11:54:31Z</time>
      </trkpt>
      <trkpt lat="42.28872" lon="3.28106">
        <ele>5.6</ele>
        <time>2024-11-10T11:54:32Z</time>
      </trkpt>
      <trkpt lat="42.28872" lon="3.28106">
        <ele>5.6</ele>
        <time>2024-11-10T11:54:33Z</time>
      </trkpt>
      <trkpt lat="42.28872" lon="3.28106">
        <ele>5.6</ele>
        <time>2024-11-10T11:54:34Z</time>
      </trkpt>
      <trkpt lat="42.28872" lon="3.28106">
        <ele>5.6</ele>
        <time>2024-11-10T11:54:35Z</time>
      </trkpt>
      <trkpt lat="42.28872" lon="3.28106">
        <ele>5.6</ele>
        <time>2024-11-10T11:54:36Z</time>
      </trkpt>
      <trkpt lat="42.28872" lon="3.28106">
        <ele>5.6</ele>
        <time>2024-11-10T11:54:37Z</time>
      </trkpt>
      <trkpt lat="42.28872" lon="3.28106">
        <ele>5.6</ele>
        <time>2024-11-10T11:54:38Z</time>
      </trkpt>
      <trkpt lat="42.28872" lon="3.28106">
        <ele>5.6</ele>
        <time>2024-11-10T11:54:39Z</time>
      </trkpt>
      <trkpt lat="42.28872" lon="3.28106">
        <ele>5.6</ele>
        <time>2024-11-10T11:54:40Z</time>
      </trkpt>
      <trkpt lat="42.28872" lon="3.28106">
        <ele>5.6</ele>
        <time>2024-11-10T11:54:41Z</time>
      </trkpt>
      <trkpt lat="42.28872" lon="3.28106">
        <ele>5.6</ele>
        <time>2024-11-10T11:54:42Z</time>
      </trkpt>
      <trkpt lat="42.28872" lon="3.28106">
        <ele>5.6</ele>
        <time>2024-11-10T11:54:43Z</time>
      </trkpt>
      <trkpt lat="42.28872" lon="3.28106">
        <ele>5.6</ele>
        <time>2024-11-10T11:54:44Z</time>
      </trkpt>
      <trkpt lat="42.28872" lon="3.28106">
        <ele>5.6</ele>
        <time>2024-11-10T11:54:45Z</time>
      </trkpt>
      <trkpt lat="42.28872" lon="3.28106">
        <ele>5.6</ele>
        <time>2024-11-10T11:54:46Z</time>
      </trkpt>
      <trkpt lat="42.28872" lon="3.28106">
        <ele>5.6</ele>
        <time>2024-11-10T11:54:47Z</time>
      </trkpt>
      <trkpt lat="42.28872" lon="3.28106">
        <ele>5.6</ele>
        <time>2024-11-10T11:54:48Z</time>
      </trkpt>
      <trkpt lat="42.28872" lon="3.28106">
        <ele>5.6</ele>
        <time>2024-11-10T11:54:49Z</time>
      </trkpt>
      <trkpt lat="42.28872" lon="3.28106">
        <ele>5.6</ele>
        <time>2024-11-10T11:54:50Z</time>
      </trkpt>
      <trkpt lat="42.28872" lon="3.28106">
        <ele>5.6</ele>
        <time>2024-11-10T11:54:51Z</time>
      </trkpt>
      <trkpt lat="42.28872" lon="3.28106">
        <ele>5.6</ele>
        <time>2024-11-10T11:54:52Z</time>
      </trkpt>
      <trkpt lat="42.28872" lon="3.28106">
        <ele>5.6</ele>
        <time>2024-11-10T11:54:53Z</time>
      </trkpt>
      <trkpt lat="42.28872" lon="3.28106">
        <ele>5.6</ele>
        <time>2024-11-10T11:54:54Z</time>
      </trkpt>
      <trkpt lat="42.28872" lon="3.28106">
        <ele>5.6</ele>
        <time>2024-11-10T11:54:55Z</time>
      </trkpt>
      <trkpt lat="42.28872" lon="3.28106">
        <ele>5.6</ele>
        <time>2024-11-10T11:54:56Z</time>
      </trkpt>
      <trkpt lat="42.28872" lon="3.28106">
        <ele>5.6</ele>
        <time>2024-11-10T11:54:57Z</time>
      </trkpt>
      <trkpt lat="42.28872" lon="3.28106">
        <ele>5.6</ele>
        <time>2024-11-10T11:54:58Z</time>
      </trkpt>
      <trkpt lat="42.28872" lon="3.28106">
        <ele>5.6</ele>
        <time>2024-11-10T11:54:59Z</time>
      </trkpt>
      <trkpt lat="42.28872" lon="3.28106">
        <ele>5.6</ele>
        <time>2024-11-10T11:55:00Z</time>
      </trkpt>
      <trkpt lat="42.28872" lon="3.28106">
        <ele>5.6</ele>
        <time>2024-11-10T11:55:01Z</time>
      </trkpt>
      <trkpt lat="42.28872" lon="3.28106">
        <ele>5.6</ele>
        <time>2024-11-10T11:55:02Z</time>
      </trkpt>
      <trkpt lat="42.28872" lon="3.28106">
        <ele>5.6</ele>
        <time>2024-11-10T11:55:03Z</time>
      </trkpt>
      <trkpt lat="42.28872" lon="3.28106">
        <ele>5.6</ele>
        <time>2024-11-10T11:55:04Z</time>
      </trkpt>
      <trkpt lat="42.28872" lon="3.28106">
        <ele>5.6</ele>
        <time>2024-11-10T11:55:05Z</time>
      </trkpt>
      <trkpt lat="42.28872" lon="3.28106">
        <ele>5.6</ele>
        <time>2024-11-10T11:55:06Z</time>
      </trkpt>
      <trkpt lat="42.28872" lon="3.28106">
        <ele>5.6</ele>
        <time>2024-11-10T11:55:07Z</time>
      </trkpt>
      <trkpt lat="42.28872" lon="3.28106">
        <ele>5.6</ele>
        <time>2024-11-10T11:55:08Z</time>
      </trkpt>
      <trkpt lat="42.28872" lon="3.28106">
        <ele>5.6</ele>
        <time>2024-11-10T11:55:09Z</time>
      </trkpt>
      <trkpt lat="42.28872" lon="3.28106">
        <ele>5.6</ele>
        <time>2024-11-10T11:55:10Z</time>
      </trkpt>
      <trkpt lat="42.28872" lon="3.28106">
        <ele>5.6</ele>
        <time>2024-11-10T11:55:11Z</time>
      </trkpt>
      <trkpt lat="42.28872" lon="3.28106">
        <ele>5.6</ele>
        <time>2024-11-10T11:55:12Z</time>
      </trkpt>
      <trkpt lat="42.28872" lon="3.28106">
        <ele>5.6</ele>
        <time>2024-11-10T11:55:13Z</time>
      </trkpt>
      <trkpt lat="42.28872" lon="3.28106">
        <ele>5.6</ele>
        <time>2024-11-10T11:55:14Z</time>
      </trkpt>
      <trkpt lat="42.28872" lon="3.28106">
        <ele>5.6</ele>
        <time>2024-11-10T11:55:15Z</time>
      </trkpt>
      <trkpt lat="42.28872" lon="3.28106">
        <ele>5.6</ele>
        <time>2024-11-10T11:55:16Z</time>
      </trkpt>
      <trkpt lat="42.28872" lon="3.28106">
        <ele>5.6</ele>
        <time>2024-11-10T11:55:17Z</time>
      </trkpt>
      <trkpt lat="42.28872" lon="3.28106">
        <ele>5.6</ele>
        <time>2024-11-10T11:55:18Z</time>
      </trkpt>
      <trkpt lat="42.28872" lon="3.28106">
        <ele>5.6</ele>
        <time>2024-11-10T11:55:19Z</time>
      </trkpt>
      <trkpt lat="42.28872" lon="3.28106">
        <ele>5.6</ele>
        <time>2024-11-10T11:55:20Z</time>
      </trkpt>
      <trkpt lat="42.28872" lon="3.28106">
        <ele>5.6</ele>
        <time>2024-11-10T11:55:21Z</time>
      </trkpt>
      <trkpt lat="42.28872" lon="3.28106">
        <ele>5.6</ele>
        <time>2024-11-10T11:55:22Z</time>
      </trkpt>
      <trkpt lat="42.28872" lon="3.28106">
        <ele>5.6</ele>
        <time>2024-11-10T11:55:23Z</time>
      </trkpt>
      <trkpt lat="42.28872" lon="3.28106">
        <ele>5.6</ele>
        <time>2024-11-10T11:55:24Z</time>
      </trkpt>
      <trkpt lat="42.28872" lon="3.28106">
        <ele>5.6</ele>
        <time>2024-11-10T11:55:25Z</time>
      </trkpt>
      <trkpt lat="42.28872" lon="3.28106">
        <ele>5.6</ele>
        <time>2024-11-10T11:55:26Z</time>
      </trkpt>
      <trkpt lat="42.28872" lon="3.28106">
        <ele>5.6</ele>
        <time>2024-11-10T11:55:27Z</time>
      </trkpt>
      <trkpt lat="42.28872" lon="3.28106">
        <ele>5.6</ele>
        <time>2024-11-10T11:55:28Z</time>
      </trkpt>
      <trkpt lat="42.28872" lon="3.28106">
        <ele>5.6</ele>
        <time>2024-11-10T11:55:29Z</time>
      </trkpt>
      <trkpt lat="42.28872" lon="3.28106">
        <ele>5.6</ele>
        <time>2024-11-10T11:55:30Z</time>
      </trkpt>
      <trkpt lat="42.28872" lon="3.28106">
        <ele>5.6</ele>
        <time>2024-11-10T11:55:31Z</time>
      </trkpt>
      <trkpt lat="42.28872" lon="3.28106">
        <ele>5.6</ele>
        <time>2024-11-10T11:55:32Z</time>
      </trkpt>
      <trkpt lat="42.28872" lon="3.28106">
        <ele>5.6</ele>
        <time>2024-11-10T11:55:33Z</time>
      </trkpt>
      <trkpt lat="42.28872" lon="3.28106">
        <ele>5.6</ele>
        <time>2024-11-10T11:55:34Z</time>
      </trkpt>
      <trkpt lat="42.28872" lon="3.28106">
        <ele>5.6</ele>
        <time>2024-11-10T11:55:35Z</time>
      </trkpt>
      <trkpt lat="42.28872" lon="3.28106">
        <ele>5.6</ele>
        <time>2024-11-10T11:55:36Z</time>
      </trkpt>
      <trkpt lat="42.28872" lon="3.28106">
        <ele>5.6</ele>
        <time>2024-11-10T11:55:37Z</time>
      </trkpt>
      <trkpt lat="42.28872" lon="3.28106">
        <ele>5.6</ele>
        <time>2024-11-10T11:55:38Z</time>
      </trkpt>
      <trkpt lat="42.28872" lon="3.28106">
        <ele>5.6</ele>
        <time>2024-11-10T11:55:39Z</time>
      </trkpt>
      <trkpt lat="42.28872" lon="3.28106">
        <ele>5.6</ele>
        <time>2024-11-10T11:55:40Z</time>
      </trkpt>
      <trkpt lat="42.28872" lon="3.28106">
        <ele>5.6</ele>
        <time>2024-11-10T11:55:41Z</time>
      </trkpt>
      <trkpt lat="42.28872" lon="3.28106">
        <ele>5.6</ele>
        <time>2024-11-10T11:55:42Z</time>
      </trkpt>
      <trkpt lat="42.28872" lon="3.28106">
        <ele>5.6</ele>
        <time>2024-11-10T11:55:43Z</time>
      </trkpt>
      <trkpt lat="42.28872" lon="3.28106">
        <ele>5.6</ele>
        <time>2024-11-10T11:55:44Z</time>
      </trkpt>
      <trkpt lat="42.28872" lon="3.28106">
        <ele>5.6</ele>
        <time>2024-11-10T11:55:45Z</time>
      </trkpt>
      <trkpt lat="42.28872" lon="3.28106">
        <ele>5.6</ele>
        <time>2024-11-10T11:55:46Z</time>
      </trkpt>
      <trkpt lat="42.28872" lon="3.28106">
        <ele>5.6</ele>
        <time>2024-11-10T11:55:47Z</time>
      </trkpt>
      <trkpt lat="42.28872" lon="3.28106">
        <ele>5.6</ele>
        <time>2024-11-10T11:55:48Z</time>
      </trkpt>
      <trkpt lat="42.28872" lon="3.28106">
        <ele>5.6</ele>
        <time>2024-11-10T11:55:49Z</time>
      </trkpt>
      <trkpt lat="42.28872" lon="3.28106">
        <ele>5.6</ele>
        <time>2024-11-10T11:55:50Z</time>
      </trkpt>
      <trkpt lat="42.28872" lon="3.28106">
        <ele>5.6</ele>
        <time>2024-11-10T11:55:51Z</time>
      </trkpt>
      <trkpt lat="42.28872" lon="3.28106">
        <ele>5.6</ele>
        <time>2024-11-10T11:55:52Z</time>
      </trkpt>
      <trkpt lat="42.28872" lon="3.28106">
        <ele>5.6</ele>
        <time>2024-11-10T11:55:53Z</time>
      </trkpt>
      <trkpt lat="42.28872" lon="3.28106">
        <ele>5.6</ele>
        <time>2024-11-10T11:55:54Z</time>
      </trkpt>
      <trkpt lat="42.28872" lon="3.28106">
        <ele>5.6</ele>
        <time>2024-11-10T11:55:55Z</time>
      </trkpt>
      <trkpt lat="42.28872" lon="3.28106">
        <ele>5.6</ele>
        <time>2024-11-10T11:55:56Z</time>
      </trkpt>
      <trkpt lat="42.28872" lon="3.28106">
        <ele>5.6</ele>
        <time>2024-11-10T11:55:57Z</time>
      </trkpt>
      <trkpt lat="42.28872" lon="3.28106">
        <ele>5.6</ele>
        <time>2024-11-10T11:55:58Z</time>
      </trkpt>
      <trkpt lat="42.28872" lon="3.28106">
        <ele>5.6</ele>
        <time>2024-11-10T11:55:59Z</time>
      </trkpt>
      <trkpt lat="42.28872" lon="3.28106">
        <ele>5.6</ele>
        <time>2024-11-10T11:56:00Z</time>
      </trkpt>
      <trkpt lat="42.28872" lon="3.28106">
        <ele>5.6</ele>
        <time>2024-11-10T11:56:01Z</time>
      </trkpt>
      <trkpt lat="42.28872" lon="3.28106">
        <ele>5.6</ele>
        <time>2024-11-10T11:56:02Z</time>
      </trkpt>
      <trkpt lat="42.28872" lon="3.28106">
        <ele>5.6</ele>
        <time>2024-11-10T11:56:03Z</time>
      </trkpt>
      <trkpt lat="42.28872" lon="3.28106">
        <ele>5.6</ele>
        <time>2024-11-10T11:56:04Z</time>
      </trkpt>
      <trkpt lat="42.28872" lon="3.28106">
        <ele>5.6</ele>
        <time>2024-11-10T11:56:05Z</time>
      </trkpt>
      <trkpt lat="42.28871" lon="3.28106">
        <ele>5.6</ele>
        <time>2024-11-10T11:56:06Z</time>
      </trkpt>
      <trkpt lat="42.28871" lon="3.28106">
        <ele>5.6</ele>
        <time>2024-11-10T11:56:07Z</time>
      </trkpt>
      <trkpt lat="42.28871" lon="3.28106">
        <ele>5.6</ele>
        <time>2024-11-10T11:56:08Z</time>
      </trkpt>
      <trkpt lat="42.28871" lon="3.28106">
        <ele>5.6</ele>
        <time>2024-11-10T11:56:09Z</time>
      </trkpt>
      <trkpt lat="42.28871" lon="3.28106">
        <ele>5.6</ele>
        <time>2024-11-10T11:56:10Z</time>
      </trkpt>
      <trkpt lat="42.28871" lon="3.28106">
        <ele>5.6</ele>
        <time>2024-11-10T11:56:11Z</time>
      </trkpt>
      <trkpt lat="42.28871" lon="3.28106">
        <ele>5.6</ele>
        <time>2024-11-10T11:56:12Z</time>
      </trkpt>
      <trkpt lat="42.28871" lon="3.28106">
        <ele>5.6</ele>
        <time>2024-11-10T11:56:13Z</time>
      </trkpt>
      <trkpt lat="42.28871" lon="3.28106">
        <ele>5.6</ele>
        <time>2024-11-10T11:56:14Z</time>
      </trkpt>
      <trkpt lat="42.28871" lon="3.28106">
        <ele>5.6</ele>
        <time>2024-11-10T11:56:15Z</time>
      </trkpt>
      <trkpt lat="42.28871" lon="3.28106">
        <ele>5.6</ele>
        <time>2024-11-10T11:56:16Z</time>
      </trkpt>
      <trkpt lat="42.28871" lon="3.28106">
        <ele>5.6</ele>
        <time>2024-11-10T11:56:17Z</time>
      </trkpt>
      <trkpt lat="42.28871" lon="3.28106">
        <ele>5.6</ele>
        <time>2024-11-10T11:56:18Z</time>
      </trkpt>
      <trkpt lat="42.28871" lon="3.28106">
        <ele>5.6</ele>
        <time>2024-11-10T11:56:19Z</time>
      </trkpt>
      <trkpt lat="42.28871" lon="3.28106">
        <ele>5.6</ele>
        <time>2024-11-10T11:56:20Z</time>
      </trkpt>
      <trkpt lat="42.28871" lon="3.28106">
        <ele>5.6</ele>
        <time>2024-11-10T11:56:21Z</time>
      </trkpt>
      <trkpt lat="42.28871" lon="3.28106">
        <ele>5.6</ele>
        <time>2024-11-10T11:56:22Z</time>
      </trkpt>
      <trkpt lat="42.28871" lon="3.28106">
        <ele>5.6</ele>
        <time>2024-11-10T11:56:23Z</time>
      </trkpt>
      <trkpt lat="42.28871" lon="3.28106">
        <ele>5.6</ele>
        <time>2024-11-10T11:56:24Z</time>
      </trkpt>
      <trkpt lat="42.28871" lon="3.28106">
        <ele>5.6</ele>
        <time>2024-11-10T11:56:25Z</time>
      </trkpt>
      <trkpt lat="42.28871" lon="3.28106">
        <ele>5.6</ele>
        <time>2024-11-10T11:56:26Z</time>
      </trkpt>
      <trkpt lat="42.28871" lon="3.28106">
        <ele>5.6</ele>
        <time>2024-11-10T11:56:27Z</time>
      </trkpt>
      <trkpt lat="42.28871" lon="3.28106">
        <ele>5.6</ele>
        <time>2024-11-10T11:56:28Z</time>
      </trkpt>
      <trkpt lat="42.28871" lon="3.28106">
        <ele>5.6</ele>
        <time>2024-11-10T11:56:29Z</time>
      </trkpt>
      <trkpt lat="42.28871" lon="3.28106">
        <ele>5.6</ele>
        <time>2024-11-10T11:56:30Z</time>
      </trkpt>
      <trkpt lat="42.28871" lon="3.28106">
        <ele>5.6</ele>
        <time>2024-11-10T11:56:31Z</time>
      </trkpt>
      <trkpt lat="42.28871" lon="3.28106">
        <ele>5.6</ele>
        <time>2024-11-10T11:56:32Z</time>
      </trkpt>
      <trkpt lat="42.28871" lon="3.28106">
        <ele>5.6</ele>
        <time>2024-11-10T11:56:33Z</time>
      </trkpt>
      <trkpt lat="42.28871" lon="3.28106">
        <ele>5.6</ele>
        <time>2024-11-10T11:56:34Z</time>
      </trkpt>
      <trkpt lat="42.28871" lon="3.28106">
        <ele>5.6</ele>
        <time>2024-11-10T11:56:35Z</time>
      </trkpt>
      <trkpt lat="42.28871" lon="3.28106">
        <ele>5.6</ele>
        <time>2024-11-10T11:56:36Z</time>
      </trkpt>
      <trkpt lat="42.28871" lon="3.28106">
        <ele>5.6</ele>
        <time>2024-11-10T11:56:37Z</time>
      </trkpt>
      <trkpt lat="42.28871" lon="3.28106">
        <ele>5.6</ele>
        <time>2024-11-10T11:56:38Z</time>
      </trkpt>
      <trkpt lat="42.28871" lon="3.28106">
        <ele>5.6</ele>
        <time>2024-11-10T11:56:39Z</time>
      </trkpt>
      <trkpt lat="42.28871" lon="3.28106">
        <ele>5.6</ele>
        <time>2024-11-10T11:56:40Z</time>
      </trkpt>
      <trkpt lat="42.28871" lon="3.28106">
        <ele>5.6</ele>
        <time>2024-11-10T11:56:41Z</time>
      </trkpt>
      <trkpt lat="42.28871" lon="3.28106">
        <ele>5.6</ele>
        <time>2024-11-10T11:56:42Z</time>
      </trkpt>
      <trkpt lat="42.28871" lon="3.28106">
        <ele>5.6</ele>
        <time>2024-11-10T11:56:43Z</time>
      </trkpt>
      <trkpt lat="42.28871" lon="3.28106">
        <ele>5.6</ele>
        <time>2024-11-10T11:56:44Z</time>
      </trkpt>
      <trkpt lat="42.28871" lon="3.28106">
        <ele>5.6</ele>
        <time>2024-11-10T11:56:45Z</time>
      </trkpt>
      <trkpt lat="42.28871" lon="3.28106">
        <ele>5.6</ele>
        <time>2024-11-10T11:56:46Z</time>
      </trkpt>
      <trkpt lat="42.28871" lon="3.28106">
        <ele>5.6</ele>
        <time>2024-11-10T11:56:47Z</time>
      </trkpt>
      <trkpt lat="42.28871" lon="3.28106">
        <ele>5.6</ele>
        <time>2024-11-10T11:56:48Z</time>
      </trkpt>
      <trkpt lat="42.28871" lon="3.28106">
        <ele>5.6</ele>
        <time>2024-11-10T11:56:49Z</time>
      </trkpt>
      <trkpt lat="42.28871" lon="3.28106">
        <ele>5.6</ele>
        <time>2024-11-10T11:56:50Z</time>
      </trkpt>
      <trkpt lat="42.28871" lon="3.28106">
        <ele>5.6</ele>
        <time>2024-11-10T11:56:51Z</time>
      </trkpt>
      <trkpt lat="42.28871" lon="3.28107">
        <ele>5.6</ele>
        <time>2024-11-10T11:56:52Z</time>
      </trkpt>
      <trkpt lat="42.28871" lon="3.28107">
        <ele>5.6</ele>
        <time>2024-11-10T11:56:53Z</time>
      </trkpt>
      <trkpt lat="42.28871" lon="3.28106">
        <ele>5.6</ele>
        <time>2024-11-10T11:56:54Z</time>
      </trkpt>
      <trkpt lat="42.28871" lon="3.28106">
        <ele>5.6</ele>
        <time>2024-11-10T11:56:55Z</time>
      </trkpt>
      <trkpt lat="42.28871" lon="3.28106">
        <ele>5.6</ele>
        <time>2024-11-10T11:56:56Z</time>
      </trkpt>
      <trkpt lat="42.28871" lon="3.28106">
        <ele>5.6</ele>
        <time>2024-11-10T11:56:57Z</time>
      </trkpt>
      <trkpt lat="42.28871" lon="3.28104">
        <ele>5.6</ele>
        <time>2024-11-10T11:56:58Z</time>
      </trkpt>
      <trkpt lat="42.28871" lon="3.28104">
        <ele>5.6</ele>
        <time>2024-11-10T11:56:59Z</time>
      </trkpt>
      <trkpt lat="42.28871" lon="3.28104">
        <ele>5.6</ele>
        <time>2024-11-10T11:57:00Z</time>
      </trkpt>
      <trkpt lat="42.28871" lon="3.28104">
        <ele>5.6</ele>
        <time>2024-11-10T11:57:01Z</time>
      </trkpt>
      <trkpt lat="42.28871" lon="3.28104">
        <ele>5.6</ele>
        <time>2024-11-10T11:57:02Z</time>
      </trkpt>
      <trkpt lat="42.28871" lon="3.28104">
        <ele>5.6</ele>
        <time>2024-11-10T11:57:03Z</time>
      </trkpt>
      <trkpt lat="42.28871" lon="3.28104">
        <ele>5.6</ele>
        <time>2024-11-10T11:57:04Z</time>
      </trkpt>
      <trkpt lat="42.28871" lon="3.28105">
        <ele>5.6</ele>
        <time>2024-11-10T11:57:05Z</time>
      </trkpt>
      <trkpt lat="42.28871" lon="3.28105">
        <ele>5.6</ele>
        <time>2024-11-10T11:57:06Z</time>
      </trkpt>
      <trkpt lat="42.28871" lon="3.28105">
        <ele>5.6</ele>
        <time>2024-11-10T11:57:07Z</time>
      </trkpt>
      <trkpt lat="42.28871" lon="3.28105">
        <ele>5.6</ele>
        <time>2024-11-10T11:57:08Z</time>
      </trkpt>
      <trkpt lat="42.28871" lon="3.28105">
        <ele>5.6</ele>
        <time>2024-11-10T11:57:09Z</time>
      </trkpt>
      <trkpt lat="42.28871" lon="3.28106">
        <ele>5.6</ele>
        <time>2024-11-10T11:57:10Z</time>
      </trkpt>
      <trkpt lat="42.28871" lon="3.28105">
        <ele>5.6</ele>
        <time>2024-11-10T11:57:11Z</time>
      </trkpt>
      <trkpt lat="42.28871" lon="3.28105">
        <ele>5.6</ele>
        <time>2024-11-10T11:57:12Z</time>
      </trkpt>
      <trkpt lat="42.28871" lon="3.28106">
        <ele>5.6</ele>
        <time>2024-11-10T11:57:13Z</time>
      </trkpt>
      <trkpt lat="42.28871" lon="3.28106">
        <ele>5.6</ele>
        <time>2024-11-10T11:57:14Z</time>
      </trkpt>
      <trkpt lat="42.28871" lon="3.28106">
        <ele>5.6</ele>
        <time>2024-11-10T11:57:15Z</time>
      </trkpt>
      <trkpt lat="42.28871" lon="3.28106">
        <ele>5.6</ele>
        <time>2024-11-10T11:57:16Z</time>
      </trkpt>
      <trkpt lat="42.28871" lon="3.28106">
        <ele>5.6</ele>
        <time>2024-11-10T11:57:17Z</time>
      </trkpt>
      <trkpt lat="42.28871" lon="3.28106">
        <ele>5.6</ele>
        <time>2024-11-10T11:57:18Z</time>
      </trkpt>
      <trkpt lat="42.28871" lon="3.28106">
        <ele>5.6</ele>
        <time>2024-11-10T11:57:19Z</time>
      </trkpt>
      <trkpt lat="42.28871" lon="3.28106">
        <ele>5.6</ele>
        <time>2024-11-10T11:57:20Z</time>
      </trkpt>
      <trkpt lat="42.28871" lon="3.28106">
        <ele>5.6</ele>
        <time>2024-11-10T11:57:21Z</time>
      </trkpt>
      <trkpt lat="42.28871" lon="3.28106">
        <ele>5.6</ele>
        <time>2024-11-10T11:57:22Z</time>
      </trkpt>
      <trkpt lat="42.28871" lon="3.28106">
        <ele>5.6</ele>
        <time>2024-11-10T11:57:23Z</time>
      </trkpt>
      <trkpt lat="42.28871" lon="3.28106">
        <ele>5.6</ele>
        <time>2024-11-10T11:57:24Z</time>
      </trkpt>
      <trkpt lat="42.28871" lon="3.28106">
        <ele>5.6</ele>
        <time>2024-11-10T11:57:25Z</time>
      </trkpt>
      <trkpt lat="42.28871" lon="3.28106">
        <ele>5.6</ele>
        <time>2024-11-10T11:57:26Z</time>
      </trkpt>
      <trkpt lat="42.28871" lon="3.28106">
        <ele>5.6</ele>
        <time>2024-11-10T11:57:27Z</time>
      </trkpt>
      <trkpt lat="42.28871" lon="3.28106">
        <ele>5.6</ele>
        <time>2024-11-10T11:57:28Z</time>
      </trkpt>
      <trkpt lat="42.28871" lon="3.28106">
        <ele>5.6</ele>
        <time>2024-11-10T11:57:29Z</time>
      </trkpt>
      <trkpt lat="42.28871" lon="3.28106">
        <ele>5.6</ele>
        <time>2024-11-10T11:57:30Z</time>
      </trkpt>
      <trkpt lat="42.28871" lon="3.28106">
        <ele>5.6</ele>
        <time>2024-11-10T11:57:31Z</time>
      </trkpt>
      <trkpt lat="42.28871" lon="3.28106">
        <ele>5.6</ele>
        <time>2024-11-10T11:57:32Z</time>
      </trkpt>
      <trkpt lat="42.28871" lon="3.28106">
        <ele>5.6</ele>
        <time>2024-11-10T11:57:33Z</time>
      </trkpt>
      <trkpt lat="42.28871" lon="3.28106">
        <ele>5.6</ele>
        <time>2024-11-10T11:57:34Z</time>
      </trkpt>
      <trkpt lat="42.28871" lon="3.28106">
        <ele>5.6</ele>
        <time>2024-11-10T11:57:35Z</time>
      </trkpt>
      <trkpt lat="42.28871" lon="3.28106">
        <ele>5.6</ele>
        <time>2024-11-10T11:57:36Z</time>
      </trkpt>
      <trkpt lat="42.28871" lon="3.28106">
        <ele>5.6</ele>
        <time>2024-11-10T11:57:37Z</time>
      </trkpt>
      <trkpt lat="42.28871" lon="3.28106">
        <ele>5.6</ele>
        <time>2024-11-10T11:57:38Z</time>
      </trkpt>
      <trkpt lat="42.28871" lon="3.28106">
        <ele>5.6</ele>
        <time>2024-11-10T11:57:39Z</time>
      </trkpt>
      <trkpt lat="42.28871" lon="3.28106">
        <ele>5.6</ele>
        <time>2024-11-10T11:57:40Z</time>
      </trkpt>
      <trkpt lat="42.28871" lon="3.28106">
        <ele>5.6</ele>
        <time>2024-11-10T11:57:41Z</time>
      </trkpt>
      <trkpt lat="42.28871" lon="3.28106">
        <ele>5.6</ele>
        <time>2024-11-10T11:57:42Z</time>
      </trkpt>
      <trkpt lat="42.28871" lon="3.28106">
        <ele>5.6</ele>
        <time>2024-11-10T11:57:43Z</time>
      </trkpt>
      <trkpt lat="42.28871" lon="3.28106">
        <ele>5.6</ele>
        <time>2024-11-10T11:57:44Z</time>
      </trkpt>
      <trkpt lat="42.28871" lon="3.28106">
        <ele>5.6</ele>
        <time>2024-11-10T11:57:45Z</time>
      </trkpt>
      <trkpt lat="42.28871" lon="3.28106">
        <ele>5.6</ele>
        <time>2024-11-10T11:57:46Z</time>
      </trkpt>
      <trkpt lat="42.28871" lon="3.28106">
        <ele>5.6</ele>
        <time>2024-11-10T11:57:47Z</time>
      </trkpt>
      <trkpt lat="42.28871" lon="3.28106">
        <ele>5.6</ele>
        <time>2024-11-10T11:57:48Z</time>
      </trkpt>
      <trkpt lat="42.28871" lon="3.28106">
        <ele>5.6</ele>
        <time>2024-11-10T11:57:49Z</time>
      </trkpt>
      <trkpt lat="42.28871" lon="3.28106">
        <ele>5.6</ele>
        <time>2024-11-10T11:57:50Z</time>
      </trkpt>
      <trkpt lat="42.28871" lon="3.28106">
        <ele>5.6</ele>
        <time>2024-11-10T11:57:51Z</time>
      </trkpt>
      <trkpt lat="42.28871" lon="3.28106">
        <ele>5.6</ele>
        <time>2024-11-10T11:57:52Z</time>
      </trkpt>
      <trkpt lat="42.28871" lon="3.28106">
        <ele>5.6</ele>
        <time>2024-11-10T11:57:53Z</time>
      </trkpt>
      <trkpt lat="42.28871" lon="3.28106">
        <ele>5.6</ele>
        <time>2024-11-10T11:57:54Z</time>
      </trkpt>
      <trkpt lat="42.28871" lon="3.28106">
        <ele>5.6</ele>
        <time>2024-11-10T11:57:55Z</time>
      </trkpt>
      <trkpt lat="42.28871" lon="3.28106">
        <ele>5.6</ele>
        <time>2024-11-10T11:57:56Z</time>
      </trkpt>
      <trkpt lat="42.28871" lon="3.28106">
        <ele>5.6</ele>
        <time>2024-11-10T11:57:57Z</time>
      </trkpt>
      <trkpt lat="42.28871" lon="3.28106">
        <ele>5.6</ele>
        <time>2024-11-10T11:57:58Z</time>
      </trkpt>
      <trkpt lat="42.28871" lon="3.28106">
        <ele>5.6</ele>
        <time>2024-11-10T11:57:59Z</time>
      </trkpt>
      <trkpt lat="42.28871" lon="3.28106">
        <ele>5.6</ele>
        <time>2024-11-10T11:58:00Z</time>
      </trkpt>
      <trkpt lat="42.28871" lon="3.28106">
        <ele>5.6</ele>
        <time>2024-11-10T11:58:01Z</time>
      </trkpt>
      <trkpt lat="42.28871" lon="3.28106">
        <ele>5.6</ele>
        <time>2024-11-10T11:58:02Z</time>
      </trkpt>
      <trkpt lat="42.28871" lon="3.28106">
        <ele>5.6</ele>
        <time>2024-11-10T11:58:03Z</time>
      </trkpt>
      <trkpt lat="42.28871" lon="3.28106">
        <ele>5.6</ele>
        <time>2024-11-10T11:58:04Z</time>
      </trkpt>
      <trkpt lat="42.28871" lon="3.28106">
        <ele>5.6</ele>
        <time>2024-11-10T11:58:05Z</time>
      </trkpt>
      <trkpt lat="42.28871" lon="3.28106">
        <ele>5.6</ele>
        <time>2024-11-10T11:58:06Z</time>
      </trkpt>
      <trkpt lat="42.28871" lon="3.28106">
        <ele>5.6</ele>
        <time>2024-11-10T11:58:07Z</time>
      </trkpt>
      <trkpt lat="42.28871" lon="3.28106">
        <ele>5.6</ele>
        <time>2024-11-10T11:58:08Z</time>
      </trkpt>
      <trkpt lat="42.28871" lon="3.28106">
        <ele>5.6</ele>
        <time>2024-11-10T11:58:09Z</time>
      </trkpt>
      <trkpt lat="42.28871" lon="3.28106">
        <ele>5.6</ele>
        <time>2024-11-10T11:58:10Z</time>
      </trkpt>
      <trkpt lat="42.28871" lon="3.28106">
        <ele>5.6</ele>
        <time>2024-11-10T11:58:11Z</time>
      </trkpt>
      <trkpt lat="42.28871" lon="3.28106">
        <ele>5.6</ele>
        <time>2024-11-10T11:58:12Z</time>
      </trkpt>
      <trkpt lat="42.28871" lon="3.28106">
        <ele>5.6</ele>
        <time>2024-11-10T11:58:13Z</time>
      </trkpt>
      <trkpt lat="42.28871" lon="3.28106">
        <ele>5.6</ele>
        <time>2024-11-10T11:58:14Z</time>
      </trkpt>
      <trkpt lat="42.28871" lon="3.28106">
        <ele>5.6</ele>
        <time>2024-11-10T11:58:15Z</time>
      </trkpt>
      <trkpt lat="42.28871" lon="3.28106">
        <ele>5.6</ele>
        <time>2024-11-10T11:58:16Z</time>
      </trkpt>
      <trkpt lat="42.28871" lon="3.28106">
        <ele>5.6</ele>
        <time>2024-11-10T11:58:17Z</time>
      </trkpt>
      <trkpt lat="42.28871" lon="3.28106">
        <ele>5.6</ele>
        <time>2024-11-10T11:58:18Z</time>
      </trkpt>
      <trkpt lat="42.28871" lon="3.28106">
        <ele>5.6</ele>
        <time>2024-11-10T11:58:19Z</time>
      </trkpt>
      <trkpt lat="42.28871" lon="3.28106">
        <ele>5.6</ele>
        <time>2024-11-10T11:58:20Z</time>
      </trkpt>
      <trkpt lat="42.28871" lon="3.28106">
        <ele>5.6</ele>
        <time>2024-11-10T11:58:21Z</time>
      </trkpt>
      <trkpt lat="42.28871" lon="3.28106">
        <ele>5.6</ele>
        <time>2024-11-10T11:58:22Z</time>
      </trkpt>
      <trkpt lat="42.28871" lon="3.28106">
        <ele>5.6</ele>
        <time>2024-11-10T11:58:23Z</time>
      </trkpt>
      <trkpt lat="42.28871" lon="3.28106">
        <ele>5.6</ele>
        <time>2024-11-10T11:58:24Z</time>
      </trkpt>
      <trkpt lat="42.28871" lon="3.28106">
        <ele>5.6</ele>
        <time>2024-11-10T11:58:25Z</time>
      </trkpt>
      <trkpt lat="42.28871" lon="3.28106">
        <ele>5.6</ele>
        <time>2024-11-10T11:58:26Z</time>
      </trkpt>
      <trkpt lat="42.28871" lon="3.28106">
        <ele>5.6</ele>
        <time>2024-11-10T11:58:27Z</time>
      </trkpt>
      <trkpt lat="42.28871" lon="3.28106">
        <ele>5.6</ele>
        <time>2024-11-10T11:58:28Z</time>
      </trkpt>
      <trkpt lat="42.28871" lon="3.28106">
        <ele>5.6</ele>
        <time>2024-11-10T11:58:29Z</time>
      </trkpt>
      <trkpt lat="42.28871" lon="3.28106">
        <ele>5.6</ele>
        <time>2024-11-10T11:58:30Z</time>
      </trkpt>
      <trkpt lat="42.28871" lon="3.28106">
        <ele>5.6</ele>
        <time>2024-11-10T11:58:31Z</time>
      </trkpt>
      <trkpt lat="42.28871" lon="3.28106">
        <ele>5.6</ele>
        <time>2024-11-10T11:58:32Z</time>
      </trkpt>
      <trkpt lat="42.28871" lon="3.28106">
        <ele>5.6</ele>
        <time>2024-11-10T11:58:33Z</time>
      </trkpt>
      <trkpt lat="42.28871" lon="3.28106">
        <ele>5.6</ele>
        <time>2024-11-10T11:58:34Z</time>
      </trkpt>
      <trkpt lat="42.28871" lon="3.28106">
        <ele>5.6</ele>
        <time>2024-11-10T11:58:35Z</time>
      </trkpt>
      <trkpt lat="42.28871" lon="3.28106">
        <ele>5.6</ele>
        <time>2024-11-10T11:58:36Z</time>
      </trkpt>
      <trkpt lat="42.28871" lon="3.28106">
        <ele>5.6</ele>
        <time>2024-11-10T11:58:37Z</time>
      </trkpt>
      <trkpt lat="42.28871" lon="3.28106">
        <ele>5.6</ele>
        <time>2024-11-10T11:58:38Z</time>
      </trkpt>
      <trkpt lat="42.28871" lon="3.28106">
        <ele>5.6</ele>
        <time>2024-11-10T11:58:39Z</time>
      </trkpt>
      <trkpt lat="42.28871" lon="3.28106">
        <ele>5.6</ele>
        <time>2024-11-10T11:58:40Z</time>
      </trkpt>
      <trkpt lat="42.28871" lon="3.28106">
        <ele>5.6</ele>
        <time>2024-11-10T11:58:41Z</time>
      </trkpt>
      <trkpt lat="42.28871" lon="3.28106">
        <ele>5.6</ele>
        <time>2024-11-10T11:58:42Z</time>
      </trkpt>
      <trkpt lat="42.28871" lon="3.28106">
        <ele>5.6</ele>
        <time>2024-11-10T11:58:43Z</time>
      </trkpt>
      <trkpt lat="42.28871" lon="3.28106">
        <ele>5.6</ele>
        <time>2024-11-10T11:58:44Z</time>
      </trkpt>
      <trkpt lat="42.28871" lon="3.28106">
        <ele>5.6</ele>
        <time>2024-11-10T11:58:45Z</time>
      </trkpt>
      <trkpt lat="42.28871" lon="3.28106">
        <ele>5.6</ele>
        <time>2024-11-10T11:58:46Z</time>
      </trkpt>
      <trkpt lat="42.28871" lon="3.28106">
        <ele>5.6</ele>
        <time>2024-11-10T11:58:47Z</time>
      </trkpt>
      <trkpt lat="42.28871" lon="3.28106">
        <ele>5.6</ele>
        <time>2024-11-10T11:58:48Z</time>
      </trkpt>
      <trkpt lat="42.28871" lon="3.28106">
        <ele>5.6</ele>
        <time>2024-11-10T11:58:49Z</time>
      </trkpt>
      <trkpt lat="42.28871" lon="3.28106">
        <ele>5.6</ele>
        <time>2024-11-10T11:58:50Z</time>
      </trkpt>
      <trkpt lat="42.28871" lon="3.28106">
        <ele>5.6</ele>
        <time>2024-11-10T11:58:51Z</time>
      </trkpt>
      <trkpt lat="42.28871" lon="3.28106">
        <ele>5.6</ele>
        <time>2024-11-10T11:58:52Z</time>
      </trkpt>
      <trkpt lat="42.28871" lon="3.28106">
        <ele>5.6</ele>
        <time>2024-11-10T11:58:53Z</time>
      </trkpt>
      <trkpt lat="42.28871" lon="3.28106">
        <ele>5.6</ele>
        <time>2024-11-10T11:58:54Z</time>
      </trkpt>
      <trkpt lat="42.28871" lon="3.28106">
        <ele>5.6</ele>
        <time>2024-11-10T11:58:55Z</time>
      </trkpt>
      <trkpt lat="42.28871" lon="3.28106">
        <ele>5.6</ele>
        <time>2024-11-10T11:58:56Z</time>
      </trkpt>
      <trkpt lat="42.28871" lon="3.28106">
        <ele>5.6</ele>
        <time>2024-11-10T11:58:57Z</time>
      </trkpt>
      <trkpt lat="42.28871" lon="3.28106">
        <ele>5.6</ele>
        <time>2024-11-10T11:58:58Z</time>
      </trkpt>
      <trkpt lat="42.28871" lon="3.28106">
        <ele>5.6</ele>
        <time>2024-11-10T11:58:59Z</time>
      </trkpt>
      <trkpt lat="42.28871" lon="3.28106">
        <ele>5.6</ele>
        <time>2024-11-10T11:59:00Z</time>
      </trkpt>
      <trkpt lat="42.28871" lon="3.28106">
        <ele>5.6</ele>
        <time>2024-11-10T11:59:01Z</time>
      </trkpt>
      <trkpt lat="42.28871" lon="3.28106">
        <ele>5.6</ele>
        <time>2024-11-10T11:59:02Z</time>
      </trkpt>
      <trkpt lat="42.28871" lon="3.28106">
        <ele>5.6</ele>
        <time>2024-11-10T11:59:03Z</time>
      </trkpt>
      <trkpt lat="42.28871" lon="3.28106">
        <ele>5.6</ele>
        <time>2024-11-10T11:59:04Z</time>
      </trkpt>
      <trkpt lat="42.28871" lon="3.28106">
        <ele>5.6</ele>
        <time>2024-11-10T11:59:05Z</time>
      </trkpt>
      <trkpt lat="42.28871" lon="3.28106">
        <ele>5.6</ele>
        <time>2024-11-10T11:59:06Z</time>
      </trkpt>
      <trkpt lat="42.28871" lon="3.28106">
        <ele>5.6</ele>
        <time>2024-11-10T11:59:07Z</time>
      </trkpt>
      <trkpt lat="42.28871" lon="3.28106">
        <ele>5.6</ele>
        <time>2024-11-10T11:59:08Z</time>
      </trkpt>
      <trkpt lat="42.28871" lon="3.28106">
        <ele>5.6</ele>
        <time>2024-11-10T11:59:09Z</time>
      </trkpt>
      <trkpt lat="42.28871" lon="3.28106">
        <ele>5.6</ele>
        <time>2024-11-10T11:59:10Z</time>
      </trkpt>
      <trkpt lat="42.28871" lon="3.28106">
        <ele>5.6</ele>
        <time>2024-11-10T11:59:11Z</time>
      </trkpt>
      <trkpt lat="42.28871" lon="3.28106">
        <ele>5.6</ele>
        <time>2024-11-10T11:59:12Z</time>
      </trkpt>
      <trkpt lat="42.28871" lon="3.28106">
        <ele>5.6</ele>
        <time>2024-11-10T11:59:13Z</time>
      </trkpt>
      <trkpt lat="42.28871" lon="3.28106">
        <ele>5.6</ele>
        <time>2024-11-10T11:59:14Z</time>
      </trkpt>
      <trkpt lat="42.28871" lon="3.28106">
        <ele>5.6</ele>
        <time>2024-11-10T11:59:15Z</time>
      </trkpt>
      <trkpt lat="42.28871" lon="3.28106">
        <ele>5.6</ele>
        <time>2024-11-10T11:59:16Z</time>
      </trkpt>
      <trkpt lat="42.28871" lon="3.28106">
        <ele>5.6</ele>
        <time>2024-11-10T11:59:17Z</time>
      </trkpt>
      <trkpt lat="42.28871" lon="3.28106">
        <ele>5.6</ele>
        <time>2024-11-10T11:59:18Z</time>
      </trkpt>
      <trkpt lat="42.28871" lon="3.28106">
        <ele>5.6</ele>
        <time>2024-11-10T11:59:19Z</time>
      </trkpt>
      <trkpt lat="42.28871" lon="3.28106">
        <ele>5.6</ele>
        <time>2024-11-10T11:59:20Z</time>
      </trkpt>
      <trkpt lat="42.28871" lon="3.28106">
        <ele>5.6</ele>
        <time>2024-11-10T11:59:21Z</time>
      </trkpt>
      <trkpt lat="42.28871" lon="3.28106">
        <ele>5.6</ele>
        <time>2024-11-10T11:59:22Z</time>
      </trkpt>
      <trkpt lat="42.28871" lon="3.28106">
        <ele>5.6</ele>
        <time>2024-11-10T11:59:23Z</time>
      </trkpt>
      <trkpt lat="42.28871" lon="3.28106">
        <ele>5.6</ele>
        <time>2024-11-10T11:59:24Z</time>
      </trkpt>
      <trkpt lat="42.28871" lon="3.28106">
        <ele>5.6</ele>
        <time>2024-11-10T11:59:25Z</time>
      </trkpt>
      <trkpt lat="42.28871" lon="3.28106">
        <ele>5.6</ele>
        <time>2024-11-10T11:59:26Z</time>
      </trkpt>
      <trkpt lat="42.28871" lon="3.28106">
        <ele>5.6</ele>
        <time>2024-11-10T11:59:27Z</time>
      </trkpt>
      <trkpt lat="42.28871" lon="3.28106">
        <ele>5.6</ele>
        <time>2024-11-10T11:59:28Z</time>
      </trkpt>
      <trkpt lat="42.28871" lon="3.28106">
        <ele>5.6</ele>
        <time>2024-11-10T11:59:29Z</time>
      </trkpt>
      <trkpt lat="42.28871" lon="3.28106">
        <ele>5.6</ele>
        <time>2024-11-10T11:59:30Z</time>
      </trkpt>
      <trkpt lat="42.28871" lon="3.28106">
        <ele>5.6</ele>
        <time>2024-11-10T11:59:31Z</time>
      </trkpt>
      <trkpt lat="42.28871" lon="3.28106">
        <ele>5.6</ele>
        <time>2024-11-10T11:59:32Z</time>
      </trkpt>
      <trkpt lat="42.28871" lon="3.28106">
        <ele>5.6</ele>
        <time>2024-11-10T11:59:33Z</time>
      </trkpt>
      <trkpt lat="42.28871" lon="3.28106">
        <ele>5.6</ele>
        <time>2024-11-10T11:59:34Z</time>
      </trkpt>
      <trkpt lat="42.28871" lon="3.28106">
        <ele>5.6</ele>
        <time>2024-11-10T11:59:35Z</time>
      </trkpt>
      <trkpt lat="42.28871" lon="3.28106">
        <ele>5.6</ele>
        <time>2024-11-10T11:59:36Z</time>
      </trkpt>
      <trkpt lat="42.28871" lon="3.28106">
        <ele>5.6</ele>
        <time>2024-11-10T11:59:37Z</time>
      </trkpt>
      <trkpt lat="42.28871" lon="3.28106">
        <ele>5.6</ele>
        <time>2024-11-10T11:59:38Z</time>
      </trkpt>
      <trkpt lat="42.28871" lon="3.28106">
        <ele>5.6</ele>
        <time>2024-11-10T11:59:39Z</time>
      </trkpt>
      <trkpt lat="42.28871" lon="3.28106">
        <ele>5.6</ele>
        <time>2024-11-10T11:59:40Z</time>
      </trkpt>
      <trkpt lat="42.28871" lon="3.28106">
        <ele>5.6</ele>
        <time>2024-11-10T11:59:41Z</time>
      </trkpt>
      <trkpt lat="42.28871" lon="3.28106">
        <ele>5.6</ele>
        <time>2024-11-10T11:59:42Z</time>
      </trkpt>
      <trkpt lat="42.28871" lon="3.28106">
        <ele>5.6</ele>
        <time>2024-11-10T11:59:43Z</time>
      </trkpt>
      <trkpt lat="42.28871" lon="3.28106">
        <ele>5.6</ele>
        <time>2024-11-10T11:59:44Z</time>
      </trkpt>
      <trkpt lat="42.28871" lon="3.28106">
        <ele>5.6</ele>
        <time>2024-11-10T11:59:45Z</time>
      </trkpt>
      <trkpt lat="42.28871" lon="3.28106">
        <ele>5.6</ele>
        <time>2024-11-10T11:59:46Z</time>
      </trkpt>
      <trkpt lat="42.28871" lon="3.28106">
        <ele>5.6</ele>
        <time>2024-11-10T11:59:47Z</time>
      </trkpt>
      <trkpt lat="42.28871" lon="3.28106">
        <ele>5.6</ele>
        <time>2024-11-10T11:59:48Z</time>
      </trkpt>
      <trkpt lat="42.28871" lon="3.28106">
        <ele>5.6</ele>
        <time>2024-11-10T11:59:49Z</time>
      </trkpt>
      <trkpt lat="42.28871" lon="3.28106">
        <ele>5.6</ele>
        <time>2024-11-10T11:59:50Z</time>
      </trkpt>
      <trkpt lat="42.28871" lon="3.28106">
        <ele>5.6</ele>
        <time>2024-11-10T11:59:51Z</time>
      </trkpt>
      <trkpt lat="42.28871" lon="3.28106">
        <ele>5.6</ele>
        <time>2024-11-10T11:59:52Z</time>
      </trkpt>
      <trkpt lat="42.28871" lon="3.28106">
        <ele>5.6</ele>
        <time>2024-11-10T11:59:53Z</time>
      </trkpt>
      <trkpt lat="42.28871" lon="3.28106">
        <ele>5.6</ele>
        <time>2024-11-10T11:59:54Z</time>
      </trkpt>
      <trkpt lat="42.28871" lon="3.28106">
        <ele>5.6</ele>
        <time>2024-11-10T11:59:55Z</time>
      </trkpt>
      <trkpt lat="42.28871" lon="3.28106">
        <ele>5.6</ele>
        <time>2024-11-10T11:59:56Z</time>
      </trkpt>
      <trkpt lat="42.28871" lon="3.28106">
        <ele>5.6</ele>
        <time>2024-11-10T11:59:57Z</time>
      </trkpt>
      <trkpt lat="42.28871" lon="3.28106">
        <ele>5.6</ele>
        <time>2024-11-10T11:59:58Z</time>
      </trkpt>
      <trkpt lat="42.28871" lon="3.28106">
        <ele>5.6</ele>
        <time>2024-11-10T11:59:59Z</time>
      </trkpt>
      <trkpt lat="42.28871" lon="3.28106">
        <ele>5.6</ele>
        <time>2024-11-10T12:00:00Z</time>
      </trkpt>
      <trkpt lat="42.28871" lon="3.28106">
        <ele>5.6</ele>
        <time>2024-11-10T12:00:01Z</time>
      </trkpt>
      <trkpt lat="42.28871" lon="3.28106">
        <ele>5.6</ele>
        <time>2024-11-10T12:00:02Z</time>
      </trkpt>
      <trkpt lat="42.28871" lon="3.28106">
        <ele>5.6</ele>
        <time>2024-11-10T12:00:03Z</time>
      </trkpt>
      <trkpt lat="42.28871" lon="3.28106">
        <ele>5.6</ele>
        <time>2024-11-10T12:00:04Z</time>
      </trkpt>
      <trkpt lat="42.28871" lon="3.28106">
        <ele>5.6</ele>
        <time>2024-11-10T12:00:05Z</time>
      </trkpt>
      <trkpt lat="42.28871" lon="3.28106">
        <ele>5.6</ele>
        <time>2024-11-10T12:00:06Z</time>
      </trkpt>
      <trkpt lat="42.28871" lon="3.28106">
        <ele>5.6</ele>
        <time>2024-11-10T12:00:07Z</time>
      </trkpt>
      <trkpt lat="42.28871" lon="3.28106">
        <ele>5.6</ele>
        <time>2024-11-10T12:00:08Z</time>
      </trkpt>
      <trkpt lat="42.28871" lon="3.28106">
        <ele>5.6</ele>
        <time>2024-11-10T12:00:09Z</time>
      </trkpt>
      <trkpt lat="42.28871" lon="3.28106">
        <ele>5.6</ele>
        <time>2024-11-10T12:00:10Z</time>
      </trkpt>
      <trkpt lat="42.28871" lon="3.28106">
        <ele>5.6</ele>
        <time>2024-11-10T12:00:11Z</time>
      </trkpt>
      <trkpt lat="42.28871" lon="3.28106">
        <ele>5.6</ele>
        <time>2024-11-10T12:00:12Z</time>
      </trkpt>
      <trkpt lat="42.28871" lon="3.28106">
        <ele>5.6</ele>
        <time>2024-11-10T12:00:13Z</time>
      </trkpt>
      <trkpt lat="42.28871" lon="3.28106">
        <ele>5.6</ele>
        <time>2024-11-10T12:00:14Z</time>
      </trkpt>
      <trkpt lat="42.28871" lon="3.28106">
        <ele>5.6</ele>
        <time>2024-11-10T12:00:15Z</time>
      </trkpt>
      <trkpt lat="42.28871" lon="3.28106">
        <ele>5.6</ele>
        <time>2024-11-10T12:00:16Z</time>
      </trkpt>
      <trkpt lat="42.28871" lon="3.28106">
        <ele>5.6</ele>
        <time>2024-11-10T12:00:17Z</time>
      </trkpt>
      <trkpt lat="42.28871" lon="3.28106">
        <ele>5.6</ele>
        <time>2024-11-10T12:00:18Z</time>
      </trkpt>
      <trkpt lat="42.28871" lon="3.28106">
        <ele>5.6</ele>
        <time>2024-11-10T12:00:19Z</time>
      </trkpt>
      <trkpt lat="42.28871" lon="3.28106">
        <ele>5.6</ele>
        <time>2024-11-10T12:00:20Z</time>
      </trkpt>
      <trkpt lat="42.28871" lon="3.28106">
        <ele>5.6</ele>
        <time>2024-11-10T12:00:21Z</time>
      </trkpt>
      <trkpt lat="42.28871" lon="3.28106">
        <ele>5.6</ele>
        <time>2024-11-10T12:00:22Z</time>
      </trkpt>
      <trkpt lat="42.28871" lon="3.28106">
        <ele>5.6</ele>
        <time>2024-11-10T12:00:23Z</time>
      </trkpt>
      <trkpt lat="42.28871" lon="3.28106">
        <ele>5.6</ele>
        <time>2024-11-10T12:00:24Z</time>
      </trkpt>
      <trkpt lat="42.28871" lon="3.28106">
        <ele>5.6</ele>
        <time>2024-11-10T12:00:25Z</time>
      </trkpt>
      <trkpt lat="42.28871" lon="3.28106">
        <ele>5.6</ele>
        <time>2024-11-10T12:00:26Z</time>
      </trkpt>
      <trkpt lat="42.28871" lon="3.28106">
        <ele>5.6</ele>
        <time>2024-11-10T12:00:27Z</time>
      </trkpt>
      <trkpt lat="42.28871" lon="3.28105">
        <ele>5.6</ele>
        <time>2024-11-10T12:00:28Z</time>
      </trkpt>
      <trkpt lat="42.28871" lon="3.28105">
        <ele>5.6</ele>
        <time>2024-11-10T12:00:29Z</time>
      </trkpt>
      <trkpt lat="42.28871" lon="3.28105">
        <ele>5.6</ele>
        <time>2024-11-10T12:00:30Z</time>
      </trkpt>
      <trkpt lat="42.28871" lon="3.28105">
        <ele>5.6</ele>
        <time>2024-11-10T12:00:31Z</time>
      </trkpt>
      <trkpt lat="42.28872" lon="3.28104">
        <ele>5.6</ele>
        <time>2024-11-10T12:00:32Z</time>
      </trkpt>
      <trkpt lat="42.28872" lon="3.28104">
        <ele>5.6</ele>
        <time>2024-11-10T12:00:33Z</time>
      </trkpt>
      <trkpt lat="42.28872" lon="3.28104">
        <ele>5.6</ele>
        <time>2024-11-10T12:00:34Z</time>
      </trkpt>
      <trkpt lat="42.28871" lon="3.28105">
        <ele>5.6</ele>
        <time>2024-11-10T12:00:35Z</time>
      </trkpt>
      <trkpt lat="42.28871" lon="3.28106">
        <ele>5.6</ele>
        <time>2024-11-10T12:00:36Z</time>
      </trkpt>
      <trkpt lat="42.28871" lon="3.28106">
        <ele>5.6</ele>
        <time>2024-11-10T12:00:37Z</time>
      </trkpt>
      <trkpt lat="42.28871" lon="3.28106">
        <ele>5.6</ele>
        <time>2024-11-10T12:00:38Z</time>
      </trkpt>
      <trkpt lat="42.28871" lon="3.28106">
        <ele>5.6</ele>
        <time>2024-11-10T12:00:39Z</time>
      </trkpt>
      <trkpt lat="42.28871" lon="3.28106">
        <ele>5.6</ele>
        <time>2024-11-10T12:00:40Z</time>
      </trkpt>
      <trkpt lat="42.28871" lon="3.28106">
        <ele>5.6</ele>
        <time>2024-11-10T12:00:41Z</time>
      </trkpt>
      <trkpt lat="42.28871" lon="3.28106">
        <ele>5.6</ele>
        <time>2024-11-10T12:00:42Z</time>
      </trkpt>
      <trkpt lat="42.28871" lon="3.28106">
        <ele>5.6</ele>
        <time>2024-11-10T12:00:43Z</time>
      </trkpt>
      <trkpt lat="42.28871" lon="3.28106">
        <ele>5.6</ele>
        <time>2024-11-10T12:00:44Z</time>
      </trkpt>
      <trkpt lat="42.28871" lon="3.28106">
        <ele>5.6</ele>
        <time>2024-11-10T12:00:45Z</time>
      </trkpt>
      <trkpt lat="42.28871" lon="3.28106">
        <ele>5.6</ele>
        <time>2024-11-10T12:00:46Z</time>
      </trkpt>
      <trkpt lat="42.28871" lon="3.28106">
        <ele>5.6</ele>
        <time>2024-11-10T12:00:47Z</time>
      </trkpt>
      <trkpt lat="42.28871" lon="3.28106">
        <ele>5.6</ele>
        <time>2024-11-10T12:00:48Z</time>
      </trkpt>
      <trkpt lat="42.28871" lon="3.28106">
        <ele>5.6</ele>
        <time>2024-11-10T12:00:49Z</time>
      </trkpt>
      <trkpt lat="42.28871" lon="3.28106">
        <ele>5.6</ele>
        <time>2024-11-10T12:00:50Z</time>
      </trkpt>
      <trkpt lat="42.28871" lon="3.28106">
        <ele>5.6</ele>
        <time>2024-11-10T12:00:51Z</time>
      </trkpt>
      <trkpt lat="42.28871" lon="3.28106">
        <ele>5.6</ele>
        <time>2024-11-10T12:00:52Z</time>
      </trkpt>
      <trkpt lat="42.28871" lon="3.28106">
        <ele>5.6</ele>
        <time>2024-11-10T12:00:53Z</time>
      </trkpt>
      <trkpt lat="42.28871" lon="3.28106">
        <ele>5.6</ele>
        <time>2024-11-10T12:00:54Z</time>
      </trkpt>
      <trkpt lat="42.28871" lon="3.28106">
        <ele>5.6</ele>
        <time>2024-11-10T12:00:55Z</time>
      </trkpt>
      <trkpt lat="42.28871" lon="3.28106">
        <ele>5.6</ele>
        <time>2024-11-10T12:00:56Z</time>
      </trkpt>
      <trkpt lat="42.28871" lon="3.28106">
        <ele>5.6</ele>
        <time>2024-11-10T12:00:57Z</time>
      </trkpt>
      <trkpt lat="42.28871" lon="3.28106">
        <ele>5.6</ele>
        <time>2024-11-10T12:00:58Z</time>
      </trkpt>
      <trkpt lat="42.28871" lon="3.28106">
        <ele>5.6</ele>
        <time>2024-11-10T12:00:59Z</time>
      </trkpt>
      <trkpt lat="42.28871" lon="3.28106">
        <ele>5.6</ele>
        <time>2024-11-10T12:01:00Z</time>
      </trkpt>
      <trkpt lat="42.28871" lon="3.28106">
        <ele>5.6</ele>
        <time>2024-11-10T12:01:01Z</time>
      </trkpt>
      <trkpt lat="42.28871" lon="3.28106">
        <ele>5.6</ele>
        <time>2024-11-10T12:01:02Z</time>
      </trkpt>
      <trkpt lat="42.28871" lon="3.28106">
        <ele>5.6</ele>
        <time>2024-11-10T12:01:03Z</time>
      </trkpt>
      <trkpt lat="42.28871" lon="3.28106">
        <ele>5.6</ele>
        <time>2024-11-10T12:01:04Z</time>
      </trkpt>
      <trkpt lat="42.28871" lon="3.28106">
        <ele>5.6</ele>
        <time>2024-11-10T12:01:05Z</time>
      </trkpt>
      <trkpt lat="42.28871" lon="3.28106">
        <ele>5.6</ele>
        <time>2024-11-10T12:01:06Z</time>
      </trkpt>
      <trkpt lat="42.28871" lon="3.28106">
        <ele>5.6</ele>
        <time>2024-11-10T12:01:07Z</time>
      </trkpt>
      <trkpt lat="42.28871" lon="3.28106">
        <ele>5.6</ele>
        <time>2024-11-10T12:01:08Z</time>
      </trkpt>
      <trkpt lat="42.28871" lon="3.28106">
        <ele>5.6</ele>
        <time>2024-11-10T12:01:09Z</time>
      </trkpt>
      <trkpt lat="42.28871" lon="3.28106">
        <ele>5.6</ele>
        <time>2024-11-10T12:01:10Z</time>
      </trkpt>
      <trkpt lat="42.28871" lon="3.28106">
        <ele>5.6</ele>
        <time>2024-11-10T12:01:11Z</time>
      </trkpt>
      <trkpt lat="42.28871" lon="3.28106">
        <ele>5.6</ele>
        <time>2024-11-10T12:01:12Z</time>
      </trkpt>
      <trkpt lat="42.28871" lon="3.28106">
        <ele>5.6</ele>
        <time>2024-11-10T12:01:13Z</time>
      </trkpt>
      <trkpt lat="42.28871" lon="3.28106">
        <ele>5.6</ele>
        <time>2024-11-10T12:01:14Z</time>
      </trkpt>
      <trkpt lat="42.28871" lon="3.28106">
        <ele>5.6</ele>
        <time>2024-11-10T12:01:15Z</time>
      </trkpt>
      <trkpt lat="42.28871" lon="3.28106">
        <ele>5.6</ele>
        <time>2024-11-10T12:01:16Z</time>
      </trkpt>
      <trkpt lat="42.28871" lon="3.28106">
        <ele>5.6</ele>
        <time>2024-11-10T12:01:17Z</time>
      </trkpt>
      <trkpt lat="42.28871" lon="3.28106">
        <ele>5.6</ele>
        <time>2024-11-10T12:01:18Z</time>
      </trkpt>
      <trkpt lat="42.28871" lon="3.28106">
        <ele>5.6</ele>
        <time>2024-11-10T12:01:19Z</time>
      </trkpt>
      <trkpt lat="42.28871" lon="3.28106">
        <ele>5.6</ele>
        <time>2024-11-10T12:01:20Z</time>
      </trkpt>
      <trkpt lat="42.28871" lon="3.28106">
        <ele>5.6</ele>
        <time>2024-11-10T12:01:21Z</time>
      </trkpt>
      <trkpt lat="42.28871" lon="3.28106">
        <ele>5.6</ele>
        <time>2024-11-10T12:01:22Z</time>
      </trkpt>
      <trkpt lat="42.28871" lon="3.28106">
        <ele>5.6</ele>
        <time>2024-11-10T12:01:23Z</time>
      </trkpt>
      <trkpt lat="42.28871" lon="3.28106">
        <ele>5.6</ele>
        <time>2024-11-10T12:01:24Z</time>
      </trkpt>
      <trkpt lat="42.28871" lon="3.28106">
        <ele>5.6</ele>
        <time>2024-11-10T12:01:25Z</time>
      </trkpt>
      <trkpt lat="42.28871" lon="3.28106">
        <ele>5.6</ele>
        <time>2024-11-10T12:01:26Z</time>
      </trkpt>
      <trkpt lat="42.28871" lon="3.28106">
        <ele>5.6</ele>
        <time>2024-11-10T12:01:27Z</time>
      </trkpt>
      <trkpt lat="42.28871" lon="3.28106">
        <ele>5.6</ele>
        <time>2024-11-10T12:01:28Z</time>
      </trkpt>
      <trkpt lat="42.28871" lon="3.28106">
        <ele>5.6</ele>
        <time>2024-11-10T12:01:29Z</time>
      </trkpt>
      <trkpt lat="42.28871" lon="3.28106">
        <ele>5.6</ele>
        <time>2024-11-10T12:01:30Z</time>
      </trkpt>
      <trkpt lat="42.28871" lon="3.28106">
        <ele>5.6</ele>
        <time>2024-11-10T12:01:31Z</time>
      </trkpt>
      <trkpt lat="42.28871" lon="3.28106">
        <ele>5.6</ele>
        <time>2024-11-10T12:01:32Z</time>
      </trkpt>
      <trkpt lat="42.28871" lon="3.28106">
        <ele>5.6</ele>
        <time>2024-11-10T12:01:33Z</time>
      </trkpt>
      <trkpt lat="42.28871" lon="3.28106">
        <ele>5.6</ele>
        <time>2024-11-10T12:01:34Z</time>
      </trkpt>
      <trkpt lat="42.28871" lon="3.28106">
        <ele>5.6</ele>
        <time>2024-11-10T12:01:35Z</time>
      </trkpt>
      <trkpt lat="42.28871" lon="3.28106">
        <ele>5.6</ele>
        <time>2024-11-10T12:01:36Z</time>
      </trkpt>
      <trkpt lat="42.28871" lon="3.28106">
        <ele>5.6</ele>
        <time>2024-11-10T12:01:37Z</time>
      </trkpt>
      <trkpt lat="42.28871" lon="3.28106">
        <ele>5.6</ele>
        <time>2024-11-10T12:01:38Z</time>
      </trkpt>
      <trkpt lat="42.28871" lon="3.28106">
        <ele>5.6</ele>
        <time>2024-11-10T12:01:39Z</time>
      </trkpt>
      <trkpt lat="42.28871" lon="3.28106">
        <ele>5.6</ele>
        <time>2024-11-10T12:01:40Z</time>
      </trkpt>
      <trkpt lat="42.28871" lon="3.28106">
        <ele>5.6</ele>
        <time>2024-11-10T12:01:41Z</time>
      </trkpt>
      <trkpt lat="42.28871" lon="3.28106">
        <ele>5.6</ele>
        <time>2024-11-10T12:01:42Z</time>
      </trkpt>
      <trkpt lat="42.28871" lon="3.28106">
        <ele>5.6</ele>
        <time>2024-11-10T12:01:43Z</time>
      </trkpt>
      <trkpt lat="42.28871" lon="3.28106">
        <ele>5.6</ele>
        <time>2024-11-10T12:01:44Z</time>
      </trkpt>
      <trkpt lat="42.28871" lon="3.28106">
        <ele>5.6</ele>
        <time>2024-11-10T12:01:45Z</time>
      </trkpt>
      <trkpt lat="42.28871" lon="3.28106">
        <ele>5.6</ele>
        <time>2024-11-10T12:01:46Z</time>
      </trkpt>
      <trkpt lat="42.28871" lon="3.28106">
        <ele>5.6</ele>
        <time>2024-11-10T12:01:47Z</time>
      </trkpt>
      <trkpt lat="42.28871" lon="3.28106">
        <ele>5.6</ele>
        <time>2024-11-10T12:01:48Z</time>
      </trkpt>
      <trkpt lat="42.28871" lon="3.28106">
        <ele>5.6</ele>
        <time>2024-11-10T12:01:49Z</time>
      </trkpt>
      <trkpt lat="42.28871" lon="3.28106">
        <ele>5.6</ele>
        <time>2024-11-10T12:01:50Z</time>
      </trkpt>
      <trkpt lat="42.28871" lon="3.28106">
        <ele>5.6</ele>
        <time>2024-11-10T12:01:51Z</time>
      </trkpt>
      <trkpt lat="42.28871" lon="3.28106">
        <ele>5.6</ele>
        <time>2024-11-10T12:01:52Z</time>
      </trkpt>
      <trkpt lat="42.28871" lon="3.28106">
        <ele>5.6</ele>
        <time>2024-11-10T12:01:53Z</time>
      </trkpt>
      <trkpt lat="42.28871" lon="3.28106">
        <ele>5.6</ele>
        <time>2024-11-10T12:01:54Z</time>
      </trkpt>
      <trkpt lat="42.28871" lon="3.28106">
        <ele>5.6</ele>
        <time>2024-11-10T12:01:55Z</time>
      </trkpt>
      <trkpt lat="42.28871" lon="3.28106">
        <ele>5.6</ele>
        <time>2024-11-10T12:01:56Z</time>
      </trkpt>
      <trkpt lat="42.28871" lon="3.28106">
        <ele>5.6</ele>
        <time>2024-11-10T12:01:57Z</time>
      </trkpt>
      <trkpt lat="42.28871" lon="3.28106">
        <ele>5.6</ele>
        <time>2024-11-10T12:01:58Z</time>
      </trkpt>
      <trkpt lat="42.28871" lon="3.28106">
        <ele>5.6</ele>
        <time>2024-11-10T12:01:59Z</time>
      </trkpt>
      <trkpt lat="42.28871" lon="3.28106">
        <ele>5.6</ele>
        <time>2024-11-10T12:02:00Z</time>
      </trkpt>
      <trkpt lat="42.28871" lon="3.28106">
        <ele>5.6</ele>
        <time>2024-11-10T12:02:01Z</time>
      </trkpt>
      <trkpt lat="42.28871" lon="3.28106">
        <ele>5.6</ele>
        <time>2024-11-10T12:02:02Z</time>
      </trkpt>
      <trkpt lat="42.28871" lon="3.28106">
        <ele>5.6</ele>
        <time>2024-11-10T12:02:03Z</time>
      </trkpt>
      <trkpt lat="42.28871" lon="3.28106">
        <ele>5.6</ele>
        <time>2024-11-10T12:02:04Z</time>
      </trkpt>
      <trkpt lat="42.28871" lon="3.28106">
        <ele>5.6</ele>
        <time>2024-11-10T12:02:05Z</time>
      </trkpt>
      <trkpt lat="42.28871" lon="3.28106">
        <ele>5.6</ele>
        <time>2024-11-10T12:02:06Z</time>
      </trkpt>
      <trkpt lat="42.28871" lon="3.28106">
        <ele>5.6</ele>
        <time>2024-11-10T12:02:07Z</time>
      </trkpt>
      <trkpt lat="42.28871" lon="3.28106">
        <ele>5.6</ele>
        <time>2024-11-10T12:02:08Z</time>
      </trkpt>
      <trkpt lat="42.28871" lon="3.28106">
        <ele>5.6</ele>
        <time>2024-11-10T12:02:09Z</time>
      </trkpt>
      <trkpt lat="42.28871" lon="3.28106">
        <ele>5.6</ele>
        <time>2024-11-10T12:02:10Z</time>
      </trkpt>
      <trkpt lat="42.28871" lon="3.28106">
        <ele>5.6</ele>
        <time>2024-11-10T12:02:11Z</time>
      </trkpt>
      <trkpt lat="42.28871" lon="3.28106">
        <ele>5.6</ele>
        <time>2024-11-10T12:02:12Z</time>
      </trkpt>
      <trkpt lat="42.28871" lon="3.28106">
        <ele>5.6</ele>
        <time>2024-11-10T12:02:13Z</time>
      </trkpt>
      <trkpt lat="42.28871" lon="3.28106">
        <ele>5.6</ele>
        <time>2024-11-10T12:02:14Z</time>
      </trkpt>
      <trkpt lat="42.28871" lon="3.28106">
        <ele>5.6</ele>
        <time>2024-11-10T12:02:15Z</time>
      </trkpt>
      <trkpt lat="42.28871" lon="3.28106">
        <ele>5.6</ele>
        <time>2024-11-10T12:02:16Z</time>
      </trkpt>
      <trkpt lat="42.28871" lon="3.28106">
        <ele>5.6</ele>
        <time>2024-11-10T12:02:17Z</time>
      </trkpt>
      <trkpt lat="42.28871" lon="3.28106">
        <ele>5.6</ele>
        <time>2024-11-10T12:02:18Z</time>
      </trkpt>
      <trkpt lat="42.28871" lon="3.28106">
        <ele>5.6</ele>
        <time>2024-11-10T12:02:19Z</time>
      </trkpt>
      <trkpt lat="42.28871" lon="3.28106">
        <ele>5.6</ele>
        <time>2024-11-10T12:02:20Z</time>
      </trkpt>
      <trkpt lat="42.28871" lon="3.28106">
        <ele>5.6</ele>
        <time>2024-11-10T12:02:21Z</time>
      </trkpt>
      <trkpt lat="42.28871" lon="3.28106">
        <ele>5.6</ele>
        <time>2024-11-10T12:02:22Z</time>
      </trkpt>
      <trkpt lat="42.28871" lon="3.28106">
        <ele>5.6</ele>
        <time>2024-11-10T12:02:23Z</time>
      </trkpt>
      <trkpt lat="42.28871" lon="3.28106">
        <ele>5.6</ele>
        <time>2024-11-10T12:02:24Z</time>
      </trkpt>
      <trkpt lat="42.28871" lon="3.28106">
        <ele>5.6</ele>
        <time>2024-11-10T12:02:25Z</time>
      </trkpt>
      <trkpt lat="42.28871" lon="3.28106">
        <ele>5.6</ele>
        <time>2024-11-10T12:02:26Z</time>
      </trkpt>
      <trkpt lat="42.28871" lon="3.28106">
        <ele>5.6</ele>
        <time>2024-11-10T12:02:27Z</time>
      </trkpt>
      <trkpt lat="42.28871" lon="3.28106">
        <ele>5.6</ele>
        <time>2024-11-10T12:02:28Z</time>
      </trkpt>
      <trkpt lat="42.28871" lon="3.28106">
        <ele>5.6</ele>
        <time>2024-11-10T12:02:29Z</time>
      </trkpt>
      <trkpt lat="42.28871" lon="3.28106">
        <ele>5.6</ele>
        <time>2024-11-10T12:02:30Z</time>
      </trkpt>
      <trkpt lat="42.28871" lon="3.28106">
        <ele>5.6</ele>
        <time>2024-11-10T12:02:31Z</time>
      </trkpt>
      <trkpt lat="42.28871" lon="3.28106">
        <ele>5.6</ele>
        <time>2024-11-10T12:02:32Z</time>
      </trkpt>
      <trkpt lat="42.28871" lon="3.28106">
        <ele>5.6</ele>
        <time>2024-11-10T12:02:33Z</time>
      </trkpt>
      <trkpt lat="42.28871" lon="3.28106">
        <ele>5.6</ele>
        <time>2024-11-10T12:02:34Z</time>
      </trkpt>
      <trkpt lat="42.28871" lon="3.28106">
        <ele>5.6</ele>
        <time>2024-11-10T12:02:35Z</time>
      </trkpt>
      <trkpt lat="42.28871" lon="3.28106">
        <ele>5.6</ele>
        <time>2024-11-10T12:02:36Z</time>
      </trkpt>
      <trkpt lat="42.28871" lon="3.28106">
        <ele>5.6</ele>
        <time>2024-11-10T12:02:37Z</time>
      </trkpt>
      <trkpt lat="42.28871" lon="3.28106">
        <ele>5.6</ele>
        <time>2024-11-10T12:02:38Z</time>
      </trkpt>
      <trkpt lat="42.28871" lon="3.28106">
        <ele>5.6</ele>
        <time>2024-11-10T12:02:39Z</time>
      </trkpt>
      <trkpt lat="42.28871" lon="3.28106">
        <ele>5.6</ele>
        <time>2024-11-10T12:02:40Z</time>
      </trkpt>
      <trkpt lat="42.28871" lon="3.28106">
        <ele>5.6</ele>
        <time>2024-11-10T12:02:41Z</time>
      </trkpt>
      <trkpt lat="42.28871" lon="3.28106">
        <ele>5.6</ele>
        <time>2024-11-10T12:02:42Z</time>
      </trkpt>
      <trkpt lat="42.28871" lon="3.28106">
        <ele>5.6</ele>
        <time>2024-11-10T12:02:43Z</time>
      </trkpt>
      <trkpt lat="42.28871" lon="3.28106">
        <ele>5.6</ele>
        <time>2024-11-10T12:02:44Z</time>
      </trkpt>
      <trkpt lat="42.28871" lon="3.28105">
        <ele>5.6</ele>
        <time>2024-11-10T12:02:45Z</time>
      </trkpt>
      <trkpt lat="42.28871" lon="3.28105">
        <ele>5.6</ele>
        <time>2024-11-10T12:02:46Z</time>
      </trkpt>
      <trkpt lat="42.28871" lon="3.28105">
        <ele>5.6</ele>
        <time>2024-11-10T12:02:47Z</time>
      </trkpt>
      <trkpt lat="42.2887" lon="3.28105">
        <ele>5.6</ele>
        <time>2024-11-10T12:02:48Z</time>
      </trkpt>
      <trkpt lat="42.2887" lon="3.28105">
        <ele>5.6</ele>
        <time>2024-11-10T12:02:49Z</time>
      </trkpt>
      <trkpt lat="42.2887" lon="3.28105">
        <ele>5.6</ele>
        <time>2024-11-10T12:02:50Z</time>
      </trkpt>
      <trkpt lat="42.2887" lon="3.28105">
        <ele>5.6</ele>
        <time>2024-11-10T12:02:51Z</time>
      </trkpt>
      <trkpt lat="42.2887" lon="3.28105">
        <ele>5.6</ele>
        <time>2024-11-10T12:02:52Z</time>
      </trkpt>
      <trkpt lat="42.2887" lon="3.28105">
        <ele>5.6</ele>
        <time>2024-11-10T12:02:53Z</time>
      </trkpt>
      <trkpt lat="42.2887" lon="3.28105">
        <ele>5.6</ele>
        <time>2024-11-10T12:02:54Z</time>
      </trkpt>
      <trkpt lat="42.2887" lon="3.28105">
        <ele>5.6</ele>
        <time>2024-11-10T12:02:55Z</time>
      </trkpt>
      <trkpt lat="42.2887" lon="3.28105">
        <ele>5.6</ele>
        <time>2024-11-10T12:02:56Z</time>
      </trkpt>
      <trkpt lat="42.2887" lon="3.28105">
        <ele>5.6</ele>
        <time>2024-11-10T12:02:57Z</time>
      </trkpt>
      <trkpt lat="42.2887" lon="3.28105">
        <ele>5.6</ele>
        <time>2024-11-10T12:02:58Z</time>
      </trkpt>
      <trkpt lat="42.2887" lon="3.28105">
        <ele>5.6</ele>
        <time>2024-11-10T12:02:59Z</time>
      </trkpt>
      <trkpt lat="42.2887" lon="3.28105">
        <ele>5.6</ele>
        <time>2024-11-10T12:03:00Z</time>
      </trkpt>
      <trkpt lat="42.2887" lon="3.28105">
        <ele>5.6</ele>
        <time>2024-11-10T12:03:01Z</time>
      </trkpt>
      <trkpt lat="42.2887" lon="3.28105">
        <ele>5.6</ele>
        <time>2024-11-10T12:03:02Z</time>
      </trkpt>
      <trkpt lat="42.2887" lon="3.28105">
        <ele>5.6</ele>
        <time>2024-11-10T12:03:03Z</time>
      </trkpt>
      <trkpt lat="42.2887" lon="3.28105">
        <ele>5.6</ele>
        <time>2024-11-10T12:03:04Z</time>
      </trkpt>
      <trkpt lat="42.2887" lon="3.28105">
        <ele>5.6</ele>
        <time>2024-11-10T12:03:05Z</time>
      </trkpt>
      <trkpt lat="42.2887" lon="3.28105">
        <ele>5.6</ele>
        <time>2024-11-10T12:03:06Z</time>
      </trkpt>
      <trkpt lat="42.2887" lon="3.28105">
        <ele>5.6</ele>
        <time>2024-11-10T12:03:07Z</time>
      </trkpt>
      <trkpt lat="42.2887" lon="3.28105">
        <ele>5.6</ele>
        <time>2024-11-10T12:03:08Z</time>
      </trkpt>
      <trkpt lat="42.2887" lon="3.28105">
        <ele>5.6</ele>
        <time>2024-11-10T12:03:09Z</time>
      </trkpt>
      <trkpt lat="42.2887" lon="3.28105">
        <ele>5.6</ele>
        <time>2024-11-10T12:03:10Z</time>
      </trkpt>
      <trkpt lat="42.2887" lon="3.28105">
        <ele>5.6</ele>
        <time>2024-11-10T12:03:11Z</time>
      </trkpt>
      <trkpt lat="42.2887" lon="3.28105">
        <ele>5.6</ele>
        <time>2024-11-10T12:03:12Z</time>
      </trkpt>
      <trkpt lat="42.2887" lon="3.28105">
        <ele>5.6</ele>
        <time>2024-11-10T12:03:13Z</time>
      </trkpt>
      <trkpt lat="42.2887" lon="3.28105">
        <ele>5.6</ele>
        <time>2024-11-10T12:03:14Z</time>
      </trkpt>
      <trkpt lat="42.2887" lon="3.28105">
        <ele>5.6</ele>
        <time>2024-11-10T12:03:15Z</time>
      </trkpt>
      <trkpt lat="42.2887" lon="3.28105">
        <ele>5.6</ele>
        <time>2024-11-10T12:03:16Z</time>
      </trkpt>
      <trkpt lat="42.2887" lon="3.28105">
        <ele>5.6</ele>
        <time>2024-11-10T12:03:17Z</time>
      </trkpt>
      <trkpt lat="42.2887" lon="3.28105">
        <ele>5.6</ele>
        <time>2024-11-10T12:03:18Z</time>
      </trkpt>
      <trkpt lat="42.2887" lon="3.28105">
        <ele>5.6</ele>
        <time>2024-11-10T12:03:19Z</time>
      </trkpt>
      <trkpt lat="42.2887" lon="3.28105">
        <ele>5.6</ele>
        <time>2024-11-10T12:03:20Z</time>
      </trkpt>
      <trkpt lat="42.2887" lon="3.28105">
        <ele>5.6</ele>
        <time>2024-11-10T12:03:21Z</time>
      </trkpt>
      <trkpt lat="42.2887" lon="3.28105">
        <ele>5.6</ele>
        <time>2024-11-10T12:03:22Z</time>
      </trkpt>
      <trkpt lat="42.2887" lon="3.28105">
        <ele>5.6</ele>
        <time>2024-11-10T12:03:23Z</time>
      </trkpt>
      <trkpt lat="42.2887" lon="3.28105">
        <ele>5.6</ele>
        <time>2024-11-10T12:03:24Z</time>
      </trkpt>
      <trkpt lat="42.2887" lon="3.28105">
        <ele>5.6</ele>
        <time>2024-11-10T12:03:25Z</time>
      </trkpt>
      <trkpt lat="42.2887" lon="3.28105">
        <ele>5.6</ele>
        <time>2024-11-10T12:03:26Z</time>
      </trkpt>
      <trkpt lat="42.2887" lon="3.28105">
        <ele>5.6</ele>
        <time>2024-11-10T12:03:27Z</time>
      </trkpt>
      <trkpt lat="42.2887" lon="3.28105">
        <ele>5.6</ele>
        <time>2024-11-10T12:03:28Z</time>
      </trkpt>
      <trkpt lat="42.2887" lon="3.28105">
        <ele>5.6</ele>
        <time>2024-11-10T12:03:29Z</time>
      </trkpt>
      <trkpt lat="42.2887" lon="3.28105">
        <ele>5.6</ele>
        <time>2024-11-10T12:03:30Z</time>
      </trkpt>
      <trkpt lat="42.2887" lon="3.28105">
        <ele>5.6</ele>
        <time>2024-11-10T12:03:31Z</time>
      </trkpt>
      <trkpt lat="42.28871" lon="3.28105">
        <ele>5.6</ele>
        <time>2024-11-10T12:03:32Z</time>
      </trkpt>
      <trkpt lat="42.28871" lon="3.28105">
        <ele>5.6</ele>
        <time>2024-11-10T12:03:33Z</time>
      </trkpt>
      <trkpt lat="42.28871" lon="3.28105">
        <ele>5.6</ele>
        <time>2024-11-10T12:03:34Z</time>
      </trkpt>
      <trkpt lat="42.28871" lon="3.28104">
        <ele>5.6</ele>
        <time>2024-11-10T12:03:35Z</time>
      </trkpt>
      <trkpt lat="42.28871" lon="3.28104">
        <ele>5.6</ele>
        <time>2024-11-10T12:03:36Z</time>
      </trkpt>
      <trkpt lat="42.2887" lon="3.28104">
        <ele>5.6</ele>
        <time>2024-11-10T12:03:37Z</time>
      </trkpt>
      <trkpt lat="42.2887" lon="3.28104">
        <ele>5.6</ele>
        <time>2024-11-10T12:03:38Z</time>
      </trkpt>
      <trkpt lat="42.2887" lon="3.28104">
        <ele>5.6</ele>
        <time>2024-11-10T12:03:39Z</time>
      </trkpt>
      <trkpt lat="42.2887" lon="3.28104">
        <ele>5.6</ele>
        <time>2024-11-10T12:03:40Z</time>
      </trkpt>
      <trkpt lat="42.2887" lon="3.28104">
        <ele>5.6</ele>
        <time>2024-11-10T12:03:41Z</time>
      </trkpt>
      <trkpt lat="42.2887" lon="3.28104">
        <ele>5.6</ele>
        <time>2024-11-10T12:03:42Z</time>
      </trkpt>
      <trkpt lat="42.2887" lon="3.28104">
        <ele>5.6</ele>
        <time>2024-11-10T12:03:43Z</time>
      </trkpt>
      <trkpt lat="42.2887" lon="3.28104">
        <ele>5.6</ele>
        <time>2024-11-10T12:03:44Z</time>
      </trkpt>
      <trkpt lat="42.2887" lon="3.28104">
        <ele>5.6</ele>
        <time>2024-11-10T12:03:45Z</time>
      </trkpt>
      <trkpt lat="42.2887" lon="3.28104">
        <ele>5.6</ele>
        <time>2024-11-10T12:03:46Z</time>
      </trkpt>
      <trkpt lat="42.2887" lon="3.28104">
        <ele>5.6</ele>
        <time>2024-11-10T12:03:47Z</time>
      </trkpt>
      <trkpt lat="42.2887" lon="3.28104">
        <ele>5.6</ele>
        <time>2024-11-10T12:03:48Z</time>
      </trkpt>
      <trkpt lat="42.2887" lon="3.28104">
        <ele>5.6</ele>
        <time>2024-11-10T12:03:49Z</time>
      </trkpt>
      <trkpt lat="42.2887" lon="3.28104">
        <ele>5.6</ele>
        <time>2024-11-10T12:03:50Z</time>
      </trkpt>
      <trkpt lat="42.2887" lon="3.28104">
        <ele>5.6</ele>
        <time>2024-11-10T12:03:51Z</time>
      </trkpt>
      <trkpt lat="42.2887" lon="3.28104">
        <ele>5.6</ele>
        <time>2024-11-10T12:03:52Z</time>
      </trkpt>
      <trkpt lat="42.2887" lon="3.28104">
        <ele>5.6</ele>
        <time>2024-11-10T12:03:53Z</time>
      </trkpt>
      <trkpt lat="42.2887" lon="3.28104">
        <ele>5.6</ele>
        <time>2024-11-10T12:03:54Z</time>
      </trkpt>
      <trkpt lat="42.2887" lon="3.28104">
        <ele>5.6</ele>
        <time>2024-11-10T12:03:55Z</time>
      </trkpt>
      <trkpt lat="42.2887" lon="3.28104">
        <ele>5.6</ele>
        <time>2024-11-10T12:03:56Z</time>
      </trkpt>
      <trkpt lat="42.2887" lon="3.28104">
        <ele>5.6</ele>
        <time>2024-11-10T12:03:57Z</time>
      </trkpt>
      <trkpt lat="42.2887" lon="3.28104">
        <ele>5.6</ele>
        <time>2024-11-10T12:03:58Z</time>
      </trkpt>
      <trkpt lat="42.2887" lon="3.28104">
        <ele>5.6</ele>
        <time>2024-11-10T12:03:59Z</time>
      </trkpt>
      <trkpt lat="42.2887" lon="3.28104">
        <ele>5.6</ele>
        <time>2024-11-10T12:04:00Z</time>
      </trkpt>
      <trkpt lat="42.2887" lon="3.28104">
        <ele>5.6</ele>
        <time>2024-11-10T12:04:01Z</time>
      </trkpt>
      <trkpt lat="42.2887" lon="3.28104">
        <ele>5.6</ele>
        <time>2024-11-10T12:04:02Z</time>
      </trkpt>
      <trkpt lat="42.2887" lon="3.28104">
        <ele>5.6</ele>
        <time>2024-11-10T12:04:03Z</time>
      </trkpt>
      <trkpt lat="42.2887" lon="3.28104">
        <ele>5.6</ele>
        <time>2024-11-10T12:04:04Z</time>
      </trkpt>
      <trkpt lat="42.2887" lon="3.28104">
        <ele>5.6</ele>
        <time>2024-11-10T12:04:05Z</time>
      </trkpt>
      <trkpt lat="42.2887" lon="3.28104">
        <ele>5.6</ele>
        <time>2024-11-10T12:04:06Z</time>
      </trkpt>
      <trkpt lat="42.2887" lon="3.28104">
        <ele>5.6</ele>
        <time>2024-11-10T12:04:07Z</time>
      </trkpt>
      <trkpt lat="42.2887" lon="3.28104">
        <ele>5.6</ele>
        <time>2024-11-10T12:04:08Z</time>
      </trkpt>
      <trkpt lat="42.2887" lon="3.28104">
        <ele>5.6</ele>
        <time>2024-11-10T12:04:09Z</time>
      </trkpt>
      <trkpt lat="42.2887" lon="3.28104">
        <ele>5.6</ele>
        <time>2024-11-10T12:04:10Z</time>
      </trkpt>
      <trkpt lat="42.2887" lon="3.28104">
        <ele>5.6</ele>
        <time>2024-11-10T12:04:11Z</time>
      </trkpt>
      <trkpt lat="42.2887" lon="3.28104">
        <ele>5.6</ele>
        <time>2024-11-10T12:04:12Z</time>
      </trkpt>
      <trkpt lat="42.2887" lon="3.28104">
        <ele>5.6</ele>
        <time>2024-11-10T12:04:13Z</time>
      </trkpt>
      <trkpt lat="42.2887" lon="3.28104">
        <ele>5.6</ele>
        <time>2024-11-10T12:04:14Z</time>
      </trkpt>
      <trkpt lat="42.2887" lon="3.28104">
        <ele>5.6</ele>
        <time>2024-11-10T12:04:15Z</time>
      </trkpt>
      <trkpt lat="42.2887" lon="3.28104">
        <ele>5.6</ele>
        <time>2024-11-10T12:04:16Z</time>
      </trkpt>
      <trkpt lat="42.2887" lon="3.28104">
        <ele>5.6</ele>
        <time>2024-11-10T12:04:17Z</time>
      </trkpt>
      <trkpt lat="42.2887" lon="3.28104">
        <ele>5.6</ele>
        <time>2024-11-10T12:04:18Z</time>
      </trkpt>
      <trkpt lat="42.2887" lon="3.28104">
        <ele>5.6</ele>
        <time>2024-11-10T12:04:19Z</time>
      </trkpt>
      <trkpt lat="42.2887" lon="3.28104">
        <ele>5.6</ele>
        <time>2024-11-10T12:04:20Z</time>
      </trkpt>
      <trkpt lat="42.2887" lon="3.28104">
        <ele>5.6</ele>
        <time>2024-11-10T12:04:21Z</time>
      </trkpt>
      <trkpt lat="42.2887" lon="3.28104">
        <ele>5.6</ele>
        <time>2024-11-10T12:04:22Z</time>
      </trkpt>
      <trkpt lat="42.2887" lon="3.28104">
        <ele>5.6</ele>
        <time>2024-11-10T12:04:23Z</time>
      </trkpt>
      <trkpt lat="42.2887" lon="3.28104">
        <ele>5.6</ele>
        <time>2024-11-10T12:04:24Z</time>
      </trkpt>
      <trkpt lat="42.2887" lon="3.28104">
        <ele>5.6</ele>
        <time>2024-11-10T12:04:25Z</time>
      </trkpt>
      <trkpt lat="42.2887" lon="3.28104">
        <ele>5.6</ele>
        <time>2024-11-10T12:04:26Z</time>
      </trkpt>
      <trkpt lat="42.2887" lon="3.28104">
        <ele>5.6</ele>
        <time>2024-11-10T12:04:27Z</time>
      </trkpt>
      <trkpt lat="42.2887" lon="3.28104">
        <ele>5.6</ele>
        <time>2024-11-10T12:04:28Z</time>
      </trkpt>
      <trkpt lat="42.2887" lon="3.28104">
        <ele>5.6</ele>
        <time>2024-11-10T12:04:29Z</time>
      </trkpt>
      <trkpt lat="42.2887" lon="3.28104">
        <ele>5.6</ele>
        <time>2024-11-10T12:04:30Z</time>
      </trkpt>
      <trkpt lat="42.2887" lon="3.28104">
        <ele>5.6</ele>
        <time>2024-11-10T12:04:31Z</time>
      </trkpt>
      <trkpt lat="42.2887" lon="3.28104">
        <ele>5.6</ele>
        <time>2024-11-10T12:04:32Z</time>
      </trkpt>
      <trkpt lat="42.2887" lon="3.28104">
        <ele>5.6</ele>
        <time>2024-11-10T12:04:33Z</time>
      </trkpt>
      <trkpt lat="42.2887" lon="3.28104">
        <ele>5.6</ele>
        <time>2024-11-10T12:04:34Z</time>
      </trkpt>
      <trkpt lat="42.2887" lon="3.28104">
        <ele>5.6</ele>
        <time>2024-11-10T12:04:35Z</time>
      </trkpt>
      <trkpt lat="42.2887" lon="3.28104">
        <ele>5.6</ele>
        <time>2024-11-10T12:04:36Z</time>
      </trkpt>
      <trkpt lat="42.2887" lon="3.28104">
        <ele>5.6</ele>
        <time>2024-11-10T12:04:37Z</time>
      </trkpt>
      <trkpt lat="42.2887" lon="3.28104">
        <ele>5.6</ele>
        <time>2024-11-10T12:04:38Z</time>
      </trkpt>
      <trkpt lat="42.2887" lon="3.28104">
        <ele>5.6</ele>
        <time>2024-11-10T12:04:39Z</time>
      </trkpt>
      <trkpt lat="42.2887" lon="3.28104">
        <ele>5.6</ele>
        <time>2024-11-10T12:04:40Z</time>
      </trkpt>
      <trkpt lat="42.2887" lon="3.28104">
        <ele>5.6</ele>
        <time>2024-11-10T12:04:41Z</time>
      </trkpt>
      <trkpt lat="42.2887" lon="3.28104">
        <ele>5.6</ele>
        <time>2024-11-10T12:04:42Z</time>
      </trkpt>
      <trkpt lat="42.2887" lon="3.28104">
        <ele>5.6</ele>
        <time>2024-11-10T12:04:43Z</time>
      </trkpt>
      <trkpt lat="42.2887" lon="3.28104">
        <ele>5.6</ele>
        <time>2024-11-10T12:04:44Z</time>
      </trkpt>
      <trkpt lat="42.2887" lon="3.28104">
        <ele>5.6</ele>
        <time>2024-11-10T12:04:45Z</time>
      </trkpt>
      <trkpt lat="42.2887" lon="3.28104">
        <ele>5.6</ele>
        <time>2024-11-10T12:04:46Z</time>
      </trkpt>
      <trkpt lat="42.2887" lon="3.28104">
        <ele>5.6</ele>
        <time>2024-11-10T12:04:47Z</time>
      </trkpt>
      <trkpt lat="42.2887" lon="3.28104">
        <ele>5.6</ele>
        <time>2024-11-10T12:04:48Z</time>
      </trkpt>
      <trkpt lat="42.2887" lon="3.28104">
        <ele>5.6</ele>
        <time>2024-11-10T12:04:49Z</time>
      </trkpt>
      <trkpt lat="42.2887" lon="3.28104">
        <ele>5.6</ele>
        <time>2024-11-10T12:04:50Z</time>
      </trkpt>
      <trkpt lat="42.2887" lon="3.28104">
        <ele>5.6</ele>
        <time>2024-11-10T12:04:51Z</time>
      </trkpt>
      <trkpt lat="42.2887" lon="3.28104">
        <ele>5.6</ele>
        <time>2024-11-10T12:04:52Z</time>
      </trkpt>
      <trkpt lat="42.2887" lon="3.28104">
        <ele>5.6</ele>
        <time>2024-11-10T12:04:53Z</time>
      </trkpt>
      <trkpt lat="42.2887" lon="3.28104">
        <ele>5.6</ele>
        <time>2024-11-10T12:04:54Z</time>
      </trkpt>
      <trkpt lat="42.2887" lon="3.28104">
        <ele>5.6</ele>
        <time>2024-11-10T12:04:55Z</time>
      </trkpt>
      <trkpt lat="42.2887" lon="3.28104">
        <ele>5.6</ele>
        <time>2024-11-10T12:04:56Z</time>
      </trkpt>
      <trkpt lat="42.2887" lon="3.28104">
        <ele>5.6</ele>
        <time>2024-11-10T12:04:57Z</time>
      </trkpt>
      <trkpt lat="42.2887" lon="3.28104">
        <ele>5.6</ele>
        <time>2024-11-10T12:04:58Z</time>
      </trkpt>
      <trkpt lat="42.2887" lon="3.28104">
        <ele>5.6</ele>
        <time>2024-11-10T12:04:59Z</time>
      </trkpt>
      <trkpt lat="42.2887" lon="3.28104">
        <ele>5.6</ele>
        <time>2024-11-10T12:05:00Z</time>
      </trkpt>
      <trkpt lat="42.2887" lon="3.28104">
        <ele>5.6</ele>
        <time>2024-11-10T12:05:01Z</time>
      </trkpt>
      <trkpt lat="42.2887" lon="3.28104">
        <ele>5.6</ele>
        <time>2024-11-10T12:05:02Z</time>
      </trkpt>
      <trkpt lat="42.2887" lon="3.28104">
        <ele>5.6</ele>
        <time>2024-11-10T12:05:03Z</time>
      </trkpt>
      <trkpt lat="42.2887" lon="3.28104">
        <ele>5.6</ele>
        <time>2024-11-10T12:05:04Z</time>
      </trkpt>
      <trkpt lat="42.2887" lon="3.28104">
        <ele>5.6</ele>
        <time>2024-11-10T12:05:05Z</time>
      </trkpt>
      <trkpt lat="42.2887" lon="3.28104">
        <ele>5.6</ele>
        <time>2024-11-10T12:05:06Z</time>
      </trkpt>
      <trkpt lat="42.2887" lon="3.28104">
        <ele>5.6</ele>
        <time>2024-11-10T12:05:07Z</time>
      </trkpt>
      <trkpt lat="42.2887" lon="3.28104">
        <ele>5.6</ele>
        <time>2024-11-10T12:05:08Z</time>
      </trkpt>
      <trkpt lat="42.2887" lon="3.28104">
        <ele>5.6</ele>
        <time>2024-11-10T12:05:09Z</time>
      </trkpt>
      <trkpt lat="42.2887" lon="3.28104">
        <ele>5.6</ele>
        <time>2024-11-10T12:05:10Z</time>
      </trkpt>
      <trkpt lat="42.2887" lon="3.28104">
        <ele>5.6</ele>
        <time>2024-11-10T12:05:11Z</time>
      </trkpt>
      <trkpt lat="42.2887" lon="3.28104">
        <ele>5.6</ele>
        <time>2024-11-10T12:05:12Z</time>
      </trkpt>
      <trkpt lat="42.2887" lon="3.28104">
        <ele>5.6</ele>
        <time>2024-11-10T12:05:13Z</time>
      </trkpt>
      <trkpt lat="42.2887" lon="3.28104">
        <ele>5.6</ele>
        <time>2024-11-10T12:05:14Z</time>
      </trkpt>
      <trkpt lat="42.2887" lon="3.28104">
        <ele>5.6</ele>
        <time>2024-11-10T12:05:15Z</time>
      </trkpt>
      <trkpt lat="42.2887" lon="3.28104">
        <ele>5.6</ele>
        <time>2024-11-10T12:05:16Z</time>
      </trkpt>
      <trkpt lat="42.2887" lon="3.28104">
        <ele>5.6</ele>
        <time>2024-11-10T12:05:17Z</time>
      </trkpt>
      <trkpt lat="42.2887" lon="3.28104">
        <ele>5.6</ele>
        <time>2024-11-10T12:05:18Z</time>
      </trkpt>
      <trkpt lat="42.2887" lon="3.28104">
        <ele>5.6</ele>
        <time>2024-11-10T12:05:19Z</time>
      </trkpt>
      <trkpt lat="42.2887" lon="3.28104">
        <ele>5.6</ele>
        <time>2024-11-10T12:05:20Z</time>
      </trkpt>
      <trkpt lat="42.2887" lon="3.28104">
        <ele>5.6</ele>
        <time>2024-11-10T12:05:21Z</time>
      </trkpt>
      <trkpt lat="42.2887" lon="3.28104">
        <ele>5.6</ele>
        <time>2024-11-10T12:05:22Z</time>
      </trkpt>
      <trkpt lat="42.2887" lon="3.28104">
        <ele>5.6</ele>
        <time>2024-11-10T12:05:23Z</time>
      </trkpt>
      <trkpt lat="42.2887" lon="3.28104">
        <ele>5.6</ele>
        <time>2024-11-10T12:05:24Z</time>
      </trkpt>
      <trkpt lat="42.2887" lon="3.28104">
        <ele>5.6</ele>
        <time>2024-11-10T12:05:25Z</time>
      </trkpt>
      <trkpt lat="42.2887" lon="3.28104">
        <ele>5.6</ele>
        <time>2024-11-10T12:05:26Z</time>
      </trkpt>
      <trkpt lat="42.2887" lon="3.28104">
        <ele>5.6</ele>
        <time>2024-11-10T12:05:27Z</time>
      </trkpt>
      <trkpt lat="42.2887" lon="3.28104">
        <ele>5.6</ele>
        <time>2024-11-10T12:05:28Z</time>
      </trkpt>
      <trkpt lat="42.2887" lon="3.28104">
        <ele>5.6</ele>
        <time>2024-11-10T12:05:29Z</time>
      </trkpt>
      <trkpt lat="42.2887" lon="3.28104">
        <ele>5.6</ele>
        <time>2024-11-10T12:05:30Z</time>
      </trkpt>
      <trkpt lat="42.2887" lon="3.28104">
        <ele>5.6</ele>
        <time>2024-11-10T12:05:31Z</time>
      </trkpt>
      <trkpt lat="42.2887" lon="3.28104">
        <ele>5.6</ele>
        <time>2024-11-10T12:05:32Z</time>
      </trkpt>
      <trkpt lat="42.2887" lon="3.28104">
        <ele>5.6</ele>
        <time>2024-11-10T12:05:33Z</time>
      </trkpt>
      <trkpt lat="42.2887" lon="3.28104">
        <ele>5.6</ele>
        <time>2024-11-10T12:05:34Z</time>
      </trkpt>
      <trkpt lat="42.2887" lon="3.28104">
        <ele>5.6</ele>
        <time>2024-11-10T12:05:35Z</time>
      </trkpt>
      <trkpt lat="42.2887" lon="3.28104">
        <ele>5.6</ele>
        <time>2024-11-10T12:05:36Z</time>
      </trkpt>
      <trkpt lat="42.2887" lon="3.28104">
        <ele>5.6</ele>
        <time>2024-11-10T12:05:37Z</time>
      </trkpt>
      <trkpt lat="42.2887" lon="3.28104">
        <ele>5.6</ele>
        <time>2024-11-10T12:05:38Z</time>
      </trkpt>
      <trkpt lat="42.2887" lon="3.28104">
        <ele>5.6</ele>
        <time>2024-11-10T12:05:39Z</time>
      </trkpt>
      <trkpt lat="42.2887" lon="3.28104">
        <ele>5.6</ele>
        <time>2024-11-10T12:05:40Z</time>
      </trkpt>
      <trkpt lat="42.2887" lon="3.28104">
        <ele>5.6</ele>
        <time>2024-11-10T12:05:41Z</time>
      </trkpt>
      <trkpt lat="42.2887" lon="3.28104">
        <ele>5.6</ele>
        <time>2024-11-10T12:05:42Z</time>
      </trkpt>
      <trkpt lat="42.2887" lon="3.28104">
        <ele>5.6</ele>
        <time>2024-11-10T12:05:43Z</time>
      </trkpt>
      <trkpt lat="42.2887" lon="3.28104">
        <ele>5.6</ele>
        <time>2024-11-10T12:05:44Z</time>
      </trkpt>
      <trkpt lat="42.2887" lon="3.28104">
        <ele>5.6</ele>
        <time>2024-11-10T12:05:45Z</time>
      </trkpt>
      <trkpt lat="42.2887" lon="3.28104">
        <ele>5.6</ele>
        <time>2024-11-10T12:05:46Z</time>
      </trkpt>
      <trkpt lat="42.2887" lon="3.28104">
        <ele>5.6</ele>
        <time>2024-11-10T12:05:47Z</time>
      </trkpt>
      <trkpt lat="42.2887" lon="3.28104">
        <ele>5.6</ele>
        <time>2024-11-10T12:05:48Z</time>
      </trkpt>
      <trkpt lat="42.2887" lon="3.28104">
        <ele>5.6</ele>
        <time>2024-11-10T12:05:49Z</time>
      </trkpt>
      <trkpt lat="42.2887" lon="3.28104">
        <ele>5.6</ele>
        <time>2024-11-10T12:05:50Z</time>
      </trkpt>
      <trkpt lat="42.2887" lon="3.28104">
        <ele>5.6</ele>
        <time>2024-11-10T12:05:51Z</time>
      </trkpt>
      <trkpt lat="42.2887" lon="3.28104">
        <ele>5.6</ele>
        <time>2024-11-10T12:05:52Z</time>
      </trkpt>
      <trkpt lat="42.2887" lon="3.28104">
        <ele>5.6</ele>
        <time>2024-11-10T12:05:53Z</time>
      </trkpt>
      <trkpt lat="42.2887" lon="3.28104">
        <ele>5.6</ele>
        <time>2024-11-10T12:05:54Z</time>
      </trkpt>
      <trkpt lat="42.2887" lon="3.28104">
        <ele>5.6</ele>
        <time>2024-11-10T12:05:55Z</time>
      </trkpt>
      <trkpt lat="42.2887" lon="3.28104">
        <ele>5.6</ele>
        <time>2024-11-10T12:05:56Z</time>
      </trkpt>
      <trkpt lat="42.2887" lon="3.28104">
        <ele>5.6</ele>
        <time>2024-11-10T12:05:57Z</time>
      </trkpt>
      <trkpt lat="42.2887" lon="3.28104">
        <ele>5.6</ele>
        <time>2024-11-10T12:05:58Z</time>
      </trkpt>
      <trkpt lat="42.2887" lon="3.28104">
        <ele>5.6</ele>
        <time>2024-11-10T12:05:59Z</time>
      </trkpt>
      <trkpt lat="42.2887" lon="3.28104">
        <ele>5.6</ele>
        <time>2024-11-10T12:06:00Z</time>
      </trkpt>
      <trkpt lat="42.2887" lon="3.28104">
        <ele>5.6</ele>
        <time>2024-11-10T12:06:01Z</time>
      </trkpt>
      <trkpt lat="42.2887" lon="3.28104">
        <ele>5.6</ele>
        <time>2024-11-10T12:06:02Z</time>
      </trkpt>
      <trkpt lat="42.2887" lon="3.28104">
        <ele>5.6</ele>
        <time>2024-11-10T12:06:03Z</time>
      </trkpt>
      <trkpt lat="42.2887" lon="3.28104">
        <ele>5.6</ele>
        <time>2024-11-10T12:06:04Z</time>
      </trkpt>
      <trkpt lat="42.2887" lon="3.28104">
        <ele>5.6</ele>
        <time>2024-11-10T12:06:05Z</time>
      </trkpt>
      <trkpt lat="42.2887" lon="3.28104">
        <ele>5.6</ele>
        <time>2024-11-10T12:06:06Z</time>
      </trkpt>
      <trkpt lat="42.2887" lon="3.28104">
        <ele>5.6</ele>
        <time>2024-11-10T12:06:07Z</time>
      </trkpt>
      <trkpt lat="42.2887" lon="3.28104">
        <ele>5.6</ele>
        <time>2024-11-10T12:06:08Z</time>
      </trkpt>
      <trkpt lat="42.2887" lon="3.28104">
        <ele>5.6</ele>
        <time>2024-11-10T12:06:09Z</time>
      </trkpt>
      <trkpt lat="42.2887" lon="3.28104">
        <ele>5.6</ele>
        <time>2024-11-10T12:06:10Z</time>
      </trkpt>
      <trkpt lat="42.2887" lon="3.28104">
        <ele>5.6</ele>
        <time>2024-11-10T12:06:11Z</time>
      </trkpt>
      <trkpt lat="42.2887" lon="3.28104">
        <ele>5.6</ele>
        <time>2024-11-10T12:06:12Z</time>
      </trkpt>
      <trkpt lat="42.2887" lon="3.28104">
        <ele>5.6</ele>
        <time>2024-11-10T12:06:13Z</time>
      </trkpt>
      <trkpt lat="42.2887" lon="3.28104">
        <ele>5.6</ele>
        <time>2024-11-10T12:06:14Z</time>
      </trkpt>
      <trkpt lat="42.2887" lon="3.28104">
        <ele>5.6</ele>
        <time>2024-11-10T12:06:15Z</time>
      </trkpt>
      <trkpt lat="42.2887" lon="3.28104">
        <ele>5.6</ele>
        <time>2024-11-10T12:06:16Z</time>
      </trkpt>
      <trkpt lat="42.2887" lon="3.28104">
        <ele>5.6</ele>
        <time>2024-11-10T12:06:17Z</time>
      </trkpt>
      <trkpt lat="42.2887" lon="3.28104">
        <ele>5.6</ele>
        <time>2024-11-10T12:06:18Z</time>
      </trkpt>
      <trkpt lat="42.2887" lon="3.28104">
        <ele>5.6</ele>
        <time>2024-11-10T12:06:19Z</time>
      </trkpt>
      <trkpt lat="42.2887" lon="3.28104">
        <ele>5.6</ele>
        <time>2024-11-10T12:06:20Z</time>
      </trkpt>
      <trkpt lat="42.2887" lon="3.28104">
        <ele>5.6</ele>
        <time>2024-11-10T12:06:21Z</time>
      </trkpt>
      <trkpt lat="42.2887" lon="3.28104">
        <ele>5.6</ele>
        <time>2024-11-10T12:06:22Z</time>
      </trkpt>
      <trkpt lat="42.2887" lon="3.28104">
        <ele>5.6</ele>
        <time>2024-11-10T12:06:23Z</time>
      </trkpt>
      <trkpt lat="42.2887" lon="3.28104">
        <ele>5.6</ele>
        <time>2024-11-10T12:06:24Z</time>
      </trkpt>
      <trkpt lat="42.2887" lon="3.28104">
        <ele>5.6</ele>
        <time>2024-11-10T12:06:25Z</time>
      </trkpt>
      <trkpt lat="42.2887" lon="3.28104">
        <ele>5.6</ele>
        <time>2024-11-10T12:06:26Z</time>
      </trkpt>
      <trkpt lat="42.2887" lon="3.28104">
        <ele>5.6</ele>
        <time>2024-11-10T12:06:27Z</time>
      </trkpt>
      <trkpt lat="42.2887" lon="3.28104">
        <ele>5.6</ele>
        <time>2024-11-10T12:06:28Z</time>
      </trkpt>
      <trkpt lat="42.2887" lon="3.28104">
        <ele>5.6</ele>
        <time>2024-11-10T12:06:29Z</time>
      </trkpt>
      <trkpt lat="42.2887" lon="3.28104">
        <ele>5.6</ele>
        <time>2024-11-10T12:06:30Z</time>
      </trkpt>
      <trkpt lat="42.2887" lon="3.28104">
        <ele>5.6</ele>
        <time>2024-11-10T12:06:31Z</time>
      </trkpt>
      <trkpt lat="42.2887" lon="3.28104">
        <ele>5.6</ele>
        <time>2024-11-10T12:06:32Z</time>
      </trkpt>
      <trkpt lat="42.2887" lon="3.28104">
        <ele>5.6</ele>
        <time>2024-11-10T12:06:33Z</time>
      </trkpt>
      <trkpt lat="42.2887" lon="3.28104">
        <ele>5.6</ele>
        <time>2024-11-10T12:06:34Z</time>
      </trkpt>
      <trkpt lat="42.2887" lon="3.28104">
        <ele>5.6</ele>
        <time>2024-11-10T12:06:35Z</time>
      </trkpt>
      <trkpt lat="42.2887" lon="3.28104">
        <ele>5.6</ele>
        <time>2024-11-10T12:06:36Z</time>
      </trkpt>
      <trkpt lat="42.2887" lon="3.28104">
        <ele>5.6</ele>
        <time>2024-11-10T12:06:37Z</time>
      </trkpt>
      <trkpt lat="42.2887" lon="3.28104">
        <ele>5.6</ele>
        <time>2024-11-10T12:06:38Z</time>
      </trkpt>
      <trkpt lat="42.2887" lon="3.28104">
        <ele>5.6</ele>
        <time>2024-11-10T12:06:39Z</time>
      </trkpt>
      <trkpt lat="42.2887" lon="3.28104">
        <ele>5.6</ele>
        <time>2024-11-10T12:06:40Z</time>
      </trkpt>
      <trkpt lat="42.2887" lon="3.28104">
        <ele>5.6</ele>
        <time>2024-11-10T12:06:41Z</time>
      </trkpt>
      <trkpt lat="42.2887" lon="3.28104">
        <ele>5.6</ele>
        <time>2024-11-10T12:06:42Z</time>
      </trkpt>
      <trkpt lat="42.2887" lon="3.28104">
        <ele>5.6</ele>
        <time>2024-11-10T12:06:43Z</time>
      </trkpt>
      <trkpt lat="42.2887" lon="3.28104">
        <ele>5.6</ele>
        <time>2024-11-10T12:06:44Z</time>
      </trkpt>
      <trkpt lat="42.2887" lon="3.28104">
        <ele>5.6</ele>
        <time>2024-11-10T12:06:45Z</time>
      </trkpt>
      <trkpt lat="42.2887" lon="3.28104">
        <ele>5.6</ele>
        <time>2024-11-10T12:06:46Z</time>
      </trkpt>
      <trkpt lat="42.2887" lon="3.28104">
        <ele>5.6</ele>
        <time>2024-11-10T12:06:47Z</time>
      </trkpt>
      <trkpt lat="42.2887" lon="3.28104">
        <ele>5.6</ele>
        <time>2024-11-10T12:06:48Z</time>
      </trkpt>
      <trkpt lat="42.2887" lon="3.28104">
        <ele>5.6</ele>
        <time>2024-11-10T12:06:49Z</time>
      </trkpt>
      <trkpt lat="42.2887" lon="3.28104">
        <ele>5.6</ele>
        <time>2024-11-10T12:06:50Z</time>
      </trkpt>
      <trkpt lat="42.2887" lon="3.28104">
        <ele>5.6</ele>
        <time>2024-11-10T12:06:51Z</time>
      </trkpt>
      <trkpt lat="42.2887" lon="3.28104">
        <ele>5.6</ele>
        <time>2024-11-10T12:06:52Z</time>
      </trkpt>
      <trkpt lat="42.2887" lon="3.28104">
        <ele>5.6</ele>
        <time>2024-11-10T12:06:53Z</time>
      </trkpt>
      <trkpt lat="42.2887" lon="3.28104">
        <ele>5.6</ele>
        <time>2024-11-10T12:06:54Z</time>
      </trkpt>
      <trkpt lat="42.2887" lon="3.28104">
        <ele>5.6</ele>
        <time>2024-11-10T12:06:55Z</time>
      </trkpt>
      <trkpt lat="42.2887" lon="3.28104">
        <ele>5.6</ele>
        <time>2024-11-10T12:06:56Z</time>
      </trkpt>
      <trkpt lat="42.2887" lon="3.28104">
        <ele>5.6</ele>
        <time>2024-11-10T12:06:57Z</time>
      </trkpt>
      <trkpt lat="42.2887" lon="3.28104">
        <ele>5.6</ele>
        <time>2024-11-10T12:06:58Z</time>
      </trkpt>
      <trkpt lat="42.2887" lon="3.28104">
        <ele>5.6</ele>
        <time>2024-11-10T12:06:59Z</time>
      </trkpt>
      <trkpt lat="42.2887" lon="3.28104">
        <ele>5.6</ele>
        <time>2024-11-10T12:07:00Z</time>
      </trkpt>
      <trkpt lat="42.2887" lon="3.28104">
        <ele>5.6</ele>
        <time>2024-11-10T12:07:01Z</time>
      </trkpt>
      <trkpt lat="42.2887" lon="3.28104">
        <ele>5.6</ele>
        <time>2024-11-10T12:07:02Z</time>
      </trkpt>
      <trkpt lat="42.2887" lon="3.28104">
        <ele>5.6</ele>
        <time>2024-11-10T12:07:03Z</time>
      </trkpt>
      <trkpt lat="42.2887" lon="3.28104">
        <ele>5.6</ele>
        <time>2024-11-10T12:07:04Z</time>
      </trkpt>
      <trkpt lat="42.2887" lon="3.28104">
        <ele>5.6</ele>
        <time>2024-11-10T12:07:05Z</time>
      </trkpt>
      <trkpt lat="42.2887" lon="3.28104">
        <ele>5.6</ele>
        <time>2024-11-10T12:07:06Z</time>
      </trkpt>
      <trkpt lat="42.2887" lon="3.28104">
        <ele>5.6</ele>
        <time>2024-11-10T12:07:07Z</time>
      </trkpt>
      <trkpt lat="42.2887" lon="3.28104">
        <ele>5.6</ele>
        <time>2024-11-10T12:07:08Z</time>
      </trkpt>
      <trkpt lat="42.2887" lon="3.28104">
        <ele>5.6</ele>
        <time>2024-11-10T12:07:09Z</time>
      </trkpt>
      <trkpt lat="42.2887" lon="3.28104">
        <ele>5.6</ele>
        <time>2024-11-10T12:07:10Z</time>
      </trkpt>
      <trkpt lat="42.2887" lon="3.28104">
        <ele>5.6</ele>
        <time>2024-11-10T12:07:11Z</time>
      </trkpt>
      <trkpt lat="42.2887" lon="3.28104">
        <ele>5.6</ele>
        <time>2024-11-10T12:07:12Z</time>
      </trkpt>
      <trkpt lat="42.2887" lon="3.28104">
        <ele>5.6</ele>
        <time>2024-11-10T12:07:13Z</time>
      </trkpt>
      <trkpt lat="42.2887" lon="3.28104">
        <ele>5.6</ele>
        <time>2024-11-10T12:07:14Z</time>
      </trkpt>
      <trkpt lat="42.2887" lon="3.28104">
        <ele>5.6</ele>
        <time>2024-11-10T12:07:15Z</time>
      </trkpt>
      <trkpt lat="42.2887" lon="3.28104">
        <ele>5.6</ele>
        <time>2024-11-10T12:07:16Z</time>
      </trkpt>
      <trkpt lat="42.2887" lon="3.28104">
        <ele>5.6</ele>
        <time>2024-11-10T12:07:17Z</time>
      </trkpt>
      <trkpt lat="42.2887" lon="3.28104">
        <ele>5.6</ele>
        <time>2024-11-10T12:07:18Z</time>
      </trkpt>
      <trkpt lat="42.2887" lon="3.28104">
        <ele>5.6</ele>
        <time>2024-11-10T12:07:19Z</time>
      </trkpt>
      <trkpt lat="42.2887" lon="3.28104">
        <ele>5.6</ele>
        <time>2024-11-10T12:07:20Z</time>
      </trkpt>
      <trkpt lat="42.2887" lon="3.28104">
        <ele>5.6</ele>
        <time>2024-11-10T12:07:21Z</time>
      </trkpt>
      <trkpt lat="42.2887" lon="3.28104">
        <ele>5.6</ele>
        <time>2024-11-10T12:07:22Z</time>
      </trkpt>
      <trkpt lat="42.2887" lon="3.28104">
        <ele>5.6</ele>
        <time>2024-11-10T12:07:23Z</time>
      </trkpt>
      <trkpt lat="42.2887" lon="3.28104">
        <ele>5.6</ele>
        <time>2024-11-10T12:07:24Z</time>
      </trkpt>
      <trkpt lat="42.2887" lon="3.28104">
        <ele>5.6</ele>
        <time>2024-11-10T12:07:25Z</time>
      </trkpt>
      <trkpt lat="42.2887" lon="3.28104">
        <ele>5.6</ele>
        <time>2024-11-10T12:07:26Z</time>
      </trkpt>
      <trkpt lat="42.2887" lon="3.28104">
        <ele>5.6</ele>
        <time>2024-11-10T12:07:27Z</time>
      </trkpt>
      <trkpt lat="42.2887" lon="3.28104">
        <ele>5.6</ele>
        <time>2024-11-10T12:07:28Z</time>
      </trkpt>
      <trkpt lat="42.2887" lon="3.28104">
        <ele>5.6</ele>
        <time>2024-11-10T12:07:29Z</time>
      </trkpt>
      <trkpt lat="42.2887" lon="3.28104">
        <ele>5.6</ele>
        <time>2024-11-10T12:07:30Z</time>
      </trkpt>
      <trkpt lat="42.2887" lon="3.28104">
        <ele>5.6</ele>
        <time>2024-11-10T12:07:31Z</time>
      </trkpt>
      <trkpt lat="42.2887" lon="3.28104">
        <ele>5.6</ele>
        <time>2024-11-10T12:07:32Z</time>
      </trkpt>
      <trkpt lat="42.2887" lon="3.28104">
        <ele>5.6</ele>
        <time>2024-11-10T12:07:33Z</time>
      </trkpt>
      <trkpt lat="42.2887" lon="3.28104">
        <ele>5.6</ele>
        <time>2024-11-10T12:07:34Z</time>
      </trkpt>
      <trkpt lat="42.2887" lon="3.28104">
        <ele>5.6</ele>
        <time>2024-11-10T12:07:35Z</time>
      </trkpt>
      <trkpt lat="42.2887" lon="3.28104">
        <ele>5.6</ele>
        <time>2024-11-10T12:07:36Z</time>
      </trkpt>
      <trkpt lat="42.2887" lon="3.28104">
        <ele>5.6</ele>
        <time>2024-11-10T12:07:37Z</time>
      </trkpt>
      <trkpt lat="42.2887" lon="3.28104">
        <ele>5.6</ele>
        <time>2024-11-10T12:07:38Z</time>
      </trkpt>
      <trkpt lat="42.2887" lon="3.28104">
        <ele>5.6</ele>
        <time>2024-11-10T12:07:39Z</time>
      </trkpt>
      <trkpt lat="42.2887" lon="3.28104">
        <ele>5.6</ele>
        <time>2024-11-10T12:07:40Z</time>
      </trkpt>
      <trkpt lat="42.2887" lon="3.28104">
        <ele>5.6</ele>
        <time>2024-11-10T12:07:41Z</time>
      </trkpt>
      <trkpt lat="42.2887" lon="3.28104">
        <ele>5.6</ele>
        <time>2024-11-10T12:07:42Z</time>
      </trkpt>
      <trkpt lat="42.2887" lon="3.28104">
        <ele>5.6</ele>
        <time>2024-11-10T12:07:43Z</time>
      </trkpt>
      <trkpt lat="42.2887" lon="3.28104">
        <ele>5.6</ele>
        <time>2024-11-10T12:07:44Z</time>
      </trkpt>
      <trkpt lat="42.2887" lon="3.28104">
        <ele>5.6</ele>
        <time>2024-11-10T12:07:45Z</time>
      </trkpt>
      <trkpt lat="42.2887" lon="3.28104">
        <ele>5.6</ele>
        <time>2024-11-10T12:07:46Z</time>
      </trkpt>
      <trkpt lat="42.2887" lon="3.28104">
        <ele>5.6</ele>
        <time>2024-11-10T12:07:47Z</time>
      </trkpt>
      <trkpt lat="42.2887" lon="3.28104">
        <ele>5.6</ele>
        <time>2024-11-10T12:07:48Z</time>
      </trkpt>
      <trkpt lat="42.2887" lon="3.28104">
        <ele>5.6</ele>
        <time>2024-11-10T12:07:49Z</time>
      </trkpt>
      <trkpt lat="42.2887" lon="3.28104">
        <ele>5.6</ele>
        <time>2024-11-10T12:07:50Z</time>
      </trkpt>
      <trkpt lat="42.2887" lon="3.28104">
        <ele>5.6</ele>
        <time>2024-11-10T12:07:51Z</time>
      </trkpt>
      <trkpt lat="42.2887" lon="3.28104">
        <ele>5.6</ele>
        <time>2024-11-10T12:07:52Z</time>
      </trkpt>
      <trkpt lat="42.2887" lon="3.28104">
        <ele>5.6</ele>
        <time>2024-11-10T12:07:53Z</time>
      </trkpt>
      <trkpt lat="42.2887" lon="3.28104">
        <ele>5.6</ele>
        <time>2024-11-10T12:07:54Z</time>
      </trkpt>
      <trkpt lat="42.2887" lon="3.28104">
        <ele>5.6</ele>
        <time>2024-11-10T12:07:55Z</time>
      </trkpt>
      <trkpt lat="42.2887" lon="3.28104">
        <ele>5.6</ele>
        <time>2024-11-10T12:07:56Z</time>
      </trkpt>
      <trkpt lat="42.2887" lon="3.28104">
        <ele>5.6</ele>
        <time>2024-11-10T12:07:57Z</time>
      </trkpt>
      <trkpt lat="42.2887" lon="3.28104">
        <ele>5.6</ele>
        <time>2024-11-10T12:07:58Z</time>
      </trkpt>
      <trkpt lat="42.2887" lon="3.28104">
        <ele>5.6</ele>
        <time>2024-11-10T12:07:59Z</time>
      </trkpt>
      <trkpt lat="42.2887" lon="3.28104">
        <ele>5.6</ele>
        <time>2024-11-10T12:08:00Z</time>
      </trkpt>
      <trkpt lat="42.2887" lon="3.28104">
        <ele>5.6</ele>
        <time>2024-11-10T12:08:01Z</time>
      </trkpt>
      <trkpt lat="42.2887" lon="3.28104">
        <ele>5.6</ele>
        <time>2024-11-10T12:08:02Z</time>
      </trkpt>
      <trkpt lat="42.2887" lon="3.28104">
        <ele>5.6</ele>
        <time>2024-11-10T12:08:03Z</time>
      </trkpt>
      <trkpt lat="42.2887" lon="3.28104">
        <ele>5.6</ele>
        <time>2024-11-10T12:08:04Z</time>
      </trkpt>
      <trkpt lat="42.2887" lon="3.28104">
        <ele>5.6</ele>
        <time>2024-11-10T12:08:05Z</time>
      </trkpt>
      <trkpt lat="42.2887" lon="3.28104">
        <ele>5.6</ele>
        <time>2024-11-10T12:08:06Z</time>
      </trkpt>
      <trkpt lat="42.2887" lon="3.28104">
        <ele>5.6</ele>
        <time>2024-11-10T12:08:07Z</time>
      </trkpt>
      <trkpt lat="42.2887" lon="3.28104">
        <ele>5.6</ele>
        <time>2024-11-10T12:08:08Z</time>
      </trkpt>
      <trkpt lat="42.2887" lon="3.28104">
        <ele>5.6</ele>
        <time>2024-11-10T12:08:09Z</time>
      </trkpt>
      <trkpt lat="42.2887" lon="3.28104">
        <ele>5.6</ele>
        <time>2024-11-10T12:08:10Z</time>
      </trkpt>
      <trkpt lat="42.2887" lon="3.28104">
        <ele>5.6</ele>
        <time>2024-11-10T12:08:11Z</time>
      </trkpt>
      <trkpt lat="42.2887" lon="3.28104">
        <ele>5.6</ele>
        <time>2024-11-10T12:08:12Z</time>
      </trkpt>
      <trkpt lat="42.2887" lon="3.28104">
        <ele>5.6</ele>
        <time>2024-11-10T12:08:13Z</time>
      </trkpt>
      <trkpt lat="42.2887" lon="3.28104">
        <ele>5.6</ele>
        <time>2024-11-10T12:08:14Z</time>
      </trkpt>
      <trkpt lat="42.2887" lon="3.28104">
        <ele>5.6</ele>
        <time>2024-11-10T12:08:15Z</time>
      </trkpt>
      <trkpt lat="42.2887" lon="3.28104">
        <ele>5.6</ele>
        <time>2024-11-10T12:08:16Z</time>
      </trkpt>
      <trkpt lat="42.2887" lon="3.28104">
        <ele>5.6</ele>
        <time>2024-11-10T12:08:17Z</time>
      </trkpt>
      <trkpt lat="42.2887" lon="3.28104">
        <ele>5.6</ele>
        <time>2024-11-10T12:08:18Z</time>
      </trkpt>
      <trkpt lat="42.2887" lon="3.28104">
        <ele>5.6</ele>
        <time>2024-11-10T12:08:19Z</time>
      </trkpt>
      <trkpt lat="42.2887" lon="3.28104">
        <ele>5.6</ele>
        <time>2024-11-10T12:08:20Z</time>
      </trkpt>
      <trkpt lat="42.2887" lon="3.28104">
        <ele>5.6</ele>
        <time>2024-11-10T12:08:21Z</time>
      </trkpt>
      <trkpt lat="42.2887" lon="3.28104">
        <ele>5.6</ele>
        <time>2024-11-10T12:08:22Z</time>
      </trkpt>
      <trkpt lat="42.2887" lon="3.28104">
        <ele>5.6</ele>
        <time>2024-11-10T12:08:23Z</time>
      </trkpt>
      <trkpt lat="42.2887" lon="3.28104">
        <ele>5.6</ele>
        <time>2024-11-10T12:08:24Z</time>
      </trkpt>
      <trkpt lat="42.2887" lon="3.28104">
        <ele>5.6</ele>
        <time>2024-11-10T12:08:25Z</time>
      </trkpt>
      <trkpt lat="42.2887" lon="3.28104">
        <ele>5.6</ele>
        <time>2024-11-10T12:08:26Z</time>
      </trkpt>
      <trkpt lat="42.2887" lon="3.28104">
        <ele>5.6</ele>
        <time>2024-11-10T12:08:27Z</time>
      </trkpt>
      <trkpt lat="42.2887" lon="3.28104">
        <ele>5.6</ele>
        <time>2024-11-10T12:08:28Z</time>
      </trkpt>
      <trkpt lat="42.2887" lon="3.28104">
        <ele>5.6</ele>
        <time>2024-11-10T12:08:29Z</time>
      </trkpt>
      <trkpt lat="42.2887" lon="3.28104">
        <ele>5.6</ele>
        <time>2024-11-10T12:08:30Z</time>
      </trkpt>
      <trkpt lat="42.2887" lon="3.28104">
        <ele>5.6</ele>
        <time>2024-11-10T12:08:31Z</time>
      </trkpt>
      <trkpt lat="42.2887" lon="3.28104">
        <ele>5.6</ele>
        <time>2024-11-10T12:08:32Z</time>
      </trkpt>
      <trkpt lat="42.2887" lon="3.28104">
        <ele>5.6</ele>
        <time>2024-11-10T12:08:33Z</time>
      </trkpt>
      <trkpt lat="42.2887" lon="3.28104">
        <ele>5.6</ele>
        <time>2024-11-10T12:08:34Z</time>
      </trkpt>
      <trkpt lat="42.2887" lon="3.28104">
        <ele>5.6</ele>
        <time>2024-11-10T12:08:35Z</time>
      </trkpt>
      <trkpt lat="42.2887" lon="3.28104">
        <ele>5.6</ele>
        <time>2024-11-10T12:08:36Z</time>
      </trkpt>
      <trkpt lat="42.2887" lon="3.28104">
        <ele>5.6</ele>
        <time>2024-11-10T12:08:37Z</time>
      </trkpt>
      <trkpt lat="42.2887" lon="3.28104">
        <ele>5.6</ele>
        <time>2024-11-10T12:08:38Z</time>
      </trkpt>
      <trkpt lat="42.2887" lon="3.28104">
        <ele>5.6</ele>
        <time>2024-11-10T12:08:39Z</time>
      </trkpt>
      <trkpt lat="42.2887" lon="3.28104">
        <ele>5.6</ele>
        <time>2024-11-10T12:08:40Z</time>
      </trkpt>
      <trkpt lat="42.2887" lon="3.28104">
        <ele>5.6</ele>
        <time>2024-11-10T12:08:41Z</time>
      </trkpt>
      <trkpt lat="42.2887" lon="3.28104">
        <ele>5.6</ele>
        <time>2024-11-10T12:08:42Z</time>
      </trkpt>
      <trkpt lat="42.2887" lon="3.28104">
        <ele>5.6</ele>
        <time>2024-11-10T12:08:43Z</time>
      </trkpt>
      <trkpt lat="42.2887" lon="3.28104">
        <ele>5.6</ele>
        <time>2024-11-10T12:08:44Z</time>
      </trkpt>
      <trkpt lat="42.2887" lon="3.28104">
        <ele>5.6</ele>
        <time>2024-11-10T12:08:45Z</time>
      </trkpt>
      <trkpt lat="42.2887" lon="3.28104">
        <ele>5.6</ele>
        <time>2024-11-10T12:08:46Z</time>
      </trkpt>
      <trkpt lat="42.2887" lon="3.28104">
        <ele>5.6</ele>
        <time>2024-11-10T12:08:47Z</time>
      </trkpt>
      <trkpt lat="42.2887" lon="3.28104">
        <ele>5.6</ele>
        <time>2024-11-10T12:08:48Z</time>
      </trkpt>
      <trkpt lat="42.2887" lon="3.28104">
        <ele>5.6</ele>
        <time>2024-11-10T12:08:49Z</time>
      </trkpt>
      <trkpt lat="42.2887" lon="3.28104">
        <ele>5.6</ele>
        <time>2024-11-10T12:08:50Z</time>
      </trkpt>
      <trkpt lat="42.2887" lon="3.28104">
        <ele>5.6</ele>
        <time>2024-11-10T12:08:51Z</time>
      </trkpt>
      <trkpt lat="42.2887" lon="3.28104">
        <ele>5.6</ele>
        <time>2024-11-10T12:08:52Z</time>
      </trkpt>
      <trkpt lat="42.2887" lon="3.28104">
        <ele>5.6</ele>
        <time>2024-11-10T12:08:53Z</time>
      </trkpt>
      <trkpt lat="42.2887" lon="3.28104">
        <ele>5.6</ele>
        <time>2024-11-10T12:08:54Z</time>
      </trkpt>
      <trkpt lat="42.2887" lon="3.28104">
        <ele>5.6</ele>
        <time>2024-11-10T12:08:55Z</time>
      </trkpt>
      <trkpt lat="42.2887" lon="3.28104">
        <ele>5.6</ele>
        <time>2024-11-10T12:08:56Z</time>
      </trkpt>
      <trkpt lat="42.2887" lon="3.28104">
        <ele>5.6</ele>
        <time>2024-11-10T12:08:57Z</time>
      </trkpt>
      <trkpt lat="42.2887" lon="3.28104">
        <ele>5.6</ele>
        <time>2024-11-10T12:08:58Z</time>
      </trkpt>
      <trkpt lat="42.2887" lon="3.28104">
        <ele>5.6</ele>
        <time>2024-11-10T12:08:59Z</time>
      </trkpt>
      <trkpt lat="42.2887" lon="3.28104">
        <ele>5.6</ele>
        <time>2024-11-10T12:09:00Z</time>
      </trkpt>
      <trkpt lat="42.2887" lon="3.28104">
        <ele>5.6</ele>
        <time>2024-11-10T12:09:01Z</time>
      </trkpt>
      <trkpt lat="42.2887" lon="3.28104">
        <ele>5.6</ele>
        <time>2024-11-10T12:09:02Z</time>
      </trkpt>
      <trkpt lat="42.2887" lon="3.28104">
        <ele>5.6</ele>
        <time>2024-11-10T12:09:03Z</time>
      </trkpt>
      <trkpt lat="42.2887" lon="3.28104">
        <ele>5.6</ele>
        <time>2024-11-10T12:09:04Z</time>
      </trkpt>
      <trkpt lat="42.2887" lon="3.28104">
        <ele>5.6</ele>
        <time>2024-11-10T12:09:05Z</time>
      </trkpt>
      <trkpt lat="42.2887" lon="3.28104">
        <ele>5.6</ele>
        <time>2024-11-10T12:09:06Z</time>
      </trkpt>
      <trkpt lat="42.2887" lon="3.28104">
        <ele>5.6</ele>
        <time>2024-11-10T12:09:07Z</time>
      </trkpt>
      <trkpt lat="42.2887" lon="3.28104">
        <ele>5.6</ele>
        <time>2024-11-10T12:09:08Z</time>
      </trkpt>
      <trkpt lat="42.2887" lon="3.28104">
        <ele>5.6</ele>
        <time>2024-11-10T12:09:09Z</time>
      </trkpt>
      <trkpt lat="42.2887" lon="3.28104">
        <ele>5.6</ele>
        <time>2024-11-10T12:09:10Z</time>
      </trkpt>
      <trkpt lat="42.2887" lon="3.28104">
        <ele>5.6</ele>
        <time>2024-11-10T12:09:11Z</time>
      </trkpt>
      <trkpt lat="42.2887" lon="3.28104">
        <ele>5.6</ele>
        <time>2024-11-10T12:09:12Z</time>
      </trkpt>
      <trkpt lat="42.2887" lon="3.28104">
        <ele>5.6</ele>
        <time>2024-11-10T12:09:13Z</time>
      </trkpt>
      <trkpt lat="42.2887" lon="3.28104">
        <ele>5.6</ele>
        <time>2024-11-10T12:09:14Z</time>
      </trkpt>
      <trkpt lat="42.2887" lon="3.28104">
        <ele>5.6</ele>
        <time>2024-11-10T12:09:15Z</time>
      </trkpt>
      <trkpt lat="42.2887" lon="3.28104">
        <ele>5.6</ele>
        <time>2024-11-10T12:09:16Z</time>
      </trkpt>
      <trkpt lat="42.2887" lon="3.28104">
        <ele>5.6</ele>
        <time>2024-11-10T12:09:17Z</time>
      </trkpt>
      <trkpt lat="42.2887" lon="3.28104">
        <ele>5.6</ele>
        <time>2024-11-10T12:09:18Z</time>
      </trkpt>
      <trkpt lat="42.2887" lon="3.28104">
        <ele>5.6</ele>
        <time>2024-11-10T12:09:19Z</time>
      </trkpt>
      <trkpt lat="42.2887" lon="3.28104">
        <ele>5.6</ele>
        <time>2024-11-10T12:09:20Z</time>
      </trkpt>
      <trkpt lat="42.2887" lon="3.28104">
        <ele>5.6</ele>
        <time>2024-11-10T12:09:21Z</time>
      </trkpt>
      <trkpt lat="42.2887" lon="3.28104">
        <ele>5.6</ele>
        <time>2024-11-10T12:09:22Z</time>
      </trkpt>
      <trkpt lat="42.2887" lon="3.28104">
        <ele>5.6</ele>
        <time>2024-11-10T12:09:23Z</time>
      </trkpt>
      <trkpt lat="42.2887" lon="3.28104">
        <ele>5.6</ele>
        <time>2024-11-10T12:09:24Z</time>
      </trkpt>
      <trkpt lat="42.2887" lon="3.28104">
        <ele>5.6</ele>
        <time>2024-11-10T12:09:25Z</time>
      </trkpt>
      <trkpt lat="42.2887" lon="3.28104">
        <ele>5.6</ele>
        <time>2024-11-10T12:09:26Z</time>
      </trkpt>
      <trkpt lat="42.2887" lon="3.28104">
        <ele>5.6</ele>
        <time>2024-11-10T12:09:27Z</time>
      </trkpt>
      <trkpt lat="42.2887" lon="3.28104">
        <ele>5.6</ele>
        <time>2024-11-10T12:09:28Z</time>
      </trkpt>
      <trkpt lat="42.2887" lon="3.28104">
        <ele>5.6</ele>
        <time>2024-11-10T12:09:29Z</time>
      </trkpt>
      <trkpt lat="42.2887" lon="3.28104">
        <ele>5.6</ele>
        <time>2024-11-10T12:09:30Z</time>
      </trkpt>
      <trkpt lat="42.2887" lon="3.28104">
        <ele>5.6</ele>
        <time>2024-11-10T12:09:31Z</time>
      </trkpt>
      <trkpt lat="42.2887" lon="3.28104">
        <ele>5.6</ele>
        <time>2024-11-10T12:09:32Z</time>
      </trkpt>
      <trkpt lat="42.2887" lon="3.28104">
        <ele>5.6</ele>
        <time>2024-11-10T12:09:33Z</time>
      </trkpt>
      <trkpt lat="42.2887" lon="3.28104">
        <ele>5.6</ele>
        <time>2024-11-10T12:09:34Z</time>
      </trkpt>
      <trkpt lat="42.2887" lon="3.28104">
        <ele>5.6</ele>
        <time>2024-11-10T12:09:35Z</time>
      </trkpt>
      <trkpt lat="42.2887" lon="3.28104">
        <ele>5.6</ele>
        <time>2024-11-10T12:09:36Z</time>
      </trkpt>
      <trkpt lat="42.2887" lon="3.28104">
        <ele>5.6</ele>
        <time>2024-11-10T12:09:37Z</time>
      </trkpt>
      <trkpt lat="42.2887" lon="3.28104">
        <ele>5.6</ele>
        <time>2024-11-10T12:09:38Z</time>
      </trkpt>
      <trkpt lat="42.2887" lon="3.28104">
        <ele>5.6</ele>
        <time>2024-11-10T12:09:39Z</time>
      </trkpt>
      <trkpt lat="42.2887" lon="3.28104">
        <ele>5.6</ele>
        <time>2024-11-10T12:09:40Z</time>
      </trkpt>
      <trkpt lat="42.2887" lon="3.28104">
        <ele>5.6</ele>
        <time>2024-11-10T12:09:41Z</time>
      </trkpt>
      <trkpt lat="42.2887" lon="3.28104">
        <ele>5.6</ele>
        <time>2024-11-10T12:09:42Z</time>
      </trkpt>
      <trkpt lat="42.2887" lon="3.28104">
        <ele>5.6</ele>
        <time>2024-11-10T12:09:43Z</time>
      </trkpt>
      <trkpt lat="42.2887" lon="3.28104">
        <ele>5.6</ele>
        <time>2024-11-10T12:09:44Z</time>
      </trkpt>
      <trkpt lat="42.2887" lon="3.28104">
        <ele>5.6</ele>
        <time>2024-11-10T12:09:45Z</time>
      </trkpt>
      <trkpt lat="42.2887" lon="3.28104">
        <ele>5.6</ele>
        <time>2024-11-10T12:09:46Z</time>
      </trkpt>
      <trkpt lat="42.2887" lon="3.28104">
        <ele>5.6</ele>
        <time>2024-11-10T12:09:47Z</time>
      </trkpt>
      <trkpt lat="42.2887" lon="3.28104">
        <ele>5.6</ele>
        <time>2024-11-10T12:09:48Z</time>
      </trkpt>
      <trkpt lat="42.2887" lon="3.28104">
        <ele>5.6</ele>
        <time>2024-11-10T12:09:49Z</time>
      </trkpt>
      <trkpt lat="42.2887" lon="3.28104">
        <ele>5.6</ele>
        <time>2024-11-10T12:09:50Z</time>
      </trkpt>
      <trkpt lat="42.2887" lon="3.28104">
        <ele>5.6</ele>
        <time>2024-11-10T12:09:51Z</time>
      </trkpt>
      <trkpt lat="42.2887" lon="3.28104">
        <ele>5.6</ele>
        <time>2024-11-10T12:09:52Z</time>
      </trkpt>
      <trkpt lat="42.2887" lon="3.28104">
        <ele>5.6</ele>
        <time>2024-11-10T12:09:53Z</time>
      </trkpt>
      <trkpt lat="42.2887" lon="3.28104">
        <ele>5.6</ele>
        <time>2024-11-10T12:09:54Z</time>
      </trkpt>
      <trkpt lat="42.2887" lon="3.28104">
        <ele>5.6</ele>
        <time>2024-11-10T12:09:55Z</time>
      </trkpt>
      <trkpt lat="42.2887" lon="3.28104">
        <ele>5.6</ele>
        <time>2024-11-10T12:09:56Z</time>
      </trkpt>
      <trkpt lat="42.2887" lon="3.28104">
        <ele>5.6</ele>
        <time>2024-11-10T12:09:57Z</time>
      </trkpt>
      <trkpt lat="42.2887" lon="3.28104">
        <ele>5.6</ele>
        <time>2024-11-10T12:09:58Z</time>
      </trkpt>
      <trkpt lat="42.2887" lon="3.28104">
        <ele>5.6</ele>
        <time>2024-11-10T12:09:59Z</time>
      </trkpt>
      <trkpt lat="42.2887" lon="3.28104">
        <ele>5.6</ele>
        <time>2024-11-10T12:10:00Z</time>
      </trkpt>
      <trkpt lat="42.2887" lon="3.28104">
        <ele>5.6</ele>
        <time>2024-11-10T12:10:01Z</time>
      </trkpt>
      <trkpt lat="42.2887" lon="3.28104">
        <ele>5.6</ele>
        <time>2024-11-10T12:10:02Z</time>
      </trkpt>
      <trkpt lat="42.2887" lon="3.28104">
        <ele>5.6</ele>
        <time>2024-11-10T12:10:03Z</time>
      </trkpt>
      <trkpt lat="42.2887" lon="3.28104">
        <ele>5.6</ele>
        <time>2024-11-10T12:10:04Z</time>
      </trkpt>
      <trkpt lat="42.2887" lon="3.28104">
        <ele>5.6</ele>
        <time>2024-11-10T12:10:05Z</time>
      </trkpt>
      <trkpt lat="42.2887" lon="3.28104">
        <ele>5.6</ele>
        <time>2024-11-10T12:10:06Z</time>
      </trkpt>
      <trkpt lat="42.2887" lon="3.28104">
        <ele>5.6</ele>
        <time>2024-11-10T12:10:07Z</time>
      </trkpt>
      <trkpt lat="42.2887" lon="3.28104">
        <ele>5.6</ele>
        <time>2024-11-10T12:10:08Z</time>
      </trkpt>
      <trkpt lat="42.2887" lon="3.28104">
        <ele>5.6</ele>
        <time>2024-11-10T12:10:09Z</time>
      </trkpt>
      <trkpt lat="42.2887" lon="3.28104">
        <ele>5.6</ele>
        <time>2024-11-10T12:10:10Z</time>
      </trkpt>
      <trkpt lat="42.2887" lon="3.28104">
        <ele>5.6</ele>
        <time>2024-11-10T12:10:11Z</time>
      </trkpt>
      <trkpt lat="42.2887" lon="3.28104">
        <ele>5.6</ele>
        <time>2024-11-10T12:10:12Z</time>
      </trkpt>
      <trkpt lat="42.2887" lon="3.28104">
        <ele>5.6</ele>
        <time>2024-11-10T12:10:13Z</time>
      </trkpt>
      <trkpt lat="42.2887" lon="3.28104">
        <ele>5.6</ele>
        <time>2024-11-10T12:10:14Z</time>
      </trkpt>
      <trkpt lat="42.2887" lon="3.28104">
        <ele>5.6</ele>
        <time>2024-11-10T12:10:15Z</time>
      </trkpt>
      <trkpt lat="42.2887" lon="3.28104">
        <ele>5.6</ele>
        <time>2024-11-10T12:10:16Z</time>
      </trkpt>
      <trkpt lat="42.2887" lon="3.28104">
        <ele>5.6</ele>
        <time>2024-11-10T12:10:17Z</time>
      </trkpt>
      <trkpt lat="42.2887" lon="3.28104">
        <ele>5.6</ele>
        <time>2024-11-10T12:10:18Z</time>
      </trkpt>
      <trkpt lat="42.2887" lon="3.28104">
        <ele>5.6</ele>
        <time>2024-11-10T12:10:19Z</time>
      </trkpt>
      <trkpt lat="42.2887" lon="3.28104">
        <ele>5.6</ele>
        <time>2024-11-10T12:10:20Z</time>
      </trkpt>
      <trkpt lat="42.2887" lon="3.28104">
        <ele>5.6</ele>
        <time>2024-11-10T12:10:21Z</time>
      </trkpt>
      <trkpt lat="42.2887" lon="3.28104">
        <ele>5.6</ele>
        <time>2024-11-10T12:10:22Z</time>
      </trkpt>
      <trkpt lat="42.2887" lon="3.28104">
        <ele>5.6</ele>
        <time>2024-11-10T12:10:23Z</time>
      </trkpt>
      <trkpt lat="42.2887" lon="3.28104">
        <ele>5.6</ele>
        <time>2024-11-10T12:10:24Z</time>
      </trkpt>
      <trkpt lat="42.2887" lon="3.28104">
        <ele>5.6</ele>
        <time>2024-11-10T12:10:25Z</time>
      </trkpt>
      <trkpt lat="42.2887" lon="3.28104">
        <ele>5.6</ele>
        <time>2024-11-10T12:10:26Z</time>
      </trkpt>
      <trkpt lat="42.2887" lon="3.28104">
        <ele>5.6</ele>
        <time>2024-11-10T12:10:27Z</time>
      </trkpt>
      <trkpt lat="42.2887" lon="3.28104">
        <ele>5.6</ele>
        <time>2024-11-10T12:10:28Z</time>
      </trkpt>
      <trkpt lat="42.2887" lon="3.28104">
        <ele>5.6</ele>
        <time>2024-11-10T12:10:29Z</time>
      </trkpt>
      <trkpt lat="42.2887" lon="3.28104">
        <ele>5.6</ele>
        <time>2024-11-10T12:10:30Z</time>
      </trkpt>
      <trkpt lat="42.2887" lon="3.28104">
        <ele>5.6</ele>
        <time>2024-11-10T12:10:31Z</time>
      </trkpt>
      <trkpt lat="42.2887" lon="3.28104">
        <ele>5.6</ele>
        <time>2024-11-10T12:10:32Z</time>
      </trkpt>
      <trkpt lat="42.2887" lon="3.28104">
        <ele>5.6</ele>
        <time>2024-11-10T12:10:33Z</time>
      </trkpt>
      <trkpt lat="42.2887" lon="3.28104">
        <ele>5.6</ele>
        <time>2024-11-10T12:10:34Z</time>
      </trkpt>
      <trkpt lat="42.2887" lon="3.28104">
        <ele>5.6</ele>
        <time>2024-11-10T12:10:35Z</time>
      </trkpt>
      <trkpt lat="42.2887" lon="3.28104">
        <ele>5.6</ele>
        <time>2024-11-10T12:10:36Z</time>
      </trkpt>
      <trkpt lat="42.2887" lon="3.28104">
        <ele>5.6</ele>
        <time>2024-11-10T12:10:37Z</time>
      </trkpt>
      <trkpt lat="42.2887" lon="3.28104">
        <ele>5.6</ele>
        <time>2024-11-10T12:10:38Z</time>
      </trkpt>
      <trkpt lat="42.2887" lon="3.28104">
        <ele>5.6</ele>
        <time>2024-11-10T12:10:39Z</time>
      </trkpt>
      <trkpt lat="42.2887" lon="3.28104">
        <ele>5.6</ele>
        <time>2024-11-10T12:10:40Z</time>
      </trkpt>
      <trkpt lat="42.2887" lon="3.28104">
        <ele>5.6</ele>
        <time>2024-11-10T12:10:41Z</time>
      </trkpt>
      <trkpt lat="42.2887" lon="3.28104">
        <ele>5.6</ele>
        <time>2024-11-10T12:10:42Z</time>
      </trkpt>
      <trkpt lat="42.2887" lon="3.28104">
        <ele>5.6</ele>
        <time>2024-11-10T12:10:43Z</time>
      </trkpt>
      <trkpt lat="42.2887" lon="3.28104">
        <ele>5.6</ele>
        <time>2024-11-10T12:10:44Z</time>
      </trkpt>
      <trkpt lat="42.2887" lon="3.28104">
        <ele>5.6</ele>
        <time>2024-11-10T12:10:45Z</time>
      </trkpt>
      <trkpt lat="42.2887" lon="3.28104">
        <ele>5.6</ele>
        <time>2024-11-10T12:10:46Z</time>
      </trkpt>
      <trkpt lat="42.2887" lon="3.28104">
        <ele>5.6</ele>
        <time>2024-11-10T12:10:47Z</time>
      </trkpt>
      <trkpt lat="42.2887" lon="3.28104">
        <ele>5.6</ele>
        <time>2024-11-10T12:10:48Z</time>
      </trkpt>
      <trkpt lat="42.2887" lon="3.28104">
        <ele>5.6</ele>
        <time>2024-11-10T12:10:49Z</time>
      </trkpt>
      <trkpt lat="42.2887" lon="3.28104">
        <ele>5.6</ele>
        <time>2024-11-10T12:10:50Z</time>
      </trkpt>
      <trkpt lat="42.2887" lon="3.28104">
        <ele>5.6</ele>
        <time>2024-11-10T12:10:51Z</time>
      </trkpt>
      <trkpt lat="42.2887" lon="3.28104">
        <ele>5.6</ele>
        <time>2024-11-10T12:10:52Z</time>
      </trkpt>
      <trkpt lat="42.2887" lon="3.28104">
        <ele>5.6</ele>
        <time>2024-11-10T12:10:53Z</time>
      </trkpt>
      <trkpt lat="42.2887" lon="3.28104">
        <ele>5.6</ele>
        <time>2024-11-10T12:10:54Z</time>
      </trkpt>
      <trkpt lat="42.2887" lon="3.28104">
        <ele>5.6</ele>
        <time>2024-11-10T12:10:55Z</time>
      </trkpt>
      <trkpt lat="42.2887" lon="3.28104">
        <ele>5.6</ele>
        <time>2024-11-10T12:10:56Z</time>
      </trkpt>
      <trkpt lat="42.2887" lon="3.28104">
        <ele>5.6</ele>
        <time>2024-11-10T12:10:57Z</time>
      </trkpt>
      <trkpt lat="42.2887" lon="3.28104">
        <ele>5.6</ele>
        <time>2024-11-10T12:10:58Z</time>
      </trkpt>
      <trkpt lat="42.2887" lon="3.28104">
        <ele>5.6</ele>
        <time>2024-11-10T12:10:59Z</time>
      </trkpt>
      <trkpt lat="42.2887" lon="3.28104">
        <ele>5.6</ele>
        <time>2024-11-10T12:11:00Z</time>
      </trkpt>
      <trkpt lat="42.2887" lon="3.28104">
        <ele>5.6</ele>
        <time>2024-11-10T12:11:01Z</time>
      </trkpt>
      <trkpt lat="42.2887" lon="3.28104">
        <ele>5.6</ele>
        <time>2024-11-10T12:11:02Z</time>
      </trkpt>
      <trkpt lat="42.2887" lon="3.28104">
        <ele>5.6</ele>
        <time>2024-11-10T12:11:03Z</time>
      </trkpt>
      <trkpt lat="42.2887" lon="3.28104">
        <ele>5.6</ele>
        <time>2024-11-10T12:11:04Z</time>
      </trkpt>
      <trkpt lat="42.2887" lon="3.28104">
        <ele>5.6</ele>
        <time>2024-11-10T12:11:05Z</time>
      </trkpt>
      <trkpt lat="42.2887" lon="3.28104">
        <ele>5.6</ele>
        <time>2024-11-10T12:11:06Z</time>
      </trkpt>
      <trkpt lat="42.2887" lon="3.28104">
        <ele>5.6</ele>
        <time>2024-11-10T12:11:07Z</time>
      </trkpt>
      <trkpt lat="42.2887" lon="3.28104">
        <ele>5.6</ele>
        <time>2024-11-10T12:11:08Z</time>
      </trkpt>
      <trkpt lat="42.2887" lon="3.28104">
        <ele>5.6</ele>
        <time>2024-11-10T12:11:09Z</time>
      </trkpt>
      <trkpt lat="42.2887" lon="3.28104">
        <ele>5.6</ele>
        <time>2024-11-10T12:11:10Z</time>
      </trkpt>
      <trkpt lat="42.2887" lon="3.28104">
        <ele>5.6</ele>
        <time>2024-11-10T12:11:11Z</time>
      </trkpt>
      <trkpt lat="42.2887" lon="3.28104">
        <ele>5.6</ele>
        <time>2024-11-10T12:11:12Z</time>
      </trkpt>
      <trkpt lat="42.2887" lon="3.28104">
        <ele>5.6</ele>
        <time>2024-11-10T12:11:13Z</time>
      </trkpt>
      <trkpt lat="42.2887" lon="3.28104">
        <ele>5.6</ele>
        <time>2024-11-10T12:11:14Z</time>
      </trkpt>
      <trkpt lat="42.2887" lon="3.28104">
        <ele>5.6</ele>
        <time>2024-11-10T12:11:15Z</time>
      </trkpt>
      <trkpt lat="42.2887" lon="3.28104">
        <ele>5.6</ele>
        <time>2024-11-10T12:11:16Z</time>
      </trkpt>
      <trkpt lat="42.2887" lon="3.28104">
        <ele>5.6</ele>
        <time>2024-11-10T12:11:17Z</time>
      </trkpt>
      <trkpt lat="42.2887" lon="3.28104">
        <ele>5.6</ele>
        <time>2024-11-10T12:11:18Z</time>
      </trkpt>
      <trkpt lat="42.2887" lon="3.28104">
        <ele>5.6</ele>
        <time>2024-11-10T12:11:19Z</time>
      </trkpt>
      <trkpt lat="42.2887" lon="3.28104">
        <ele>5.6</ele>
        <time>2024-11-10T12:11:20Z</time>
      </trkpt>
      <trkpt lat="42.2887" lon="3.28104">
        <ele>5.6</ele>
        <time>2024-11-10T12:11:21Z</time>
      </trkpt>
      <trkpt lat="42.2887" lon="3.28104">
        <ele>5.6</ele>
        <time>2024-11-10T12:11:22Z</time>
      </trkpt>
      <trkpt lat="42.2887" lon="3.28104">
        <ele>5.6</ele>
        <time>2024-11-10T12:11:23Z</time>
      </trkpt>
      <trkpt lat="42.2887" lon="3.28104">
        <ele>5.6</ele>
        <time>2024-11-10T12:11:24Z</time>
      </trkpt>
      <trkpt lat="42.2887" lon="3.28104">
        <ele>5.6</ele>
        <time>2024-11-10T12:11:25Z</time>
      </trkpt>
      <trkpt lat="42.2887" lon="3.28104">
        <ele>5.6</ele>
        <time>2024-11-10T12:11:26Z</time>
      </trkpt>
      <trkpt lat="42.2887" lon="3.28104">
        <ele>5.6</ele>
        <time>2024-11-10T12:11:27Z</time>
      </trkpt>
      <trkpt lat="42.2887" lon="3.28104">
        <ele>5.6</ele>
        <time>2024-11-10T12:11:28Z</time>
      </trkpt>
      <trkpt lat="42.2887" lon="3.28104">
        <ele>5.6</ele>
        <time>2024-11-10T12:11:29Z</time>
      </trkpt>
      <trkpt lat="42.2887" lon="3.28104">
        <ele>5.6</ele>
        <time>2024-11-10T12:11:30Z</time>
      </trkpt>
      <trkpt lat="42.2887" lon="3.28104">
        <ele>5.6</ele>
        <time>2024-11-10T12:11:31Z</time>
      </trkpt>
      <trkpt lat="42.2887" lon="3.28104">
        <ele>5.6</ele>
        <time>2024-11-10T12:11:32Z</time>
      </trkpt>
      <trkpt lat="42.2887" lon="3.28104">
        <ele>5.6</ele>
        <time>2024-11-10T12:11:33Z</time>
      </trkpt>
      <trkpt lat="42.2887" lon="3.28104">
        <ele>5.6</ele>
        <time>2024-11-10T12:11:34Z</time>
      </trkpt>
      <trkpt lat="42.2887" lon="3.28104">
        <ele>5.6</ele>
        <time>2024-11-10T12:11:35Z</time>
      </trkpt>
      <trkpt lat="42.2887" lon="3.28104">
        <ele>5.6</ele>
        <time>2024-11-10T12:11:36Z</time>
      </trkpt>
      <trkpt lat="42.2887" lon="3.28104">
        <ele>5.6</ele>
        <time>2024-11-10T12:11:37Z</time>
      </trkpt>
      <trkpt lat="42.2887" lon="3.28104">
        <ele>5.6</ele>
        <time>2024-11-10T12:11:38Z</time>
      </trkpt>
      <trkpt lat="42.2887" lon="3.28104">
        <ele>5.6</ele>
        <time>2024-11-10T12:11:39Z</time>
      </trkpt>
      <trkpt lat="42.2887" lon="3.28104">
        <ele>5.6</ele>
        <time>2024-11-10T12:11:40Z</time>
      </trkpt>
      <trkpt lat="42.2887" lon="3.28104">
        <ele>5.6</ele>
        <time>2024-11-10T12:11:41Z</time>
      </trkpt>
      <trkpt lat="42.2887" lon="3.28104">
        <ele>5.6</ele>
        <time>2024-11-10T12:11:42Z</time>
      </trkpt>
      <trkpt lat="42.2887" lon="3.28104">
        <ele>5.6</ele>
        <time>2024-11-10T12:11:43Z</time>
      </trkpt>
      <trkpt lat="42.2887" lon="3.28104">
        <ele>5.6</ele>
        <time>2024-11-10T12:11:44Z</time>
      </trkpt>
      <trkpt lat="42.2887" lon="3.28104">
        <ele>5.6</ele>
        <time>2024-11-10T12:11:45Z</time>
      </trkpt>
      <trkpt lat="42.2887" lon="3.28104">
        <ele>5.6</ele>
        <time>2024-11-10T12:11:46Z</time>
      </trkpt>
      <trkpt lat="42.2887" lon="3.28104">
        <ele>5.6</ele>
        <time>2024-11-10T12:11:47Z</time>
      </trkpt>
      <trkpt lat="42.2887" lon="3.28104">
        <ele>5.6</ele>
        <time>2024-11-10T12:11:48Z</time>
      </trkpt>
      <trkpt lat="42.2887" lon="3.28104">
        <ele>5.6</ele>
        <time>2024-11-10T12:11:49Z</time>
      </trkpt>
      <trkpt lat="42.2887" lon="3.28104">
        <ele>5.6</ele>
        <time>2024-11-10T12:11:50Z</time>
      </trkpt>
      <trkpt lat="42.2887" lon="3.28104">
        <ele>5.6</ele>
        <time>2024-11-10T12:11:51Z</time>
      </trkpt>
      <trkpt lat="42.2887" lon="3.28104">
        <ele>5.6</ele>
        <time>2024-11-10T12:11:52Z</time>
      </trkpt>
      <trkpt lat="42.2887" lon="3.28104">
        <ele>5.6</ele>
        <time>2024-11-10T12:11:53Z</time>
      </trkpt>
      <trkpt lat="42.2887" lon="3.28103">
        <ele>5.6</ele>
        <time>2024-11-10T12:11:54Z</time>
      </trkpt>
      <trkpt lat="42.28871" lon="3.28104">
        <ele>5.6</ele>
        <time>2024-11-10T12:11:55Z</time>
      </trkpt>
      <trkpt lat="42.28871" lon="3.28104">
        <ele>5.6</ele>
        <time>2024-11-10T12:11:56Z</time>
      </trkpt>
      <trkpt lat="42.28871" lon="3.28103">
        <ele>5.6</ele>
        <time>2024-11-10T12:11:57Z</time>
      </trkpt>
      <trkpt lat="42.28872" lon="3.28103">
        <ele>5.6</ele>
        <time>2024-11-10T12:11:58Z</time>
      </trkpt>
      <trkpt lat="42.28873" lon="3.28103">
        <ele>5.6</ele>
        <time>2024-11-10T12:11:59Z</time>
      </trkpt>
      <trkpt lat="42.28874" lon="3.28103">
        <ele>5.6</ele>
        <time>2024-11-10T12:12:00Z</time>
      </trkpt>
      <trkpt lat="42.28875" lon="3.28103">
        <ele>5.7</ele>
        <time>2024-11-10T12:12:01Z</time>
      </trkpt>
      <trkpt lat="42.28876" lon="3.28103">
        <ele>5.8</ele>
        <time>2024-11-10T12:12:02Z</time>
      </trkpt>
      <trkpt lat="42.28878" lon="3.28103">
        <ele>5.9</ele>
        <time>2024-11-10T12:12:03Z</time>
      </trkpt>
      <trkpt lat="42.28879" lon="3.28104">
        <ele>5.9</ele>
        <time>2024-11-10T12:12:04Z</time>
      </trkpt>
      <trkpt lat="42.2888" lon="3.28105">
        <ele>5.9</ele>
        <time>2024-11-10T12:12:05Z</time>
      </trkpt>
      <trkpt lat="42.2888" lon="3.28106">
        <ele>5.9</ele>
        <time>2024-11-10T12:12:06Z</time>
      </trkpt>
      <trkpt lat="42.2888" lon="3.28107">
        <ele>5.9</ele>
        <time>2024-11-10T12:12:07Z</time>
      </trkpt>
      <trkpt lat="42.2888" lon="3.28109">
        <ele>5.9</ele>
        <time>2024-11-10T12:12:08Z</time>
      </trkpt>
      <trkpt lat="42.28881" lon="3.2811">
        <ele>5.9</ele>
        <time>2024-11-10T12:12:09Z</time>
      </trkpt>
      <trkpt lat="42.28882" lon="3.28111">
        <ele>5.9</ele>
        <time>2024-11-10T12:12:10Z</time>
      </trkpt>
      <trkpt lat="42.28882" lon="3.28113">
        <ele>5.9</ele>
        <time>2024-11-10T12:12:11Z</time>
      </trkpt>
      <trkpt lat="42.28882" lon="3.28114">
        <ele>5.9</ele>
        <time>2024-11-10T12:12:12Z</time>
      </trkpt>
      <trkpt lat="42.28883" lon="3.28115">
        <ele>5.9</ele>
        <time>2024-11-10T12:12:13Z</time>
      </trkpt>
      <trkpt lat="42.28884" lon="3.28116">
        <ele>5.9</ele>
        <time>2024-11-10T12:12:14Z</time>
      </trkpt>
      <trkpt lat="42.28884" lon="3.28117">
        <ele>5.9</ele>
        <time>2024-11-10T12:12:15Z</time>
      </trkpt>
      <trkpt lat="42.28884" lon="3.28118">
        <ele>5.9</ele>
        <time>2024-11-10T12:12:16Z</time>
      </trkpt>
      <trkpt lat="42.28885" lon="3.28119">
        <ele>5.9</ele>
        <time>2024-11-10T12:12:17Z</time>
      </trkpt>
      <trkpt lat="42.28886" lon="3.28121">
        <ele>5.9</ele>
        <time>2024-11-10T12:12:18Z</time>
      </trkpt>
      <trkpt lat="42.28886" lon="3.28122">
        <ele>5.9</ele>
        <time>2024-11-10T12:12:19Z</time>
      </trkpt>
      <trkpt lat="42.28887" lon="3.28123">
        <ele>5.9</ele>
        <time>2024-11-10T12:12:20Z</time>
      </trkpt>
      <trkpt lat="42.28887" lon="3.28124">
        <ele>5.9</ele>
        <time>2024-11-10T12:12:21Z</time>
      </trkpt>
      <trkpt lat="42.28887" lon="3.28124">
        <ele>5.9</ele>
        <time>2024-11-10T12:12:22Z</time>
      </trkpt>
      <trkpt lat="42.28886" lon="3.28124">
        <ele>5.9</ele>
        <time>2024-11-10T12:12:23Z</time>
      </trkpt>
      <trkpt lat="42.28886" lon="3.28125">
        <ele>5.9</ele>
        <time>2024-11-10T12:12:24Z</time>
      </trkpt>
      <trkpt lat="42.28885" lon="3.28125">
        <ele>5.9</ele>
        <time>2024-11-10T12:12:25Z</time>
      </trkpt>
      <trkpt lat="42.28885" lon="3.28124">
        <ele>5.9</ele>
        <time>2024-11-10T12:12:26Z</time>
      </trkpt>
      <trkpt lat="42.28885" lon="3.28124">
        <ele>5.9</ele>
        <time>2024-11-10T12:12:27Z</time>
      </trkpt>
      <trkpt lat="42.28886" lon="3.28123">
        <ele>5.9</ele>
        <time>2024-11-10T12:12:28Z</time>
      </trkpt>
      <trkpt lat="42.28886" lon="3.28123">
        <ele>5.9</ele>
        <time>2024-11-10T12:12:29Z</time>
      </trkpt>
      <trkpt lat="42.28886" lon="3.28123">
        <ele>5.9</ele>
        <time>2024-11-10T12:12:30Z</time>
      </trkpt>
      <trkpt lat="42.28886" lon="3.28123">
        <ele>5.9</ele>
        <time>2024-11-10T12:12:31Z</time>
      </trkpt>
      <trkpt lat="42.28886" lon="3.28123">
        <ele>5.9</ele>
        <time>2024-11-10T12:12:32Z</time>
      </trkpt>
      <trkpt lat="42.28886" lon="3.28123">
        <ele>5.9</ele>
        <time>2024-11-10T12:12:33Z</time>
      </trkpt>
      <trkpt lat="42.28885" lon="3.28123">
        <ele>6</ele>
        <time>2024-11-10T12:12:34Z</time>
      </trkpt>
      <trkpt lat="42.28885" lon="3.28123">
        <ele>6</ele>
        <time>2024-11-10T12:12:35Z</time>
      </trkpt>
      <trkpt lat="42.28884" lon="3.28123">
        <ele>6</ele>
        <time>2024-11-10T12:12:36Z</time>
      </trkpt>
      <trkpt lat="42.28884" lon="3.28124">
        <ele>6</ele>
        <time>2024-11-10T12:12:37Z</time>
      </trkpt>
      <trkpt lat="42.28883" lon="3.28124">
        <ele>6</ele>
        <time>2024-11-10T12:12:38Z</time>
      </trkpt>
      <trkpt lat="42.28882" lon="3.28124">
        <ele>6</ele>
        <time>2024-11-10T12:12:39Z</time>
      </trkpt>
      <trkpt lat="42.28881" lon="3.28124">
        <ele>6</ele>
        <time>2024-11-10T12:12:40Z</time>
      </trkpt>
      <trkpt lat="42.2888" lon="3.28124">
        <ele>6</ele>
        <time>2024-11-10T12:12:41Z</time>
      </trkpt>
      <trkpt lat="42.28879" lon="3.28125">
        <ele>6</ele>
        <time>2024-11-10T12:12:42Z</time>
      </trkpt>
      <trkpt lat="42.28878" lon="3.28125">
        <ele>6</ele>
        <time>2024-11-10T12:12:43Z</time>
      </trkpt>
      <trkpt lat="42.28878" lon="3.28126">
        <ele>6</ele>
        <time>2024-11-10T12:12:44Z</time>
      </trkpt>
      <trkpt lat="42.28877" lon="3.28126">
        <ele>6</ele>
        <time>2024-11-10T12:12:45Z</time>
      </trkpt>
      <trkpt lat="42.28877" lon="3.28127">
        <ele>6</ele>
        <time>2024-11-10T12:12:46Z</time>
      </trkpt>
      <trkpt lat="42.28877" lon="3.28129">
        <ele>6</ele>
        <time>2024-11-10T12:12:47Z</time>
      </trkpt>
      <trkpt lat="42.28878" lon="3.28129">
        <ele>6</ele>
        <time>2024-11-10T12:12:48Z</time>
      </trkpt>
      <trkpt lat="42.28879" lon="3.2813">
        <ele>6</ele>
        <time>2024-11-10T12:12:49Z</time>
      </trkpt>
      <trkpt lat="42.28879" lon="3.28129">
        <ele>6</ele>
        <time>2024-11-10T12:12:50Z</time>
      </trkpt>
      <trkpt lat="42.2888" lon="3.28129">
        <ele>6</ele>
        <time>2024-11-10T12:12:51Z</time>
      </trkpt>
      <trkpt lat="42.28881" lon="3.28129">
        <ele>6</ele>
        <time>2024-11-10T12:12:52Z</time>
      </trkpt>
      <trkpt lat="42.28881" lon="3.28129">
        <ele>6</ele>
        <time>2024-11-10T12:12:53Z</time>
      </trkpt>
      <trkpt lat="42.28882" lon="3.2813">
        <ele>6</ele>
        <time>2024-11-10T12:12:54Z</time>
      </trkpt>
      <trkpt lat="42.28883" lon="3.2813">
        <ele>6</ele>
        <time>2024-11-10T12:12:55Z</time>
      </trkpt>
      <trkpt lat="42.28884" lon="3.28129">
        <ele>6</ele>
        <time>2024-11-10T12:12:56Z</time>
      </trkpt>
      <trkpt lat="42.28884" lon="3.28129">
        <ele>6</ele>
        <time>2024-11-10T12:12:57Z</time>
      </trkpt>
      <trkpt lat="42.28885" lon="3.28129">
        <ele>6</ele>
        <time>2024-11-10T12:12:58Z</time>
      </trkpt>
      <trkpt lat="42.28886" lon="3.28129">
        <ele>6</ele>
        <time>2024-11-10T12:12:59Z</time>
      </trkpt>
      <trkpt lat="42.28887" lon="3.2813">
        <ele>6</ele>
        <time>2024-11-10T12:13:00Z</time>
      </trkpt>
      <trkpt lat="42.28887" lon="3.2813">
        <ele>6</ele>
        <time>2024-11-10T12:13:01Z</time>
      </trkpt>
      <trkpt lat="42.28888" lon="3.2813">
        <ele>6</ele>
        <time>2024-11-10T12:13:02Z</time>
      </trkpt>
      <trkpt lat="42.28888" lon="3.2813">
        <ele>6</ele>
        <time>2024-11-10T12:13:03Z</time>
      </trkpt>
      <trkpt lat="42.28889" lon="3.28129">
        <ele>6</ele>
        <time>2024-11-10T12:13:04Z</time>
      </trkpt>
      <trkpt lat="42.28889" lon="3.28129">
        <ele>6</ele>
        <time>2024-11-10T12:13:05Z</time>
      </trkpt>
      <trkpt lat="42.28889" lon="3.28129">
        <ele>6</ele>
        <time>2024-11-10T12:13:06Z</time>
      </trkpt>
      <trkpt lat="42.28889" lon="3.28129">
        <ele>6</ele>
        <time>2024-11-10T12:13:07Z</time>
      </trkpt>
      <trkpt lat="42.28889" lon="3.28129">
        <ele>6</ele>
        <time>2024-11-10T12:13:08Z</time>
      </trkpt>
      <trkpt lat="42.28889" lon="3.28129">
        <ele>6</ele>
        <time>2024-11-10T12:13:11Z</time>
      </trkpt>
      <trkpt lat="42.28889" lon="3.28129">
        <ele>6</ele>
        <time>2024-11-10T12:13:12Z</time>
      </trkpt>
      <trkpt lat="42.28889" lon="3.28129">
        <ele>6</ele>
        <time>2024-11-10T12:13:13Z</time>
      </trkpt>
      <trkpt lat="42.28889" lon="3.28128">
        <ele>6</ele>
        <time>2024-11-10T12:13:14Z</time>
      </trkpt>
      <trkpt lat="42.2889" lon="3.28128">
        <ele>6</ele>
        <time>2024-11-10T12:13:15Z</time>
      </trkpt>
      <trkpt lat="42.2889" lon="3.28128">
        <ele>6</ele>
        <time>2024-11-10T12:13:16Z</time>
      </trkpt>
      <trkpt lat="42.2889" lon="3.28128">
        <ele>6</ele>
        <time>2024-11-10T12:13:17Z</time>
      </trkpt>
      <trkpt lat="42.2889" lon="3.28128">
        <ele>6</ele>
        <time>2024-11-10T12:13:18Z</time>
      </trkpt>
      <trkpt lat="42.2889" lon="3.28127">
        <ele>6</ele>
        <time>2024-11-10T12:13:19Z</time>
      </trkpt>
      <trkpt lat="42.2889" lon="3.28127">
        <ele>6</ele>
        <time>2024-11-10T12:13:20Z</time>
      </trkpt>
      <trkpt lat="42.2889" lon="3.28127">
        <ele>6</ele>
        <time>2024-11-10T12:13:21Z</time>
      </trkpt>
      <trkpt lat="42.2889" lon="3.28127">
        <ele>6</ele>
        <time>2024-11-10T12:13:22Z</time>
      </trkpt>
      <trkpt lat="42.28889" lon="3.28126">
        <ele>6</ele>
        <time>2024-11-10T12:13:23Z</time>
      </trkpt>
      <trkpt lat="42.28888" lon="3.28127">
        <ele>6</ele>
        <time>2024-11-10T12:13:24Z</time>
      </trkpt>
      <trkpt lat="42.28888" lon="3.28128">
        <ele>6</ele>
        <time>2024-11-10T12:13:25Z</time>
      </trkpt>
      <trkpt lat="42.28888" lon="3.28129">
        <ele>6</ele>
        <time>2024-11-10T12:13:26Z</time>
      </trkpt>
      <trkpt lat="42.28888" lon="3.28129">
        <ele>6</ele>
        <time>2024-11-10T12:13:27Z</time>
      </trkpt>
      <trkpt lat="42.28888" lon="3.28129">
        <ele>6</ele>
        <time>2024-11-10T12:13:28Z</time>
      </trkpt>
      <trkpt lat="42.28888" lon="3.28129">
        <ele>6</ele>
        <time>2024-11-10T12:13:29Z</time>
      </trkpt>
      <trkpt lat="42.28888" lon="3.28129">
        <ele>6</ele>
        <time>2024-11-10T12:13:30Z</time>
      </trkpt>
      <trkpt lat="42.28888" lon="3.28129">
        <ele>6</ele>
        <time>2024-11-10T12:13:31Z</time>
      </trkpt>
      <trkpt lat="42.28888" lon="3.28129">
        <ele>6</ele>
        <time>2024-11-10T12:13:32Z</time>
      </trkpt>
      <trkpt lat="42.28888" lon="3.28129">
        <ele>6</ele>
        <time>2024-11-10T12:13:33Z</time>
      </trkpt>
      <trkpt lat="42.28888" lon="3.28129">
        <ele>6</ele>
        <time>2024-11-10T12:13:34Z</time>
      </trkpt>
      <trkpt lat="42.28888" lon="3.28129">
        <ele>6</ele>
        <time>2024-11-10T12:13:35Z</time>
      </trkpt>
      <trkpt lat="42.28888" lon="3.28129">
        <ele>6</ele>
        <time>2024-11-10T12:13:36Z</time>
      </trkpt>
      <trkpt lat="42.28888" lon="3.28129">
        <ele>6</ele>
        <time>2024-11-10T12:13:37Z</time>
      </trkpt>
      <trkpt lat="42.28888" lon="3.28129">
        <ele>6</ele>
        <time>2024-11-10T12:13:38Z</time>
      </trkpt>
      <trkpt lat="42.28888" lon="3.28129">
        <ele>6</ele>
        <time>2024-11-10T12:13:39Z</time>
      </trkpt>
      <trkpt lat="42.28888" lon="3.28129">
        <ele>6</ele>
        <time>2024-11-10T12:13:40Z</time>
      </trkpt>
      <trkpt lat="42.28888" lon="3.28129">
        <ele>6</ele>
        <time>2024-11-10T12:13:41Z</time>
      </trkpt>
      <trkpt lat="42.28888" lon="3.28129">
        <ele>6</ele>
        <time>2024-11-10T12:13:42Z</time>
      </trkpt>
      <trkpt lat="42.28888" lon="3.28129">
        <ele>6</ele>
        <time>2024-11-10T12:13:43Z</time>
      </trkpt>
      <trkpt lat="42.28888" lon="3.28129">
        <ele>6</ele>
        <time>2024-11-10T12:13:44Z</time>
      </trkpt>
      <trkpt lat="42.28888" lon="3.28129">
        <ele>6</ele>
        <time>2024-11-10T12:13:45Z</time>
      </trkpt>
      <trkpt lat="42.28888" lon="3.28129">
        <ele>6</ele>
        <time>2024-11-10T12:13:46Z</time>
      </trkpt>
      <trkpt lat="42.28888" lon="3.28129">
        <ele>6</ele>
        <time>2024-11-10T12:13:47Z</time>
      </trkpt>
      <trkpt lat="42.28888" lon="3.28129">
        <ele>6</ele>
        <time>2024-11-10T12:13:48Z</time>
      </trkpt>
      <trkpt lat="42.28888" lon="3.28129">
        <ele>6</ele>
        <time>2024-11-10T12:13:49Z</time>
      </trkpt>
      <trkpt lat="42.28888" lon="3.28129">
        <ele>6</ele>
        <time>2024-11-10T12:13:50Z</time>
      </trkpt>
      <trkpt lat="42.28888" lon="3.28129">
        <ele>6</ele>
        <time>2024-11-10T12:13:51Z</time>
      </trkpt>
      <trkpt lat="42.28888" lon="3.28129">
        <ele>6</ele>
        <time>2024-11-10T12:13:52Z</time>
      </trkpt>
      <trkpt lat="42.28888" lon="3.28129">
        <ele>6</ele>
        <time>2024-11-10T12:13:53Z</time>
      </trkpt>
      <trkpt lat="42.28888" lon="3.28129">
        <ele>6</ele>
        <time>2024-11-10T12:13:54Z</time>
      </trkpt>
      <trkpt lat="42.28888" lon="3.28129">
        <ele>6</ele>
        <time>2024-11-10T12:13:55Z</time>
      </trkpt>
      <trkpt lat="42.28888" lon="3.28129">
        <ele>6</ele>
        <time>2024-11-10T12:13:56Z</time>
      </trkpt>
      <trkpt lat="42.28888" lon="3.28129">
        <ele>6</ele>
        <time>2024-11-10T12:13:57Z</time>
      </trkpt>
      <trkpt lat="42.28888" lon="3.28129">
        <ele>6</ele>
        <time>2024-11-10T12:13:58Z</time>
      </trkpt>
      <trkpt lat="42.28888" lon="3.28129">
        <ele>6</ele>
        <time>2024-11-10T12:13:59Z</time>
      </trkpt>
      <trkpt lat="42.28888" lon="3.28129">
        <ele>6</ele>
        <time>2024-11-10T12:14:00Z</time>
      </trkpt>
      <trkpt lat="42.28888" lon="3.28129">
        <ele>6</ele>
        <time>2024-11-10T12:14:01Z</time>
      </trkpt>
      <trkpt lat="42.28888" lon="3.28129">
        <ele>6</ele>
        <time>2024-11-10T12:14:02Z</time>
      </trkpt>
      <trkpt lat="42.28888" lon="3.28129">
        <ele>6</ele>
        <time>2024-11-10T12:14:03Z</time>
      </trkpt>
      <trkpt lat="42.28888" lon="3.28129">
        <ele>6</ele>
        <time>2024-11-10T12:14:04Z</time>
      </trkpt>
      <trkpt lat="42.28888" lon="3.28129">
        <ele>6</ele>
        <time>2024-11-10T12:14:05Z</time>
      </trkpt>
      <trkpt lat="42.28888" lon="3.28129">
        <ele>6</ele>
        <time>2024-11-10T12:14:06Z</time>
      </trkpt>
      <trkpt lat="42.28888" lon="3.28129">
        <ele>6</ele>
        <time>2024-11-10T12:14:07Z</time>
      </trkpt>
      <trkpt lat="42.28888" lon="3.28129">
        <ele>6</ele>
        <time>2024-11-10T12:14:08Z</time>
      </trkpt>
      <trkpt lat="42.28888" lon="3.28129">
        <ele>6</ele>
        <time>2024-11-10T12:14:09Z</time>
      </trkpt>
      <trkpt lat="42.28888" lon="3.28129">
        <ele>6</ele>
        <time>2024-11-10T12:14:10Z</time>
      </trkpt>
      <trkpt lat="42.28888" lon="3.28129">
        <ele>6</ele>
        <time>2024-11-10T12:14:11Z</time>
      </trkpt>
      <trkpt lat="42.28888" lon="3.28129">
        <ele>6</ele>
        <time>2024-11-10T12:14:12Z</time>
      </trkpt>
      <trkpt lat="42.28889" lon="3.28124">
        <ele>6</ele>
        <time>2024-11-10T12:14:13Z</time>
      </trkpt>
      <trkpt lat="42.28889" lon="3.28123">
        <ele>6</ele>
        <time>2024-11-10T12:14:14Z</time>
      </trkpt>
      <trkpt lat="42.2889" lon="3.28122">
        <ele>6</ele>
        <time>2024-11-10T12:14:15Z</time>
      </trkpt>
      <trkpt lat="42.2889" lon="3.28122">
        <ele>6</ele>
        <time>2024-11-10T12:14:16Z</time>
      </trkpt>
      <trkpt lat="42.28889" lon="3.28122">
        <ele>6</ele>
        <time>2024-11-10T12:14:17Z</time>
      </trkpt>
      <trkpt lat="42.28889" lon="3.28122">
        <ele>6</ele>
        <time>2024-11-10T12:14:18Z</time>
      </trkpt>
      <trkpt lat="42.28889" lon="3.28123">
        <ele>6</ele>
        <time>2024-11-10T12:14:19Z</time>
      </trkpt>
      <trkpt lat="42.28889" lon="3.28122">
        <ele>6</ele>
        <time>2024-11-10T12:14:20Z</time>
      </trkpt>
      <trkpt lat="42.28889" lon="3.28122">
        <ele>6</ele>
        <time>2024-11-10T12:14:21Z</time>
      </trkpt>
      <trkpt lat="42.28889" lon="3.28122">
        <ele>6</ele>
        <time>2024-11-10T12:14:22Z</time>
      </trkpt>
      <trkpt lat="42.28889" lon="3.28122">
        <ele>6</ele>
        <time>2024-11-10T12:14:23Z</time>
      </trkpt>
      <trkpt lat="42.28889" lon="3.28122">
        <ele>6</ele>
        <time>2024-11-10T12:14:24Z</time>
      </trkpt>
      <trkpt lat="42.2889" lon="3.28122">
        <ele>6</ele>
        <time>2024-11-10T12:14:25Z</time>
      </trkpt>
      <trkpt lat="42.28889" lon="3.28122">
        <ele>6</ele>
        <time>2024-11-10T12:14:26Z</time>
      </trkpt>
      <trkpt lat="42.28889" lon="3.28122">
        <ele>6</ele>
        <time>2024-11-10T12:14:27Z</time>
      </trkpt>
      <trkpt lat="42.28889" lon="3.28122">
        <ele>6</ele>
        <time>2024-11-10T12:14:28Z</time>
      </trkpt>
      <trkpt lat="42.2889" lon="3.28122">
        <ele>6</ele>
        <time>2024-11-10T12:14:29Z</time>
      </trkpt>
      <trkpt lat="42.28889" lon="3.28122">
        <ele>6</ele>
        <time>2024-11-10T12:14:30Z</time>
      </trkpt>
      <trkpt lat="42.28889" lon="3.28122">
        <ele>6</ele>
        <time>2024-11-10T12:14:31Z</time>
      </trkpt>
      <trkpt lat="42.28889" lon="3.28122">
        <ele>6</ele>
        <time>2024-11-10T12:14:32Z</time>
      </trkpt>
      <trkpt lat="42.28889" lon="3.28122">
        <ele>6</ele>
        <time>2024-11-10T12:14:33Z</time>
      </trkpt>
      <trkpt lat="42.28889" lon="3.28122">
        <ele>6</ele>
        <time>2024-11-10T12:14:34Z</time>
      </trkpt>
      <trkpt lat="42.28889" lon="3.28122">
        <ele>6</ele>
        <time>2024-11-10T12:14:35Z</time>
      </trkpt>
      <trkpt lat="42.28889" lon="3.28122">
        <ele>6</ele>
        <time>2024-11-10T12:14:36Z</time>
      </trkpt>
      <trkpt lat="42.28889" lon="3.28122">
        <ele>6</ele>
        <time>2024-11-10T12:14:37Z</time>
      </trkpt>
      <trkpt lat="42.28889" lon="3.28122">
        <ele>6</ele>
        <time>2024-11-10T12:14:38Z</time>
      </trkpt>
      <trkpt lat="42.28889" lon="3.28122">
        <ele>6</ele>
        <time>2024-11-10T12:14:39Z</time>
      </trkpt>
      <trkpt lat="42.28889" lon="3.28122">
        <ele>6</ele>
        <time>2024-11-10T12:14:40Z</time>
      </trkpt>
      <trkpt lat="42.28889" lon="3.28123">
        <ele>6</ele>
        <time>2024-11-10T12:14:41Z</time>
      </trkpt>
      <trkpt lat="42.28889" lon="3.28123">
        <ele>6</ele>
        <time>2024-11-10T12:14:42Z</time>
      </trkpt>
      <trkpt lat="42.28889" lon="3.28124">
        <ele>6</ele>
        <time>2024-11-10T12:14:43Z</time>
      </trkpt>
      <trkpt lat="42.28889" lon="3.28124">
        <ele>6</ele>
        <time>2024-11-10T12:14:44Z</time>
      </trkpt>
      <trkpt lat="42.28889" lon="3.28124">
        <ele>6</ele>
        <time>2024-11-10T12:14:45Z</time>
      </trkpt>
      <trkpt lat="42.28888" lon="3.28126">
        <ele>6</ele>
        <time>2024-11-10T12:14:46Z</time>
      </trkpt>
      <trkpt lat="42.28888" lon="3.28127">
        <ele>6</ele>
        <time>2024-11-10T12:14:47Z</time>
      </trkpt>
      <trkpt lat="42.28888" lon="3.28126">
        <ele>6</ele>
        <time>2024-11-10T12:14:48Z</time>
      </trkpt>
      <trkpt lat="42.28889" lon="3.28125">
        <ele>6</ele>
        <time>2024-11-10T12:14:49Z</time>
      </trkpt>
      <trkpt lat="42.28889" lon="3.28123">
        <ele>6.1</ele>
        <time>2024-11-10T12:14:50Z</time>
      </trkpt>
      <trkpt lat="42.28889" lon="3.28122">
        <ele>6.1</ele>
        <time>2024-11-10T12:14:51Z</time>
      </trkpt>
      <trkpt lat="42.28889" lon="3.28122">
        <ele>6.1</ele>
        <time>2024-11-10T12:14:52Z</time>
      </trkpt>
      <trkpt lat="42.28889" lon="3.28122">
        <ele>6.1</ele>
        <time>2024-11-10T12:14:53Z</time>
      </trkpt>
      <trkpt lat="42.28889" lon="3.28122">
        <ele>6.1</ele>
        <time>2024-11-10T12:14:54Z</time>
      </trkpt>
      <trkpt lat="42.28889" lon="3.28122">
        <ele>6.1</ele>
        <time>2024-11-10T12:14:55Z</time>
      </trkpt>
      <trkpt lat="42.28889" lon="3.28122">
        <ele>6.1</ele>
        <time>2024-11-10T12:14:56Z</time>
      </trkpt>
      <trkpt lat="42.2889" lon="3.28122">
        <ele>6.1</ele>
        <time>2024-11-10T12:14:57Z</time>
      </trkpt>
      <trkpt lat="42.2889" lon="3.28122">
        <ele>6.1</ele>
        <time>2024-11-10T12:14:58Z</time>
      </trkpt>
      <trkpt lat="42.2889" lon="3.28122">
        <ele>6.1</ele>
        <time>2024-11-10T12:14:59Z</time>
      </trkpt>
      <trkpt lat="42.2889" lon="3.28122">
        <ele>6.1</ele>
        <time>2024-11-10T12:15:00Z</time>
      </trkpt>
      <trkpt lat="42.2889" lon="3.28122">
        <ele>6.1</ele>
        <time>2024-11-10T12:15:02Z</time>
      </trkpt>
      <trkpt lat="42.2889" lon="3.28122">
        <ele>6.1</ele>
        <time>2024-11-10T12:15:03Z</time>
      </trkpt>
      <trkpt lat="42.2889" lon="3.28122">
        <ele>6.1</ele>
        <time>2024-11-10T12:15:04Z</time>
      </trkpt>
      <trkpt lat="42.2889" lon="3.28123">
        <ele>6.1</ele>
        <time>2024-11-10T12:15:06Z</time>
      </trkpt>
      <trkpt lat="42.2889" lon="3.28122">
        <ele>6.1</ele>
        <time>2024-11-10T12:15:07Z</time>
      </trkpt>
      <trkpt lat="42.2889" lon="3.28123">
        <ele>6.1</ele>
        <time>2024-11-10T12:15:09Z</time>
      </trkpt>
      <trkpt lat="42.2889" lon="3.28123">
        <ele>6.1</ele>
        <time>2024-11-10T12:15:10Z</time>
      </trkpt>
      <trkpt lat="42.2889" lon="3.28123">
        <ele>6.1</ele>
        <time>2024-11-10T12:15:11Z</time>
      </trkpt>
      <trkpt lat="42.2889" lon="3.28122">
        <ele>6.1</ele>
        <time>2024-11-10T12:15:12Z</time>
      </trkpt>
      <trkpt lat="42.2889" lon="3.28122">
        <ele>6.1</ele>
        <time>2024-11-10T12:15:13Z</time>
      </trkpt>
      <trkpt lat="42.2889" lon="3.28122">
        <ele>6.1</ele>
        <time>2024-11-10T12:15:14Z</time>
      </trkpt>
      <trkpt lat="42.2889" lon="3.28122">
        <ele>6.1</ele>
        <time>2024-11-10T12:15:15Z</time>
      </trkpt>
      <trkpt lat="42.2889" lon="3.28123">
        <ele>6.1</ele>
        <time>2024-11-10T12:15:16Z</time>
      </trkpt>
      <trkpt lat="42.2889" lon="3.28123">
        <ele>6.1</ele>
        <time>2024-11-10T12:15:17Z</time>
      </trkpt>
      <trkpt lat="42.2889" lon="3.28123">
        <ele>6.1</ele>
        <time>2024-11-10T12:15:18Z</time>
      </trkpt>
      <trkpt lat="42.2889" lon="3.28123">
        <ele>6.1</ele>
        <time>2024-11-10T12:15:19Z</time>
      </trkpt>
      <trkpt lat="42.2889" lon="3.28122">
        <ele>6.1</ele>
        <time>2024-11-10T12:15:20Z</time>
      </trkpt>
      <trkpt lat="42.2889" lon="3.28122">
        <ele>6.1</ele>
        <time>2024-11-10T12:15:21Z</time>
      </trkpt>
      <trkpt lat="42.2889" lon="3.28122">
        <ele>6.1</ele>
        <time>2024-11-10T12:15:22Z</time>
      </trkpt>
      <trkpt lat="42.2889" lon="3.28122">
        <ele>6.1</ele>
        <time>2024-11-10T12:15:23Z</time>
      </trkpt>
      <trkpt lat="42.2889" lon="3.28122">
        <ele>6.1</ele>
        <time>2024-11-10T12:15:24Z</time>
      </trkpt>
      <trkpt lat="42.2889" lon="3.28122">
        <ele>6.1</ele>
        <time>2024-11-10T12:15:25Z</time>
      </trkpt>
      <trkpt lat="42.2889" lon="3.28122">
        <ele>6.1</ele>
        <time>2024-11-10T12:15:26Z</time>
      </trkpt>
      <trkpt lat="42.2889" lon="3.28122">
        <ele>6.1</ele>
        <time>2024-11-10T12:15:27Z</time>
      </trkpt>
      <trkpt lat="42.2889" lon="3.28122">
        <ele>6.1</ele>
        <time>2024-11-10T12:15:28Z</time>
      </trkpt>
      <trkpt lat="42.2889" lon="3.28122">
        <ele>6.1</ele>
        <time>2024-11-10T12:15:29Z</time>
      </trkpt>
      <trkpt lat="42.2889" lon="3.28122">
        <ele>6.1</ele>
        <time>2024-11-10T12:15:30Z</time>
      </trkpt>
      <trkpt lat="42.2889" lon="3.28122">
        <ele>6.1</ele>
        <time>2024-11-10T12:15:31Z</time>
      </trkpt>
      <trkpt lat="42.2889" lon="3.28122">
        <ele>6.1</ele>
        <time>2024-11-10T12:15:32Z</time>
      </trkpt>
      <trkpt lat="42.2889" lon="3.28122">
        <ele>6.1</ele>
        <time>2024-11-10T12:15:33Z</time>
      </trkpt>
      <trkpt lat="42.2889" lon="3.28122">
        <ele>6.1</ele>
        <time>2024-11-10T12:15:34Z</time>
      </trkpt>
      <trkpt lat="42.2889" lon="3.28128">
        <ele>6.1</ele>
        <time>2024-11-10T12:15:35Z</time>
      </trkpt>
      <trkpt lat="42.2889" lon="3.28129">
        <ele>6.1</ele>
        <time>2024-11-10T12:15:36Z</time>
      </trkpt>
      <trkpt lat="42.2889" lon="3.28129">
        <ele>6.1</ele>
        <time>2024-11-10T12:15:37Z</time>
      </trkpt>
      <trkpt lat="42.2889" lon="3.28129">
        <ele>6.1</ele>
        <time>2024-11-10T12:15:38Z</time>
      </trkpt>
      <trkpt lat="42.2889" lon="3.28129">
        <ele>6.1</ele>
        <time>2024-11-10T12:15:39Z</time>
      </trkpt>
      <trkpt lat="42.2889" lon="3.28123">
        <ele>6.1</ele>
        <time>2024-11-10T12:15:40Z</time>
      </trkpt>
      <trkpt lat="42.2889" lon="3.28122">
        <ele>6.1</ele>
        <time>2024-11-10T12:15:41Z</time>
      </trkpt>
      <trkpt lat="42.2889" lon="3.28121">
        <ele>6.1</ele>
        <time>2024-11-10T12:15:42Z</time>
      </trkpt>
      <trkpt lat="42.2889" lon="3.28122">
        <ele>6.1</ele>
        <time>2024-11-10T12:15:43Z</time>
      </trkpt>
      <trkpt lat="42.2889" lon="3.28122">
        <ele>6.1</ele>
        <time>2024-11-10T12:15:44Z</time>
      </trkpt>
      <trkpt lat="42.2889" lon="3.28123">
        <ele>6.1</ele>
        <time>2024-11-10T12:15:45Z</time>
      </trkpt>
      <trkpt lat="42.2889" lon="3.28123">
        <ele>6.1</ele>
        <time>2024-11-10T12:15:46Z</time>
      </trkpt>
      <trkpt lat="42.2889" lon="3.28123">
        <ele>6.1</ele>
        <time>2024-11-10T12:15:47Z</time>
      </trkpt>
      <trkpt lat="42.2889" lon="3.28123">
        <ele>6.1</ele>
        <time>2024-11-10T12:15:48Z</time>
      </trkpt>
      <trkpt lat="42.2889" lon="3.28123">
        <ele>6.1</ele>
        <time>2024-11-10T12:15:49Z</time>
      </trkpt>
      <trkpt lat="42.2889" lon="3.28122">
        <ele>6.1</ele>
        <time>2024-11-10T12:15:50Z</time>
      </trkpt>
      <trkpt lat="42.2889" lon="3.28122">
        <ele>6.1</ele>
        <time>2024-11-10T12:15:51Z</time>
      </trkpt>
      <trkpt lat="42.2889" lon="3.28122">
        <ele>6.1</ele>
        <time>2024-11-10T12:15:52Z</time>
      </trkpt>
      <trkpt lat="42.2889" lon="3.28122">
        <ele>6.1</ele>
        <time>2024-11-10T12:15:53Z</time>
      </trkpt>
      <trkpt lat="42.2889" lon="3.28122">
        <ele>6.1</ele>
        <time>2024-11-10T12:15:54Z</time>
      </trkpt>
      <trkpt lat="42.2889" lon="3.28122">
        <ele>6.1</ele>
        <time>2024-11-10T12:15:55Z</time>
      </trkpt>
      <trkpt lat="42.2889" lon="3.28122">
        <ele>6.1</ele>
        <time>2024-11-10T12:15:56Z</time>
      </trkpt>
      <trkpt lat="42.2889" lon="3.28122">
        <ele>6.1</ele>
        <time>2024-11-10T12:15:57Z</time>
      </trkpt>
      <trkpt lat="42.2889" lon="3.28122">
        <ele>6.1</ele>
        <time>2024-11-10T12:15:58Z</time>
      </trkpt>
      <trkpt lat="42.2889" lon="3.28122">
        <ele>6.1</ele>
        <time>2024-11-10T12:15:59Z</time>
      </trkpt>
      <trkpt lat="42.2889" lon="3.28123">
        <ele>6.1</ele>
        <time>2024-11-10T12:16:00Z</time>
      </trkpt>
      <trkpt lat="42.2889" lon="3.28123">
        <ele>6.1</ele>
        <time>2024-11-10T12:16:01Z</time>
      </trkpt>
      <trkpt lat="42.2889" lon="3.28123">
        <ele>6.1</ele>
        <time>2024-11-10T12:16:02Z</time>
      </trkpt>
      <trkpt lat="42.2889" lon="3.28123">
        <ele>6.1</ele>
        <time>2024-11-10T12:16:03Z</time>
      </trkpt>
      <trkpt lat="42.2889" lon="3.28123">
        <ele>6.1</ele>
        <time>2024-11-10T12:16:04Z</time>
      </trkpt>
      <trkpt lat="42.2889" lon="3.28122">
        <ele>6.1</ele>
        <time>2024-11-10T12:16:05Z</time>
      </trkpt>
      <trkpt lat="42.2889" lon="3.28122">
        <ele>6.1</ele>
        <time>2024-11-10T12:16:06Z</time>
      </trkpt>
      <trkpt lat="42.2889" lon="3.28122">
        <ele>6.1</ele>
        <time>2024-11-10T12:16:07Z</time>
      </trkpt>
      <trkpt lat="42.2889" lon="3.28122">
        <ele>6.1</ele>
        <time>2024-11-10T12:16:08Z</time>
      </trkpt>
      <trkpt lat="42.2889" lon="3.28122">
        <ele>6.1</ele>
        <time>2024-11-10T12:16:09Z</time>
      </trkpt>
      <trkpt lat="42.2889" lon="3.28123">
        <ele>6.1</ele>
        <time>2024-11-10T12:16:10Z</time>
      </trkpt>
      <trkpt lat="42.2889" lon="3.28123">
        <ele>6.1</ele>
        <time>2024-11-10T12:16:11Z</time>
      </trkpt>
      <trkpt lat="42.2889" lon="3.28123">
        <ele>6.1</ele>
        <time>2024-11-10T12:16:12Z</time>
      </trkpt>
      <trkpt lat="42.2889" lon="3.28123">
        <ele>6.1</ele>
        <time>2024-11-10T12:16:13Z</time>
      </trkpt>
      <trkpt lat="42.2889" lon="3.28123">
        <ele>6.1</ele>
        <time>2024-11-10T12:16:14Z</time>
      </trkpt>
      <trkpt lat="42.2889" lon="3.28124">
        <ele>6.1</ele>
        <time>2024-11-10T12:16:15Z</time>
      </trkpt>
      <trkpt lat="42.2889" lon="3.28124">
        <ele>6.1</ele>
        <time>2024-11-10T12:16:16Z</time>
      </trkpt>
      <trkpt lat="42.2889" lon="3.28124">
        <ele>6.1</ele>
        <time>2024-11-10T12:16:17Z</time>
      </trkpt>
      <trkpt lat="42.2889" lon="3.28124">
        <ele>6.1</ele>
        <time>2024-11-10T12:16:18Z</time>
      </trkpt>
      <trkpt lat="42.2889" lon="3.28124">
        <ele>6.1</ele>
        <time>2024-11-10T12:16:19Z</time>
      </trkpt>
      <trkpt lat="42.2889" lon="3.28124">
        <ele>6.1</ele>
        <time>2024-11-10T12:16:20Z</time>
      </trkpt>
      <trkpt lat="42.2889" lon="3.28124">
        <ele>6.1</ele>
        <time>2024-11-10T12:16:21Z</time>
      </trkpt>
      <trkpt lat="42.2889" lon="3.28124">
        <ele>6.1</ele>
        <time>2024-11-10T12:16:22Z</time>
      </trkpt>
      <trkpt lat="42.2889" lon="3.28124">
        <ele>6.1</ele>
        <time>2024-11-10T12:16:23Z</time>
      </trkpt>
      <trkpt lat="42.2889" lon="3.28129">
        <ele>6.1</ele>
        <time>2024-11-10T12:16:25Z</time>
      </trkpt>
      <trkpt lat="42.2889" lon="3.28129">
        <ele>6.1</ele>
        <time>2024-11-10T12:16:26Z</time>
      </trkpt>
      <trkpt lat="42.2889" lon="3.28129">
        <ele>6.1</ele>
        <time>2024-11-10T12:16:27Z</time>
      </trkpt>
      <trkpt lat="42.2889" lon="3.28129">
        <ele>6.1</ele>
        <time>2024-11-10T12:16:28Z</time>
      </trkpt>
      <trkpt lat="42.28889" lon="3.28129">
        <ele>6.1</ele>
        <time>2024-11-10T12:16:29Z</time>
      </trkpt>
      <trkpt lat="42.28889" lon="3.28127">
        <ele>6.1</ele>
        <time>2024-11-10T12:16:30Z</time>
      </trkpt>
      <trkpt lat="42.28889" lon="3.28125">
        <ele>6.1</ele>
        <time>2024-11-10T12:16:31Z</time>
      </trkpt>
      <trkpt lat="42.28889" lon="3.28124">
        <ele>6.1</ele>
        <time>2024-11-10T12:16:32Z</time>
      </trkpt>
      <trkpt lat="42.2889" lon="3.28123">
        <ele>6.1</ele>
        <time>2024-11-10T12:16:33Z</time>
      </trkpt>
      <trkpt lat="42.2889" lon="3.28123">
        <ele>6.1</ele>
        <time>2024-11-10T12:16:34Z</time>
      </trkpt>
      <trkpt lat="42.2889" lon="3.28123">
        <ele>6.1</ele>
        <time>2024-11-10T12:16:35Z</time>
      </trkpt>
      <trkpt lat="42.2889" lon="3.28127">
        <ele>6.1</ele>
        <time>2024-11-10T12:16:36Z</time>
      </trkpt>
      <trkpt lat="42.2889" lon="3.28128">
        <ele>6.1</ele>
        <time>2024-11-10T12:16:37Z</time>
      </trkpt>
      <trkpt lat="42.2889" lon="3.28128">
        <ele>6.1</ele>
        <time>2024-11-10T12:16:38Z</time>
      </trkpt>
      <trkpt lat="42.2889" lon="3.28127">
        <ele>6.1</ele>
        <time>2024-11-10T12:16:39Z</time>
      </trkpt>
      <trkpt lat="42.2889" lon="3.28124">
        <ele>6.1</ele>
        <time>2024-11-10T12:16:40Z</time>
      </trkpt>
      <trkpt lat="42.2889" lon="3.28122">
        <ele>6.1</ele>
        <time>2024-11-10T12:16:41Z</time>
      </trkpt>
      <trkpt lat="42.2889" lon="3.28122">
        <ele>6.1</ele>
        <time>2024-11-10T12:16:42Z</time>
      </trkpt>
      <trkpt lat="42.2889" lon="3.28122">
        <ele>6.1</ele>
        <time>2024-11-10T12:16:43Z</time>
      </trkpt>
      <trkpt lat="42.2889" lon="3.28122">
        <ele>6.1</ele>
        <time>2024-11-10T12:16:44Z</time>
      </trkpt>
      <trkpt lat="42.2889" lon="3.28122">
        <ele>6.1</ele>
        <time>2024-11-10T12:16:45Z</time>
      </trkpt>
      <trkpt lat="42.2889" lon="3.28122">
        <ele>6.1</ele>
        <time>2024-11-10T12:16:46Z</time>
      </trkpt>
      <trkpt lat="42.2889" lon="3.28122">
        <ele>6.1</ele>
        <time>2024-11-10T12:16:47Z</time>
      </trkpt>
      <trkpt lat="42.2889" lon="3.28122">
        <ele>6.1</ele>
        <time>2024-11-10T12:16:48Z</time>
      </trkpt>
      <trkpt lat="42.2889" lon="3.28122">
        <ele>6.1</ele>
        <time>2024-11-10T12:16:49Z</time>
      </trkpt>
      <trkpt lat="42.2889" lon="3.28122">
        <ele>6.1</ele>
        <time>2024-11-10T12:16:50Z</time>
      </trkpt>
      <trkpt lat="42.2889" lon="3.28123">
        <ele>6.1</ele>
        <time>2024-11-10T12:16:51Z</time>
      </trkpt>
      <trkpt lat="42.2889" lon="3.28122">
        <ele>6.1</ele>
        <time>2024-11-10T12:16:52Z</time>
      </trkpt>
      <trkpt lat="42.2889" lon="3.28123">
        <ele>6.1</ele>
        <time>2024-11-10T12:16:53Z</time>
      </trkpt>
      <trkpt lat="42.2889" lon="3.28123">
        <ele>6.1</ele>
        <time>2024-11-10T12:16:54Z</time>
      </trkpt>
      <trkpt lat="42.2889" lon="3.28123">
        <ele>6.1</ele>
        <time>2024-11-10T12:16:55Z</time>
      </trkpt>
      <trkpt lat="42.2889" lon="3.28127">
        <ele>6.1</ele>
        <time>2024-11-10T12:16:56Z</time>
      </trkpt>
      <trkpt lat="42.2889" lon="3.28128">
        <ele>6.1</ele>
        <time>2024-11-10T12:16:57Z</time>
      </trkpt>
      <trkpt lat="42.2889" lon="3.28128">
        <ele>6.1</ele>
        <time>2024-11-10T12:16:58Z</time>
      </trkpt>
      <trkpt lat="42.2889" lon="3.28127">
        <ele>6.1</ele>
        <time>2024-11-10T12:16:59Z</time>
      </trkpt>
      <trkpt lat="42.2889" lon="3.28127">
        <ele>6.1</ele>
        <time>2024-11-10T12:17:00Z</time>
      </trkpt>
      <trkpt lat="42.2889" lon="3.28127">
        <ele>6.1</ele>
        <time>2024-11-10T12:17:01Z</time>
      </trkpt>
      <trkpt lat="42.2889" lon="3.28127">
        <ele>6.1</ele>
        <time>2024-11-10T12:17:02Z</time>
      </trkpt>
      <trkpt lat="42.2889" lon="3.28127">
        <ele>6.1</ele>
        <time>2024-11-10T12:17:03Z</time>
      </trkpt>
      <trkpt lat="42.2889" lon="3.28127">
        <ele>6.1</ele>
        <time>2024-11-10T12:17:04Z</time>
      </trkpt>
      <trkpt lat="42.2889" lon="3.28127">
        <ele>6.1</ele>
        <time>2024-11-10T12:17:05Z</time>
      </trkpt>
      <trkpt lat="42.2889" lon="3.28127">
        <ele>6.1</ele>
        <time>2024-11-10T12:17:06Z</time>
      </trkpt>
      <trkpt lat="42.2889" lon="3.28127">
        <ele>6.1</ele>
        <time>2024-11-10T12:17:07Z</time>
      </trkpt>
      <trkpt lat="42.2889" lon="3.28127">
        <ele>6.1</ele>
        <time>2024-11-10T12:17:08Z</time>
      </trkpt>
      <trkpt lat="42.2889" lon="3.28127">
        <ele>6.1</ele>
        <time>2024-11-10T12:17:09Z</time>
      </trkpt>
      <trkpt lat="42.2889" lon="3.28127">
        <ele>6.1</ele>
        <time>2024-11-10T12:17:10Z</time>
      </trkpt>
      <trkpt lat="42.2889" lon="3.28127">
        <ele>6.1</ele>
        <time>2024-11-10T12:17:11Z</time>
      </trkpt>
      <trkpt lat="42.2889" lon="3.28127">
        <ele>6.1</ele>
        <time>2024-11-10T12:17:12Z</time>
      </trkpt>
      <trkpt lat="42.2889" lon="3.28127">
        <ele>6.1</ele>
        <time>2024-11-10T12:17:13Z</time>
      </trkpt>
      <trkpt lat="42.2889" lon="3.28127">
        <ele>6.1</ele>
        <time>2024-11-10T12:17:14Z</time>
      </trkpt>
      <trkpt lat="42.2889" lon="3.28127">
        <ele>6.1</ele>
        <time>2024-11-10T12:17:15Z</time>
      </trkpt>
      <trkpt lat="42.2889" lon="3.28127">
        <ele>6.1</ele>
        <time>2024-11-10T12:17:16Z</time>
      </trkpt>
      <trkpt lat="42.2889" lon="3.28127">
        <ele>6.1</ele>
        <time>2024-11-10T12:17:17Z</time>
      </trkpt>
      <trkpt lat="42.2889" lon="3.28127">
        <ele>6.1</ele>
        <time>2024-11-10T12:17:18Z</time>
      </trkpt>
      <trkpt lat="42.2889" lon="3.28127">
        <ele>6.1</ele>
        <time>2024-11-10T12:17:19Z</time>
      </trkpt>
      <trkpt lat="42.2889" lon="3.28127">
        <ele>6.1</ele>
        <time>2024-11-10T12:17:20Z</time>
      </trkpt>
      <trkpt lat="42.2889" lon="3.28127">
        <ele>6.1</ele>
        <time>2024-11-10T12:17:21Z</time>
      </trkpt>
      <trkpt lat="42.2889" lon="3.28127">
        <ele>6.1</ele>
        <time>2024-11-10T12:17:22Z</time>
      </trkpt>
      <trkpt lat="42.2889" lon="3.28127">
        <ele>6.1</ele>
        <time>2024-11-10T12:17:23Z</time>
      </trkpt>
      <trkpt lat="42.2889" lon="3.28127">
        <ele>6.1</ele>
        <time>2024-11-10T12:17:24Z</time>
      </trkpt>
      <trkpt lat="42.2889" lon="3.28127">
        <ele>6.1</ele>
        <time>2024-11-10T12:17:25Z</time>
      </trkpt>
      <trkpt lat="42.2889" lon="3.28127">
        <ele>6.1</ele>
        <time>2024-11-10T12:17:26Z</time>
      </trkpt>
      <trkpt lat="42.2889" lon="3.28127">
        <ele>6.1</ele>
        <time>2024-11-10T12:17:27Z</time>
      </trkpt>
      <trkpt lat="42.2889" lon="3.28127">
        <ele>6.1</ele>
        <time>2024-11-10T12:17:28Z</time>
      </trkpt>
      <trkpt lat="42.2889" lon="3.28127">
        <ele>6.1</ele>
        <time>2024-11-10T12:17:29Z</time>
      </trkpt>
      <trkpt lat="42.2889" lon="3.28127">
        <ele>6.1</ele>
        <time>2024-11-10T12:17:30Z</time>
      </trkpt>
      <trkpt lat="42.2889" lon="3.28127">
        <ele>6.1</ele>
        <time>2024-11-10T12:17:31Z</time>
      </trkpt>
      <trkpt lat="42.2889" lon="3.28127">
        <ele>6.1</ele>
        <time>2024-11-10T12:17:32Z</time>
      </trkpt>
      <trkpt lat="42.2889" lon="3.28127">
        <ele>6.1</ele>
        <time>2024-11-10T12:17:33Z</time>
      </trkpt>
      <trkpt lat="42.2889" lon="3.28127">
        <ele>6.1</ele>
        <time>2024-11-10T12:17:34Z</time>
      </trkpt>
      <trkpt lat="42.2889" lon="3.28127">
        <ele>6.1</ele>
        <time>2024-11-10T12:17:35Z</time>
      </trkpt>
      <trkpt lat="42.2889" lon="3.28127">
        <ele>6.1</ele>
        <time>2024-11-10T12:17:36Z</time>
      </trkpt>
      <trkpt lat="42.2889" lon="3.28127">
        <ele>6.1</ele>
        <time>2024-11-10T12:17:37Z</time>
      </trkpt>
      <trkpt lat="42.2889" lon="3.28127">
        <ele>6.1</ele>
        <time>2024-11-10T12:17:38Z</time>
      </trkpt>
      <trkpt lat="42.2889" lon="3.28127">
        <ele>6.1</ele>
        <time>2024-11-10T12:17:39Z</time>
      </trkpt>
      <trkpt lat="42.2889" lon="3.28124">
        <ele>6.2</ele>
        <time>2024-11-10T12:17:40Z</time>
      </trkpt>
      <trkpt lat="42.2889" lon="3.28122">
        <ele>6.2</ele>
        <time>2024-11-10T12:17:41Z</time>
      </trkpt>
      <trkpt lat="42.2889" lon="3.28122">
        <ele>6.2</ele>
        <time>2024-11-10T12:17:42Z</time>
      </trkpt>
      <trkpt lat="42.2889" lon="3.28122">
        <ele>6.2</ele>
        <time>2024-11-10T12:17:43Z</time>
      </trkpt>
      <trkpt lat="42.2889" lon="3.28122">
        <ele>6.2</ele>
        <time>2024-11-10T12:17:44Z</time>
      </trkpt>
      <trkpt lat="42.2889" lon="3.28122">
        <ele>6.2</ele>
        <time>2024-11-10T12:17:45Z</time>
      </trkpt>
      <trkpt lat="42.2889" lon="3.28122">
        <ele>6.2</ele>
        <time>2024-11-10T12:17:46Z</time>
      </trkpt>
      <trkpt lat="42.2889" lon="3.28122">
        <ele>6.2</ele>
        <time>2024-11-10T12:17:47Z</time>
      </trkpt>
      <trkpt lat="42.2889" lon="3.28122">
        <ele>6.2</ele>
        <time>2024-11-10T12:17:48Z</time>
      </trkpt>
      <trkpt lat="42.2889" lon="3.28122">
        <ele>6.2</ele>
        <time>2024-11-10T12:17:49Z</time>
      </trkpt>
      <trkpt lat="42.2889" lon="3.28122">
        <ele>6.2</ele>
        <time>2024-11-10T12:17:50Z</time>
      </trkpt>
      <trkpt lat="42.2889" lon="3.28122">
        <ele>6.2</ele>
        <time>2024-11-10T12:17:51Z</time>
      </trkpt>
      <trkpt lat="42.2889" lon="3.28123">
        <ele>6.2</ele>
        <time>2024-11-10T12:17:52Z</time>
      </trkpt>
      <trkpt lat="42.2889" lon="3.28123">
        <ele>6.2</ele>
        <time>2024-11-10T12:17:53Z</time>
      </trkpt>
      <trkpt lat="42.2889" lon="3.28123">
        <ele>6.2</ele>
        <time>2024-11-10T12:17:54Z</time>
      </trkpt>
      <trkpt lat="42.2889" lon="3.28122">
        <ele>6.2</ele>
        <time>2024-11-10T12:17:55Z</time>
      </trkpt>
      <trkpt lat="42.2889" lon="3.28122">
        <ele>6.2</ele>
        <time>2024-11-10T12:17:56Z</time>
      </trkpt>
      <trkpt lat="42.2889" lon="3.28122">
        <ele>6.2</ele>
        <time>2024-11-10T12:17:57Z</time>
      </trkpt>
      <trkpt lat="42.2889" lon="3.28122">
        <ele>6.2</ele>
        <time>2024-11-10T12:17:58Z</time>
      </trkpt>
      <trkpt lat="42.2889" lon="3.28122">
        <ele>6.2</ele>
        <time>2024-11-10T12:17:59Z</time>
      </trkpt>
      <trkpt lat="42.2889" lon="3.28122">
        <ele>6.2</ele>
        <time>2024-11-10T12:18:00Z</time>
      </trkpt>
      <trkpt lat="42.2889" lon="3.28123">
        <ele>6.2</ele>
        <time>2024-11-10T12:18:01Z</time>
      </trkpt>
      <trkpt lat="42.2889" lon="3.28123">
        <ele>6.2</ele>
        <time>2024-11-10T12:18:02Z</time>
      </trkpt>
      <trkpt lat="42.2889" lon="3.28123">
        <ele>6.2</ele>
        <time>2024-11-10T12:18:03Z</time>
      </trkpt>
      <trkpt lat="42.2889" lon="3.28123">
        <ele>6.2</ele>
        <time>2024-11-10T12:18:04Z</time>
      </trkpt>
      <trkpt lat="42.2889" lon="3.28123">
        <ele>6.2</ele>
        <time>2024-11-10T12:18:05Z</time>
      </trkpt>
      <trkpt lat="42.2889" lon="3.28122">
        <ele>6.2</ele>
        <time>2024-11-10T12:18:06Z</time>
      </trkpt>
      <trkpt lat="42.2889" lon="3.28122">
        <ele>6.2</ele>
        <time>2024-11-10T12:18:07Z</time>
      </trkpt>
      <trkpt lat="42.2889" lon="3.28122">
        <ele>6.2</ele>
        <time>2024-11-10T12:18:08Z</time>
      </trkpt>
      <trkpt lat="42.2889" lon="3.28122">
        <ele>6.2</ele>
        <time>2024-11-10T12:18:09Z</time>
      </trkpt>
      <trkpt lat="42.2889" lon="3.28122">
        <ele>6.2</ele>
        <time>2024-11-10T12:18:10Z</time>
      </trkpt>
      <trkpt lat="42.2889" lon="3.28126">
        <ele>6.2</ele>
        <time>2024-11-10T12:18:11Z</time>
      </trkpt>
      <trkpt lat="42.2889" lon="3.28127">
        <ele>6.2</ele>
        <time>2024-11-10T12:18:12Z</time>
      </trkpt>
      <trkpt lat="42.2889" lon="3.28127">
        <ele>6.2</ele>
        <time>2024-11-10T12:18:13Z</time>
      </trkpt>
      <trkpt lat="42.2889" lon="3.28127">
        <ele>6.2</ele>
        <time>2024-11-10T12:18:14Z</time>
      </trkpt>
      <trkpt lat="42.2889" lon="3.28127">
        <ele>6.2</ele>
        <time>2024-11-10T12:18:15Z</time>
      </trkpt>
      <trkpt lat="42.2889" lon="3.28124">
        <ele>6.2</ele>
        <time>2024-11-10T12:18:16Z</time>
      </trkpt>
      <trkpt lat="42.2889" lon="3.28123">
        <ele>6.2</ele>
        <time>2024-11-10T12:18:17Z</time>
      </trkpt>
      <trkpt lat="42.2889" lon="3.28123">
        <ele>6.2</ele>
        <time>2024-11-10T12:18:18Z</time>
      </trkpt>
      <trkpt lat="42.2889" lon="3.28123">
        <ele>6.2</ele>
        <time>2024-11-10T12:18:19Z</time>
      </trkpt>
      <trkpt lat="42.2889" lon="3.28123">
        <ele>6.2</ele>
        <time>2024-11-10T12:18:20Z</time>
      </trkpt>
      <trkpt lat="42.2889" lon="3.28127">
        <ele>6.2</ele>
        <time>2024-11-10T12:18:21Z</time>
      </trkpt>
      <trkpt lat="42.2889" lon="3.28127">
        <ele>6.2</ele>
        <time>2024-11-10T12:18:22Z</time>
      </trkpt>
      <trkpt lat="42.2889" lon="3.28127">
        <ele>6.2</ele>
        <time>2024-11-10T12:18:23Z</time>
      </trkpt>
      <trkpt lat="42.2889" lon="3.28127">
        <ele>6.2</ele>
        <time>2024-11-10T12:18:24Z</time>
      </trkpt>
      <trkpt lat="42.2889" lon="3.28127">
        <ele>6.2</ele>
        <time>2024-11-10T12:18:25Z</time>
      </trkpt>
      <trkpt lat="42.28889" lon="3.28125">
        <ele>6.2</ele>
        <time>2024-11-10T12:18:26Z</time>
      </trkpt>
      <trkpt lat="42.28889" lon="3.28123">
        <ele>6.2</ele>
        <time>2024-11-10T12:18:27Z</time>
      </trkpt>
      <trkpt lat="42.28889" lon="3.28123">
        <ele>6.2</ele>
        <time>2024-11-10T12:18:28Z</time>
      </trkpt>
      <trkpt lat="42.28889" lon="3.28123">
        <ele>6.2</ele>
        <time>2024-11-10T12:18:29Z</time>
      </trkpt>
      <trkpt lat="42.28889" lon="3.28123">
        <ele>6.2</ele>
        <time>2024-11-10T12:18:30Z</time>
      </trkpt>
      <trkpt lat="42.28889" lon="3.28122">
        <ele>6.2</ele>
        <time>2024-11-10T12:18:31Z</time>
      </trkpt>
      <trkpt lat="42.2889" lon="3.28122">
        <ele>6.2</ele>
        <time>2024-11-10T12:18:32Z</time>
      </trkpt>
      <trkpt lat="42.2889" lon="3.28122">
        <ele>6.2</ele>
        <time>2024-11-10T12:18:33Z</time>
      </trkpt>
      <trkpt lat="42.2889" lon="3.28122">
        <ele>6.2</ele>
        <time>2024-11-10T12:18:34Z</time>
      </trkpt>
      <trkpt lat="42.28889" lon="3.28122">
        <ele>6.2</ele>
        <time>2024-11-10T12:18:35Z</time>
      </trkpt>
      <trkpt lat="42.2889" lon="3.28122">
        <ele>6.2</ele>
        <time>2024-11-10T12:18:36Z</time>
      </trkpt>
      <trkpt lat="42.2889" lon="3.28122">
        <ele>6.2</ele>
        <time>2024-11-10T12:18:38Z</time>
      </trkpt>
      <trkpt lat="42.2889" lon="3.28122">
        <ele>6.2</ele>
        <time>2024-11-10T12:18:39Z</time>
      </trkpt>
      <trkpt lat="42.2889" lon="3.28126">
        <ele>6.2</ele>
        <time>2024-11-10T12:18:40Z</time>
      </trkpt>
      <trkpt lat="42.2889" lon="3.28127">
        <ele>6.2</ele>
        <time>2024-11-10T12:18:41Z</time>
      </trkpt>
      <trkpt lat="42.2889" lon="3.28126">
        <ele>6.2</ele>
        <time>2024-11-10T12:18:43Z</time>
      </trkpt>
      <trkpt lat="42.2889" lon="3.28126">
        <ele>6.2</ele>
        <time>2024-11-10T12:18:44Z</time>
      </trkpt>
      <trkpt lat="42.2889" lon="3.28122">
        <ele>6.2</ele>
        <time>2024-11-10T12:18:45Z</time>
      </trkpt>
      <trkpt lat="42.2889" lon="3.28121">
        <ele>6.2</ele>
        <time>2024-11-10T12:18:46Z</time>
      </trkpt>
      <trkpt lat="42.28891" lon="3.28121">
        <ele>6.2</ele>
        <time>2024-11-10T12:18:47Z</time>
      </trkpt>
      <trkpt lat="42.28891" lon="3.2812">
        <ele>6.2</ele>
        <time>2024-11-10T12:18:48Z</time>
      </trkpt>
      <trkpt lat="42.2889" lon="3.2812">
        <ele>6.2</ele>
        <time>2024-11-10T12:18:49Z</time>
      </trkpt>
      <trkpt lat="42.2889" lon="3.2812">
        <ele>6.2</ele>
        <time>2024-11-10T12:18:50Z</time>
      </trkpt>
      <trkpt lat="42.2889" lon="3.28121">
        <ele>6.2</ele>
        <time>2024-11-10T12:18:51Z</time>
      </trkpt>
      <trkpt lat="42.2889" lon="3.28122">
        <ele>6.2</ele>
        <time>2024-11-10T12:18:52Z</time>
      </trkpt>
      <trkpt lat="42.2889" lon="3.28122">
        <ele>6.2</ele>
        <time>2024-11-10T12:18:53Z</time>
      </trkpt>
      <trkpt lat="42.2889" lon="3.28122">
        <ele>6.2</ele>
        <time>2024-11-10T12:18:54Z</time>
      </trkpt>
      <trkpt lat="42.2889" lon="3.28122">
        <ele>6.2</ele>
        <time>2024-11-10T12:18:55Z</time>
      </trkpt>
      <trkpt lat="42.2889" lon="3.28122">
        <ele>6.2</ele>
        <time>2024-11-10T12:18:56Z</time>
      </trkpt>
      <trkpt lat="42.2889" lon="3.28122">
        <ele>6.2</ele>
        <time>2024-11-10T12:18:57Z</time>
      </trkpt>
      <trkpt lat="42.2889" lon="3.28122">
        <ele>6.2</ele>
        <time>2024-11-10T12:18:58Z</time>
      </trkpt>
      <trkpt lat="42.2889" lon="3.28122">
        <ele>6.2</ele>
        <time>2024-11-10T12:18:59Z</time>
      </trkpt>
      <trkpt lat="42.28892" lon="3.28118">
        <ele>6.2</ele>
        <time>2024-11-10T12:19:01Z</time>
      </trkpt>
      <trkpt lat="42.28892" lon="3.28117">
        <ele>6.2</ele>
        <time>2024-11-10T12:19:02Z</time>
      </trkpt>
      <trkpt lat="42.28893" lon="3.28117">
        <ele>6.2</ele>
        <time>2024-11-10T12:19:03Z</time>
      </trkpt>
      <trkpt lat="42.28893" lon="3.28117">
        <ele>6.2</ele>
        <time>2024-11-10T12:19:04Z</time>
      </trkpt>
      <trkpt lat="42.28891" lon="3.2812">
        <ele>6.2</ele>
        <time>2024-11-10T12:19:05Z</time>
      </trkpt>
      <trkpt lat="42.2889" lon="3.28121">
        <ele>6.2</ele>
        <time>2024-11-10T12:19:06Z</time>
      </trkpt>
      <trkpt lat="42.2889" lon="3.28121">
        <ele>6.2</ele>
        <time>2024-11-10T12:19:07Z</time>
      </trkpt>
      <trkpt lat="42.2889" lon="3.28121">
        <ele>6.2</ele>
        <time>2024-11-10T12:19:08Z</time>
      </trkpt>
      <trkpt lat="42.2889" lon="3.28121">
        <ele>6.2</ele>
        <time>2024-11-10T12:19:09Z</time>
      </trkpt>
      <trkpt lat="42.2889" lon="3.28121">
        <ele>6.2</ele>
        <time>2024-11-10T12:19:10Z</time>
      </trkpt>
      <trkpt lat="42.28891" lon="3.28125">
        <ele>6.2</ele>
        <time>2024-11-10T12:19:11Z</time>
      </trkpt>
      <trkpt lat="42.28892" lon="3.28125">
        <ele>6.2</ele>
        <time>2024-11-10T12:19:12Z</time>
      </trkpt>
      <trkpt lat="42.28892" lon="3.28124">
        <ele>6.2</ele>
        <time>2024-11-10T12:19:13Z</time>
      </trkpt>
      <trkpt lat="42.28892" lon="3.28123">
        <ele>6.2</ele>
        <time>2024-11-10T12:19:14Z</time>
      </trkpt>
      <trkpt lat="42.28892" lon="3.28122">
        <ele>6.2</ele>
        <time>2024-11-10T12:19:15Z</time>
      </trkpt>
      <trkpt lat="42.28892" lon="3.28121">
        <ele>6.3</ele>
        <time>2024-11-10T12:19:16Z</time>
      </trkpt>
      <trkpt lat="42.28892" lon="3.28121">
        <ele>6.3</ele>
        <time>2024-11-10T12:19:17Z</time>
      </trkpt>
      <trkpt lat="42.28892" lon="3.2812">
        <ele>6.3</ele>
        <time>2024-11-10T12:19:18Z</time>
      </trkpt>
      <trkpt lat="42.28892" lon="3.28119">
        <ele>6.3</ele>
        <time>2024-11-10T12:19:19Z</time>
      </trkpt>
      <trkpt lat="42.28892" lon="3.28118">
        <ele>6.3</ele>
        <time>2024-11-10T12:19:20Z</time>
      </trkpt>
      <trkpt lat="42.28892" lon="3.28117">
        <ele>6.3</ele>
        <time>2024-11-10T12:19:21Z</time>
      </trkpt>
      <trkpt lat="42.28892" lon="3.28117">
        <ele>6.3</ele>
        <time>2024-11-10T12:19:22Z</time>
      </trkpt>
      <trkpt lat="42.28892" lon="3.28116">
        <ele>6.3</ele>
        <time>2024-11-10T12:19:23Z</time>
      </trkpt>
      <trkpt lat="42.28892" lon="3.28115">
        <ele>6.3</ele>
        <time>2024-11-10T12:19:24Z</time>
      </trkpt>
      <trkpt lat="42.28892" lon="3.28114">
        <ele>6.3</ele>
        <time>2024-11-10T12:19:25Z</time>
      </trkpt>
      <trkpt lat="42.28892" lon="3.28113">
        <ele>6.3</ele>
        <time>2024-11-10T12:19:26Z</time>
      </trkpt>
      <trkpt lat="42.28892" lon="3.28112">
        <ele>6.3</ele>
        <time>2024-11-10T12:19:27Z</time>
      </trkpt>
      <trkpt lat="42.28892" lon="3.28113">
        <ele>6.3</ele>
        <time>2024-11-10T12:19:28Z</time>
      </trkpt>
      <trkpt lat="42.28892" lon="3.28114">
        <ele>6.3</ele>
        <time>2024-11-10T12:19:29Z</time>
      </trkpt>
      <trkpt lat="42.28892" lon="3.28115">
        <ele>6.3</ele>
        <time>2024-11-10T12:19:30Z</time>
      </trkpt>
      <trkpt lat="42.28892" lon="3.28115">
        <ele>6.3</ele>
        <time>2024-11-10T12:19:31Z</time>
      </trkpt>
      <trkpt lat="42.28891" lon="3.28116">
        <ele>6.3</ele>
        <time>2024-11-10T12:19:32Z</time>
      </trkpt>
      <trkpt lat="42.28891" lon="3.28117">
        <ele>6.3</ele>
        <time>2024-11-10T12:19:33Z</time>
      </trkpt>
      <trkpt lat="42.28891" lon="3.28118">
        <ele>6.3</ele>
        <time>2024-11-10T12:19:34Z</time>
      </trkpt>
      <trkpt lat="42.28891" lon="3.28118">
        <ele>6.3</ele>
        <time>2024-11-10T12:19:35Z</time>
      </trkpt>
      <trkpt lat="42.28891" lon="3.28119">
        <ele>6.3</ele>
        <time>2024-11-10T12:19:36Z</time>
      </trkpt>
      <trkpt lat="42.2889" lon="3.28122">
        <ele>6.3</ele>
        <time>2024-11-10T12:19:37Z</time>
      </trkpt>
      <trkpt lat="42.2889" lon="3.28122">
        <ele>6.3</ele>
        <time>2024-11-10T12:19:38Z</time>
      </trkpt>
      <trkpt lat="42.2889" lon="3.28122">
        <ele>6.3</ele>
        <time>2024-11-10T12:19:39Z</time>
      </trkpt>
      <trkpt lat="42.2889" lon="3.28122">
        <ele>6.3</ele>
        <time>2024-11-10T12:19:40Z</time>
      </trkpt>
      <trkpt lat="42.2889" lon="3.28122">
        <ele>6.3</ele>
        <time>2024-11-10T12:19:41Z</time>
      </trkpt>
      <trkpt lat="42.2889" lon="3.28122">
        <ele>6.3</ele>
        <time>2024-11-10T12:19:42Z</time>
      </trkpt>
      <trkpt lat="42.2889" lon="3.28122">
        <ele>6.3</ele>
        <time>2024-11-10T12:19:43Z</time>
      </trkpt>
      <trkpt lat="42.28891" lon="3.28122">
        <ele>6.3</ele>
        <time>2024-11-10T12:19:44Z</time>
      </trkpt>
      <trkpt lat="42.2889" lon="3.28121">
        <ele>6.3</ele>
        <time>2024-11-10T12:19:45Z</time>
      </trkpt>
      <trkpt lat="42.2889" lon="3.28121">
        <ele>6.3</ele>
        <time>2024-11-10T12:19:46Z</time>
      </trkpt>
      <trkpt lat="42.2889" lon="3.28121">
        <ele>6.3</ele>
        <time>2024-11-10T12:19:47Z</time>
      </trkpt>
      <trkpt lat="42.2889" lon="3.28121">
        <ele>6.3</ele>
        <time>2024-11-10T12:19:48Z</time>
      </trkpt>
      <trkpt lat="42.2889" lon="3.28121">
        <ele>6.3</ele>
        <time>2024-11-10T12:19:49Z</time>
      </trkpt>
      <trkpt lat="42.2889" lon="3.28121">
        <ele>6.3</ele>
        <time>2024-11-10T12:19:50Z</time>
      </trkpt>
      <trkpt lat="42.2889" lon="3.28121">
        <ele>6.3</ele>
        <time>2024-11-10T12:19:51Z</time>
      </trkpt>
      <trkpt lat="42.2889" lon="3.28121">
        <ele>6.3</ele>
        <time>2024-11-10T12:19:52Z</time>
      </trkpt>
      <trkpt lat="42.2889" lon="3.28121">
        <ele>6.3</ele>
        <time>2024-11-10T12:19:53Z</time>
      </trkpt>
      <trkpt lat="42.2889" lon="3.28121">
        <ele>6.3</ele>
        <time>2024-11-10T12:19:54Z</time>
      </trkpt>
      <trkpt lat="42.2889" lon="3.28121">
        <ele>6.3</ele>
        <time>2024-11-10T12:19:55Z</time>
      </trkpt>
      <trkpt lat="42.2889" lon="3.28122">
        <ele>6.3</ele>
        <time>2024-11-10T12:19:56Z</time>
      </trkpt>
      <trkpt lat="42.2889" lon="3.28122">
        <ele>6.3</ele>
        <time>2024-11-10T12:19:57Z</time>
      </trkpt>
      <trkpt lat="42.2889" lon="3.28123">
        <ele>6.3</ele>
        <time>2024-11-10T12:19:58Z</time>
      </trkpt>
      <trkpt lat="42.2889" lon="3.28123">
        <ele>6.3</ele>
        <time>2024-11-10T12:19:59Z</time>
      </trkpt>
      <trkpt lat="42.2889" lon="3.28123">
        <ele>6.3</ele>
        <time>2024-11-10T12:20:00Z</time>
      </trkpt>
      <trkpt lat="42.2889" lon="3.28123">
        <ele>6.3</ele>
        <time>2024-11-10T12:20:01Z</time>
      </trkpt>
      <trkpt lat="42.28891" lon="3.28127">
        <ele>6.3</ele>
        <time>2024-11-10T12:20:02Z</time>
      </trkpt>
      <trkpt lat="42.28891" lon="3.28127">
        <ele>6.3</ele>
        <time>2024-11-10T12:20:03Z</time>
      </trkpt>
      <trkpt lat="42.28891" lon="3.28127">
        <ele>6.3</ele>
        <time>2024-11-10T12:20:04Z</time>
      </trkpt>
      <trkpt lat="42.28891" lon="3.28127">
        <ele>6.3</ele>
        <time>2024-11-10T12:20:05Z</time>
      </trkpt>
      <trkpt lat="42.2889" lon="3.28122">
        <ele>6.3</ele>
        <time>2024-11-10T12:20:06Z</time>
      </trkpt>
      <trkpt lat="42.2889" lon="3.28121">
        <ele>6.3</ele>
        <time>2024-11-10T12:20:07Z</time>
      </trkpt>
      <trkpt lat="42.2889" lon="3.28121">
        <ele>6.3</ele>
        <time>2024-11-10T12:20:08Z</time>
      </trkpt>
      <trkpt lat="42.2889" lon="3.28121">
        <ele>6.3</ele>
        <time>2024-11-10T12:20:09Z</time>
      </trkpt>
      <trkpt lat="42.2889" lon="3.28121">
        <ele>6.3</ele>
        <time>2024-11-10T12:20:10Z</time>
      </trkpt>
      <trkpt lat="42.2889" lon="3.28122">
        <ele>6.3</ele>
        <time>2024-11-10T12:20:11Z</time>
      </trkpt>
      <trkpt lat="42.2889" lon="3.28122">
        <ele>6.3</ele>
        <time>2024-11-10T12:20:12Z</time>
      </trkpt>
      <trkpt lat="42.2889" lon="3.28122">
        <ele>6.3</ele>
        <time>2024-11-10T12:20:13Z</time>
      </trkpt>
      <trkpt lat="42.2889" lon="3.28122">
        <ele>6.3</ele>
        <time>2024-11-10T12:20:14Z</time>
      </trkpt>
      <trkpt lat="42.2889" lon="3.28122">
        <ele>6.3</ele>
        <time>2024-11-10T12:20:15Z</time>
      </trkpt>
      <trkpt lat="42.2889" lon="3.28121">
        <ele>6.3</ele>
        <time>2024-11-10T12:20:16Z</time>
      </trkpt>
      <trkpt lat="42.2889" lon="3.28121">
        <ele>6.3</ele>
        <time>2024-11-10T12:20:17Z</time>
      </trkpt>
      <trkpt lat="42.2889" lon="3.28121">
        <ele>6.3</ele>
        <time>2024-11-10T12:20:18Z</time>
      </trkpt>
      <trkpt lat="42.2889" lon="3.28121">
        <ele>6.3</ele>
        <time>2024-11-10T12:20:19Z</time>
      </trkpt>
      <trkpt lat="42.2889" lon="3.28121">
        <ele>6.3</ele>
        <time>2024-11-10T12:20:20Z</time>
      </trkpt>
      <trkpt lat="42.2889" lon="3.28122">
        <ele>6.3</ele>
        <time>2024-11-10T12:20:21Z</time>
      </trkpt>
      <trkpt lat="42.2889" lon="3.28123">
        <ele>6.3</ele>
        <time>2024-11-10T12:20:22Z</time>
      </trkpt>
      <trkpt lat="42.2889" lon="3.28123">
        <ele>6.3</ele>
        <time>2024-11-10T12:20:23Z</time>
      </trkpt>
      <trkpt lat="42.2889" lon="3.28123">
        <ele>6.3</ele>
        <time>2024-11-10T12:20:24Z</time>
      </trkpt>
      <trkpt lat="42.2889" lon="3.28123">
        <ele>6.3</ele>
        <time>2024-11-10T12:20:25Z</time>
      </trkpt>
      <trkpt lat="42.2889" lon="3.28122">
        <ele>6.3</ele>
        <time>2024-11-10T12:20:26Z</time>
      </trkpt>
      <trkpt lat="42.2889" lon="3.28121">
        <ele>6.3</ele>
        <time>2024-11-10T12:20:27Z</time>
      </trkpt>
      <trkpt lat="42.2889" lon="3.28121">
        <ele>6.3</ele>
        <time>2024-11-10T12:20:28Z</time>
      </trkpt>
      <trkpt lat="42.2889" lon="3.28121">
        <ele>6.3</ele>
        <time>2024-11-10T12:20:29Z</time>
      </trkpt>
      <trkpt lat="42.2889" lon="3.28121">
        <ele>6.3</ele>
        <time>2024-11-10T12:20:30Z</time>
      </trkpt>
      <trkpt lat="42.2889" lon="3.28122">
        <ele>6.3</ele>
        <time>2024-11-10T12:20:31Z</time>
      </trkpt>
      <trkpt lat="42.2889" lon="3.28122">
        <ele>6.3</ele>
        <time>2024-11-10T12:20:32Z</time>
      </trkpt>
      <trkpt lat="42.2889" lon="3.28122">
        <ele>6.3</ele>
        <time>2024-11-10T12:20:33Z</time>
      </trkpt>
      <trkpt lat="42.2889" lon="3.28122">
        <ele>6.3</ele>
        <time>2024-11-10T12:20:34Z</time>
      </trkpt>
      <trkpt lat="42.2889" lon="3.28122">
        <ele>6.3</ele>
        <time>2024-11-10T12:20:35Z</time>
      </trkpt>
      <trkpt lat="42.2889" lon="3.28122">
        <ele>6.3</ele>
        <time>2024-11-10T12:20:36Z</time>
      </trkpt>
      <trkpt lat="42.2889" lon="3.28122">
        <ele>6.3</ele>
        <time>2024-11-10T12:20:37Z</time>
      </trkpt>
      <trkpt lat="42.2889" lon="3.28122">
        <ele>6.3</ele>
        <time>2024-11-10T12:20:38Z</time>
      </trkpt>
      <trkpt lat="42.2889" lon="3.28122">
        <ele>6.3</ele>
        <time>2024-11-10T12:20:39Z</time>
      </trkpt>
      <trkpt lat="42.2889" lon="3.28122">
        <ele>6.3</ele>
        <time>2024-11-10T12:20:40Z</time>
      </trkpt>
      <trkpt lat="42.2889" lon="3.28122">
        <ele>6.3</ele>
        <time>2024-11-10T12:20:41Z</time>
      </trkpt>
      <trkpt lat="42.2889" lon="3.28122">
        <ele>6.3</ele>
        <time>2024-11-10T12:20:42Z</time>
      </trkpt>
      <trkpt lat="42.2889" lon="3.28122">
        <ele>6.3</ele>
        <time>2024-11-10T12:20:43Z</time>
      </trkpt>
      <trkpt lat="42.2889" lon="3.28122">
        <ele>6.3</ele>
        <time>2024-11-10T12:20:44Z</time>
      </trkpt>
      <trkpt lat="42.2889" lon="3.28122">
        <ele>6.3</ele>
        <time>2024-11-10T12:20:45Z</time>
      </trkpt>
      <trkpt lat="42.2889" lon="3.28122">
        <ele>6.3</ele>
        <time>2024-11-10T12:20:46Z</time>
      </trkpt>
      <trkpt lat="42.2889" lon="3.28122">
        <ele>6.3</ele>
        <time>2024-11-10T12:20:47Z</time>
      </trkpt>
      <trkpt lat="42.2889" lon="3.28122">
        <ele>6.3</ele>
        <time>2024-11-10T12:20:48Z</time>
      </trkpt>
      <trkpt lat="42.2889" lon="3.28122">
        <ele>6.3</ele>
        <time>2024-11-10T12:20:49Z</time>
      </trkpt>
      <trkpt lat="42.2889" lon="3.28122">
        <ele>6.3</ele>
        <time>2024-11-10T12:20:50Z</time>
      </trkpt>
      <trkpt lat="42.2889" lon="3.28121">
        <ele>6.3</ele>
        <time>2024-11-10T12:20:51Z</time>
      </trkpt>
      <trkpt lat="42.2889" lon="3.28121">
        <ele>6.3</ele>
        <time>2024-11-10T12:20:52Z</time>
      </trkpt>
      <trkpt lat="42.2889" lon="3.28121">
        <ele>6.3</ele>
        <time>2024-11-10T12:20:53Z</time>
      </trkpt>
      <trkpt lat="42.2889" lon="3.28121">
        <ele>6.3</ele>
        <time>2024-11-10T12:20:54Z</time>
      </trkpt>
      <trkpt lat="42.2889" lon="3.28121">
        <ele>6.3</ele>
        <time>2024-11-10T12:20:55Z</time>
      </trkpt>
      <trkpt lat="42.2889" lon="3.28122">
        <ele>6.3</ele>
        <time>2024-11-10T12:20:56Z</time>
      </trkpt>
      <trkpt lat="42.2889" lon="3.28122">
        <ele>6.3</ele>
        <time>2024-11-10T12:20:57Z</time>
      </trkpt>
      <trkpt lat="42.2889" lon="3.28122">
        <ele>6.3</ele>
        <time>2024-11-10T12:20:58Z</time>
      </trkpt>
      <trkpt lat="42.2889" lon="3.28122">
        <ele>6.3</ele>
        <time>2024-11-10T12:20:59Z</time>
      </trkpt>
      <trkpt lat="42.2889" lon="3.28122">
        <ele>6.3</ele>
        <time>2024-11-10T12:21:00Z</time>
      </trkpt>
      <trkpt lat="42.2889" lon="3.28122">
        <ele>6.3</ele>
        <time>2024-11-10T12:21:01Z</time>
      </trkpt>
      <trkpt lat="42.2889" lon="3.28122">
        <ele>6.3</ele>
        <time>2024-11-10T12:21:02Z</time>
      </trkpt>
      <trkpt lat="42.2889" lon="3.28122">
        <ele>6.3</ele>
        <time>2024-11-10T12:21:03Z</time>
      </trkpt>
      <trkpt lat="42.2889" lon="3.28122">
        <ele>6.3</ele>
        <time>2024-11-10T12:21:04Z</time>
      </trkpt>
      <trkpt lat="42.2889" lon="3.28122">
        <ele>6.3</ele>
        <time>2024-11-10T12:21:05Z</time>
      </trkpt>
      <trkpt lat="42.2889" lon="3.28121">
        <ele>6.3</ele>
        <time>2024-11-10T12:21:06Z</time>
      </trkpt>
      <trkpt lat="42.2889" lon="3.28121">
        <ele>6.3</ele>
        <time>2024-11-10T12:21:07Z</time>
      </trkpt>
      <trkpt lat="42.2889" lon="3.28121">
        <ele>6.3</ele>
        <time>2024-11-10T12:21:08Z</time>
      </trkpt>
      <trkpt lat="42.2889" lon="3.28121">
        <ele>6.3</ele>
        <time>2024-11-10T12:21:09Z</time>
      </trkpt>
      <trkpt lat="42.2889" lon="3.28121">
        <ele>6.3</ele>
        <time>2024-11-10T12:21:10Z</time>
      </trkpt>
      <trkpt lat="42.2889" lon="3.28122">
        <ele>6.3</ele>
        <time>2024-11-10T12:21:11Z</time>
      </trkpt>
      <trkpt lat="42.2889" lon="3.28122">
        <ele>6.3</ele>
        <time>2024-11-10T12:21:12Z</time>
      </trkpt>
      <trkpt lat="42.2889" lon="3.28122">
        <ele>6.3</ele>
        <time>2024-11-10T12:21:13Z</time>
      </trkpt>
      <trkpt lat="42.2889" lon="3.28122">
        <ele>6.3</ele>
        <time>2024-11-10T12:21:14Z</time>
      </trkpt>
      <trkpt lat="42.2889" lon="3.28122">
        <ele>6.3</ele>
        <time>2024-11-10T12:21:15Z</time>
      </trkpt>
      <trkpt lat="42.2889" lon="3.28121">
        <ele>6.3</ele>
        <time>2024-11-10T12:21:16Z</time>
      </trkpt>
      <trkpt lat="42.2889" lon="3.28121">
        <ele>6.3</ele>
        <time>2024-11-10T12:21:17Z</time>
      </trkpt>
      <trkpt lat="42.2889" lon="3.28121">
        <ele>6.3</ele>
        <time>2024-11-10T12:21:18Z</time>
      </trkpt>
      <trkpt lat="42.2889" lon="3.28121">
        <ele>6.3</ele>
        <time>2024-11-10T12:21:19Z</time>
      </trkpt>
      <trkpt lat="42.2889" lon="3.28121">
        <ele>6.3</ele>
        <time>2024-11-10T12:21:20Z</time>
      </trkpt>
      <trkpt lat="42.2889" lon="3.28122">
        <ele>6.3</ele>
        <time>2024-11-10T12:21:21Z</time>
      </trkpt>
      <trkpt lat="42.2889" lon="3.28122">
        <ele>6.3</ele>
        <time>2024-11-10T12:21:22Z</time>
      </trkpt>
      <trkpt lat="42.2889" lon="3.28122">
        <ele>6.3</ele>
        <time>2024-11-10T12:21:23Z</time>
      </trkpt>
      <trkpt lat="42.2889" lon="3.28122">
        <ele>6.3</ele>
        <time>2024-11-10T12:21:24Z</time>
      </trkpt>
      <trkpt lat="42.2889" lon="3.28122">
        <ele>6.3</ele>
        <time>2024-11-10T12:21:25Z</time>
      </trkpt>
      <trkpt lat="42.2889" lon="3.28122">
        <ele>6.3</ele>
        <time>2024-11-10T12:21:26Z</time>
      </trkpt>
      <trkpt lat="42.2889" lon="3.28122">
        <ele>6.3</ele>
        <time>2024-11-10T12:21:27Z</time>
      </trkpt>
      <trkpt lat="42.2889" lon="3.28122">
        <ele>6.3</ele>
        <time>2024-11-10T12:21:28Z</time>
      </trkpt>
      <trkpt lat="42.2889" lon="3.28122">
        <ele>6.3</ele>
        <time>2024-11-10T12:21:29Z</time>
      </trkpt>
      <trkpt lat="42.2889" lon="3.28122">
        <ele>6.3</ele>
        <time>2024-11-10T12:21:30Z</time>
      </trkpt>
      <trkpt lat="42.2889" lon="3.28122">
        <ele>6.3</ele>
        <time>2024-11-10T12:21:31Z</time>
      </trkpt>
      <trkpt lat="42.2889" lon="3.28121">
        <ele>6.3</ele>
        <time>2024-11-10T12:21:32Z</time>
      </trkpt>
      <trkpt lat="42.2889" lon="3.28121">
        <ele>6.3</ele>
        <time>2024-11-10T12:21:33Z</time>
      </trkpt>
      <trkpt lat="42.2889" lon="3.28121">
        <ele>6.3</ele>
        <time>2024-11-10T12:21:34Z</time>
      </trkpt>
      <trkpt lat="42.2889" lon="3.28121">
        <ele>6.3</ele>
        <time>2024-11-10T12:21:35Z</time>
      </trkpt>
      <trkpt lat="42.2889" lon="3.28122">
        <ele>6.3</ele>
        <time>2024-11-10T12:21:36Z</time>
      </trkpt>
      <trkpt lat="42.2889" lon="3.28122">
        <ele>6.3</ele>
        <time>2024-11-10T12:21:37Z</time>
      </trkpt>
      <trkpt lat="42.2889" lon="3.28122">
        <ele>6.3</ele>
        <time>2024-11-10T12:21:38Z</time>
      </trkpt>
      <trkpt lat="42.2889" lon="3.28122">
        <ele>6.3</ele>
        <time>2024-11-10T12:21:39Z</time>
      </trkpt>
      <trkpt lat="42.2889" lon="3.28122">
        <ele>6.3</ele>
        <time>2024-11-10T12:21:40Z</time>
      </trkpt>
      <trkpt lat="42.2889" lon="3.28122">
        <ele>6.3</ele>
        <time>2024-11-10T12:21:41Z</time>
      </trkpt>
      <trkpt lat="42.2889" lon="3.28122">
        <ele>6.3</ele>
        <time>2024-11-10T12:21:42Z</time>
      </trkpt>
      <trkpt lat="42.2889" lon="3.28122">
        <ele>6.3</ele>
        <time>2024-11-10T12:21:43Z</time>
      </trkpt>
      <trkpt lat="42.2889" lon="3.28122">
        <ele>6.3</ele>
        <time>2024-11-10T12:21:44Z</time>
      </trkpt>
      <trkpt lat="42.2889" lon="3.28122">
        <ele>6.3</ele>
        <time>2024-11-10T12:21:45Z</time>
      </trkpt>
      <trkpt lat="42.2889" lon="3.28122">
        <ele>6.3</ele>
        <time>2024-11-10T12:21:46Z</time>
      </trkpt>
      <trkpt lat="42.2889" lon="3.28122">
        <ele>6.3</ele>
        <time>2024-11-10T12:21:47Z</time>
      </trkpt>
      <trkpt lat="42.2889" lon="3.28122">
        <ele>6.3</ele>
        <time>2024-11-10T12:21:48Z</time>
      </trkpt>
      <trkpt lat="42.2889" lon="3.28122">
        <ele>6.3</ele>
        <time>2024-11-10T12:21:49Z</time>
      </trkpt>
      <trkpt lat="42.2889" lon="3.28122">
        <ele>6.3</ele>
        <time>2024-11-10T12:21:50Z</time>
      </trkpt>
      <trkpt lat="42.2889" lon="3.28122">
        <ele>6.3</ele>
        <time>2024-11-10T12:21:51Z</time>
      </trkpt>
      <trkpt lat="42.2889" lon="3.28122">
        <ele>6.3</ele>
        <time>2024-11-10T12:21:52Z</time>
      </trkpt>
      <trkpt lat="42.2889" lon="3.28122">
        <ele>6.3</ele>
        <time>2024-11-10T12:21:53Z</time>
      </trkpt>
      <trkpt lat="42.2889" lon="3.28122">
        <ele>6.3</ele>
        <time>2024-11-10T12:21:54Z</time>
      </trkpt>
      <trkpt lat="42.2889" lon="3.28122">
        <ele>6.3</ele>
        <time>2024-11-10T12:21:55Z</time>
      </trkpt>
      <trkpt lat="42.2889" lon="3.28122">
        <ele>6.3</ele>
        <time>2024-11-10T12:21:56Z</time>
      </trkpt>
      <trkpt lat="42.2889" lon="3.28122">
        <ele>6.3</ele>
        <time>2024-11-10T12:21:57Z</time>
      </trkpt>
      <trkpt lat="42.2889" lon="3.28122">
        <ele>6.3</ele>
        <time>2024-11-10T12:21:58Z</time>
      </trkpt>
      <trkpt lat="42.2889" lon="3.28122">
        <ele>6.3</ele>
        <time>2024-11-10T12:21:59Z</time>
      </trkpt>
      <trkpt lat="42.2889" lon="3.28122">
        <ele>6.3</ele>
        <time>2024-11-10T12:22:00Z</time>
      </trkpt>
      <trkpt lat="42.2889" lon="3.28122">
        <ele>6.3</ele>
        <time>2024-11-10T12:22:01Z</time>
      </trkpt>
      <trkpt lat="42.2889" lon="3.28122">
        <ele>6.3</ele>
        <time>2024-11-10T12:22:02Z</time>
      </trkpt>
      <trkpt lat="42.2889" lon="3.28122">
        <ele>6.3</ele>
        <time>2024-11-10T12:22:03Z</time>
      </trkpt>
      <trkpt lat="42.2889" lon="3.28122">
        <ele>6.3</ele>
        <time>2024-11-10T12:22:04Z</time>
      </trkpt>
      <trkpt lat="42.2889" lon="3.28122">
        <ele>6.3</ele>
        <time>2024-11-10T12:22:05Z</time>
      </trkpt>
      <trkpt lat="42.2889" lon="3.28123">
        <ele>6.3</ele>
        <time>2024-11-10T12:22:06Z</time>
      </trkpt>
      <trkpt lat="42.2889" lon="3.28123">
        <ele>6.3</ele>
        <time>2024-11-10T12:22:07Z</time>
      </trkpt>
      <trkpt lat="42.2889" lon="3.28123">
        <ele>6.3</ele>
        <time>2024-11-10T12:22:08Z</time>
      </trkpt>
      <trkpt lat="42.2889" lon="3.28123">
        <ele>6.3</ele>
        <time>2024-11-10T12:22:09Z</time>
      </trkpt>
      <trkpt lat="42.2889" lon="3.28123">
        <ele>6.3</ele>
        <time>2024-11-10T12:22:10Z</time>
      </trkpt>
      <trkpt lat="42.2889" lon="3.28122">
        <ele>6.3</ele>
        <time>2024-11-10T12:22:11Z</time>
      </trkpt>
      <trkpt lat="42.2889" lon="3.28122">
        <ele>6.3</ele>
        <time>2024-11-10T12:22:12Z</time>
      </trkpt>
      <trkpt lat="42.2889" lon="3.28122">
        <ele>6.3</ele>
        <time>2024-11-10T12:22:13Z</time>
      </trkpt>
      <trkpt lat="42.2889" lon="3.28122">
        <ele>6.3</ele>
        <time>2024-11-10T12:22:14Z</time>
      </trkpt>
      <trkpt lat="42.2889" lon="3.28122">
        <ele>6.3</ele>
        <time>2024-11-10T12:22:15Z</time>
      </trkpt>
      <trkpt lat="42.2889" lon="3.28122">
        <ele>6.3</ele>
        <time>2024-11-10T12:22:16Z</time>
      </trkpt>
      <trkpt lat="42.2889" lon="3.28122">
        <ele>6.3</ele>
        <time>2024-11-10T12:22:17Z</time>
      </trkpt>
      <trkpt lat="42.2889" lon="3.28122">
        <ele>6.3</ele>
        <time>2024-11-10T12:22:18Z</time>
      </trkpt>
      <trkpt lat="42.2889" lon="3.28122">
        <ele>6.3</ele>
        <time>2024-11-10T12:22:19Z</time>
      </trkpt>
      <trkpt lat="42.2889" lon="3.28122">
        <ele>6.3</ele>
        <time>2024-11-10T12:22:20Z</time>
      </trkpt>
      <trkpt lat="42.2889" lon="3.28122">
        <ele>6.3</ele>
        <time>2024-11-10T12:22:21Z</time>
      </trkpt>
      <trkpt lat="42.2889" lon="3.28122">
        <ele>6.3</ele>
        <time>2024-11-10T12:22:22Z</time>
      </trkpt>
      <trkpt lat="42.2889" lon="3.28122">
        <ele>6.3</ele>
        <time>2024-11-10T12:22:23Z</time>
      </trkpt>
      <trkpt lat="42.2889" lon="3.28122">
        <ele>6.3</ele>
        <time>2024-11-10T12:22:24Z</time>
      </trkpt>
      <trkpt lat="42.2889" lon="3.28122">
        <ele>6.3</ele>
        <time>2024-11-10T12:22:25Z</time>
      </trkpt>
      <trkpt lat="42.2889" lon="3.28122">
        <ele>6.3</ele>
        <time>2024-11-10T12:22:26Z</time>
      </trkpt>
      <trkpt lat="42.2889" lon="3.28122">
        <ele>6.3</ele>
        <time>2024-11-10T12:22:27Z</time>
      </trkpt>
      <trkpt lat="42.2889" lon="3.28122">
        <ele>6.3</ele>
        <time>2024-11-10T12:22:28Z</time>
      </trkpt>
      <trkpt lat="42.2889" lon="3.28122">
        <ele>6.3</ele>
        <time>2024-11-10T12:22:29Z</time>
      </trkpt>
      <trkpt lat="42.2889" lon="3.28122">
        <ele>6.3</ele>
        <time>2024-11-10T12:22:30Z</time>
      </trkpt>
      <trkpt lat="42.2889" lon="3.28121">
        <ele>6.3</ele>
        <time>2024-11-10T12:22:31Z</time>
      </trkpt>
      <trkpt lat="42.2889" lon="3.28121">
        <ele>6.3</ele>
        <time>2024-11-10T12:22:32Z</time>
      </trkpt>
      <trkpt lat="42.2889" lon="3.28121">
        <ele>6.3</ele>
        <time>2024-11-10T12:22:33Z</time>
      </trkpt>
      <trkpt lat="42.2889" lon="3.28121">
        <ele>6.3</ele>
        <time>2024-11-10T12:22:34Z</time>
      </trkpt>
      <trkpt lat="42.2889" lon="3.28121">
        <ele>6.3</ele>
        <time>2024-11-10T12:22:35Z</time>
      </trkpt>
      <trkpt lat="42.2889" lon="3.28122">
        <ele>6.3</ele>
        <time>2024-11-10T12:22:36Z</time>
      </trkpt>
      <trkpt lat="42.2889" lon="3.28123">
        <ele>6.3</ele>
        <time>2024-11-10T12:22:37Z</time>
      </trkpt>
      <trkpt lat="42.2889" lon="3.28123">
        <ele>6.3</ele>
        <time>2024-11-10T12:22:38Z</time>
      </trkpt>
      <trkpt lat="42.2889" lon="3.28123">
        <ele>6.3</ele>
        <time>2024-11-10T12:22:39Z</time>
      </trkpt>
      <trkpt lat="42.2889" lon="3.28123">
        <ele>6.3</ele>
        <time>2024-11-10T12:22:40Z</time>
      </trkpt>
      <trkpt lat="42.2889" lon="3.28123">
        <ele>6.3</ele>
        <time>2024-11-10T12:22:41Z</time>
      </trkpt>
      <trkpt lat="42.2889" lon="3.28122">
        <ele>6.3</ele>
        <time>2024-11-10T12:22:42Z</time>
      </trkpt>
      <trkpt lat="42.2889" lon="3.28122">
        <ele>6.3</ele>
        <time>2024-11-10T12:22:43Z</time>
      </trkpt>
      <trkpt lat="42.2889" lon="3.28122">
        <ele>6.3</ele>
        <time>2024-11-10T12:22:44Z</time>
      </trkpt>
      <trkpt lat="42.2889" lon="3.28122">
        <ele>6.3</ele>
        <time>2024-11-10T12:22:45Z</time>
      </trkpt>
      <trkpt lat="42.2889" lon="3.28122">
        <ele>6.3</ele>
        <time>2024-11-10T12:22:46Z</time>
      </trkpt>
      <trkpt lat="42.2889" lon="3.28122">
        <ele>6.3</ele>
        <time>2024-11-10T12:22:47Z</time>
      </trkpt>
      <trkpt lat="42.2889" lon="3.28122">
        <ele>6.3</ele>
        <time>2024-11-10T12:22:48Z</time>
      </trkpt>
      <trkpt lat="42.2889" lon="3.28122">
        <ele>6.3</ele>
        <time>2024-11-10T12:22:49Z</time>
      </trkpt>
      <trkpt lat="42.2889" lon="3.28122">
        <ele>6.3</ele>
        <time>2024-11-10T12:22:50Z</time>
      </trkpt>
      <trkpt lat="42.2889" lon="3.28122">
        <ele>6.3</ele>
        <time>2024-11-10T12:22:51Z</time>
      </trkpt>
      <trkpt lat="42.2889" lon="3.28122">
        <ele>6.3</ele>
        <time>2024-11-10T12:22:52Z</time>
      </trkpt>
      <trkpt lat="42.2889" lon="3.28122">
        <ele>6.3</ele>
        <time>2024-11-10T12:22:53Z</time>
      </trkpt>
      <trkpt lat="42.2889" lon="3.28122">
        <ele>6.3</ele>
        <time>2024-11-10T12:22:54Z</time>
      </trkpt>
      <trkpt lat="42.2889" lon="3.28122">
        <ele>6.3</ele>
        <time>2024-11-10T12:22:55Z</time>
      </trkpt>
      <trkpt lat="42.2889" lon="3.28122">
        <ele>6.3</ele>
        <time>2024-11-10T12:22:56Z</time>
      </trkpt>
      <trkpt lat="42.2889" lon="3.28122">
        <ele>6.3</ele>
        <time>2024-11-10T12:22:57Z</time>
      </trkpt>
      <trkpt lat="42.2889" lon="3.28122">
        <ele>6.4</ele>
        <time>2024-11-10T12:22:58Z</time>
      </trkpt>
      <trkpt lat="42.2889" lon="3.28122">
        <ele>6.4</ele>
        <time>2024-11-10T12:22:59Z</time>
      </trkpt>
      <trkpt lat="42.2889" lon="3.28122">
        <ele>6.4</ele>
        <time>2024-11-10T12:23:00Z</time>
      </trkpt>
      <trkpt lat="42.2889" lon="3.28122">
        <ele>6.4</ele>
        <time>2024-11-10T12:23:01Z</time>
      </trkpt>
      <trkpt lat="42.2889" lon="3.28122">
        <ele>6.4</ele>
        <time>2024-11-10T12:23:02Z</time>
      </trkpt>
      <trkpt lat="42.2889" lon="3.28122">
        <ele>6.4</ele>
        <time>2024-11-10T12:23:03Z</time>
      </trkpt>
      <trkpt lat="42.2889" lon="3.28122">
        <ele>6.4</ele>
        <time>2024-11-10T12:23:04Z</time>
      </trkpt>
      <trkpt lat="42.2889" lon="3.28122">
        <ele>6.4</ele>
        <time>2024-11-10T12:23:05Z</time>
      </trkpt>
      <trkpt lat="42.2889" lon="3.28122">
        <ele>6.4</ele>
        <time>2024-11-10T12:23:06Z</time>
      </trkpt>
      <trkpt lat="42.2889" lon="3.28122">
        <ele>6.4</ele>
        <time>2024-11-10T12:23:07Z</time>
      </trkpt>
      <trkpt lat="42.2889" lon="3.28122">
        <ele>6.4</ele>
        <time>2024-11-10T12:23:08Z</time>
      </trkpt>
      <trkpt lat="42.2889" lon="3.28122">
        <ele>6.4</ele>
        <time>2024-11-10T12:23:09Z</time>
      </trkpt>
      <trkpt lat="42.2889" lon="3.28122">
        <ele>6.4</ele>
        <time>2024-11-10T12:23:10Z</time>
      </trkpt>
      <trkpt lat="42.2889" lon="3.28122">
        <ele>6.4</ele>
        <time>2024-11-10T12:23:11Z</time>
      </trkpt>
      <trkpt lat="42.2889" lon="3.28123">
        <ele>6.4</ele>
        <time>2024-11-10T12:23:12Z</time>
      </trkpt>
      <trkpt lat="42.2889" lon="3.28123">
        <ele>6.4</ele>
        <time>2024-11-10T12:23:13Z</time>
      </trkpt>
      <trkpt lat="42.2889" lon="3.28123">
        <ele>6.4</ele>
        <time>2024-11-10T12:23:14Z</time>
      </trkpt>
      <trkpt lat="42.2889" lon="3.28123">
        <ele>6.4</ele>
        <time>2024-11-10T12:23:15Z</time>
      </trkpt>
      <trkpt lat="42.2889" lon="3.28123">
        <ele>6.4</ele>
        <time>2024-11-10T12:23:16Z</time>
      </trkpt>
      <trkpt lat="42.2889" lon="3.28122">
        <ele>6.4</ele>
        <time>2024-11-10T12:23:17Z</time>
      </trkpt>
      <trkpt lat="42.2889" lon="3.28122">
        <ele>6.4</ele>
        <time>2024-11-10T12:23:18Z</time>
      </trkpt>
      <trkpt lat="42.2889" lon="3.28122">
        <ele>6.4</ele>
        <time>2024-11-10T12:23:19Z</time>
      </trkpt>
      <trkpt lat="42.2889" lon="3.28122">
        <ele>6.4</ele>
        <time>2024-11-10T12:23:20Z</time>
      </trkpt>
      <trkpt lat="42.2889" lon="3.28122">
        <ele>6.4</ele>
        <time>2024-11-10T12:23:21Z</time>
      </trkpt>
      <trkpt lat="42.2889" lon="3.28123">
        <ele>6.4</ele>
        <time>2024-11-10T12:23:22Z</time>
      </trkpt>
      <trkpt lat="42.2889" lon="3.28123">
        <ele>6.4</ele>
        <time>2024-11-10T12:23:23Z</time>
      </trkpt>
      <trkpt lat="42.2889" lon="3.28123">
        <ele>6.4</ele>
        <time>2024-11-10T12:23:24Z</time>
      </trkpt>
      <trkpt lat="42.2889" lon="3.28123">
        <ele>6.4</ele>
        <time>2024-11-10T12:23:25Z</time>
      </trkpt>
      <trkpt lat="42.2889" lon="3.28123">
        <ele>6.4</ele>
        <time>2024-11-10T12:23:26Z</time>
      </trkpt>
      <trkpt lat="42.2889" lon="3.28122">
        <ele>6.4</ele>
        <time>2024-11-10T12:23:27Z</time>
      </trkpt>
      <trkpt lat="42.2889" lon="3.28122">
        <ele>6.4</ele>
        <time>2024-11-10T12:23:28Z</time>
      </trkpt>
      <trkpt lat="42.2889" lon="3.28122">
        <ele>6.4</ele>
        <time>2024-11-10T12:23:29Z</time>
      </trkpt>
      <trkpt lat="42.2889" lon="3.28122">
        <ele>6.4</ele>
        <time>2024-11-10T12:23:30Z</time>
      </trkpt>
      <trkpt lat="42.2889" lon="3.28122">
        <ele>6.4</ele>
        <time>2024-11-10T12:23:31Z</time>
      </trkpt>
      <trkpt lat="42.2889" lon="3.28121">
        <ele>6.4</ele>
        <time>2024-11-10T12:23:32Z</time>
      </trkpt>
      <trkpt lat="42.2889" lon="3.28121">
        <ele>6.4</ele>
        <time>2024-11-10T12:23:33Z</time>
      </trkpt>
      <trkpt lat="42.2889" lon="3.28121">
        <ele>6.4</ele>
        <time>2024-11-10T12:23:34Z</time>
      </trkpt>
      <trkpt lat="42.2889" lon="3.28121">
        <ele>6.4</ele>
        <time>2024-11-10T12:23:35Z</time>
      </trkpt>
      <trkpt lat="42.2889" lon="3.28121">
        <ele>6.4</ele>
        <time>2024-11-10T12:23:36Z</time>
      </trkpt>
      <trkpt lat="42.2889" lon="3.28122">
        <ele>6.4</ele>
        <time>2024-11-10T12:23:37Z</time>
      </trkpt>
      <trkpt lat="42.2889" lon="3.28122">
        <ele>6.4</ele>
        <time>2024-11-10T12:23:38Z</time>
      </trkpt>
      <trkpt lat="42.2889" lon="3.28122">
        <ele>6.4</ele>
        <time>2024-11-10T12:23:39Z</time>
      </trkpt>
      <trkpt lat="42.2889" lon="3.28122">
        <ele>6.4</ele>
        <time>2024-11-10T12:23:40Z</time>
      </trkpt>
      <trkpt lat="42.2889" lon="3.28122">
        <ele>6.4</ele>
        <time>2024-11-10T12:23:41Z</time>
      </trkpt>
      <trkpt lat="42.2889" lon="3.28122">
        <ele>6.4</ele>
        <time>2024-11-10T12:23:42Z</time>
      </trkpt>
      <trkpt lat="42.2889" lon="3.28122">
        <ele>6.4</ele>
        <time>2024-11-10T12:23:43Z</time>
      </trkpt>
      <trkpt lat="42.2889" lon="3.28122">
        <ele>6.4</ele>
        <time>2024-11-10T12:23:44Z</time>
      </trkpt>
      <trkpt lat="42.2889" lon="3.28122">
        <ele>6.4</ele>
        <time>2024-11-10T12:23:45Z</time>
      </trkpt>
      <trkpt lat="42.2889" lon="3.28122">
        <ele>6.4</ele>
        <time>2024-11-10T12:23:46Z</time>
      </trkpt>
      <trkpt lat="42.2889" lon="3.28122">
        <ele>6.4</ele>
        <time>2024-11-10T12:23:47Z</time>
      </trkpt>
      <trkpt lat="42.2889" lon="3.28122">
        <ele>6.4</ele>
        <time>2024-11-10T12:23:48Z</time>
      </trkpt>
      <trkpt lat="42.2889" lon="3.28123">
        <ele>6.4</ele>
        <time>2024-11-10T12:23:49Z</time>
      </trkpt>
      <trkpt lat="42.2889" lon="3.28122">
        <ele>6.4</ele>
        <time>2024-11-10T12:23:50Z</time>
      </trkpt>
      <trkpt lat="42.2889" lon="3.28121">
        <ele>6.4</ele>
        <time>2024-11-10T12:23:51Z</time>
      </trkpt>
      <trkpt lat="42.2889" lon="3.28121">
        <ele>6.4</ele>
        <time>2024-11-10T12:23:52Z</time>
      </trkpt>
      <trkpt lat="42.2889" lon="3.28121">
        <ele>6.4</ele>
        <time>2024-11-10T12:23:53Z</time>
      </trkpt>
      <trkpt lat="42.2889" lon="3.28121">
        <ele>6.4</ele>
        <time>2024-11-10T12:23:55Z</time>
      </trkpt>
      <trkpt lat="42.2889" lon="3.28121">
        <ele>6.4</ele>
        <time>2024-11-10T12:23:56Z</time>
      </trkpt>
      <trkpt lat="42.2889" lon="3.28122">
        <ele>6.4</ele>
        <time>2024-11-10T12:23:57Z</time>
      </trkpt>
      <trkpt lat="42.2889" lon="3.28122">
        <ele>6.4</ele>
        <time>2024-11-10T12:23:58Z</time>
      </trkpt>
      <trkpt lat="42.2889" lon="3.28122">
        <ele>6.4</ele>
        <time>2024-11-10T12:23:59Z</time>
      </trkpt>
      <trkpt lat="42.2889" lon="3.28122">
        <ele>6.4</ele>
        <time>2024-11-10T12:24:01Z</time>
      </trkpt>
      <trkpt lat="42.2889" lon="3.28122">
        <ele>6.4</ele>
        <time>2024-11-10T12:24:02Z</time>
      </trkpt>
      <trkpt lat="42.2889" lon="3.28122">
        <ele>6.4</ele>
        <time>2024-11-10T12:24:03Z</time>
      </trkpt>
      <trkpt lat="42.2889" lon="3.28122">
        <ele>6.4</ele>
        <time>2024-11-10T12:24:04Z</time>
      </trkpt>
      <trkpt lat="42.2889" lon="3.28122">
        <ele>6.4</ele>
        <time>2024-11-10T12:24:05Z</time>
      </trkpt>
      <trkpt lat="42.2889" lon="3.28122">
        <ele>6.4</ele>
        <time>2024-11-10T12:24:06Z</time>
      </trkpt>
      <trkpt lat="42.2889" lon="3.28122">
        <ele>6.4</ele>
        <time>2024-11-10T12:24:07Z</time>
      </trkpt>
      <trkpt lat="42.2889" lon="3.28122">
        <ele>6.4</ele>
        <time>2024-11-10T12:24:08Z</time>
      </trkpt>
      <trkpt lat="42.2889" lon="3.28122">
        <ele>6.4</ele>
        <time>2024-11-10T12:24:09Z</time>
      </trkpt>
      <trkpt lat="42.2889" lon="3.28122">
        <ele>6.4</ele>
        <time>2024-11-10T12:24:10Z</time>
      </trkpt>
      <trkpt lat="42.2889" lon="3.28122">
        <ele>6.4</ele>
        <time>2024-11-10T12:24:11Z</time>
      </trkpt>
      <trkpt lat="42.2889" lon="3.28122">
        <ele>6.4</ele>
        <time>2024-11-10T12:24:12Z</time>
      </trkpt>
      <trkpt lat="42.2889" lon="3.28122">
        <ele>6.4</ele>
        <time>2024-11-10T12:24:13Z</time>
      </trkpt>
      <trkpt lat="42.2889" lon="3.28122">
        <ele>6.4</ele>
        <time>2024-11-10T12:24:14Z</time>
      </trkpt>
      <trkpt lat="42.2889" lon="3.28122">
        <ele>6.4</ele>
        <time>2024-11-10T12:24:15Z</time>
      </trkpt>
      <trkpt lat="42.2889" lon="3.28122">
        <ele>6.4</ele>
        <time>2024-11-10T12:24:16Z</time>
      </trkpt>
      <trkpt lat="42.2889" lon="3.28122">
        <ele>6.4</ele>
        <time>2024-11-10T12:24:17Z</time>
      </trkpt>
      <trkpt lat="42.2889" lon="3.28122">
        <ele>6.4</ele>
        <time>2024-11-10T12:24:18Z</time>
      </trkpt>
      <trkpt lat="42.2889" lon="3.28122">
        <ele>6.4</ele>
        <time>2024-11-10T12:24:19Z</time>
      </trkpt>
      <trkpt lat="42.2889" lon="3.28122">
        <ele>6.4</ele>
        <time>2024-11-10T12:24:20Z</time>
      </trkpt>
      <trkpt lat="42.2889" lon="3.28122">
        <ele>6.4</ele>
        <time>2024-11-10T12:24:21Z</time>
      </trkpt>
      <trkpt lat="42.2889" lon="3.28122">
        <ele>6.4</ele>
        <time>2024-11-10T12:24:22Z</time>
      </trkpt>
      <trkpt lat="42.2889" lon="3.28122">
        <ele>6.4</ele>
        <time>2024-11-10T12:24:23Z</time>
      </trkpt>
      <trkpt lat="42.2889" lon="3.28122">
        <ele>6.4</ele>
        <time>2024-11-10T12:24:24Z</time>
      </trkpt>
      <trkpt lat="42.2889" lon="3.28122">
        <ele>6.4</ele>
        <time>2024-11-10T12:24:25Z</time>
      </trkpt>
      <trkpt lat="42.2889" lon="3.28122">
        <ele>6.4</ele>
        <time>2024-11-10T12:24:26Z</time>
      </trkpt>
      <trkpt lat="42.2889" lon="3.28122">
        <ele>6.4</ele>
        <time>2024-11-10T12:24:27Z</time>
      </trkpt>
      <trkpt lat="42.28891" lon="3.28122">
        <ele>6.4</ele>
        <time>2024-11-10T12:24:28Z</time>
      </trkpt>
      <trkpt lat="42.28891" lon="3.28122">
        <ele>6.4</ele>
        <time>2024-11-10T12:24:29Z</time>
      </trkpt>
      <trkpt lat="42.28891" lon="3.28122">
        <ele>6.4</ele>
        <time>2024-11-10T12:24:30Z</time>
      </trkpt>
      <trkpt lat="42.2889" lon="3.28122">
        <ele>6.4</ele>
        <time>2024-11-10T12:24:31Z</time>
      </trkpt>
      <trkpt lat="42.2889" lon="3.28122">
        <ele>6.4</ele>
        <time>2024-11-10T12:24:32Z</time>
      </trkpt>
      <trkpt lat="42.2889" lon="3.28122">
        <ele>6.4</ele>
        <time>2024-11-10T12:24:33Z</time>
      </trkpt>
      <trkpt lat="42.2889" lon="3.28122">
        <ele>6.4</ele>
        <time>2024-11-10T12:24:34Z</time>
      </trkpt>
      <trkpt lat="42.2889" lon="3.28122">
        <ele>6.4</ele>
        <time>2024-11-10T12:24:35Z</time>
      </trkpt>
      <trkpt lat="42.2889" lon="3.28122">
        <ele>6.4</ele>
        <time>2024-11-10T12:24:36Z</time>
      </trkpt>
      <trkpt lat="42.2889" lon="3.28122">
        <ele>6.4</ele>
        <time>2024-11-10T12:24:37Z</time>
      </trkpt>
      <trkpt lat="42.2889" lon="3.28122">
        <ele>6.4</ele>
        <time>2024-11-10T12:24:38Z</time>
      </trkpt>
      <trkpt lat="42.2889" lon="3.28122">
        <ele>6.4</ele>
        <time>2024-11-10T12:24:39Z</time>
      </trkpt>
      <trkpt lat="42.2889" lon="3.28122">
        <ele>6.4</ele>
        <time>2024-11-10T12:24:40Z</time>
      </trkpt>
      <trkpt lat="42.2889" lon="3.28122">
        <ele>6.4</ele>
        <time>2024-11-10T12:24:41Z</time>
      </trkpt>
      <trkpt lat="42.28892" lon="3.28126">
        <ele>6.4</ele>
        <time>2024-11-10T12:24:42Z</time>
      </trkpt>
      <trkpt lat="42.28892" lon="3.28127">
        <ele>6.4</ele>
        <time>2024-11-10T12:24:43Z</time>
      </trkpt>
      <trkpt lat="42.28892" lon="3.28127">
        <ele>6.4</ele>
        <time>2024-11-10T12:24:44Z</time>
      </trkpt>
      <trkpt lat="42.28892" lon="3.28127">
        <ele>6.4</ele>
        <time>2024-11-10T12:24:45Z</time>
      </trkpt>
      <trkpt lat="42.28892" lon="3.28127">
        <ele>6.4</ele>
        <time>2024-11-10T12:24:46Z</time>
      </trkpt>
      <trkpt lat="42.28891" lon="3.28123">
        <ele>6.4</ele>
        <time>2024-11-10T12:24:47Z</time>
      </trkpt>
      <trkpt lat="42.2889" lon="3.28122">
        <ele>6.4</ele>
        <time>2024-11-10T12:24:48Z</time>
      </trkpt>
      <trkpt lat="42.2889" lon="3.28122">
        <ele>6.4</ele>
        <time>2024-11-10T12:24:49Z</time>
      </trkpt>
      <trkpt lat="42.2889" lon="3.28122">
        <ele>6.4</ele>
        <time>2024-11-10T12:24:50Z</time>
      </trkpt>
      <trkpt lat="42.2889" lon="3.28122">
        <ele>6.4</ele>
        <time>2024-11-10T12:24:51Z</time>
      </trkpt>
      <trkpt lat="42.2889" lon="3.28122">
        <ele>6.4</ele>
        <time>2024-11-10T12:24:52Z</time>
      </trkpt>
      <trkpt lat="42.2889" lon="3.28122">
        <ele>6.4</ele>
        <time>2024-11-10T12:24:53Z</time>
      </trkpt>
      <trkpt lat="42.2889" lon="3.28122">
        <ele>6.4</ele>
        <time>2024-11-10T12:24:54Z</time>
      </trkpt>
      <trkpt lat="42.2889" lon="3.28122">
        <ele>6.4</ele>
        <time>2024-11-10T12:24:55Z</time>
      </trkpt>
      <trkpt lat="42.2889" lon="3.28122">
        <ele>6.4</ele>
        <time>2024-11-10T12:24:56Z</time>
      </trkpt>
      <trkpt lat="42.2889" lon="3.28122">
        <ele>6.4</ele>
        <time>2024-11-10T12:24:57Z</time>
      </trkpt>
      <trkpt lat="42.2889" lon="3.28122">
        <ele>6.4</ele>
        <time>2024-11-10T12:24:58Z</time>
      </trkpt>
      <trkpt lat="42.2889" lon="3.28122">
        <ele>6.4</ele>
        <time>2024-11-10T12:24:59Z</time>
      </trkpt>
      <trkpt lat="42.2889" lon="3.28122">
        <ele>6.4</ele>
        <time>2024-11-10T12:25:00Z</time>
      </trkpt>
      <trkpt lat="42.2889" lon="3.28122">
        <ele>6.4</ele>
        <time>2024-11-10T12:25:01Z</time>
      </trkpt>
      <trkpt lat="42.2889" lon="3.28122">
        <ele>6.4</ele>
        <time>2024-11-10T12:25:02Z</time>
      </trkpt>
      <trkpt lat="42.2889" lon="3.28122">
        <ele>6.4</ele>
        <time>2024-11-10T12:25:03Z</time>
      </trkpt>
      <trkpt lat="42.2889" lon="3.28122">
        <ele>6.4</ele>
        <time>2024-11-10T12:25:04Z</time>
      </trkpt>
      <trkpt lat="42.2889" lon="3.28122">
        <ele>6.4</ele>
        <time>2024-11-10T12:25:05Z</time>
      </trkpt>
      <trkpt lat="42.2889" lon="3.28122">
        <ele>6.4</ele>
        <time>2024-11-10T12:25:06Z</time>
      </trkpt>
      <trkpt lat="42.2889" lon="3.28123">
        <ele>6.4</ele>
        <time>2024-11-10T12:25:07Z</time>
      </trkpt>
      <trkpt lat="42.2889" lon="3.28123">
        <ele>6.4</ele>
        <time>2024-11-10T12:25:08Z</time>
      </trkpt>
      <trkpt lat="42.2889" lon="3.28123">
        <ele>6.4</ele>
        <time>2024-11-10T12:25:09Z</time>
      </trkpt>
      <trkpt lat="42.2889" lon="3.28123">
        <ele>6.4</ele>
        <time>2024-11-10T12:25:10Z</time>
      </trkpt>
      <trkpt lat="42.2889" lon="3.28123">
        <ele>6.4</ele>
        <time>2024-11-10T12:25:11Z</time>
      </trkpt>
      <trkpt lat="42.2889" lon="3.28122">
        <ele>6.4</ele>
        <time>2024-11-10T12:25:12Z</time>
      </trkpt>
      <trkpt lat="42.2889" lon="3.28122">
        <ele>6.4</ele>
        <time>2024-11-10T12:25:13Z</time>
      </trkpt>
      <trkpt lat="42.2889" lon="3.28122">
        <ele>6.4</ele>
        <time>2024-11-10T12:25:14Z</time>
      </trkpt>
      <trkpt lat="42.2889" lon="3.28122">
        <ele>6.4</ele>
        <time>2024-11-10T12:25:15Z</time>
      </trkpt>
      <trkpt lat="42.2889" lon="3.28122">
        <ele>6.4</ele>
        <time>2024-11-10T12:25:16Z</time>
      </trkpt>
      <trkpt lat="42.28891" lon="3.28123">
        <ele>6.4</ele>
        <time>2024-11-10T12:25:17Z</time>
      </trkpt>
      <trkpt lat="42.28891" lon="3.28124">
        <ele>6.4</ele>
        <time>2024-11-10T12:25:18Z</time>
      </trkpt>
      <trkpt lat="42.28891" lon="3.28124">
        <ele>6.4</ele>
        <time>2024-11-10T12:25:19Z</time>
      </trkpt>
      <trkpt lat="42.28891" lon="3.28124">
        <ele>6.4</ele>
        <time>2024-11-10T12:25:20Z</time>
      </trkpt>
      <trkpt lat="42.28891" lon="3.28124">
        <ele>6.4</ele>
        <time>2024-11-10T12:25:21Z</time>
      </trkpt>
      <trkpt lat="42.2889" lon="3.28123">
        <ele>6.4</ele>
        <time>2024-11-10T12:25:22Z</time>
      </trkpt>
      <trkpt lat="42.2889" lon="3.28122">
        <ele>6.4</ele>
        <time>2024-11-10T12:25:23Z</time>
      </trkpt>
      <trkpt lat="42.2889" lon="3.28122">
        <ele>6.4</ele>
        <time>2024-11-10T12:25:24Z</time>
      </trkpt>
      <trkpt lat="42.2889" lon="3.28122">
        <ele>6.4</ele>
        <time>2024-11-10T12:25:25Z</time>
      </trkpt>
      <trkpt lat="42.2889" lon="3.28122">
        <ele>6.4</ele>
        <time>2024-11-10T12:25:26Z</time>
      </trkpt>
      <trkpt lat="42.2889" lon="3.28122">
        <ele>6.4</ele>
        <time>2024-11-10T12:25:27Z</time>
      </trkpt>
      <trkpt lat="42.2889" lon="3.28122">
        <ele>6.4</ele>
        <time>2024-11-10T12:25:28Z</time>
      </trkpt>
      <trkpt lat="42.2889" lon="3.28122">
        <ele>6.4</ele>
        <time>2024-11-10T12:25:29Z</time>
      </trkpt>
      <trkpt lat="42.2889" lon="3.28122">
        <ele>6.4</ele>
        <time>2024-11-10T12:25:30Z</time>
      </trkpt>
      <trkpt lat="42.2889" lon="3.28122">
        <ele>6.4</ele>
        <time>2024-11-10T12:25:31Z</time>
      </trkpt>
      <trkpt lat="42.2889" lon="3.28122">
        <ele>6.4</ele>
        <time>2024-11-10T12:25:32Z</time>
      </trkpt>
      <trkpt lat="42.2889" lon="3.28122">
        <ele>6.4</ele>
        <time>2024-11-10T12:25:33Z</time>
      </trkpt>
      <trkpt lat="42.2889" lon="3.28122">
        <ele>6.4</ele>
        <time>2024-11-10T12:25:34Z</time>
      </trkpt>
      <trkpt lat="42.2889" lon="3.28122">
        <ele>6.4</ele>
        <time>2024-11-10T12:25:35Z</time>
      </trkpt>
      <trkpt lat="42.2889" lon="3.28122">
        <ele>6.4</ele>
        <time>2024-11-10T12:25:36Z</time>
      </trkpt>
      <trkpt lat="42.2889" lon="3.28122">
        <ele>6.4</ele>
        <time>2024-11-10T12:25:37Z</time>
      </trkpt>
      <trkpt lat="42.2889" lon="3.28122">
        <ele>6.4</ele>
        <time>2024-11-10T12:25:38Z</time>
      </trkpt>
      <trkpt lat="42.2889" lon="3.28122">
        <ele>6.4</ele>
        <time>2024-11-10T12:25:39Z</time>
      </trkpt>
      <trkpt lat="42.2889" lon="3.28122">
        <ele>6.4</ele>
        <time>2024-11-10T12:25:40Z</time>
      </trkpt>
      <trkpt lat="42.2889" lon="3.28122">
        <ele>6.4</ele>
        <time>2024-11-10T12:25:41Z</time>
      </trkpt>
      <trkpt lat="42.2889" lon="3.28122">
        <ele>6.4</ele>
        <time>2024-11-10T12:25:42Z</time>
      </trkpt>
      <trkpt lat="42.2889" lon="3.28122">
        <ele>6.4</ele>
        <time>2024-11-10T12:25:43Z</time>
      </trkpt>
      <trkpt lat="42.2889" lon="3.28122">
        <ele>6.4</ele>
        <time>2024-11-10T12:25:44Z</time>
      </trkpt>
      <trkpt lat="42.2889" lon="3.28122">
        <ele>6.4</ele>
        <time>2024-11-10T12:25:45Z</time>
      </trkpt>
      <trkpt lat="42.2889" lon="3.28122">
        <ele>6.4</ele>
        <time>2024-11-10T12:25:46Z</time>
      </trkpt>
      <trkpt lat="42.2889" lon="3.28122">
        <ele>6.4</ele>
        <time>2024-11-10T12:25:47Z</time>
      </trkpt>
      <trkpt lat="42.2889" lon="3.28122">
        <ele>6.4</ele>
        <time>2024-11-10T12:25:48Z</time>
      </trkpt>
      <trkpt lat="42.2889" lon="3.28122">
        <ele>6.4</ele>
        <time>2024-11-10T12:25:49Z</time>
      </trkpt>
      <trkpt lat="42.2889" lon="3.28122">
        <ele>6.4</ele>
        <time>2024-11-10T12:25:50Z</time>
      </trkpt>
      <trkpt lat="42.2889" lon="3.28122">
        <ele>6.4</ele>
        <time>2024-11-10T12:25:51Z</time>
      </trkpt>
      <trkpt lat="42.2889" lon="3.28122">
        <ele>6.4</ele>
        <time>2024-11-10T12:25:52Z</time>
      </trkpt>
      <trkpt lat="42.2889" lon="3.28123">
        <ele>6.4</ele>
        <time>2024-11-10T12:25:53Z</time>
      </trkpt>
      <trkpt lat="42.2889" lon="3.28123">
        <ele>6.4</ele>
        <time>2024-11-10T12:25:54Z</time>
      </trkpt>
      <trkpt lat="42.2889" lon="3.28123">
        <ele>6.4</ele>
        <time>2024-11-10T12:25:55Z</time>
      </trkpt>
      <trkpt lat="42.2889" lon="3.28123">
        <ele>6.4</ele>
        <time>2024-11-10T12:25:56Z</time>
      </trkpt>
      <trkpt lat="42.2889" lon="3.28122">
        <ele>6.4</ele>
        <time>2024-11-10T12:25:57Z</time>
      </trkpt>
      <trkpt lat="42.2889" lon="3.28122">
        <ele>6.4</ele>
        <time>2024-11-10T12:25:58Z</time>
      </trkpt>
      <trkpt lat="42.2889" lon="3.28122">
        <ele>6.4</ele>
        <time>2024-11-10T12:25:59Z</time>
      </trkpt>
      <trkpt lat="42.2889" lon="3.28122">
        <ele>6.4</ele>
        <time>2024-11-10T12:26:00Z</time>
      </trkpt>
      <trkpt lat="42.2889" lon="3.28122">
        <ele>6.4</ele>
        <time>2024-11-10T12:26:01Z</time>
      </trkpt>
      <trkpt lat="42.2889" lon="3.28122">
        <ele>6.4</ele>
        <time>2024-11-10T12:26:02Z</time>
      </trkpt>
      <trkpt lat="42.2889" lon="3.28122">
        <ele>6.4</ele>
        <time>2024-11-10T12:26:03Z</time>
      </trkpt>
      <trkpt lat="42.2889" lon="3.28122">
        <ele>6.4</ele>
        <time>2024-11-10T12:26:04Z</time>
      </trkpt>
      <trkpt lat="42.2889" lon="3.28122">
        <ele>6.4</ele>
        <time>2024-11-10T12:26:05Z</time>
      </trkpt>
      <trkpt lat="42.2889" lon="3.28122">
        <ele>6.4</ele>
        <time>2024-11-10T12:26:06Z</time>
      </trkpt>
      <trkpt lat="42.2889" lon="3.28122">
        <ele>6.4</ele>
        <time>2024-11-10T12:26:07Z</time>
      </trkpt>
      <trkpt lat="42.2889" lon="3.28122">
        <ele>6.4</ele>
        <time>2024-11-10T12:26:08Z</time>
      </trkpt>
      <trkpt lat="42.2889" lon="3.28122">
        <ele>6.4</ele>
        <time>2024-11-10T12:26:09Z</time>
      </trkpt>
      <trkpt lat="42.2889" lon="3.28122">
        <ele>6.4</ele>
        <time>2024-11-10T12:26:10Z</time>
      </trkpt>
      <trkpt lat="42.2889" lon="3.28122">
        <ele>6.4</ele>
        <time>2024-11-10T12:26:11Z</time>
      </trkpt>
      <trkpt lat="42.2889" lon="3.28122">
        <ele>6.4</ele>
        <time>2024-11-10T12:26:12Z</time>
      </trkpt>
      <trkpt lat="42.28892" lon="3.28126">
        <ele>6.4</ele>
        <time>2024-11-10T12:26:13Z</time>
      </trkpt>
      <trkpt lat="42.28892" lon="3.28127">
        <ele>6.4</ele>
        <time>2024-11-10T12:26:14Z</time>
      </trkpt>
      <trkpt lat="42.28892" lon="3.28127">
        <ele>6.4</ele>
        <time>2024-11-10T12:26:15Z</time>
      </trkpt>
      <trkpt lat="42.28892" lon="3.28127">
        <ele>6.4</ele>
        <time>2024-11-10T12:26:16Z</time>
      </trkpt>
      <trkpt lat="42.28891" lon="3.28125">
        <ele>6.4</ele>
        <time>2024-11-10T12:26:17Z</time>
      </trkpt>
      <trkpt lat="42.28892" lon="3.28125">
        <ele>6.4</ele>
        <time>2024-11-10T12:26:18Z</time>
      </trkpt>
      <trkpt lat="42.28892" lon="3.28125">
        <ele>6.4</ele>
        <time>2024-11-10T12:26:19Z</time>
      </trkpt>
      <trkpt lat="42.28892" lon="3.28125">
        <ele>6.4</ele>
        <time>2024-11-10T12:26:20Z</time>
      </trkpt>
      <trkpt lat="42.28892" lon="3.28125">
        <ele>6.4</ele>
        <time>2024-11-10T12:26:21Z</time>
      </trkpt>
      <trkpt lat="42.28892" lon="3.28125">
        <ele>6.4</ele>
        <time>2024-11-10T12:26:22Z</time>
      </trkpt>
      <trkpt lat="42.28891" lon="3.28123">
        <ele>6.4</ele>
        <time>2024-11-10T12:26:23Z</time>
      </trkpt>
      <trkpt lat="42.2889" lon="3.28122">
        <ele>6.4</ele>
        <time>2024-11-10T12:26:24Z</time>
      </trkpt>
      <trkpt lat="42.2889" lon="3.28122">
        <ele>6.4</ele>
        <time>2024-11-10T12:26:25Z</time>
      </trkpt>
      <trkpt lat="42.2889" lon="3.28122">
        <ele>6.4</ele>
        <time>2024-11-10T12:26:26Z</time>
      </trkpt>
      <trkpt lat="42.28892" lon="3.28124">
        <ele>6.4</ele>
        <time>2024-11-10T12:26:27Z</time>
      </trkpt>
      <trkpt lat="42.28892" lon="3.28125">
        <ele>6.4</ele>
        <time>2024-11-10T12:26:28Z</time>
      </trkpt>
      <trkpt lat="42.28892" lon="3.28125">
        <ele>6.4</ele>
        <time>2024-11-10T12:26:29Z</time>
      </trkpt>
      <trkpt lat="42.28892" lon="3.28125">
        <ele>6.4</ele>
        <time>2024-11-10T12:26:30Z</time>
      </trkpt>
      <trkpt lat="42.28892" lon="3.28125">
        <ele>6.4</ele>
        <time>2024-11-10T12:26:31Z</time>
      </trkpt>
      <trkpt lat="42.28891" lon="3.28122">
        <ele>6.4</ele>
        <time>2024-11-10T12:26:32Z</time>
      </trkpt>
      <trkpt lat="42.2889" lon="3.28121">
        <ele>6.4</ele>
        <time>2024-11-10T12:26:33Z</time>
      </trkpt>
      <trkpt lat="42.2889" lon="3.28121">
        <ele>6.4</ele>
        <time>2024-11-10T12:26:34Z</time>
      </trkpt>
      <trkpt lat="42.2889" lon="3.28121">
        <ele>6.4</ele>
        <time>2024-11-10T12:26:35Z</time>
      </trkpt>
      <trkpt lat="42.2889" lon="3.28121">
        <ele>6.4</ele>
        <time>2024-11-10T12:26:36Z</time>
      </trkpt>
      <trkpt lat="42.2889" lon="3.28122">
        <ele>6.4</ele>
        <time>2024-11-10T12:26:37Z</time>
      </trkpt>
      <trkpt lat="42.2889" lon="3.28122">
        <ele>6.4</ele>
        <time>2024-11-10T12:26:38Z</time>
      </trkpt>
      <trkpt lat="42.2889" lon="3.28122">
        <ele>6.4</ele>
        <time>2024-11-10T12:26:39Z</time>
      </trkpt>
      <trkpt lat="42.2889" lon="3.28122">
        <ele>6.4</ele>
        <time>2024-11-10T12:26:40Z</time>
      </trkpt>
      <trkpt lat="42.2889" lon="3.28122">
        <ele>6.4</ele>
        <time>2024-11-10T12:26:41Z</time>
      </trkpt>
      <trkpt lat="42.2889" lon="3.28122">
        <ele>6.4</ele>
        <time>2024-11-10T12:26:42Z</time>
      </trkpt>
      <trkpt lat="42.2889" lon="3.28122">
        <ele>6.4</ele>
        <time>2024-11-10T12:26:43Z</time>
      </trkpt>
      <trkpt lat="42.2889" lon="3.28122">
        <ele>6.4</ele>
        <time>2024-11-10T12:26:44Z</time>
      </trkpt>
      <trkpt lat="42.2889" lon="3.28122">
        <ele>6.4</ele>
        <time>2024-11-10T12:26:45Z</time>
      </trkpt>
      <trkpt lat="42.2889" lon="3.28122">
        <ele>6.4</ele>
        <time>2024-11-10T12:26:46Z</time>
      </trkpt>
      <trkpt lat="42.28891" lon="3.28122">
        <ele>6.4</ele>
        <time>2024-11-10T12:26:47Z</time>
      </trkpt>
      <trkpt lat="42.28891" lon="3.28122">
        <ele>6.4</ele>
        <time>2024-11-10T12:26:48Z</time>
      </trkpt>
      <trkpt lat="42.28891" lon="3.28122">
        <ele>6.4</ele>
        <time>2024-11-10T12:26:49Z</time>
      </trkpt>
      <trkpt lat="42.28891" lon="3.28122">
        <ele>6.4</ele>
        <time>2024-11-10T12:26:50Z</time>
      </trkpt>
      <trkpt lat="42.28891" lon="3.28122">
        <ele>6.4</ele>
        <time>2024-11-10T12:26:51Z</time>
      </trkpt>
      <trkpt lat="42.2889" lon="3.28122">
        <ele>6.4</ele>
        <time>2024-11-10T12:26:52Z</time>
      </trkpt>
      <trkpt lat="42.2889" lon="3.28123">
        <ele>6.4</ele>
        <time>2024-11-10T12:26:53Z</time>
      </trkpt>
      <trkpt lat="42.2889" lon="3.28123">
        <ele>6.4</ele>
        <time>2024-11-10T12:26:54Z</time>
      </trkpt>
      <trkpt lat="42.2889" lon="3.28123">
        <ele>6.4</ele>
        <time>2024-11-10T12:26:55Z</time>
      </trkpt>
      <trkpt lat="42.2889" lon="3.28123">
        <ele>6.4</ele>
        <time>2024-11-10T12:26:56Z</time>
      </trkpt>
      <trkpt lat="42.2889" lon="3.28122">
        <ele>6.4</ele>
        <time>2024-11-10T12:26:57Z</time>
      </trkpt>
      <trkpt lat="42.2889" lon="3.28122">
        <ele>6.4</ele>
        <time>2024-11-10T12:26:58Z</time>
      </trkpt>
      <trkpt lat="42.2889" lon="3.28122">
        <ele>6.4</ele>
        <time>2024-11-10T12:26:59Z</time>
      </trkpt>
      <trkpt lat="42.2889" lon="3.28122">
        <ele>6.4</ele>
        <time>2024-11-10T12:27:00Z</time>
      </trkpt>
      <trkpt lat="42.2889" lon="3.28122">
        <ele>6.4</ele>
        <time>2024-11-10T12:27:01Z</time>
      </trkpt>
      <trkpt lat="42.2889" lon="3.28122">
        <ele>6.4</ele>
        <time>2024-11-10T12:27:02Z</time>
      </trkpt>
      <trkpt lat="42.2889" lon="3.28122">
        <ele>6.4</ele>
        <time>2024-11-10T12:27:03Z</time>
      </trkpt>
      <trkpt lat="42.2889" lon="3.28122">
        <ele>6.4</ele>
        <time>2024-11-10T12:27:04Z</time>
      </trkpt>
      <trkpt lat="42.2889" lon="3.28122">
        <ele>6.4</ele>
        <time>2024-11-10T12:27:05Z</time>
      </trkpt>
      <trkpt lat="42.2889" lon="3.28122">
        <ele>6.4</ele>
        <time>2024-11-10T12:27:06Z</time>
      </trkpt>
      <trkpt lat="42.2889" lon="3.28122">
        <ele>6.4</ele>
        <time>2024-11-10T12:27:07Z</time>
      </trkpt>
      <trkpt lat="42.2889" lon="3.28122">
        <ele>6.4</ele>
        <time>2024-11-10T12:27:08Z</time>
      </trkpt>
      <trkpt lat="42.2889" lon="3.28122">
        <ele>6.4</ele>
        <time>2024-11-10T12:27:09Z</time>
      </trkpt>
      <trkpt lat="42.2889" lon="3.28122">
        <ele>6.4</ele>
        <time>2024-11-10T12:27:10Z</time>
      </trkpt>
      <trkpt lat="42.2889" lon="3.28122">
        <ele>6.4</ele>
        <time>2024-11-10T12:27:11Z</time>
      </trkpt>
      <trkpt lat="42.28892" lon="3.28124">
        <ele>6.5</ele>
        <time>2024-11-10T12:27:12Z</time>
      </trkpt>
      <trkpt lat="42.28892" lon="3.28125">
        <ele>6.5</ele>
        <time>2024-11-10T12:27:13Z</time>
      </trkpt>
      <trkpt lat="42.28892" lon="3.28125">
        <ele>6.5</ele>
        <time>2024-11-10T12:27:14Z</time>
      </trkpt>
      <trkpt lat="42.28892" lon="3.28125">
        <ele>6.5</ele>
        <time>2024-11-10T12:27:15Z</time>
      </trkpt>
      <trkpt lat="42.28892" lon="3.28125">
        <ele>6.5</ele>
        <time>2024-11-10T12:27:16Z</time>
      </trkpt>
      <trkpt lat="42.28891" lon="3.28122">
        <ele>6.5</ele>
        <time>2024-11-10T12:27:17Z</time>
      </trkpt>
      <trkpt lat="42.2889" lon="3.28121">
        <ele>6.5</ele>
        <time>2024-11-10T12:27:18Z</time>
      </trkpt>
      <trkpt lat="42.2889" lon="3.28121">
        <ele>6.5</ele>
        <time>2024-11-10T12:27:19Z</time>
      </trkpt>
      <trkpt lat="42.2889" lon="3.28121">
        <ele>6.5</ele>
        <time>2024-11-10T12:27:20Z</time>
      </trkpt>
      <trkpt lat="42.2889" lon="3.28121">
        <ele>6.5</ele>
        <time>2024-11-10T12:27:21Z</time>
      </trkpt>
      <trkpt lat="42.2889" lon="3.28121">
        <ele>6.5</ele>
        <time>2024-11-10T12:27:22Z</time>
      </trkpt>
      <trkpt lat="42.2889" lon="3.28122">
        <ele>6.5</ele>
        <time>2024-11-10T12:27:23Z</time>
      </trkpt>
      <trkpt lat="42.2889" lon="3.28122">
        <ele>6.5</ele>
        <time>2024-11-10T12:27:24Z</time>
      </trkpt>
      <trkpt lat="42.2889" lon="3.28122">
        <ele>6.5</ele>
        <time>2024-11-10T12:27:25Z</time>
      </trkpt>
      <trkpt lat="42.2889" lon="3.28122">
        <ele>6.5</ele>
        <time>2024-11-10T12:27:26Z</time>
      </trkpt>
      <trkpt lat="42.2889" lon="3.28122">
        <ele>6.5</ele>
        <time>2024-11-10T12:27:27Z</time>
      </trkpt>
      <trkpt lat="42.2889" lon="3.28122">
        <ele>6.5</ele>
        <time>2024-11-10T12:27:28Z</time>
      </trkpt>
      <trkpt lat="42.2889" lon="3.28123">
        <ele>6.5</ele>
        <time>2024-11-10T12:27:29Z</time>
      </trkpt>
      <trkpt lat="42.2889" lon="3.28123">
        <ele>6.5</ele>
        <time>2024-11-10T12:27:30Z</time>
      </trkpt>
      <trkpt lat="42.2889" lon="3.28122">
        <ele>6.5</ele>
        <time>2024-11-10T12:27:31Z</time>
      </trkpt>
      <trkpt lat="42.2889" lon="3.28122">
        <ele>6.5</ele>
        <time>2024-11-10T12:27:32Z</time>
      </trkpt>
      <trkpt lat="42.2889" lon="3.28122">
        <ele>6.5</ele>
        <time>2024-11-10T12:27:33Z</time>
      </trkpt>
      <trkpt lat="42.2889" lon="3.28122">
        <ele>6.5</ele>
        <time>2024-11-10T12:27:34Z</time>
      </trkpt>
      <trkpt lat="42.2889" lon="3.28122">
        <ele>6.5</ele>
        <time>2024-11-10T12:27:35Z</time>
      </trkpt>
      <trkpt lat="42.2889" lon="3.28122">
        <ele>6.5</ele>
        <time>2024-11-10T12:27:36Z</time>
      </trkpt>
      <trkpt lat="42.2889" lon="3.28122">
        <ele>6.5</ele>
        <time>2024-11-10T12:27:37Z</time>
      </trkpt>
      <trkpt lat="42.2889" lon="3.28122">
        <ele>6.5</ele>
        <time>2024-11-10T12:27:38Z</time>
      </trkpt>
      <trkpt lat="42.2889" lon="3.28122">
        <ele>6.5</ele>
        <time>2024-11-10T12:27:39Z</time>
      </trkpt>
      <trkpt lat="42.2889" lon="3.28122">
        <ele>6.5</ele>
        <time>2024-11-10T12:27:40Z</time>
      </trkpt>
      <trkpt lat="42.2889" lon="3.28122">
        <ele>6.5</ele>
        <time>2024-11-10T12:27:41Z</time>
      </trkpt>
      <trkpt lat="42.2889" lon="3.28123">
        <ele>6.5</ele>
        <time>2024-11-10T12:27:42Z</time>
      </trkpt>
      <trkpt lat="42.2889" lon="3.28123">
        <ele>6.5</ele>
        <time>2024-11-10T12:27:43Z</time>
      </trkpt>
      <trkpt lat="42.2889" lon="3.28123">
        <ele>6.5</ele>
        <time>2024-11-10T12:27:44Z</time>
      </trkpt>
      <trkpt lat="42.2889" lon="3.28123">
        <ele>6.5</ele>
        <time>2024-11-10T12:27:45Z</time>
      </trkpt>
      <trkpt lat="42.2889" lon="3.28123">
        <ele>6.5</ele>
        <time>2024-11-10T12:27:46Z</time>
      </trkpt>
      <trkpt lat="42.2889" lon="3.28122">
        <ele>6.5</ele>
        <time>2024-11-10T12:27:47Z</time>
      </trkpt>
      <trkpt lat="42.2889" lon="3.28122">
        <ele>6.5</ele>
        <time>2024-11-10T12:27:48Z</time>
      </trkpt>
      <trkpt lat="42.2889" lon="3.28122">
        <ele>6.5</ele>
        <time>2024-11-10T12:27:49Z</time>
      </trkpt>
      <trkpt lat="42.2889" lon="3.28122">
        <ele>6.5</ele>
        <time>2024-11-10T12:27:50Z</time>
      </trkpt>
      <trkpt lat="42.2889" lon="3.28122">
        <ele>6.5</ele>
        <time>2024-11-10T12:27:51Z</time>
      </trkpt>
      <trkpt lat="42.2889" lon="3.28122">
        <ele>6.5</ele>
        <time>2024-11-10T12:27:52Z</time>
      </trkpt>
      <trkpt lat="42.2889" lon="3.28122">
        <ele>6.5</ele>
        <time>2024-11-10T12:27:53Z</time>
      </trkpt>
      <trkpt lat="42.2889" lon="3.28122">
        <ele>6.5</ele>
        <time>2024-11-10T12:27:54Z</time>
      </trkpt>
      <trkpt lat="42.2889" lon="3.28122">
        <ele>6.5</ele>
        <time>2024-11-10T12:27:55Z</time>
      </trkpt>
      <trkpt lat="42.2889" lon="3.28122">
        <ele>6.5</ele>
        <time>2024-11-10T12:27:56Z</time>
      </trkpt>
      <trkpt lat="42.2889" lon="3.28122">
        <ele>6.5</ele>
        <time>2024-11-10T12:27:57Z</time>
      </trkpt>
      <trkpt lat="42.2889" lon="3.28123">
        <ele>6.5</ele>
        <time>2024-11-10T12:27:58Z</time>
      </trkpt>
      <trkpt lat="42.2889" lon="3.28123">
        <ele>6.5</ele>
        <time>2024-11-10T12:27:59Z</time>
      </trkpt>
      <trkpt lat="42.2889" lon="3.28123">
        <ele>6.5</ele>
        <time>2024-11-10T12:28:00Z</time>
      </trkpt>
      <trkpt lat="42.2889" lon="3.28123">
        <ele>6.5</ele>
        <time>2024-11-10T12:28:01Z</time>
      </trkpt>
      <trkpt lat="42.2889" lon="3.28121">
        <ele>6.5</ele>
        <time>2024-11-10T12:28:02Z</time>
      </trkpt>
      <trkpt lat="42.2889" lon="3.28121">
        <ele>6.5</ele>
        <time>2024-11-10T12:28:03Z</time>
      </trkpt>
      <trkpt lat="42.2889" lon="3.28121">
        <ele>6.5</ele>
        <time>2024-11-10T12:28:04Z</time>
      </trkpt>
      <trkpt lat="42.2889" lon="3.28121">
        <ele>6.5</ele>
        <time>2024-11-10T12:28:05Z</time>
      </trkpt>
      <trkpt lat="42.2889" lon="3.28121">
        <ele>6.5</ele>
        <time>2024-11-10T12:28:06Z</time>
      </trkpt>
      <trkpt lat="42.2889" lon="3.28122">
        <ele>6.5</ele>
        <time>2024-11-10T12:28:07Z</time>
      </trkpt>
      <trkpt lat="42.2889" lon="3.28122">
        <ele>6.5</ele>
        <time>2024-11-10T12:28:08Z</time>
      </trkpt>
      <trkpt lat="42.2889" lon="3.28122">
        <ele>6.5</ele>
        <time>2024-11-10T12:28:09Z</time>
      </trkpt>
      <trkpt lat="42.2889" lon="3.28122">
        <ele>6.5</ele>
        <time>2024-11-10T12:28:10Z</time>
      </trkpt>
      <trkpt lat="42.2889" lon="3.28122">
        <ele>6.5</ele>
        <time>2024-11-10T12:28:11Z</time>
      </trkpt>
      <trkpt lat="42.2889" lon="3.28122">
        <ele>6.5</ele>
        <time>2024-11-10T12:28:12Z</time>
      </trkpt>
      <trkpt lat="42.2889" lon="3.28122">
        <ele>6.5</ele>
        <time>2024-11-10T12:28:13Z</time>
      </trkpt>
      <trkpt lat="42.28891" lon="3.28122">
        <ele>6.5</ele>
        <time>2024-11-10T12:28:14Z</time>
      </trkpt>
      <trkpt lat="42.28891" lon="3.28122">
        <ele>6.5</ele>
        <time>2024-11-10T12:28:15Z</time>
      </trkpt>
      <trkpt lat="42.28891" lon="3.28122">
        <ele>6.5</ele>
        <time>2024-11-10T12:28:16Z</time>
      </trkpt>
      <trkpt lat="42.28891" lon="3.28122">
        <ele>6.5</ele>
        <time>2024-11-10T12:28:17Z</time>
      </trkpt>
      <trkpt lat="42.2889" lon="3.28122">
        <ele>6.5</ele>
        <time>2024-11-10T12:28:18Z</time>
      </trkpt>
      <trkpt lat="42.2889" lon="3.28122">
        <ele>6.5</ele>
        <time>2024-11-10T12:28:19Z</time>
      </trkpt>
      <trkpt lat="42.2889" lon="3.28122">
        <ele>6.5</ele>
        <time>2024-11-10T12:28:20Z</time>
      </trkpt>
      <trkpt lat="42.2889" lon="3.28122">
        <ele>6.5</ele>
        <time>2024-11-10T12:28:21Z</time>
      </trkpt>
      <trkpt lat="42.2889" lon="3.28122">
        <ele>6.5</ele>
        <time>2024-11-10T12:28:22Z</time>
      </trkpt>
      <trkpt lat="42.2889" lon="3.28122">
        <ele>6.5</ele>
        <time>2024-11-10T12:28:23Z</time>
      </trkpt>
      <trkpt lat="42.2889" lon="3.28122">
        <ele>6.5</ele>
        <time>2024-11-10T12:28:24Z</time>
      </trkpt>
      <trkpt lat="42.2889" lon="3.28122">
        <ele>6.5</ele>
        <time>2024-11-10T12:28:25Z</time>
      </trkpt>
      <trkpt lat="42.2889" lon="3.28122">
        <ele>6.5</ele>
        <time>2024-11-10T12:28:26Z</time>
      </trkpt>
      <trkpt lat="42.2889" lon="3.28122">
        <ele>6.5</ele>
        <time>2024-11-10T12:28:27Z</time>
      </trkpt>
      <trkpt lat="42.2889" lon="3.28122">
        <ele>6.5</ele>
        <time>2024-11-10T12:28:28Z</time>
      </trkpt>
      <trkpt lat="42.2889" lon="3.28122">
        <ele>6.5</ele>
        <time>2024-11-10T12:28:29Z</time>
      </trkpt>
      <trkpt lat="42.2889" lon="3.28122">
        <ele>6.5</ele>
        <time>2024-11-10T12:28:30Z</time>
      </trkpt>
      <trkpt lat="42.2889" lon="3.28122">
        <ele>6.5</ele>
        <time>2024-11-10T12:28:31Z</time>
      </trkpt>
      <trkpt lat="42.2889" lon="3.28122">
        <ele>6.5</ele>
        <time>2024-11-10T12:28:32Z</time>
      </trkpt>
      <trkpt lat="42.2889" lon="3.28122">
        <ele>6.5</ele>
        <time>2024-11-10T12:28:33Z</time>
      </trkpt>
      <trkpt lat="42.2889" lon="3.28122">
        <ele>6.5</ele>
        <time>2024-11-10T12:28:34Z</time>
      </trkpt>
      <trkpt lat="42.2889" lon="3.28122">
        <ele>6.5</ele>
        <time>2024-11-10T12:28:35Z</time>
      </trkpt>
      <trkpt lat="42.2889" lon="3.28122">
        <ele>6.5</ele>
        <time>2024-11-10T12:28:36Z</time>
      </trkpt>
      <trkpt lat="42.2889" lon="3.28122">
        <ele>6.5</ele>
        <time>2024-11-10T12:28:37Z</time>
      </trkpt>
      <trkpt lat="42.2889" lon="3.28122">
        <ele>6.5</ele>
        <time>2024-11-10T12:28:38Z</time>
      </trkpt>
      <trkpt lat="42.2889" lon="3.28122">
        <ele>6.5</ele>
        <time>2024-11-10T12:28:39Z</time>
      </trkpt>
      <trkpt lat="42.2889" lon="3.28122">
        <ele>6.5</ele>
        <time>2024-11-10T12:28:40Z</time>
      </trkpt>
      <trkpt lat="42.2889" lon="3.28122">
        <ele>6.5</ele>
        <time>2024-11-10T12:28:41Z</time>
      </trkpt>
      <trkpt lat="42.2889" lon="3.28122">
        <ele>6.5</ele>
        <time>2024-11-10T12:28:42Z</time>
      </trkpt>
      <trkpt lat="42.2889" lon="3.28121">
        <ele>6.5</ele>
        <time>2024-11-10T12:28:43Z</time>
      </trkpt>
      <trkpt lat="42.2889" lon="3.28121">
        <ele>6.5</ele>
        <time>2024-11-10T12:28:44Z</time>
      </trkpt>
      <trkpt lat="42.2889" lon="3.28121">
        <ele>6.5</ele>
        <time>2024-11-10T12:28:45Z</time>
      </trkpt>
      <trkpt lat="42.2889" lon="3.28121">
        <ele>6.5</ele>
        <time>2024-11-10T12:28:46Z</time>
      </trkpt>
      <trkpt lat="42.2889" lon="3.28121">
        <ele>6.5</ele>
        <time>2024-11-10T12:28:47Z</time>
      </trkpt>
      <trkpt lat="42.2889" lon="3.28122">
        <ele>6.5</ele>
        <time>2024-11-10T12:28:48Z</time>
      </trkpt>
      <trkpt lat="42.2889" lon="3.28122">
        <ele>6.5</ele>
        <time>2024-11-10T12:28:49Z</time>
      </trkpt>
      <trkpt lat="42.2889" lon="3.28122">
        <ele>6.5</ele>
        <time>2024-11-10T12:28:50Z</time>
      </trkpt>
      <trkpt lat="42.2889" lon="3.28122">
        <ele>6.5</ele>
        <time>2024-11-10T12:28:51Z</time>
      </trkpt>
      <trkpt lat="42.2889" lon="3.28122">
        <ele>6.5</ele>
        <time>2024-11-10T12:28:52Z</time>
      </trkpt>
      <trkpt lat="42.2889" lon="3.28122">
        <ele>6.5</ele>
        <time>2024-11-10T12:28:53Z</time>
      </trkpt>
      <trkpt lat="42.2889" lon="3.28122">
        <ele>6.5</ele>
        <time>2024-11-10T12:28:54Z</time>
      </trkpt>
      <trkpt lat="42.2889" lon="3.28122">
        <ele>6.5</ele>
        <time>2024-11-10T12:28:55Z</time>
      </trkpt>
      <trkpt lat="42.2889" lon="3.28122">
        <ele>6.5</ele>
        <time>2024-11-10T12:28:56Z</time>
      </trkpt>
      <trkpt lat="42.2889" lon="3.28122">
        <ele>6.5</ele>
        <time>2024-11-10T12:28:57Z</time>
      </trkpt>
      <trkpt lat="42.2889" lon="3.28122">
        <ele>6.5</ele>
        <time>2024-11-10T12:28:58Z</time>
      </trkpt>
      <trkpt lat="42.2889" lon="3.28123">
        <ele>6.5</ele>
        <time>2024-11-10T12:28:59Z</time>
      </trkpt>
      <trkpt lat="42.2889" lon="3.28123">
        <ele>6.5</ele>
        <time>2024-11-10T12:29:00Z</time>
      </trkpt>
      <trkpt lat="42.2889" lon="3.28123">
        <ele>6.5</ele>
        <time>2024-11-10T12:29:01Z</time>
      </trkpt>
      <trkpt lat="42.2889" lon="3.28123">
        <ele>6.5</ele>
        <time>2024-11-10T12:29:02Z</time>
      </trkpt>
      <trkpt lat="42.2889" lon="3.28123">
        <ele>6.5</ele>
        <time>2024-11-10T12:29:03Z</time>
      </trkpt>
      <trkpt lat="42.2889" lon="3.28123">
        <ele>6.5</ele>
        <time>2024-11-10T12:29:04Z</time>
      </trkpt>
      <trkpt lat="42.2889" lon="3.28123">
        <ele>6.5</ele>
        <time>2024-11-10T12:29:05Z</time>
      </trkpt>
      <trkpt lat="42.2889" lon="3.28123">
        <ele>6.5</ele>
        <time>2024-11-10T12:29:06Z</time>
      </trkpt>
      <trkpt lat="42.2889" lon="3.28123">
        <ele>6.5</ele>
        <time>2024-11-10T12:29:07Z</time>
      </trkpt>
      <trkpt lat="42.2889" lon="3.28122">
        <ele>6.5</ele>
        <time>2024-11-10T12:29:08Z</time>
      </trkpt>
      <trkpt lat="42.2889" lon="3.28122">
        <ele>6.5</ele>
        <time>2024-11-10T12:29:09Z</time>
      </trkpt>
      <trkpt lat="42.2889" lon="3.28122">
        <ele>6.5</ele>
        <time>2024-11-10T12:29:10Z</time>
      </trkpt>
      <trkpt lat="42.2889" lon="3.28122">
        <ele>6.5</ele>
        <time>2024-11-10T12:29:11Z</time>
      </trkpt>
      <trkpt lat="42.2889" lon="3.28122">
        <ele>6.5</ele>
        <time>2024-11-10T12:29:12Z</time>
      </trkpt>
      <trkpt lat="42.2889" lon="3.28122">
        <ele>6.5</ele>
        <time>2024-11-10T12:29:13Z</time>
      </trkpt>
      <trkpt lat="42.2889" lon="3.28122">
        <ele>6.5</ele>
        <time>2024-11-10T12:29:14Z</time>
      </trkpt>
      <trkpt lat="42.2889" lon="3.28122">
        <ele>6.5</ele>
        <time>2024-11-10T12:29:15Z</time>
      </trkpt>
      <trkpt lat="42.2889" lon="3.28122">
        <ele>6.5</ele>
        <time>2024-11-10T12:29:16Z</time>
      </trkpt>
      <trkpt lat="42.2889" lon="3.28122">
        <ele>6.5</ele>
        <time>2024-11-10T12:29:17Z</time>
      </trkpt>
      <trkpt lat="42.2889" lon="3.28122">
        <ele>6.5</ele>
        <time>2024-11-10T12:29:18Z</time>
      </trkpt>
      <trkpt lat="42.2889" lon="3.28122">
        <ele>6.5</ele>
        <time>2024-11-10T12:29:19Z</time>
      </trkpt>
      <trkpt lat="42.2889" lon="3.28122">
        <ele>6.5</ele>
        <time>2024-11-10T12:29:20Z</time>
      </trkpt>
      <trkpt lat="42.2889" lon="3.28122">
        <ele>6.5</ele>
        <time>2024-11-10T12:29:21Z</time>
      </trkpt>
      <trkpt lat="42.2889" lon="3.28122">
        <ele>6.5</ele>
        <time>2024-11-10T12:29:22Z</time>
      </trkpt>
      <trkpt lat="42.2889" lon="3.28122">
        <ele>6.5</ele>
        <time>2024-11-10T12:29:23Z</time>
      </trkpt>
      <trkpt lat="42.2889" lon="3.28122">
        <ele>6.5</ele>
        <time>2024-11-10T12:29:24Z</time>
      </trkpt>
      <trkpt lat="42.2889" lon="3.28122">
        <ele>6.5</ele>
        <time>2024-11-10T12:29:25Z</time>
      </trkpt>
      <trkpt lat="42.2889" lon="3.28122">
        <ele>6.5</ele>
        <time>2024-11-10T12:29:26Z</time>
      </trkpt>
      <trkpt lat="42.2889" lon="3.28122">
        <ele>6.5</ele>
        <time>2024-11-10T12:29:27Z</time>
      </trkpt>
      <trkpt lat="42.2889" lon="3.28122">
        <ele>6.5</ele>
        <time>2024-11-10T12:29:28Z</time>
      </trkpt>
      <trkpt lat="42.2889" lon="3.28122">
        <ele>6.5</ele>
        <time>2024-11-10T12:29:29Z</time>
      </trkpt>
      <trkpt lat="42.2889" lon="3.28122">
        <ele>6.5</ele>
        <time>2024-11-10T12:29:30Z</time>
      </trkpt>
      <trkpt lat="42.2889" lon="3.28122">
        <ele>6.5</ele>
        <time>2024-11-10T12:29:31Z</time>
      </trkpt>
      <trkpt lat="42.2889" lon="3.28122">
        <ele>6.5</ele>
        <time>2024-11-10T12:29:32Z</time>
      </trkpt>
      <trkpt lat="42.2889" lon="3.28122">
        <ele>6.5</ele>
        <time>2024-11-10T12:29:33Z</time>
      </trkpt>
      <trkpt lat="42.2889" lon="3.28122">
        <ele>6.5</ele>
        <time>2024-11-10T12:29:34Z</time>
      </trkpt>
      <trkpt lat="42.2889" lon="3.28122">
        <ele>6.5</ele>
        <time>2024-11-10T12:29:35Z</time>
      </trkpt>
      <trkpt lat="42.2889" lon="3.28122">
        <ele>6.5</ele>
        <time>2024-11-10T12:29:36Z</time>
      </trkpt>
      <trkpt lat="42.2889" lon="3.28122">
        <ele>6.5</ele>
        <time>2024-11-10T12:29:37Z</time>
      </trkpt>
      <trkpt lat="42.2889" lon="3.28122">
        <ele>6.5</ele>
        <time>2024-11-10T12:29:38Z</time>
      </trkpt>
      <trkpt lat="42.2889" lon="3.28123">
        <ele>6.5</ele>
        <time>2024-11-10T12:29:39Z</time>
      </trkpt>
      <trkpt lat="42.2889" lon="3.28123">
        <ele>6.5</ele>
        <time>2024-11-10T12:29:40Z</time>
      </trkpt>
      <trkpt lat="42.2889" lon="3.28123">
        <ele>6.5</ele>
        <time>2024-11-10T12:29:41Z</time>
      </trkpt>
      <trkpt lat="42.2889" lon="3.28123">
        <ele>6.5</ele>
        <time>2024-11-10T12:29:42Z</time>
      </trkpt>
      <trkpt lat="42.2889" lon="3.28122">
        <ele>6.5</ele>
        <time>2024-11-10T12:29:43Z</time>
      </trkpt>
      <trkpt lat="42.2889" lon="3.28122">
        <ele>6.5</ele>
        <time>2024-11-10T12:29:44Z</time>
      </trkpt>
      <trkpt lat="42.2889" lon="3.28122">
        <ele>6.5</ele>
        <time>2024-11-10T12:29:45Z</time>
      </trkpt>
      <trkpt lat="42.2889" lon="3.28122">
        <ele>6.5</ele>
        <time>2024-11-10T12:29:46Z</time>
      </trkpt>
      <trkpt lat="42.2889" lon="3.28122">
        <ele>6.5</ele>
        <time>2024-11-10T12:29:47Z</time>
      </trkpt>
      <trkpt lat="42.2889" lon="3.28121">
        <ele>6.5</ele>
        <time>2024-11-10T12:29:48Z</time>
      </trkpt>
      <trkpt lat="42.2889" lon="3.28121">
        <ele>6.5</ele>
        <time>2024-11-10T12:29:49Z</time>
      </trkpt>
      <trkpt lat="42.2889" lon="3.28121">
        <ele>6.5</ele>
        <time>2024-11-10T12:29:50Z</time>
      </trkpt>
      <trkpt lat="42.2889" lon="3.28121">
        <ele>6.5</ele>
        <time>2024-11-10T12:29:51Z</time>
      </trkpt>
      <trkpt lat="42.2889" lon="3.28121">
        <ele>6.5</ele>
        <time>2024-11-10T12:29:52Z</time>
      </trkpt>
      <trkpt lat="42.28892" lon="3.28124">
        <ele>6.5</ele>
        <time>2024-11-10T12:29:53Z</time>
      </trkpt>
      <trkpt lat="42.28892" lon="3.28125">
        <ele>6.5</ele>
        <time>2024-11-10T12:29:54Z</time>
      </trkpt>
      <trkpt lat="42.28892" lon="3.28125">
        <ele>6.5</ele>
        <time>2024-11-10T12:29:55Z</time>
      </trkpt>
      <trkpt lat="42.28892" lon="3.28125">
        <ele>6.5</ele>
        <time>2024-11-10T12:29:56Z</time>
      </trkpt>
      <trkpt lat="42.28892" lon="3.28125">
        <ele>6.5</ele>
        <time>2024-11-10T12:29:57Z</time>
      </trkpt>
      <trkpt lat="42.28891" lon="3.28123">
        <ele>6.5</ele>
        <time>2024-11-10T12:29:58Z</time>
      </trkpt>
      <trkpt lat="42.2889" lon="3.28122">
        <ele>6.5</ele>
        <time>2024-11-10T12:29:59Z</time>
      </trkpt>
      <trkpt lat="42.2889" lon="3.28122">
        <ele>6.5</ele>
        <time>2024-11-10T12:30:00Z</time>
      </trkpt>
      <trkpt lat="42.2889" lon="3.28122">
        <ele>6.5</ele>
        <time>2024-11-10T12:30:01Z</time>
      </trkpt>
      <trkpt lat="42.2889" lon="3.28122">
        <ele>6.5</ele>
        <time>2024-11-10T12:30:02Z</time>
      </trkpt>
      <trkpt lat="42.2889" lon="3.28122">
        <ele>6.5</ele>
        <time>2024-11-10T12:30:03Z</time>
      </trkpt>
      <trkpt lat="42.2889" lon="3.28122">
        <ele>6.5</ele>
        <time>2024-11-10T12:30:04Z</time>
      </trkpt>
      <trkpt lat="42.2889" lon="3.28122">
        <ele>6.5</ele>
        <time>2024-11-10T12:30:05Z</time>
      </trkpt>
      <trkpt lat="42.2889" lon="3.28122">
        <ele>6.5</ele>
        <time>2024-11-10T12:30:06Z</time>
      </trkpt>
      <trkpt lat="42.2889" lon="3.28122">
        <ele>6.5</ele>
        <time>2024-11-10T12:30:07Z</time>
      </trkpt>
      <trkpt lat="42.2889" lon="3.28122">
        <ele>6.5</ele>
        <time>2024-11-10T12:30:08Z</time>
      </trkpt>
      <trkpt lat="42.2889" lon="3.28121">
        <ele>6.5</ele>
        <time>2024-11-10T12:30:09Z</time>
      </trkpt>
      <trkpt lat="42.2889" lon="3.28121">
        <ele>6.5</ele>
        <time>2024-11-10T12:30:10Z</time>
      </trkpt>
      <trkpt lat="42.2889" lon="3.28121">
        <ele>6.5</ele>
        <time>2024-11-10T12:30:11Z</time>
      </trkpt>
      <trkpt lat="42.2889" lon="3.28121">
        <ele>6.5</ele>
        <time>2024-11-10T12:30:12Z</time>
      </trkpt>
      <trkpt lat="42.2889" lon="3.28122">
        <ele>6.5</ele>
        <time>2024-11-10T12:30:13Z</time>
      </trkpt>
      <trkpt lat="42.2889" lon="3.28122">
        <ele>6.5</ele>
        <time>2024-11-10T12:30:14Z</time>
      </trkpt>
      <trkpt lat="42.2889" lon="3.28122">
        <ele>6.5</ele>
        <time>2024-11-10T12:30:15Z</time>
      </trkpt>
      <trkpt lat="42.2889" lon="3.28122">
        <ele>6.5</ele>
        <time>2024-11-10T12:30:16Z</time>
      </trkpt>
      <trkpt lat="42.2889" lon="3.28122">
        <ele>6.5</ele>
        <time>2024-11-10T12:30:17Z</time>
      </trkpt>
      <trkpt lat="42.2889" lon="3.28121">
        <ele>6.5</ele>
        <time>2024-11-10T12:30:18Z</time>
      </trkpt>
      <trkpt lat="42.2889" lon="3.28121">
        <ele>6.5</ele>
        <time>2024-11-10T12:30:19Z</time>
      </trkpt>
      <trkpt lat="42.2889" lon="3.28121">
        <ele>6.5</ele>
        <time>2024-11-10T12:30:20Z</time>
      </trkpt>
      <trkpt lat="42.2889" lon="3.28121">
        <ele>6.5</ele>
        <time>2024-11-10T12:30:21Z</time>
      </trkpt>
      <trkpt lat="42.2889" lon="3.28121">
        <ele>6.5</ele>
        <time>2024-11-10T12:30:22Z</time>
      </trkpt>
      <trkpt lat="42.28891" lon="3.28122">
        <ele>6.5</ele>
        <time>2024-11-10T12:30:23Z</time>
      </trkpt>
      <trkpt lat="42.28891" lon="3.28122">
        <ele>6.5</ele>
        <time>2024-11-10T12:30:24Z</time>
      </trkpt>
      <trkpt lat="42.28891" lon="3.28122">
        <ele>6.5</ele>
        <time>2024-11-10T12:30:25Z</time>
      </trkpt>
      <trkpt lat="42.28891" lon="3.28122">
        <ele>6.5</ele>
        <time>2024-11-10T12:30:26Z</time>
      </trkpt>
      <trkpt lat="42.28891" lon="3.28122">
        <ele>6.5</ele>
        <time>2024-11-10T12:30:27Z</time>
      </trkpt>
      <trkpt lat="42.2889" lon="3.28122">
        <ele>6.5</ele>
        <time>2024-11-10T12:30:28Z</time>
      </trkpt>
      <trkpt lat="42.2889" lon="3.28122">
        <ele>6.5</ele>
        <time>2024-11-10T12:30:29Z</time>
      </trkpt>
      <trkpt lat="42.2889" lon="3.28121">
        <ele>6.5</ele>
        <time>2024-11-10T12:30:30Z</time>
      </trkpt>
      <trkpt lat="42.2889" lon="3.28121">
        <ele>6.5</ele>
        <time>2024-11-10T12:30:31Z</time>
      </trkpt>
      <trkpt lat="42.2889" lon="3.28122">
        <ele>6.5</ele>
        <time>2024-11-10T12:30:32Z</time>
      </trkpt>
      <trkpt lat="42.2889" lon="3.28122">
        <ele>6.5</ele>
        <time>2024-11-10T12:30:33Z</time>
      </trkpt>
      <trkpt lat="42.2889" lon="3.28122">
        <ele>6.5</ele>
        <time>2024-11-10T12:30:34Z</time>
      </trkpt>
      <trkpt lat="42.2889" lon="3.28122">
        <ele>6.5</ele>
        <time>2024-11-10T12:30:35Z</time>
      </trkpt>
      <trkpt lat="42.2889" lon="3.28122">
        <ele>6.5</ele>
        <time>2024-11-10T12:30:36Z</time>
      </trkpt>
      <trkpt lat="42.2889" lon="3.28122">
        <ele>6.5</ele>
        <time>2024-11-10T12:30:37Z</time>
      </trkpt>
      <trkpt lat="42.28892" lon="3.28124">
        <ele>6.5</ele>
        <time>2024-11-10T12:30:38Z</time>
      </trkpt>
      <trkpt lat="42.28891" lon="3.28124">
        <ele>6.5</ele>
        <time>2024-11-10T12:30:39Z</time>
      </trkpt>
      <trkpt lat="42.28892" lon="3.28125">
        <ele>6.5</ele>
        <time>2024-11-10T12:30:40Z</time>
      </trkpt>
      <trkpt lat="42.28892" lon="3.28125">
        <ele>6.5</ele>
        <time>2024-11-10T12:30:41Z</time>
      </trkpt>
      <trkpt lat="42.28891" lon="3.28123">
        <ele>6.5</ele>
        <time>2024-11-10T12:30:42Z</time>
      </trkpt>
      <trkpt lat="42.2889" lon="3.28122">
        <ele>6.5</ele>
        <time>2024-11-10T12:30:43Z</time>
      </trkpt>
      <trkpt lat="42.2889" lon="3.28121">
        <ele>6.5</ele>
        <time>2024-11-10T12:30:44Z</time>
      </trkpt>
      <trkpt lat="42.2889" lon="3.28121">
        <ele>6.5</ele>
        <time>2024-11-10T12:30:45Z</time>
      </trkpt>
      <trkpt lat="42.2889" lon="3.28122">
        <ele>6.5</ele>
        <time>2024-11-10T12:30:46Z</time>
      </trkpt>
      <trkpt lat="42.2889" lon="3.28122">
        <ele>6.5</ele>
        <time>2024-11-10T12:30:47Z</time>
      </trkpt>
      <trkpt lat="42.2889" lon="3.28122">
        <ele>6.5</ele>
        <time>2024-11-10T12:30:48Z</time>
      </trkpt>
      <trkpt lat="42.28891" lon="3.28122">
        <ele>6.5</ele>
        <time>2024-11-10T12:30:49Z</time>
      </trkpt>
      <trkpt lat="42.28891" lon="3.28122">
        <ele>6.5</ele>
        <time>2024-11-10T12:30:50Z</time>
      </trkpt>
      <trkpt lat="42.28891" lon="3.28122">
        <ele>6.5</ele>
        <time>2024-11-10T12:30:51Z</time>
      </trkpt>
      <trkpt lat="42.28891" lon="3.28122">
        <ele>6.5</ele>
        <time>2024-11-10T12:30:52Z</time>
      </trkpt>
      <trkpt lat="42.2889" lon="3.28123">
        <ele>6.5</ele>
        <time>2024-11-10T12:30:53Z</time>
      </trkpt>
      <trkpt lat="42.2889" lon="3.28123">
        <ele>6.5</ele>
        <time>2024-11-10T12:30:54Z</time>
      </trkpt>
      <trkpt lat="42.2889" lon="3.28124">
        <ele>6.5</ele>
        <time>2024-11-10T12:30:55Z</time>
      </trkpt>
      <trkpt lat="42.2889" lon="3.28123">
        <ele>6.6</ele>
        <time>2024-11-10T12:30:56Z</time>
      </trkpt>
      <trkpt lat="42.2889" lon="3.28123">
        <ele>6.6</ele>
        <time>2024-11-10T12:30:57Z</time>
      </trkpt>
      <trkpt lat="42.28892" lon="3.28124">
        <ele>6.6</ele>
        <time>2024-11-10T12:30:58Z</time>
      </trkpt>
      <trkpt lat="42.28892" lon="3.28125">
        <ele>6.6</ele>
        <time>2024-11-10T12:30:59Z</time>
      </trkpt>
      <trkpt lat="42.28892" lon="3.28125">
        <ele>6.6</ele>
        <time>2024-11-10T12:31:00Z</time>
      </trkpt>
      <trkpt lat="42.28892" lon="3.28125">
        <ele>6.6</ele>
        <time>2024-11-10T12:31:01Z</time>
      </trkpt>
      <trkpt lat="42.28892" lon="3.28125">
        <ele>6.6</ele>
        <time>2024-11-10T12:31:02Z</time>
      </trkpt>
      <trkpt lat="42.28891" lon="3.28123">
        <ele>6.6</ele>
        <time>2024-11-10T12:31:03Z</time>
      </trkpt>
      <trkpt lat="42.2889" lon="3.28123">
        <ele>6.6</ele>
        <time>2024-11-10T12:31:04Z</time>
      </trkpt>
      <trkpt lat="42.2889" lon="3.28123">
        <ele>6.6</ele>
        <time>2024-11-10T12:31:05Z</time>
      </trkpt>
      <trkpt lat="42.2889" lon="3.28123">
        <ele>6.6</ele>
        <time>2024-11-10T12:31:06Z</time>
      </trkpt>
      <trkpt lat="42.2889" lon="3.28123">
        <ele>6.6</ele>
        <time>2024-11-10T12:31:07Z</time>
      </trkpt>
      <trkpt lat="42.2889" lon="3.28122">
        <ele>6.6</ele>
        <time>2024-11-10T12:31:08Z</time>
      </trkpt>
      <trkpt lat="42.2889" lon="3.28122">
        <ele>6.6</ele>
        <time>2024-11-10T12:31:09Z</time>
      </trkpt>
      <trkpt lat="42.2889" lon="3.28122">
        <ele>6.6</ele>
        <time>2024-11-10T12:31:10Z</time>
      </trkpt>
      <trkpt lat="42.2889" lon="3.28122">
        <ele>6.6</ele>
        <time>2024-11-10T12:31:11Z</time>
      </trkpt>
      <trkpt lat="42.2889" lon="3.28122">
        <ele>6.6</ele>
        <time>2024-11-10T12:31:12Z</time>
      </trkpt>
      <trkpt lat="42.2889" lon="3.28122">
        <ele>6.6</ele>
        <time>2024-11-10T12:31:13Z</time>
      </trkpt>
      <trkpt lat="42.2889" lon="3.28122">
        <ele>6.6</ele>
        <time>2024-11-10T12:31:14Z</time>
      </trkpt>
      <trkpt lat="42.2889" lon="3.28122">
        <ele>6.6</ele>
        <time>2024-11-10T12:31:15Z</time>
      </trkpt>
      <trkpt lat="42.2889" lon="3.28122">
        <ele>6.6</ele>
        <time>2024-11-10T12:31:16Z</time>
      </trkpt>
      <trkpt lat="42.2889" lon="3.28122">
        <ele>6.6</ele>
        <time>2024-11-10T12:31:17Z</time>
      </trkpt>
      <trkpt lat="42.28891" lon="3.28122">
        <ele>6.6</ele>
        <time>2024-11-10T12:31:18Z</time>
      </trkpt>
      <trkpt lat="42.28891" lon="3.28123">
        <ele>6.6</ele>
        <time>2024-11-10T12:31:19Z</time>
      </trkpt>
      <trkpt lat="42.28891" lon="3.28123">
        <ele>6.6</ele>
        <time>2024-11-10T12:31:20Z</time>
      </trkpt>
      <trkpt lat="42.28891" lon="3.28123">
        <ele>6.6</ele>
        <time>2024-11-10T12:31:21Z</time>
      </trkpt>
      <trkpt lat="42.28891" lon="3.28123">
        <ele>6.6</ele>
        <time>2024-11-10T12:31:22Z</time>
      </trkpt>
      <trkpt lat="42.2889" lon="3.28122">
        <ele>6.6</ele>
        <time>2024-11-10T12:31:23Z</time>
      </trkpt>
      <trkpt lat="42.2889" lon="3.28122">
        <ele>6.6</ele>
        <time>2024-11-10T12:31:24Z</time>
      </trkpt>
      <trkpt lat="42.2889" lon="3.28122">
        <ele>6.6</ele>
        <time>2024-11-10T12:31:25Z</time>
      </trkpt>
      <trkpt lat="42.2889" lon="3.28122">
        <ele>6.6</ele>
        <time>2024-11-10T12:31:26Z</time>
      </trkpt>
      <trkpt lat="42.2889" lon="3.28122">
        <ele>6.6</ele>
        <time>2024-11-10T12:31:27Z</time>
      </trkpt>
      <trkpt lat="42.28889" lon="3.28124">
        <ele>6.6</ele>
        <time>2024-11-10T12:31:28Z</time>
      </trkpt>
      <trkpt lat="42.28889" lon="3.28125">
        <ele>6.6</ele>
        <time>2024-11-10T12:31:29Z</time>
      </trkpt>
      <trkpt lat="42.28889" lon="3.28125">
        <ele>6.6</ele>
        <time>2024-11-10T12:31:30Z</time>
      </trkpt>
      <trkpt lat="42.28889" lon="3.28125">
        <ele>6.6</ele>
        <time>2024-11-10T12:31:31Z</time>
      </trkpt>
      <trkpt lat="42.28889" lon="3.28125">
        <ele>6.6</ele>
        <time>2024-11-10T12:31:32Z</time>
      </trkpt>
      <trkpt lat="42.2889" lon="3.28123">
        <ele>6.6</ele>
        <time>2024-11-10T12:31:33Z</time>
      </trkpt>
      <trkpt lat="42.2889" lon="3.28122">
        <ele>6.6</ele>
        <time>2024-11-10T12:31:34Z</time>
      </trkpt>
      <trkpt lat="42.2889" lon="3.28122">
        <ele>6.6</ele>
        <time>2024-11-10T12:31:35Z</time>
      </trkpt>
      <trkpt lat="42.2889" lon="3.28122">
        <ele>6.6</ele>
        <time>2024-11-10T12:31:36Z</time>
      </trkpt>
      <trkpt lat="42.2889" lon="3.28122">
        <ele>6.6</ele>
        <time>2024-11-10T12:31:37Z</time>
      </trkpt>
      <trkpt lat="42.2889" lon="3.28121">
        <ele>6.6</ele>
        <time>2024-11-10T12:31:38Z</time>
      </trkpt>
      <trkpt lat="42.2889" lon="3.28121">
        <ele>6.6</ele>
        <time>2024-11-10T12:31:39Z</time>
      </trkpt>
      <trkpt lat="42.2889" lon="3.28121">
        <ele>6.6</ele>
        <time>2024-11-10T12:31:40Z</time>
      </trkpt>
      <trkpt lat="42.2889" lon="3.28121">
        <ele>6.6</ele>
        <time>2024-11-10T12:31:41Z</time>
      </trkpt>
      <trkpt lat="42.2889" lon="3.28121">
        <ele>6.6</ele>
        <time>2024-11-10T12:31:42Z</time>
      </trkpt>
      <trkpt lat="42.2889" lon="3.28121">
        <ele>6.6</ele>
        <time>2024-11-10T12:31:43Z</time>
      </trkpt>
      <trkpt lat="42.2889" lon="3.28121">
        <ele>6.6</ele>
        <time>2024-11-10T12:31:44Z</time>
      </trkpt>
      <trkpt lat="42.2889" lon="3.28121">
        <ele>6.6</ele>
        <time>2024-11-10T12:31:45Z</time>
      </trkpt>
      <trkpt lat="42.2889" lon="3.28121">
        <ele>6.6</ele>
        <time>2024-11-10T12:31:46Z</time>
      </trkpt>
      <trkpt lat="42.2889" lon="3.28121">
        <ele>6.6</ele>
        <time>2024-11-10T12:31:47Z</time>
      </trkpt>
      <trkpt lat="42.2889" lon="3.28121">
        <ele>6.6</ele>
        <time>2024-11-10T12:31:48Z</time>
      </trkpt>
      <trkpt lat="42.2889" lon="3.28121">
        <ele>6.6</ele>
        <time>2024-11-10T12:31:49Z</time>
      </trkpt>
      <trkpt lat="42.2889" lon="3.28121">
        <ele>6.6</ele>
        <time>2024-11-10T12:31:50Z</time>
      </trkpt>
      <trkpt lat="42.2889" lon="3.28121">
        <ele>6.6</ele>
        <time>2024-11-10T12:31:51Z</time>
      </trkpt>
      <trkpt lat="42.2889" lon="3.28121">
        <ele>6.6</ele>
        <time>2024-11-10T12:31:52Z</time>
      </trkpt>
      <trkpt lat="42.2889" lon="3.28122">
        <ele>6.6</ele>
        <time>2024-11-10T12:31:53Z</time>
      </trkpt>
      <trkpt lat="42.2889" lon="3.28122">
        <ele>6.6</ele>
        <time>2024-11-10T12:31:54Z</time>
      </trkpt>
      <trkpt lat="42.2889" lon="3.28122">
        <ele>6.6</ele>
        <time>2024-11-10T12:31:55Z</time>
      </trkpt>
      <trkpt lat="42.2889" lon="3.28122">
        <ele>6.6</ele>
        <time>2024-11-10T12:31:56Z</time>
      </trkpt>
      <trkpt lat="42.2889" lon="3.28122">
        <ele>6.6</ele>
        <time>2024-11-10T12:31:57Z</time>
      </trkpt>
      <trkpt lat="42.28892" lon="3.28124">
        <ele>6.6</ele>
        <time>2024-11-10T12:31:58Z</time>
      </trkpt>
      <trkpt lat="42.28892" lon="3.28125">
        <ele>6.6</ele>
        <time>2024-11-10T12:31:59Z</time>
      </trkpt>
      <trkpt lat="42.28892" lon="3.28125">
        <ele>6.6</ele>
        <time>2024-11-10T12:32:00Z</time>
      </trkpt>
      <trkpt lat="42.28892" lon="3.28125">
        <ele>6.6</ele>
        <time>2024-11-10T12:32:01Z</time>
      </trkpt>
      <trkpt lat="42.28892" lon="3.28125">
        <ele>6.6</ele>
        <time>2024-11-10T12:32:02Z</time>
      </trkpt>
      <trkpt lat="42.28892" lon="3.28125">
        <ele>6.6</ele>
        <time>2024-11-10T12:32:03Z</time>
      </trkpt>
      <trkpt lat="42.28892" lon="3.28125">
        <ele>6.6</ele>
        <time>2024-11-10T12:32:04Z</time>
      </trkpt>
      <trkpt lat="42.28892" lon="3.28125">
        <ele>6.6</ele>
        <time>2024-11-10T12:32:05Z</time>
      </trkpt>
      <trkpt lat="42.28892" lon="3.28125">
        <ele>6.6</ele>
        <time>2024-11-10T12:32:06Z</time>
      </trkpt>
      <trkpt lat="42.28892" lon="3.28125">
        <ele>6.6</ele>
        <time>2024-11-10T12:32:07Z</time>
      </trkpt>
      <trkpt lat="42.28892" lon="3.28125">
        <ele>6.6</ele>
        <time>2024-11-10T12:32:08Z</time>
      </trkpt>
      <trkpt lat="42.28892" lon="3.28125">
        <ele>6.6</ele>
        <time>2024-11-10T12:32:09Z</time>
      </trkpt>
      <trkpt lat="42.28892" lon="3.28125">
        <ele>6.6</ele>
        <time>2024-11-10T12:32:10Z</time>
      </trkpt>
      <trkpt lat="42.28892" lon="3.28125">
        <ele>6.6</ele>
        <time>2024-11-10T12:32:11Z</time>
      </trkpt>
      <trkpt lat="42.28892" lon="3.28125">
        <ele>6.6</ele>
        <time>2024-11-10T12:32:12Z</time>
      </trkpt>
      <trkpt lat="42.2889" lon="3.28123">
        <ele>6.6</ele>
        <time>2024-11-10T12:32:13Z</time>
      </trkpt>
      <trkpt lat="42.2889" lon="3.28122">
        <ele>6.6</ele>
        <time>2024-11-10T12:32:14Z</time>
      </trkpt>
      <trkpt lat="42.2889" lon="3.28122">
        <ele>6.6</ele>
        <time>2024-11-10T12:32:15Z</time>
      </trkpt>
      <trkpt lat="42.2889" lon="3.28122">
        <ele>6.6</ele>
        <time>2024-11-10T12:32:16Z</time>
      </trkpt>
      <trkpt lat="42.2889" lon="3.28122">
        <ele>6.6</ele>
        <time>2024-11-10T12:32:17Z</time>
      </trkpt>
      <trkpt lat="42.2889" lon="3.28122">
        <ele>6.6</ele>
        <time>2024-11-10T12:32:18Z</time>
      </trkpt>
      <trkpt lat="42.2889" lon="3.28122">
        <ele>6.6</ele>
        <time>2024-11-10T12:32:19Z</time>
      </trkpt>
      <trkpt lat="42.2889" lon="3.28122">
        <ele>6.6</ele>
        <time>2024-11-10T12:32:20Z</time>
      </trkpt>
      <trkpt lat="42.2889" lon="3.28122">
        <ele>6.6</ele>
        <time>2024-11-10T12:32:21Z</time>
      </trkpt>
      <trkpt lat="42.2889" lon="3.28122">
        <ele>6.6</ele>
        <time>2024-11-10T12:32:22Z</time>
      </trkpt>
      <trkpt lat="42.2889" lon="3.28122">
        <ele>6.6</ele>
        <time>2024-11-10T12:32:23Z</time>
      </trkpt>
      <trkpt lat="42.28892" lon="3.28124">
        <ele>6.6</ele>
        <time>2024-11-10T12:32:24Z</time>
      </trkpt>
      <trkpt lat="42.28892" lon="3.28125">
        <ele>6.6</ele>
        <time>2024-11-10T12:32:25Z</time>
      </trkpt>
      <trkpt lat="42.28892" lon="3.28125">
        <ele>6.6</ele>
        <time>2024-11-10T12:32:26Z</time>
      </trkpt>
      <trkpt lat="42.28892" lon="3.28125">
        <ele>6.6</ele>
        <time>2024-11-10T12:32:27Z</time>
      </trkpt>
      <trkpt lat="42.2889" lon="3.28123">
        <ele>6.6</ele>
        <time>2024-11-10T12:32:28Z</time>
      </trkpt>
      <trkpt lat="42.2889" lon="3.28122">
        <ele>6.6</ele>
        <time>2024-11-10T12:32:29Z</time>
      </trkpt>
      <trkpt lat="42.2889" lon="3.28122">
        <ele>6.6</ele>
        <time>2024-11-10T12:32:30Z</time>
      </trkpt>
      <trkpt lat="42.2889" lon="3.28122">
        <ele>6.6</ele>
        <time>2024-11-10T12:32:31Z</time>
      </trkpt>
      <trkpt lat="42.2889" lon="3.28122">
        <ele>6.6</ele>
        <time>2024-11-10T12:32:32Z</time>
      </trkpt>
      <trkpt lat="42.2889" lon="3.28122">
        <ele>6.6</ele>
        <time>2024-11-10T12:32:33Z</time>
      </trkpt>
      <trkpt lat="42.28892" lon="3.28124">
        <ele>6.6</ele>
        <time>2024-11-10T12:32:34Z</time>
      </trkpt>
      <trkpt lat="42.28892" lon="3.28125">
        <ele>6.6</ele>
        <time>2024-11-10T12:32:35Z</time>
      </trkpt>
      <trkpt lat="42.28892" lon="3.28125">
        <ele>6.6</ele>
        <time>2024-11-10T12:32:36Z</time>
      </trkpt>
      <trkpt lat="42.28892" lon="3.28125">
        <ele>6.6</ele>
        <time>2024-11-10T12:32:37Z</time>
      </trkpt>
      <trkpt lat="42.28892" lon="3.28125">
        <ele>6.6</ele>
        <time>2024-11-10T12:32:38Z</time>
      </trkpt>
      <trkpt lat="42.2889" lon="3.28123">
        <ele>6.6</ele>
        <time>2024-11-10T12:32:39Z</time>
      </trkpt>
      <trkpt lat="42.2889" lon="3.28122">
        <ele>6.6</ele>
        <time>2024-11-10T12:32:40Z</time>
      </trkpt>
      <trkpt lat="42.2889" lon="3.28122">
        <ele>6.6</ele>
        <time>2024-11-10T12:32:41Z</time>
      </trkpt>
      <trkpt lat="42.2889" lon="3.28122">
        <ele>6.6</ele>
        <time>2024-11-10T12:32:42Z</time>
      </trkpt>
      <trkpt lat="42.2889" lon="3.28122">
        <ele>6.6</ele>
        <time>2024-11-10T12:32:43Z</time>
      </trkpt>
      <trkpt lat="42.28892" lon="3.28124">
        <ele>6.6</ele>
        <time>2024-11-10T12:32:44Z</time>
      </trkpt>
      <trkpt lat="42.28891" lon="3.28123">
        <ele>6.6</ele>
        <time>2024-11-10T12:32:45Z</time>
      </trkpt>
      <trkpt lat="42.28891" lon="3.28123">
        <ele>6.6</ele>
        <time>2024-11-10T12:32:46Z</time>
      </trkpt>
      <trkpt lat="42.28891" lon="3.28122">
        <ele>6.6</ele>
        <time>2024-11-10T12:32:47Z</time>
      </trkpt>
      <trkpt lat="42.28891" lon="3.28122">
        <ele>6.6</ele>
        <time>2024-11-10T12:32:48Z</time>
      </trkpt>
      <trkpt lat="42.2889" lon="3.28121">
        <ele>6.6</ele>
        <time>2024-11-10T12:32:49Z</time>
      </trkpt>
      <trkpt lat="42.2889" lon="3.28121">
        <ele>6.6</ele>
        <time>2024-11-10T12:32:50Z</time>
      </trkpt>
      <trkpt lat="42.2889" lon="3.28121">
        <ele>6.6</ele>
        <time>2024-11-10T12:32:51Z</time>
      </trkpt>
      <trkpt lat="42.2889" lon="3.28121">
        <ele>6.6</ele>
        <time>2024-11-10T12:32:52Z</time>
      </trkpt>
      <trkpt lat="42.2889" lon="3.28121">
        <ele>6.6</ele>
        <time>2024-11-10T12:32:53Z</time>
      </trkpt>
      <trkpt lat="42.2889" lon="3.28122">
        <ele>6.6</ele>
        <time>2024-11-10T12:32:54Z</time>
      </trkpt>
      <trkpt lat="42.28891" lon="3.28122">
        <ele>6.6</ele>
        <time>2024-11-10T12:32:55Z</time>
      </trkpt>
      <trkpt lat="42.28891" lon="3.28123">
        <ele>6.6</ele>
        <time>2024-11-10T12:32:56Z</time>
      </trkpt>
      <trkpt lat="42.28891" lon="3.28123">
        <ele>6.6</ele>
        <time>2024-11-10T12:32:57Z</time>
      </trkpt>
      <trkpt lat="42.28891" lon="3.28122">
        <ele>6.6</ele>
        <time>2024-11-10T12:32:58Z</time>
      </trkpt>
      <trkpt lat="42.2889" lon="3.28122">
        <ele>6.6</ele>
        <time>2024-11-10T12:32:59Z</time>
      </trkpt>
      <trkpt lat="42.2889" lon="3.28122">
        <ele>6.6</ele>
        <time>2024-11-10T12:33:00Z</time>
      </trkpt>
      <trkpt lat="42.2889" lon="3.28122">
        <ele>6.6</ele>
        <time>2024-11-10T12:33:01Z</time>
      </trkpt>
      <trkpt lat="42.2889" lon="3.28122">
        <ele>6.6</ele>
        <time>2024-11-10T12:33:02Z</time>
      </trkpt>
      <trkpt lat="42.2889" lon="3.28122">
        <ele>6.6</ele>
        <time>2024-11-10T12:33:03Z</time>
      </trkpt>
      <trkpt lat="42.28892" lon="3.28124">
        <ele>6.7</ele>
        <time>2024-11-10T12:33:04Z</time>
      </trkpt>
      <trkpt lat="42.28892" lon="3.28125">
        <ele>6.7</ele>
        <time>2024-11-10T12:33:05Z</time>
      </trkpt>
      <trkpt lat="42.28892" lon="3.28125">
        <ele>6.7</ele>
        <time>2024-11-10T12:33:06Z</time>
      </trkpt>
      <trkpt lat="42.28892" lon="3.28125">
        <ele>6.7</ele>
        <time>2024-11-10T12:33:07Z</time>
      </trkpt>
      <trkpt lat="42.28892" lon="3.28125">
        <ele>6.7</ele>
        <time>2024-11-10T12:33:08Z</time>
      </trkpt>
      <trkpt lat="42.28891" lon="3.28122">
        <ele>6.7</ele>
        <time>2024-11-10T12:33:09Z</time>
      </trkpt>
      <trkpt lat="42.2889" lon="3.28121">
        <ele>6.7</ele>
        <time>2024-11-10T12:33:10Z</time>
      </trkpt>
      <trkpt lat="42.2889" lon="3.28121">
        <ele>6.7</ele>
        <time>2024-11-10T12:33:11Z</time>
      </trkpt>
      <trkpt lat="42.2889" lon="3.28121">
        <ele>6.7</ele>
        <time>2024-11-10T12:33:12Z</time>
      </trkpt>
      <trkpt lat="42.2889" lon="3.28121">
        <ele>6.7</ele>
        <time>2024-11-10T12:33:13Z</time>
      </trkpt>
      <trkpt lat="42.2889" lon="3.28122">
        <ele>6.7</ele>
        <time>2024-11-10T12:33:14Z</time>
      </trkpt>
      <trkpt lat="42.2889" lon="3.28122">
        <ele>6.7</ele>
        <time>2024-11-10T12:33:15Z</time>
      </trkpt>
      <trkpt lat="42.2889" lon="3.28122">
        <ele>6.7</ele>
        <time>2024-11-10T12:33:16Z</time>
      </trkpt>
      <trkpt lat="42.2889" lon="3.28122">
        <ele>6.7</ele>
        <time>2024-11-10T12:33:17Z</time>
      </trkpt>
      <trkpt lat="42.2889" lon="3.28122">
        <ele>6.7</ele>
        <time>2024-11-10T12:33:18Z</time>
      </trkpt>
      <trkpt lat="42.2889" lon="3.28122">
        <ele>6.7</ele>
        <time>2024-11-10T12:33:19Z</time>
      </trkpt>
      <trkpt lat="42.2889" lon="3.28122">
        <ele>6.7</ele>
        <time>2024-11-10T12:33:20Z</time>
      </trkpt>
      <trkpt lat="42.2889" lon="3.28122">
        <ele>6.7</ele>
        <time>2024-11-10T12:33:21Z</time>
      </trkpt>
      <trkpt lat="42.2889" lon="3.28122">
        <ele>6.7</ele>
        <time>2024-11-10T12:33:22Z</time>
      </trkpt>
      <trkpt lat="42.2889" lon="3.28122">
        <ele>6.7</ele>
        <time>2024-11-10T12:33:23Z</time>
      </trkpt>
      <trkpt lat="42.2889" lon="3.28122">
        <ele>6.7</ele>
        <time>2024-11-10T12:33:24Z</time>
      </trkpt>
      <trkpt lat="42.2889" lon="3.28122">
        <ele>6.7</ele>
        <time>2024-11-10T12:33:25Z</time>
      </trkpt>
      <trkpt lat="42.2889" lon="3.28122">
        <ele>6.7</ele>
        <time>2024-11-10T12:33:26Z</time>
      </trkpt>
      <trkpt lat="42.2889" lon="3.28122">
        <ele>6.7</ele>
        <time>2024-11-10T12:33:27Z</time>
      </trkpt>
      <trkpt lat="42.2889" lon="3.28122">
        <ele>6.7</ele>
        <time>2024-11-10T12:33:28Z</time>
      </trkpt>
      <trkpt lat="42.2889" lon="3.28122">
        <ele>6.7</ele>
        <time>2024-11-10T12:33:29Z</time>
      </trkpt>
      <trkpt lat="42.2889" lon="3.28123">
        <ele>6.7</ele>
        <time>2024-11-10T12:33:30Z</time>
      </trkpt>
      <trkpt lat="42.2889" lon="3.28123">
        <ele>6.7</ele>
        <time>2024-11-10T12:33:31Z</time>
      </trkpt>
      <trkpt lat="42.2889" lon="3.28123">
        <ele>6.7</ele>
        <time>2024-11-10T12:33:32Z</time>
      </trkpt>
      <trkpt lat="42.2889" lon="3.28123">
        <ele>6.7</ele>
        <time>2024-11-10T12:33:33Z</time>
      </trkpt>
      <trkpt lat="42.2889" lon="3.28123">
        <ele>6.7</ele>
        <time>2024-11-10T12:33:34Z</time>
      </trkpt>
      <trkpt lat="42.28891" lon="3.28122">
        <ele>6.7</ele>
        <time>2024-11-10T12:33:35Z</time>
      </trkpt>
      <trkpt lat="42.28891" lon="3.28122">
        <ele>6.7</ele>
        <time>2024-11-10T12:33:36Z</time>
      </trkpt>
      <trkpt lat="42.28891" lon="3.28122">
        <ele>6.7</ele>
        <time>2024-11-10T12:33:37Z</time>
      </trkpt>
      <trkpt lat="42.28891" lon="3.28122">
        <ele>6.7</ele>
        <time>2024-11-10T12:33:38Z</time>
      </trkpt>
      <trkpt lat="42.2889" lon="3.28121">
        <ele>6.7</ele>
        <time>2024-11-10T12:33:39Z</time>
      </trkpt>
      <trkpt lat="42.2889" lon="3.28121">
        <ele>6.7</ele>
        <time>2024-11-10T12:33:40Z</time>
      </trkpt>
      <trkpt lat="42.2889" lon="3.28121">
        <ele>6.7</ele>
        <time>2024-11-10T12:33:41Z</time>
      </trkpt>
      <trkpt lat="42.2889" lon="3.28121">
        <ele>6.7</ele>
        <time>2024-11-10T12:33:42Z</time>
      </trkpt>
      <trkpt lat="42.2889" lon="3.28121">
        <ele>6.7</ele>
        <time>2024-11-10T12:33:43Z</time>
      </trkpt>
      <trkpt lat="42.28891" lon="3.28122">
        <ele>6.7</ele>
        <time>2024-11-10T12:33:44Z</time>
      </trkpt>
      <trkpt lat="42.28891" lon="3.28122">
        <ele>6.7</ele>
        <time>2024-11-10T12:33:45Z</time>
      </trkpt>
      <trkpt lat="42.28892" lon="3.28124">
        <ele>6.7</ele>
        <time>2024-11-10T12:33:46Z</time>
      </trkpt>
      <trkpt lat="42.28892" lon="3.28125">
        <ele>6.7</ele>
        <time>2024-11-10T12:33:47Z</time>
      </trkpt>
      <trkpt lat="42.28892" lon="3.28125">
        <ele>6.7</ele>
        <time>2024-11-10T12:33:48Z</time>
      </trkpt>
      <trkpt lat="42.28891" lon="3.28123">
        <ele>6.7</ele>
        <time>2024-11-10T12:33:49Z</time>
      </trkpt>
      <trkpt lat="42.2889" lon="3.28122">
        <ele>6.7</ele>
        <time>2024-11-10T12:33:50Z</time>
      </trkpt>
      <trkpt lat="42.2889" lon="3.28122">
        <ele>6.7</ele>
        <time>2024-11-10T12:33:51Z</time>
      </trkpt>
      <trkpt lat="42.2889" lon="3.28122">
        <ele>6.7</ele>
        <time>2024-11-10T12:33:52Z</time>
      </trkpt>
      <trkpt lat="42.2889" lon="3.28122">
        <ele>6.7</ele>
        <time>2024-11-10T12:33:53Z</time>
      </trkpt>
      <trkpt lat="42.28891" lon="3.28122">
        <ele>6.7</ele>
        <time>2024-11-10T12:33:54Z</time>
      </trkpt>
      <trkpt lat="42.28891" lon="3.28122">
        <ele>6.7</ele>
        <time>2024-11-10T12:33:55Z</time>
      </trkpt>
      <trkpt lat="42.28891" lon="3.28122">
        <ele>6.7</ele>
        <time>2024-11-10T12:33:56Z</time>
      </trkpt>
      <trkpt lat="42.28891" lon="3.28122">
        <ele>6.7</ele>
        <time>2024-11-10T12:33:57Z</time>
      </trkpt>
      <trkpt lat="42.28891" lon="3.28122">
        <ele>6.7</ele>
        <time>2024-11-10T12:33:58Z</time>
      </trkpt>
      <trkpt lat="42.28891" lon="3.28122">
        <ele>6.7</ele>
        <time>2024-11-10T12:33:59Z</time>
      </trkpt>
      <trkpt lat="42.28891" lon="3.28122">
        <ele>6.7</ele>
        <time>2024-11-10T12:34:00Z</time>
      </trkpt>
      <trkpt lat="42.28891" lon="3.28122">
        <ele>6.7</ele>
        <time>2024-11-10T12:34:01Z</time>
      </trkpt>
      <trkpt lat="42.28891" lon="3.28122">
        <ele>6.7</ele>
        <time>2024-11-10T12:34:02Z</time>
      </trkpt>
      <trkpt lat="42.28892" lon="3.28124">
        <ele>6.7</ele>
        <time>2024-11-10T12:34:03Z</time>
      </trkpt>
      <trkpt lat="42.28891" lon="3.28123">
        <ele>6.7</ele>
        <time>2024-11-10T12:34:04Z</time>
      </trkpt>
      <trkpt lat="42.2889" lon="3.28122">
        <ele>6.7</ele>
        <time>2024-11-10T12:34:05Z</time>
      </trkpt>
      <trkpt lat="42.2889" lon="3.28122">
        <ele>6.7</ele>
        <time>2024-11-10T12:34:06Z</time>
      </trkpt>
      <trkpt lat="42.2889" lon="3.28122">
        <ele>6.7</ele>
        <time>2024-11-10T12:34:07Z</time>
      </trkpt>
      <trkpt lat="42.2889" lon="3.28122">
        <ele>6.7</ele>
        <time>2024-11-10T12:34:08Z</time>
      </trkpt>
      <trkpt lat="42.2889" lon="3.28121">
        <ele>6.7</ele>
        <time>2024-11-10T12:34:09Z</time>
      </trkpt>
      <trkpt lat="42.2889" lon="3.28121">
        <ele>6.7</ele>
        <time>2024-11-10T12:34:10Z</time>
      </trkpt>
      <trkpt lat="42.2889" lon="3.28121">
        <ele>6.7</ele>
        <time>2024-11-10T12:34:11Z</time>
      </trkpt>
      <trkpt lat="42.2889" lon="3.28121">
        <ele>6.7</ele>
        <time>2024-11-10T12:34:12Z</time>
      </trkpt>
      <trkpt lat="42.2889" lon="3.28121">
        <ele>6.7</ele>
        <time>2024-11-10T12:34:13Z</time>
      </trkpt>
      <trkpt lat="42.2889" lon="3.28122">
        <ele>6.7</ele>
        <time>2024-11-10T12:34:14Z</time>
      </trkpt>
      <trkpt lat="42.28891" lon="3.28122">
        <ele>6.7</ele>
        <time>2024-11-10T12:34:15Z</time>
      </trkpt>
      <trkpt lat="42.28891" lon="3.28122">
        <ele>6.7</ele>
        <time>2024-11-10T12:34:16Z</time>
      </trkpt>
      <trkpt lat="42.28891" lon="3.28122">
        <ele>6.7</ele>
        <time>2024-11-10T12:34:17Z</time>
      </trkpt>
      <trkpt lat="42.28891" lon="3.28122">
        <ele>6.7</ele>
        <time>2024-11-10T12:34:18Z</time>
      </trkpt>
      <trkpt lat="42.28892" lon="3.28124">
        <ele>6.7</ele>
        <time>2024-11-10T12:34:19Z</time>
      </trkpt>
      <trkpt lat="42.28892" lon="3.28125">
        <ele>6.7</ele>
        <time>2024-11-10T12:34:20Z</time>
      </trkpt>
      <trkpt lat="42.28892" lon="3.28125">
        <ele>6.7</ele>
        <time>2024-11-10T12:34:21Z</time>
      </trkpt>
      <trkpt lat="42.28892" lon="3.28125">
        <ele>6.7</ele>
        <time>2024-11-10T12:34:22Z</time>
      </trkpt>
      <trkpt lat="42.28892" lon="3.28125">
        <ele>6.7</ele>
        <time>2024-11-10T12:34:23Z</time>
      </trkpt>
      <trkpt lat="42.28891" lon="3.28122">
        <ele>6.7</ele>
        <time>2024-11-10T12:34:24Z</time>
      </trkpt>
      <trkpt lat="42.2889" lon="3.28121">
        <ele>6.7</ele>
        <time>2024-11-10T12:34:25Z</time>
      </trkpt>
      <trkpt lat="42.2889" lon="3.28121">
        <ele>6.7</ele>
        <time>2024-11-10T12:34:26Z</time>
      </trkpt>
      <trkpt lat="42.2889" lon="3.28121">
        <ele>6.7</ele>
        <time>2024-11-10T12:34:27Z</time>
      </trkpt>
      <trkpt lat="42.2889" lon="3.28121">
        <ele>6.7</ele>
        <time>2024-11-10T12:34:28Z</time>
      </trkpt>
      <trkpt lat="42.2889" lon="3.28122">
        <ele>6.7</ele>
        <time>2024-11-10T12:34:29Z</time>
      </trkpt>
      <trkpt lat="42.2889" lon="3.28122">
        <ele>6.7</ele>
        <time>2024-11-10T12:34:30Z</time>
      </trkpt>
      <trkpt lat="42.2889" lon="3.28122">
        <ele>6.7</ele>
        <time>2024-11-10T12:34:31Z</time>
      </trkpt>
      <trkpt lat="42.2889" lon="3.28122">
        <ele>6.7</ele>
        <time>2024-11-10T12:34:32Z</time>
      </trkpt>
      <trkpt lat="42.2889" lon="3.28122">
        <ele>6.7</ele>
        <time>2024-11-10T12:34:33Z</time>
      </trkpt>
      <trkpt lat="42.2889" lon="3.28122">
        <ele>6.7</ele>
        <time>2024-11-10T12:34:34Z</time>
      </trkpt>
      <trkpt lat="42.2889" lon="3.28122">
        <ele>6.7</ele>
        <time>2024-11-10T12:34:35Z</time>
      </trkpt>
      <trkpt lat="42.2889" lon="3.28122">
        <ele>6.7</ele>
        <time>2024-11-10T12:34:36Z</time>
      </trkpt>
      <trkpt lat="42.2889" lon="3.28122">
        <ele>6.7</ele>
        <time>2024-11-10T12:34:37Z</time>
      </trkpt>
      <trkpt lat="42.2889" lon="3.28122">
        <ele>6.7</ele>
        <time>2024-11-10T12:34:38Z</time>
      </trkpt>
      <trkpt lat="42.2889" lon="3.28122">
        <ele>6.7</ele>
        <time>2024-11-10T12:34:39Z</time>
      </trkpt>
      <trkpt lat="42.2889" lon="3.28122">
        <ele>6.7</ele>
        <time>2024-11-10T12:34:40Z</time>
      </trkpt>
      <trkpt lat="42.2889" lon="3.28122">
        <ele>6.7</ele>
        <time>2024-11-10T12:34:41Z</time>
      </trkpt>
      <trkpt lat="42.2889" lon="3.28122">
        <ele>6.7</ele>
        <time>2024-11-10T12:34:42Z</time>
      </trkpt>
      <trkpt lat="42.2889" lon="3.28122">
        <ele>6.7</ele>
        <time>2024-11-10T12:34:43Z</time>
      </trkpt>
      <trkpt lat="42.2889" lon="3.28122">
        <ele>6.7</ele>
        <time>2024-11-10T12:34:44Z</time>
      </trkpt>
      <trkpt lat="42.2889" lon="3.28122">
        <ele>6.7</ele>
        <time>2024-11-10T12:34:45Z</time>
      </trkpt>
      <trkpt lat="42.2889" lon="3.28122">
        <ele>6.7</ele>
        <time>2024-11-10T12:34:46Z</time>
      </trkpt>
      <trkpt lat="42.2889" lon="3.28122">
        <ele>6.7</ele>
        <time>2024-11-10T12:34:47Z</time>
      </trkpt>
      <trkpt lat="42.2889" lon="3.28122">
        <ele>6.7</ele>
        <time>2024-11-10T12:34:48Z</time>
      </trkpt>
      <trkpt lat="42.2889" lon="3.28122">
        <ele>6.7</ele>
        <time>2024-11-10T12:34:49Z</time>
      </trkpt>
      <trkpt lat="42.2889" lon="3.28122">
        <ele>6.7</ele>
        <time>2024-11-10T12:34:50Z</time>
      </trkpt>
      <trkpt lat="42.2889" lon="3.28122">
        <ele>6.7</ele>
        <time>2024-11-10T12:34:51Z</time>
      </trkpt>
      <trkpt lat="42.2889" lon="3.28122">
        <ele>6.7</ele>
        <time>2024-11-10T12:34:52Z</time>
      </trkpt>
      <trkpt lat="42.2889" lon="3.28122">
        <ele>6.7</ele>
        <time>2024-11-10T12:34:53Z</time>
      </trkpt>
      <trkpt lat="42.28892" lon="3.28124">
        <ele>6.7</ele>
        <time>2024-11-10T12:34:54Z</time>
      </trkpt>
      <trkpt lat="42.28892" lon="3.28125">
        <ele>6.7</ele>
        <time>2024-11-10T12:34:55Z</time>
      </trkpt>
      <trkpt lat="42.28892" lon="3.28125">
        <ele>6.7</ele>
        <time>2024-11-10T12:34:56Z</time>
      </trkpt>
      <trkpt lat="42.28892" lon="3.28125">
        <ele>6.7</ele>
        <time>2024-11-10T12:34:57Z</time>
      </trkpt>
      <trkpt lat="42.28892" lon="3.28125">
        <ele>6.7</ele>
        <time>2024-11-10T12:34:58Z</time>
      </trkpt>
      <trkpt lat="42.28891" lon="3.28123">
        <ele>6.7</ele>
        <time>2024-11-10T12:34:59Z</time>
      </trkpt>
      <trkpt lat="42.2889" lon="3.28122">
        <ele>6.7</ele>
        <time>2024-11-10T12:35:00Z</time>
      </trkpt>
      <trkpt lat="42.2889" lon="3.28122">
        <ele>6.7</ele>
        <time>2024-11-10T12:35:01Z</time>
      </trkpt>
      <trkpt lat="42.2889" lon="3.28122">
        <ele>6.7</ele>
        <time>2024-11-10T12:35:02Z</time>
      </trkpt>
      <trkpt lat="42.2889" lon="3.28122">
        <ele>6.7</ele>
        <time>2024-11-10T12:35:03Z</time>
      </trkpt>
      <trkpt lat="42.28892" lon="3.28124">
        <ele>6.7</ele>
        <time>2024-11-10T12:35:04Z</time>
      </trkpt>
      <trkpt lat="42.28892" lon="3.28125">
        <ele>6.7</ele>
        <time>2024-11-10T12:35:05Z</time>
      </trkpt>
      <trkpt lat="42.28892" lon="3.28125">
        <ele>6.7</ele>
        <time>2024-11-10T12:35:06Z</time>
      </trkpt>
      <trkpt lat="42.28892" lon="3.28125">
        <ele>6.7</ele>
        <time>2024-11-10T12:35:07Z</time>
      </trkpt>
      <trkpt lat="42.28892" lon="3.28125">
        <ele>6.7</ele>
        <time>2024-11-10T12:35:08Z</time>
      </trkpt>
      <trkpt lat="42.28891" lon="3.28123">
        <ele>6.7</ele>
        <time>2024-11-10T12:35:09Z</time>
      </trkpt>
      <trkpt lat="42.2889" lon="3.28122">
        <ele>6.7</ele>
        <time>2024-11-10T12:35:10Z</time>
      </trkpt>
      <trkpt lat="42.2889" lon="3.28122">
        <ele>6.7</ele>
        <time>2024-11-10T12:35:11Z</time>
      </trkpt>
      <trkpt lat="42.2889" lon="3.28122">
        <ele>6.7</ele>
        <time>2024-11-10T12:35:12Z</time>
      </trkpt>
      <trkpt lat="42.2889" lon="3.28122">
        <ele>6.7</ele>
        <time>2024-11-10T12:35:13Z</time>
      </trkpt>
      <trkpt lat="42.2889" lon="3.28122">
        <ele>6.7</ele>
        <time>2024-11-10T12:35:14Z</time>
      </trkpt>
      <trkpt lat="42.2889" lon="3.28122">
        <ele>6.7</ele>
        <time>2024-11-10T12:35:15Z</time>
      </trkpt>
      <trkpt lat="42.2889" lon="3.28122">
        <ele>6.7</ele>
        <time>2024-11-10T12:35:16Z</time>
      </trkpt>
      <trkpt lat="42.2889" lon="3.28122">
        <ele>6.7</ele>
        <time>2024-11-10T12:35:17Z</time>
      </trkpt>
      <trkpt lat="42.2889" lon="3.28122">
        <ele>6.7</ele>
        <time>2024-11-10T12:35:18Z</time>
      </trkpt>
      <trkpt lat="42.2889" lon="3.28121">
        <ele>6.7</ele>
        <time>2024-11-10T12:35:19Z</time>
      </trkpt>
      <trkpt lat="42.2889" lon="3.28121">
        <ele>6.7</ele>
        <time>2024-11-10T12:35:20Z</time>
      </trkpt>
      <trkpt lat="42.2889" lon="3.28121">
        <ele>6.7</ele>
        <time>2024-11-10T12:35:21Z</time>
      </trkpt>
      <trkpt lat="42.2889" lon="3.28121">
        <ele>6.7</ele>
        <time>2024-11-10T12:35:22Z</time>
      </trkpt>
      <trkpt lat="42.2889" lon="3.28121">
        <ele>6.7</ele>
        <time>2024-11-10T12:35:23Z</time>
      </trkpt>
      <trkpt lat="42.28892" lon="3.28124">
        <ele>6.8</ele>
        <time>2024-11-10T12:35:24Z</time>
      </trkpt>
      <trkpt lat="42.28892" lon="3.28125">
        <ele>6.8</ele>
        <time>2024-11-10T12:35:25Z</time>
      </trkpt>
      <trkpt lat="42.28892" lon="3.28125">
        <ele>6.8</ele>
        <time>2024-11-10T12:35:26Z</time>
      </trkpt>
      <trkpt lat="42.28892" lon="3.28125">
        <ele>6.8</ele>
        <time>2024-11-10T12:35:27Z</time>
      </trkpt>
      <trkpt lat="42.28892" lon="3.28125">
        <ele>6.8</ele>
        <time>2024-11-10T12:35:28Z</time>
      </trkpt>
      <trkpt lat="42.28892" lon="3.28125">
        <ele>6.8</ele>
        <time>2024-11-10T12:35:29Z</time>
      </trkpt>
      <trkpt lat="42.28892" lon="3.28125">
        <ele>6.8</ele>
        <time>2024-11-10T12:35:30Z</time>
      </trkpt>
      <trkpt lat="42.28892" lon="3.28125">
        <ele>6.8</ele>
        <time>2024-11-10T12:35:31Z</time>
      </trkpt>
      <trkpt lat="42.28892" lon="3.28125">
        <ele>6.8</ele>
        <time>2024-11-10T12:35:32Z</time>
      </trkpt>
      <trkpt lat="42.28892" lon="3.28125">
        <ele>6.8</ele>
        <time>2024-11-10T12:35:33Z</time>
      </trkpt>
      <trkpt lat="42.28892" lon="3.28125">
        <ele>6.8</ele>
        <time>2024-11-10T12:35:34Z</time>
      </trkpt>
      <trkpt lat="42.28892" lon="3.28125">
        <ele>6.8</ele>
        <time>2024-11-10T12:35:35Z</time>
      </trkpt>
      <trkpt lat="42.28892" lon="3.28125">
        <ele>6.8</ele>
        <time>2024-11-10T12:35:36Z</time>
      </trkpt>
      <trkpt lat="42.28892" lon="3.28125">
        <ele>6.8</ele>
        <time>2024-11-10T12:35:37Z</time>
      </trkpt>
      <trkpt lat="42.28892" lon="3.28125">
        <ele>6.8</ele>
        <time>2024-11-10T12:35:38Z</time>
      </trkpt>
      <trkpt lat="42.28891" lon="3.28122">
        <ele>6.8</ele>
        <time>2024-11-10T12:35:39Z</time>
      </trkpt>
      <trkpt lat="42.2889" lon="3.28121">
        <ele>6.8</ele>
        <time>2024-11-10T12:35:40Z</time>
      </trkpt>
      <trkpt lat="42.2889" lon="3.28121">
        <ele>6.8</ele>
        <time>2024-11-10T12:35:41Z</time>
      </trkpt>
      <trkpt lat="42.2889" lon="3.28121">
        <ele>6.8</ele>
        <time>2024-11-10T12:35:42Z</time>
      </trkpt>
      <trkpt lat="42.2889" lon="3.28121">
        <ele>6.8</ele>
        <time>2024-11-10T12:35:43Z</time>
      </trkpt>
      <trkpt lat="42.2889" lon="3.28122">
        <ele>6.8</ele>
        <time>2024-11-10T12:35:44Z</time>
      </trkpt>
      <trkpt lat="42.2889" lon="3.28122">
        <ele>6.8</ele>
        <time>2024-11-10T12:35:45Z</time>
      </trkpt>
      <trkpt lat="42.2889" lon="3.28122">
        <ele>6.8</ele>
        <time>2024-11-10T12:35:46Z</time>
      </trkpt>
      <trkpt lat="42.2889" lon="3.28122">
        <ele>6.8</ele>
        <time>2024-11-10T12:35:47Z</time>
      </trkpt>
      <trkpt lat="42.2889" lon="3.28122">
        <ele>6.8</ele>
        <time>2024-11-10T12:35:48Z</time>
      </trkpt>
      <trkpt lat="42.2889" lon="3.28122">
        <ele>6.8</ele>
        <time>2024-11-10T12:35:49Z</time>
      </trkpt>
      <trkpt lat="42.2889" lon="3.28122">
        <ele>6.8</ele>
        <time>2024-11-10T12:35:50Z</time>
      </trkpt>
      <trkpt lat="42.2889" lon="3.28122">
        <ele>6.8</ele>
        <time>2024-11-10T12:35:51Z</time>
      </trkpt>
      <trkpt lat="42.2889" lon="3.28122">
        <ele>6.8</ele>
        <time>2024-11-10T12:35:52Z</time>
      </trkpt>
      <trkpt lat="42.2889" lon="3.28122">
        <ele>6.8</ele>
        <time>2024-11-10T12:35:53Z</time>
      </trkpt>
      <trkpt lat="42.28891" lon="3.28122">
        <ele>6.8</ele>
        <time>2024-11-10T12:35:54Z</time>
      </trkpt>
      <trkpt lat="42.28891" lon="3.28122">
        <ele>6.8</ele>
        <time>2024-11-10T12:35:55Z</time>
      </trkpt>
      <trkpt lat="42.28891" lon="3.28122">
        <ele>6.8</ele>
        <time>2024-11-10T12:35:56Z</time>
      </trkpt>
      <trkpt lat="42.28891" lon="3.28122">
        <ele>6.8</ele>
        <time>2024-11-10T12:35:57Z</time>
      </trkpt>
      <trkpt lat="42.28891" lon="3.28122">
        <ele>6.8</ele>
        <time>2024-11-10T12:35:58Z</time>
      </trkpt>
      <trkpt lat="42.2889" lon="3.28122">
        <ele>6.8</ele>
        <time>2024-11-10T12:35:59Z</time>
      </trkpt>
      <trkpt lat="42.2889" lon="3.28121">
        <ele>6.8</ele>
        <time>2024-11-10T12:36:00Z</time>
      </trkpt>
      <trkpt lat="42.2889" lon="3.28121">
        <ele>6.8</ele>
        <time>2024-11-10T12:36:01Z</time>
      </trkpt>
      <trkpt lat="42.2889" lon="3.28121">
        <ele>6.8</ele>
        <time>2024-11-10T12:36:02Z</time>
      </trkpt>
      <trkpt lat="42.2889" lon="3.28121">
        <ele>6.8</ele>
        <time>2024-11-10T12:36:03Z</time>
      </trkpt>
      <trkpt lat="42.28892" lon="3.28124">
        <ele>6.8</ele>
        <time>2024-11-10T12:36:04Z</time>
      </trkpt>
      <trkpt lat="42.28892" lon="3.28125">
        <ele>6.8</ele>
        <time>2024-11-10T12:36:05Z</time>
      </trkpt>
      <trkpt lat="42.28892" lon="3.28125">
        <ele>6.8</ele>
        <time>2024-11-10T12:36:06Z</time>
      </trkpt>
      <trkpt lat="42.28892" lon="3.28125">
        <ele>6.8</ele>
        <time>2024-11-10T12:36:07Z</time>
      </trkpt>
      <trkpt lat="42.28892" lon="3.28125">
        <ele>6.8</ele>
        <time>2024-11-10T12:36:08Z</time>
      </trkpt>
      <trkpt lat="42.28892" lon="3.28125">
        <ele>6.8</ele>
        <time>2024-11-10T12:36:09Z</time>
      </trkpt>
      <trkpt lat="42.28892" lon="3.28125">
        <ele>6.8</ele>
        <time>2024-11-10T12:36:10Z</time>
      </trkpt>
      <trkpt lat="42.28892" lon="3.28125">
        <ele>6.8</ele>
        <time>2024-11-10T12:36:11Z</time>
      </trkpt>
      <trkpt lat="42.28892" lon="3.28125">
        <ele>6.8</ele>
        <time>2024-11-10T12:36:12Z</time>
      </trkpt>
      <trkpt lat="42.28892" lon="3.28125">
        <ele>6.8</ele>
        <time>2024-11-10T12:36:13Z</time>
      </trkpt>
      <trkpt lat="42.28891" lon="3.28123">
        <ele>6.8</ele>
        <time>2024-11-10T12:36:14Z</time>
      </trkpt>
      <trkpt lat="42.28891" lon="3.28122">
        <ele>6.8</ele>
        <time>2024-11-10T12:36:15Z</time>
      </trkpt>
      <trkpt lat="42.28891" lon="3.28122">
        <ele>6.8</ele>
        <time>2024-11-10T12:36:16Z</time>
      </trkpt>
      <trkpt lat="42.28891" lon="3.28122">
        <ele>6.8</ele>
        <time>2024-11-10T12:36:17Z</time>
      </trkpt>
      <trkpt lat="42.28891" lon="3.28122">
        <ele>6.8</ele>
        <time>2024-11-10T12:36:18Z</time>
      </trkpt>
      <trkpt lat="42.2889" lon="3.28121">
        <ele>6.8</ele>
        <time>2024-11-10T12:36:19Z</time>
      </trkpt>
      <trkpt lat="42.2889" lon="3.28121">
        <ele>6.8</ele>
        <time>2024-11-10T12:36:20Z</time>
      </trkpt>
      <trkpt lat="42.2889" lon="3.28121">
        <ele>6.8</ele>
        <time>2024-11-10T12:36:21Z</time>
      </trkpt>
      <trkpt lat="42.2889" lon="3.28121">
        <ele>6.8</ele>
        <time>2024-11-10T12:36:22Z</time>
      </trkpt>
      <trkpt lat="42.2889" lon="3.28121">
        <ele>6.8</ele>
        <time>2024-11-10T12:36:23Z</time>
      </trkpt>
      <trkpt lat="42.28891" lon="3.28122">
        <ele>6.8</ele>
        <time>2024-11-10T12:36:24Z</time>
      </trkpt>
      <trkpt lat="42.28891" lon="3.28122">
        <ele>6.8</ele>
        <time>2024-11-10T12:36:25Z</time>
      </trkpt>
      <trkpt lat="42.28892" lon="3.28124">
        <ele>6.8</ele>
        <time>2024-11-10T12:36:26Z</time>
      </trkpt>
      <trkpt lat="42.28892" lon="3.28125">
        <ele>6.8</ele>
        <time>2024-11-10T12:36:27Z</time>
      </trkpt>
      <trkpt lat="42.28892" lon="3.28125">
        <ele>6.8</ele>
        <time>2024-11-10T12:36:28Z</time>
      </trkpt>
      <trkpt lat="42.28891" lon="3.28122">
        <ele>6.8</ele>
        <time>2024-11-10T12:36:29Z</time>
      </trkpt>
      <trkpt lat="42.2889" lon="3.28122">
        <ele>6.8</ele>
        <time>2024-11-10T12:36:30Z</time>
      </trkpt>
      <trkpt lat="42.2889" lon="3.28121">
        <ele>6.8</ele>
        <time>2024-11-10T12:36:31Z</time>
      </trkpt>
      <trkpt lat="42.2889" lon="3.28121">
        <ele>6.8</ele>
        <time>2024-11-10T12:36:32Z</time>
      </trkpt>
      <trkpt lat="42.2889" lon="3.28122">
        <ele>6.8</ele>
        <time>2024-11-10T12:36:33Z</time>
      </trkpt>
      <trkpt lat="42.28892" lon="3.28124">
        <ele>6.8</ele>
        <time>2024-11-10T12:36:34Z</time>
      </trkpt>
      <trkpt lat="42.28892" lon="3.28125">
        <ele>6.8</ele>
        <time>2024-11-10T12:36:35Z</time>
      </trkpt>
      <trkpt lat="42.28892" lon="3.28125">
        <ele>6.8</ele>
        <time>2024-11-10T12:36:36Z</time>
      </trkpt>
      <trkpt lat="42.28892" lon="3.28125">
        <ele>6.8</ele>
        <time>2024-11-10T12:36:37Z</time>
      </trkpt>
      <trkpt lat="42.28892" lon="3.28125">
        <ele>6.8</ele>
        <time>2024-11-10T12:36:38Z</time>
      </trkpt>
      <trkpt lat="42.28891" lon="3.28122">
        <ele>6.8</ele>
        <time>2024-11-10T12:36:39Z</time>
      </trkpt>
      <trkpt lat="42.2889" lon="3.28122">
        <ele>6.8</ele>
        <time>2024-11-10T12:36:40Z</time>
      </trkpt>
      <trkpt lat="42.2889" lon="3.28121">
        <ele>6.8</ele>
        <time>2024-11-10T12:36:41Z</time>
      </trkpt>
      <trkpt lat="42.2889" lon="3.28121">
        <ele>6.8</ele>
        <time>2024-11-10T12:36:42Z</time>
      </trkpt>
      <trkpt lat="42.2889" lon="3.28122">
        <ele>6.8</ele>
        <time>2024-11-10T12:36:43Z</time>
      </trkpt>
      <trkpt lat="42.28892" lon="3.28124">
        <ele>6.8</ele>
        <time>2024-11-10T12:36:44Z</time>
      </trkpt>
      <trkpt lat="42.28892" lon="3.28125">
        <ele>6.8</ele>
        <time>2024-11-10T12:36:45Z</time>
      </trkpt>
      <trkpt lat="42.28892" lon="3.28125">
        <ele>6.8</ele>
        <time>2024-11-10T12:36:46Z</time>
      </trkpt>
      <trkpt lat="42.28892" lon="3.28125">
        <ele>6.8</ele>
        <time>2024-11-10T12:36:47Z</time>
      </trkpt>
      <trkpt lat="42.28892" lon="3.28125">
        <ele>6.8</ele>
        <time>2024-11-10T12:36:48Z</time>
      </trkpt>
      <trkpt lat="42.28891" lon="3.28122">
        <ele>6.8</ele>
        <time>2024-11-10T12:36:49Z</time>
      </trkpt>
      <trkpt lat="42.2889" lon="3.28121">
        <ele>6.8</ele>
        <time>2024-11-10T12:36:50Z</time>
      </trkpt>
      <trkpt lat="42.2889" lon="3.28121">
        <ele>6.8</ele>
        <time>2024-11-10T12:36:51Z</time>
      </trkpt>
      <trkpt lat="42.2889" lon="3.28121">
        <ele>6.8</ele>
        <time>2024-11-10T12:36:52Z</time>
      </trkpt>
      <trkpt lat="42.2889" lon="3.28121">
        <ele>6.8</ele>
        <time>2024-11-10T12:36:53Z</time>
      </trkpt>
      <trkpt lat="42.2889" lon="3.28122">
        <ele>6.8</ele>
        <time>2024-11-10T12:36:54Z</time>
      </trkpt>
      <trkpt lat="42.2889" lon="3.28122">
        <ele>6.8</ele>
        <time>2024-11-10T12:36:55Z</time>
      </trkpt>
      <trkpt lat="42.2889" lon="3.28122">
        <ele>6.8</ele>
        <time>2024-11-10T12:36:56Z</time>
      </trkpt>
      <trkpt lat="42.2889" lon="3.28122">
        <ele>6.8</ele>
        <time>2024-11-10T12:36:57Z</time>
      </trkpt>
      <trkpt lat="42.2889" lon="3.28122">
        <ele>6.8</ele>
        <time>2024-11-10T12:36:58Z</time>
      </trkpt>
      <trkpt lat="42.2889" lon="3.28121">
        <ele>6.8</ele>
        <time>2024-11-10T12:36:59Z</time>
      </trkpt>
      <trkpt lat="42.2889" lon="3.28121">
        <ele>6.8</ele>
        <time>2024-11-10T12:37:00Z</time>
      </trkpt>
      <trkpt lat="42.2889" lon="3.28121">
        <ele>6.8</ele>
        <time>2024-11-10T12:37:01Z</time>
      </trkpt>
      <trkpt lat="42.2889" lon="3.28121">
        <ele>6.8</ele>
        <time>2024-11-10T12:37:02Z</time>
      </trkpt>
      <trkpt lat="42.2889" lon="3.28121">
        <ele>6.8</ele>
        <time>2024-11-10T12:37:03Z</time>
      </trkpt>
      <trkpt lat="42.2889" lon="3.28121">
        <ele>6.8</ele>
        <time>2024-11-10T12:37:04Z</time>
      </trkpt>
      <trkpt lat="42.2889" lon="3.28121">
        <ele>6.8</ele>
        <time>2024-11-10T12:37:05Z</time>
      </trkpt>
      <trkpt lat="42.2889" lon="3.28121">
        <ele>6.8</ele>
        <time>2024-11-10T12:37:06Z</time>
      </trkpt>
      <trkpt lat="42.2889" lon="3.28121">
        <ele>6.8</ele>
        <time>2024-11-10T12:37:07Z</time>
      </trkpt>
      <trkpt lat="42.2889" lon="3.28121">
        <ele>6.8</ele>
        <time>2024-11-10T12:37:08Z</time>
      </trkpt>
      <trkpt lat="42.2889" lon="3.28121">
        <ele>6.8</ele>
        <time>2024-11-10T12:37:09Z</time>
      </trkpt>
      <trkpt lat="42.2889" lon="3.28122">
        <ele>6.8</ele>
        <time>2024-11-10T12:37:10Z</time>
      </trkpt>
      <trkpt lat="42.2889" lon="3.28122">
        <ele>6.8</ele>
        <time>2024-11-10T12:37:11Z</time>
      </trkpt>
      <trkpt lat="42.2889" lon="3.28121">
        <ele>6.8</ele>
        <time>2024-11-10T12:37:12Z</time>
      </trkpt>
      <trkpt lat="42.2889" lon="3.28121">
        <ele>6.8</ele>
        <time>2024-11-10T12:37:13Z</time>
      </trkpt>
      <trkpt lat="42.2889" lon="3.28121">
        <ele>6.8</ele>
        <time>2024-11-10T12:37:14Z</time>
      </trkpt>
      <trkpt lat="42.2889" lon="3.28121">
        <ele>6.8</ele>
        <time>2024-11-10T12:37:15Z</time>
      </trkpt>
      <trkpt lat="42.2889" lon="3.28122">
        <ele>6.8</ele>
        <time>2024-11-10T12:37:16Z</time>
      </trkpt>
      <trkpt lat="42.2889" lon="3.28122">
        <ele>6.8</ele>
        <time>2024-11-10T12:37:17Z</time>
      </trkpt>
      <trkpt lat="42.2889" lon="3.28121">
        <ele>6.8</ele>
        <time>2024-11-10T12:37:18Z</time>
      </trkpt>
      <trkpt lat="42.2889" lon="3.28121">
        <ele>6.8</ele>
        <time>2024-11-10T12:37:19Z</time>
      </trkpt>
      <trkpt lat="42.2889" lon="3.28121">
        <ele>6.8</ele>
        <time>2024-11-10T12:37:20Z</time>
      </trkpt>
      <trkpt lat="42.2889" lon="3.28121">
        <ele>6.8</ele>
        <time>2024-11-10T12:37:21Z</time>
      </trkpt>
      <trkpt lat="42.2889" lon="3.28121">
        <ele>6.8</ele>
        <time>2024-11-10T12:37:22Z</time>
      </trkpt>
      <trkpt lat="42.2889" lon="3.28121">
        <ele>6.8</ele>
        <time>2024-11-10T12:37:23Z</time>
      </trkpt>
      <trkpt lat="42.2889" lon="3.28121">
        <ele>6.8</ele>
        <time>2024-11-10T12:37:24Z</time>
      </trkpt>
      <trkpt lat="42.2889" lon="3.28121">
        <ele>6.8</ele>
        <time>2024-11-10T12:37:25Z</time>
      </trkpt>
      <trkpt lat="42.2889" lon="3.28121">
        <ele>6.8</ele>
        <time>2024-11-10T12:37:26Z</time>
      </trkpt>
      <trkpt lat="42.2889" lon="3.28121">
        <ele>6.8</ele>
        <time>2024-11-10T12:37:27Z</time>
      </trkpt>
      <trkpt lat="42.2889" lon="3.28121">
        <ele>6.8</ele>
        <time>2024-11-10T12:37:28Z</time>
      </trkpt>
      <trkpt lat="42.2889" lon="3.28121">
        <ele>6.8</ele>
        <time>2024-11-10T12:37:29Z</time>
      </trkpt>
      <trkpt lat="42.2889" lon="3.28121">
        <ele>6.8</ele>
        <time>2024-11-10T12:37:30Z</time>
      </trkpt>
      <trkpt lat="42.2889" lon="3.28121">
        <ele>6.8</ele>
        <time>2024-11-10T12:37:31Z</time>
      </trkpt>
      <trkpt lat="42.2889" lon="3.28121">
        <ele>6.8</ele>
        <time>2024-11-10T12:37:32Z</time>
      </trkpt>
      <trkpt lat="42.2889" lon="3.28121">
        <ele>6.8</ele>
        <time>2024-11-10T12:37:33Z</time>
      </trkpt>
      <trkpt lat="42.2889" lon="3.28121">
        <ele>6.8</ele>
        <time>2024-11-10T12:37:34Z</time>
      </trkpt>
      <trkpt lat="42.2889" lon="3.28121">
        <ele>6.8</ele>
        <time>2024-11-10T12:37:35Z</time>
      </trkpt>
      <trkpt lat="42.2889" lon="3.28121">
        <ele>6.8</ele>
        <time>2024-11-10T12:37:36Z</time>
      </trkpt>
      <trkpt lat="42.2889" lon="3.28121">
        <ele>6.8</ele>
        <time>2024-11-10T12:37:37Z</time>
      </trkpt>
      <trkpt lat="42.2889" lon="3.28121">
        <ele>6.8</ele>
        <time>2024-11-10T12:37:38Z</time>
      </trkpt>
      <trkpt lat="42.2889" lon="3.28121">
        <ele>6.8</ele>
        <time>2024-11-10T12:37:39Z</time>
      </trkpt>
      <trkpt lat="42.2889" lon="3.28121">
        <ele>6.8</ele>
        <time>2024-11-10T12:37:40Z</time>
      </trkpt>
      <trkpt lat="42.2889" lon="3.28121">
        <ele>6.8</ele>
        <time>2024-11-10T12:37:41Z</time>
      </trkpt>
      <trkpt lat="42.2889" lon="3.28121">
        <ele>6.8</ele>
        <time>2024-11-10T12:37:42Z</time>
      </trkpt>
      <trkpt lat="42.2889" lon="3.28121">
        <ele>6.8</ele>
        <time>2024-11-10T12:37:43Z</time>
      </trkpt>
      <trkpt lat="42.2889" lon="3.28121">
        <ele>6.8</ele>
        <time>2024-11-10T12:37:44Z</time>
      </trkpt>
      <trkpt lat="42.2889" lon="3.28121">
        <ele>6.8</ele>
        <time>2024-11-10T12:37:45Z</time>
      </trkpt>
      <trkpt lat="42.2889" lon="3.28121">
        <ele>6.8</ele>
        <time>2024-11-10T12:37:46Z</time>
      </trkpt>
      <trkpt lat="42.2889" lon="3.28121">
        <ele>6.8</ele>
        <time>2024-11-10T12:37:47Z</time>
      </trkpt>
      <trkpt lat="42.2889" lon="3.28121">
        <ele>6.8</ele>
        <time>2024-11-10T12:37:48Z</time>
      </trkpt>
      <trkpt lat="42.2889" lon="3.28121">
        <ele>6.8</ele>
        <time>2024-11-10T12:37:49Z</time>
      </trkpt>
      <trkpt lat="42.2889" lon="3.28121">
        <ele>6.8</ele>
        <time>2024-11-10T12:37:50Z</time>
      </trkpt>
      <trkpt lat="42.2889" lon="3.28121">
        <ele>6.8</ele>
        <time>2024-11-10T12:37:51Z</time>
      </trkpt>
      <trkpt lat="42.2889" lon="3.28121">
        <ele>6.8</ele>
        <time>2024-11-10T12:37:52Z</time>
      </trkpt>
      <trkpt lat="42.2889" lon="3.28121">
        <ele>6.8</ele>
        <time>2024-11-10T12:37:53Z</time>
      </trkpt>
      <trkpt lat="42.2889" lon="3.28121">
        <ele>6.8</ele>
        <time>2024-11-10T12:37:54Z</time>
      </trkpt>
      <trkpt lat="42.2889" lon="3.28121">
        <ele>6.8</ele>
        <time>2024-11-10T12:37:55Z</time>
      </trkpt>
      <trkpt lat="42.2889" lon="3.28121">
        <ele>6.8</ele>
        <time>2024-11-10T12:37:56Z</time>
      </trkpt>
      <trkpt lat="42.2889" lon="3.28121">
        <ele>6.8</ele>
        <time>2024-11-10T12:37:57Z</time>
      </trkpt>
      <trkpt lat="42.2889" lon="3.28121">
        <ele>6.8</ele>
        <time>2024-11-10T12:37:58Z</time>
      </trkpt>
      <trkpt lat="42.2889" lon="3.28121">
        <ele>6.8</ele>
        <time>2024-11-10T12:37:59Z</time>
      </trkpt>
      <trkpt lat="42.2889" lon="3.28121">
        <ele>6.8</ele>
        <time>2024-11-10T12:38:00Z</time>
      </trkpt>
      <trkpt lat="42.2889" lon="3.28121">
        <ele>6.8</ele>
        <time>2024-11-10T12:38:01Z</time>
      </trkpt>
      <trkpt lat="42.2889" lon="3.28121">
        <ele>6.8</ele>
        <time>2024-11-10T12:38:02Z</time>
      </trkpt>
      <trkpt lat="42.2889" lon="3.28121">
        <ele>6.8</ele>
        <time>2024-11-10T12:38:03Z</time>
      </trkpt>
      <trkpt lat="42.2889" lon="3.28121">
        <ele>6.8</ele>
        <time>2024-11-10T12:38:04Z</time>
      </trkpt>
      <trkpt lat="42.2889" lon="3.28121">
        <ele>6.8</ele>
        <time>2024-11-10T12:38:05Z</time>
      </trkpt>
      <trkpt lat="42.2889" lon="3.28121">
        <ele>6.8</ele>
        <time>2024-11-10T12:38:06Z</time>
      </trkpt>
      <trkpt lat="42.2889" lon="3.28121">
        <ele>6.8</ele>
        <time>2024-11-10T12:38:07Z</time>
      </trkpt>
      <trkpt lat="42.2889" lon="3.28121">
        <ele>6.8</ele>
        <time>2024-11-10T12:38:08Z</time>
      </trkpt>
      <trkpt lat="42.2889" lon="3.28121">
        <ele>6.8</ele>
        <time>2024-11-10T12:38:09Z</time>
      </trkpt>
      <trkpt lat="42.2889" lon="3.28121">
        <ele>6.8</ele>
        <time>2024-11-10T12:38:10Z</time>
      </trkpt>
      <trkpt lat="42.2889" lon="3.28121">
        <ele>6.8</ele>
        <time>2024-11-10T12:38:11Z</time>
      </trkpt>
      <trkpt lat="42.2889" lon="3.28121">
        <ele>6.8</ele>
        <time>2024-11-10T12:38:12Z</time>
      </trkpt>
      <trkpt lat="42.2889" lon="3.28121">
        <ele>6.8</ele>
        <time>2024-11-10T12:38:13Z</time>
      </trkpt>
      <trkpt lat="42.2889" lon="3.28121">
        <ele>6.8</ele>
        <time>2024-11-10T12:38:14Z</time>
      </trkpt>
      <trkpt lat="42.28892" lon="3.28124">
        <ele>6.9</ele>
        <time>2024-11-10T12:38:15Z</time>
      </trkpt>
      <trkpt lat="42.28892" lon="3.28125">
        <ele>6.9</ele>
        <time>2024-11-10T12:38:16Z</time>
      </trkpt>
      <trkpt lat="42.28892" lon="3.28125">
        <ele>6.9</ele>
        <time>2024-11-10T12:38:17Z</time>
      </trkpt>
      <trkpt lat="42.28892" lon="3.28125">
        <ele>6.9</ele>
        <time>2024-11-10T12:38:18Z</time>
      </trkpt>
      <trkpt lat="42.28891" lon="3.28123">
        <ele>6.9</ele>
        <time>2024-11-10T12:38:19Z</time>
      </trkpt>
      <trkpt lat="42.2889" lon="3.28121">
        <ele>6.9</ele>
        <time>2024-11-10T12:38:20Z</time>
      </trkpt>
      <trkpt lat="42.2889" lon="3.28121">
        <ele>6.9</ele>
        <time>2024-11-10T12:38:21Z</time>
      </trkpt>
      <trkpt lat="42.2889" lon="3.28121">
        <ele>6.9</ele>
        <time>2024-11-10T12:38:22Z</time>
      </trkpt>
      <trkpt lat="42.2889" lon="3.28121">
        <ele>6.9</ele>
        <time>2024-11-10T12:38:23Z</time>
      </trkpt>
      <trkpt lat="42.2889" lon="3.28121">
        <ele>6.9</ele>
        <time>2024-11-10T12:38:24Z</time>
      </trkpt>
      <trkpt lat="42.2889" lon="3.28121">
        <ele>6.9</ele>
        <time>2024-11-10T12:38:25Z</time>
      </trkpt>
      <trkpt lat="42.2889" lon="3.28122">
        <ele>6.9</ele>
        <time>2024-11-10T12:38:26Z</time>
      </trkpt>
      <trkpt lat="42.2889" lon="3.28122">
        <ele>6.9</ele>
        <time>2024-11-10T12:38:27Z</time>
      </trkpt>
      <trkpt lat="42.2889" lon="3.28122">
        <ele>6.9</ele>
        <time>2024-11-10T12:38:28Z</time>
      </trkpt>
      <trkpt lat="42.2889" lon="3.28122">
        <ele>6.9</ele>
        <time>2024-11-10T12:38:29Z</time>
      </trkpt>
      <trkpt lat="42.2889" lon="3.28121">
        <ele>6.9</ele>
        <time>2024-11-10T12:38:30Z</time>
      </trkpt>
      <trkpt lat="42.2889" lon="3.28121">
        <ele>6.9</ele>
        <time>2024-11-10T12:38:31Z</time>
      </trkpt>
      <trkpt lat="42.2889" lon="3.28121">
        <ele>6.9</ele>
        <time>2024-11-10T12:38:32Z</time>
      </trkpt>
      <trkpt lat="42.2889" lon="3.28121">
        <ele>6.9</ele>
        <time>2024-11-10T12:38:33Z</time>
      </trkpt>
      <trkpt lat="42.2889" lon="3.28121">
        <ele>6.9</ele>
        <time>2024-11-10T12:38:34Z</time>
      </trkpt>
      <trkpt lat="42.2889" lon="3.28121">
        <ele>6.9</ele>
        <time>2024-11-10T12:38:35Z</time>
      </trkpt>
      <trkpt lat="42.2889" lon="3.28122">
        <ele>6.9</ele>
        <time>2024-11-10T12:38:36Z</time>
      </trkpt>
      <trkpt lat="42.2889" lon="3.28122">
        <ele>6.9</ele>
        <time>2024-11-10T12:38:37Z</time>
      </trkpt>
      <trkpt lat="42.2889" lon="3.28122">
        <ele>6.9</ele>
        <time>2024-11-10T12:38:38Z</time>
      </trkpt>
      <trkpt lat="42.2889" lon="3.28122">
        <ele>6.9</ele>
        <time>2024-11-10T12:38:39Z</time>
      </trkpt>
      <trkpt lat="42.28892" lon="3.28124">
        <ele>6.9</ele>
        <time>2024-11-10T12:38:40Z</time>
      </trkpt>
      <trkpt lat="42.28891" lon="3.28123">
        <ele>6.9</ele>
        <time>2024-11-10T12:38:41Z</time>
      </trkpt>
      <trkpt lat="42.28891" lon="3.28123">
        <ele>6.9</ele>
        <time>2024-11-10T12:38:42Z</time>
      </trkpt>
      <trkpt lat="42.28891" lon="3.28122">
        <ele>6.9</ele>
        <time>2024-11-10T12:38:43Z</time>
      </trkpt>
      <trkpt lat="42.28891" lon="3.28122">
        <ele>6.9</ele>
        <time>2024-11-10T12:38:44Z</time>
      </trkpt>
      <trkpt lat="42.2889" lon="3.28121">
        <ele>6.9</ele>
        <time>2024-11-10T12:38:45Z</time>
      </trkpt>
      <trkpt lat="42.2889" lon="3.28121">
        <ele>6.9</ele>
        <time>2024-11-10T12:38:46Z</time>
      </trkpt>
      <trkpt lat="42.2889" lon="3.28121">
        <ele>6.9</ele>
        <time>2024-11-10T12:38:47Z</time>
      </trkpt>
      <trkpt lat="42.2889" lon="3.28121">
        <ele>6.9</ele>
        <time>2024-11-10T12:38:48Z</time>
      </trkpt>
      <trkpt lat="42.2889" lon="3.28121">
        <ele>6.9</ele>
        <time>2024-11-10T12:38:49Z</time>
      </trkpt>
      <trkpt lat="42.2889" lon="3.28122">
        <ele>6.9</ele>
        <time>2024-11-10T12:38:50Z</time>
      </trkpt>
      <trkpt lat="42.2889" lon="3.28122">
        <ele>6.9</ele>
        <time>2024-11-10T12:38:51Z</time>
      </trkpt>
      <trkpt lat="42.2889" lon="3.28122">
        <ele>6.9</ele>
        <time>2024-11-10T12:38:52Z</time>
      </trkpt>
      <trkpt lat="42.2889" lon="3.28122">
        <ele>6.9</ele>
        <time>2024-11-10T12:38:53Z</time>
      </trkpt>
      <trkpt lat="42.2889" lon="3.28122">
        <ele>6.9</ele>
        <time>2024-11-10T12:38:54Z</time>
      </trkpt>
      <trkpt lat="42.2889" lon="3.28122">
        <ele>6.9</ele>
        <time>2024-11-10T12:38:55Z</time>
      </trkpt>
      <trkpt lat="42.2889" lon="3.28122">
        <ele>6.9</ele>
        <time>2024-11-10T12:38:56Z</time>
      </trkpt>
      <trkpt lat="42.2889" lon="3.28122">
        <ele>6.9</ele>
        <time>2024-11-10T12:38:57Z</time>
      </trkpt>
      <trkpt lat="42.2889" lon="3.28122">
        <ele>6.9</ele>
        <time>2024-11-10T12:38:58Z</time>
      </trkpt>
      <trkpt lat="42.2889" lon="3.28121">
        <ele>6.9</ele>
        <time>2024-11-10T12:38:59Z</time>
      </trkpt>
      <trkpt lat="42.2889" lon="3.28121">
        <ele>6.9</ele>
        <time>2024-11-10T12:39:00Z</time>
      </trkpt>
      <trkpt lat="42.2889" lon="3.28121">
        <ele>6.9</ele>
        <time>2024-11-10T12:39:01Z</time>
      </trkpt>
      <trkpt lat="42.2889" lon="3.28121">
        <ele>6.9</ele>
        <time>2024-11-10T12:39:02Z</time>
      </trkpt>
      <trkpt lat="42.2889" lon="3.28121">
        <ele>6.9</ele>
        <time>2024-11-10T12:39:03Z</time>
      </trkpt>
      <trkpt lat="42.2889" lon="3.28122">
        <ele>6.9</ele>
        <time>2024-11-10T12:39:04Z</time>
      </trkpt>
      <trkpt lat="42.2889" lon="3.28121">
        <ele>6.9</ele>
        <time>2024-11-10T12:39:05Z</time>
      </trkpt>
      <trkpt lat="42.2889" lon="3.28121">
        <ele>6.9</ele>
        <time>2024-11-10T12:39:06Z</time>
      </trkpt>
      <trkpt lat="42.2889" lon="3.28121">
        <ele>6.9</ele>
        <time>2024-11-10T12:39:07Z</time>
      </trkpt>
      <trkpt lat="42.2889" lon="3.28121">
        <ele>6.9</ele>
        <time>2024-11-10T12:39:08Z</time>
      </trkpt>
      <trkpt lat="42.2889" lon="3.28121">
        <ele>6.9</ele>
        <time>2024-11-10T12:39:09Z</time>
      </trkpt>
      <trkpt lat="42.2889" lon="3.28122">
        <ele>6.9</ele>
        <time>2024-11-10T12:39:10Z</time>
      </trkpt>
      <trkpt lat="42.2889" lon="3.28122">
        <ele>6.9</ele>
        <time>2024-11-10T12:39:11Z</time>
      </trkpt>
      <trkpt lat="42.2889" lon="3.28122">
        <ele>6.9</ele>
        <time>2024-11-10T12:39:12Z</time>
      </trkpt>
      <trkpt lat="42.2889" lon="3.28122">
        <ele>6.9</ele>
        <time>2024-11-10T12:39:13Z</time>
      </trkpt>
      <trkpt lat="42.2889" lon="3.28122">
        <ele>6.9</ele>
        <time>2024-11-10T12:39:14Z</time>
      </trkpt>
      <trkpt lat="42.2889" lon="3.28121">
        <ele>6.9</ele>
        <time>2024-11-10T12:39:15Z</time>
      </trkpt>
      <trkpt lat="42.2889" lon="3.28121">
        <ele>6.9</ele>
        <time>2024-11-10T12:39:16Z</time>
      </trkpt>
      <trkpt lat="42.2889" lon="3.28121">
        <ele>6.9</ele>
        <time>2024-11-10T12:39:17Z</time>
      </trkpt>
      <trkpt lat="42.2889" lon="3.28121">
        <ele>6.9</ele>
        <time>2024-11-10T12:39:18Z</time>
      </trkpt>
      <trkpt lat="42.2889" lon="3.28121">
        <ele>6.9</ele>
        <time>2024-11-10T12:39:19Z</time>
      </trkpt>
      <trkpt lat="42.2889" lon="3.28121">
        <ele>6.9</ele>
        <time>2024-11-10T12:39:20Z</time>
      </trkpt>
      <trkpt lat="42.2889" lon="3.28121">
        <ele>6.9</ele>
        <time>2024-11-10T12:39:21Z</time>
      </trkpt>
      <trkpt lat="42.2889" lon="3.28121">
        <ele>6.9</ele>
        <time>2024-11-10T12:39:22Z</time>
      </trkpt>
      <trkpt lat="42.2889" lon="3.28121">
        <ele>6.9</ele>
        <time>2024-11-10T12:39:23Z</time>
      </trkpt>
      <trkpt lat="42.2889" lon="3.28121">
        <ele>6.9</ele>
        <time>2024-11-10T12:39:24Z</time>
      </trkpt>
      <trkpt lat="42.2889" lon="3.28121">
        <ele>6.9</ele>
        <time>2024-11-10T12:39:25Z</time>
      </trkpt>
      <trkpt lat="42.2889" lon="3.28121">
        <ele>6.9</ele>
        <time>2024-11-10T12:39:26Z</time>
      </trkpt>
      <trkpt lat="42.2889" lon="3.28121">
        <ele>6.9</ele>
        <time>2024-11-10T12:39:27Z</time>
      </trkpt>
      <trkpt lat="42.2889" lon="3.28121">
        <ele>6.9</ele>
        <time>2024-11-10T12:39:28Z</time>
      </trkpt>
      <trkpt lat="42.2889" lon="3.28121">
        <ele>6.9</ele>
        <time>2024-11-10T12:39:29Z</time>
      </trkpt>
      <trkpt lat="42.2889" lon="3.28122">
        <ele>6.9</ele>
        <time>2024-11-10T12:39:30Z</time>
      </trkpt>
      <trkpt lat="42.2889" lon="3.28122">
        <ele>6.9</ele>
        <time>2024-11-10T12:39:31Z</time>
      </trkpt>
      <trkpt lat="42.2889" lon="3.28122">
        <ele>6.9</ele>
        <time>2024-11-10T12:39:32Z</time>
      </trkpt>
      <trkpt lat="42.2889" lon="3.28122">
        <ele>6.9</ele>
        <time>2024-11-10T12:39:33Z</time>
      </trkpt>
      <trkpt lat="42.2889" lon="3.28122">
        <ele>6.9</ele>
        <time>2024-11-10T12:39:34Z</time>
      </trkpt>
      <trkpt lat="42.2889" lon="3.28121">
        <ele>6.9</ele>
        <time>2024-11-10T12:39:35Z</time>
      </trkpt>
      <trkpt lat="42.2889" lon="3.28121">
        <ele>6.9</ele>
        <time>2024-11-10T12:39:36Z</time>
      </trkpt>
      <trkpt lat="42.2889" lon="3.28121">
        <ele>6.9</ele>
        <time>2024-11-10T12:39:37Z</time>
      </trkpt>
      <trkpt lat="42.2889" lon="3.28121">
        <ele>6.9</ele>
        <time>2024-11-10T12:39:38Z</time>
      </trkpt>
      <trkpt lat="42.2889" lon="3.28121">
        <ele>6.9</ele>
        <time>2024-11-10T12:39:39Z</time>
      </trkpt>
      <trkpt lat="42.2889" lon="3.28121">
        <ele>6.9</ele>
        <time>2024-11-10T12:39:40Z</time>
      </trkpt>
      <trkpt lat="42.2889" lon="3.28121">
        <ele>6.9</ele>
        <time>2024-11-10T12:39:41Z</time>
      </trkpt>
      <trkpt lat="42.2889" lon="3.28121">
        <ele>6.9</ele>
        <time>2024-11-10T12:39:42Z</time>
      </trkpt>
      <trkpt lat="42.2889" lon="3.28121">
        <ele>6.9</ele>
        <time>2024-11-10T12:39:43Z</time>
      </trkpt>
      <trkpt lat="42.2889" lon="3.28121">
        <ele>6.9</ele>
        <time>2024-11-10T12:39:44Z</time>
      </trkpt>
      <trkpt lat="42.2889" lon="3.28121">
        <ele>6.9</ele>
        <time>2024-11-10T12:39:45Z</time>
      </trkpt>
      <trkpt lat="42.28892" lon="3.28124">
        <ele>6.9</ele>
        <time>2024-11-10T12:39:46Z</time>
      </trkpt>
      <trkpt lat="42.28892" lon="3.28125">
        <ele>6.9</ele>
        <time>2024-11-10T12:39:47Z</time>
      </trkpt>
      <trkpt lat="42.28892" lon="3.28125">
        <ele>6.9</ele>
        <time>2024-11-10T12:39:48Z</time>
      </trkpt>
      <trkpt lat="42.28892" lon="3.28125">
        <ele>6.9</ele>
        <time>2024-11-10T12:39:49Z</time>
      </trkpt>
      <trkpt lat="42.28891" lon="3.28122">
        <ele>6.9</ele>
        <time>2024-11-10T12:39:50Z</time>
      </trkpt>
      <trkpt lat="42.2889" lon="3.28121">
        <ele>6.9</ele>
        <time>2024-11-10T12:39:51Z</time>
      </trkpt>
      <trkpt lat="42.2889" lon="3.28121">
        <ele>6.9</ele>
        <time>2024-11-10T12:39:52Z</time>
      </trkpt>
      <trkpt lat="42.2889" lon="3.28121">
        <ele>6.9</ele>
        <time>2024-11-10T12:39:53Z</time>
      </trkpt>
      <trkpt lat="42.2889" lon="3.28121">
        <ele>6.9</ele>
        <time>2024-11-10T12:39:54Z</time>
      </trkpt>
      <trkpt lat="42.2889" lon="3.28121">
        <ele>6.9</ele>
        <time>2024-11-10T12:39:55Z</time>
      </trkpt>
      <trkpt lat="42.2889" lon="3.28121">
        <ele>6.9</ele>
        <time>2024-11-10T12:39:56Z</time>
      </trkpt>
      <trkpt lat="42.2889" lon="3.28121">
        <ele>6.9</ele>
        <time>2024-11-10T12:39:57Z</time>
      </trkpt>
      <trkpt lat="42.2889" lon="3.28121">
        <ele>6.9</ele>
        <time>2024-11-10T12:39:58Z</time>
      </trkpt>
      <trkpt lat="42.2889" lon="3.28121">
        <ele>6.9</ele>
        <time>2024-11-10T12:39:59Z</time>
      </trkpt>
      <trkpt lat="42.2889" lon="3.28122">
        <ele>6.9</ele>
        <time>2024-11-10T12:40:00Z</time>
      </trkpt>
      <trkpt lat="42.2889" lon="3.28122">
        <ele>6.9</ele>
        <time>2024-11-10T12:40:01Z</time>
      </trkpt>
      <trkpt lat="42.2889" lon="3.28122">
        <ele>6.9</ele>
        <time>2024-11-10T12:40:02Z</time>
      </trkpt>
      <trkpt lat="42.2889" lon="3.28122">
        <ele>6.9</ele>
        <time>2024-11-10T12:40:03Z</time>
      </trkpt>
      <trkpt lat="42.2889" lon="3.28122">
        <ele>6.9</ele>
        <time>2024-11-10T12:40:04Z</time>
      </trkpt>
      <trkpt lat="42.2889" lon="3.28121">
        <ele>6.9</ele>
        <time>2024-11-10T12:40:05Z</time>
      </trkpt>
      <trkpt lat="42.2889" lon="3.28121">
        <ele>6.9</ele>
        <time>2024-11-10T12:40:06Z</time>
      </trkpt>
      <trkpt lat="42.2889" lon="3.28121">
        <ele>6.9</ele>
        <time>2024-11-10T12:40:07Z</time>
      </trkpt>
      <trkpt lat="42.2889" lon="3.28121">
        <ele>6.9</ele>
        <time>2024-11-10T12:40:08Z</time>
      </trkpt>
      <trkpt lat="42.2889" lon="3.28121">
        <ele>6.9</ele>
        <time>2024-11-10T12:40:09Z</time>
      </trkpt>
      <trkpt lat="42.2889" lon="3.28122">
        <ele>6.9</ele>
        <time>2024-11-10T12:40:10Z</time>
      </trkpt>
      <trkpt lat="42.2889" lon="3.28122">
        <ele>6.9</ele>
        <time>2024-11-10T12:40:11Z</time>
      </trkpt>
      <trkpt lat="42.2889" lon="3.28122">
        <ele>6.9</ele>
        <time>2024-11-10T12:40:12Z</time>
      </trkpt>
      <trkpt lat="42.2889" lon="3.28122">
        <ele>6.9</ele>
        <time>2024-11-10T12:40:13Z</time>
      </trkpt>
      <trkpt lat="42.2889" lon="3.28122">
        <ele>6.9</ele>
        <time>2024-11-10T12:40:14Z</time>
      </trkpt>
      <trkpt lat="42.2889" lon="3.28121">
        <ele>6.9</ele>
        <time>2024-11-10T12:40:15Z</time>
      </trkpt>
      <trkpt lat="42.2889" lon="3.28121">
        <ele>6.9</ele>
        <time>2024-11-10T12:40:16Z</time>
      </trkpt>
      <trkpt lat="42.2889" lon="3.28121">
        <ele>6.9</ele>
        <time>2024-11-10T12:40:17Z</time>
      </trkpt>
      <trkpt lat="42.2889" lon="3.28121">
        <ele>6.9</ele>
        <time>2024-11-10T12:40:18Z</time>
      </trkpt>
      <trkpt lat="42.2889" lon="3.28121">
        <ele>6.9</ele>
        <time>2024-11-10T12:40:19Z</time>
      </trkpt>
      <trkpt lat="42.28892" lon="3.28124">
        <ele>6.9</ele>
        <time>2024-11-10T12:40:20Z</time>
      </trkpt>
      <trkpt lat="42.28892" lon="3.28125">
        <ele>6.9</ele>
        <time>2024-11-10T12:40:21Z</time>
      </trkpt>
      <trkpt lat="42.28892" lon="3.28125">
        <ele>6.9</ele>
        <time>2024-11-10T12:40:22Z</time>
      </trkpt>
      <trkpt lat="42.28891" lon="3.28123">
        <ele>6.9</ele>
        <time>2024-11-10T12:40:23Z</time>
      </trkpt>
      <trkpt lat="42.28891" lon="3.28122">
        <ele>6.9</ele>
        <time>2024-11-10T12:40:24Z</time>
      </trkpt>
      <trkpt lat="42.2889" lon="3.28122">
        <ele>6.9</ele>
        <time>2024-11-10T12:40:25Z</time>
      </trkpt>
      <trkpt lat="42.2889" lon="3.28121">
        <ele>6.9</ele>
        <time>2024-11-10T12:40:26Z</time>
      </trkpt>
      <trkpt lat="42.2889" lon="3.28121">
        <ele>6.9</ele>
        <time>2024-11-10T12:40:27Z</time>
      </trkpt>
      <trkpt lat="42.2889" lon="3.28121">
        <ele>6.9</ele>
        <time>2024-11-10T12:40:28Z</time>
      </trkpt>
      <trkpt lat="42.2889" lon="3.28121">
        <ele>6.9</ele>
        <time>2024-11-10T12:40:29Z</time>
      </trkpt>
      <trkpt lat="42.2889" lon="3.28121">
        <ele>6.9</ele>
        <time>2024-11-10T12:40:30Z</time>
      </trkpt>
      <trkpt lat="42.2889" lon="3.28121">
        <ele>6.9</ele>
        <time>2024-11-10T12:40:31Z</time>
      </trkpt>
      <trkpt lat="42.2889" lon="3.28121">
        <ele>6.9</ele>
        <time>2024-11-10T12:40:32Z</time>
      </trkpt>
      <trkpt lat="42.2889" lon="3.28121">
        <ele>6.9</ele>
        <time>2024-11-10T12:40:33Z</time>
      </trkpt>
      <trkpt lat="42.2889" lon="3.28121">
        <ele>6.9</ele>
        <time>2024-11-10T12:40:34Z</time>
      </trkpt>
      <trkpt lat="42.2889" lon="3.28121">
        <ele>6.9</ele>
        <time>2024-11-10T12:40:35Z</time>
      </trkpt>
      <trkpt lat="42.2889" lon="3.28121">
        <ele>6.9</ele>
        <time>2024-11-10T12:40:36Z</time>
      </trkpt>
      <trkpt lat="42.2889" lon="3.28121">
        <ele>6.9</ele>
        <time>2024-11-10T12:40:37Z</time>
      </trkpt>
      <trkpt lat="42.2889" lon="3.28121">
        <ele>6.9</ele>
        <time>2024-11-10T12:40:38Z</time>
      </trkpt>
      <trkpt lat="42.2889" lon="3.28121">
        <ele>6.9</ele>
        <time>2024-11-10T12:40:39Z</time>
      </trkpt>
      <trkpt lat="42.2889" lon="3.28121">
        <ele>6.9</ele>
        <time>2024-11-10T12:40:40Z</time>
      </trkpt>
      <trkpt lat="42.2889" lon="3.28121">
        <ele>6.9</ele>
        <time>2024-11-10T12:40:41Z</time>
      </trkpt>
      <trkpt lat="42.2889" lon="3.28121">
        <ele>6.9</ele>
        <time>2024-11-10T12:40:42Z</time>
      </trkpt>
      <trkpt lat="42.2889" lon="3.28121">
        <ele>6.9</ele>
        <time>2024-11-10T12:40:43Z</time>
      </trkpt>
      <trkpt lat="42.2889" lon="3.28121">
        <ele>6.9</ele>
        <time>2024-11-10T12:40:44Z</time>
      </trkpt>
      <trkpt lat="42.2889" lon="3.28121">
        <ele>6.9</ele>
        <time>2024-11-10T12:40:45Z</time>
      </trkpt>
      <trkpt lat="42.2889" lon="3.28121">
        <ele>6.9</ele>
        <time>2024-11-10T12:40:46Z</time>
      </trkpt>
      <trkpt lat="42.2889" lon="3.28121">
        <ele>6.9</ele>
        <time>2024-11-10T12:40:47Z</time>
      </trkpt>
      <trkpt lat="42.2889" lon="3.28121">
        <ele>6.9</ele>
        <time>2024-11-10T12:40:48Z</time>
      </trkpt>
      <trkpt lat="42.2889" lon="3.28121">
        <ele>6.9</ele>
        <time>2024-11-10T12:40:49Z</time>
      </trkpt>
      <trkpt lat="42.2889" lon="3.28122">
        <ele>6.9</ele>
        <time>2024-11-10T12:40:50Z</time>
      </trkpt>
      <trkpt lat="42.2889" lon="3.28122">
        <ele>6.9</ele>
        <time>2024-11-10T12:40:51Z</time>
      </trkpt>
      <trkpt lat="42.2889" lon="3.28122">
        <ele>6.9</ele>
        <time>2024-11-10T12:40:52Z</time>
      </trkpt>
      <trkpt lat="42.2889" lon="3.28122">
        <ele>6.9</ele>
        <time>2024-11-10T12:40:53Z</time>
      </trkpt>
      <trkpt lat="42.2889" lon="3.28122">
        <ele>6.9</ele>
        <time>2024-11-10T12:40:54Z</time>
      </trkpt>
      <trkpt lat="42.2889" lon="3.28122">
        <ele>6.9</ele>
        <time>2024-11-10T12:40:55Z</time>
      </trkpt>
      <trkpt lat="42.2889" lon="3.28122">
        <ele>6.9</ele>
        <time>2024-11-10T12:40:56Z</time>
      </trkpt>
      <trkpt lat="42.2889" lon="3.28122">
        <ele>6.9</ele>
        <time>2024-11-10T12:40:57Z</time>
      </trkpt>
      <trkpt lat="42.2889" lon="3.28122">
        <ele>6.9</ele>
        <time>2024-11-10T12:40:58Z</time>
      </trkpt>
      <trkpt lat="42.2889" lon="3.28122">
        <ele>6.9</ele>
        <time>2024-11-10T12:40:59Z</time>
      </trkpt>
      <trkpt lat="42.2889" lon="3.28122">
        <ele>6.9</ele>
        <time>2024-11-10T12:41:00Z</time>
      </trkpt>
      <trkpt lat="42.28891" lon="3.28122">
        <ele>6.9</ele>
        <time>2024-11-10T12:41:01Z</time>
      </trkpt>
      <trkpt lat="42.28891" lon="3.28122">
        <ele>6.9</ele>
        <time>2024-11-10T12:41:02Z</time>
      </trkpt>
      <trkpt lat="42.28891" lon="3.28122">
        <ele>6.9</ele>
        <time>2024-11-10T12:41:03Z</time>
      </trkpt>
      <trkpt lat="42.28891" lon="3.28122">
        <ele>6.9</ele>
        <time>2024-11-10T12:41:04Z</time>
      </trkpt>
      <trkpt lat="42.2889" lon="3.28122">
        <ele>6.9</ele>
        <time>2024-11-10T12:41:05Z</time>
      </trkpt>
      <trkpt lat="42.2889" lon="3.28122">
        <ele>6.9</ele>
        <time>2024-11-10T12:41:06Z</time>
      </trkpt>
      <trkpt lat="42.2889" lon="3.28122">
        <ele>6.9</ele>
        <time>2024-11-10T12:41:07Z</time>
      </trkpt>
      <trkpt lat="42.2889" lon="3.28122">
        <ele>6.9</ele>
        <time>2024-11-10T12:41:08Z</time>
      </trkpt>
      <trkpt lat="42.2889" lon="3.28122">
        <ele>6.9</ele>
        <time>2024-11-10T12:41:09Z</time>
      </trkpt>
      <trkpt lat="42.28891" lon="3.28122">
        <ele>6.9</ele>
        <time>2024-11-10T12:41:10Z</time>
      </trkpt>
      <trkpt lat="42.28891" lon="3.28122">
        <ele>6.9</ele>
        <time>2024-11-10T12:41:11Z</time>
      </trkpt>
      <trkpt lat="42.28891" lon="3.28122">
        <ele>6.9</ele>
        <time>2024-11-10T12:41:12Z</time>
      </trkpt>
      <trkpt lat="42.28891" lon="3.28122">
        <ele>6.9</ele>
        <time>2024-11-10T12:41:13Z</time>
      </trkpt>
      <trkpt lat="42.28891" lon="3.28122">
        <ele>6.9</ele>
        <time>2024-11-10T12:41:14Z</time>
      </trkpt>
      <trkpt lat="42.28891" lon="3.28122">
        <ele>6.9</ele>
        <time>2024-11-10T12:41:15Z</time>
      </trkpt>
      <trkpt lat="42.28891" lon="3.28122">
        <ele>6.9</ele>
        <time>2024-11-10T12:41:16Z</time>
      </trkpt>
      <trkpt lat="42.28891" lon="3.28122">
        <ele>6.9</ele>
        <time>2024-11-10T12:41:17Z</time>
      </trkpt>
      <trkpt lat="42.28891" lon="3.28122">
        <ele>6.9</ele>
        <time>2024-11-10T12:41:18Z</time>
      </trkpt>
      <trkpt lat="42.28891" lon="3.28122">
        <ele>6.9</ele>
        <time>2024-11-10T12:41:19Z</time>
      </trkpt>
      <trkpt lat="42.28891" lon="3.28122">
        <ele>6.9</ele>
        <time>2024-11-10T12:41:20Z</time>
      </trkpt>
      <trkpt lat="42.28891" lon="3.28122">
        <ele>6.9</ele>
        <time>2024-11-10T12:41:21Z</time>
      </trkpt>
      <trkpt lat="42.28891" lon="3.28122">
        <ele>6.9</ele>
        <time>2024-11-10T12:41:22Z</time>
      </trkpt>
      <trkpt lat="42.28891" lon="3.28122">
        <ele>6.9</ele>
        <time>2024-11-10T12:41:23Z</time>
      </trkpt>
      <trkpt lat="42.28891" lon="3.28122">
        <ele>6.9</ele>
        <time>2024-11-10T12:41:24Z</time>
      </trkpt>
      <trkpt lat="42.28891" lon="3.28122">
        <ele>6.9</ele>
        <time>2024-11-10T12:41:25Z</time>
      </trkpt>
      <trkpt lat="42.2889" lon="3.28121">
        <ele>6.9</ele>
        <time>2024-11-10T12:41:26Z</time>
      </trkpt>
      <trkpt lat="42.2889" lon="3.28121">
        <ele>6.9</ele>
        <time>2024-11-10T12:41:27Z</time>
      </trkpt>
      <trkpt lat="42.2889" lon="3.28121">
        <ele>6.9</ele>
        <time>2024-11-10T12:41:28Z</time>
      </trkpt>
      <trkpt lat="42.2889" lon="3.28121">
        <ele>6.9</ele>
        <time>2024-11-10T12:41:29Z</time>
      </trkpt>
      <trkpt lat="42.2889" lon="3.28121">
        <ele>6.9</ele>
        <time>2024-11-10T12:41:30Z</time>
      </trkpt>
      <trkpt lat="42.2889" lon="3.28121">
        <ele>6.9</ele>
        <time>2024-11-10T12:41:31Z</time>
      </trkpt>
      <trkpt lat="42.2889" lon="3.28121">
        <ele>6.9</ele>
        <time>2024-11-10T12:41:32Z</time>
      </trkpt>
      <trkpt lat="42.2889" lon="3.28121">
        <ele>6.9</ele>
        <time>2024-11-10T12:41:33Z</time>
      </trkpt>
      <trkpt lat="42.2889" lon="3.28121">
        <ele>6.9</ele>
        <time>2024-11-10T12:41:34Z</time>
      </trkpt>
      <trkpt lat="42.2889" lon="3.28121">
        <ele>6.9</ele>
        <time>2024-11-10T12:41:35Z</time>
      </trkpt>
      <trkpt lat="42.2889" lon="3.28121">
        <ele>6.9</ele>
        <time>2024-11-10T12:41:36Z</time>
      </trkpt>
      <trkpt lat="42.2889" lon="3.28121">
        <ele>6.9</ele>
        <time>2024-11-10T12:41:37Z</time>
      </trkpt>
      <trkpt lat="42.2889" lon="3.28121">
        <ele>6.9</ele>
        <time>2024-11-10T12:41:38Z</time>
      </trkpt>
      <trkpt lat="42.2889" lon="3.28121">
        <ele>6.9</ele>
        <time>2024-11-10T12:41:39Z</time>
      </trkpt>
      <trkpt lat="42.2889" lon="3.28121">
        <ele>6.9</ele>
        <time>2024-11-10T12:41:40Z</time>
      </trkpt>
      <trkpt lat="42.2889" lon="3.28121">
        <ele>6.9</ele>
        <time>2024-11-10T12:41:41Z</time>
      </trkpt>
      <trkpt lat="42.2889" lon="3.28121">
        <ele>6.9</ele>
        <time>2024-11-10T12:41:42Z</time>
      </trkpt>
      <trkpt lat="42.2889" lon="3.28121">
        <ele>6.9</ele>
        <time>2024-11-10T12:41:43Z</time>
      </trkpt>
      <trkpt lat="42.2889" lon="3.28121">
        <ele>6.9</ele>
        <time>2024-11-10T12:41:44Z</time>
      </trkpt>
      <trkpt lat="42.2889" lon="3.28121">
        <ele>6.9</ele>
        <time>2024-11-10T12:41:45Z</time>
      </trkpt>
      <trkpt lat="42.28892" lon="3.28124">
        <ele>6.9</ele>
        <time>2024-11-10T12:41:46Z</time>
      </trkpt>
      <trkpt lat="42.28892" lon="3.28125">
        <ele>7</ele>
        <time>2024-11-10T12:41:47Z</time>
      </trkpt>
      <trkpt lat="42.28892" lon="3.28125">
        <ele>7</ele>
        <time>2024-11-10T12:41:48Z</time>
      </trkpt>
      <trkpt lat="42.28892" lon="3.28125">
        <ele>7</ele>
        <time>2024-11-10T12:41:49Z</time>
      </trkpt>
      <trkpt lat="42.28892" lon="3.28125">
        <ele>7</ele>
        <time>2024-11-10T12:41:50Z</time>
      </trkpt>
      <trkpt lat="42.28891" lon="3.28122">
        <ele>7</ele>
        <time>2024-11-10T12:41:51Z</time>
      </trkpt>
      <trkpt lat="42.2889" lon="3.28121">
        <ele>7</ele>
        <time>2024-11-10T12:41:52Z</time>
      </trkpt>
      <trkpt lat="42.2889" lon="3.28121">
        <ele>7</ele>
        <time>2024-11-10T12:41:53Z</time>
      </trkpt>
      <trkpt lat="42.2889" lon="3.28121">
        <ele>7</ele>
        <time>2024-11-10T12:41:54Z</time>
      </trkpt>
      <trkpt lat="42.2889" lon="3.28121">
        <ele>7</ele>
        <time>2024-11-10T12:41:55Z</time>
      </trkpt>
      <trkpt lat="42.2889" lon="3.28121">
        <ele>7</ele>
        <time>2024-11-10T12:41:56Z</time>
      </trkpt>
      <trkpt lat="42.2889" lon="3.28121">
        <ele>7</ele>
        <time>2024-11-10T12:41:57Z</time>
      </trkpt>
      <trkpt lat="42.2889" lon="3.28121">
        <ele>7</ele>
        <time>2024-11-10T12:41:58Z</time>
      </trkpt>
      <trkpt lat="42.2889" lon="3.28121">
        <ele>7</ele>
        <time>2024-11-10T12:41:59Z</time>
      </trkpt>
      <trkpt lat="42.2889" lon="3.28121">
        <ele>7</ele>
        <time>2024-11-10T12:42:00Z</time>
      </trkpt>
      <trkpt lat="42.2889" lon="3.28122">
        <ele>7</ele>
        <time>2024-11-10T12:42:01Z</time>
      </trkpt>
      <trkpt lat="42.2889" lon="3.28122">
        <ele>7</ele>
        <time>2024-11-10T12:42:02Z</time>
      </trkpt>
      <trkpt lat="42.2889" lon="3.28122">
        <ele>7</ele>
        <time>2024-11-10T12:42:03Z</time>
      </trkpt>
      <trkpt lat="42.2889" lon="3.28122">
        <ele>7</ele>
        <time>2024-11-10T12:42:04Z</time>
      </trkpt>
      <trkpt lat="42.2889" lon="3.28122">
        <ele>7</ele>
        <time>2024-11-10T12:42:05Z</time>
      </trkpt>
      <trkpt lat="42.2889" lon="3.28121">
        <ele>7</ele>
        <time>2024-11-10T12:42:06Z</time>
      </trkpt>
      <trkpt lat="42.28891" lon="3.28121">
        <ele>7</ele>
        <time>2024-11-10T12:42:07Z</time>
      </trkpt>
      <trkpt lat="42.28891" lon="3.28121">
        <ele>7</ele>
        <time>2024-11-10T12:42:08Z</time>
      </trkpt>
      <trkpt lat="42.28891" lon="3.28121">
        <ele>7</ele>
        <time>2024-11-10T12:42:09Z</time>
      </trkpt>
      <trkpt lat="42.2889" lon="3.28121">
        <ele>7</ele>
        <time>2024-11-10T12:42:10Z</time>
      </trkpt>
      <trkpt lat="42.28892" lon="3.28124">
        <ele>7</ele>
        <time>2024-11-10T12:42:11Z</time>
      </trkpt>
      <trkpt lat="42.28891" lon="3.28123">
        <ele>7</ele>
        <time>2024-11-10T12:42:12Z</time>
      </trkpt>
      <trkpt lat="42.28891" lon="3.28122">
        <ele>7</ele>
        <time>2024-11-10T12:42:13Z</time>
      </trkpt>
      <trkpt lat="42.28891" lon="3.28122">
        <ele>7</ele>
        <time>2024-11-10T12:42:14Z</time>
      </trkpt>
      <trkpt lat="42.28891" lon="3.28122">
        <ele>7</ele>
        <time>2024-11-10T12:42:15Z</time>
      </trkpt>
      <trkpt lat="42.2889" lon="3.28121">
        <ele>7</ele>
        <time>2024-11-10T12:42:16Z</time>
      </trkpt>
      <trkpt lat="42.2889" lon="3.28121">
        <ele>7</ele>
        <time>2024-11-10T12:42:17Z</time>
      </trkpt>
      <trkpt lat="42.2889" lon="3.28121">
        <ele>7</ele>
        <time>2024-11-10T12:42:18Z</time>
      </trkpt>
      <trkpt lat="42.2889" lon="3.28121">
        <ele>7</ele>
        <time>2024-11-10T12:42:19Z</time>
      </trkpt>
      <trkpt lat="42.2889" lon="3.28121">
        <ele>7</ele>
        <time>2024-11-10T12:42:20Z</time>
      </trkpt>
      <trkpt lat="42.2889" lon="3.28122">
        <ele>7</ele>
        <time>2024-11-10T12:42:21Z</time>
      </trkpt>
      <trkpt lat="42.28891" lon="3.28122">
        <ele>7</ele>
        <time>2024-11-10T12:42:22Z</time>
      </trkpt>
      <trkpt lat="42.28891" lon="3.28122">
        <ele>7</ele>
        <time>2024-11-10T12:42:23Z</time>
      </trkpt>
      <trkpt lat="42.28891" lon="3.28122">
        <ele>7</ele>
        <time>2024-11-10T12:42:24Z</time>
      </trkpt>
      <trkpt lat="42.2889" lon="3.28122">
        <ele>7</ele>
        <time>2024-11-10T12:42:25Z</time>
      </trkpt>
      <trkpt lat="42.2889" lon="3.28121">
        <ele>7</ele>
        <time>2024-11-10T12:42:26Z</time>
      </trkpt>
      <trkpt lat="42.2889" lon="3.28121">
        <ele>7</ele>
        <time>2024-11-10T12:42:27Z</time>
      </trkpt>
      <trkpt lat="42.2889" lon="3.28121">
        <ele>7</ele>
        <time>2024-11-10T12:42:28Z</time>
      </trkpt>
      <trkpt lat="42.2889" lon="3.28121">
        <ele>7</ele>
        <time>2024-11-10T12:42:29Z</time>
      </trkpt>
      <trkpt lat="42.2889" lon="3.28121">
        <ele>7</ele>
        <time>2024-11-10T12:42:30Z</time>
      </trkpt>
      <trkpt lat="42.2889" lon="3.28121">
        <ele>7</ele>
        <time>2024-11-10T12:42:31Z</time>
      </trkpt>
      <trkpt lat="42.2889" lon="3.28121">
        <ele>7</ele>
        <time>2024-11-10T12:42:32Z</time>
      </trkpt>
      <trkpt lat="42.2889" lon="3.28121">
        <ele>7</ele>
        <time>2024-11-10T12:42:33Z</time>
      </trkpt>
      <trkpt lat="42.2889" lon="3.28121">
        <ele>7</ele>
        <time>2024-11-10T12:42:34Z</time>
      </trkpt>
      <trkpt lat="42.2889" lon="3.28121">
        <ele>7</ele>
        <time>2024-11-10T12:42:35Z</time>
      </trkpt>
      <trkpt lat="42.28892" lon="3.28124">
        <ele>7</ele>
        <time>2024-11-10T12:42:36Z</time>
      </trkpt>
      <trkpt lat="42.28892" lon="3.28125">
        <ele>7</ele>
        <time>2024-11-10T12:42:37Z</time>
      </trkpt>
      <trkpt lat="42.28892" lon="3.28125">
        <ele>7</ele>
        <time>2024-11-10T12:42:38Z</time>
      </trkpt>
      <trkpt lat="42.28892" lon="3.28125">
        <ele>7</ele>
        <time>2024-11-10T12:42:39Z</time>
      </trkpt>
      <trkpt lat="42.28892" lon="3.28124">
        <ele>7</ele>
        <time>2024-11-10T12:42:40Z</time>
      </trkpt>
      <trkpt lat="42.28891" lon="3.28122">
        <ele>7</ele>
        <time>2024-11-10T12:42:41Z</time>
      </trkpt>
      <trkpt lat="42.2889" lon="3.28121">
        <ele>7</ele>
        <time>2024-11-10T12:42:42Z</time>
      </trkpt>
      <trkpt lat="42.2889" lon="3.28121">
        <ele>7</ele>
        <time>2024-11-10T12:42:43Z</time>
      </trkpt>
      <trkpt lat="42.2889" lon="3.28121">
        <ele>7</ele>
        <time>2024-11-10T12:42:44Z</time>
      </trkpt>
      <trkpt lat="42.2889" lon="3.28121">
        <ele>7</ele>
        <time>2024-11-10T12:42:45Z</time>
      </trkpt>
      <trkpt lat="42.28892" lon="3.28124">
        <ele>7</ele>
        <time>2024-11-10T12:42:46Z</time>
      </trkpt>
      <trkpt lat="42.28892" lon="3.28125">
        <ele>7</ele>
        <time>2024-11-10T12:42:47Z</time>
      </trkpt>
      <trkpt lat="42.28892" lon="3.28125">
        <ele>7</ele>
        <time>2024-11-10T12:42:48Z</time>
      </trkpt>
      <trkpt lat="42.28892" lon="3.28125">
        <ele>7</ele>
        <time>2024-11-10T12:42:49Z</time>
      </trkpt>
      <trkpt lat="42.28892" lon="3.28124">
        <ele>7</ele>
        <time>2024-11-10T12:42:50Z</time>
      </trkpt>
      <trkpt lat="42.28891" lon="3.28122">
        <ele>7</ele>
        <time>2024-11-10T12:42:51Z</time>
      </trkpt>
      <trkpt lat="42.2889" lon="3.28122">
        <ele>7</ele>
        <time>2024-11-10T12:42:52Z</time>
      </trkpt>
      <trkpt lat="42.2889" lon="3.28122">
        <ele>7</ele>
        <time>2024-11-10T12:42:53Z</time>
      </trkpt>
      <trkpt lat="42.2889" lon="3.28122">
        <ele>7</ele>
        <time>2024-11-10T12:42:54Z</time>
      </trkpt>
      <trkpt lat="42.2889" lon="3.28122">
        <ele>7</ele>
        <time>2024-11-10T12:42:55Z</time>
      </trkpt>
      <trkpt lat="42.28892" lon="3.28124">
        <ele>7</ele>
        <time>2024-11-10T12:42:56Z</time>
      </trkpt>
      <trkpt lat="42.28892" lon="3.28125">
        <ele>7</ele>
        <time>2024-11-10T12:42:57Z</time>
      </trkpt>
      <trkpt lat="42.28892" lon="3.28125">
        <ele>7</ele>
        <time>2024-11-10T12:42:58Z</time>
      </trkpt>
      <trkpt lat="42.28892" lon="3.28125">
        <ele>7</ele>
        <time>2024-11-10T12:42:59Z</time>
      </trkpt>
      <trkpt lat="42.28892" lon="3.28124">
        <ele>7</ele>
        <time>2024-11-10T12:43:00Z</time>
      </trkpt>
      <trkpt lat="42.28891" lon="3.28122">
        <ele>7</ele>
        <time>2024-11-10T12:43:01Z</time>
      </trkpt>
      <trkpt lat="42.2889" lon="3.28121">
        <ele>7</ele>
        <time>2024-11-10T12:43:02Z</time>
      </trkpt>
      <trkpt lat="42.2889" lon="3.28121">
        <ele>7</ele>
        <time>2024-11-10T12:43:03Z</time>
      </trkpt>
      <trkpt lat="42.2889" lon="3.28121">
        <ele>7</ele>
        <time>2024-11-10T12:43:04Z</time>
      </trkpt>
      <trkpt lat="42.2889" lon="3.28121">
        <ele>7</ele>
        <time>2024-11-10T12:43:05Z</time>
      </trkpt>
      <trkpt lat="42.2889" lon="3.28121">
        <ele>7</ele>
        <time>2024-11-10T12:43:06Z</time>
      </trkpt>
      <trkpt lat="42.2889" lon="3.28121">
        <ele>7</ele>
        <time>2024-11-10T12:43:07Z</time>
      </trkpt>
      <trkpt lat="42.2889" lon="3.28121">
        <ele>7</ele>
        <time>2024-11-10T12:43:08Z</time>
      </trkpt>
      <trkpt lat="42.2889" lon="3.28121">
        <ele>7</ele>
        <time>2024-11-10T12:43:09Z</time>
      </trkpt>
      <trkpt lat="42.2889" lon="3.28121">
        <ele>7</ele>
        <time>2024-11-10T12:43:10Z</time>
      </trkpt>
      <trkpt lat="42.2889" lon="3.28122">
        <ele>7</ele>
        <time>2024-11-10T12:43:11Z</time>
      </trkpt>
      <trkpt lat="42.2889" lon="3.28122">
        <ele>7</ele>
        <time>2024-11-10T12:43:12Z</time>
      </trkpt>
      <trkpt lat="42.2889" lon="3.28122">
        <ele>7</ele>
        <time>2024-11-10T12:43:13Z</time>
      </trkpt>
      <trkpt lat="42.2889" lon="3.28122">
        <ele>7</ele>
        <time>2024-11-10T12:43:14Z</time>
      </trkpt>
      <trkpt lat="42.2889" lon="3.28122">
        <ele>7</ele>
        <time>2024-11-10T12:43:15Z</time>
      </trkpt>
      <trkpt lat="42.2889" lon="3.28122">
        <ele>7</ele>
        <time>2024-11-10T12:43:16Z</time>
      </trkpt>
      <trkpt lat="42.2889" lon="3.28122">
        <ele>7</ele>
        <time>2024-11-10T12:43:17Z</time>
      </trkpt>
      <trkpt lat="42.2889" lon="3.28122">
        <ele>7</ele>
        <time>2024-11-10T12:43:18Z</time>
      </trkpt>
      <trkpt lat="42.2889" lon="3.28122">
        <ele>7</ele>
        <time>2024-11-10T12:43:19Z</time>
      </trkpt>
      <trkpt lat="42.2889" lon="3.28122">
        <ele>7</ele>
        <time>2024-11-10T12:43:20Z</time>
      </trkpt>
      <trkpt lat="42.2889" lon="3.28122">
        <ele>7</ele>
        <time>2024-11-10T12:43:21Z</time>
      </trkpt>
      <trkpt lat="42.2889" lon="3.28122">
        <ele>7</ele>
        <time>2024-11-10T12:43:22Z</time>
      </trkpt>
      <trkpt lat="42.2889" lon="3.28121">
        <ele>7</ele>
        <time>2024-11-10T12:43:23Z</time>
      </trkpt>
      <trkpt lat="42.2889" lon="3.28122">
        <ele>7</ele>
        <time>2024-11-10T12:43:24Z</time>
      </trkpt>
      <trkpt lat="42.2889" lon="3.28122">
        <ele>7</ele>
        <time>2024-11-10T12:43:25Z</time>
      </trkpt>
      <trkpt lat="42.2889" lon="3.28122">
        <ele>7</ele>
        <time>2024-11-10T12:43:26Z</time>
      </trkpt>
      <trkpt lat="42.2889" lon="3.28122">
        <ele>7</ele>
        <time>2024-11-10T12:43:27Z</time>
      </trkpt>
      <trkpt lat="42.2889" lon="3.28122">
        <ele>7</ele>
        <time>2024-11-10T12:43:28Z</time>
      </trkpt>
      <trkpt lat="42.2889" lon="3.28122">
        <ele>7</ele>
        <time>2024-11-10T12:43:29Z</time>
      </trkpt>
      <trkpt lat="42.2889" lon="3.28122">
        <ele>7</ele>
        <time>2024-11-10T12:43:30Z</time>
      </trkpt>
      <trkpt lat="42.2889" lon="3.28122">
        <ele>7</ele>
        <time>2024-11-10T12:43:31Z</time>
      </trkpt>
      <trkpt lat="42.2889" lon="3.28122">
        <ele>7</ele>
        <time>2024-11-10T12:43:32Z</time>
      </trkpt>
      <trkpt lat="42.2889" lon="3.28122">
        <ele>7</ele>
        <time>2024-11-10T12:43:33Z</time>
      </trkpt>
      <trkpt lat="42.2889" lon="3.28122">
        <ele>7</ele>
        <time>2024-11-10T12:43:34Z</time>
      </trkpt>
      <trkpt lat="42.2889" lon="3.28122">
        <ele>7</ele>
        <time>2024-11-10T12:43:35Z</time>
      </trkpt>
      <trkpt lat="42.2889" lon="3.28121">
        <ele>7</ele>
        <time>2024-11-10T12:43:36Z</time>
      </trkpt>
      <trkpt lat="42.2889" lon="3.28121">
        <ele>7</ele>
        <time>2024-11-10T12:43:37Z</time>
      </trkpt>
      <trkpt lat="42.2889" lon="3.28121">
        <ele>7</ele>
        <time>2024-11-10T12:43:38Z</time>
      </trkpt>
      <trkpt lat="42.2889" lon="3.28121">
        <ele>7</ele>
        <time>2024-11-10T12:43:39Z</time>
      </trkpt>
      <trkpt lat="42.2889" lon="3.28121">
        <ele>7</ele>
        <time>2024-11-10T12:43:40Z</time>
      </trkpt>
      <trkpt lat="42.2889" lon="3.28121">
        <ele>7</ele>
        <time>2024-11-10T12:43:41Z</time>
      </trkpt>
      <trkpt lat="42.2889" lon="3.28121">
        <ele>7</ele>
        <time>2024-11-10T12:43:42Z</time>
      </trkpt>
      <trkpt lat="42.2889" lon="3.28121">
        <ele>7</ele>
        <time>2024-11-10T12:43:43Z</time>
      </trkpt>
      <trkpt lat="42.2889" lon="3.28121">
        <ele>7</ele>
        <time>2024-11-10T12:43:44Z</time>
      </trkpt>
      <trkpt lat="42.2889" lon="3.28121">
        <ele>7</ele>
        <time>2024-11-10T12:43:45Z</time>
      </trkpt>
      <trkpt lat="42.2889" lon="3.28121">
        <ele>7</ele>
        <time>2024-11-10T12:43:46Z</time>
      </trkpt>
      <trkpt lat="42.2889" lon="3.28121">
        <ele>7</ele>
        <time>2024-11-10T12:43:47Z</time>
      </trkpt>
      <trkpt lat="42.2889" lon="3.28121">
        <ele>7</ele>
        <time>2024-11-10T12:43:48Z</time>
      </trkpt>
      <trkpt lat="42.2889" lon="3.28121">
        <ele>7</ele>
        <time>2024-11-10T12:43:49Z</time>
      </trkpt>
      <trkpt lat="42.2889" lon="3.28121">
        <ele>7</ele>
        <time>2024-11-10T12:43:50Z</time>
      </trkpt>
      <trkpt lat="42.2889" lon="3.28121">
        <ele>7</ele>
        <time>2024-11-10T12:43:51Z</time>
      </trkpt>
      <trkpt lat="42.2889" lon="3.28121">
        <ele>7</ele>
        <time>2024-11-10T12:43:52Z</time>
      </trkpt>
      <trkpt lat="42.2889" lon="3.28121">
        <ele>7</ele>
        <time>2024-11-10T12:43:53Z</time>
      </trkpt>
      <trkpt lat="42.2889" lon="3.28121">
        <ele>7</ele>
        <time>2024-11-10T12:43:54Z</time>
      </trkpt>
      <trkpt lat="42.2889" lon="3.28121">
        <ele>7</ele>
        <time>2024-11-10T12:43:55Z</time>
      </trkpt>
      <trkpt lat="42.2889" lon="3.28122">
        <ele>7</ele>
        <time>2024-11-10T12:43:56Z</time>
      </trkpt>
      <trkpt lat="42.2889" lon="3.28122">
        <ele>7</ele>
        <time>2024-11-10T12:43:57Z</time>
      </trkpt>
      <trkpt lat="42.2889" lon="3.28122">
        <ele>7</ele>
        <time>2024-11-10T12:43:58Z</time>
      </trkpt>
      <trkpt lat="42.2889" lon="3.28122">
        <ele>7</ele>
        <time>2024-11-10T12:43:59Z</time>
      </trkpt>
      <trkpt lat="42.2889" lon="3.28122">
        <ele>7</ele>
        <time>2024-11-10T12:44:00Z</time>
      </trkpt>
      <trkpt lat="42.2889" lon="3.28121">
        <ele>7</ele>
        <time>2024-11-10T12:44:01Z</time>
      </trkpt>
      <trkpt lat="42.2889" lon="3.28121">
        <ele>7</ele>
        <time>2024-11-10T12:44:02Z</time>
      </trkpt>
      <trkpt lat="42.2889" lon="3.28121">
        <ele>7</ele>
        <time>2024-11-10T12:44:03Z</time>
      </trkpt>
      <trkpt lat="42.2889" lon="3.28121">
        <ele>7</ele>
        <time>2024-11-10T12:44:04Z</time>
      </trkpt>
      <trkpt lat="42.2889" lon="3.28121">
        <ele>7</ele>
        <time>2024-11-10T12:44:05Z</time>
      </trkpt>
      <trkpt lat="42.2889" lon="3.28121">
        <ele>7</ele>
        <time>2024-11-10T12:44:06Z</time>
      </trkpt>
      <trkpt lat="42.2889" lon="3.28121">
        <ele>7</ele>
        <time>2024-11-10T12:44:07Z</time>
      </trkpt>
      <trkpt lat="42.2889" lon="3.28121">
        <ele>7</ele>
        <time>2024-11-10T12:44:08Z</time>
      </trkpt>
      <trkpt lat="42.2889" lon="3.28121">
        <ele>7</ele>
        <time>2024-11-10T12:44:09Z</time>
      </trkpt>
      <trkpt lat="42.2889" lon="3.28121">
        <ele>7</ele>
        <time>2024-11-10T12:44:10Z</time>
      </trkpt>
      <trkpt lat="42.2889" lon="3.28122">
        <ele>7</ele>
        <time>2024-11-10T12:44:11Z</time>
      </trkpt>
      <trkpt lat="42.2889" lon="3.28122">
        <ele>7</ele>
        <time>2024-11-10T12:44:12Z</time>
      </trkpt>
      <trkpt lat="42.2889" lon="3.28122">
        <ele>7</ele>
        <time>2024-11-10T12:44:13Z</time>
      </trkpt>
      <trkpt lat="42.2889" lon="3.28122">
        <ele>7</ele>
        <time>2024-11-10T12:44:14Z</time>
      </trkpt>
      <trkpt lat="42.2889" lon="3.28122">
        <ele>7</ele>
        <time>2024-11-10T12:44:15Z</time>
      </trkpt>
      <trkpt lat="42.2889" lon="3.28122">
        <ele>7</ele>
        <time>2024-11-10T12:44:16Z</time>
      </trkpt>
      <trkpt lat="42.2889" lon="3.28121">
        <ele>7</ele>
        <time>2024-11-10T12:44:17Z</time>
      </trkpt>
      <trkpt lat="42.2889" lon="3.28121">
        <ele>7</ele>
        <time>2024-11-10T12:44:18Z</time>
      </trkpt>
      <trkpt lat="42.2889" lon="3.28121">
        <ele>7</ele>
        <time>2024-11-10T12:44:19Z</time>
      </trkpt>
      <trkpt lat="42.2889" lon="3.28121">
        <ele>7</ele>
        <time>2024-11-10T12:44:20Z</time>
      </trkpt>
      <trkpt lat="42.2889" lon="3.28121">
        <ele>7</ele>
        <time>2024-11-10T12:44:21Z</time>
      </trkpt>
      <trkpt lat="42.2889" lon="3.28121">
        <ele>7</ele>
        <time>2024-11-10T12:44:22Z</time>
      </trkpt>
      <trkpt lat="42.2889" lon="3.2812">
        <ele>7</ele>
        <time>2024-11-10T12:44:23Z</time>
      </trkpt>
      <trkpt lat="42.2889" lon="3.28121">
        <ele>7</ele>
        <time>2024-11-10T12:44:24Z</time>
      </trkpt>
      <trkpt lat="42.2889" lon="3.28121">
        <ele>7</ele>
        <time>2024-11-10T12:44:25Z</time>
      </trkpt>
      <trkpt lat="42.2889" lon="3.28121">
        <ele>7</ele>
        <time>2024-11-10T12:44:26Z</time>
      </trkpt>
      <trkpt lat="42.2889" lon="3.28122">
        <ele>7.1</ele>
        <time>2024-11-10T12:44:27Z</time>
      </trkpt>
      <trkpt lat="42.2889" lon="3.28122">
        <ele>7.1</ele>
        <time>2024-11-10T12:44:28Z</time>
      </trkpt>
      <trkpt lat="42.2889" lon="3.28122">
        <ele>7.1</ele>
        <time>2024-11-10T12:44:29Z</time>
      </trkpt>
      <trkpt lat="42.2889" lon="3.28122">
        <ele>7.1</ele>
        <time>2024-11-10T12:44:30Z</time>
      </trkpt>
      <trkpt lat="42.2889" lon="3.28122">
        <ele>7.1</ele>
        <time>2024-11-10T12:44:31Z</time>
      </trkpt>
      <trkpt lat="42.2889" lon="3.28122">
        <ele>7.1</ele>
        <time>2024-11-10T12:44:32Z</time>
      </trkpt>
      <trkpt lat="42.2889" lon="3.28122">
        <ele>7.1</ele>
        <time>2024-11-10T12:44:33Z</time>
      </trkpt>
      <trkpt lat="42.2889" lon="3.28122">
        <ele>7.1</ele>
        <time>2024-11-10T12:44:34Z</time>
      </trkpt>
      <trkpt lat="42.2889" lon="3.28122">
        <ele>7.1</ele>
        <time>2024-11-10T12:44:35Z</time>
      </trkpt>
      <trkpt lat="42.28892" lon="3.28124">
        <ele>7.1</ele>
        <time>2024-11-10T12:44:36Z</time>
      </trkpt>
      <trkpt lat="42.28892" lon="3.28125">
        <ele>7.1</ele>
        <time>2024-11-10T12:44:37Z</time>
      </trkpt>
      <trkpt lat="42.28892" lon="3.28125">
        <ele>7.1</ele>
        <time>2024-11-10T12:44:38Z</time>
      </trkpt>
      <trkpt lat="42.28892" lon="3.28124">
        <ele>7.1</ele>
        <time>2024-11-10T12:44:39Z</time>
      </trkpt>
      <trkpt lat="42.28892" lon="3.28124">
        <ele>7.1</ele>
        <time>2024-11-10T12:44:40Z</time>
      </trkpt>
      <trkpt lat="42.28891" lon="3.28122">
        <ele>7.1</ele>
        <time>2024-11-10T12:44:41Z</time>
      </trkpt>
      <trkpt lat="42.2889" lon="3.28121">
        <ele>7.1</ele>
        <time>2024-11-10T12:44:42Z</time>
      </trkpt>
      <trkpt lat="42.2889" lon="3.28121">
        <ele>7.1</ele>
        <time>2024-11-10T12:44:43Z</time>
      </trkpt>
      <trkpt lat="42.2889" lon="3.28121">
        <ele>7.1</ele>
        <time>2024-11-10T12:44:44Z</time>
      </trkpt>
      <trkpt lat="42.2889" lon="3.28121">
        <ele>7.1</ele>
        <time>2024-11-10T12:44:45Z</time>
      </trkpt>
      <trkpt lat="42.2889" lon="3.28121">
        <ele>7.1</ele>
        <time>2024-11-10T12:44:46Z</time>
      </trkpt>
      <trkpt lat="42.2889" lon="3.28121">
        <ele>7.1</ele>
        <time>2024-11-10T12:44:47Z</time>
      </trkpt>
      <trkpt lat="42.2889" lon="3.28121">
        <ele>7.1</ele>
        <time>2024-11-10T12:44:48Z</time>
      </trkpt>
      <trkpt lat="42.2889" lon="3.28121">
        <ele>7.1</ele>
        <time>2024-11-10T12:44:49Z</time>
      </trkpt>
      <trkpt lat="42.2889" lon="3.28121">
        <ele>7.1</ele>
        <time>2024-11-10T12:44:50Z</time>
      </trkpt>
      <trkpt lat="42.2889" lon="3.28121">
        <ele>7.1</ele>
        <time>2024-11-10T12:44:51Z</time>
      </trkpt>
      <trkpt lat="42.2889" lon="3.28121">
        <ele>7.1</ele>
        <time>2024-11-10T12:44:52Z</time>
      </trkpt>
      <trkpt lat="42.2889" lon="3.28121">
        <ele>7.1</ele>
        <time>2024-11-10T12:44:53Z</time>
      </trkpt>
      <trkpt lat="42.2889" lon="3.28121">
        <ele>7.1</ele>
        <time>2024-11-10T12:44:54Z</time>
      </trkpt>
      <trkpt lat="42.2889" lon="3.28121">
        <ele>7.1</ele>
        <time>2024-11-10T12:44:55Z</time>
      </trkpt>
      <trkpt lat="42.2889" lon="3.28121">
        <ele>7.1</ele>
        <time>2024-11-10T12:44:56Z</time>
      </trkpt>
      <trkpt lat="42.2889" lon="3.28121">
        <ele>7.1</ele>
        <time>2024-11-10T12:44:57Z</time>
      </trkpt>
      <trkpt lat="42.2889" lon="3.28121">
        <ele>7.1</ele>
        <time>2024-11-10T12:44:58Z</time>
      </trkpt>
      <trkpt lat="42.2889" lon="3.28121">
        <ele>7.1</ele>
        <time>2024-11-10T12:44:59Z</time>
      </trkpt>
      <trkpt lat="42.2889" lon="3.28121">
        <ele>7.1</ele>
        <time>2024-11-10T12:45:00Z</time>
      </trkpt>
      <trkpt lat="42.2889" lon="3.28121">
        <ele>7.1</ele>
        <time>2024-11-10T12:45:01Z</time>
      </trkpt>
      <trkpt lat="42.2889" lon="3.28121">
        <ele>7.1</ele>
        <time>2024-11-10T12:45:02Z</time>
      </trkpt>
      <trkpt lat="42.2889" lon="3.28121">
        <ele>7.1</ele>
        <time>2024-11-10T12:45:03Z</time>
      </trkpt>
      <trkpt lat="42.2889" lon="3.28121">
        <ele>7.1</ele>
        <time>2024-11-10T12:45:04Z</time>
      </trkpt>
      <trkpt lat="42.2889" lon="3.28121">
        <ele>7.1</ele>
        <time>2024-11-10T12:45:05Z</time>
      </trkpt>
      <trkpt lat="42.2889" lon="3.28122">
        <ele>7.1</ele>
        <time>2024-11-10T12:45:06Z</time>
      </trkpt>
      <trkpt lat="42.28891" lon="3.28122">
        <ele>7.1</ele>
        <time>2024-11-10T12:45:07Z</time>
      </trkpt>
      <trkpt lat="42.28891" lon="3.28122">
        <ele>7.1</ele>
        <time>2024-11-10T12:45:08Z</time>
      </trkpt>
      <trkpt lat="42.28891" lon="3.28122">
        <ele>7.1</ele>
        <time>2024-11-10T12:45:09Z</time>
      </trkpt>
      <trkpt lat="42.28891" lon="3.28122">
        <ele>7.1</ele>
        <time>2024-11-10T12:45:10Z</time>
      </trkpt>
      <trkpt lat="42.2889" lon="3.28121">
        <ele>7.1</ele>
        <time>2024-11-10T12:45:11Z</time>
      </trkpt>
      <trkpt lat="42.2889" lon="3.28121">
        <ele>7.1</ele>
        <time>2024-11-10T12:45:12Z</time>
      </trkpt>
      <trkpt lat="42.2889" lon="3.28121">
        <ele>7.1</ele>
        <time>2024-11-10T12:45:13Z</time>
      </trkpt>
      <trkpt lat="42.2889" lon="3.28121">
        <ele>7.1</ele>
        <time>2024-11-10T12:45:14Z</time>
      </trkpt>
      <trkpt lat="42.2889" lon="3.28121">
        <ele>7.1</ele>
        <time>2024-11-10T12:45:15Z</time>
      </trkpt>
      <trkpt lat="42.2889" lon="3.28122">
        <ele>7.1</ele>
        <time>2024-11-10T12:45:16Z</time>
      </trkpt>
      <trkpt lat="42.28892" lon="3.28124">
        <ele>7.1</ele>
        <time>2024-11-10T12:45:17Z</time>
      </trkpt>
      <trkpt lat="42.28892" lon="3.28125">
        <ele>7.1</ele>
        <time>2024-11-10T12:45:18Z</time>
      </trkpt>
      <trkpt lat="42.28892" lon="3.28125">
        <ele>7.1</ele>
        <time>2024-11-10T12:45:19Z</time>
      </trkpt>
      <trkpt lat="42.28892" lon="3.28124">
        <ele>7.1</ele>
        <time>2024-11-10T12:45:20Z</time>
      </trkpt>
      <trkpt lat="42.28891" lon="3.28122">
        <ele>7.1</ele>
        <time>2024-11-10T12:45:21Z</time>
      </trkpt>
      <trkpt lat="42.2889" lon="3.28121">
        <ele>7.1</ele>
        <time>2024-11-10T12:45:22Z</time>
      </trkpt>
      <trkpt lat="42.2889" lon="3.28121">
        <ele>7.1</ele>
        <time>2024-11-10T12:45:23Z</time>
      </trkpt>
      <trkpt lat="42.2889" lon="3.28121">
        <ele>7.1</ele>
        <time>2024-11-10T12:45:24Z</time>
      </trkpt>
      <trkpt lat="42.2889" lon="3.28121">
        <ele>7.1</ele>
        <time>2024-11-10T12:45:25Z</time>
      </trkpt>
      <trkpt lat="42.2889" lon="3.28121">
        <ele>7.1</ele>
        <time>2024-11-10T12:45:26Z</time>
      </trkpt>
      <trkpt lat="42.2889" lon="3.28121">
        <ele>7.1</ele>
        <time>2024-11-10T12:45:27Z</time>
      </trkpt>
      <trkpt lat="42.2889" lon="3.28121">
        <ele>7.1</ele>
        <time>2024-11-10T12:45:28Z</time>
      </trkpt>
      <trkpt lat="42.2889" lon="3.28121">
        <ele>7.1</ele>
        <time>2024-11-10T12:45:29Z</time>
      </trkpt>
      <trkpt lat="42.2889" lon="3.28121">
        <ele>7.1</ele>
        <time>2024-11-10T12:45:30Z</time>
      </trkpt>
      <trkpt lat="42.2889" lon="3.28121">
        <ele>7.1</ele>
        <time>2024-11-10T12:45:31Z</time>
      </trkpt>
      <trkpt lat="42.2889" lon="3.28121">
        <ele>7.1</ele>
        <time>2024-11-10T12:45:32Z</time>
      </trkpt>
      <trkpt lat="42.2889" lon="3.28121">
        <ele>7.1</ele>
        <time>2024-11-10T12:45:33Z</time>
      </trkpt>
      <trkpt lat="42.2889" lon="3.28121">
        <ele>7.1</ele>
        <time>2024-11-10T12:45:34Z</time>
      </trkpt>
      <trkpt lat="42.2889" lon="3.28121">
        <ele>7.1</ele>
        <time>2024-11-10T12:45:35Z</time>
      </trkpt>
      <trkpt lat="42.2889" lon="3.28121">
        <ele>7.1</ele>
        <time>2024-11-10T12:45:36Z</time>
      </trkpt>
      <trkpt lat="42.2889" lon="3.28121">
        <ele>7.1</ele>
        <time>2024-11-10T12:45:37Z</time>
      </trkpt>
      <trkpt lat="42.2889" lon="3.28121">
        <ele>7.1</ele>
        <time>2024-11-10T12:45:38Z</time>
      </trkpt>
      <trkpt lat="42.2889" lon="3.28121">
        <ele>7.1</ele>
        <time>2024-11-10T12:45:39Z</time>
      </trkpt>
      <trkpt lat="42.2889" lon="3.28121">
        <ele>7.1</ele>
        <time>2024-11-10T12:45:40Z</time>
      </trkpt>
      <trkpt lat="42.2889" lon="3.28121">
        <ele>7.1</ele>
        <time>2024-11-10T12:45:41Z</time>
      </trkpt>
      <trkpt lat="42.2889" lon="3.28121">
        <ele>7.1</ele>
        <time>2024-11-10T12:45:42Z</time>
      </trkpt>
      <trkpt lat="42.2889" lon="3.28121">
        <ele>7.1</ele>
        <time>2024-11-10T12:45:43Z</time>
      </trkpt>
      <trkpt lat="42.2889" lon="3.28121">
        <ele>7.1</ele>
        <time>2024-11-10T12:45:44Z</time>
      </trkpt>
      <trkpt lat="42.2889" lon="3.28121">
        <ele>7.1</ele>
        <time>2024-11-10T12:45:45Z</time>
      </trkpt>
      <trkpt lat="42.2889" lon="3.28121">
        <ele>7.1</ele>
        <time>2024-11-10T12:45:46Z</time>
      </trkpt>
      <trkpt lat="42.2889" lon="3.28121">
        <ele>7.1</ele>
        <time>2024-11-10T12:45:47Z</time>
      </trkpt>
      <trkpt lat="42.2889" lon="3.28121">
        <ele>7.1</ele>
        <time>2024-11-10T12:45:48Z</time>
      </trkpt>
      <trkpt lat="42.2889" lon="3.28121">
        <ele>7.1</ele>
        <time>2024-11-10T12:45:49Z</time>
      </trkpt>
      <trkpt lat="42.2889" lon="3.28121">
        <ele>7.1</ele>
        <time>2024-11-10T12:45:50Z</time>
      </trkpt>
      <trkpt lat="42.2889" lon="3.28121">
        <ele>7.1</ele>
        <time>2024-11-10T12:45:51Z</time>
      </trkpt>
      <trkpt lat="42.28892" lon="3.28124">
        <ele>7.1</ele>
        <time>2024-11-10T12:45:52Z</time>
      </trkpt>
      <trkpt lat="42.28892" lon="3.28124">
        <ele>7.1</ele>
        <time>2024-11-10T12:45:53Z</time>
      </trkpt>
      <trkpt lat="42.28892" lon="3.28125">
        <ele>7.1</ele>
        <time>2024-11-10T12:45:54Z</time>
      </trkpt>
      <trkpt lat="42.28892" lon="3.28124">
        <ele>7.1</ele>
        <time>2024-11-10T12:45:55Z</time>
      </trkpt>
      <trkpt lat="42.28891" lon="3.28122">
        <ele>7.1</ele>
        <time>2024-11-10T12:45:56Z</time>
      </trkpt>
      <trkpt lat="42.2889" lon="3.28122">
        <ele>7.1</ele>
        <time>2024-11-10T12:45:57Z</time>
      </trkpt>
      <trkpt lat="42.2889" lon="3.28122">
        <ele>7.1</ele>
        <time>2024-11-10T12:45:58Z</time>
      </trkpt>
      <trkpt lat="42.2889" lon="3.28122">
        <ele>7.1</ele>
        <time>2024-11-10T12:45:59Z</time>
      </trkpt>
      <trkpt lat="42.2889" lon="3.28122">
        <ele>7.1</ele>
        <time>2024-11-10T12:46:00Z</time>
      </trkpt>
      <trkpt lat="42.2889" lon="3.28121">
        <ele>7.1</ele>
        <time>2024-11-10T12:46:01Z</time>
      </trkpt>
      <trkpt lat="42.2889" lon="3.28121">
        <ele>7.1</ele>
        <time>2024-11-10T12:46:02Z</time>
      </trkpt>
      <trkpt lat="42.2889" lon="3.28121">
        <ele>7.1</ele>
        <time>2024-11-10T12:46:03Z</time>
      </trkpt>
      <trkpt lat="42.2889" lon="3.28121">
        <ele>7.1</ele>
        <time>2024-11-10T12:46:04Z</time>
      </trkpt>
      <trkpt lat="42.2889" lon="3.28121">
        <ele>7.1</ele>
        <time>2024-11-10T12:46:05Z</time>
      </trkpt>
      <trkpt lat="42.2889" lon="3.28121">
        <ele>7.1</ele>
        <time>2024-11-10T12:46:06Z</time>
      </trkpt>
      <trkpt lat="42.2889" lon="3.28121">
        <ele>7.1</ele>
        <time>2024-11-10T12:46:07Z</time>
      </trkpt>
      <trkpt lat="42.2889" lon="3.28121">
        <ele>7.1</ele>
        <time>2024-11-10T12:46:08Z</time>
      </trkpt>
      <trkpt lat="42.2889" lon="3.28121">
        <ele>7.1</ele>
        <time>2024-11-10T12:46:09Z</time>
      </trkpt>
      <trkpt lat="42.2889" lon="3.28121">
        <ele>7.1</ele>
        <time>2024-11-10T12:46:10Z</time>
      </trkpt>
      <trkpt lat="42.2889" lon="3.28122">
        <ele>7.1</ele>
        <time>2024-11-10T12:46:11Z</time>
      </trkpt>
      <trkpt lat="42.2889" lon="3.28122">
        <ele>7.1</ele>
        <time>2024-11-10T12:46:12Z</time>
      </trkpt>
      <trkpt lat="42.2889" lon="3.28122">
        <ele>7.1</ele>
        <time>2024-11-10T12:46:13Z</time>
      </trkpt>
      <trkpt lat="42.2889" lon="3.28122">
        <ele>7.1</ele>
        <time>2024-11-10T12:46:14Z</time>
      </trkpt>
      <trkpt lat="42.2889" lon="3.28122">
        <ele>7.1</ele>
        <time>2024-11-10T12:46:15Z</time>
      </trkpt>
      <trkpt lat="42.2889" lon="3.28122">
        <ele>7.1</ele>
        <time>2024-11-10T12:46:16Z</time>
      </trkpt>
      <trkpt lat="42.2889" lon="3.28121">
        <ele>7.1</ele>
        <time>2024-11-10T12:46:17Z</time>
      </trkpt>
      <trkpt lat="42.2889" lon="3.28121">
        <ele>7.1</ele>
        <time>2024-11-10T12:46:18Z</time>
      </trkpt>
      <trkpt lat="42.2889" lon="3.28121">
        <ele>7.1</ele>
        <time>2024-11-10T12:46:19Z</time>
      </trkpt>
      <trkpt lat="42.2889" lon="3.28121">
        <ele>7.1</ele>
        <time>2024-11-10T12:46:20Z</time>
      </trkpt>
      <trkpt lat="42.2889" lon="3.28121">
        <ele>7.1</ele>
        <time>2024-11-10T12:46:21Z</time>
      </trkpt>
      <trkpt lat="42.2889" lon="3.28121">
        <ele>7.1</ele>
        <time>2024-11-10T12:46:22Z</time>
      </trkpt>
      <trkpt lat="42.2889" lon="3.28121">
        <ele>7.1</ele>
        <time>2024-11-10T12:46:23Z</time>
      </trkpt>
      <trkpt lat="42.2889" lon="3.28121">
        <ele>7.1</ele>
        <time>2024-11-10T12:46:24Z</time>
      </trkpt>
      <trkpt lat="42.2889" lon="3.28121">
        <ele>7.1</ele>
        <time>2024-11-10T12:46:25Z</time>
      </trkpt>
      <trkpt lat="42.2889" lon="3.28121">
        <ele>7.1</ele>
        <time>2024-11-10T12:46:26Z</time>
      </trkpt>
      <trkpt lat="42.2889" lon="3.28121">
        <ele>7.1</ele>
        <time>2024-11-10T12:46:27Z</time>
      </trkpt>
      <trkpt lat="42.2889" lon="3.28121">
        <ele>7.1</ele>
        <time>2024-11-10T12:46:28Z</time>
      </trkpt>
      <trkpt lat="42.2889" lon="3.28121">
        <ele>7.1</ele>
        <time>2024-11-10T12:46:29Z</time>
      </trkpt>
      <trkpt lat="42.2889" lon="3.28121">
        <ele>7.1</ele>
        <time>2024-11-10T12:46:30Z</time>
      </trkpt>
      <trkpt lat="42.2889" lon="3.28121">
        <ele>7.1</ele>
        <time>2024-11-10T12:46:31Z</time>
      </trkpt>
      <trkpt lat="42.2889" lon="3.28121">
        <ele>7.1</ele>
        <time>2024-11-10T12:46:32Z</time>
      </trkpt>
      <trkpt lat="42.2889" lon="3.28121">
        <ele>7.1</ele>
        <time>2024-11-10T12:46:33Z</time>
      </trkpt>
      <trkpt lat="42.2889" lon="3.28121">
        <ele>7.1</ele>
        <time>2024-11-10T12:46:34Z</time>
      </trkpt>
      <trkpt lat="42.2889" lon="3.28121">
        <ele>7.1</ele>
        <time>2024-11-10T12:46:35Z</time>
      </trkpt>
      <trkpt lat="42.2889" lon="3.28121">
        <ele>7.1</ele>
        <time>2024-11-10T12:46:36Z</time>
      </trkpt>
      <trkpt lat="42.2889" lon="3.28121">
        <ele>7.1</ele>
        <time>2024-11-10T12:46:37Z</time>
      </trkpt>
      <trkpt lat="42.2889" lon="3.28121">
        <ele>7.1</ele>
        <time>2024-11-10T12:46:38Z</time>
      </trkpt>
      <trkpt lat="42.2889" lon="3.28121">
        <ele>7.1</ele>
        <time>2024-11-10T12:46:39Z</time>
      </trkpt>
      <trkpt lat="42.2889" lon="3.28121">
        <ele>7.1</ele>
        <time>2024-11-10T12:46:40Z</time>
      </trkpt>
      <trkpt lat="42.2889" lon="3.28121">
        <ele>7.1</ele>
        <time>2024-11-10T12:46:41Z</time>
      </trkpt>
      <trkpt lat="42.2889" lon="3.28122">
        <ele>7.1</ele>
        <time>2024-11-10T12:46:42Z</time>
      </trkpt>
      <trkpt lat="42.28891" lon="3.28122">
        <ele>7.1</ele>
        <time>2024-11-10T12:46:43Z</time>
      </trkpt>
      <trkpt lat="42.28892" lon="3.28124">
        <ele>7.1</ele>
        <time>2024-11-10T12:46:44Z</time>
      </trkpt>
      <trkpt lat="42.28892" lon="3.28124">
        <ele>7.1</ele>
        <time>2024-11-10T12:46:45Z</time>
      </trkpt>
      <trkpt lat="42.28892" lon="3.28124">
        <ele>7.1</ele>
        <time>2024-11-10T12:46:46Z</time>
      </trkpt>
      <trkpt lat="42.28891" lon="3.28123">
        <ele>7.1</ele>
        <time>2024-11-10T12:46:47Z</time>
      </trkpt>
      <trkpt lat="42.2889" lon="3.28122">
        <ele>7.1</ele>
        <time>2024-11-10T12:46:48Z</time>
      </trkpt>
      <trkpt lat="42.2889" lon="3.28122">
        <ele>7.1</ele>
        <time>2024-11-10T12:46:49Z</time>
      </trkpt>
      <trkpt lat="42.2889" lon="3.28122">
        <ele>7.1</ele>
        <time>2024-11-10T12:46:50Z</time>
      </trkpt>
      <trkpt lat="42.2889" lon="3.28122">
        <ele>7.1</ele>
        <time>2024-11-10T12:46:51Z</time>
      </trkpt>
      <trkpt lat="42.2889" lon="3.28122">
        <ele>7.1</ele>
        <time>2024-11-10T12:46:52Z</time>
      </trkpt>
      <trkpt lat="42.2889" lon="3.28121">
        <ele>7.1</ele>
        <time>2024-11-10T12:46:53Z</time>
      </trkpt>
      <trkpt lat="42.2889" lon="3.28121">
        <ele>7.1</ele>
        <time>2024-11-10T12:46:54Z</time>
      </trkpt>
      <trkpt lat="42.2889" lon="3.28121">
        <ele>7.1</ele>
        <time>2024-11-10T12:46:55Z</time>
      </trkpt>
      <trkpt lat="42.2889" lon="3.28121">
        <ele>7.1</ele>
        <time>2024-11-10T12:46:56Z</time>
      </trkpt>
      <trkpt lat="42.2889" lon="3.28121">
        <ele>7.1</ele>
        <time>2024-11-10T12:46:57Z</time>
      </trkpt>
      <trkpt lat="42.2889" lon="3.28121">
        <ele>7.1</ele>
        <time>2024-11-10T12:46:58Z</time>
      </trkpt>
      <trkpt lat="42.2889" lon="3.28121">
        <ele>7.1</ele>
        <time>2024-11-10T12:46:59Z</time>
      </trkpt>
      <trkpt lat="42.2889" lon="3.28121">
        <ele>7.1</ele>
        <time>2024-11-10T12:47:00Z</time>
      </trkpt>
      <trkpt lat="42.2889" lon="3.28121">
        <ele>7.1</ele>
        <time>2024-11-10T12:47:01Z</time>
      </trkpt>
      <trkpt lat="42.2889" lon="3.28121">
        <ele>7.1</ele>
        <time>2024-11-10T12:47:02Z</time>
      </trkpt>
      <trkpt lat="42.2889" lon="3.28121">
        <ele>7.1</ele>
        <time>2024-11-10T12:47:03Z</time>
      </trkpt>
      <trkpt lat="42.2889" lon="3.28121">
        <ele>7.1</ele>
        <time>2024-11-10T12:47:04Z</time>
      </trkpt>
      <trkpt lat="42.2889" lon="3.28121">
        <ele>7.1</ele>
        <time>2024-11-10T12:47:05Z</time>
      </trkpt>
      <trkpt lat="42.2889" lon="3.28121">
        <ele>7.1</ele>
        <time>2024-11-10T12:47:06Z</time>
      </trkpt>
      <trkpt lat="42.2889" lon="3.28121">
        <ele>7.1</ele>
        <time>2024-11-10T12:47:07Z</time>
      </trkpt>
      <trkpt lat="42.2889" lon="3.28121">
        <ele>7.1</ele>
        <time>2024-11-10T12:47:08Z</time>
      </trkpt>
      <trkpt lat="42.2889" lon="3.28121">
        <ele>7.1</ele>
        <time>2024-11-10T12:47:09Z</time>
      </trkpt>
      <trkpt lat="42.2889" lon="3.28121">
        <ele>7.1</ele>
        <time>2024-11-10T12:47:10Z</time>
      </trkpt>
      <trkpt lat="42.2889" lon="3.28121">
        <ele>7.1</ele>
        <time>2024-11-10T12:47:11Z</time>
      </trkpt>
      <trkpt lat="42.2889" lon="3.28121">
        <ele>7.1</ele>
        <time>2024-11-10T12:47:12Z</time>
      </trkpt>
      <trkpt lat="42.2889" lon="3.28121">
        <ele>7.1</ele>
        <time>2024-11-10T12:47:13Z</time>
      </trkpt>
      <trkpt lat="42.2889" lon="3.28121">
        <ele>7.1</ele>
        <time>2024-11-10T12:47:14Z</time>
      </trkpt>
      <trkpt lat="42.2889" lon="3.28121">
        <ele>7.1</ele>
        <time>2024-11-10T12:47:15Z</time>
      </trkpt>
      <trkpt lat="42.2889" lon="3.28121">
        <ele>7.1</ele>
        <time>2024-11-10T12:47:16Z</time>
      </trkpt>
      <trkpt lat="42.2889" lon="3.28121">
        <ele>7.1</ele>
        <time>2024-11-10T12:47:17Z</time>
      </trkpt>
      <trkpt lat="42.2889" lon="3.28121">
        <ele>7.1</ele>
        <time>2024-11-10T12:47:18Z</time>
      </trkpt>
      <trkpt lat="42.2889" lon="3.28121">
        <ele>7.1</ele>
        <time>2024-11-10T12:47:19Z</time>
      </trkpt>
      <trkpt lat="42.2889" lon="3.28121">
        <ele>7.1</ele>
        <time>2024-11-10T12:47:20Z</time>
      </trkpt>
      <trkpt lat="42.2889" lon="3.28121">
        <ele>7.1</ele>
        <time>2024-11-10T12:47:21Z</time>
      </trkpt>
      <trkpt lat="42.2889" lon="3.28122">
        <ele>7.1</ele>
        <time>2024-11-10T12:47:22Z</time>
      </trkpt>
      <trkpt lat="42.28891" lon="3.28122">
        <ele>7.1</ele>
        <time>2024-11-10T12:47:23Z</time>
      </trkpt>
      <trkpt lat="42.28891" lon="3.28122">
        <ele>7.1</ele>
        <time>2024-11-10T12:47:24Z</time>
      </trkpt>
      <trkpt lat="42.28891" lon="3.28122">
        <ele>7.1</ele>
        <time>2024-11-10T12:47:25Z</time>
      </trkpt>
      <trkpt lat="42.28891" lon="3.28122">
        <ele>7.1</ele>
        <time>2024-11-10T12:47:26Z</time>
      </trkpt>
      <trkpt lat="42.2889" lon="3.28121">
        <ele>7.1</ele>
        <time>2024-11-10T12:47:27Z</time>
      </trkpt>
      <trkpt lat="42.2889" lon="3.28121">
        <ele>7.1</ele>
        <time>2024-11-10T12:47:28Z</time>
      </trkpt>
      <trkpt lat="42.2889" lon="3.28121">
        <ele>7.1</ele>
        <time>2024-11-10T12:47:29Z</time>
      </trkpt>
      <trkpt lat="42.2889" lon="3.28121">
        <ele>7.1</ele>
        <time>2024-11-10T12:47:30Z</time>
      </trkpt>
      <trkpt lat="42.2889" lon="3.28121">
        <ele>7.1</ele>
        <time>2024-11-10T12:47:31Z</time>
      </trkpt>
      <trkpt lat="42.2889" lon="3.28121">
        <ele>7.1</ele>
        <time>2024-11-10T12:47:32Z</time>
      </trkpt>
      <trkpt lat="42.2889" lon="3.28121">
        <ele>7.1</ele>
        <time>2024-11-10T12:47:33Z</time>
      </trkpt>
      <trkpt lat="42.2889" lon="3.28121">
        <ele>7.1</ele>
        <time>2024-11-10T12:47:34Z</time>
      </trkpt>
      <trkpt lat="42.2889" lon="3.28121">
        <ele>7.1</ele>
        <time>2024-11-10T12:47:35Z</time>
      </trkpt>
      <trkpt lat="42.2889" lon="3.28121">
        <ele>7.1</ele>
        <time>2024-11-10T12:47:36Z</time>
      </trkpt>
      <trkpt lat="42.2889" lon="3.28121">
        <ele>7.1</ele>
        <time>2024-11-10T12:47:37Z</time>
      </trkpt>
      <trkpt lat="42.2889" lon="3.28121">
        <ele>7.1</ele>
        <time>2024-11-10T12:47:38Z</time>
      </trkpt>
      <trkpt lat="42.2889" lon="3.28121">
        <ele>7.1</ele>
        <time>2024-11-10T12:47:39Z</time>
      </trkpt>
      <trkpt lat="42.2889" lon="3.28121">
        <ele>7.1</ele>
        <time>2024-11-10T12:47:40Z</time>
      </trkpt>
      <trkpt lat="42.2889" lon="3.28121">
        <ele>7.1</ele>
        <time>2024-11-10T12:47:41Z</time>
      </trkpt>
      <trkpt lat="42.2889" lon="3.28121">
        <ele>7.1</ele>
        <time>2024-11-10T12:47:42Z</time>
      </trkpt>
      <trkpt lat="42.2889" lon="3.28121">
        <ele>7.1</ele>
        <time>2024-11-10T12:47:43Z</time>
      </trkpt>
      <trkpt lat="42.2889" lon="3.28121">
        <ele>7.1</ele>
        <time>2024-11-10T12:47:44Z</time>
      </trkpt>
      <trkpt lat="42.2889" lon="3.28121">
        <ele>7.1</ele>
        <time>2024-11-10T12:47:45Z</time>
      </trkpt>
      <trkpt lat="42.2889" lon="3.28121">
        <ele>7.1</ele>
        <time>2024-11-10T12:47:46Z</time>
      </trkpt>
      <trkpt lat="42.28891" lon="3.28122">
        <ele>7.1</ele>
        <time>2024-11-10T12:47:47Z</time>
      </trkpt>
      <trkpt lat="42.28891" lon="3.28122">
        <ele>7.1</ele>
        <time>2024-11-10T12:47:48Z</time>
      </trkpt>
      <trkpt lat="42.28891" lon="3.28122">
        <ele>7.1</ele>
        <time>2024-11-10T12:47:49Z</time>
      </trkpt>
      <trkpt lat="42.28891" lon="3.28122">
        <ele>7.1</ele>
        <time>2024-11-10T12:47:50Z</time>
      </trkpt>
      <trkpt lat="42.28891" lon="3.28122">
        <ele>7.1</ele>
        <time>2024-11-10T12:47:51Z</time>
      </trkpt>
      <trkpt lat="42.28891" lon="3.28122">
        <ele>7.2</ele>
        <time>2024-11-10T12:47:52Z</time>
      </trkpt>
      <trkpt lat="42.28891" lon="3.28122">
        <ele>7.2</ele>
        <time>2024-11-10T12:47:53Z</time>
      </trkpt>
      <trkpt lat="42.28891" lon="3.28122">
        <ele>7.2</ele>
        <time>2024-11-10T12:47:54Z</time>
      </trkpt>
      <trkpt lat="42.28891" lon="3.28122">
        <ele>7.2</ele>
        <time>2024-11-10T12:47:55Z</time>
      </trkpt>
      <trkpt lat="42.28891" lon="3.28122">
        <ele>7.2</ele>
        <time>2024-11-10T12:47:56Z</time>
      </trkpt>
      <trkpt lat="42.2889" lon="3.28121">
        <ele>7.2</ele>
        <time>2024-11-10T12:47:57Z</time>
      </trkpt>
      <trkpt lat="42.2889" lon="3.28121">
        <ele>7.2</ele>
        <time>2024-11-10T12:47:58Z</time>
      </trkpt>
      <trkpt lat="42.2889" lon="3.28121">
        <ele>7.2</ele>
        <time>2024-11-10T12:47:59Z</time>
      </trkpt>
      <trkpt lat="42.2889" lon="3.28121">
        <ele>7.2</ele>
        <time>2024-11-10T12:48:00Z</time>
      </trkpt>
      <trkpt lat="42.2889" lon="3.28121">
        <ele>7.2</ele>
        <time>2024-11-10T12:48:01Z</time>
      </trkpt>
      <trkpt lat="42.2889" lon="3.28121">
        <ele>7.2</ele>
        <time>2024-11-10T12:48:02Z</time>
      </trkpt>
      <trkpt lat="42.2889" lon="3.28121">
        <ele>7.2</ele>
        <time>2024-11-10T12:48:03Z</time>
      </trkpt>
      <trkpt lat="42.2889" lon="3.28121">
        <ele>7.2</ele>
        <time>2024-11-10T12:48:04Z</time>
      </trkpt>
      <trkpt lat="42.2889" lon="3.28121">
        <ele>7.2</ele>
        <time>2024-11-10T12:48:05Z</time>
      </trkpt>
      <trkpt lat="42.2889" lon="3.28121">
        <ele>7.2</ele>
        <time>2024-11-10T12:48:06Z</time>
      </trkpt>
      <trkpt lat="42.2889" lon="3.28121">
        <ele>7.2</ele>
        <time>2024-11-10T12:48:07Z</time>
      </trkpt>
      <trkpt lat="42.2889" lon="3.28121">
        <ele>7.2</ele>
        <time>2024-11-10T12:48:08Z</time>
      </trkpt>
      <trkpt lat="42.2889" lon="3.28121">
        <ele>7.2</ele>
        <time>2024-11-10T12:48:09Z</time>
      </trkpt>
      <trkpt lat="42.2889" lon="3.28121">
        <ele>7.2</ele>
        <time>2024-11-10T12:48:10Z</time>
      </trkpt>
      <trkpt lat="42.2889" lon="3.28121">
        <ele>7.2</ele>
        <time>2024-11-10T12:48:11Z</time>
      </trkpt>
      <trkpt lat="42.2889" lon="3.28121">
        <ele>7.2</ele>
        <time>2024-11-10T12:48:12Z</time>
      </trkpt>
      <trkpt lat="42.2889" lon="3.28121">
        <ele>7.2</ele>
        <time>2024-11-10T12:48:13Z</time>
      </trkpt>
      <trkpt lat="42.2889" lon="3.28121">
        <ele>7.2</ele>
        <time>2024-11-10T12:48:14Z</time>
      </trkpt>
      <trkpt lat="42.2889" lon="3.28121">
        <ele>7.2</ele>
        <time>2024-11-10T12:48:15Z</time>
      </trkpt>
      <trkpt lat="42.2889" lon="3.28121">
        <ele>7.2</ele>
        <time>2024-11-10T12:48:16Z</time>
      </trkpt>
      <trkpt lat="42.2889" lon="3.2812">
        <ele>7.2</ele>
        <time>2024-11-10T12:48:17Z</time>
      </trkpt>
      <trkpt lat="42.28891" lon="3.2812">
        <ele>7.2</ele>
        <time>2024-11-10T12:48:18Z</time>
      </trkpt>
      <trkpt lat="42.28891" lon="3.2812">
        <ele>7.2</ele>
        <time>2024-11-10T12:48:19Z</time>
      </trkpt>
      <trkpt lat="42.28891" lon="3.2812">
        <ele>7.2</ele>
        <time>2024-11-10T12:48:20Z</time>
      </trkpt>
      <trkpt lat="42.28891" lon="3.2812">
        <ele>7.2</ele>
        <time>2024-11-10T12:48:21Z</time>
      </trkpt>
      <trkpt lat="42.2889" lon="3.28121">
        <ele>7.2</ele>
        <time>2024-11-10T12:48:22Z</time>
      </trkpt>
      <trkpt lat="42.2889" lon="3.28121">
        <ele>7.2</ele>
        <time>2024-11-10T12:48:23Z</time>
      </trkpt>
      <trkpt lat="42.2889" lon="3.28121">
        <ele>7.2</ele>
        <time>2024-11-10T12:48:24Z</time>
      </trkpt>
      <trkpt lat="42.2889" lon="3.28121">
        <ele>7.2</ele>
        <time>2024-11-10T12:48:25Z</time>
      </trkpt>
      <trkpt lat="42.2889" lon="3.28121">
        <ele>7.2</ele>
        <time>2024-11-10T12:48:26Z</time>
      </trkpt>
      <trkpt lat="42.2889" lon="3.28121">
        <ele>7.2</ele>
        <time>2024-11-10T12:48:27Z</time>
      </trkpt>
      <trkpt lat="42.2889" lon="3.28121">
        <ele>7.2</ele>
        <time>2024-11-10T12:48:28Z</time>
      </trkpt>
      <trkpt lat="42.2889" lon="3.28121">
        <ele>7.2</ele>
        <time>2024-11-10T12:48:29Z</time>
      </trkpt>
      <trkpt lat="42.2889" lon="3.28121">
        <ele>7.2</ele>
        <time>2024-11-10T12:48:30Z</time>
      </trkpt>
      <trkpt lat="42.2889" lon="3.28121">
        <ele>7.2</ele>
        <time>2024-11-10T12:48:31Z</time>
      </trkpt>
      <trkpt lat="42.2889" lon="3.28121">
        <ele>7.2</ele>
        <time>2024-11-10T12:48:32Z</time>
      </trkpt>
      <trkpt lat="42.2889" lon="3.28121">
        <ele>7.2</ele>
        <time>2024-11-10T12:48:33Z</time>
      </trkpt>
      <trkpt lat="42.2889" lon="3.28121">
        <ele>7.2</ele>
        <time>2024-11-10T12:48:34Z</time>
      </trkpt>
      <trkpt lat="42.2889" lon="3.28121">
        <ele>7.2</ele>
        <time>2024-11-10T12:48:35Z</time>
      </trkpt>
      <trkpt lat="42.2889" lon="3.28121">
        <ele>7.2</ele>
        <time>2024-11-10T12:48:36Z</time>
      </trkpt>
      <trkpt lat="42.2889" lon="3.28121">
        <ele>7.2</ele>
        <time>2024-11-10T12:48:37Z</time>
      </trkpt>
      <trkpt lat="42.2889" lon="3.28121">
        <ele>7.2</ele>
        <time>2024-11-10T12:48:38Z</time>
      </trkpt>
      <trkpt lat="42.2889" lon="3.28121">
        <ele>7.2</ele>
        <time>2024-11-10T12:48:39Z</time>
      </trkpt>
      <trkpt lat="42.2889" lon="3.28121">
        <ele>7.2</ele>
        <time>2024-11-10T12:48:40Z</time>
      </trkpt>
      <trkpt lat="42.2889" lon="3.28121">
        <ele>7.2</ele>
        <time>2024-11-10T12:48:41Z</time>
      </trkpt>
      <trkpt lat="42.2889" lon="3.28121">
        <ele>7.2</ele>
        <time>2024-11-10T12:48:42Z</time>
      </trkpt>
      <trkpt lat="42.2889" lon="3.28121">
        <ele>7.2</ele>
        <time>2024-11-10T12:48:43Z</time>
      </trkpt>
      <trkpt lat="42.2889" lon="3.28121">
        <ele>7.2</ele>
        <time>2024-11-10T12:48:44Z</time>
      </trkpt>
      <trkpt lat="42.2889" lon="3.28121">
        <ele>7.2</ele>
        <time>2024-11-10T12:48:45Z</time>
      </trkpt>
      <trkpt lat="42.2889" lon="3.28121">
        <ele>7.2</ele>
        <time>2024-11-10T12:48:46Z</time>
      </trkpt>
      <trkpt lat="42.28892" lon="3.28124">
        <ele>7.2</ele>
        <time>2024-11-10T12:48:47Z</time>
      </trkpt>
      <trkpt lat="42.28892" lon="3.28124">
        <ele>7.2</ele>
        <time>2024-11-10T12:48:48Z</time>
      </trkpt>
      <trkpt lat="42.28892" lon="3.28124">
        <ele>7.2</ele>
        <time>2024-11-10T12:48:49Z</time>
      </trkpt>
      <trkpt lat="42.28892" lon="3.28124">
        <ele>7.2</ele>
        <time>2024-11-10T12:48:50Z</time>
      </trkpt>
      <trkpt lat="42.28892" lon="3.28124">
        <ele>7.2</ele>
        <time>2024-11-10T12:48:51Z</time>
      </trkpt>
      <trkpt lat="42.28892" lon="3.28124">
        <ele>7.2</ele>
        <time>2024-11-10T12:48:52Z</time>
      </trkpt>
      <trkpt lat="42.28892" lon="3.28124">
        <ele>7.2</ele>
        <time>2024-11-10T12:48:53Z</time>
      </trkpt>
      <trkpt lat="42.28892" lon="3.28124">
        <ele>7.2</ele>
        <time>2024-11-10T12:48:54Z</time>
      </trkpt>
      <trkpt lat="42.28892" lon="3.28124">
        <ele>7.2</ele>
        <time>2024-11-10T12:48:55Z</time>
      </trkpt>
      <trkpt lat="42.28892" lon="3.28124">
        <ele>7.2</ele>
        <time>2024-11-10T12:48:56Z</time>
      </trkpt>
      <trkpt lat="42.28889" lon="3.28126">
        <ele>7.2</ele>
        <time>2024-11-10T12:48:57Z</time>
      </trkpt>
      <trkpt lat="42.28888" lon="3.28126">
        <ele>7.2</ele>
        <time>2024-11-10T12:48:58Z</time>
      </trkpt>
      <trkpt lat="42.28888" lon="3.28126">
        <ele>7.2</ele>
        <time>2024-11-10T12:48:59Z</time>
      </trkpt>
      <trkpt lat="42.28888" lon="3.28126">
        <ele>7.2</ele>
        <time>2024-11-10T12:49:00Z</time>
      </trkpt>
      <trkpt lat="42.28888" lon="3.28126">
        <ele>7.2</ele>
        <time>2024-11-10T12:49:01Z</time>
      </trkpt>
      <trkpt lat="42.28888" lon="3.28126">
        <ele>7.2</ele>
        <time>2024-11-10T12:49:02Z</time>
      </trkpt>
      <trkpt lat="42.28888" lon="3.28126">
        <ele>7.2</ele>
        <time>2024-11-10T12:49:03Z</time>
      </trkpt>
      <trkpt lat="42.28888" lon="3.28126">
        <ele>7.2</ele>
        <time>2024-11-10T12:49:04Z</time>
      </trkpt>
      <trkpt lat="42.28888" lon="3.28126">
        <ele>7.2</ele>
        <time>2024-11-10T12:49:05Z</time>
      </trkpt>
      <trkpt lat="42.28888" lon="3.28126">
        <ele>7.2</ele>
        <time>2024-11-10T12:49:06Z</time>
      </trkpt>
      <trkpt lat="42.28891" lon="3.28124">
        <ele>7.2</ele>
        <time>2024-11-10T12:49:07Z</time>
      </trkpt>
      <trkpt lat="42.28892" lon="3.28124">
        <ele>7.2</ele>
        <time>2024-11-10T12:49:08Z</time>
      </trkpt>
      <trkpt lat="42.28892" lon="3.28124">
        <ele>7.2</ele>
        <time>2024-11-10T12:49:09Z</time>
      </trkpt>
      <trkpt lat="42.28892" lon="3.28124">
        <ele>7.2</ele>
        <time>2024-11-10T12:49:10Z</time>
      </trkpt>
      <trkpt lat="42.28892" lon="3.28124">
        <ele>7.2</ele>
        <time>2024-11-10T12:49:11Z</time>
      </trkpt>
      <trkpt lat="42.28892" lon="3.28124">
        <ele>7.2</ele>
        <time>2024-11-10T12:49:12Z</time>
      </trkpt>
      <trkpt lat="42.28892" lon="3.28124">
        <ele>7.2</ele>
        <time>2024-11-10T12:49:13Z</time>
      </trkpt>
      <trkpt lat="42.28892" lon="3.28124">
        <ele>7.2</ele>
        <time>2024-11-10T12:49:14Z</time>
      </trkpt>
      <trkpt lat="42.28892" lon="3.28124">
        <ele>7.2</ele>
        <time>2024-11-10T12:49:15Z</time>
      </trkpt>
      <trkpt lat="42.28892" lon="3.28124">
        <ele>7.2</ele>
        <time>2024-11-10T12:49:16Z</time>
      </trkpt>
      <trkpt lat="42.28892" lon="3.28124">
        <ele>7.2</ele>
        <time>2024-11-10T12:49:17Z</time>
      </trkpt>
      <trkpt lat="42.28892" lon="3.28124">
        <ele>7.2</ele>
        <time>2024-11-10T12:49:18Z</time>
      </trkpt>
      <trkpt lat="42.28892" lon="3.28124">
        <ele>7.2</ele>
        <time>2024-11-10T12:49:19Z</time>
      </trkpt>
      <trkpt lat="42.28892" lon="3.28124">
        <ele>7.2</ele>
        <time>2024-11-10T12:49:20Z</time>
      </trkpt>
      <trkpt lat="42.28892" lon="3.28124">
        <ele>7.2</ele>
        <time>2024-11-10T12:49:21Z</time>
      </trkpt>
      <trkpt lat="42.28892" lon="3.28124">
        <ele>7.2</ele>
        <time>2024-11-10T12:49:22Z</time>
      </trkpt>
      <trkpt lat="42.28892" lon="3.28124">
        <ele>7.2</ele>
        <time>2024-11-10T12:49:23Z</time>
      </trkpt>
      <trkpt lat="42.28892" lon="3.28124">
        <ele>7.2</ele>
        <time>2024-11-10T12:49:24Z</time>
      </trkpt>
      <trkpt lat="42.28892" lon="3.28124">
        <ele>7.2</ele>
        <time>2024-11-10T12:49:25Z</time>
      </trkpt>
      <trkpt lat="42.28892" lon="3.28124">
        <ele>7.2</ele>
        <time>2024-11-10T12:49:26Z</time>
      </trkpt>
      <trkpt lat="42.28892" lon="3.28124">
        <ele>7.2</ele>
        <time>2024-11-10T12:49:27Z</time>
      </trkpt>
      <trkpt lat="42.28892" lon="3.28124">
        <ele>7.2</ele>
        <time>2024-11-10T12:49:28Z</time>
      </trkpt>
      <trkpt lat="42.28892" lon="3.28124">
        <ele>7.2</ele>
        <time>2024-11-10T12:49:29Z</time>
      </trkpt>
      <trkpt lat="42.28892" lon="3.28124">
        <ele>7.2</ele>
        <time>2024-11-10T12:49:30Z</time>
      </trkpt>
      <trkpt lat="42.28892" lon="3.28124">
        <ele>7.2</ele>
        <time>2024-11-10T12:49:31Z</time>
      </trkpt>
      <trkpt lat="42.2889" lon="3.28125">
        <ele>7.2</ele>
        <time>2024-11-10T12:49:32Z</time>
      </trkpt>
      <trkpt lat="42.28889" lon="3.28126">
        <ele>7.2</ele>
        <time>2024-11-10T12:49:33Z</time>
      </trkpt>
      <trkpt lat="42.28889" lon="3.28126">
        <ele>7.2</ele>
        <time>2024-11-10T12:49:34Z</time>
      </trkpt>
      <trkpt lat="42.28889" lon="3.28126">
        <ele>7.2</ele>
        <time>2024-11-10T12:49:35Z</time>
      </trkpt>
      <trkpt lat="42.28889" lon="3.28126">
        <ele>7.2</ele>
        <time>2024-11-10T12:49:36Z</time>
      </trkpt>
      <trkpt lat="42.28891" lon="3.28124">
        <ele>7.2</ele>
        <time>2024-11-10T12:49:37Z</time>
      </trkpt>
      <trkpt lat="42.28892" lon="3.28124">
        <ele>7.2</ele>
        <time>2024-11-10T12:49:38Z</time>
      </trkpt>
      <trkpt lat="42.28892" lon="3.28124">
        <ele>7.2</ele>
        <time>2024-11-10T12:49:39Z</time>
      </trkpt>
      <trkpt lat="42.28892" lon="3.28124">
        <ele>7.2</ele>
        <time>2024-11-10T12:49:40Z</time>
      </trkpt>
      <trkpt lat="42.28892" lon="3.28124">
        <ele>7.2</ele>
        <time>2024-11-10T12:49:41Z</time>
      </trkpt>
      <trkpt lat="42.28892" lon="3.28124">
        <ele>7.2</ele>
        <time>2024-11-10T12:49:42Z</time>
      </trkpt>
      <trkpt lat="42.28892" lon="3.28124">
        <ele>7.2</ele>
        <time>2024-11-10T12:49:43Z</time>
      </trkpt>
      <trkpt lat="42.28892" lon="3.28124">
        <ele>7.2</ele>
        <time>2024-11-10T12:49:44Z</time>
      </trkpt>
      <trkpt lat="42.28892" lon="3.28124">
        <ele>7.2</ele>
        <time>2024-11-10T12:49:45Z</time>
      </trkpt>
      <trkpt lat="42.28892" lon="3.28124">
        <ele>7.2</ele>
        <time>2024-11-10T12:49:46Z</time>
      </trkpt>
      <trkpt lat="42.28892" lon="3.28124">
        <ele>7.2</ele>
        <time>2024-11-10T12:49:47Z</time>
      </trkpt>
      <trkpt lat="42.28892" lon="3.28124">
        <ele>7.2</ele>
        <time>2024-11-10T12:49:48Z</time>
      </trkpt>
      <trkpt lat="42.28892" lon="3.28124">
        <ele>7.2</ele>
        <time>2024-11-10T12:49:49Z</time>
      </trkpt>
      <trkpt lat="42.28892" lon="3.28124">
        <ele>7.2</ele>
        <time>2024-11-10T12:49:50Z</time>
      </trkpt>
      <trkpt lat="42.28892" lon="3.28124">
        <ele>7.2</ele>
        <time>2024-11-10T12:49:51Z</time>
      </trkpt>
      <trkpt lat="42.28892" lon="3.28124">
        <ele>7.2</ele>
        <time>2024-11-10T12:49:52Z</time>
      </trkpt>
      <trkpt lat="42.28892" lon="3.28124">
        <ele>7.2</ele>
        <time>2024-11-10T12:49:53Z</time>
      </trkpt>
      <trkpt lat="42.28892" lon="3.28124">
        <ele>7.2</ele>
        <time>2024-11-10T12:49:54Z</time>
      </trkpt>
      <trkpt lat="42.28892" lon="3.28124">
        <ele>7.2</ele>
        <time>2024-11-10T12:49:55Z</time>
      </trkpt>
      <trkpt lat="42.28892" lon="3.28124">
        <ele>7.2</ele>
        <time>2024-11-10T12:49:56Z</time>
      </trkpt>
      <trkpt lat="42.28891" lon="3.28122">
        <ele>7.2</ele>
        <time>2024-11-10T12:49:57Z</time>
      </trkpt>
      <trkpt lat="42.2889" lon="3.28121">
        <ele>7.2</ele>
        <time>2024-11-10T12:49:58Z</time>
      </trkpt>
      <trkpt lat="42.2889" lon="3.28121">
        <ele>7.2</ele>
        <time>2024-11-10T12:49:59Z</time>
      </trkpt>
      <trkpt lat="42.2889" lon="3.28121">
        <ele>7.2</ele>
        <time>2024-11-10T12:50:00Z</time>
      </trkpt>
      <trkpt lat="42.2889" lon="3.28121">
        <ele>7.2</ele>
        <time>2024-11-10T12:50:01Z</time>
      </trkpt>
      <trkpt lat="42.2889" lon="3.28122">
        <ele>7.2</ele>
        <time>2024-11-10T12:50:02Z</time>
      </trkpt>
      <trkpt lat="42.2889" lon="3.28122">
        <ele>7.2</ele>
        <time>2024-11-10T12:50:03Z</time>
      </trkpt>
      <trkpt lat="42.2889" lon="3.28122">
        <ele>7.2</ele>
        <time>2024-11-10T12:50:04Z</time>
      </trkpt>
      <trkpt lat="42.2889" lon="3.28122">
        <ele>7.2</ele>
        <time>2024-11-10T12:50:05Z</time>
      </trkpt>
      <trkpt lat="42.2889" lon="3.28122">
        <ele>7.2</ele>
        <time>2024-11-10T12:50:06Z</time>
      </trkpt>
      <trkpt lat="42.2889" lon="3.28122">
        <ele>7.2</ele>
        <time>2024-11-10T12:50:07Z</time>
      </trkpt>
      <trkpt lat="42.2889" lon="3.28122">
        <ele>7.2</ele>
        <time>2024-11-10T12:50:08Z</time>
      </trkpt>
      <trkpt lat="42.2889" lon="3.28122">
        <ele>7.2</ele>
        <time>2024-11-10T12:50:09Z</time>
      </trkpt>
      <trkpt lat="42.2889" lon="3.28122">
        <ele>7.2</ele>
        <time>2024-11-10T12:50:10Z</time>
      </trkpt>
      <trkpt lat="42.2889" lon="3.28122">
        <ele>7.2</ele>
        <time>2024-11-10T12:50:11Z</time>
      </trkpt>
      <trkpt lat="42.2889" lon="3.28122">
        <ele>7.2</ele>
        <time>2024-11-10T12:50:12Z</time>
      </trkpt>
      <trkpt lat="42.2889" lon="3.28122">
        <ele>7.2</ele>
        <time>2024-11-10T12:50:13Z</time>
      </trkpt>
      <trkpt lat="42.2889" lon="3.28122">
        <ele>7.2</ele>
        <time>2024-11-10T12:50:14Z</time>
      </trkpt>
      <trkpt lat="42.2889" lon="3.28122">
        <ele>7.2</ele>
        <time>2024-11-10T12:50:15Z</time>
      </trkpt>
      <trkpt lat="42.2889" lon="3.28122">
        <ele>7.2</ele>
        <time>2024-11-10T12:50:16Z</time>
      </trkpt>
      <trkpt lat="42.2889" lon="3.28121">
        <ele>7.2</ele>
        <time>2024-11-10T12:50:17Z</time>
      </trkpt>
      <trkpt lat="42.2889" lon="3.28121">
        <ele>7.2</ele>
        <time>2024-11-10T12:50:18Z</time>
      </trkpt>
      <trkpt lat="42.2889" lon="3.28121">
        <ele>7.2</ele>
        <time>2024-11-10T12:50:19Z</time>
      </trkpt>
      <trkpt lat="42.2889" lon="3.28121">
        <ele>7.2</ele>
        <time>2024-11-10T12:50:20Z</time>
      </trkpt>
      <trkpt lat="42.2889" lon="3.28121">
        <ele>7.2</ele>
        <time>2024-11-10T12:50:21Z</time>
      </trkpt>
      <trkpt lat="42.2889" lon="3.28121">
        <ele>7.2</ele>
        <time>2024-11-10T12:50:22Z</time>
      </trkpt>
      <trkpt lat="42.2889" lon="3.28122">
        <ele>7.2</ele>
        <time>2024-11-10T12:50:23Z</time>
      </trkpt>
      <trkpt lat="42.2889" lon="3.28122">
        <ele>7.2</ele>
        <time>2024-11-10T12:50:24Z</time>
      </trkpt>
      <trkpt lat="42.2889" lon="3.28122">
        <ele>7.2</ele>
        <time>2024-11-10T12:50:25Z</time>
      </trkpt>
      <trkpt lat="42.2889" lon="3.28122">
        <ele>7.2</ele>
        <time>2024-11-10T12:50:26Z</time>
      </trkpt>
      <trkpt lat="42.28892" lon="3.28124">
        <ele>7.2</ele>
        <time>2024-11-10T12:50:27Z</time>
      </trkpt>
      <trkpt lat="42.28892" lon="3.28124">
        <ele>7.2</ele>
        <time>2024-11-10T12:50:28Z</time>
      </trkpt>
      <trkpt lat="42.28892" lon="3.28124">
        <ele>7.2</ele>
        <time>2024-11-10T12:50:29Z</time>
      </trkpt>
      <trkpt lat="42.28892" lon="3.28124">
        <ele>7.2</ele>
        <time>2024-11-10T12:50:30Z</time>
      </trkpt>
      <trkpt lat="42.28892" lon="3.28124">
        <ele>7.2</ele>
        <time>2024-11-10T12:50:31Z</time>
      </trkpt>
      <trkpt lat="42.28892" lon="3.28124">
        <ele>7.2</ele>
        <time>2024-11-10T12:50:32Z</time>
      </trkpt>
      <trkpt lat="42.28892" lon="3.28124">
        <ele>7.2</ele>
        <time>2024-11-10T12:50:33Z</time>
      </trkpt>
      <trkpt lat="42.28892" lon="3.28124">
        <ele>7.2</ele>
        <time>2024-11-10T12:50:34Z</time>
      </trkpt>
      <trkpt lat="42.28892" lon="3.28124">
        <ele>7.2</ele>
        <time>2024-11-10T12:50:35Z</time>
      </trkpt>
      <trkpt lat="42.28892" lon="3.28124">
        <ele>7.2</ele>
        <time>2024-11-10T12:50:36Z</time>
      </trkpt>
      <trkpt lat="42.28892" lon="3.28124">
        <ele>7.2</ele>
        <time>2024-11-10T12:50:37Z</time>
      </trkpt>
      <trkpt lat="42.28891" lon="3.28123">
        <ele>7.2</ele>
        <time>2024-11-10T12:50:38Z</time>
      </trkpt>
      <trkpt lat="42.2889" lon="3.28122">
        <ele>7.2</ele>
        <time>2024-11-10T12:50:39Z</time>
      </trkpt>
      <trkpt lat="42.2889" lon="3.28122">
        <ele>7.2</ele>
        <time>2024-11-10T12:50:40Z</time>
      </trkpt>
      <trkpt lat="42.2889" lon="3.28122">
        <ele>7.2</ele>
        <time>2024-11-10T12:50:41Z</time>
      </trkpt>
      <trkpt lat="42.2889" lon="3.28122">
        <ele>7.2</ele>
        <time>2024-11-10T12:50:42Z</time>
      </trkpt>
      <trkpt lat="42.2889" lon="3.28122">
        <ele>7.2</ele>
        <time>2024-11-10T12:50:43Z</time>
      </trkpt>
      <trkpt lat="42.2889" lon="3.28122">
        <ele>7.2</ele>
        <time>2024-11-10T12:50:44Z</time>
      </trkpt>
      <trkpt lat="42.2889" lon="3.28122">
        <ele>7.2</ele>
        <time>2024-11-10T12:50:45Z</time>
      </trkpt>
      <trkpt lat="42.2889" lon="3.28122">
        <ele>7.2</ele>
        <time>2024-11-10T12:50:46Z</time>
      </trkpt>
      <trkpt lat="42.2889" lon="3.28122">
        <ele>7.2</ele>
        <time>2024-11-10T12:50:47Z</time>
      </trkpt>
      <trkpt lat="42.2889" lon="3.28121">
        <ele>7.2</ele>
        <time>2024-11-10T12:50:48Z</time>
      </trkpt>
      <trkpt lat="42.2889" lon="3.28121">
        <ele>7.2</ele>
        <time>2024-11-10T12:50:49Z</time>
      </trkpt>
      <trkpt lat="42.2889" lon="3.28121">
        <ele>7.2</ele>
        <time>2024-11-10T12:50:50Z</time>
      </trkpt>
      <trkpt lat="42.2889" lon="3.28121">
        <ele>7.2</ele>
        <time>2024-11-10T12:50:51Z</time>
      </trkpt>
      <trkpt lat="42.2889" lon="3.28121">
        <ele>7.2</ele>
        <time>2024-11-10T12:50:52Z</time>
      </trkpt>
      <trkpt lat="42.28891" lon="3.28124">
        <ele>7.3</ele>
        <time>2024-11-10T12:50:53Z</time>
      </trkpt>
      <trkpt lat="42.28891" lon="3.28123">
        <ele>7.3</ele>
        <time>2024-11-10T12:50:54Z</time>
      </trkpt>
      <trkpt lat="42.28891" lon="3.28122">
        <ele>7.3</ele>
        <time>2024-11-10T12:50:55Z</time>
      </trkpt>
      <trkpt lat="42.2889" lon="3.28122">
        <ele>7.3</ele>
        <time>2024-11-10T12:50:56Z</time>
      </trkpt>
      <trkpt lat="42.28891" lon="3.28124">
        <ele>7.3</ele>
        <time>2024-11-10T12:50:57Z</time>
      </trkpt>
      <trkpt lat="42.28891" lon="3.28122">
        <ele>7.3</ele>
        <time>2024-11-10T12:50:58Z</time>
      </trkpt>
      <trkpt lat="42.2889" lon="3.28122">
        <ele>7.3</ele>
        <time>2024-11-10T12:50:59Z</time>
      </trkpt>
      <trkpt lat="42.2889" lon="3.28122">
        <ele>7.3</ele>
        <time>2024-11-10T12:51:00Z</time>
      </trkpt>
      <trkpt lat="42.2889" lon="3.28122">
        <ele>7.3</ele>
        <time>2024-11-10T12:51:01Z</time>
      </trkpt>
      <trkpt lat="42.2889" lon="3.28122">
        <ele>7.3</ele>
        <time>2024-11-10T12:51:02Z</time>
      </trkpt>
      <trkpt lat="42.2889" lon="3.28122">
        <ele>7.3</ele>
        <time>2024-11-10T12:51:03Z</time>
      </trkpt>
      <trkpt lat="42.2889" lon="3.28122">
        <ele>7.3</ele>
        <time>2024-11-10T12:51:04Z</time>
      </trkpt>
      <trkpt lat="42.28891" lon="3.28122">
        <ele>7.3</ele>
        <time>2024-11-10T12:51:05Z</time>
      </trkpt>
      <trkpt lat="42.28891" lon="3.28122">
        <ele>7.3</ele>
        <time>2024-11-10T12:51:06Z</time>
      </trkpt>
      <trkpt lat="42.28891" lon="3.28122">
        <ele>7.3</ele>
        <time>2024-11-10T12:51:07Z</time>
      </trkpt>
      <trkpt lat="42.28891" lon="3.28124">
        <ele>7.3</ele>
        <time>2024-11-10T12:51:08Z</time>
      </trkpt>
      <trkpt lat="42.28892" lon="3.28124">
        <ele>7.3</ele>
        <time>2024-11-10T12:51:09Z</time>
      </trkpt>
      <trkpt lat="42.28892" lon="3.28124">
        <ele>7.3</ele>
        <time>2024-11-10T12:51:10Z</time>
      </trkpt>
      <trkpt lat="42.28892" lon="3.28124">
        <ele>7.3</ele>
        <time>2024-11-10T12:51:11Z</time>
      </trkpt>
      <trkpt lat="42.28892" lon="3.28124">
        <ele>7.3</ele>
        <time>2024-11-10T12:51:12Z</time>
      </trkpt>
      <trkpt lat="42.28891" lon="3.28123">
        <ele>7.3</ele>
        <time>2024-11-10T12:51:13Z</time>
      </trkpt>
      <trkpt lat="42.2889" lon="3.28122">
        <ele>7.3</ele>
        <time>2024-11-10T12:51:14Z</time>
      </trkpt>
      <trkpt lat="42.2889" lon="3.28122">
        <ele>7.3</ele>
        <time>2024-11-10T12:51:15Z</time>
      </trkpt>
      <trkpt lat="42.2889" lon="3.28122">
        <ele>7.3</ele>
        <time>2024-11-10T12:51:16Z</time>
      </trkpt>
      <trkpt lat="42.2889" lon="3.28122">
        <ele>7.3</ele>
        <time>2024-11-10T12:51:17Z</time>
      </trkpt>
      <trkpt lat="42.2889" lon="3.28122">
        <ele>7.3</ele>
        <time>2024-11-10T12:51:18Z</time>
      </trkpt>
      <trkpt lat="42.2889" lon="3.28123">
        <ele>7.3</ele>
        <time>2024-11-10T12:51:19Z</time>
      </trkpt>
      <trkpt lat="42.28891" lon="3.28123">
        <ele>7.3</ele>
        <time>2024-11-10T12:51:20Z</time>
      </trkpt>
      <trkpt lat="42.28891" lon="3.28123">
        <ele>7.3</ele>
        <time>2024-11-10T12:51:21Z</time>
      </trkpt>
      <trkpt lat="42.28891" lon="3.28123">
        <ele>7.3</ele>
        <time>2024-11-10T12:51:22Z</time>
      </trkpt>
      <trkpt lat="42.2889" lon="3.28122">
        <ele>7.3</ele>
        <time>2024-11-10T12:51:23Z</time>
      </trkpt>
      <trkpt lat="42.2889" lon="3.28122">
        <ele>7.3</ele>
        <time>2024-11-10T12:51:24Z</time>
      </trkpt>
      <trkpt lat="42.2889" lon="3.28122">
        <ele>7.3</ele>
        <time>2024-11-10T12:51:25Z</time>
      </trkpt>
      <trkpt lat="42.2889" lon="3.28122">
        <ele>7.3</ele>
        <time>2024-11-10T12:51:26Z</time>
      </trkpt>
      <trkpt lat="42.2889" lon="3.28122">
        <ele>7.3</ele>
        <time>2024-11-10T12:51:27Z</time>
      </trkpt>
      <trkpt lat="42.2889" lon="3.28122">
        <ele>7.3</ele>
        <time>2024-11-10T12:51:28Z</time>
      </trkpt>
      <trkpt lat="42.2889" lon="3.28122">
        <ele>7.3</ele>
        <time>2024-11-10T12:51:29Z</time>
      </trkpt>
      <trkpt lat="42.2889" lon="3.28122">
        <ele>7.3</ele>
        <time>2024-11-10T12:51:30Z</time>
      </trkpt>
      <trkpt lat="42.2889" lon="3.28122">
        <ele>7.3</ele>
        <time>2024-11-10T12:51:31Z</time>
      </trkpt>
      <trkpt lat="42.2889" lon="3.28122">
        <ele>7.3</ele>
        <time>2024-11-10T12:51:32Z</time>
      </trkpt>
      <trkpt lat="42.28891" lon="3.28124">
        <ele>7.3</ele>
        <time>2024-11-10T12:51:33Z</time>
      </trkpt>
      <trkpt lat="42.28891" lon="3.28123">
        <ele>7.3</ele>
        <time>2024-11-10T12:51:34Z</time>
      </trkpt>
      <trkpt lat="42.28891" lon="3.28122">
        <ele>7.3</ele>
        <time>2024-11-10T12:51:35Z</time>
      </trkpt>
      <trkpt lat="42.2889" lon="3.28122">
        <ele>7.3</ele>
        <time>2024-11-10T12:51:36Z</time>
      </trkpt>
      <trkpt lat="42.2889" lon="3.28122">
        <ele>7.3</ele>
        <time>2024-11-10T12:51:37Z</time>
      </trkpt>
      <trkpt lat="42.2889" lon="3.28122">
        <ele>7.3</ele>
        <time>2024-11-10T12:51:38Z</time>
      </trkpt>
      <trkpt lat="42.2889" lon="3.28122">
        <ele>7.3</ele>
        <time>2024-11-10T12:51:39Z</time>
      </trkpt>
      <trkpt lat="42.2889" lon="3.28122">
        <ele>7.3</ele>
        <time>2024-11-10T12:51:40Z</time>
      </trkpt>
      <trkpt lat="42.2889" lon="3.28122">
        <ele>7.3</ele>
        <time>2024-11-10T12:51:41Z</time>
      </trkpt>
      <trkpt lat="42.2889" lon="3.28122">
        <ele>7.3</ele>
        <time>2024-11-10T12:51:42Z</time>
      </trkpt>
      <trkpt lat="42.2889" lon="3.28122">
        <ele>7.3</ele>
        <time>2024-11-10T12:51:43Z</time>
      </trkpt>
      <trkpt lat="42.2889" lon="3.28122">
        <ele>7.3</ele>
        <time>2024-11-10T12:51:44Z</time>
      </trkpt>
      <trkpt lat="42.2889" lon="3.28123">
        <ele>7.3</ele>
        <time>2024-11-10T12:51:45Z</time>
      </trkpt>
      <trkpt lat="42.2889" lon="3.28123">
        <ele>7.3</ele>
        <time>2024-11-10T12:51:46Z</time>
      </trkpt>
      <trkpt lat="42.2889" lon="3.28123">
        <ele>7.3</ele>
        <time>2024-11-10T12:51:47Z</time>
      </trkpt>
      <trkpt lat="42.2889" lon="3.28122">
        <ele>7.3</ele>
        <time>2024-11-10T12:51:48Z</time>
      </trkpt>
      <trkpt lat="42.2889" lon="3.28122">
        <ele>7.3</ele>
        <time>2024-11-10T12:51:49Z</time>
      </trkpt>
      <trkpt lat="42.2889" lon="3.28122">
        <ele>7.3</ele>
        <time>2024-11-10T12:51:50Z</time>
      </trkpt>
      <trkpt lat="42.2889" lon="3.28122">
        <ele>7.3</ele>
        <time>2024-11-10T12:51:51Z</time>
      </trkpt>
      <trkpt lat="42.2889" lon="3.28122">
        <ele>7.3</ele>
        <time>2024-11-10T12:51:52Z</time>
      </trkpt>
      <trkpt lat="42.2889" lon="3.28122">
        <ele>7.3</ele>
        <time>2024-11-10T12:51:53Z</time>
      </trkpt>
      <trkpt lat="42.2889" lon="3.28122">
        <ele>7.3</ele>
        <time>2024-11-10T12:51:54Z</time>
      </trkpt>
      <trkpt lat="42.2889" lon="3.28122">
        <ele>7.3</ele>
        <time>2024-11-10T12:51:55Z</time>
      </trkpt>
      <trkpt lat="42.2889" lon="3.28122">
        <ele>7.3</ele>
        <time>2024-11-10T12:51:56Z</time>
      </trkpt>
      <trkpt lat="42.2889" lon="3.28122">
        <ele>7.3</ele>
        <time>2024-11-10T12:51:57Z</time>
      </trkpt>
      <trkpt lat="42.28892" lon="3.28125">
        <ele>7.3</ele>
        <time>2024-11-10T12:51:58Z</time>
      </trkpt>
      <trkpt lat="42.28892" lon="3.28125">
        <ele>7.3</ele>
        <time>2024-11-10T12:51:59Z</time>
      </trkpt>
      <trkpt lat="42.28892" lon="3.28125">
        <ele>7.3</ele>
        <time>2024-11-10T12:52:00Z</time>
      </trkpt>
      <trkpt lat="42.28892" lon="3.28125">
        <ele>7.3</ele>
        <time>2024-11-10T12:52:01Z</time>
      </trkpt>
      <trkpt lat="42.28892" lon="3.28125">
        <ele>7.3</ele>
        <time>2024-11-10T12:52:02Z</time>
      </trkpt>
      <trkpt lat="42.28891" lon="3.28123">
        <ele>7.3</ele>
        <time>2024-11-10T12:52:03Z</time>
      </trkpt>
      <trkpt lat="42.2889" lon="3.28122">
        <ele>7.3</ele>
        <time>2024-11-10T12:52:04Z</time>
      </trkpt>
      <trkpt lat="42.2889" lon="3.28122">
        <ele>7.3</ele>
        <time>2024-11-10T12:52:05Z</time>
      </trkpt>
      <trkpt lat="42.2889" lon="3.28122">
        <ele>7.3</ele>
        <time>2024-11-10T12:52:06Z</time>
      </trkpt>
      <trkpt lat="42.2889" lon="3.28122">
        <ele>7.3</ele>
        <time>2024-11-10T12:52:07Z</time>
      </trkpt>
      <trkpt lat="42.28892" lon="3.28125">
        <ele>7.3</ele>
        <time>2024-11-10T12:52:08Z</time>
      </trkpt>
      <trkpt lat="42.28892" lon="3.28125">
        <ele>7.3</ele>
        <time>2024-11-10T12:52:09Z</time>
      </trkpt>
      <trkpt lat="42.28892" lon="3.28125">
        <ele>7.3</ele>
        <time>2024-11-10T12:52:10Z</time>
      </trkpt>
      <trkpt lat="42.28892" lon="3.28125">
        <ele>7.3</ele>
        <time>2024-11-10T12:52:11Z</time>
      </trkpt>
      <trkpt lat="42.28892" lon="3.28125">
        <ele>7.3</ele>
        <time>2024-11-10T12:52:12Z</time>
      </trkpt>
      <trkpt lat="42.28892" lon="3.28125">
        <ele>7.3</ele>
        <time>2024-11-10T12:52:13Z</time>
      </trkpt>
      <trkpt lat="42.28892" lon="3.28125">
        <ele>7.3</ele>
        <time>2024-11-10T12:52:14Z</time>
      </trkpt>
      <trkpt lat="42.28892" lon="3.28125">
        <ele>7.3</ele>
        <time>2024-11-10T12:52:15Z</time>
      </trkpt>
      <trkpt lat="42.28892" lon="3.28125">
        <ele>7.3</ele>
        <time>2024-11-10T12:52:16Z</time>
      </trkpt>
      <trkpt lat="42.28892" lon="3.28125">
        <ele>7.3</ele>
        <time>2024-11-10T12:52:17Z</time>
      </trkpt>
      <trkpt lat="42.28892" lon="3.28125">
        <ele>7.3</ele>
        <time>2024-11-10T12:52:18Z</time>
      </trkpt>
      <trkpt lat="42.28892" lon="3.28125">
        <ele>7.3</ele>
        <time>2024-11-10T12:52:19Z</time>
      </trkpt>
      <trkpt lat="42.28892" lon="3.28125">
        <ele>7.3</ele>
        <time>2024-11-10T12:52:20Z</time>
      </trkpt>
      <trkpt lat="42.28892" lon="3.28125">
        <ele>7.3</ele>
        <time>2024-11-10T12:52:21Z</time>
      </trkpt>
      <trkpt lat="42.28892" lon="3.28125">
        <ele>7.3</ele>
        <time>2024-11-10T12:52:22Z</time>
      </trkpt>
      <trkpt lat="42.28892" lon="3.28125">
        <ele>7.3</ele>
        <time>2024-11-10T12:52:23Z</time>
      </trkpt>
      <trkpt lat="42.28892" lon="3.28125">
        <ele>7.3</ele>
        <time>2024-11-10T12:52:24Z</time>
      </trkpt>
      <trkpt lat="42.28892" lon="3.28125">
        <ele>7.3</ele>
        <time>2024-11-10T12:52:25Z</time>
      </trkpt>
      <trkpt lat="42.28892" lon="3.28125">
        <ele>7.3</ele>
        <time>2024-11-10T12:52:26Z</time>
      </trkpt>
      <trkpt lat="42.28892" lon="3.28125">
        <ele>7.3</ele>
        <time>2024-11-10T12:52:27Z</time>
      </trkpt>
      <trkpt lat="42.28892" lon="3.28125">
        <ele>7.3</ele>
        <time>2024-11-10T12:52:28Z</time>
      </trkpt>
      <trkpt lat="42.28892" lon="3.28125">
        <ele>7.3</ele>
        <time>2024-11-10T12:52:29Z</time>
      </trkpt>
      <trkpt lat="42.28892" lon="3.28125">
        <ele>7.3</ele>
        <time>2024-11-10T12:52:30Z</time>
      </trkpt>
      <trkpt lat="42.28891" lon="3.28123">
        <ele>7.3</ele>
        <time>2024-11-10T12:52:31Z</time>
      </trkpt>
      <trkpt lat="42.28892" lon="3.28125">
        <ele>7.3</ele>
        <time>2024-11-10T12:52:32Z</time>
      </trkpt>
      <trkpt lat="42.28891" lon="3.28123">
        <ele>7.3</ele>
        <time>2024-11-10T12:52:33Z</time>
      </trkpt>
      <trkpt lat="42.28891" lon="3.28122">
        <ele>7.3</ele>
        <time>2024-11-10T12:52:34Z</time>
      </trkpt>
      <trkpt lat="42.28891" lon="3.28122">
        <ele>7.3</ele>
        <time>2024-11-10T12:52:35Z</time>
      </trkpt>
      <trkpt lat="42.28891" lon="3.28122">
        <ele>7.3</ele>
        <time>2024-11-10T12:52:36Z</time>
      </trkpt>
      <trkpt lat="42.28891" lon="3.28122">
        <ele>7.3</ele>
        <time>2024-11-10T12:52:37Z</time>
      </trkpt>
      <trkpt lat="42.28891" lon="3.28122">
        <ele>7.3</ele>
        <time>2024-11-10T12:52:38Z</time>
      </trkpt>
      <trkpt lat="42.28891" lon="3.28122">
        <ele>7.3</ele>
        <time>2024-11-10T12:52:39Z</time>
      </trkpt>
      <trkpt lat="42.28891" lon="3.28122">
        <ele>7.3</ele>
        <time>2024-11-10T12:52:40Z</time>
      </trkpt>
      <trkpt lat="42.28891" lon="3.28122">
        <ele>7.3</ele>
        <time>2024-11-10T12:52:41Z</time>
      </trkpt>
      <trkpt lat="42.28891" lon="3.28122">
        <ele>7.3</ele>
        <time>2024-11-10T12:52:42Z</time>
      </trkpt>
      <trkpt lat="42.2889" lon="3.28122">
        <ele>7.3</ele>
        <time>2024-11-10T12:52:43Z</time>
      </trkpt>
      <trkpt lat="42.2889" lon="3.28122">
        <ele>7.3</ele>
        <time>2024-11-10T12:52:44Z</time>
      </trkpt>
      <trkpt lat="42.2889" lon="3.28122">
        <ele>7.3</ele>
        <time>2024-11-10T12:52:45Z</time>
      </trkpt>
      <trkpt lat="42.2889" lon="3.28122">
        <ele>7.3</ele>
        <time>2024-11-10T12:52:46Z</time>
      </trkpt>
      <trkpt lat="42.2889" lon="3.28122">
        <ele>7.3</ele>
        <time>2024-11-10T12:52:47Z</time>
      </trkpt>
      <trkpt lat="42.2889" lon="3.28122">
        <ele>7.4</ele>
        <time>2024-11-10T12:52:48Z</time>
      </trkpt>
      <trkpt lat="42.2889" lon="3.28122">
        <ele>7.4</ele>
        <time>2024-11-10T12:52:49Z</time>
      </trkpt>
      <trkpt lat="42.2889" lon="3.28122">
        <ele>7.4</ele>
        <time>2024-11-10T12:52:50Z</time>
      </trkpt>
      <trkpt lat="42.2889" lon="3.28122">
        <ele>7.4</ele>
        <time>2024-11-10T12:52:51Z</time>
      </trkpt>
      <trkpt lat="42.2889" lon="3.28122">
        <ele>7.4</ele>
        <time>2024-11-10T12:52:52Z</time>
      </trkpt>
      <trkpt lat="42.2889" lon="3.28122">
        <ele>7.4</ele>
        <time>2024-11-10T12:52:53Z</time>
      </trkpt>
      <trkpt lat="42.2889" lon="3.28122">
        <ele>7.4</ele>
        <time>2024-11-10T12:52:54Z</time>
      </trkpt>
      <trkpt lat="42.2889" lon="3.28122">
        <ele>7.4</ele>
        <time>2024-11-10T12:52:55Z</time>
      </trkpt>
      <trkpt lat="42.2889" lon="3.28122">
        <ele>7.4</ele>
        <time>2024-11-10T12:52:56Z</time>
      </trkpt>
      <trkpt lat="42.2889" lon="3.28122">
        <ele>7.4</ele>
        <time>2024-11-10T12:52:57Z</time>
      </trkpt>
      <trkpt lat="42.2889" lon="3.28122">
        <ele>7.4</ele>
        <time>2024-11-10T12:52:58Z</time>
      </trkpt>
      <trkpt lat="42.2889" lon="3.28122">
        <ele>7.4</ele>
        <time>2024-11-10T12:52:59Z</time>
      </trkpt>
      <trkpt lat="42.2889" lon="3.28122">
        <ele>7.4</ele>
        <time>2024-11-10T12:53:00Z</time>
      </trkpt>
      <trkpt lat="42.2889" lon="3.28122">
        <ele>7.4</ele>
        <time>2024-11-10T12:53:01Z</time>
      </trkpt>
      <trkpt lat="42.2889" lon="3.28122">
        <ele>7.4</ele>
        <time>2024-11-10T12:53:02Z</time>
      </trkpt>
      <trkpt lat="42.2889" lon="3.28121">
        <ele>7.4</ele>
        <time>2024-11-10T12:53:03Z</time>
      </trkpt>
      <trkpt lat="42.2889" lon="3.28121">
        <ele>7.4</ele>
        <time>2024-11-10T12:53:04Z</time>
      </trkpt>
      <trkpt lat="42.2889" lon="3.28121">
        <ele>7.4</ele>
        <time>2024-11-10T12:53:05Z</time>
      </trkpt>
      <trkpt lat="42.2889" lon="3.28121">
        <ele>7.4</ele>
        <time>2024-11-10T12:53:06Z</time>
      </trkpt>
      <trkpt lat="42.2889" lon="3.28121">
        <ele>7.4</ele>
        <time>2024-11-10T12:53:07Z</time>
      </trkpt>
      <trkpt lat="42.2889" lon="3.28122">
        <ele>7.4</ele>
        <time>2024-11-10T12:53:08Z</time>
      </trkpt>
      <trkpt lat="42.2889" lon="3.28122">
        <ele>7.4</ele>
        <time>2024-11-10T12:53:09Z</time>
      </trkpt>
      <trkpt lat="42.2889" lon="3.28122">
        <ele>7.4</ele>
        <time>2024-11-10T12:53:10Z</time>
      </trkpt>
      <trkpt lat="42.2889" lon="3.28122">
        <ele>7.4</ele>
        <time>2024-11-10T12:53:11Z</time>
      </trkpt>
      <trkpt lat="42.2889" lon="3.28122">
        <ele>7.4</ele>
        <time>2024-11-10T12:53:12Z</time>
      </trkpt>
      <trkpt lat="42.2889" lon="3.28122">
        <ele>7.4</ele>
        <time>2024-11-10T12:53:13Z</time>
      </trkpt>
      <trkpt lat="42.2889" lon="3.28122">
        <ele>7.4</ele>
        <time>2024-11-10T12:53:14Z</time>
      </trkpt>
      <trkpt lat="42.2889" lon="3.28122">
        <ele>7.4</ele>
        <time>2024-11-10T12:53:15Z</time>
      </trkpt>
      <trkpt lat="42.2889" lon="3.28122">
        <ele>7.4</ele>
        <time>2024-11-10T12:53:16Z</time>
      </trkpt>
      <trkpt lat="42.2889" lon="3.28122">
        <ele>7.4</ele>
        <time>2024-11-10T12:53:17Z</time>
      </trkpt>
      <trkpt lat="42.28891" lon="3.28122">
        <ele>7.4</ele>
        <time>2024-11-10T12:53:18Z</time>
      </trkpt>
      <trkpt lat="42.28892" lon="3.28125">
        <ele>7.4</ele>
        <time>2024-11-10T12:53:19Z</time>
      </trkpt>
      <trkpt lat="42.28892" lon="3.28125">
        <ele>7.4</ele>
        <time>2024-11-10T12:53:20Z</time>
      </trkpt>
      <trkpt lat="42.28891" lon="3.28124">
        <ele>7.4</ele>
        <time>2024-11-10T12:53:21Z</time>
      </trkpt>
      <trkpt lat="42.28892" lon="3.28125">
        <ele>7.4</ele>
        <time>2024-11-10T12:53:22Z</time>
      </trkpt>
      <trkpt lat="42.28891" lon="3.28123">
        <ele>7.4</ele>
        <time>2024-11-10T12:53:23Z</time>
      </trkpt>
      <trkpt lat="42.28891" lon="3.28122">
        <ele>7.4</ele>
        <time>2024-11-10T12:53:24Z</time>
      </trkpt>
      <trkpt lat="42.28891" lon="3.28122">
        <ele>7.4</ele>
        <time>2024-11-10T12:53:25Z</time>
      </trkpt>
      <trkpt lat="42.28891" lon="3.28122">
        <ele>7.4</ele>
        <time>2024-11-10T12:53:26Z</time>
      </trkpt>
      <trkpt lat="42.28891" lon="3.28122">
        <ele>7.4</ele>
        <time>2024-11-10T12:53:27Z</time>
      </trkpt>
      <trkpt lat="42.2889" lon="3.28121">
        <ele>7.4</ele>
        <time>2024-11-10T12:53:28Z</time>
      </trkpt>
      <trkpt lat="42.2889" lon="3.28121">
        <ele>7.4</ele>
        <time>2024-11-10T12:53:29Z</time>
      </trkpt>
      <trkpt lat="42.2889" lon="3.28121">
        <ele>7.4</ele>
        <time>2024-11-10T12:53:30Z</time>
      </trkpt>
      <trkpt lat="42.2889" lon="3.28121">
        <ele>7.4</ele>
        <time>2024-11-10T12:53:31Z</time>
      </trkpt>
      <trkpt lat="42.2889" lon="3.28121">
        <ele>7.4</ele>
        <time>2024-11-10T12:53:32Z</time>
      </trkpt>
      <trkpt lat="42.2889" lon="3.28121">
        <ele>7.4</ele>
        <time>2024-11-10T12:53:33Z</time>
      </trkpt>
      <trkpt lat="42.2889" lon="3.28121">
        <ele>7.4</ele>
        <time>2024-11-10T12:53:34Z</time>
      </trkpt>
      <trkpt lat="42.2889" lon="3.28121">
        <ele>7.4</ele>
        <time>2024-11-10T12:53:35Z</time>
      </trkpt>
      <trkpt lat="42.2889" lon="3.28121">
        <ele>7.4</ele>
        <time>2024-11-10T12:53:36Z</time>
      </trkpt>
      <trkpt lat="42.2889" lon="3.28121">
        <ele>7.4</ele>
        <time>2024-11-10T12:53:37Z</time>
      </trkpt>
      <trkpt lat="42.2889" lon="3.28122">
        <ele>7.4</ele>
        <time>2024-11-10T12:53:38Z</time>
      </trkpt>
      <trkpt lat="42.2889" lon="3.28122">
        <ele>7.4</ele>
        <time>2024-11-10T12:53:39Z</time>
      </trkpt>
      <trkpt lat="42.2889" lon="3.28122">
        <ele>7.4</ele>
        <time>2024-11-10T12:53:40Z</time>
      </trkpt>
      <trkpt lat="42.2889" lon="3.28122">
        <ele>7.4</ele>
        <time>2024-11-10T12:53:41Z</time>
      </trkpt>
      <trkpt lat="42.2889" lon="3.28122">
        <ele>7.4</ele>
        <time>2024-11-10T12:53:42Z</time>
      </trkpt>
      <trkpt lat="42.28891" lon="3.28122">
        <ele>7.4</ele>
        <time>2024-11-10T12:53:43Z</time>
      </trkpt>
      <trkpt lat="42.28891" lon="3.28122">
        <ele>7.4</ele>
        <time>2024-11-10T12:53:44Z</time>
      </trkpt>
      <trkpt lat="42.28891" lon="3.28122">
        <ele>7.4</ele>
        <time>2024-11-10T12:53:45Z</time>
      </trkpt>
      <trkpt lat="42.28891" lon="3.28122">
        <ele>7.4</ele>
        <time>2024-11-10T12:53:46Z</time>
      </trkpt>
      <trkpt lat="42.28891" lon="3.28122">
        <ele>7.4</ele>
        <time>2024-11-10T12:53:47Z</time>
      </trkpt>
      <trkpt lat="42.2889" lon="3.28121">
        <ele>7.4</ele>
        <time>2024-11-10T12:53:48Z</time>
      </trkpt>
      <trkpt lat="42.2889" lon="3.28121">
        <ele>7.4</ele>
        <time>2024-11-10T12:53:49Z</time>
      </trkpt>
      <trkpt lat="42.2889" lon="3.28121">
        <ele>7.4</ele>
        <time>2024-11-10T12:53:50Z</time>
      </trkpt>
      <trkpt lat="42.2889" lon="3.28121">
        <ele>7.4</ele>
        <time>2024-11-10T12:53:51Z</time>
      </trkpt>
      <trkpt lat="42.2889" lon="3.28121">
        <ele>7.4</ele>
        <time>2024-11-10T12:53:52Z</time>
      </trkpt>
      <trkpt lat="42.2889" lon="3.28121">
        <ele>7.4</ele>
        <time>2024-11-10T12:53:53Z</time>
      </trkpt>
      <trkpt lat="42.2889" lon="3.28121">
        <ele>7.4</ele>
        <time>2024-11-10T12:53:54Z</time>
      </trkpt>
      <trkpt lat="42.2889" lon="3.28121">
        <ele>7.4</ele>
        <time>2024-11-10T12:53:55Z</time>
      </trkpt>
      <trkpt lat="42.2889" lon="3.28121">
        <ele>7.4</ele>
        <time>2024-11-10T12:53:56Z</time>
      </trkpt>
      <trkpt lat="42.2889" lon="3.28121">
        <ele>7.4</ele>
        <time>2024-11-10T12:53:57Z</time>
      </trkpt>
      <trkpt lat="42.28891" lon="3.28122">
        <ele>7.4</ele>
        <time>2024-11-10T12:53:58Z</time>
      </trkpt>
      <trkpt lat="42.28891" lon="3.28123">
        <ele>7.4</ele>
        <time>2024-11-10T12:53:59Z</time>
      </trkpt>
      <trkpt lat="42.28892" lon="3.28125">
        <ele>7.4</ele>
        <time>2024-11-10T12:54:00Z</time>
      </trkpt>
      <trkpt lat="42.28892" lon="3.28125">
        <ele>7.4</ele>
        <time>2024-11-10T12:54:01Z</time>
      </trkpt>
      <trkpt lat="42.28892" lon="3.28125">
        <ele>7.4</ele>
        <time>2024-11-10T12:54:02Z</time>
      </trkpt>
      <trkpt lat="42.28892" lon="3.28125">
        <ele>7.4</ele>
        <time>2024-11-10T12:54:03Z</time>
      </trkpt>
      <trkpt lat="42.28892" lon="3.28125">
        <ele>7.4</ele>
        <time>2024-11-10T12:54:04Z</time>
      </trkpt>
      <trkpt lat="42.28892" lon="3.28125">
        <ele>7.4</ele>
        <time>2024-11-10T12:54:05Z</time>
      </trkpt>
      <trkpt lat="42.28892" lon="3.28125">
        <ele>7.4</ele>
        <time>2024-11-10T12:54:06Z</time>
      </trkpt>
      <trkpt lat="42.28892" lon="3.28125">
        <ele>7.4</ele>
        <time>2024-11-10T12:54:07Z</time>
      </trkpt>
      <trkpt lat="42.2889" lon="3.28123">
        <ele>7.4</ele>
        <time>2024-11-10T12:54:08Z</time>
      </trkpt>
      <trkpt lat="42.2889" lon="3.28122">
        <ele>7.4</ele>
        <time>2024-11-10T12:54:09Z</time>
      </trkpt>
      <trkpt lat="42.2889" lon="3.28122">
        <ele>7.4</ele>
        <time>2024-11-10T12:54:10Z</time>
      </trkpt>
      <trkpt lat="42.2889" lon="3.28122">
        <ele>7.4</ele>
        <time>2024-11-10T12:54:11Z</time>
      </trkpt>
      <trkpt lat="42.2889" lon="3.28122">
        <ele>7.4</ele>
        <time>2024-11-10T12:54:12Z</time>
      </trkpt>
      <trkpt lat="42.28891" lon="3.28125">
        <ele>7.4</ele>
        <time>2024-11-10T12:54:13Z</time>
      </trkpt>
      <trkpt lat="42.28892" lon="3.28125">
        <ele>7.4</ele>
        <time>2024-11-10T12:54:14Z</time>
      </trkpt>
      <trkpt lat="42.28892" lon="3.28125">
        <ele>7.4</ele>
        <time>2024-11-10T12:54:15Z</time>
      </trkpt>
      <trkpt lat="42.28892" lon="3.28125">
        <ele>7.4</ele>
        <time>2024-11-10T12:54:16Z</time>
      </trkpt>
      <trkpt lat="42.28892" lon="3.28125">
        <ele>7.4</ele>
        <time>2024-11-10T12:54:17Z</time>
      </trkpt>
      <trkpt lat="42.28891" lon="3.28123">
        <ele>7.4</ele>
        <time>2024-11-10T12:54:18Z</time>
      </trkpt>
      <trkpt lat="42.2889" lon="3.28122">
        <ele>7.4</ele>
        <time>2024-11-10T12:54:19Z</time>
      </trkpt>
      <trkpt lat="42.2889" lon="3.28122">
        <ele>7.4</ele>
        <time>2024-11-10T12:54:20Z</time>
      </trkpt>
      <trkpt lat="42.2889" lon="3.28122">
        <ele>7.4</ele>
        <time>2024-11-10T12:54:21Z</time>
      </trkpt>
      <trkpt lat="42.2889" lon="3.28122">
        <ele>7.4</ele>
        <time>2024-11-10T12:54:22Z</time>
      </trkpt>
      <trkpt lat="42.2889" lon="3.28122">
        <ele>7.4</ele>
        <time>2024-11-10T12:54:23Z</time>
      </trkpt>
      <trkpt lat="42.2889" lon="3.28122">
        <ele>7.4</ele>
        <time>2024-11-10T12:54:24Z</time>
      </trkpt>
      <trkpt lat="42.2889" lon="3.28122">
        <ele>7.4</ele>
        <time>2024-11-10T12:54:25Z</time>
      </trkpt>
      <trkpt lat="42.2889" lon="3.28122">
        <ele>7.4</ele>
        <time>2024-11-10T12:54:26Z</time>
      </trkpt>
      <trkpt lat="42.2889" lon="3.28122">
        <ele>7.4</ele>
        <time>2024-11-10T12:54:27Z</time>
      </trkpt>
      <trkpt lat="42.2889" lon="3.28123">
        <ele>7.4</ele>
        <time>2024-11-10T12:54:28Z</time>
      </trkpt>
      <trkpt lat="42.2889" lon="3.28123">
        <ele>7.4</ele>
        <time>2024-11-10T12:54:29Z</time>
      </trkpt>
      <trkpt lat="42.2889" lon="3.28123">
        <ele>7.4</ele>
        <time>2024-11-10T12:54:30Z</time>
      </trkpt>
      <trkpt lat="42.2889" lon="3.28123">
        <ele>7.4</ele>
        <time>2024-11-10T12:54:31Z</time>
      </trkpt>
      <trkpt lat="42.2889" lon="3.28123">
        <ele>7.4</ele>
        <time>2024-11-10T12:54:32Z</time>
      </trkpt>
      <trkpt lat="42.2889" lon="3.28122">
        <ele>7.4</ele>
        <time>2024-11-10T12:54:33Z</time>
      </trkpt>
      <trkpt lat="42.2889" lon="3.28122">
        <ele>7.4</ele>
        <time>2024-11-10T12:54:34Z</time>
      </trkpt>
      <trkpt lat="42.2889" lon="3.28122">
        <ele>7.4</ele>
        <time>2024-11-10T12:54:35Z</time>
      </trkpt>
      <trkpt lat="42.2889" lon="3.28122">
        <ele>7.4</ele>
        <time>2024-11-10T12:54:36Z</time>
      </trkpt>
      <trkpt lat="42.2889" lon="3.28122">
        <ele>7.4</ele>
        <time>2024-11-10T12:54:37Z</time>
      </trkpt>
      <trkpt lat="42.2889" lon="3.28122">
        <ele>7.4</ele>
        <time>2024-11-10T12:54:38Z</time>
      </trkpt>
      <trkpt lat="42.2889" lon="3.28122">
        <ele>7.4</ele>
        <time>2024-11-10T12:54:39Z</time>
      </trkpt>
      <trkpt lat="42.2889" lon="3.28122">
        <ele>7.4</ele>
        <time>2024-11-10T12:54:40Z</time>
      </trkpt>
      <trkpt lat="42.2889" lon="3.28122">
        <ele>7.4</ele>
        <time>2024-11-10T12:54:41Z</time>
      </trkpt>
      <trkpt lat="42.2889" lon="3.28122">
        <ele>7.4</ele>
        <time>2024-11-10T12:54:42Z</time>
      </trkpt>
      <trkpt lat="42.28891" lon="3.28122">
        <ele>7.4</ele>
        <time>2024-11-10T12:54:43Z</time>
      </trkpt>
      <trkpt lat="42.28891" lon="3.28123">
        <ele>7.4</ele>
        <time>2024-11-10T12:54:44Z</time>
      </trkpt>
      <trkpt lat="42.28891" lon="3.28123">
        <ele>7.4</ele>
        <time>2024-11-10T12:54:45Z</time>
      </trkpt>
      <trkpt lat="42.28891" lon="3.28123">
        <ele>7.4</ele>
        <time>2024-11-10T12:54:46Z</time>
      </trkpt>
      <trkpt lat="42.28891" lon="3.28123">
        <ele>7.4</ele>
        <time>2024-11-10T12:54:47Z</time>
      </trkpt>
      <trkpt lat="42.2889" lon="3.28122">
        <ele>7.4</ele>
        <time>2024-11-10T12:54:48Z</time>
      </trkpt>
      <trkpt lat="42.2889" lon="3.28122">
        <ele>7.4</ele>
        <time>2024-11-10T12:54:49Z</time>
      </trkpt>
      <trkpt lat="42.2889" lon="3.28122">
        <ele>7.4</ele>
        <time>2024-11-10T12:54:50Z</time>
      </trkpt>
      <trkpt lat="42.2889" lon="3.28122">
        <ele>7.4</ele>
        <time>2024-11-10T12:54:51Z</time>
      </trkpt>
      <trkpt lat="42.2889" lon="3.28122">
        <ele>7.4</ele>
        <time>2024-11-10T12:54:52Z</time>
      </trkpt>
      <trkpt lat="42.2889" lon="3.28122">
        <ele>7.4</ele>
        <time>2024-11-10T12:54:53Z</time>
      </trkpt>
      <trkpt lat="42.2889" lon="3.28122">
        <ele>7.4</ele>
        <time>2024-11-10T12:54:54Z</time>
      </trkpt>
      <trkpt lat="42.2889" lon="3.28122">
        <ele>7.4</ele>
        <time>2024-11-10T12:54:55Z</time>
      </trkpt>
      <trkpt lat="42.2889" lon="3.28122">
        <ele>7.4</ele>
        <time>2024-11-10T12:54:56Z</time>
      </trkpt>
      <trkpt lat="42.2889" lon="3.28122">
        <ele>7.4</ele>
        <time>2024-11-10T12:54:57Z</time>
      </trkpt>
      <trkpt lat="42.2889" lon="3.28122">
        <ele>7.4</ele>
        <time>2024-11-10T12:54:58Z</time>
      </trkpt>
      <trkpt lat="42.2889" lon="3.28122">
        <ele>7.4</ele>
        <time>2024-11-10T12:54:59Z</time>
      </trkpt>
      <trkpt lat="42.2889" lon="3.28122">
        <ele>7.4</ele>
        <time>2024-11-10T12:55:00Z</time>
      </trkpt>
      <trkpt lat="42.2889" lon="3.28122">
        <ele>7.4</ele>
        <time>2024-11-10T12:55:01Z</time>
      </trkpt>
      <trkpt lat="42.2889" lon="3.28122">
        <ele>7.4</ele>
        <time>2024-11-10T12:55:02Z</time>
      </trkpt>
      <trkpt lat="42.2889" lon="3.28122">
        <ele>7.4</ele>
        <time>2024-11-10T12:55:03Z</time>
      </trkpt>
      <trkpt lat="42.2889" lon="3.28122">
        <ele>7.4</ele>
        <time>2024-11-10T12:55:04Z</time>
      </trkpt>
      <trkpt lat="42.2889" lon="3.28122">
        <ele>7.4</ele>
        <time>2024-11-10T12:55:05Z</time>
      </trkpt>
      <trkpt lat="42.2889" lon="3.28122">
        <ele>7.4</ele>
        <time>2024-11-10T12:55:06Z</time>
      </trkpt>
      <trkpt lat="42.2889" lon="3.28122">
        <ele>7.4</ele>
        <time>2024-11-10T12:55:07Z</time>
      </trkpt>
      <trkpt lat="42.2889" lon="3.28122">
        <ele>7.4</ele>
        <time>2024-11-10T12:55:08Z</time>
      </trkpt>
      <trkpt lat="42.2889" lon="3.28122">
        <ele>7.4</ele>
        <time>2024-11-10T12:55:09Z</time>
      </trkpt>
      <trkpt lat="42.2889" lon="3.28122">
        <ele>7.4</ele>
        <time>2024-11-10T12:55:10Z</time>
      </trkpt>
      <trkpt lat="42.2889" lon="3.28122">
        <ele>7.4</ele>
        <time>2024-11-10T12:55:11Z</time>
      </trkpt>
      <trkpt lat="42.2889" lon="3.28122">
        <ele>7.4</ele>
        <time>2024-11-10T12:55:12Z</time>
      </trkpt>
      <trkpt lat="42.2889" lon="3.28122">
        <ele>7.4</ele>
        <time>2024-11-10T12:55:13Z</time>
      </trkpt>
      <trkpt lat="42.2889" lon="3.28122">
        <ele>7.4</ele>
        <time>2024-11-10T12:55:14Z</time>
      </trkpt>
      <trkpt lat="42.2889" lon="3.28122">
        <ele>7.4</ele>
        <time>2024-11-10T12:55:15Z</time>
      </trkpt>
      <trkpt lat="42.2889" lon="3.28122">
        <ele>7.4</ele>
        <time>2024-11-10T12:55:16Z</time>
      </trkpt>
      <trkpt lat="42.2889" lon="3.28122">
        <ele>7.4</ele>
        <time>2024-11-10T12:55:17Z</time>
      </trkpt>
      <trkpt lat="42.2889" lon="3.28122">
        <ele>7.4</ele>
        <time>2024-11-10T12:55:18Z</time>
      </trkpt>
      <trkpt lat="42.2889" lon="3.28122">
        <ele>7.4</ele>
        <time>2024-11-10T12:55:19Z</time>
      </trkpt>
      <trkpt lat="42.2889" lon="3.28122">
        <ele>7.4</ele>
        <time>2024-11-10T12:55:20Z</time>
      </trkpt>
      <trkpt lat="42.2889" lon="3.28122">
        <ele>7.4</ele>
        <time>2024-11-10T12:55:21Z</time>
      </trkpt>
      <trkpt lat="42.2889" lon="3.28122">
        <ele>7.4</ele>
        <time>2024-11-10T12:55:22Z</time>
      </trkpt>
      <trkpt lat="42.2889" lon="3.28122">
        <ele>7.4</ele>
        <time>2024-11-10T12:55:23Z</time>
      </trkpt>
      <trkpt lat="42.2889" lon="3.28122">
        <ele>7.4</ele>
        <time>2024-11-10T12:55:24Z</time>
      </trkpt>
      <trkpt lat="42.2889" lon="3.28122">
        <ele>7.4</ele>
        <time>2024-11-10T12:55:25Z</time>
      </trkpt>
      <trkpt lat="42.2889" lon="3.28122">
        <ele>7.4</ele>
        <time>2024-11-10T12:55:26Z</time>
      </trkpt>
      <trkpt lat="42.2889" lon="3.28122">
        <ele>7.4</ele>
        <time>2024-11-10T12:55:27Z</time>
      </trkpt>
      <trkpt lat="42.2889" lon="3.28122">
        <ele>7.4</ele>
        <time>2024-11-10T12:55:28Z</time>
      </trkpt>
      <trkpt lat="42.2889" lon="3.28123">
        <ele>7.4</ele>
        <time>2024-11-10T12:55:29Z</time>
      </trkpt>
      <trkpt lat="42.2889" lon="3.28123">
        <ele>7.4</ele>
        <time>2024-11-10T12:55:30Z</time>
      </trkpt>
      <trkpt lat="42.2889" lon="3.28123">
        <ele>7.4</ele>
        <time>2024-11-10T12:55:31Z</time>
      </trkpt>
      <trkpt lat="42.2889" lon="3.28123">
        <ele>7.4</ele>
        <time>2024-11-10T12:55:32Z</time>
      </trkpt>
      <trkpt lat="42.2889" lon="3.28123">
        <ele>7.4</ele>
        <time>2024-11-10T12:55:33Z</time>
      </trkpt>
      <trkpt lat="42.2889" lon="3.28122">
        <ele>7.4</ele>
        <time>2024-11-10T12:55:34Z</time>
      </trkpt>
      <trkpt lat="42.2889" lon="3.28122">
        <ele>7.4</ele>
        <time>2024-11-10T12:55:35Z</time>
      </trkpt>
      <trkpt lat="42.2889" lon="3.28122">
        <ele>7.4</ele>
        <time>2024-11-10T12:55:36Z</time>
      </trkpt>
      <trkpt lat="42.2889" lon="3.28122">
        <ele>7.4</ele>
        <time>2024-11-10T12:55:37Z</time>
      </trkpt>
      <trkpt lat="42.2889" lon="3.28122">
        <ele>7.4</ele>
        <time>2024-11-10T12:55:38Z</time>
      </trkpt>
      <trkpt lat="42.2889" lon="3.28123">
        <ele>7.4</ele>
        <time>2024-11-10T12:55:39Z</time>
      </trkpt>
      <trkpt lat="42.2889" lon="3.28123">
        <ele>7.4</ele>
        <time>2024-11-10T12:55:40Z</time>
      </trkpt>
      <trkpt lat="42.2889" lon="3.28123">
        <ele>7.4</ele>
        <time>2024-11-10T12:55:41Z</time>
      </trkpt>
      <trkpt lat="42.2889" lon="3.28123">
        <ele>7.4</ele>
        <time>2024-11-10T12:55:42Z</time>
      </trkpt>
      <trkpt lat="42.2889" lon="3.28123">
        <ele>7.4</ele>
        <time>2024-11-10T12:55:43Z</time>
      </trkpt>
      <trkpt lat="42.2889" lon="3.28122">
        <ele>7.4</ele>
        <time>2024-11-10T12:55:44Z</time>
      </trkpt>
      <trkpt lat="42.2889" lon="3.28121">
        <ele>7.4</ele>
        <time>2024-11-10T12:55:45Z</time>
      </trkpt>
      <trkpt lat="42.2889" lon="3.28121">
        <ele>7.4</ele>
        <time>2024-11-10T12:55:46Z</time>
      </trkpt>
      <trkpt lat="42.2889" lon="3.28121">
        <ele>7.4</ele>
        <time>2024-11-10T12:55:47Z</time>
      </trkpt>
      <trkpt lat="42.2889" lon="3.28121">
        <ele>7.4</ele>
        <time>2024-11-10T12:55:48Z</time>
      </trkpt>
      <trkpt lat="42.2889" lon="3.28121">
        <ele>7.4</ele>
        <time>2024-11-10T12:55:49Z</time>
      </trkpt>
      <trkpt lat="42.2889" lon="3.28121">
        <ele>7.4</ele>
        <time>2024-11-10T12:55:50Z</time>
      </trkpt>
      <trkpt lat="42.2889" lon="3.28121">
        <ele>7.4</ele>
        <time>2024-11-10T12:55:51Z</time>
      </trkpt>
      <trkpt lat="42.2889" lon="3.28121">
        <ele>7.4</ele>
        <time>2024-11-10T12:55:52Z</time>
      </trkpt>
      <trkpt lat="42.2889" lon="3.28121">
        <ele>7.4</ele>
        <time>2024-11-10T12:55:53Z</time>
      </trkpt>
      <trkpt lat="42.2889" lon="3.28122">
        <ele>7.5</ele>
        <time>2024-11-10T12:55:54Z</time>
      </trkpt>
      <trkpt lat="42.2889" lon="3.28122">
        <ele>7.5</ele>
        <time>2024-11-10T12:55:55Z</time>
      </trkpt>
      <trkpt lat="42.2889" lon="3.28122">
        <ele>7.5</ele>
        <time>2024-11-10T12:55:56Z</time>
      </trkpt>
      <trkpt lat="42.28892" lon="3.28125">
        <ele>7.5</ele>
        <time>2024-11-10T12:55:57Z</time>
      </trkpt>
      <trkpt lat="42.28892" lon="3.28125">
        <ele>7.5</ele>
        <time>2024-11-10T12:55:58Z</time>
      </trkpt>
      <trkpt lat="42.28892" lon="3.28125">
        <ele>7.5</ele>
        <time>2024-11-10T12:55:59Z</time>
      </trkpt>
      <trkpt lat="42.28891" lon="3.28122">
        <ele>7.5</ele>
        <time>2024-11-10T12:56:00Z</time>
      </trkpt>
      <trkpt lat="42.2889" lon="3.28121">
        <ele>7.5</ele>
        <time>2024-11-10T12:56:01Z</time>
      </trkpt>
      <trkpt lat="42.2889" lon="3.28121">
        <ele>7.5</ele>
        <time>2024-11-10T12:56:02Z</time>
      </trkpt>
      <trkpt lat="42.2889" lon="3.28121">
        <ele>7.5</ele>
        <time>2024-11-10T12:56:03Z</time>
      </trkpt>
      <trkpt lat="42.2889" lon="3.28122">
        <ele>7.5</ele>
        <time>2024-11-10T12:56:04Z</time>
      </trkpt>
      <trkpt lat="42.28891" lon="3.28122">
        <ele>7.5</ele>
        <time>2024-11-10T12:56:05Z</time>
      </trkpt>
      <trkpt lat="42.28891" lon="3.28123">
        <ele>7.5</ele>
        <time>2024-11-10T12:56:06Z</time>
      </trkpt>
      <trkpt lat="42.28891" lon="3.28123">
        <ele>7.5</ele>
        <time>2024-11-10T12:56:07Z</time>
      </trkpt>
      <trkpt lat="42.28891" lon="3.28123">
        <ele>7.5</ele>
        <time>2024-11-10T12:56:08Z</time>
      </trkpt>
      <trkpt lat="42.2889" lon="3.28122">
        <ele>7.5</ele>
        <time>2024-11-10T12:56:09Z</time>
      </trkpt>
      <trkpt lat="42.2889" lon="3.28122">
        <ele>7.5</ele>
        <time>2024-11-10T12:56:10Z</time>
      </trkpt>
      <trkpt lat="42.2889" lon="3.28122">
        <ele>7.5</ele>
        <time>2024-11-10T12:56:11Z</time>
      </trkpt>
      <trkpt lat="42.2889" lon="3.28122">
        <ele>7.5</ele>
        <time>2024-11-10T12:56:12Z</time>
      </trkpt>
      <trkpt lat="42.2889" lon="3.28122">
        <ele>7.5</ele>
        <time>2024-11-10T12:56:13Z</time>
      </trkpt>
      <trkpt lat="42.2889" lon="3.28122">
        <ele>7.5</ele>
        <time>2024-11-10T12:56:14Z</time>
      </trkpt>
      <trkpt lat="42.2889" lon="3.28122">
        <ele>7.5</ele>
        <time>2024-11-10T12:56:15Z</time>
      </trkpt>
      <trkpt lat="42.2889" lon="3.28122">
        <ele>7.5</ele>
        <time>2024-11-10T12:56:16Z</time>
      </trkpt>
      <trkpt lat="42.2889" lon="3.28122">
        <ele>7.5</ele>
        <time>2024-11-10T12:56:17Z</time>
      </trkpt>
      <trkpt lat="42.2889" lon="3.28122">
        <ele>7.5</ele>
        <time>2024-11-10T12:56:18Z</time>
      </trkpt>
      <trkpt lat="42.2889" lon="3.28122">
        <ele>7.5</ele>
        <time>2024-11-10T12:56:19Z</time>
      </trkpt>
      <trkpt lat="42.28891" lon="3.28123">
        <ele>7.5</ele>
        <time>2024-11-10T12:56:20Z</time>
      </trkpt>
      <trkpt lat="42.28891" lon="3.28123">
        <ele>7.5</ele>
        <time>2024-11-10T12:56:21Z</time>
      </trkpt>
      <trkpt lat="42.28891" lon="3.28123">
        <ele>7.5</ele>
        <time>2024-11-10T12:56:22Z</time>
      </trkpt>
      <trkpt lat="42.28891" lon="3.28123">
        <ele>7.5</ele>
        <time>2024-11-10T12:56:23Z</time>
      </trkpt>
      <trkpt lat="42.28891" lon="3.28123">
        <ele>7.5</ele>
        <time>2024-11-10T12:56:24Z</time>
      </trkpt>
      <trkpt lat="42.28891" lon="3.28123">
        <ele>7.5</ele>
        <time>2024-11-10T12:56:25Z</time>
      </trkpt>
      <trkpt lat="42.28891" lon="3.28123">
        <ele>7.5</ele>
        <time>2024-11-10T12:56:26Z</time>
      </trkpt>
      <trkpt lat="42.28891" lon="3.28123">
        <ele>7.5</ele>
        <time>2024-11-10T12:56:27Z</time>
      </trkpt>
      <trkpt lat="42.28891" lon="3.28123">
        <ele>7.5</ele>
        <time>2024-11-10T12:56:28Z</time>
      </trkpt>
      <trkpt lat="42.2889" lon="3.28122">
        <ele>7.5</ele>
        <time>2024-11-10T12:56:29Z</time>
      </trkpt>
      <trkpt lat="42.2889" lon="3.28121">
        <ele>7.5</ele>
        <time>2024-11-10T12:56:30Z</time>
      </trkpt>
      <trkpt lat="42.2889" lon="3.28121">
        <ele>7.5</ele>
        <time>2024-11-10T12:56:31Z</time>
      </trkpt>
      <trkpt lat="42.2889" lon="3.28121">
        <ele>7.5</ele>
        <time>2024-11-10T12:56:32Z</time>
      </trkpt>
      <trkpt lat="42.2889" lon="3.28121">
        <ele>7.5</ele>
        <time>2024-11-10T12:56:33Z</time>
      </trkpt>
      <trkpt lat="42.2889" lon="3.28122">
        <ele>7.5</ele>
        <time>2024-11-10T12:56:34Z</time>
      </trkpt>
      <trkpt lat="42.28891" lon="3.28123">
        <ele>7.5</ele>
        <time>2024-11-10T12:56:35Z</time>
      </trkpt>
      <trkpt lat="42.28891" lon="3.28123">
        <ele>7.5</ele>
        <time>2024-11-10T12:56:36Z</time>
      </trkpt>
      <trkpt lat="42.28891" lon="3.28123">
        <ele>7.5</ele>
        <time>2024-11-10T12:56:37Z</time>
      </trkpt>
      <trkpt lat="42.28891" lon="3.28123">
        <ele>7.5</ele>
        <time>2024-11-10T12:56:38Z</time>
      </trkpt>
      <trkpt lat="42.28891" lon="3.28122">
        <ele>7.5</ele>
        <time>2024-11-10T12:56:39Z</time>
      </trkpt>
      <trkpt lat="42.28891" lon="3.28122">
        <ele>7.5</ele>
        <time>2024-11-10T12:56:40Z</time>
      </trkpt>
      <trkpt lat="42.28891" lon="3.28122">
        <ele>7.5</ele>
        <time>2024-11-10T12:56:41Z</time>
      </trkpt>
      <trkpt lat="42.28891" lon="3.28122">
        <ele>7.5</ele>
        <time>2024-11-10T12:56:42Z</time>
      </trkpt>
      <trkpt lat="42.28891" lon="3.28122">
        <ele>7.5</ele>
        <time>2024-11-10T12:56:43Z</time>
      </trkpt>
      <trkpt lat="42.2889" lon="3.28122">
        <ele>7.5</ele>
        <time>2024-11-10T12:56:44Z</time>
      </trkpt>
      <trkpt lat="42.2889" lon="3.28122">
        <ele>7.5</ele>
        <time>2024-11-10T12:56:45Z</time>
      </trkpt>
      <trkpt lat="42.2889" lon="3.28122">
        <ele>7.5</ele>
        <time>2024-11-10T12:56:46Z</time>
      </trkpt>
      <trkpt lat="42.2889" lon="3.28122">
        <ele>7.5</ele>
        <time>2024-11-10T12:56:47Z</time>
      </trkpt>
      <trkpt lat="42.2889" lon="3.28122">
        <ele>7.5</ele>
        <time>2024-11-10T12:56:48Z</time>
      </trkpt>
      <trkpt lat="42.2889" lon="3.28122">
        <ele>7.5</ele>
        <time>2024-11-10T12:56:49Z</time>
      </trkpt>
      <trkpt lat="42.2889" lon="3.28122">
        <ele>7.5</ele>
        <time>2024-11-10T12:56:50Z</time>
      </trkpt>
      <trkpt lat="42.2889" lon="3.28122">
        <ele>7.5</ele>
        <time>2024-11-10T12:56:51Z</time>
      </trkpt>
      <trkpt lat="42.2889" lon="3.28122">
        <ele>7.5</ele>
        <time>2024-11-10T12:56:52Z</time>
      </trkpt>
      <trkpt lat="42.2889" lon="3.28122">
        <ele>7.5</ele>
        <time>2024-11-10T12:56:53Z</time>
      </trkpt>
      <trkpt lat="42.2889" lon="3.28122">
        <ele>7.5</ele>
        <time>2024-11-10T12:56:54Z</time>
      </trkpt>
      <trkpt lat="42.2889" lon="3.28122">
        <ele>7.5</ele>
        <time>2024-11-10T12:56:55Z</time>
      </trkpt>
      <trkpt lat="42.2889" lon="3.28122">
        <ele>7.5</ele>
        <time>2024-11-10T12:56:56Z</time>
      </trkpt>
      <trkpt lat="42.2889" lon="3.28122">
        <ele>7.5</ele>
        <time>2024-11-10T12:56:57Z</time>
      </trkpt>
      <trkpt lat="42.2889" lon="3.28122">
        <ele>7.5</ele>
        <time>2024-11-10T12:56:58Z</time>
      </trkpt>
      <trkpt lat="42.2889" lon="3.28123">
        <ele>7.5</ele>
        <time>2024-11-10T12:56:59Z</time>
      </trkpt>
      <trkpt lat="42.2889" lon="3.28123">
        <ele>7.5</ele>
        <time>2024-11-10T12:57:00Z</time>
      </trkpt>
      <trkpt lat="42.2889" lon="3.28123">
        <ele>7.5</ele>
        <time>2024-11-10T12:57:01Z</time>
      </trkpt>
      <trkpt lat="42.2889" lon="3.28123">
        <ele>7.5</ele>
        <time>2024-11-10T12:57:02Z</time>
      </trkpt>
      <trkpt lat="42.2889" lon="3.28123">
        <ele>7.5</ele>
        <time>2024-11-10T12:57:03Z</time>
      </trkpt>
      <trkpt lat="42.2889" lon="3.28122">
        <ele>7.5</ele>
        <time>2024-11-10T12:57:04Z</time>
      </trkpt>
      <trkpt lat="42.2889" lon="3.28122">
        <ele>7.5</ele>
        <time>2024-11-10T12:57:05Z</time>
      </trkpt>
      <trkpt lat="42.2889" lon="3.28122">
        <ele>7.5</ele>
        <time>2024-11-10T12:57:06Z</time>
      </trkpt>
      <trkpt lat="42.2889" lon="3.28122">
        <ele>7.5</ele>
        <time>2024-11-10T12:57:07Z</time>
      </trkpt>
      <trkpt lat="42.28892" lon="3.28125">
        <ele>7.5</ele>
        <time>2024-11-10T12:57:08Z</time>
      </trkpt>
      <trkpt lat="42.28892" lon="3.28125">
        <ele>7.5</ele>
        <time>2024-11-10T12:57:09Z</time>
      </trkpt>
      <trkpt lat="42.28892" lon="3.28125">
        <ele>7.5</ele>
        <time>2024-11-10T12:57:10Z</time>
      </trkpt>
      <trkpt lat="42.28892" lon="3.28125">
        <ele>7.5</ele>
        <time>2024-11-10T12:57:11Z</time>
      </trkpt>
      <trkpt lat="42.28892" lon="3.28125">
        <ele>7.5</ele>
        <time>2024-11-10T12:57:12Z</time>
      </trkpt>
      <trkpt lat="42.28892" lon="3.28125">
        <ele>7.5</ele>
        <time>2024-11-10T12:57:13Z</time>
      </trkpt>
      <trkpt lat="42.28892" lon="3.28125">
        <ele>7.5</ele>
        <time>2024-11-10T12:57:14Z</time>
      </trkpt>
      <trkpt lat="42.28892" lon="3.28125">
        <ele>7.5</ele>
        <time>2024-11-10T12:57:15Z</time>
      </trkpt>
      <trkpt lat="42.28892" lon="3.28125">
        <ele>7.5</ele>
        <time>2024-11-10T12:57:16Z</time>
      </trkpt>
      <trkpt lat="42.28892" lon="3.28125">
        <ele>7.5</ele>
        <time>2024-11-10T12:57:17Z</time>
      </trkpt>
      <trkpt lat="42.28892" lon="3.28125">
        <ele>7.5</ele>
        <time>2024-11-10T12:57:18Z</time>
      </trkpt>
      <trkpt lat="42.28892" lon="3.28125">
        <ele>7.5</ele>
        <time>2024-11-10T12:57:19Z</time>
      </trkpt>
      <trkpt lat="42.28892" lon="3.28125">
        <ele>7.5</ele>
        <time>2024-11-10T12:57:20Z</time>
      </trkpt>
      <trkpt lat="42.28892" lon="3.28125">
        <ele>7.5</ele>
        <time>2024-11-10T12:57:21Z</time>
      </trkpt>
      <trkpt lat="42.28892" lon="3.28125">
        <ele>7.5</ele>
        <time>2024-11-10T12:57:22Z</time>
      </trkpt>
      <trkpt lat="42.28892" lon="3.28125">
        <ele>7.5</ele>
        <time>2024-11-10T12:57:23Z</time>
      </trkpt>
      <trkpt lat="42.28892" lon="3.28125">
        <ele>7.5</ele>
        <time>2024-11-10T12:57:24Z</time>
      </trkpt>
      <trkpt lat="42.28892" lon="3.28125">
        <ele>7.5</ele>
        <time>2024-11-10T12:57:25Z</time>
      </trkpt>
      <trkpt lat="42.28892" lon="3.28125">
        <ele>7.5</ele>
        <time>2024-11-10T12:57:26Z</time>
      </trkpt>
      <trkpt lat="42.28892" lon="3.28125">
        <ele>7.5</ele>
        <time>2024-11-10T12:57:27Z</time>
      </trkpt>
      <trkpt lat="42.28892" lon="3.28125">
        <ele>7.5</ele>
        <time>2024-11-10T12:57:28Z</time>
      </trkpt>
      <trkpt lat="42.28892" lon="3.28125">
        <ele>7.5</ele>
        <time>2024-11-10T12:57:29Z</time>
      </trkpt>
      <trkpt lat="42.28892" lon="3.28125">
        <ele>7.5</ele>
        <time>2024-11-10T12:57:30Z</time>
      </trkpt>
      <trkpt lat="42.28892" lon="3.28125">
        <ele>7.5</ele>
        <time>2024-11-10T12:57:31Z</time>
      </trkpt>
      <trkpt lat="42.28892" lon="3.28125">
        <ele>7.5</ele>
        <time>2024-11-10T12:57:32Z</time>
      </trkpt>
      <trkpt lat="42.28892" lon="3.28125">
        <ele>7.5</ele>
        <time>2024-11-10T12:57:33Z</time>
      </trkpt>
      <trkpt lat="42.28892" lon="3.28125">
        <ele>7.5</ele>
        <time>2024-11-10T12:57:34Z</time>
      </trkpt>
      <trkpt lat="42.28892" lon="3.28125">
        <ele>7.5</ele>
        <time>2024-11-10T12:57:35Z</time>
      </trkpt>
      <trkpt lat="42.28892" lon="3.28125">
        <ele>7.5</ele>
        <time>2024-11-10T12:57:36Z</time>
      </trkpt>
      <trkpt lat="42.28892" lon="3.28125">
        <ele>7.5</ele>
        <time>2024-11-10T12:57:37Z</time>
      </trkpt>
      <trkpt lat="42.28892" lon="3.28125">
        <ele>7.5</ele>
        <time>2024-11-10T12:57:38Z</time>
      </trkpt>
      <trkpt lat="42.28891" lon="3.28123">
        <ele>7.5</ele>
        <time>2024-11-10T12:57:39Z</time>
      </trkpt>
      <trkpt lat="42.2889" lon="3.28122">
        <ele>7.5</ele>
        <time>2024-11-10T12:57:40Z</time>
      </trkpt>
      <trkpt lat="42.2889" lon="3.28121">
        <ele>7.5</ele>
        <time>2024-11-10T12:57:41Z</time>
      </trkpt>
      <trkpt lat="42.2889" lon="3.28122">
        <ele>7.5</ele>
        <time>2024-11-10T12:57:42Z</time>
      </trkpt>
      <trkpt lat="42.2889" lon="3.28122">
        <ele>7.5</ele>
        <time>2024-11-10T12:57:43Z</time>
      </trkpt>
      <trkpt lat="42.2889" lon="3.28122">
        <ele>7.5</ele>
        <time>2024-11-10T12:57:44Z</time>
      </trkpt>
      <trkpt lat="42.2889" lon="3.28122">
        <ele>7.5</ele>
        <time>2024-11-10T12:57:45Z</time>
      </trkpt>
      <trkpt lat="42.2889" lon="3.28122">
        <ele>7.5</ele>
        <time>2024-11-10T12:57:46Z</time>
      </trkpt>
      <trkpt lat="42.2889" lon="3.28122">
        <ele>7.5</ele>
        <time>2024-11-10T12:57:47Z</time>
      </trkpt>
      <trkpt lat="42.2889" lon="3.28122">
        <ele>7.5</ele>
        <time>2024-11-10T12:57:48Z</time>
      </trkpt>
      <trkpt lat="42.28891" lon="3.28122">
        <ele>7.5</ele>
        <time>2024-11-10T12:57:49Z</time>
      </trkpt>
      <trkpt lat="42.28891" lon="3.28122">
        <ele>7.5</ele>
        <time>2024-11-10T12:57:50Z</time>
      </trkpt>
      <trkpt lat="42.28891" lon="3.28122">
        <ele>7.5</ele>
        <time>2024-11-10T12:57:51Z</time>
      </trkpt>
      <trkpt lat="42.28891" lon="3.28122">
        <ele>7.5</ele>
        <time>2024-11-10T12:57:52Z</time>
      </trkpt>
      <trkpt lat="42.28891" lon="3.28122">
        <ele>7.5</ele>
        <time>2024-11-10T12:57:53Z</time>
      </trkpt>
      <trkpt lat="42.2889" lon="3.28122">
        <ele>7.5</ele>
        <time>2024-11-10T12:57:54Z</time>
      </trkpt>
      <trkpt lat="42.2889" lon="3.28122">
        <ele>7.5</ele>
        <time>2024-11-10T12:57:55Z</time>
      </trkpt>
      <trkpt lat="42.2889" lon="3.28122">
        <ele>7.5</ele>
        <time>2024-11-10T12:57:56Z</time>
      </trkpt>
      <trkpt lat="42.2889" lon="3.28122">
        <ele>7.5</ele>
        <time>2024-11-10T12:57:57Z</time>
      </trkpt>
      <trkpt lat="42.2889" lon="3.28122">
        <ele>7.5</ele>
        <time>2024-11-10T12:57:58Z</time>
      </trkpt>
      <trkpt lat="42.2889" lon="3.28122">
        <ele>7.5</ele>
        <time>2024-11-10T12:57:59Z</time>
      </trkpt>
      <trkpt lat="42.2889" lon="3.28122">
        <ele>7.5</ele>
        <time>2024-11-10T12:58:00Z</time>
      </trkpt>
      <trkpt lat="42.2889" lon="3.28122">
        <ele>7.5</ele>
        <time>2024-11-10T12:58:01Z</time>
      </trkpt>
      <trkpt lat="42.2889" lon="3.28122">
        <ele>7.5</ele>
        <time>2024-11-10T12:58:02Z</time>
      </trkpt>
      <trkpt lat="42.2889" lon="3.28122">
        <ele>7.5</ele>
        <time>2024-11-10T12:58:03Z</time>
      </trkpt>
      <trkpt lat="42.2889" lon="3.28122">
        <ele>7.5</ele>
        <time>2024-11-10T12:58:04Z</time>
      </trkpt>
      <trkpt lat="42.2889" lon="3.28122">
        <ele>7.5</ele>
        <time>2024-11-10T12:58:05Z</time>
      </trkpt>
      <trkpt lat="42.2889" lon="3.28122">
        <ele>7.5</ele>
        <time>2024-11-10T12:58:06Z</time>
      </trkpt>
      <trkpt lat="42.2889" lon="3.28122">
        <ele>7.5</ele>
        <time>2024-11-10T12:58:07Z</time>
      </trkpt>
      <trkpt lat="42.2889" lon="3.28122">
        <ele>7.5</ele>
        <time>2024-11-10T12:58:08Z</time>
      </trkpt>
      <trkpt lat="42.2889" lon="3.28123">
        <ele>7.5</ele>
        <time>2024-11-10T12:58:09Z</time>
      </trkpt>
      <trkpt lat="42.2889" lon="3.28123">
        <ele>7.5</ele>
        <time>2024-11-10T12:58:10Z</time>
      </trkpt>
      <trkpt lat="42.2889" lon="3.28124">
        <ele>7.5</ele>
        <time>2024-11-10T12:58:11Z</time>
      </trkpt>
      <trkpt lat="42.2889" lon="3.28124">
        <ele>7.5</ele>
        <time>2024-11-10T12:58:12Z</time>
      </trkpt>
      <trkpt lat="42.2889" lon="3.28123">
        <ele>7.5</ele>
        <time>2024-11-10T12:58:13Z</time>
      </trkpt>
      <trkpt lat="42.2889" lon="3.28123">
        <ele>7.5</ele>
        <time>2024-11-10T12:58:14Z</time>
      </trkpt>
      <trkpt lat="42.28891" lon="3.28123">
        <ele>7.5</ele>
        <time>2024-11-10T12:58:15Z</time>
      </trkpt>
      <trkpt lat="42.28891" lon="3.28123">
        <ele>7.5</ele>
        <time>2024-11-10T12:58:16Z</time>
      </trkpt>
      <trkpt lat="42.28891" lon="3.28123">
        <ele>7.5</ele>
        <time>2024-11-10T12:58:17Z</time>
      </trkpt>
      <trkpt lat="42.28891" lon="3.28123">
        <ele>7.5</ele>
        <time>2024-11-10T12:58:18Z</time>
      </trkpt>
      <trkpt lat="42.2889" lon="3.28123">
        <ele>7.5</ele>
        <time>2024-11-10T12:58:19Z</time>
      </trkpt>
      <trkpt lat="42.28892" lon="3.28125">
        <ele>7.5</ele>
        <time>2024-11-10T12:58:20Z</time>
      </trkpt>
      <trkpt lat="42.28892" lon="3.28125">
        <ele>7.5</ele>
        <time>2024-11-10T12:58:21Z</time>
      </trkpt>
      <trkpt lat="42.28892" lon="3.28125">
        <ele>7.5</ele>
        <time>2024-11-10T12:58:22Z</time>
      </trkpt>
      <trkpt lat="42.28892" lon="3.28125">
        <ele>7.5</ele>
        <time>2024-11-10T12:58:23Z</time>
      </trkpt>
      <trkpt lat="42.28892" lon="3.28125">
        <ele>7.5</ele>
        <time>2024-11-10T12:58:24Z</time>
      </trkpt>
      <trkpt lat="42.28892" lon="3.28125">
        <ele>7.5</ele>
        <time>2024-11-10T12:58:25Z</time>
      </trkpt>
      <trkpt lat="42.28892" lon="3.28125">
        <ele>7.5</ele>
        <time>2024-11-10T12:58:26Z</time>
      </trkpt>
      <trkpt lat="42.28892" lon="3.28125">
        <ele>7.5</ele>
        <time>2024-11-10T12:58:27Z</time>
      </trkpt>
      <trkpt lat="42.28892" lon="3.28125">
        <ele>7.5</ele>
        <time>2024-11-10T12:58:28Z</time>
      </trkpt>
      <trkpt lat="42.28892" lon="3.28125">
        <ele>7.5</ele>
        <time>2024-11-10T12:58:29Z</time>
      </trkpt>
      <trkpt lat="42.28892" lon="3.28125">
        <ele>7.5</ele>
        <time>2024-11-10T12:58:30Z</time>
      </trkpt>
      <trkpt lat="42.28892" lon="3.28125">
        <ele>7.5</ele>
        <time>2024-11-10T12:58:31Z</time>
      </trkpt>
      <trkpt lat="42.28892" lon="3.28125">
        <ele>7.5</ele>
        <time>2024-11-10T12:58:32Z</time>
      </trkpt>
      <trkpt lat="42.28892" lon="3.28125">
        <ele>7.5</ele>
        <time>2024-11-10T12:58:33Z</time>
      </trkpt>
      <trkpt lat="42.28892" lon="3.28125">
        <ele>7.5</ele>
        <time>2024-11-10T12:58:34Z</time>
      </trkpt>
      <trkpt lat="42.28892" lon="3.28125">
        <ele>7.5</ele>
        <time>2024-11-10T12:58:35Z</time>
      </trkpt>
      <trkpt lat="42.28892" lon="3.28125">
        <ele>7.5</ele>
        <time>2024-11-10T12:58:36Z</time>
      </trkpt>
      <trkpt lat="42.28892" lon="3.28125">
        <ele>7.5</ele>
        <time>2024-11-10T12:58:37Z</time>
      </trkpt>
      <trkpt lat="42.28892" lon="3.28125">
        <ele>7.5</ele>
        <time>2024-11-10T12:58:38Z</time>
      </trkpt>
      <trkpt lat="42.28892" lon="3.28125">
        <ele>7.5</ele>
        <time>2024-11-10T12:58:39Z</time>
      </trkpt>
      <trkpt lat="42.28892" lon="3.28125">
        <ele>7.5</ele>
        <time>2024-11-10T12:58:40Z</time>
      </trkpt>
      <trkpt lat="42.28892" lon="3.28125">
        <ele>7.5</ele>
        <time>2024-11-10T12:58:41Z</time>
      </trkpt>
      <trkpt lat="42.28892" lon="3.28125">
        <ele>7.5</ele>
        <time>2024-11-10T12:58:42Z</time>
      </trkpt>
      <trkpt lat="42.28892" lon="3.28125">
        <ele>7.5</ele>
        <time>2024-11-10T12:58:43Z</time>
      </trkpt>
      <trkpt lat="42.28892" lon="3.28125">
        <ele>7.5</ele>
        <time>2024-11-10T12:58:44Z</time>
      </trkpt>
      <trkpt lat="42.28892" lon="3.28125">
        <ele>7.5</ele>
        <time>2024-11-10T12:58:45Z</time>
      </trkpt>
      <trkpt lat="42.28892" lon="3.28125">
        <ele>7.5</ele>
        <time>2024-11-10T12:58:46Z</time>
      </trkpt>
      <trkpt lat="42.28892" lon="3.28125">
        <ele>7.5</ele>
        <time>2024-11-10T12:58:47Z</time>
      </trkpt>
      <trkpt lat="42.28892" lon="3.28125">
        <ele>7.5</ele>
        <time>2024-11-10T12:58:48Z</time>
      </trkpt>
      <trkpt lat="42.28892" lon="3.28125">
        <ele>7.5</ele>
        <time>2024-11-10T12:58:49Z</time>
      </trkpt>
      <trkpt lat="42.28892" lon="3.28125">
        <ele>7.5</ele>
        <time>2024-11-10T12:58:50Z</time>
      </trkpt>
      <trkpt lat="42.28892" lon="3.28125">
        <ele>7.5</ele>
        <time>2024-11-10T12:58:51Z</time>
      </trkpt>
      <trkpt lat="42.28892" lon="3.28125">
        <ele>7.5</ele>
        <time>2024-11-10T12:58:52Z</time>
      </trkpt>
      <trkpt lat="42.28892" lon="3.28125">
        <ele>7.5</ele>
        <time>2024-11-10T12:58:53Z</time>
      </trkpt>
      <trkpt lat="42.28892" lon="3.28125">
        <ele>7.5</ele>
        <time>2024-11-10T12:58:54Z</time>
      </trkpt>
      <trkpt lat="42.28892" lon="3.28125">
        <ele>7.5</ele>
        <time>2024-11-10T12:58:55Z</time>
      </trkpt>
      <trkpt lat="42.28892" lon="3.28125">
        <ele>7.5</ele>
        <time>2024-11-10T12:58:56Z</time>
      </trkpt>
      <trkpt lat="42.28892" lon="3.28125">
        <ele>7.5</ele>
        <time>2024-11-10T12:58:57Z</time>
      </trkpt>
      <trkpt lat="42.28892" lon="3.28125">
        <ele>7.5</ele>
        <time>2024-11-10T12:58:58Z</time>
      </trkpt>
      <trkpt lat="42.28892" lon="3.28125">
        <ele>7.5</ele>
        <time>2024-11-10T12:58:59Z</time>
      </trkpt>
      <trkpt lat="42.28891" lon="3.28123">
        <ele>7.5</ele>
        <time>2024-11-10T12:59:00Z</time>
      </trkpt>
      <trkpt lat="42.2889" lon="3.28122">
        <ele>7.5</ele>
        <time>2024-11-10T12:59:01Z</time>
      </trkpt>
      <trkpt lat="42.2889" lon="3.28122">
        <ele>7.5</ele>
        <time>2024-11-10T12:59:02Z</time>
      </trkpt>
      <trkpt lat="42.28892" lon="3.28125">
        <ele>7.5</ele>
        <time>2024-11-10T12:59:03Z</time>
      </trkpt>
      <trkpt lat="42.28891" lon="3.28124">
        <ele>7.5</ele>
        <time>2024-11-10T12:59:04Z</time>
      </trkpt>
      <trkpt lat="42.2889" lon="3.28123">
        <ele>7.6</ele>
        <time>2024-11-10T12:59:05Z</time>
      </trkpt>
      <trkpt lat="42.2889" lon="3.28123">
        <ele>7.6</ele>
        <time>2024-11-10T12:59:06Z</time>
      </trkpt>
      <trkpt lat="42.2889" lon="3.28123">
        <ele>7.6</ele>
        <time>2024-11-10T12:59:07Z</time>
      </trkpt>
      <trkpt lat="42.2889" lon="3.28123">
        <ele>7.6</ele>
        <time>2024-11-10T12:59:08Z</time>
      </trkpt>
      <trkpt lat="42.2889" lon="3.28122">
        <ele>7.6</ele>
        <time>2024-11-10T12:59:09Z</time>
      </trkpt>
      <trkpt lat="42.2889" lon="3.28122">
        <ele>7.6</ele>
        <time>2024-11-10T12:59:10Z</time>
      </trkpt>
      <trkpt lat="42.2889" lon="3.28122">
        <ele>7.6</ele>
        <time>2024-11-10T12:59:11Z</time>
      </trkpt>
      <trkpt lat="42.2889" lon="3.28122">
        <ele>7.6</ele>
        <time>2024-11-10T12:59:12Z</time>
      </trkpt>
      <trkpt lat="42.2889" lon="3.28122">
        <ele>7.6</ele>
        <time>2024-11-10T12:59:13Z</time>
      </trkpt>
      <trkpt lat="42.2889" lon="3.28123">
        <ele>7.6</ele>
        <time>2024-11-10T12:59:14Z</time>
      </trkpt>
      <trkpt lat="42.2889" lon="3.28123">
        <ele>7.6</ele>
        <time>2024-11-10T12:59:15Z</time>
      </trkpt>
      <trkpt lat="42.2889" lon="3.28123">
        <ele>7.6</ele>
        <time>2024-11-10T12:59:16Z</time>
      </trkpt>
      <trkpt lat="42.2889" lon="3.28123">
        <ele>7.6</ele>
        <time>2024-11-10T12:59:17Z</time>
      </trkpt>
      <trkpt lat="42.2889" lon="3.28123">
        <ele>7.6</ele>
        <time>2024-11-10T12:59:18Z</time>
      </trkpt>
      <trkpt lat="42.2889" lon="3.28122">
        <ele>7.6</ele>
        <time>2024-11-10T12:59:19Z</time>
      </trkpt>
      <trkpt lat="42.2889" lon="3.28122">
        <ele>7.6</ele>
        <time>2024-11-10T12:59:20Z</time>
      </trkpt>
      <trkpt lat="42.2889" lon="3.28122">
        <ele>7.6</ele>
        <time>2024-11-10T12:59:21Z</time>
      </trkpt>
      <trkpt lat="42.2889" lon="3.28122">
        <ele>7.6</ele>
        <time>2024-11-10T12:59:22Z</time>
      </trkpt>
      <trkpt lat="42.2889" lon="3.28122">
        <ele>7.6</ele>
        <time>2024-11-10T12:59:23Z</time>
      </trkpt>
      <trkpt lat="42.2889" lon="3.28124">
        <ele>7.6</ele>
        <time>2024-11-10T12:59:24Z</time>
      </trkpt>
      <trkpt lat="42.2889" lon="3.28124">
        <ele>7.6</ele>
        <time>2024-11-10T12:59:25Z</time>
      </trkpt>
      <trkpt lat="42.2889" lon="3.28124">
        <ele>7.6</ele>
        <time>2024-11-10T12:59:26Z</time>
      </trkpt>
      <trkpt lat="42.2889" lon="3.28124">
        <ele>7.6</ele>
        <time>2024-11-10T12:59:27Z</time>
      </trkpt>
      <trkpt lat="42.2889" lon="3.28124">
        <ele>7.6</ele>
        <time>2024-11-10T12:59:28Z</time>
      </trkpt>
      <trkpt lat="42.2889" lon="3.28123">
        <ele>7.6</ele>
        <time>2024-11-10T12:59:29Z</time>
      </trkpt>
      <trkpt lat="42.2889" lon="3.28123">
        <ele>7.6</ele>
        <time>2024-11-10T12:59:30Z</time>
      </trkpt>
      <trkpt lat="42.2889" lon="3.28122">
        <ele>7.6</ele>
        <time>2024-11-10T12:59:31Z</time>
      </trkpt>
      <trkpt lat="42.2889" lon="3.28123">
        <ele>7.6</ele>
        <time>2024-11-10T12:59:32Z</time>
      </trkpt>
      <trkpt lat="42.2889" lon="3.28123">
        <ele>7.6</ele>
        <time>2024-11-10T12:59:33Z</time>
      </trkpt>
      <trkpt lat="42.2889" lon="3.28122">
        <ele>7.6</ele>
        <time>2024-11-10T12:59:34Z</time>
      </trkpt>
      <trkpt lat="42.2889" lon="3.28122">
        <ele>7.6</ele>
        <time>2024-11-10T12:59:35Z</time>
      </trkpt>
      <trkpt lat="42.2889" lon="3.28122">
        <ele>7.6</ele>
        <time>2024-11-10T12:59:36Z</time>
      </trkpt>
      <trkpt lat="42.2889" lon="3.28122">
        <ele>7.6</ele>
        <time>2024-11-10T12:59:37Z</time>
      </trkpt>
      <trkpt lat="42.2889" lon="3.28122">
        <ele>7.6</ele>
        <time>2024-11-10T12:59:38Z</time>
      </trkpt>
      <trkpt lat="42.2889" lon="3.28123">
        <ele>7.6</ele>
        <time>2024-11-10T12:59:39Z</time>
      </trkpt>
      <trkpt lat="42.2889" lon="3.28123">
        <ele>7.6</ele>
        <time>2024-11-10T12:59:40Z</time>
      </trkpt>
      <trkpt lat="42.2889" lon="3.28123">
        <ele>7.6</ele>
        <time>2024-11-10T12:59:41Z</time>
      </trkpt>
      <trkpt lat="42.2889" lon="3.28123">
        <ele>7.6</ele>
        <time>2024-11-10T12:59:42Z</time>
      </trkpt>
      <trkpt lat="42.2889" lon="3.28123">
        <ele>7.6</ele>
        <time>2024-11-10T12:59:43Z</time>
      </trkpt>
      <trkpt lat="42.2889" lon="3.28123">
        <ele>7.6</ele>
        <time>2024-11-10T12:59:44Z</time>
      </trkpt>
      <trkpt lat="42.2889" lon="3.28123">
        <ele>7.6</ele>
        <time>2024-11-10T12:59:45Z</time>
      </trkpt>
      <trkpt lat="42.2889" lon="3.28123">
        <ele>7.6</ele>
        <time>2024-11-10T12:59:46Z</time>
      </trkpt>
      <trkpt lat="42.2889" lon="3.28123">
        <ele>7.6</ele>
        <time>2024-11-10T12:59:47Z</time>
      </trkpt>
      <trkpt lat="42.2889" lon="3.28123">
        <ele>7.6</ele>
        <time>2024-11-10T12:59:48Z</time>
      </trkpt>
      <trkpt lat="42.2889" lon="3.28123">
        <ele>7.6</ele>
        <time>2024-11-10T12:59:49Z</time>
      </trkpt>
      <trkpt lat="42.2889" lon="3.28123">
        <ele>7.6</ele>
        <time>2024-11-10T12:59:50Z</time>
      </trkpt>
      <trkpt lat="42.2889" lon="3.28123">
        <ele>7.6</ele>
        <time>2024-11-10T12:59:51Z</time>
      </trkpt>
      <trkpt lat="42.2889" lon="3.28123">
        <ele>7.6</ele>
        <time>2024-11-10T12:59:52Z</time>
      </trkpt>
      <trkpt lat="42.2889" lon="3.28123">
        <ele>7.6</ele>
        <time>2024-11-10T12:59:53Z</time>
      </trkpt>
      <trkpt lat="42.2889" lon="3.28123">
        <ele>7.6</ele>
        <time>2024-11-10T12:59:54Z</time>
      </trkpt>
      <trkpt lat="42.2889" lon="3.28123">
        <ele>7.6</ele>
        <time>2024-11-10T12:59:55Z</time>
      </trkpt>
      <trkpt lat="42.2889" lon="3.28122">
        <ele>7.6</ele>
        <time>2024-11-10T12:59:56Z</time>
      </trkpt>
      <trkpt lat="42.2889" lon="3.28122">
        <ele>7.6</ele>
        <time>2024-11-10T12:59:57Z</time>
      </trkpt>
      <trkpt lat="42.2889" lon="3.28122">
        <ele>7.6</ele>
        <time>2024-11-10T12:59:58Z</time>
      </trkpt>
      <trkpt lat="42.2889" lon="3.28122">
        <ele>7.6</ele>
        <time>2024-11-10T12:59:59Z</time>
      </trkpt>
      <trkpt lat="42.2889" lon="3.28122">
        <ele>7.6</ele>
        <time>2024-11-10T13:00:00Z</time>
      </trkpt>
      <trkpt lat="42.2889" lon="3.28122">
        <ele>7.6</ele>
        <time>2024-11-10T13:00:01Z</time>
      </trkpt>
      <trkpt lat="42.2889" lon="3.28122">
        <ele>7.6</ele>
        <time>2024-11-10T13:00:02Z</time>
      </trkpt>
      <trkpt lat="42.2889" lon="3.28122">
        <ele>7.6</ele>
        <time>2024-11-10T13:00:03Z</time>
      </trkpt>
      <trkpt lat="42.2889" lon="3.28122">
        <ele>7.6</ele>
        <time>2024-11-10T13:00:04Z</time>
      </trkpt>
      <trkpt lat="42.2889" lon="3.28122">
        <ele>7.6</ele>
        <time>2024-11-10T13:00:05Z</time>
      </trkpt>
      <trkpt lat="42.2889" lon="3.28122">
        <ele>7.6</ele>
        <time>2024-11-10T13:00:06Z</time>
      </trkpt>
      <trkpt lat="42.2889" lon="3.28122">
        <ele>7.6</ele>
        <time>2024-11-10T13:00:07Z</time>
      </trkpt>
      <trkpt lat="42.2889" lon="3.28122">
        <ele>7.6</ele>
        <time>2024-11-10T13:00:08Z</time>
      </trkpt>
      <trkpt lat="42.2889" lon="3.28122">
        <ele>7.6</ele>
        <time>2024-11-10T13:00:09Z</time>
      </trkpt>
      <trkpt lat="42.2889" lon="3.28123">
        <ele>7.6</ele>
        <time>2024-11-10T13:00:10Z</time>
      </trkpt>
      <trkpt lat="42.2889" lon="3.28123">
        <ele>7.6</ele>
        <time>2024-11-10T13:00:11Z</time>
      </trkpt>
      <trkpt lat="42.2889" lon="3.28123">
        <ele>7.6</ele>
        <time>2024-11-10T13:00:12Z</time>
      </trkpt>
      <trkpt lat="42.2889" lon="3.28123">
        <ele>7.6</ele>
        <time>2024-11-10T13:00:13Z</time>
      </trkpt>
      <trkpt lat="42.2889" lon="3.28123">
        <ele>7.6</ele>
        <time>2024-11-10T13:00:14Z</time>
      </trkpt>
      <trkpt lat="42.2889" lon="3.28123">
        <ele>7.6</ele>
        <time>2024-11-10T13:00:15Z</time>
      </trkpt>
      <trkpt lat="42.2889" lon="3.28123">
        <ele>7.6</ele>
        <time>2024-11-10T13:00:16Z</time>
      </trkpt>
      <trkpt lat="42.2889" lon="3.28123">
        <ele>7.6</ele>
        <time>2024-11-10T13:00:17Z</time>
      </trkpt>
      <trkpt lat="42.2889" lon="3.28123">
        <ele>7.6</ele>
        <time>2024-11-10T13:00:18Z</time>
      </trkpt>
      <trkpt lat="42.2889" lon="3.28123">
        <ele>7.6</ele>
        <time>2024-11-10T13:00:19Z</time>
      </trkpt>
      <trkpt lat="42.2889" lon="3.28122">
        <ele>7.6</ele>
        <time>2024-11-10T13:00:20Z</time>
      </trkpt>
      <trkpt lat="42.2889" lon="3.28122">
        <ele>7.6</ele>
        <time>2024-11-10T13:00:21Z</time>
      </trkpt>
      <trkpt lat="42.2889" lon="3.28122">
        <ele>7.6</ele>
        <time>2024-11-10T13:00:22Z</time>
      </trkpt>
      <trkpt lat="42.2889" lon="3.28122">
        <ele>7.6</ele>
        <time>2024-11-10T13:00:23Z</time>
      </trkpt>
      <trkpt lat="42.2889" lon="3.28122">
        <ele>7.6</ele>
        <time>2024-11-10T13:00:24Z</time>
      </trkpt>
      <trkpt lat="42.2889" lon="3.28122">
        <ele>7.6</ele>
        <time>2024-11-10T13:00:25Z</time>
      </trkpt>
      <trkpt lat="42.2889" lon="3.28122">
        <ele>7.6</ele>
        <time>2024-11-10T13:00:26Z</time>
      </trkpt>
      <trkpt lat="42.2889" lon="3.28122">
        <ele>7.6</ele>
        <time>2024-11-10T13:00:27Z</time>
      </trkpt>
      <trkpt lat="42.2889" lon="3.28122">
        <ele>7.6</ele>
        <time>2024-11-10T13:00:28Z</time>
      </trkpt>
      <trkpt lat="42.2889" lon="3.28122">
        <ele>7.6</ele>
        <time>2024-11-10T13:00:29Z</time>
      </trkpt>
      <trkpt lat="42.2889" lon="3.28122">
        <ele>7.6</ele>
        <time>2024-11-10T13:00:30Z</time>
      </trkpt>
      <trkpt lat="42.2889" lon="3.28122">
        <ele>7.6</ele>
        <time>2024-11-10T13:00:31Z</time>
      </trkpt>
      <trkpt lat="42.2889" lon="3.28122">
        <ele>7.6</ele>
        <time>2024-11-10T13:00:32Z</time>
      </trkpt>
      <trkpt lat="42.2889" lon="3.28122">
        <ele>7.6</ele>
        <time>2024-11-10T13:00:33Z</time>
      </trkpt>
      <trkpt lat="42.2889" lon="3.28122">
        <ele>7.6</ele>
        <time>2024-11-10T13:00:34Z</time>
      </trkpt>
      <trkpt lat="42.28889" lon="3.28126">
        <ele>7.6</ele>
        <time>2024-11-10T13:00:35Z</time>
      </trkpt>
      <trkpt lat="42.28888" lon="3.28127">
        <ele>7.6</ele>
        <time>2024-11-10T13:00:36Z</time>
      </trkpt>
      <trkpt lat="42.28888" lon="3.28127">
        <ele>7.6</ele>
        <time>2024-11-10T13:00:37Z</time>
      </trkpt>
      <trkpt lat="42.28888" lon="3.28127">
        <ele>7.6</ele>
        <time>2024-11-10T13:00:38Z</time>
      </trkpt>
      <trkpt lat="42.28888" lon="3.28127">
        <ele>7.6</ele>
        <time>2024-11-10T13:00:39Z</time>
      </trkpt>
      <trkpt lat="42.2889" lon="3.28123">
        <ele>7.6</ele>
        <time>2024-11-10T13:00:40Z</time>
      </trkpt>
      <trkpt lat="42.2889" lon="3.28122">
        <ele>7.6</ele>
        <time>2024-11-10T13:00:41Z</time>
      </trkpt>
      <trkpt lat="42.2889" lon="3.28122">
        <ele>7.6</ele>
        <time>2024-11-10T13:00:42Z</time>
      </trkpt>
      <trkpt lat="42.2889" lon="3.28122">
        <ele>7.6</ele>
        <time>2024-11-10T13:00:43Z</time>
      </trkpt>
      <trkpt lat="42.2889" lon="3.28122">
        <ele>7.6</ele>
        <time>2024-11-10T13:00:44Z</time>
      </trkpt>
      <trkpt lat="42.2889" lon="3.28123">
        <ele>7.6</ele>
        <time>2024-11-10T13:00:45Z</time>
      </trkpt>
      <trkpt lat="42.2889" lon="3.28123">
        <ele>7.6</ele>
        <time>2024-11-10T13:00:46Z</time>
      </trkpt>
      <trkpt lat="42.2889" lon="3.28123">
        <ele>7.6</ele>
        <time>2024-11-10T13:00:47Z</time>
      </trkpt>
      <trkpt lat="42.2889" lon="3.28123">
        <ele>7.6</ele>
        <time>2024-11-10T13:00:48Z</time>
      </trkpt>
      <trkpt lat="42.2889" lon="3.28123">
        <ele>7.6</ele>
        <time>2024-11-10T13:00:49Z</time>
      </trkpt>
      <trkpt lat="42.2889" lon="3.28123">
        <ele>7.6</ele>
        <time>2024-11-10T13:00:50Z</time>
      </trkpt>
      <trkpt lat="42.2889" lon="3.28123">
        <ele>7.6</ele>
        <time>2024-11-10T13:00:51Z</time>
      </trkpt>
      <trkpt lat="42.2889" lon="3.28123">
        <ele>7.6</ele>
        <time>2024-11-10T13:00:52Z</time>
      </trkpt>
      <trkpt lat="42.2889" lon="3.28123">
        <ele>7.6</ele>
        <time>2024-11-10T13:00:53Z</time>
      </trkpt>
      <trkpt lat="42.2889" lon="3.28123">
        <ele>7.6</ele>
        <time>2024-11-10T13:00:54Z</time>
      </trkpt>
      <trkpt lat="42.2889" lon="3.28123">
        <ele>7.6</ele>
        <time>2024-11-10T13:00:55Z</time>
      </trkpt>
      <trkpt lat="42.2889" lon="3.28123">
        <ele>7.6</ele>
        <time>2024-11-10T13:00:56Z</time>
      </trkpt>
      <trkpt lat="42.2889" lon="3.28123">
        <ele>7.6</ele>
        <time>2024-11-10T13:00:57Z</time>
      </trkpt>
      <trkpt lat="42.2889" lon="3.28123">
        <ele>7.6</ele>
        <time>2024-11-10T13:00:58Z</time>
      </trkpt>
      <trkpt lat="42.2889" lon="3.28123">
        <ele>7.6</ele>
        <time>2024-11-10T13:00:59Z</time>
      </trkpt>
      <trkpt lat="42.2889" lon="3.28123">
        <ele>7.6</ele>
        <time>2024-11-10T13:01:00Z</time>
      </trkpt>
      <trkpt lat="42.2889" lon="3.28124">
        <ele>7.6</ele>
        <time>2024-11-10T13:01:01Z</time>
      </trkpt>
      <trkpt lat="42.2889" lon="3.28124">
        <ele>7.6</ele>
        <time>2024-11-10T13:01:02Z</time>
      </trkpt>
      <trkpt lat="42.2889" lon="3.28124">
        <ele>7.6</ele>
        <time>2024-11-10T13:01:03Z</time>
      </trkpt>
      <trkpt lat="42.2889" lon="3.28124">
        <ele>7.6</ele>
        <time>2024-11-10T13:01:04Z</time>
      </trkpt>
      <trkpt lat="42.2889" lon="3.28123">
        <ele>7.6</ele>
        <time>2024-11-10T13:01:05Z</time>
      </trkpt>
      <trkpt lat="42.2889" lon="3.28122">
        <ele>7.6</ele>
        <time>2024-11-10T13:01:06Z</time>
      </trkpt>
      <trkpt lat="42.2889" lon="3.28122">
        <ele>7.6</ele>
        <time>2024-11-10T13:01:07Z</time>
      </trkpt>
      <trkpt lat="42.2889" lon="3.28122">
        <ele>7.6</ele>
        <time>2024-11-10T13:01:08Z</time>
      </trkpt>
      <trkpt lat="42.2889" lon="3.28122">
        <ele>7.6</ele>
        <time>2024-11-10T13:01:09Z</time>
      </trkpt>
      <trkpt lat="42.2889" lon="3.28123">
        <ele>7.6</ele>
        <time>2024-11-10T13:01:10Z</time>
      </trkpt>
      <trkpt lat="42.2889" lon="3.28123">
        <ele>7.6</ele>
        <time>2024-11-10T13:01:11Z</time>
      </trkpt>
      <trkpt lat="42.2889" lon="3.28123">
        <ele>7.6</ele>
        <time>2024-11-10T13:01:12Z</time>
      </trkpt>
      <trkpt lat="42.2889" lon="3.28123">
        <ele>7.6</ele>
        <time>2024-11-10T13:01:13Z</time>
      </trkpt>
      <trkpt lat="42.2889" lon="3.28123">
        <ele>7.6</ele>
        <time>2024-11-10T13:01:14Z</time>
      </trkpt>
      <trkpt lat="42.2889" lon="3.28122">
        <ele>7.6</ele>
        <time>2024-11-10T13:01:15Z</time>
      </trkpt>
      <trkpt lat="42.2889" lon="3.28122">
        <ele>7.6</ele>
        <time>2024-11-10T13:01:16Z</time>
      </trkpt>
      <trkpt lat="42.2889" lon="3.28122">
        <ele>7.6</ele>
        <time>2024-11-10T13:01:17Z</time>
      </trkpt>
      <trkpt lat="42.2889" lon="3.28122">
        <ele>7.6</ele>
        <time>2024-11-10T13:01:18Z</time>
      </trkpt>
      <trkpt lat="42.2889" lon="3.28122">
        <ele>7.6</ele>
        <time>2024-11-10T13:01:19Z</time>
      </trkpt>
      <trkpt lat="42.2889" lon="3.28123">
        <ele>7.6</ele>
        <time>2024-11-10T13:01:20Z</time>
      </trkpt>
      <trkpt lat="42.2889" lon="3.28123">
        <ele>7.6</ele>
        <time>2024-11-10T13:01:21Z</time>
      </trkpt>
      <trkpt lat="42.2889" lon="3.28123">
        <ele>7.6</ele>
        <time>2024-11-10T13:01:22Z</time>
      </trkpt>
      <trkpt lat="42.2889" lon="3.28123">
        <ele>7.6</ele>
        <time>2024-11-10T13:01:23Z</time>
      </trkpt>
      <trkpt lat="42.2889" lon="3.28123">
        <ele>7.6</ele>
        <time>2024-11-10T13:01:24Z</time>
      </trkpt>
      <trkpt lat="42.2889" lon="3.28123">
        <ele>7.6</ele>
        <time>2024-11-10T13:01:25Z</time>
      </trkpt>
      <trkpt lat="42.2889" lon="3.28123">
        <ele>7.6</ele>
        <time>2024-11-10T13:01:26Z</time>
      </trkpt>
      <trkpt lat="42.2889" lon="3.28123">
        <ele>7.6</ele>
        <time>2024-11-10T13:01:27Z</time>
      </trkpt>
      <trkpt lat="42.2889" lon="3.28123">
        <ele>7.6</ele>
        <time>2024-11-10T13:01:28Z</time>
      </trkpt>
      <trkpt lat="42.2889" lon="3.28123">
        <ele>7.6</ele>
        <time>2024-11-10T13:01:29Z</time>
      </trkpt>
      <trkpt lat="42.2889" lon="3.28122">
        <ele>7.6</ele>
        <time>2024-11-10T13:01:30Z</time>
      </trkpt>
      <trkpt lat="42.2889" lon="3.28122">
        <ele>7.6</ele>
        <time>2024-11-10T13:01:31Z</time>
      </trkpt>
      <trkpt lat="42.2889" lon="3.28122">
        <ele>7.6</ele>
        <time>2024-11-10T13:01:32Z</time>
      </trkpt>
      <trkpt lat="42.2889" lon="3.28122">
        <ele>7.6</ele>
        <time>2024-11-10T13:01:33Z</time>
      </trkpt>
      <trkpt lat="42.2889" lon="3.28122">
        <ele>7.6</ele>
        <time>2024-11-10T13:01:34Z</time>
      </trkpt>
      <trkpt lat="42.2889" lon="3.28122">
        <ele>7.6</ele>
        <time>2024-11-10T13:01:35Z</time>
      </trkpt>
      <trkpt lat="42.2889" lon="3.28122">
        <ele>7.6</ele>
        <time>2024-11-10T13:01:36Z</time>
      </trkpt>
      <trkpt lat="42.2889" lon="3.28122">
        <ele>7.6</ele>
        <time>2024-11-10T13:01:37Z</time>
      </trkpt>
      <trkpt lat="42.2889" lon="3.28122">
        <ele>7.6</ele>
        <time>2024-11-10T13:01:38Z</time>
      </trkpt>
      <trkpt lat="42.2889" lon="3.28122">
        <ele>7.6</ele>
        <time>2024-11-10T13:01:39Z</time>
      </trkpt>
      <trkpt lat="42.2889" lon="3.28123">
        <ele>7.6</ele>
        <time>2024-11-10T13:01:40Z</time>
      </trkpt>
      <trkpt lat="42.28889" lon="3.28123">
        <ele>7.6</ele>
        <time>2024-11-10T13:01:41Z</time>
      </trkpt>
      <trkpt lat="42.28889" lon="3.28123">
        <ele>7.6</ele>
        <time>2024-11-10T13:01:42Z</time>
      </trkpt>
      <trkpt lat="42.28889" lon="3.28123">
        <ele>7.6</ele>
        <time>2024-11-10T13:01:43Z</time>
      </trkpt>
      <trkpt lat="42.28889" lon="3.28123">
        <ele>7.6</ele>
        <time>2024-11-10T13:01:44Z</time>
      </trkpt>
      <trkpt lat="42.2889" lon="3.28122">
        <ele>7.6</ele>
        <time>2024-11-10T13:01:45Z</time>
      </trkpt>
      <trkpt lat="42.2889" lon="3.28122">
        <ele>7.6</ele>
        <time>2024-11-10T13:01:46Z</time>
      </trkpt>
      <trkpt lat="42.2889" lon="3.28122">
        <ele>7.6</ele>
        <time>2024-11-10T13:01:47Z</time>
      </trkpt>
      <trkpt lat="42.2889" lon="3.28122">
        <ele>7.6</ele>
        <time>2024-11-10T13:01:48Z</time>
      </trkpt>
      <trkpt lat="42.2889" lon="3.28122">
        <ele>7.6</ele>
        <time>2024-11-10T13:01:49Z</time>
      </trkpt>
      <trkpt lat="42.2889" lon="3.28122">
        <ele>7.6</ele>
        <time>2024-11-10T13:01:50Z</time>
      </trkpt>
      <trkpt lat="42.2889" lon="3.28122">
        <ele>7.6</ele>
        <time>2024-11-10T13:01:51Z</time>
      </trkpt>
      <trkpt lat="42.2889" lon="3.28122">
        <ele>7.6</ele>
        <time>2024-11-10T13:01:52Z</time>
      </trkpt>
      <trkpt lat="42.2889" lon="3.28122">
        <ele>7.6</ele>
        <time>2024-11-10T13:01:53Z</time>
      </trkpt>
      <trkpt lat="42.2889" lon="3.28122">
        <ele>7.6</ele>
        <time>2024-11-10T13:01:54Z</time>
      </trkpt>
      <trkpt lat="42.2889" lon="3.28122">
        <ele>7.6</ele>
        <time>2024-11-10T13:01:55Z</time>
      </trkpt>
      <trkpt lat="42.2889" lon="3.28122">
        <ele>7.6</ele>
        <time>2024-11-10T13:01:56Z</time>
      </trkpt>
      <trkpt lat="42.2889" lon="3.28122">
        <ele>7.6</ele>
        <time>2024-11-10T13:01:57Z</time>
      </trkpt>
      <trkpt lat="42.2889" lon="3.28122">
        <ele>7.6</ele>
        <time>2024-11-10T13:01:58Z</time>
      </trkpt>
      <trkpt lat="42.2889" lon="3.28122">
        <ele>7.6</ele>
        <time>2024-11-10T13:01:59Z</time>
      </trkpt>
      <trkpt lat="42.2889" lon="3.28122">
        <ele>7.6</ele>
        <time>2024-11-10T13:02:00Z</time>
      </trkpt>
      <trkpt lat="42.2889" lon="3.28121">
        <ele>7.6</ele>
        <time>2024-11-10T13:02:01Z</time>
      </trkpt>
      <trkpt lat="42.2889" lon="3.28121">
        <ele>7.6</ele>
        <time>2024-11-10T13:02:02Z</time>
      </trkpt>
      <trkpt lat="42.2889" lon="3.28121">
        <ele>7.6</ele>
        <time>2024-11-10T13:02:03Z</time>
      </trkpt>
      <trkpt lat="42.2889" lon="3.28121">
        <ele>7.6</ele>
        <time>2024-11-10T13:02:04Z</time>
      </trkpt>
      <trkpt lat="42.2889" lon="3.28122">
        <ele>7.6</ele>
        <time>2024-11-10T13:02:05Z</time>
      </trkpt>
      <trkpt lat="42.2889" lon="3.28122">
        <ele>7.6</ele>
        <time>2024-11-10T13:02:06Z</time>
      </trkpt>
      <trkpt lat="42.2889" lon="3.28122">
        <ele>7.6</ele>
        <time>2024-11-10T13:02:07Z</time>
      </trkpt>
      <trkpt lat="42.2889" lon="3.28122">
        <ele>7.6</ele>
        <time>2024-11-10T13:02:08Z</time>
      </trkpt>
      <trkpt lat="42.2889" lon="3.28122">
        <ele>7.6</ele>
        <time>2024-11-10T13:02:09Z</time>
      </trkpt>
      <trkpt lat="42.2889" lon="3.28122">
        <ele>7.6</ele>
        <time>2024-11-10T13:02:10Z</time>
      </trkpt>
      <trkpt lat="42.2889" lon="3.28123">
        <ele>7.6</ele>
        <time>2024-11-10T13:02:11Z</time>
      </trkpt>
      <trkpt lat="42.2889" lon="3.28123">
        <ele>7.6</ele>
        <time>2024-11-10T13:02:12Z</time>
      </trkpt>
      <trkpt lat="42.2889" lon="3.28123">
        <ele>7.6</ele>
        <time>2024-11-10T13:02:13Z</time>
      </trkpt>
      <trkpt lat="42.2889" lon="3.28123">
        <ele>7.6</ele>
        <time>2024-11-10T13:02:14Z</time>
      </trkpt>
      <trkpt lat="42.2889" lon="3.28122">
        <ele>7.6</ele>
        <time>2024-11-10T13:02:15Z</time>
      </trkpt>
      <trkpt lat="42.2889" lon="3.28122">
        <ele>7.6</ele>
        <time>2024-11-10T13:02:16Z</time>
      </trkpt>
      <trkpt lat="42.2889" lon="3.28122">
        <ele>7.6</ele>
        <time>2024-11-10T13:02:17Z</time>
      </trkpt>
      <trkpt lat="42.2889" lon="3.28122">
        <ele>7.6</ele>
        <time>2024-11-10T13:02:18Z</time>
      </trkpt>
      <trkpt lat="42.2889" lon="3.28122">
        <ele>7.6</ele>
        <time>2024-11-10T13:02:19Z</time>
      </trkpt>
      <trkpt lat="42.2889" lon="3.28124">
        <ele>7.7</ele>
        <time>2024-11-10T13:02:20Z</time>
      </trkpt>
      <trkpt lat="42.28889" lon="3.28124">
        <ele>7.7</ele>
        <time>2024-11-10T13:02:21Z</time>
      </trkpt>
      <trkpt lat="42.28889" lon="3.28124">
        <ele>7.7</ele>
        <time>2024-11-10T13:02:22Z</time>
      </trkpt>
      <trkpt lat="42.28889" lon="3.28124">
        <ele>7.7</ele>
        <time>2024-11-10T13:02:23Z</time>
      </trkpt>
      <trkpt lat="42.28889" lon="3.28124">
        <ele>7.7</ele>
        <time>2024-11-10T13:02:24Z</time>
      </trkpt>
      <trkpt lat="42.28889" lon="3.28124">
        <ele>7.7</ele>
        <time>2024-11-10T13:02:25Z</time>
      </trkpt>
      <trkpt lat="42.28889" lon="3.28123">
        <ele>7.7</ele>
        <time>2024-11-10T13:02:26Z</time>
      </trkpt>
      <trkpt lat="42.28889" lon="3.28123">
        <ele>7.7</ele>
        <time>2024-11-10T13:02:27Z</time>
      </trkpt>
      <trkpt lat="42.28889" lon="3.28123">
        <ele>7.7</ele>
        <time>2024-11-10T13:02:28Z</time>
      </trkpt>
      <trkpt lat="42.28889" lon="3.28123">
        <ele>7.7</ele>
        <time>2024-11-10T13:02:29Z</time>
      </trkpt>
      <trkpt lat="42.28892" lon="3.28125">
        <ele>7.7</ele>
        <time>2024-11-10T13:02:30Z</time>
      </trkpt>
      <trkpt lat="42.28892" lon="3.28125">
        <ele>7.7</ele>
        <time>2024-11-10T13:02:31Z</time>
      </trkpt>
      <trkpt lat="42.28892" lon="3.28125">
        <ele>7.7</ele>
        <time>2024-11-10T13:02:32Z</time>
      </trkpt>
      <trkpt lat="42.28892" lon="3.28125">
        <ele>7.7</ele>
        <time>2024-11-10T13:02:33Z</time>
      </trkpt>
      <trkpt lat="42.28892" lon="3.28125">
        <ele>7.7</ele>
        <time>2024-11-10T13:02:34Z</time>
      </trkpt>
      <trkpt lat="42.28891" lon="3.28122">
        <ele>7.7</ele>
        <time>2024-11-10T13:02:35Z</time>
      </trkpt>
      <trkpt lat="42.2889" lon="3.28121">
        <ele>7.7</ele>
        <time>2024-11-10T13:02:36Z</time>
      </trkpt>
      <trkpt lat="42.2889" lon="3.28121">
        <ele>7.7</ele>
        <time>2024-11-10T13:02:37Z</time>
      </trkpt>
      <trkpt lat="42.2889" lon="3.28121">
        <ele>7.7</ele>
        <time>2024-11-10T13:02:38Z</time>
      </trkpt>
      <trkpt lat="42.2889" lon="3.28121">
        <ele>7.7</ele>
        <time>2024-11-10T13:02:39Z</time>
      </trkpt>
      <trkpt lat="42.2889" lon="3.28122">
        <ele>7.7</ele>
        <time>2024-11-10T13:02:40Z</time>
      </trkpt>
      <trkpt lat="42.2889" lon="3.28122">
        <ele>7.7</ele>
        <time>2024-11-10T13:02:41Z</time>
      </trkpt>
      <trkpt lat="42.2889" lon="3.28122">
        <ele>7.7</ele>
        <time>2024-11-10T13:02:42Z</time>
      </trkpt>
      <trkpt lat="42.2889" lon="3.28122">
        <ele>7.7</ele>
        <time>2024-11-10T13:02:43Z</time>
      </trkpt>
      <trkpt lat="42.2889" lon="3.28122">
        <ele>7.7</ele>
        <time>2024-11-10T13:02:44Z</time>
      </trkpt>
      <trkpt lat="42.2889" lon="3.28123">
        <ele>7.7</ele>
        <time>2024-11-10T13:02:45Z</time>
      </trkpt>
      <trkpt lat="42.2889" lon="3.28123">
        <ele>7.7</ele>
        <time>2024-11-10T13:02:46Z</time>
      </trkpt>
      <trkpt lat="42.2889" lon="3.28123">
        <ele>7.7</ele>
        <time>2024-11-10T13:02:47Z</time>
      </trkpt>
      <trkpt lat="42.2889" lon="3.28123">
        <ele>7.7</ele>
        <time>2024-11-10T13:02:48Z</time>
      </trkpt>
      <trkpt lat="42.2889" lon="3.28123">
        <ele>7.7</ele>
        <time>2024-11-10T13:02:49Z</time>
      </trkpt>
      <trkpt lat="42.28892" lon="3.28125">
        <ele>7.7</ele>
        <time>2024-11-10T13:02:50Z</time>
      </trkpt>
      <trkpt lat="42.28892" lon="3.28125">
        <ele>7.7</ele>
        <time>2024-11-10T13:02:51Z</time>
      </trkpt>
      <trkpt lat="42.28891" lon="3.28124">
        <ele>7.7</ele>
        <time>2024-11-10T13:02:52Z</time>
      </trkpt>
      <trkpt lat="42.28891" lon="3.28123">
        <ele>7.7</ele>
        <time>2024-11-10T13:02:53Z</time>
      </trkpt>
      <trkpt lat="42.2889" lon="3.28123">
        <ele>7.7</ele>
        <time>2024-11-10T13:02:54Z</time>
      </trkpt>
      <trkpt lat="42.2889" lon="3.28123">
        <ele>7.7</ele>
        <time>2024-11-10T13:02:55Z</time>
      </trkpt>
      <trkpt lat="42.2889" lon="3.28123">
        <ele>7.7</ele>
        <time>2024-11-10T13:02:56Z</time>
      </trkpt>
      <trkpt lat="42.2889" lon="3.28123">
        <ele>7.7</ele>
        <time>2024-11-10T13:02:57Z</time>
      </trkpt>
      <trkpt lat="42.2889" lon="3.28123">
        <ele>7.7</ele>
        <time>2024-11-10T13:02:58Z</time>
      </trkpt>
      <trkpt lat="42.2889" lon="3.28123">
        <ele>7.7</ele>
        <time>2024-11-10T13:02:59Z</time>
      </trkpt>
      <trkpt lat="42.2889" lon="3.28124">
        <ele>7.7</ele>
        <time>2024-11-10T13:03:00Z</time>
      </trkpt>
      <trkpt lat="42.2889" lon="3.28124">
        <ele>7.7</ele>
        <time>2024-11-10T13:03:01Z</time>
      </trkpt>
      <trkpt lat="42.2889" lon="3.28124">
        <ele>7.7</ele>
        <time>2024-11-10T13:03:02Z</time>
      </trkpt>
      <trkpt lat="42.2889" lon="3.28124">
        <ele>7.7</ele>
        <time>2024-11-10T13:03:03Z</time>
      </trkpt>
      <trkpt lat="42.2889" lon="3.28124">
        <ele>7.7</ele>
        <time>2024-11-10T13:03:04Z</time>
      </trkpt>
      <trkpt lat="42.2889" lon="3.28123">
        <ele>7.7</ele>
        <time>2024-11-10T13:03:05Z</time>
      </trkpt>
      <trkpt lat="42.2889" lon="3.28123">
        <ele>7.7</ele>
        <time>2024-11-10T13:03:06Z</time>
      </trkpt>
      <trkpt lat="42.2889" lon="3.28123">
        <ele>7.7</ele>
        <time>2024-11-10T13:03:07Z</time>
      </trkpt>
      <trkpt lat="42.2889" lon="3.28123">
        <ele>7.7</ele>
        <time>2024-11-10T13:03:08Z</time>
      </trkpt>
      <trkpt lat="42.2889" lon="3.28123">
        <ele>7.7</ele>
        <time>2024-11-10T13:03:09Z</time>
      </trkpt>
      <trkpt lat="42.2889" lon="3.28123">
        <ele>7.7</ele>
        <time>2024-11-10T13:03:10Z</time>
      </trkpt>
      <trkpt lat="42.2889" lon="3.28124">
        <ele>7.7</ele>
        <time>2024-11-10T13:03:11Z</time>
      </trkpt>
      <trkpt lat="42.2889" lon="3.28124">
        <ele>7.7</ele>
        <time>2024-11-10T13:03:12Z</time>
      </trkpt>
      <trkpt lat="42.2889" lon="3.28124">
        <ele>7.7</ele>
        <time>2024-11-10T13:03:13Z</time>
      </trkpt>
      <trkpt lat="42.2889" lon="3.28124">
        <ele>7.7</ele>
        <time>2024-11-10T13:03:14Z</time>
      </trkpt>
      <trkpt lat="42.2889" lon="3.28124">
        <ele>7.7</ele>
        <time>2024-11-10T13:03:15Z</time>
      </trkpt>
      <trkpt lat="42.2889" lon="3.28123">
        <ele>7.7</ele>
        <time>2024-11-10T13:03:16Z</time>
      </trkpt>
      <trkpt lat="42.2889" lon="3.28123">
        <ele>7.7</ele>
        <time>2024-11-10T13:03:17Z</time>
      </trkpt>
      <trkpt lat="42.2889" lon="3.28123">
        <ele>7.7</ele>
        <time>2024-11-10T13:03:18Z</time>
      </trkpt>
      <trkpt lat="42.2889" lon="3.28122">
        <ele>7.7</ele>
        <time>2024-11-10T13:03:19Z</time>
      </trkpt>
      <trkpt lat="42.2889" lon="3.28122">
        <ele>7.7</ele>
        <time>2024-11-10T13:03:20Z</time>
      </trkpt>
      <trkpt lat="42.28891" lon="3.28122">
        <ele>7.7</ele>
        <time>2024-11-10T13:03:21Z</time>
      </trkpt>
      <trkpt lat="42.28891" lon="3.28122">
        <ele>7.7</ele>
        <time>2024-11-10T13:03:22Z</time>
      </trkpt>
      <trkpt lat="42.28891" lon="3.28122">
        <ele>7.7</ele>
        <time>2024-11-10T13:03:23Z</time>
      </trkpt>
      <trkpt lat="42.28892" lon="3.28124">
        <ele>7.7</ele>
        <time>2024-11-10T13:03:25Z</time>
      </trkpt>
      <trkpt lat="42.28891" lon="3.28123">
        <ele>7.7</ele>
        <time>2024-11-10T13:03:26Z</time>
      </trkpt>
      <trkpt lat="42.28891" lon="3.28123">
        <ele>7.7</ele>
        <time>2024-11-10T13:03:27Z</time>
      </trkpt>
      <trkpt lat="42.2889" lon="3.28122">
        <ele>7.7</ele>
        <time>2024-11-10T13:03:29Z</time>
      </trkpt>
      <trkpt lat="42.2889" lon="3.28122">
        <ele>7.7</ele>
        <time>2024-11-10T13:03:30Z</time>
      </trkpt>
      <trkpt lat="42.2889" lon="3.28122">
        <ele>7.7</ele>
        <time>2024-11-10T13:03:32Z</time>
      </trkpt>
      <trkpt lat="42.28892" lon="3.28124">
        <ele>7.7</ele>
        <time>2024-11-10T13:03:33Z</time>
      </trkpt>
      <trkpt lat="42.28892" lon="3.28124">
        <ele>7.7</ele>
        <time>2024-11-10T13:03:34Z</time>
      </trkpt>
      <trkpt lat="42.28892" lon="3.28124">
        <ele>7.7</ele>
        <time>2024-11-10T13:03:35Z</time>
      </trkpt>
      <trkpt lat="42.28891" lon="3.28123">
        <ele>7.7</ele>
        <time>2024-11-10T13:03:36Z</time>
      </trkpt>
      <trkpt lat="42.2889" lon="3.28122">
        <ele>7.7</ele>
        <time>2024-11-10T13:03:37Z</time>
      </trkpt>
      <trkpt lat="42.2889" lon="3.28122">
        <ele>7.7</ele>
        <time>2024-11-10T13:03:38Z</time>
      </trkpt>
      <trkpt lat="42.2889" lon="3.28122">
        <ele>7.7</ele>
        <time>2024-11-10T13:03:39Z</time>
      </trkpt>
      <trkpt lat="42.2889" lon="3.28122">
        <ele>7.7</ele>
        <time>2024-11-10T13:03:40Z</time>
      </trkpt>
      <trkpt lat="42.2889" lon="3.28122">
        <ele>7.7</ele>
        <time>2024-11-10T13:03:41Z</time>
      </trkpt>
      <trkpt lat="42.2889" lon="3.28122">
        <ele>7.7</ele>
        <time>2024-11-10T13:03:42Z</time>
      </trkpt>
      <trkpt lat="42.2889" lon="3.28122">
        <ele>7.7</ele>
        <time>2024-11-10T13:03:43Z</time>
      </trkpt>
      <trkpt lat="42.2889" lon="3.28122">
        <ele>7.7</ele>
        <time>2024-11-10T13:03:44Z</time>
      </trkpt>
      <trkpt lat="42.2889" lon="3.28122">
        <ele>7.7</ele>
        <time>2024-11-10T13:03:45Z</time>
      </trkpt>
      <trkpt lat="42.2889" lon="3.28122">
        <ele>7.7</ele>
        <time>2024-11-10T13:03:46Z</time>
      </trkpt>
      <trkpt lat="42.2889" lon="3.28122">
        <ele>7.7</ele>
        <time>2024-11-10T13:03:47Z</time>
      </trkpt>
      <trkpt lat="42.2889" lon="3.28122">
        <ele>7.7</ele>
        <time>2024-11-10T13:03:48Z</time>
      </trkpt>
      <trkpt lat="42.2889" lon="3.28122">
        <ele>7.7</ele>
        <time>2024-11-10T13:03:49Z</time>
      </trkpt>
      <trkpt lat="42.2889" lon="3.28122">
        <ele>7.7</ele>
        <time>2024-11-10T13:03:50Z</time>
      </trkpt>
      <trkpt lat="42.2889" lon="3.28122">
        <ele>7.7</ele>
        <time>2024-11-10T13:03:51Z</time>
      </trkpt>
      <trkpt lat="42.2889" lon="3.28122">
        <ele>7.7</ele>
        <time>2024-11-10T13:03:52Z</time>
      </trkpt>
      <trkpt lat="42.2889" lon="3.28122">
        <ele>7.7</ele>
        <time>2024-11-10T13:03:53Z</time>
      </trkpt>
      <trkpt lat="42.2889" lon="3.28122">
        <ele>7.7</ele>
        <time>2024-11-10T13:03:54Z</time>
      </trkpt>
      <trkpt lat="42.2889" lon="3.28122">
        <ele>7.7</ele>
        <time>2024-11-10T13:03:55Z</time>
      </trkpt>
      <trkpt lat="42.2889" lon="3.28122">
        <ele>7.7</ele>
        <time>2024-11-10T13:03:56Z</time>
      </trkpt>
      <trkpt lat="42.2889" lon="3.28122">
        <ele>7.7</ele>
        <time>2024-11-10T13:03:57Z</time>
      </trkpt>
      <trkpt lat="42.2889" lon="3.28122">
        <ele>7.7</ele>
        <time>2024-11-10T13:03:58Z</time>
      </trkpt>
      <trkpt lat="42.2889" lon="3.28122">
        <ele>7.7</ele>
        <time>2024-11-10T13:03:59Z</time>
      </trkpt>
      <trkpt lat="42.2889" lon="3.28122">
        <ele>7.7</ele>
        <time>2024-11-10T13:04:00Z</time>
      </trkpt>
      <trkpt lat="42.2889" lon="3.28122">
        <ele>7.7</ele>
        <time>2024-11-10T13:04:01Z</time>
      </trkpt>
      <trkpt lat="42.2889" lon="3.28122">
        <ele>7.7</ele>
        <time>2024-11-10T13:04:02Z</time>
      </trkpt>
      <trkpt lat="42.2889" lon="3.28122">
        <ele>7.7</ele>
        <time>2024-11-10T13:04:03Z</time>
      </trkpt>
      <trkpt lat="42.2889" lon="3.28122">
        <ele>7.7</ele>
        <time>2024-11-10T13:04:04Z</time>
      </trkpt>
      <trkpt lat="42.2889" lon="3.28122">
        <ele>7.7</ele>
        <time>2024-11-10T13:04:05Z</time>
      </trkpt>
      <trkpt lat="42.2889" lon="3.28122">
        <ele>7.7</ele>
        <time>2024-11-10T13:04:06Z</time>
      </trkpt>
      <trkpt lat="42.2889" lon="3.28122">
        <ele>7.7</ele>
        <time>2024-11-10T13:04:07Z</time>
      </trkpt>
      <trkpt lat="42.2889" lon="3.28122">
        <ele>7.7</ele>
        <time>2024-11-10T13:04:08Z</time>
      </trkpt>
      <trkpt lat="42.2889" lon="3.28122">
        <ele>7.7</ele>
        <time>2024-11-10T13:04:09Z</time>
      </trkpt>
      <trkpt lat="42.2889" lon="3.28122">
        <ele>7.7</ele>
        <time>2024-11-10T13:04:10Z</time>
      </trkpt>
      <trkpt lat="42.2889" lon="3.28121">
        <ele>7.7</ele>
        <time>2024-11-10T13:04:11Z</time>
      </trkpt>
      <trkpt lat="42.2889" lon="3.28121">
        <ele>7.7</ele>
        <time>2024-11-10T13:04:12Z</time>
      </trkpt>
      <trkpt lat="42.2889" lon="3.28121">
        <ele>7.7</ele>
        <time>2024-11-10T13:04:13Z</time>
      </trkpt>
      <trkpt lat="42.2889" lon="3.28121">
        <ele>7.7</ele>
        <time>2024-11-10T13:04:14Z</time>
      </trkpt>
      <trkpt lat="42.28891" lon="3.28121">
        <ele>7.8</ele>
        <time>2024-11-10T13:04:15Z</time>
      </trkpt>
      <trkpt lat="42.28891" lon="3.28121">
        <ele>7.8</ele>
        <time>2024-11-10T13:04:16Z</time>
      </trkpt>
      <trkpt lat="42.28891" lon="3.28121">
        <ele>7.8</ele>
        <time>2024-11-10T13:04:17Z</time>
      </trkpt>
      <trkpt lat="42.28891" lon="3.28121">
        <ele>7.8</ele>
        <time>2024-11-10T13:04:18Z</time>
      </trkpt>
      <trkpt lat="42.28891" lon="3.28121">
        <ele>7.8</ele>
        <time>2024-11-10T13:04:19Z</time>
      </trkpt>
      <trkpt lat="42.28891" lon="3.28121">
        <ele>7.8</ele>
        <time>2024-11-10T13:04:20Z</time>
      </trkpt>
      <trkpt lat="42.28891" lon="3.28121">
        <ele>7.8</ele>
        <time>2024-11-10T13:04:21Z</time>
      </trkpt>
      <trkpt lat="42.28892" lon="3.28124">
        <ele>7.8</ele>
        <time>2024-11-10T13:04:22Z</time>
      </trkpt>
      <trkpt lat="42.28893" lon="3.28125">
        <ele>7.8</ele>
        <time>2024-11-10T13:04:23Z</time>
      </trkpt>
      <trkpt lat="42.28893" lon="3.28125">
        <ele>7.8</ele>
        <time>2024-11-10T13:04:24Z</time>
      </trkpt>
      <trkpt lat="42.28893" lon="3.28125">
        <ele>7.8</ele>
        <time>2024-11-10T13:04:25Z</time>
      </trkpt>
      <trkpt lat="42.28892" lon="3.28125">
        <ele>7.8</ele>
        <time>2024-11-10T13:04:26Z</time>
      </trkpt>
      <trkpt lat="42.28892" lon="3.28125">
        <ele>7.8</ele>
        <time>2024-11-10T13:04:27Z</time>
      </trkpt>
      <trkpt lat="42.28892" lon="3.28125">
        <ele>7.8</ele>
        <time>2024-11-10T13:04:28Z</time>
      </trkpt>
      <trkpt lat="42.28892" lon="3.28125">
        <ele>7.8</ele>
        <time>2024-11-10T13:04:29Z</time>
      </trkpt>
      <trkpt lat="42.28891" lon="3.28122">
        <ele>7.8</ele>
        <time>2024-11-10T13:04:30Z</time>
      </trkpt>
      <trkpt lat="42.2889" lon="3.28121">
        <ele>7.8</ele>
        <time>2024-11-10T13:04:31Z</time>
      </trkpt>
      <trkpt lat="42.2889" lon="3.28121">
        <ele>7.8</ele>
        <time>2024-11-10T13:04:32Z</time>
      </trkpt>
      <trkpt lat="42.2889" lon="3.28121">
        <ele>7.8</ele>
        <time>2024-11-10T13:04:33Z</time>
      </trkpt>
      <trkpt lat="42.2889" lon="3.28121">
        <ele>7.8</ele>
        <time>2024-11-10T13:04:34Z</time>
      </trkpt>
      <trkpt lat="42.2889" lon="3.28121">
        <ele>7.8</ele>
        <time>2024-11-10T13:04:35Z</time>
      </trkpt>
      <trkpt lat="42.28891" lon="3.28121">
        <ele>7.8</ele>
        <time>2024-11-10T13:04:36Z</time>
      </trkpt>
      <trkpt lat="42.28891" lon="3.28121">
        <ele>7.8</ele>
        <time>2024-11-10T13:04:37Z</time>
      </trkpt>
      <trkpt lat="42.28891" lon="3.28121">
        <ele>7.8</ele>
        <time>2024-11-10T13:04:38Z</time>
      </trkpt>
      <trkpt lat="42.28891" lon="3.28121">
        <ele>7.8</ele>
        <time>2024-11-10T13:04:39Z</time>
      </trkpt>
      <trkpt lat="42.2889" lon="3.28122">
        <ele>7.8</ele>
        <time>2024-11-10T13:04:40Z</time>
      </trkpt>
      <trkpt lat="42.2889" lon="3.28122">
        <ele>7.8</ele>
        <time>2024-11-10T13:04:41Z</time>
      </trkpt>
      <trkpt lat="42.2889" lon="3.28122">
        <ele>7.8</ele>
        <time>2024-11-10T13:04:42Z</time>
      </trkpt>
      <trkpt lat="42.2889" lon="3.28122">
        <ele>7.8</ele>
        <time>2024-11-10T13:04:43Z</time>
      </trkpt>
      <trkpt lat="42.2889" lon="3.28122">
        <ele>7.8</ele>
        <time>2024-11-10T13:04:44Z</time>
      </trkpt>
      <trkpt lat="42.2889" lon="3.28122">
        <ele>7.8</ele>
        <time>2024-11-10T13:04:45Z</time>
      </trkpt>
      <trkpt lat="42.2889" lon="3.28121">
        <ele>7.8</ele>
        <time>2024-11-10T13:04:46Z</time>
      </trkpt>
      <trkpt lat="42.28891" lon="3.28121">
        <ele>7.8</ele>
        <time>2024-11-10T13:04:47Z</time>
      </trkpt>
      <trkpt lat="42.28891" lon="3.28121">
        <ele>7.8</ele>
        <time>2024-11-10T13:04:48Z</time>
      </trkpt>
      <trkpt lat="42.28891" lon="3.28121">
        <ele>7.8</ele>
        <time>2024-11-10T13:04:49Z</time>
      </trkpt>
      <trkpt lat="42.28891" lon="3.28121">
        <ele>7.8</ele>
        <time>2024-11-10T13:04:50Z</time>
      </trkpt>
      <trkpt lat="42.2889" lon="3.28122">
        <ele>7.8</ele>
        <time>2024-11-10T13:04:51Z</time>
      </trkpt>
      <trkpt lat="42.2889" lon="3.28122">
        <ele>7.8</ele>
        <time>2024-11-10T13:04:52Z</time>
      </trkpt>
      <trkpt lat="42.2889" lon="3.28122">
        <ele>7.8</ele>
        <time>2024-11-10T13:04:53Z</time>
      </trkpt>
      <trkpt lat="42.2889" lon="3.28122">
        <ele>7.8</ele>
        <time>2024-11-10T13:04:54Z</time>
      </trkpt>
      <trkpt lat="42.2889" lon="3.28122">
        <ele>7.8</ele>
        <time>2024-11-10T13:04:55Z</time>
      </trkpt>
      <trkpt lat="42.28891" lon="3.28122">
        <ele>7.8</ele>
        <time>2024-11-10T13:04:56Z</time>
      </trkpt>
      <trkpt lat="42.28891" lon="3.28121">
        <ele>7.8</ele>
        <time>2024-11-10T13:04:57Z</time>
      </trkpt>
      <trkpt lat="42.28891" lon="3.28121">
        <ele>7.8</ele>
        <time>2024-11-10T13:04:58Z</time>
      </trkpt>
      <trkpt lat="42.28891" lon="3.28122">
        <ele>7.8</ele>
        <time>2024-11-10T13:04:59Z</time>
      </trkpt>
      <trkpt lat="42.28891" lon="3.28122">
        <ele>7.8</ele>
        <time>2024-11-10T13:05:00Z</time>
      </trkpt>
      <trkpt lat="42.28891" lon="3.28122">
        <ele>7.8</ele>
        <time>2024-11-10T13:05:01Z</time>
      </trkpt>
      <trkpt lat="42.28891" lon="3.28121">
        <ele>7.8</ele>
        <time>2024-11-10T13:05:02Z</time>
      </trkpt>
      <trkpt lat="42.28891" lon="3.28121">
        <ele>7.8</ele>
        <time>2024-11-10T13:05:03Z</time>
      </trkpt>
      <trkpt lat="42.28891" lon="3.28121">
        <ele>7.8</ele>
        <time>2024-11-10T13:05:04Z</time>
      </trkpt>
      <trkpt lat="42.28891" lon="3.28121">
        <ele>7.8</ele>
        <time>2024-11-10T13:05:05Z</time>
      </trkpt>
      <trkpt lat="42.28891" lon="3.28121">
        <ele>7.8</ele>
        <time>2024-11-10T13:05:06Z</time>
      </trkpt>
      <trkpt lat="42.28891" lon="3.28121">
        <ele>7.8</ele>
        <time>2024-11-10T13:05:07Z</time>
      </trkpt>
      <trkpt lat="42.28891" lon="3.28121">
        <ele>7.8</ele>
        <time>2024-11-10T13:05:08Z</time>
      </trkpt>
      <trkpt lat="42.28891" lon="3.28121">
        <ele>7.8</ele>
        <time>2024-11-10T13:05:09Z</time>
      </trkpt>
      <trkpt lat="42.28891" lon="3.28121">
        <ele>7.8</ele>
        <time>2024-11-10T13:05:10Z</time>
      </trkpt>
      <trkpt lat="42.28891" lon="3.28121">
        <ele>7.7</ele>
        <time>2024-11-10T13:05:11Z</time>
      </trkpt>
      <trkpt lat="42.28891" lon="3.28121">
        <ele>7.7</ele>
        <time>2024-11-10T13:05:12Z</time>
      </trkpt>
      <trkpt lat="42.28891" lon="3.28121">
        <ele>7.7</ele>
        <time>2024-11-10T13:05:13Z</time>
      </trkpt>
      <trkpt lat="42.28891" lon="3.28121">
        <ele>7.7</ele>
        <time>2024-11-10T13:05:14Z</time>
      </trkpt>
      <trkpt lat="42.28891" lon="3.28121">
        <ele>7.7</ele>
        <time>2024-11-10T13:05:15Z</time>
      </trkpt>
      <trkpt lat="42.28891" lon="3.28122">
        <ele>7.7</ele>
        <time>2024-11-10T13:05:16Z</time>
      </trkpt>
      <trkpt lat="42.2889" lon="3.28122">
        <ele>7.7</ele>
        <time>2024-11-10T13:05:17Z</time>
      </trkpt>
      <trkpt lat="42.2889" lon="3.28122">
        <ele>7.7</ele>
        <time>2024-11-10T13:05:18Z</time>
      </trkpt>
      <trkpt lat="42.2889" lon="3.28122">
        <ele>7.7</ele>
        <time>2024-11-10T13:05:19Z</time>
      </trkpt>
      <trkpt lat="42.2889" lon="3.28122">
        <ele>7.7</ele>
        <time>2024-11-10T13:05:20Z</time>
      </trkpt>
      <trkpt lat="42.28891" lon="3.28122">
        <ele>7.7</ele>
        <time>2024-11-10T13:05:21Z</time>
      </trkpt>
      <trkpt lat="42.28891" lon="3.28122">
        <ele>7.7</ele>
        <time>2024-11-10T13:05:22Z</time>
      </trkpt>
      <trkpt lat="42.28891" lon="3.28122">
        <ele>7.7</ele>
        <time>2024-11-10T13:05:23Z</time>
      </trkpt>
      <trkpt lat="42.28891" lon="3.28122">
        <ele>7.7</ele>
        <time>2024-11-10T13:05:24Z</time>
      </trkpt>
      <trkpt lat="42.28891" lon="3.28122">
        <ele>7.7</ele>
        <time>2024-11-10T13:05:25Z</time>
      </trkpt>
      <trkpt lat="42.2889" lon="3.28121">
        <ele>7.7</ele>
        <time>2024-11-10T13:05:26Z</time>
      </trkpt>
      <trkpt lat="42.2889" lon="3.28121">
        <ele>7.7</ele>
        <time>2024-11-10T13:05:27Z</time>
      </trkpt>
      <trkpt lat="42.2889" lon="3.28121">
        <ele>7.7</ele>
        <time>2024-11-10T13:05:28Z</time>
      </trkpt>
      <trkpt lat="42.2889" lon="3.28121">
        <ele>7.7</ele>
        <time>2024-11-10T13:05:29Z</time>
      </trkpt>
      <trkpt lat="42.2889" lon="3.28121">
        <ele>7.7</ele>
        <time>2024-11-10T13:05:30Z</time>
      </trkpt>
      <trkpt lat="42.28891" lon="3.28122">
        <ele>7.7</ele>
        <time>2024-11-10T13:05:31Z</time>
      </trkpt>
      <trkpt lat="42.28891" lon="3.28122">
        <ele>7.7</ele>
        <time>2024-11-10T13:05:32Z</time>
      </trkpt>
      <trkpt lat="42.28891" lon="3.28122">
        <ele>7.7</ele>
        <time>2024-11-10T13:05:33Z</time>
      </trkpt>
      <trkpt lat="42.28891" lon="3.28122">
        <ele>7.7</ele>
        <time>2024-11-10T13:05:34Z</time>
      </trkpt>
      <trkpt lat="42.28891" lon="3.28122">
        <ele>7.7</ele>
        <time>2024-11-10T13:05:35Z</time>
      </trkpt>
      <trkpt lat="42.2889" lon="3.28122">
        <ele>7.6</ele>
        <time>2024-11-10T13:05:36Z</time>
      </trkpt>
      <trkpt lat="42.2889" lon="3.28122">
        <ele>7.6</ele>
        <time>2024-11-10T13:05:37Z</time>
      </trkpt>
      <trkpt lat="42.2889" lon="3.28122">
        <ele>7.6</ele>
        <time>2024-11-10T13:05:38Z</time>
      </trkpt>
      <trkpt lat="42.2889" lon="3.28122">
        <ele>7.6</ele>
        <time>2024-11-10T13:05:39Z</time>
      </trkpt>
      <trkpt lat="42.2889" lon="3.28122">
        <ele>7.6</ele>
        <time>2024-11-10T13:05:40Z</time>
      </trkpt>
      <trkpt lat="42.2889" lon="3.28122">
        <ele>7.6</ele>
        <time>2024-11-10T13:05:41Z</time>
      </trkpt>
      <trkpt lat="42.2889" lon="3.28122">
        <ele>7.6</ele>
        <time>2024-11-10T13:05:42Z</time>
      </trkpt>
      <trkpt lat="42.2889" lon="3.28122">
        <ele>7.6</ele>
        <time>2024-11-10T13:05:43Z</time>
      </trkpt>
      <trkpt lat="42.2889" lon="3.28122">
        <ele>7.6</ele>
        <time>2024-11-10T13:05:44Z</time>
      </trkpt>
      <trkpt lat="42.2889" lon="3.28122">
        <ele>7.6</ele>
        <time>2024-11-10T13:05:45Z</time>
      </trkpt>
      <trkpt lat="42.2889" lon="3.28121">
        <ele>7.6</ele>
        <time>2024-11-10T13:05:46Z</time>
      </trkpt>
      <trkpt lat="42.2889" lon="3.28121">
        <ele>7.6</ele>
        <time>2024-11-10T13:05:47Z</time>
      </trkpt>
      <trkpt lat="42.2889" lon="3.28121">
        <ele>7.6</ele>
        <time>2024-11-10T13:05:48Z</time>
      </trkpt>
      <trkpt lat="42.2889" lon="3.28121">
        <ele>7.6</ele>
        <time>2024-11-10T13:05:49Z</time>
      </trkpt>
      <trkpt lat="42.2889" lon="3.28121">
        <ele>7.6</ele>
        <time>2024-11-10T13:05:50Z</time>
      </trkpt>
      <trkpt lat="42.2889" lon="3.28122">
        <ele>7.6</ele>
        <time>2024-11-10T13:05:51Z</time>
      </trkpt>
      <trkpt lat="42.28891" lon="3.28122">
        <ele>7.6</ele>
        <time>2024-11-10T13:05:52Z</time>
      </trkpt>
      <trkpt lat="42.28891" lon="3.28122">
        <ele>7.6</ele>
        <time>2024-11-10T13:05:53Z</time>
      </trkpt>
      <trkpt lat="42.28891" lon="3.28122">
        <ele>7.6</ele>
        <time>2024-11-10T13:05:54Z</time>
      </trkpt>
      <trkpt lat="42.28891" lon="3.28122">
        <ele>7.6</ele>
        <time>2024-11-10T13:05:55Z</time>
      </trkpt>
      <trkpt lat="42.28892" lon="3.28124">
        <ele>7.6</ele>
        <time>2024-11-10T13:05:56Z</time>
      </trkpt>
      <trkpt lat="42.28892" lon="3.28125">
        <ele>7.6</ele>
        <time>2024-11-10T13:05:57Z</time>
      </trkpt>
      <trkpt lat="42.28892" lon="3.28125">
        <ele>7.6</ele>
        <time>2024-11-10T13:05:58Z</time>
      </trkpt>
      <trkpt lat="42.28892" lon="3.28125">
        <ele>7.6</ele>
        <time>2024-11-10T13:05:59Z</time>
      </trkpt>
      <trkpt lat="42.28892" lon="3.28125">
        <ele>7.6</ele>
        <time>2024-11-10T13:06:00Z</time>
      </trkpt>
      <trkpt lat="42.28891" lon="3.28122">
        <ele>7.5</ele>
        <time>2024-11-10T13:06:01Z</time>
      </trkpt>
      <trkpt lat="42.2889" lon="3.28121">
        <ele>7.5</ele>
        <time>2024-11-10T13:06:02Z</time>
      </trkpt>
      <trkpt lat="42.2889" lon="3.28121">
        <ele>7.5</ele>
        <time>2024-11-10T13:06:03Z</time>
      </trkpt>
      <trkpt lat="42.2889" lon="3.28121">
        <ele>7.5</ele>
        <time>2024-11-10T13:06:04Z</time>
      </trkpt>
      <trkpt lat="42.2889" lon="3.28121">
        <ele>7.5</ele>
        <time>2024-11-10T13:06:05Z</time>
      </trkpt>
      <trkpt lat="42.2889" lon="3.28122">
        <ele>7.5</ele>
        <time>2024-11-10T13:06:06Z</time>
      </trkpt>
      <trkpt lat="42.2889" lon="3.28122">
        <ele>7.5</ele>
        <time>2024-11-10T13:06:07Z</time>
      </trkpt>
      <trkpt lat="42.28891" lon="3.28122">
        <ele>7.5</ele>
        <time>2024-11-10T13:06:08Z</time>
      </trkpt>
      <trkpt lat="42.28891" lon="3.28122">
        <ele>7.5</ele>
        <time>2024-11-10T13:06:09Z</time>
      </trkpt>
      <trkpt lat="42.28891" lon="3.28122">
        <ele>7.5</ele>
        <time>2024-11-10T13:06:10Z</time>
      </trkpt>
      <trkpt lat="42.28891" lon="3.28122">
        <ele>7.5</ele>
        <time>2024-11-10T13:06:11Z</time>
      </trkpt>
      <trkpt lat="42.28891" lon="3.28122">
        <ele>7.5</ele>
        <time>2024-11-10T13:06:12Z</time>
      </trkpt>
      <trkpt lat="42.28891" lon="3.28122">
        <ele>7.5</ele>
        <time>2024-11-10T13:06:13Z</time>
      </trkpt>
      <trkpt lat="42.28891" lon="3.28122">
        <ele>7.5</ele>
        <time>2024-11-10T13:06:14Z</time>
      </trkpt>
      <trkpt lat="42.28891" lon="3.28122">
        <ele>7.5</ele>
        <time>2024-11-10T13:06:15Z</time>
      </trkpt>
      <trkpt lat="42.28892" lon="3.28124">
        <ele>7.5</ele>
        <time>2024-11-10T13:06:16Z</time>
      </trkpt>
      <trkpt lat="42.28892" lon="3.28125">
        <ele>7.5</ele>
        <time>2024-11-10T13:06:17Z</time>
      </trkpt>
      <trkpt lat="42.28892" lon="3.28125">
        <ele>7.5</ele>
        <time>2024-11-10T13:06:18Z</time>
      </trkpt>
      <trkpt lat="42.28892" lon="3.28125">
        <ele>7.5</ele>
        <time>2024-11-10T13:06:19Z</time>
      </trkpt>
      <trkpt lat="42.28892" lon="3.28125">
        <ele>7.5</ele>
        <time>2024-11-10T13:06:20Z</time>
      </trkpt>
      <trkpt lat="42.28891" lon="3.28122">
        <ele>7.5</ele>
        <time>2024-11-10T13:06:21Z</time>
      </trkpt>
      <trkpt lat="42.2889" lon="3.28121">
        <ele>7.5</ele>
        <time>2024-11-10T13:06:22Z</time>
      </trkpt>
      <trkpt lat="42.2889" lon="3.28121">
        <ele>7.5</ele>
        <time>2024-11-10T13:06:23Z</time>
      </trkpt>
      <trkpt lat="42.2889" lon="3.28121">
        <ele>7.5</ele>
        <time>2024-11-10T13:06:24Z</time>
      </trkpt>
      <trkpt lat="42.2889" lon="3.28121">
        <ele>7.5</ele>
        <time>2024-11-10T13:06:25Z</time>
      </trkpt>
      <trkpt lat="42.28891" lon="3.28122">
        <ele>7.4</ele>
        <time>2024-11-10T13:06:26Z</time>
      </trkpt>
      <trkpt lat="42.28891" lon="3.28122">
        <ele>7.4</ele>
        <time>2024-11-10T13:06:27Z</time>
      </trkpt>
      <trkpt lat="42.28891" lon="3.28122">
        <ele>7.4</ele>
        <time>2024-11-10T13:06:28Z</time>
      </trkpt>
      <trkpt lat="42.28891" lon="3.28122">
        <ele>7.4</ele>
        <time>2024-11-10T13:06:29Z</time>
      </trkpt>
      <trkpt lat="42.28891" lon="3.28122">
        <ele>7.4</ele>
        <time>2024-11-10T13:06:30Z</time>
      </trkpt>
      <trkpt lat="42.28891" lon="3.28121">
        <ele>7.4</ele>
        <time>2024-11-10T13:06:31Z</time>
      </trkpt>
      <trkpt lat="42.28891" lon="3.28121">
        <ele>7.4</ele>
        <time>2024-11-10T13:06:32Z</time>
      </trkpt>
      <trkpt lat="42.28891" lon="3.28121">
        <ele>7.4</ele>
        <time>2024-11-10T13:06:33Z</time>
      </trkpt>
      <trkpt lat="42.28891" lon="3.28121">
        <ele>7.4</ele>
        <time>2024-11-10T13:06:34Z</time>
      </trkpt>
      <trkpt lat="42.28891" lon="3.28121">
        <ele>7.4</ele>
        <time>2024-11-10T13:06:35Z</time>
      </trkpt>
      <trkpt lat="42.2889" lon="3.28121">
        <ele>7.4</ele>
        <time>2024-11-10T13:06:36Z</time>
      </trkpt>
      <trkpt lat="42.2889" lon="3.28121">
        <ele>7.4</ele>
        <time>2024-11-10T13:06:37Z</time>
      </trkpt>
      <trkpt lat="42.2889" lon="3.28121">
        <ele>7.4</ele>
        <time>2024-11-10T13:06:38Z</time>
      </trkpt>
      <trkpt lat="42.2889" lon="3.28121">
        <ele>7.4</ele>
        <time>2024-11-10T13:06:39Z</time>
      </trkpt>
      <trkpt lat="42.2889" lon="3.28121">
        <ele>7.4</ele>
        <time>2024-11-10T13:06:40Z</time>
      </trkpt>
      <trkpt lat="42.28891" lon="3.28121">
        <ele>7.4</ele>
        <time>2024-11-10T13:06:41Z</time>
      </trkpt>
      <trkpt lat="42.28891" lon="3.28121">
        <ele>7.4</ele>
        <time>2024-11-10T13:06:42Z</time>
      </trkpt>
      <trkpt lat="42.28891" lon="3.28121">
        <ele>7.4</ele>
        <time>2024-11-10T13:06:43Z</time>
      </trkpt>
      <trkpt lat="42.28891" lon="3.28121">
        <ele>7.4</ele>
        <time>2024-11-10T13:06:44Z</time>
      </trkpt>
      <trkpt lat="42.28891" lon="3.28121">
        <ele>7.4</ele>
        <time>2024-11-10T13:06:45Z</time>
      </trkpt>
      <trkpt lat="42.28891" lon="3.28121">
        <ele>7.4</ele>
        <time>2024-11-10T13:06:46Z</time>
      </trkpt>
      <trkpt lat="42.28891" lon="3.28121">
        <ele>7.4</ele>
        <time>2024-11-10T13:06:47Z</time>
      </trkpt>
      <trkpt lat="42.28891" lon="3.28121">
        <ele>7.4</ele>
        <time>2024-11-10T13:06:48Z</time>
      </trkpt>
      <trkpt lat="42.28891" lon="3.28121">
        <ele>7.4</ele>
        <time>2024-11-10T13:06:49Z</time>
      </trkpt>
      <trkpt lat="42.28891" lon="3.28121">
        <ele>7.4</ele>
        <time>2024-11-10T13:06:50Z</time>
      </trkpt>
      <trkpt lat="42.28892" lon="3.28124">
        <ele>7.4</ele>
        <time>2024-11-10T13:06:51Z</time>
      </trkpt>
      <trkpt lat="42.28892" lon="3.28125">
        <ele>7.4</ele>
        <time>2024-11-10T13:06:52Z</time>
      </trkpt>
      <trkpt lat="42.28892" lon="3.28125">
        <ele>7.4</ele>
        <time>2024-11-10T13:06:53Z</time>
      </trkpt>
      <trkpt lat="42.28892" lon="3.28125">
        <ele>7.4</ele>
        <time>2024-11-10T13:06:54Z</time>
      </trkpt>
      <trkpt lat="42.28892" lon="3.28125">
        <ele>7.4</ele>
        <time>2024-11-10T13:06:55Z</time>
      </trkpt>
      <trkpt lat="42.28891" lon="3.28122">
        <ele>7.4</ele>
        <time>2024-11-10T13:06:56Z</time>
      </trkpt>
      <trkpt lat="42.2889" lon="3.28121">
        <ele>7.3</ele>
        <time>2024-11-10T13:06:57Z</time>
      </trkpt>
      <trkpt lat="42.2889" lon="3.28121">
        <ele>7.3</ele>
        <time>2024-11-10T13:06:58Z</time>
      </trkpt>
      <trkpt lat="42.2889" lon="3.28121">
        <ele>7.3</ele>
        <time>2024-11-10T13:06:59Z</time>
      </trkpt>
      <trkpt lat="42.2889" lon="3.28121">
        <ele>7.3</ele>
        <time>2024-11-10T13:07:00Z</time>
      </trkpt>
      <trkpt lat="42.28891" lon="3.28122">
        <ele>7.3</ele>
        <time>2024-11-10T13:07:01Z</time>
      </trkpt>
      <trkpt lat="42.28891" lon="3.28122">
        <ele>7.3</ele>
        <time>2024-11-10T13:07:02Z</time>
      </trkpt>
      <trkpt lat="42.28891" lon="3.28122">
        <ele>7.3</ele>
        <time>2024-11-10T13:07:03Z</time>
      </trkpt>
      <trkpt lat="42.2889" lon="3.28122">
        <ele>7.3</ele>
        <time>2024-11-10T13:07:04Z</time>
      </trkpt>
      <trkpt lat="42.28891" lon="3.28122">
        <ele>7.3</ele>
        <time>2024-11-10T13:07:05Z</time>
      </trkpt>
      <trkpt lat="42.2889" lon="3.28122">
        <ele>7.3</ele>
        <time>2024-11-10T13:07:06Z</time>
      </trkpt>
      <trkpt lat="42.28891" lon="3.28121">
        <ele>7.3</ele>
        <time>2024-11-10T13:07:07Z</time>
      </trkpt>
      <trkpt lat="42.28891" lon="3.2812">
        <ele>7.3</ele>
        <time>2024-11-10T13:07:08Z</time>
      </trkpt>
      <trkpt lat="42.28891" lon="3.2812">
        <ele>7.3</ele>
        <time>2024-11-10T13:07:09Z</time>
      </trkpt>
      <trkpt lat="42.28891" lon="3.2812">
        <ele>7.3</ele>
        <time>2024-11-10T13:07:10Z</time>
      </trkpt>
      <trkpt lat="42.28891" lon="3.28121">
        <ele>7.3</ele>
        <time>2024-11-10T13:07:11Z</time>
      </trkpt>
      <trkpt lat="42.28891" lon="3.28122">
        <ele>7.3</ele>
        <time>2024-11-10T13:07:12Z</time>
      </trkpt>
      <trkpt lat="42.28891" lon="3.28122">
        <ele>7.3</ele>
        <time>2024-11-10T13:07:13Z</time>
      </trkpt>
      <trkpt lat="42.28891" lon="3.28122">
        <ele>7.3</ele>
        <time>2024-11-10T13:07:14Z</time>
      </trkpt>
      <trkpt lat="42.28891" lon="3.28122">
        <ele>7.3</ele>
        <time>2024-11-10T13:07:15Z</time>
      </trkpt>
      <trkpt lat="42.28891" lon="3.28122">
        <ele>7.3</ele>
        <time>2024-11-10T13:07:16Z</time>
      </trkpt>
      <trkpt lat="42.28891" lon="3.28122">
        <ele>7.3</ele>
        <time>2024-11-10T13:07:17Z</time>
      </trkpt>
      <trkpt lat="42.28891" lon="3.28122">
        <ele>7.3</ele>
        <time>2024-11-10T13:07:18Z</time>
      </trkpt>
      <trkpt lat="42.28891" lon="3.28122">
        <ele>7.3</ele>
        <time>2024-11-10T13:07:19Z</time>
      </trkpt>
      <trkpt lat="42.28891" lon="3.28122">
        <ele>7.3</ele>
        <time>2024-11-10T13:07:20Z</time>
      </trkpt>
      <trkpt lat="42.28891" lon="3.28122">
        <ele>7.3</ele>
        <time>2024-11-10T13:07:21Z</time>
      </trkpt>
      <trkpt lat="42.28891" lon="3.28122">
        <ele>7.3</ele>
        <time>2024-11-10T13:07:22Z</time>
      </trkpt>
      <trkpt lat="42.28891" lon="3.28122">
        <ele>7.3</ele>
        <time>2024-11-10T13:07:23Z</time>
      </trkpt>
      <trkpt lat="42.28891" lon="3.28122">
        <ele>7.3</ele>
        <time>2024-11-10T13:07:24Z</time>
      </trkpt>
      <trkpt lat="42.28891" lon="3.28122">
        <ele>7.3</ele>
        <time>2024-11-10T13:07:25Z</time>
      </trkpt>
      <trkpt lat="42.28891" lon="3.28122">
        <ele>7.3</ele>
        <time>2024-11-10T13:07:26Z</time>
      </trkpt>
      <trkpt lat="42.28891" lon="3.28122">
        <ele>7.3</ele>
        <time>2024-11-10T13:07:27Z</time>
      </trkpt>
      <trkpt lat="42.28891" lon="3.28122">
        <ele>7.3</ele>
        <time>2024-11-10T13:07:28Z</time>
      </trkpt>
      <trkpt lat="42.28891" lon="3.28122">
        <ele>7.3</ele>
        <time>2024-11-10T13:07:29Z</time>
      </trkpt>
      <trkpt lat="42.28891" lon="3.28122">
        <ele>7.3</ele>
        <time>2024-11-10T13:07:30Z</time>
      </trkpt>
      <trkpt lat="42.28891" lon="3.28122">
        <ele>7.3</ele>
        <time>2024-11-10T13:07:31Z</time>
      </trkpt>
      <trkpt lat="42.28891" lon="3.28122">
        <ele>7.3</ele>
        <time>2024-11-10T13:07:32Z</time>
      </trkpt>
      <trkpt lat="42.28891" lon="3.28122">
        <ele>7.3</ele>
        <time>2024-11-10T13:07:33Z</time>
      </trkpt>
      <trkpt lat="42.28891" lon="3.28122">
        <ele>7.3</ele>
        <time>2024-11-10T13:07:34Z</time>
      </trkpt>
      <trkpt lat="42.28891" lon="3.28122">
        <ele>7.3</ele>
        <time>2024-11-10T13:07:35Z</time>
      </trkpt>
      <trkpt lat="42.28891" lon="3.28122">
        <ele>7.3</ele>
        <time>2024-11-10T13:07:36Z</time>
      </trkpt>
      <trkpt lat="42.28891" lon="3.28122">
        <ele>7.3</ele>
        <time>2024-11-10T13:07:37Z</time>
      </trkpt>
      <trkpt lat="42.28891" lon="3.28122">
        <ele>7.3</ele>
        <time>2024-11-10T13:07:38Z</time>
      </trkpt>
      <trkpt lat="42.28891" lon="3.28122">
        <ele>7.3</ele>
        <time>2024-11-10T13:07:39Z</time>
      </trkpt>
      <trkpt lat="42.28891" lon="3.28122">
        <ele>7.3</ele>
        <time>2024-11-10T13:07:40Z</time>
      </trkpt>
      <trkpt lat="42.28891" lon="3.28121">
        <ele>7.3</ele>
        <time>2024-11-10T13:07:41Z</time>
      </trkpt>
      <trkpt lat="42.28891" lon="3.28121">
        <ele>7.3</ele>
        <time>2024-11-10T13:07:42Z</time>
      </trkpt>
      <trkpt lat="42.28891" lon="3.28121">
        <ele>7.3</ele>
        <time>2024-11-10T13:07:43Z</time>
      </trkpt>
      <trkpt lat="42.28891" lon="3.28121">
        <ele>7.3</ele>
        <time>2024-11-10T13:07:44Z</time>
      </trkpt>
      <trkpt lat="42.28891" lon="3.28121">
        <ele>7.3</ele>
        <time>2024-11-10T13:07:45Z</time>
      </trkpt>
      <trkpt lat="42.28891" lon="3.28122">
        <ele>7.3</ele>
        <time>2024-11-10T13:07:46Z</time>
      </trkpt>
      <trkpt lat="42.28891" lon="3.28122">
        <ele>7.3</ele>
        <time>2024-11-10T13:07:47Z</time>
      </trkpt>
      <trkpt lat="42.28891" lon="3.28122">
        <ele>7.3</ele>
        <time>2024-11-10T13:07:48Z</time>
      </trkpt>
      <trkpt lat="42.28891" lon="3.28122">
        <ele>7.3</ele>
        <time>2024-11-10T13:07:49Z</time>
      </trkpt>
      <trkpt lat="42.28891" lon="3.28122">
        <ele>7.3</ele>
        <time>2024-11-10T13:07:50Z</time>
      </trkpt>
      <trkpt lat="42.28891" lon="3.28121">
        <ele>7.3</ele>
        <time>2024-11-10T13:07:51Z</time>
      </trkpt>
      <trkpt lat="42.2889" lon="3.28121">
        <ele>7.3</ele>
        <time>2024-11-10T13:07:52Z</time>
      </trkpt>
      <trkpt lat="42.2889" lon="3.28121">
        <ele>7.3</ele>
        <time>2024-11-10T13:07:53Z</time>
      </trkpt>
      <trkpt lat="42.2889" lon="3.28121">
        <ele>7.3</ele>
        <time>2024-11-10T13:07:54Z</time>
      </trkpt>
      <trkpt lat="42.2889" lon="3.28121">
        <ele>7.3</ele>
        <time>2024-11-10T13:07:55Z</time>
      </trkpt>
      <trkpt lat="42.2889" lon="3.28121">
        <ele>7.3</ele>
        <time>2024-11-10T13:07:56Z</time>
      </trkpt>
      <trkpt lat="42.28891" lon="3.28121">
        <ele>7.3</ele>
        <time>2024-11-10T13:07:57Z</time>
      </trkpt>
      <trkpt lat="42.28891" lon="3.28121">
        <ele>7.3</ele>
        <time>2024-11-10T13:07:58Z</time>
      </trkpt>
      <trkpt lat="42.28891" lon="3.28121">
        <ele>7.3</ele>
        <time>2024-11-10T13:07:59Z</time>
      </trkpt>
      <trkpt lat="42.28891" lon="3.28121">
        <ele>7.3</ele>
        <time>2024-11-10T13:08:00Z</time>
      </trkpt>
      <trkpt lat="42.28891" lon="3.28122">
        <ele>7.3</ele>
        <time>2024-11-10T13:08:01Z</time>
      </trkpt>
      <trkpt lat="42.28891" lon="3.28123">
        <ele>7.3</ele>
        <time>2024-11-10T13:08:02Z</time>
      </trkpt>
      <trkpt lat="42.28891" lon="3.28123">
        <ele>7.3</ele>
        <time>2024-11-10T13:08:03Z</time>
      </trkpt>
      <trkpt lat="42.28891" lon="3.28123">
        <ele>7.3</ele>
        <time>2024-11-10T13:08:04Z</time>
      </trkpt>
      <trkpt lat="42.28891" lon="3.28123">
        <ele>7.3</ele>
        <time>2024-11-10T13:08:05Z</time>
      </trkpt>
      <trkpt lat="42.28891" lon="3.28121">
        <ele>7.3</ele>
        <time>2024-11-10T13:08:06Z</time>
      </trkpt>
      <trkpt lat="42.2889" lon="3.2812">
        <ele>7.3</ele>
        <time>2024-11-10T13:08:07Z</time>
      </trkpt>
      <trkpt lat="42.2889" lon="3.2812">
        <ele>7.3</ele>
        <time>2024-11-10T13:08:08Z</time>
      </trkpt>
      <trkpt lat="42.2889" lon="3.2812">
        <ele>7.3</ele>
        <time>2024-11-10T13:08:09Z</time>
      </trkpt>
      <trkpt lat="42.2889" lon="3.28121">
        <ele>7.3</ele>
        <time>2024-11-10T13:08:10Z</time>
      </trkpt>
      <trkpt lat="42.28891" lon="3.28122">
        <ele>7.3</ele>
        <time>2024-11-10T13:08:11Z</time>
      </trkpt>
      <trkpt lat="42.28891" lon="3.28122">
        <ele>7.3</ele>
        <time>2024-11-10T13:08:12Z</time>
      </trkpt>
      <trkpt lat="42.28891" lon="3.28122">
        <ele>7.3</ele>
        <time>2024-11-10T13:08:13Z</time>
      </trkpt>
      <trkpt lat="42.28891" lon="3.28122">
        <ele>7.3</ele>
        <time>2024-11-10T13:08:14Z</time>
      </trkpt>
      <trkpt lat="42.28891" lon="3.28122">
        <ele>7.3</ele>
        <time>2024-11-10T13:08:15Z</time>
      </trkpt>
      <trkpt lat="42.28892" lon="3.28125">
        <ele>7.3</ele>
        <time>2024-11-10T13:08:16Z</time>
      </trkpt>
      <trkpt lat="42.28892" lon="3.28125">
        <ele>7.3</ele>
        <time>2024-11-10T13:08:17Z</time>
      </trkpt>
      <trkpt lat="42.28892" lon="3.28125">
        <ele>7.3</ele>
        <time>2024-11-10T13:08:18Z</time>
      </trkpt>
      <trkpt lat="42.28892" lon="3.28125">
        <ele>7.3</ele>
        <time>2024-11-10T13:08:19Z</time>
      </trkpt>
      <trkpt lat="42.28892" lon="3.28125">
        <ele>7.3</ele>
        <time>2024-11-10T13:08:20Z</time>
      </trkpt>
      <trkpt lat="42.28892" lon="3.28125">
        <ele>7.3</ele>
        <time>2024-11-10T13:08:21Z</time>
      </trkpt>
      <trkpt lat="42.28892" lon="3.28125">
        <ele>7.3</ele>
        <time>2024-11-10T13:08:22Z</time>
      </trkpt>
      <trkpt lat="42.28892" lon="3.28125">
        <ele>7.3</ele>
        <time>2024-11-10T13:08:23Z</time>
      </trkpt>
      <trkpt lat="42.28892" lon="3.28125">
        <ele>7.3</ele>
        <time>2024-11-10T13:08:24Z</time>
      </trkpt>
      <trkpt lat="42.28892" lon="3.28125">
        <ele>7.3</ele>
        <time>2024-11-10T13:08:25Z</time>
      </trkpt>
      <trkpt lat="42.28892" lon="3.28125">
        <ele>7.3</ele>
        <time>2024-11-10T13:08:26Z</time>
      </trkpt>
      <trkpt lat="42.28891" lon="3.28122">
        <ele>7.3</ele>
        <time>2024-11-10T13:08:27Z</time>
      </trkpt>
      <trkpt lat="42.28891" lon="3.2812">
        <ele>7.3</ele>
        <time>2024-11-10T13:08:28Z</time>
      </trkpt>
      <trkpt lat="42.2889" lon="3.2812">
        <ele>7.3</ele>
        <time>2024-11-10T13:08:29Z</time>
      </trkpt>
      <trkpt lat="42.28891" lon="3.2812">
        <ele>7.3</ele>
        <time>2024-11-10T13:08:30Z</time>
      </trkpt>
      <trkpt lat="42.28891" lon="3.28121">
        <ele>7.3</ele>
        <time>2024-11-10T13:08:31Z</time>
      </trkpt>
      <trkpt lat="42.2889" lon="3.28121">
        <ele>7.3</ele>
        <time>2024-11-10T13:08:32Z</time>
      </trkpt>
      <trkpt lat="42.2889" lon="3.28121">
        <ele>7.3</ele>
        <time>2024-11-10T13:08:33Z</time>
      </trkpt>
      <trkpt lat="42.2889" lon="3.28121">
        <ele>7.3</ele>
        <time>2024-11-10T13:08:34Z</time>
      </trkpt>
      <trkpt lat="42.2889" lon="3.28121">
        <ele>7.3</ele>
        <time>2024-11-10T13:08:35Z</time>
      </trkpt>
      <trkpt lat="42.2889" lon="3.28121">
        <ele>7.3</ele>
        <time>2024-11-10T13:08:36Z</time>
      </trkpt>
      <trkpt lat="42.28891" lon="3.28121">
        <ele>7.3</ele>
        <time>2024-11-10T13:08:37Z</time>
      </trkpt>
      <trkpt lat="42.28891" lon="3.28121">
        <ele>7.3</ele>
        <time>2024-11-10T13:08:38Z</time>
      </trkpt>
      <trkpt lat="42.28891" lon="3.28121">
        <ele>7.3</ele>
        <time>2024-11-10T13:08:39Z</time>
      </trkpt>
      <trkpt lat="42.28891" lon="3.28121">
        <ele>7.3</ele>
        <time>2024-11-10T13:08:40Z</time>
      </trkpt>
      <trkpt lat="42.2889" lon="3.28121">
        <ele>7.3</ele>
        <time>2024-11-10T13:08:41Z</time>
      </trkpt>
      <trkpt lat="42.2889" lon="3.28121">
        <ele>7.3</ele>
        <time>2024-11-10T13:08:42Z</time>
      </trkpt>
      <trkpt lat="42.2889" lon="3.28121">
        <ele>7.3</ele>
        <time>2024-11-10T13:08:43Z</time>
      </trkpt>
      <trkpt lat="42.2889" lon="3.28121">
        <ele>7.3</ele>
        <time>2024-11-10T13:08:44Z</time>
      </trkpt>
      <trkpt lat="42.2889" lon="3.28121">
        <ele>7.3</ele>
        <time>2024-11-10T13:08:45Z</time>
      </trkpt>
      <trkpt lat="42.2889" lon="3.28121">
        <ele>7.3</ele>
        <time>2024-11-10T13:08:46Z</time>
      </trkpt>
      <trkpt lat="42.2889" lon="3.28121">
        <ele>7.3</ele>
        <time>2024-11-10T13:08:47Z</time>
      </trkpt>
      <trkpt lat="42.2889" lon="3.28121">
        <ele>7.3</ele>
        <time>2024-11-10T13:08:48Z</time>
      </trkpt>
      <trkpt lat="42.2889" lon="3.28121">
        <ele>7.3</ele>
        <time>2024-11-10T13:08:49Z</time>
      </trkpt>
      <trkpt lat="42.2889" lon="3.28121">
        <ele>7.3</ele>
        <time>2024-11-10T13:08:50Z</time>
      </trkpt>
      <trkpt lat="42.2889" lon="3.28121">
        <ele>7.3</ele>
        <time>2024-11-10T13:08:51Z</time>
      </trkpt>
      <trkpt lat="42.28892" lon="3.28124">
        <ele>7.3</ele>
        <time>2024-11-10T13:08:52Z</time>
      </trkpt>
      <trkpt lat="42.28892" lon="3.28125">
        <ele>7.3</ele>
        <time>2024-11-10T13:08:53Z</time>
      </trkpt>
      <trkpt lat="42.28892" lon="3.28124">
        <ele>7.3</ele>
        <time>2024-11-10T13:08:54Z</time>
      </trkpt>
      <trkpt lat="42.28891" lon="3.28123">
        <ele>7.3</ele>
        <time>2024-11-10T13:08:55Z</time>
      </trkpt>
      <trkpt lat="42.28891" lon="3.28122">
        <ele>7.3</ele>
        <time>2024-11-10T13:08:56Z</time>
      </trkpt>
      <trkpt lat="42.28891" lon="3.28121">
        <ele>7.3</ele>
        <time>2024-11-10T13:08:57Z</time>
      </trkpt>
      <trkpt lat="42.28891" lon="3.28121">
        <ele>7.3</ele>
        <time>2024-11-10T13:08:58Z</time>
      </trkpt>
      <trkpt lat="42.28891" lon="3.28121">
        <ele>7.3</ele>
        <time>2024-11-10T13:08:59Z</time>
      </trkpt>
      <trkpt lat="42.28891" lon="3.28121">
        <ele>7.3</ele>
        <time>2024-11-10T13:09:00Z</time>
      </trkpt>
      <trkpt lat="42.28891" lon="3.28121">
        <ele>7.3</ele>
        <time>2024-11-10T13:09:01Z</time>
      </trkpt>
      <trkpt lat="42.2889" lon="3.28122">
        <ele>7.2</ele>
        <time>2024-11-10T13:09:02Z</time>
      </trkpt>
      <trkpt lat="42.2889" lon="3.28122">
        <ele>7.2</ele>
        <time>2024-11-10T13:09:03Z</time>
      </trkpt>
      <trkpt lat="42.2889" lon="3.28122">
        <ele>7.2</ele>
        <time>2024-11-10T13:09:04Z</time>
      </trkpt>
      <trkpt lat="42.2889" lon="3.28122">
        <ele>7.2</ele>
        <time>2024-11-10T13:09:05Z</time>
      </trkpt>
      <trkpt lat="42.2889" lon="3.28122">
        <ele>7.2</ele>
        <time>2024-11-10T13:09:06Z</time>
      </trkpt>
      <trkpt lat="42.2889" lon="3.28121">
        <ele>7.2</ele>
        <time>2024-11-10T13:09:07Z</time>
      </trkpt>
      <trkpt lat="42.28891" lon="3.28121">
        <ele>7.2</ele>
        <time>2024-11-10T13:09:08Z</time>
      </trkpt>
      <trkpt lat="42.28891" lon="3.2812">
        <ele>7.2</ele>
        <time>2024-11-10T13:09:09Z</time>
      </trkpt>
      <trkpt lat="42.28891" lon="3.28121">
        <ele>7.2</ele>
        <time>2024-11-10T13:09:10Z</time>
      </trkpt>
      <trkpt lat="42.28891" lon="3.28121">
        <ele>7.2</ele>
        <time>2024-11-10T13:09:11Z</time>
      </trkpt>
      <trkpt lat="42.28891" lon="3.28122">
        <ele>7.2</ele>
        <time>2024-11-10T13:09:12Z</time>
      </trkpt>
      <trkpt lat="42.28891" lon="3.28122">
        <ele>7.2</ele>
        <time>2024-11-10T13:09:13Z</time>
      </trkpt>
      <trkpt lat="42.28891" lon="3.28122">
        <ele>7.2</ele>
        <time>2024-11-10T13:09:14Z</time>
      </trkpt>
      <trkpt lat="42.28891" lon="3.28122">
        <ele>7.2</ele>
        <time>2024-11-10T13:09:15Z</time>
      </trkpt>
      <trkpt lat="42.28891" lon="3.28122">
        <ele>7.2</ele>
        <time>2024-11-10T13:09:16Z</time>
      </trkpt>
      <trkpt lat="42.2889" lon="3.28122">
        <ele>7.2</ele>
        <time>2024-11-10T13:09:17Z</time>
      </trkpt>
      <trkpt lat="42.2889" lon="3.28122">
        <ele>7.2</ele>
        <time>2024-11-10T13:09:18Z</time>
      </trkpt>
      <trkpt lat="42.2889" lon="3.28122">
        <ele>7.2</ele>
        <time>2024-11-10T13:09:19Z</time>
      </trkpt>
      <trkpt lat="42.2889" lon="3.28122">
        <ele>7.2</ele>
        <time>2024-11-10T13:09:20Z</time>
      </trkpt>
      <trkpt lat="42.2889" lon="3.28122">
        <ele>7.2</ele>
        <time>2024-11-10T13:09:21Z</time>
      </trkpt>
      <trkpt lat="42.28891" lon="3.28122">
        <ele>7.2</ele>
        <time>2024-11-10T13:09:22Z</time>
      </trkpt>
      <trkpt lat="42.28891" lon="3.28122">
        <ele>7.2</ele>
        <time>2024-11-10T13:09:23Z</time>
      </trkpt>
      <trkpt lat="42.28891" lon="3.28122">
        <ele>7.2</ele>
        <time>2024-11-10T13:09:24Z</time>
      </trkpt>
      <trkpt lat="42.28891" lon="3.28122">
        <ele>7.2</ele>
        <time>2024-11-10T13:09:25Z</time>
      </trkpt>
      <trkpt lat="42.28891" lon="3.28122">
        <ele>7.2</ele>
        <time>2024-11-10T13:09:26Z</time>
      </trkpt>
      <trkpt lat="42.28891" lon="3.28122">
        <ele>7.2</ele>
        <time>2024-11-10T13:09:27Z</time>
      </trkpt>
      <trkpt lat="42.2889" lon="3.28121">
        <ele>7.2</ele>
        <time>2024-11-10T13:09:28Z</time>
      </trkpt>
      <trkpt lat="42.2889" lon="3.28121">
        <ele>7.2</ele>
        <time>2024-11-10T13:09:29Z</time>
      </trkpt>
      <trkpt lat="42.2889" lon="3.28121">
        <ele>7.2</ele>
        <time>2024-11-10T13:09:30Z</time>
      </trkpt>
      <trkpt lat="42.2889" lon="3.28121">
        <ele>7.2</ele>
        <time>2024-11-10T13:09:31Z</time>
      </trkpt>
      <trkpt lat="42.2889" lon="3.28122">
        <ele>7.2</ele>
        <time>2024-11-10T13:09:32Z</time>
      </trkpt>
      <trkpt lat="42.2889" lon="3.28122">
        <ele>7.2</ele>
        <time>2024-11-10T13:09:33Z</time>
      </trkpt>
      <trkpt lat="42.2889" lon="3.28122">
        <ele>7.2</ele>
        <time>2024-11-10T13:09:34Z</time>
      </trkpt>
      <trkpt lat="42.2889" lon="3.28122">
        <ele>7.2</ele>
        <time>2024-11-10T13:09:35Z</time>
      </trkpt>
      <trkpt lat="42.2889" lon="3.28122">
        <ele>7.2</ele>
        <time>2024-11-10T13:09:36Z</time>
      </trkpt>
      <trkpt lat="42.2889" lon="3.28121">
        <ele>7.2</ele>
        <time>2024-11-10T13:09:37Z</time>
      </trkpt>
      <trkpt lat="42.2889" lon="3.28121">
        <ele>7.2</ele>
        <time>2024-11-10T13:09:38Z</time>
      </trkpt>
      <trkpt lat="42.2889" lon="3.28121">
        <ele>7.2</ele>
        <time>2024-11-10T13:09:39Z</time>
      </trkpt>
      <trkpt lat="42.2889" lon="3.28121">
        <ele>7.2</ele>
        <time>2024-11-10T13:09:40Z</time>
      </trkpt>
      <trkpt lat="42.2889" lon="3.28121">
        <ele>7.2</ele>
        <time>2024-11-10T13:09:41Z</time>
      </trkpt>
      <trkpt lat="42.2889" lon="3.28121">
        <ele>7.2</ele>
        <time>2024-11-10T13:09:42Z</time>
      </trkpt>
      <trkpt lat="42.2889" lon="3.28122">
        <ele>7.2</ele>
        <time>2024-11-10T13:09:43Z</time>
      </trkpt>
      <trkpt lat="42.2889" lon="3.28122">
        <ele>7.2</ele>
        <time>2024-11-10T13:09:44Z</time>
      </trkpt>
      <trkpt lat="42.2889" lon="3.28122">
        <ele>7.2</ele>
        <time>2024-11-10T13:09:45Z</time>
      </trkpt>
      <trkpt lat="42.2889" lon="3.28121">
        <ele>7.2</ele>
        <time>2024-11-10T13:09:46Z</time>
      </trkpt>
      <trkpt lat="42.2889" lon="3.28121">
        <ele>7.2</ele>
        <time>2024-11-10T13:09:47Z</time>
      </trkpt>
      <trkpt lat="42.2889" lon="3.28121">
        <ele>7.2</ele>
        <time>2024-11-10T13:09:48Z</time>
      </trkpt>
      <trkpt lat="42.2889" lon="3.28121">
        <ele>7.2</ele>
        <time>2024-11-10T13:09:49Z</time>
      </trkpt>
      <trkpt lat="42.2889" lon="3.28121">
        <ele>7.2</ele>
        <time>2024-11-10T13:09:50Z</time>
      </trkpt>
      <trkpt lat="42.2889" lon="3.28121">
        <ele>7.2</ele>
        <time>2024-11-10T13:09:51Z</time>
      </trkpt>
      <trkpt lat="42.28892" lon="3.28124">
        <ele>7.2</ele>
        <time>2024-11-10T13:09:52Z</time>
      </trkpt>
      <trkpt lat="42.28891" lon="3.28123">
        <ele>7.2</ele>
        <time>2024-11-10T13:09:53Z</time>
      </trkpt>
      <trkpt lat="42.28891" lon="3.28122">
        <ele>7.2</ele>
        <time>2024-11-10T13:09:54Z</time>
      </trkpt>
      <trkpt lat="42.28892" lon="3.28125">
        <ele>7.2</ele>
        <time>2024-11-10T13:09:55Z</time>
      </trkpt>
      <trkpt lat="42.28892" lon="3.28125">
        <ele>7.2</ele>
        <time>2024-11-10T13:09:56Z</time>
      </trkpt>
      <trkpt lat="42.28892" lon="3.28125">
        <ele>7.2</ele>
        <time>2024-11-10T13:09:57Z</time>
      </trkpt>
      <trkpt lat="42.28892" lon="3.28125">
        <ele>7.2</ele>
        <time>2024-11-10T13:09:58Z</time>
      </trkpt>
      <trkpt lat="42.28892" lon="3.28125">
        <ele>7.2</ele>
        <time>2024-11-10T13:09:59Z</time>
      </trkpt>
      <trkpt lat="42.28892" lon="3.28125">
        <ele>7.2</ele>
        <time>2024-11-10T13:10:00Z</time>
      </trkpt>
      <trkpt lat="42.28892" lon="3.28125">
        <ele>7.2</ele>
        <time>2024-11-10T13:10:01Z</time>
      </trkpt>
      <trkpt lat="42.28891" lon="3.28122">
        <ele>7.2</ele>
        <time>2024-11-10T13:10:02Z</time>
      </trkpt>
      <trkpt lat="42.28891" lon="3.28121">
        <ele>7.2</ele>
        <time>2024-11-10T13:10:03Z</time>
      </trkpt>
      <trkpt lat="42.28891" lon="3.2812">
        <ele>7.2</ele>
        <time>2024-11-10T13:10:04Z</time>
      </trkpt>
      <trkpt lat="42.2889" lon="3.2812">
        <ele>7.2</ele>
        <time>2024-11-10T13:10:05Z</time>
      </trkpt>
      <trkpt lat="42.2889" lon="3.2812">
        <ele>7.2</ele>
        <time>2024-11-10T13:10:06Z</time>
      </trkpt>
      <trkpt lat="42.2889" lon="3.28122">
        <ele>7.2</ele>
        <time>2024-11-10T13:10:07Z</time>
      </trkpt>
      <trkpt lat="42.2889" lon="3.28122">
        <ele>7.2</ele>
        <time>2024-11-10T13:10:08Z</time>
      </trkpt>
      <trkpt lat="42.2889" lon="3.28123">
        <ele>7.2</ele>
        <time>2024-11-10T13:10:09Z</time>
      </trkpt>
      <trkpt lat="42.2889" lon="3.28122">
        <ele>7.2</ele>
        <time>2024-11-10T13:10:10Z</time>
      </trkpt>
      <trkpt lat="42.2889" lon="3.28122">
        <ele>7.2</ele>
        <time>2024-11-10T13:10:11Z</time>
      </trkpt>
      <trkpt lat="42.2889" lon="3.28122">
        <ele>7.2</ele>
        <time>2024-11-10T13:10:12Z</time>
      </trkpt>
      <trkpt lat="42.28891" lon="3.28124">
        <ele>7.2</ele>
        <time>2024-11-10T13:10:13Z</time>
      </trkpt>
      <trkpt lat="42.28891" lon="3.28123">
        <ele>7.2</ele>
        <time>2024-11-10T13:10:14Z</time>
      </trkpt>
      <trkpt lat="42.28891" lon="3.28122">
        <ele>7.2</ele>
        <time>2024-11-10T13:10:15Z</time>
      </trkpt>
      <trkpt lat="42.28891" lon="3.28122">
        <ele>7.2</ele>
        <time>2024-11-10T13:10:16Z</time>
      </trkpt>
      <trkpt lat="42.28891" lon="3.28122">
        <ele>7.2</ele>
        <time>2024-11-10T13:10:17Z</time>
      </trkpt>
      <trkpt lat="42.28891" lon="3.28122">
        <ele>7.2</ele>
        <time>2024-11-10T13:10:19Z</time>
      </trkpt>
      <trkpt lat="42.28891" lon="3.28124">
        <ele>7.2</ele>
        <time>2024-11-10T13:10:20Z</time>
      </trkpt>
      <trkpt lat="42.28892" lon="3.28124">
        <ele>7.2</ele>
        <time>2024-11-10T13:10:21Z</time>
      </trkpt>
      <trkpt lat="42.28892" lon="3.28124">
        <ele>7.2</ele>
        <time>2024-11-10T13:10:22Z</time>
      </trkpt>
      <trkpt lat="42.28892" lon="3.28124">
        <ele>7.2</ele>
        <time>2024-11-10T13:10:23Z</time>
      </trkpt>
      <trkpt lat="42.28892" lon="3.28124">
        <ele>7.2</ele>
        <time>2024-11-10T13:10:24Z</time>
      </trkpt>
      <trkpt lat="42.28892" lon="3.28124">
        <ele>7.2</ele>
        <time>2024-11-10T13:10:25Z</time>
      </trkpt>
      <trkpt lat="42.28892" lon="3.28124">
        <ele>7.2</ele>
        <time>2024-11-10T13:10:26Z</time>
      </trkpt>
      <trkpt lat="42.28892" lon="3.28124">
        <ele>7.2</ele>
        <time>2024-11-10T13:10:27Z</time>
      </trkpt>
      <trkpt lat="42.28892" lon="3.28124">
        <ele>7.2</ele>
        <time>2024-11-10T13:10:28Z</time>
      </trkpt>
      <trkpt lat="42.28892" lon="3.28124">
        <ele>7.2</ele>
        <time>2024-11-10T13:10:29Z</time>
      </trkpt>
      <trkpt lat="42.28892" lon="3.28124">
        <ele>7.2</ele>
        <time>2024-11-10T13:10:30Z</time>
      </trkpt>
      <trkpt lat="42.28892" lon="3.28124">
        <ele>7.2</ele>
        <time>2024-11-10T13:10:31Z</time>
      </trkpt>
      <trkpt lat="42.28891" lon="3.28122">
        <ele>7.2</ele>
        <time>2024-11-10T13:10:32Z</time>
      </trkpt>
      <trkpt lat="42.2889" lon="3.28121">
        <ele>7.2</ele>
        <time>2024-11-10T13:10:33Z</time>
      </trkpt>
      <trkpt lat="42.2889" lon="3.28121">
        <ele>7.2</ele>
        <time>2024-11-10T13:10:34Z</time>
      </trkpt>
      <trkpt lat="42.2889" lon="3.28121">
        <ele>7.2</ele>
        <time>2024-11-10T13:10:35Z</time>
      </trkpt>
      <trkpt lat="42.2889" lon="3.28121">
        <ele>7.2</ele>
        <time>2024-11-10T13:10:36Z</time>
      </trkpt>
      <trkpt lat="42.2889" lon="3.28121">
        <ele>7.2</ele>
        <time>2024-11-10T13:10:37Z</time>
      </trkpt>
      <trkpt lat="42.2889" lon="3.28121">
        <ele>7.2</ele>
        <time>2024-11-10T13:10:38Z</time>
      </trkpt>
      <trkpt lat="42.2889" lon="3.28121">
        <ele>7.2</ele>
        <time>2024-11-10T13:10:39Z</time>
      </trkpt>
      <trkpt lat="42.2889" lon="3.28121">
        <ele>7.2</ele>
        <time>2024-11-10T13:10:40Z</time>
      </trkpt>
      <trkpt lat="42.2889" lon="3.28121">
        <ele>7.2</ele>
        <time>2024-11-10T13:10:41Z</time>
      </trkpt>
      <trkpt lat="42.2889" lon="3.28121">
        <ele>7.2</ele>
        <time>2024-11-10T13:10:42Z</time>
      </trkpt>
      <trkpt lat="42.2889" lon="3.28121">
        <ele>7.2</ele>
        <time>2024-11-10T13:10:43Z</time>
      </trkpt>
      <trkpt lat="42.2889" lon="3.28121">
        <ele>7.2</ele>
        <time>2024-11-10T13:10:44Z</time>
      </trkpt>
      <trkpt lat="42.2889" lon="3.28121">
        <ele>7.2</ele>
        <time>2024-11-10T13:10:45Z</time>
      </trkpt>
      <trkpt lat="42.2889" lon="3.28121">
        <ele>7.2</ele>
        <time>2024-11-10T13:10:46Z</time>
      </trkpt>
      <trkpt lat="42.28891" lon="3.28123">
        <ele>7.1</ele>
        <time>2024-11-10T13:10:47Z</time>
      </trkpt>
      <trkpt lat="42.28891" lon="3.28123">
        <ele>7.1</ele>
        <time>2024-11-10T13:10:48Z</time>
      </trkpt>
      <trkpt lat="42.28891" lon="3.28124">
        <ele>7.1</ele>
        <time>2024-11-10T13:10:49Z</time>
      </trkpt>
      <trkpt lat="42.28891" lon="3.28124">
        <ele>7.1</ele>
        <time>2024-11-10T13:10:50Z</time>
      </trkpt>
      <trkpt lat="42.28891" lon="3.28124">
        <ele>7.1</ele>
        <time>2024-11-10T13:10:51Z</time>
      </trkpt>
      <trkpt lat="42.2889" lon="3.28123">
        <ele>7.1</ele>
        <time>2024-11-10T13:10:52Z</time>
      </trkpt>
      <trkpt lat="42.2889" lon="3.28122">
        <ele>7.1</ele>
        <time>2024-11-10T13:10:53Z</time>
      </trkpt>
      <trkpt lat="42.2889" lon="3.28122">
        <ele>7.1</ele>
        <time>2024-11-10T13:10:54Z</time>
      </trkpt>
      <trkpt lat="42.2889" lon="3.28121">
        <ele>7.1</ele>
        <time>2024-11-10T13:10:55Z</time>
      </trkpt>
      <trkpt lat="42.2889" lon="3.28121">
        <ele>7.1</ele>
        <time>2024-11-10T13:10:56Z</time>
      </trkpt>
      <trkpt lat="42.2889" lon="3.28122">
        <ele>7.1</ele>
        <time>2024-11-10T13:10:57Z</time>
      </trkpt>
      <trkpt lat="42.2889" lon="3.28122">
        <ele>7.1</ele>
        <time>2024-11-10T13:10:58Z</time>
      </trkpt>
      <trkpt lat="42.2889" lon="3.28122">
        <ele>7.1</ele>
        <time>2024-11-10T13:10:59Z</time>
      </trkpt>
      <trkpt lat="42.2889" lon="3.28122">
        <ele>7.1</ele>
        <time>2024-11-10T13:11:00Z</time>
      </trkpt>
      <trkpt lat="42.2889" lon="3.28122">
        <ele>7.1</ele>
        <time>2024-11-10T13:11:01Z</time>
      </trkpt>
      <trkpt lat="42.2889" lon="3.28122">
        <ele>7.1</ele>
        <time>2024-11-10T13:11:02Z</time>
      </trkpt>
      <trkpt lat="42.2889" lon="3.28122">
        <ele>7.1</ele>
        <time>2024-11-10T13:11:03Z</time>
      </trkpt>
      <trkpt lat="42.2889" lon="3.28122">
        <ele>7.1</ele>
        <time>2024-11-10T13:11:04Z</time>
      </trkpt>
      <trkpt lat="42.2889" lon="3.28122">
        <ele>7.1</ele>
        <time>2024-11-10T13:11:05Z</time>
      </trkpt>
      <trkpt lat="42.2889" lon="3.28122">
        <ele>7.1</ele>
        <time>2024-11-10T13:11:06Z</time>
      </trkpt>
      <trkpt lat="42.2889" lon="3.28122">
        <ele>7.1</ele>
        <time>2024-11-10T13:11:07Z</time>
      </trkpt>
      <trkpt lat="42.2889" lon="3.28122">
        <ele>7.1</ele>
        <time>2024-11-10T13:11:08Z</time>
      </trkpt>
      <trkpt lat="42.2889" lon="3.28122">
        <ele>7.1</ele>
        <time>2024-11-10T13:11:09Z</time>
      </trkpt>
      <trkpt lat="42.2889" lon="3.28122">
        <ele>7.1</ele>
        <time>2024-11-10T13:11:10Z</time>
      </trkpt>
      <trkpt lat="42.2889" lon="3.28122">
        <ele>7.1</ele>
        <time>2024-11-10T13:11:11Z</time>
      </trkpt>
      <trkpt lat="42.2889" lon="3.28122">
        <ele>7.1</ele>
        <time>2024-11-10T13:11:12Z</time>
      </trkpt>
      <trkpt lat="42.2889" lon="3.28122">
        <ele>7.1</ele>
        <time>2024-11-10T13:11:13Z</time>
      </trkpt>
      <trkpt lat="42.2889" lon="3.28122">
        <ele>7.1</ele>
        <time>2024-11-10T13:11:14Z</time>
      </trkpt>
      <trkpt lat="42.2889" lon="3.28124">
        <ele>7.1</ele>
        <time>2024-11-10T13:11:15Z</time>
      </trkpt>
      <trkpt lat="42.2889" lon="3.28124">
        <ele>7.1</ele>
        <time>2024-11-10T13:11:16Z</time>
      </trkpt>
      <trkpt lat="42.2889" lon="3.28122">
        <ele>7.1</ele>
        <time>2024-11-10T13:11:17Z</time>
      </trkpt>
      <trkpt lat="42.2889" lon="3.28122">
        <ele>7.1</ele>
        <time>2024-11-10T13:11:18Z</time>
      </trkpt>
      <trkpt lat="42.2889" lon="3.28122">
        <ele>7.1</ele>
        <time>2024-11-10T13:11:19Z</time>
      </trkpt>
      <trkpt lat="42.2889" lon="3.28122">
        <ele>7.1</ele>
        <time>2024-11-10T13:11:20Z</time>
      </trkpt>
      <trkpt lat="42.2889" lon="3.28122">
        <ele>7.1</ele>
        <time>2024-11-10T13:11:21Z</time>
      </trkpt>
      <trkpt lat="42.2889" lon="3.28121">
        <ele>7.1</ele>
        <time>2024-11-10T13:11:22Z</time>
      </trkpt>
      <trkpt lat="42.2889" lon="3.28121">
        <ele>7.1</ele>
        <time>2024-11-10T13:11:23Z</time>
      </trkpt>
      <trkpt lat="42.2889" lon="3.28121">
        <ele>7.1</ele>
        <time>2024-11-10T13:11:24Z</time>
      </trkpt>
      <trkpt lat="42.2889" lon="3.28121">
        <ele>7.1</ele>
        <time>2024-11-10T13:11:25Z</time>
      </trkpt>
      <trkpt lat="42.2889" lon="3.28121">
        <ele>7.1</ele>
        <time>2024-11-10T13:11:26Z</time>
      </trkpt>
      <trkpt lat="42.2889" lon="3.28121">
        <ele>7.1</ele>
        <time>2024-11-10T13:11:27Z</time>
      </trkpt>
      <trkpt lat="42.28891" lon="3.2812">
        <ele>7.1</ele>
        <time>2024-11-10T13:11:28Z</time>
      </trkpt>
      <trkpt lat="42.28891" lon="3.2812">
        <ele>7.1</ele>
        <time>2024-11-10T13:11:29Z</time>
      </trkpt>
      <trkpt lat="42.28891" lon="3.2812">
        <ele>7.1</ele>
        <time>2024-11-10T13:11:30Z</time>
      </trkpt>
      <trkpt lat="42.28891" lon="3.2812">
        <ele>7.1</ele>
        <time>2024-11-10T13:11:31Z</time>
      </trkpt>
      <trkpt lat="42.28891" lon="3.2812">
        <ele>7.1</ele>
        <time>2024-11-10T13:11:32Z</time>
      </trkpt>
      <trkpt lat="42.28891" lon="3.2812">
        <ele>7.1</ele>
        <time>2024-11-10T13:11:33Z</time>
      </trkpt>
      <trkpt lat="42.28891" lon="3.28119">
        <ele>7.1</ele>
        <time>2024-11-10T13:11:34Z</time>
      </trkpt>
      <trkpt lat="42.28891" lon="3.28119">
        <ele>7.1</ele>
        <time>2024-11-10T13:11:35Z</time>
      </trkpt>
      <trkpt lat="42.28891" lon="3.28119">
        <ele>7.1</ele>
        <time>2024-11-10T13:11:36Z</time>
      </trkpt>
      <trkpt lat="42.28891" lon="3.28119">
        <ele>7.1</ele>
        <time>2024-11-10T13:11:37Z</time>
      </trkpt>
      <trkpt lat="42.28891" lon="3.28119">
        <ele>7.1</ele>
        <time>2024-11-10T13:11:38Z</time>
      </trkpt>
      <trkpt lat="42.28891" lon="3.28119">
        <ele>7.1</ele>
        <time>2024-11-10T13:11:39Z</time>
      </trkpt>
      <trkpt lat="42.28891" lon="3.28118">
        <ele>7.1</ele>
        <time>2024-11-10T13:11:40Z</time>
      </trkpt>
      <trkpt lat="42.28891" lon="3.28118">
        <ele>7.1</ele>
        <time>2024-11-10T13:11:41Z</time>
      </trkpt>
      <trkpt lat="42.28891" lon="3.28118">
        <ele>7.1</ele>
        <time>2024-11-10T13:11:42Z</time>
      </trkpt>
      <trkpt lat="42.28891" lon="3.28117">
        <ele>7.1</ele>
        <time>2024-11-10T13:11:43Z</time>
      </trkpt>
      <trkpt lat="42.28892" lon="3.28117">
        <ele>7.1</ele>
        <time>2024-11-10T13:11:44Z</time>
      </trkpt>
      <trkpt lat="42.28892" lon="3.28117">
        <ele>7.1</ele>
        <time>2024-11-10T13:11:45Z</time>
      </trkpt>
      <trkpt lat="42.28891" lon="3.28117">
        <ele>7.1</ele>
        <time>2024-11-10T13:11:46Z</time>
      </trkpt>
      <trkpt lat="42.2889" lon="3.28121">
        <ele>7.1</ele>
        <time>2024-11-10T13:11:47Z</time>
      </trkpt>
      <trkpt lat="42.2889" lon="3.28122">
        <ele>7.1</ele>
        <time>2024-11-10T13:11:48Z</time>
      </trkpt>
      <trkpt lat="42.2889" lon="3.28122">
        <ele>7.1</ele>
        <time>2024-11-10T13:11:49Z</time>
      </trkpt>
      <trkpt lat="42.2889" lon="3.28122">
        <ele>7.1</ele>
        <time>2024-11-10T13:11:50Z</time>
      </trkpt>
      <trkpt lat="42.2889" lon="3.28122">
        <ele>7.1</ele>
        <time>2024-11-10T13:11:51Z</time>
      </trkpt>
      <trkpt lat="42.2889" lon="3.28122">
        <ele>7.1</ele>
        <time>2024-11-10T13:11:52Z</time>
      </trkpt>
      <trkpt lat="42.2889" lon="3.28122">
        <ele>7.1</ele>
        <time>2024-11-10T13:11:53Z</time>
      </trkpt>
      <trkpt lat="42.2889" lon="3.28122">
        <ele>7.1</ele>
        <time>2024-11-10T13:11:54Z</time>
      </trkpt>
      <trkpt lat="42.2889" lon="3.28122">
        <ele>7.1</ele>
        <time>2024-11-10T13:11:55Z</time>
      </trkpt>
      <trkpt lat="42.2889" lon="3.28122">
        <ele>7.1</ele>
        <time>2024-11-10T13:11:56Z</time>
      </trkpt>
      <trkpt lat="42.2889" lon="3.28121">
        <ele>7.1</ele>
        <time>2024-11-10T13:11:57Z</time>
      </trkpt>
      <trkpt lat="42.2889" lon="3.28121">
        <ele>7.1</ele>
        <time>2024-11-10T13:11:58Z</time>
      </trkpt>
      <trkpt lat="42.2889" lon="3.28121">
        <ele>7.1</ele>
        <time>2024-11-10T13:11:59Z</time>
      </trkpt>
      <trkpt lat="42.2889" lon="3.28121">
        <ele>7.1</ele>
        <time>2024-11-10T13:12:00Z</time>
      </trkpt>
      <trkpt lat="42.2889" lon="3.28121">
        <ele>7.1</ele>
        <time>2024-11-10T13:12:01Z</time>
      </trkpt>
      <trkpt lat="42.2889" lon="3.28122">
        <ele>7.1</ele>
        <time>2024-11-10T13:12:02Z</time>
      </trkpt>
      <trkpt lat="42.2889" lon="3.28122">
        <ele>7.1</ele>
        <time>2024-11-10T13:12:03Z</time>
      </trkpt>
      <trkpt lat="42.2889" lon="3.28122">
        <ele>7.1</ele>
        <time>2024-11-10T13:12:04Z</time>
      </trkpt>
      <trkpt lat="42.2889" lon="3.28122">
        <ele>7.1</ele>
        <time>2024-11-10T13:12:05Z</time>
      </trkpt>
      <trkpt lat="42.2889" lon="3.28122">
        <ele>7.1</ele>
        <time>2024-11-10T13:12:06Z</time>
      </trkpt>
      <trkpt lat="42.2889" lon="3.28121">
        <ele>7.1</ele>
        <time>2024-11-10T13:12:07Z</time>
      </trkpt>
      <trkpt lat="42.2889" lon="3.28121">
        <ele>7.1</ele>
        <time>2024-11-10T13:12:08Z</time>
      </trkpt>
      <trkpt lat="42.2889" lon="3.28121">
        <ele>7.1</ele>
        <time>2024-11-10T13:12:09Z</time>
      </trkpt>
      <trkpt lat="42.2889" lon="3.28121">
        <ele>7.1</ele>
        <time>2024-11-10T13:12:10Z</time>
      </trkpt>
      <trkpt lat="42.2889" lon="3.28121">
        <ele>7.1</ele>
        <time>2024-11-10T13:12:11Z</time>
      </trkpt>
      <trkpt lat="42.2889" lon="3.28122">
        <ele>7.1</ele>
        <time>2024-11-10T13:12:12Z</time>
      </trkpt>
      <trkpt lat="42.2889" lon="3.28122">
        <ele>7.1</ele>
        <time>2024-11-10T13:12:13Z</time>
      </trkpt>
      <trkpt lat="42.2889" lon="3.28122">
        <ele>7.1</ele>
        <time>2024-11-10T13:12:14Z</time>
      </trkpt>
      <trkpt lat="42.2889" lon="3.28122">
        <ele>7.1</ele>
        <time>2024-11-10T13:12:15Z</time>
      </trkpt>
      <trkpt lat="42.2889" lon="3.28122">
        <ele>7.1</ele>
        <time>2024-11-10T13:12:16Z</time>
      </trkpt>
      <trkpt lat="42.2889" lon="3.28121">
        <ele>7.1</ele>
        <time>2024-11-10T13:12:17Z</time>
      </trkpt>
      <trkpt lat="42.2889" lon="3.28121">
        <ele>7.1</ele>
        <time>2024-11-10T13:12:18Z</time>
      </trkpt>
      <trkpt lat="42.2889" lon="3.28121">
        <ele>7.1</ele>
        <time>2024-11-10T13:12:19Z</time>
      </trkpt>
      <trkpt lat="42.2889" lon="3.28121">
        <ele>7.1</ele>
        <time>2024-11-10T13:12:20Z</time>
      </trkpt>
      <trkpt lat="42.2889" lon="3.28121">
        <ele>7.1</ele>
        <time>2024-11-10T13:12:21Z</time>
      </trkpt>
      <trkpt lat="42.2889" lon="3.28121">
        <ele>7.1</ele>
        <time>2024-11-10T13:12:22Z</time>
      </trkpt>
      <trkpt lat="42.2889" lon="3.2812">
        <ele>7.1</ele>
        <time>2024-11-10T13:12:23Z</time>
      </trkpt>
      <trkpt lat="42.2889" lon="3.2812">
        <ele>7.1</ele>
        <time>2024-11-10T13:12:24Z</time>
      </trkpt>
      <trkpt lat="42.2889" lon="3.2812">
        <ele>7.1</ele>
        <time>2024-11-10T13:12:25Z</time>
      </trkpt>
      <trkpt lat="42.2889" lon="3.28121">
        <ele>7.1</ele>
        <time>2024-11-10T13:12:26Z</time>
      </trkpt>
      <trkpt lat="42.2889" lon="3.28121">
        <ele>7.1</ele>
        <time>2024-11-10T13:12:27Z</time>
      </trkpt>
      <trkpt lat="42.2889" lon="3.28121">
        <ele>7.1</ele>
        <time>2024-11-10T13:12:28Z</time>
      </trkpt>
      <trkpt lat="42.2889" lon="3.28121">
        <ele>7.1</ele>
        <time>2024-11-10T13:12:29Z</time>
      </trkpt>
      <trkpt lat="42.2889" lon="3.28121">
        <ele>7.1</ele>
        <time>2024-11-10T13:12:30Z</time>
      </trkpt>
      <trkpt lat="42.2889" lon="3.28121">
        <ele>7.1</ele>
        <time>2024-11-10T13:12:31Z</time>
      </trkpt>
      <trkpt lat="42.2889" lon="3.28121">
        <ele>7.1</ele>
        <time>2024-11-10T13:12:32Z</time>
      </trkpt>
      <trkpt lat="42.2889" lon="3.28121">
        <ele>7.1</ele>
        <time>2024-11-10T13:12:33Z</time>
      </trkpt>
      <trkpt lat="42.2889" lon="3.28121">
        <ele>7.1</ele>
        <time>2024-11-10T13:12:34Z</time>
      </trkpt>
      <trkpt lat="42.2889" lon="3.28121">
        <ele>7.1</ele>
        <time>2024-11-10T13:12:35Z</time>
      </trkpt>
      <trkpt lat="42.2889" lon="3.28121">
        <ele>7.1</ele>
        <time>2024-11-10T13:12:36Z</time>
      </trkpt>
      <trkpt lat="42.2889" lon="3.28122">
        <ele>7.1</ele>
        <time>2024-11-10T13:12:37Z</time>
      </trkpt>
      <trkpt lat="42.2889" lon="3.28122">
        <ele>7.1</ele>
        <time>2024-11-10T13:12:38Z</time>
      </trkpt>
      <trkpt lat="42.2889" lon="3.28122">
        <ele>7.1</ele>
        <time>2024-11-10T13:12:39Z</time>
      </trkpt>
      <trkpt lat="42.2889" lon="3.28122">
        <ele>7.1</ele>
        <time>2024-11-10T13:12:40Z</time>
      </trkpt>
      <trkpt lat="42.2889" lon="3.28122">
        <ele>7.1</ele>
        <time>2024-11-10T13:12:41Z</time>
      </trkpt>
      <trkpt lat="42.2889" lon="3.28122">
        <ele>7.1</ele>
        <time>2024-11-10T13:12:42Z</time>
      </trkpt>
      <trkpt lat="42.2889" lon="3.28122">
        <ele>7.1</ele>
        <time>2024-11-10T13:12:43Z</time>
      </trkpt>
      <trkpt lat="42.2889" lon="3.28122">
        <ele>7.1</ele>
        <time>2024-11-10T13:12:44Z</time>
      </trkpt>
      <trkpt lat="42.2889" lon="3.28122">
        <ele>7.1</ele>
        <time>2024-11-10T13:12:45Z</time>
      </trkpt>
      <trkpt lat="42.2889" lon="3.28122">
        <ele>7.1</ele>
        <time>2024-11-10T13:12:46Z</time>
      </trkpt>
      <trkpt lat="42.28889" lon="3.28122">
        <ele>7.1</ele>
        <time>2024-11-10T13:12:47Z</time>
      </trkpt>
      <trkpt lat="42.28889" lon="3.28122">
        <ele>7.1</ele>
        <time>2024-11-10T13:12:48Z</time>
      </trkpt>
      <trkpt lat="42.28889" lon="3.28122">
        <ele>7.1</ele>
        <time>2024-11-10T13:12:49Z</time>
      </trkpt>
      <trkpt lat="42.28889" lon="3.28122">
        <ele>7.1</ele>
        <time>2024-11-10T13:12:50Z</time>
      </trkpt>
      <trkpt lat="42.28889" lon="3.28122">
        <ele>7.1</ele>
        <time>2024-11-10T13:12:51Z</time>
      </trkpt>
      <trkpt lat="42.2889" lon="3.28125">
        <ele>7.1</ele>
        <time>2024-11-10T13:12:52Z</time>
      </trkpt>
      <trkpt lat="42.2889" lon="3.28125">
        <ele>7.1</ele>
        <time>2024-11-10T13:12:53Z</time>
      </trkpt>
      <trkpt lat="42.2889" lon="3.28125">
        <ele>7.1</ele>
        <time>2024-11-10T13:12:54Z</time>
      </trkpt>
      <trkpt lat="42.2889" lon="3.28125">
        <ele>7.1</ele>
        <time>2024-11-10T13:12:55Z</time>
      </trkpt>
      <trkpt lat="42.2889" lon="3.28125">
        <ele>7.1</ele>
        <time>2024-11-10T13:12:56Z</time>
      </trkpt>
      <trkpt lat="42.2889" lon="3.28125">
        <ele>7.1</ele>
        <time>2024-11-10T13:12:57Z</time>
      </trkpt>
      <trkpt lat="42.2889" lon="3.28125">
        <ele>7.1</ele>
        <time>2024-11-10T13:12:58Z</time>
      </trkpt>
      <trkpt lat="42.2889" lon="3.28125">
        <ele>7.1</ele>
        <time>2024-11-10T13:12:59Z</time>
      </trkpt>
      <trkpt lat="42.2889" lon="3.28125">
        <ele>7.1</ele>
        <time>2024-11-10T13:13:00Z</time>
      </trkpt>
      <trkpt lat="42.2889" lon="3.28125">
        <ele>7.1</ele>
        <time>2024-11-10T13:13:01Z</time>
      </trkpt>
      <trkpt lat="42.28889" lon="3.28125">
        <ele>7.1</ele>
        <time>2024-11-10T13:13:02Z</time>
      </trkpt>
      <trkpt lat="42.28889" lon="3.28125">
        <ele>7.1</ele>
        <time>2024-11-10T13:13:03Z</time>
      </trkpt>
      <trkpt lat="42.28889" lon="3.28125">
        <ele>7.1</ele>
        <time>2024-11-10T13:13:04Z</time>
      </trkpt>
      <trkpt lat="42.28889" lon="3.28125">
        <ele>7.1</ele>
        <time>2024-11-10T13:13:05Z</time>
      </trkpt>
      <trkpt lat="42.28889" lon="3.28125">
        <ele>7.1</ele>
        <time>2024-11-10T13:13:06Z</time>
      </trkpt>
      <trkpt lat="42.2889" lon="3.28123">
        <ele>7.1</ele>
        <time>2024-11-10T13:13:07Z</time>
      </trkpt>
      <trkpt lat="42.2889" lon="3.28122">
        <ele>7.1</ele>
        <time>2024-11-10T13:13:08Z</time>
      </trkpt>
      <trkpt lat="42.2889" lon="3.28122">
        <ele>7.1</ele>
        <time>2024-11-10T13:13:09Z</time>
      </trkpt>
      <trkpt lat="42.2889" lon="3.28122">
        <ele>7.1</ele>
        <time>2024-11-10T13:13:10Z</time>
      </trkpt>
      <trkpt lat="42.2889" lon="3.28122">
        <ele>7.1</ele>
        <time>2024-11-10T13:13:11Z</time>
      </trkpt>
      <trkpt lat="42.28889" lon="3.28122">
        <ele>7.1</ele>
        <time>2024-11-10T13:13:12Z</time>
      </trkpt>
      <trkpt lat="42.28889" lon="3.28121">
        <ele>7.1</ele>
        <time>2024-11-10T13:13:13Z</time>
      </trkpt>
      <trkpt lat="42.28889" lon="3.28121">
        <ele>7.1</ele>
        <time>2024-11-10T13:13:14Z</time>
      </trkpt>
      <trkpt lat="42.28889" lon="3.28121">
        <ele>7.1</ele>
        <time>2024-11-10T13:13:15Z</time>
      </trkpt>
      <trkpt lat="42.28889" lon="3.28121">
        <ele>7.1</ele>
        <time>2024-11-10T13:13:16Z</time>
      </trkpt>
      <trkpt lat="42.28889" lon="3.28123">
        <ele>7.1</ele>
        <time>2024-11-10T13:13:17Z</time>
      </trkpt>
      <trkpt lat="42.28889" lon="3.28124">
        <ele>7.1</ele>
        <time>2024-11-10T13:13:20Z</time>
      </trkpt>
      <trkpt lat="42.28889" lon="3.28124">
        <ele>7.1</ele>
        <time>2024-11-10T13:13:21Z</time>
      </trkpt>
      <trkpt lat="42.28889" lon="3.28123">
        <ele>7.1</ele>
        <time>2024-11-10T13:13:22Z</time>
      </trkpt>
      <trkpt lat="42.28889" lon="3.28124">
        <ele>7</ele>
        <time>2024-11-10T13:13:23Z</time>
      </trkpt>
      <trkpt lat="42.28889" lon="3.28125">
        <ele>7</ele>
        <time>2024-11-10T13:13:24Z</time>
      </trkpt>
      <trkpt lat="42.28889" lon="3.28126">
        <ele>7</ele>
        <time>2024-11-10T13:13:25Z</time>
      </trkpt>
      <trkpt lat="42.28889" lon="3.28125">
        <ele>7</ele>
        <time>2024-11-10T13:13:26Z</time>
      </trkpt>
      <trkpt lat="42.28889" lon="3.28125">
        <ele>7</ele>
        <time>2024-11-10T13:13:27Z</time>
      </trkpt>
      <trkpt lat="42.28889" lon="3.28125">
        <ele>7</ele>
        <time>2024-11-10T13:13:28Z</time>
      </trkpt>
      <trkpt lat="42.28889" lon="3.28125">
        <ele>7</ele>
        <time>2024-11-10T13:13:29Z</time>
      </trkpt>
      <trkpt lat="42.28889" lon="3.28125">
        <ele>7</ele>
        <time>2024-11-10T13:13:30Z</time>
      </trkpt>
      <trkpt lat="42.28889" lon="3.28125">
        <ele>7</ele>
        <time>2024-11-10T13:13:31Z</time>
      </trkpt>
      <trkpt lat="42.28889" lon="3.28125">
        <ele>7</ele>
        <time>2024-11-10T13:13:32Z</time>
      </trkpt>
      <trkpt lat="42.28889" lon="3.28125">
        <ele>7</ele>
        <time>2024-11-10T13:13:33Z</time>
      </trkpt>
      <trkpt lat="42.28889" lon="3.28125">
        <ele>7</ele>
        <time>2024-11-10T13:13:34Z</time>
      </trkpt>
      <trkpt lat="42.28889" lon="3.28125">
        <ele>7</ele>
        <time>2024-11-10T13:13:35Z</time>
      </trkpt>
      <trkpt lat="42.28889" lon="3.28125">
        <ele>7</ele>
        <time>2024-11-10T13:13:36Z</time>
      </trkpt>
      <trkpt lat="42.28889" lon="3.28124">
        <ele>7</ele>
        <time>2024-11-10T13:13:37Z</time>
      </trkpt>
      <trkpt lat="42.28889" lon="3.28124">
        <ele>7</ele>
        <time>2024-11-10T13:13:38Z</time>
      </trkpt>
      <trkpt lat="42.28889" lon="3.28124">
        <ele>7</ele>
        <time>2024-11-10T13:13:39Z</time>
      </trkpt>
      <trkpt lat="42.28889" lon="3.28124">
        <ele>7</ele>
        <time>2024-11-10T13:13:40Z</time>
      </trkpt>
      <trkpt lat="42.28889" lon="3.28124">
        <ele>7</ele>
        <time>2024-11-10T13:13:41Z</time>
      </trkpt>
      <trkpt lat="42.28889" lon="3.28124">
        <ele>7</ele>
        <time>2024-11-10T13:13:42Z</time>
      </trkpt>
      <trkpt lat="42.28889" lon="3.28124">
        <ele>7</ele>
        <time>2024-11-10T13:13:43Z</time>
      </trkpt>
      <trkpt lat="42.28889" lon="3.28124">
        <ele>7</ele>
        <time>2024-11-10T13:13:44Z</time>
      </trkpt>
      <trkpt lat="42.28889" lon="3.28124">
        <ele>7</ele>
        <time>2024-11-10T13:13:45Z</time>
      </trkpt>
      <trkpt lat="42.28889" lon="3.28124">
        <ele>7</ele>
        <time>2024-11-10T13:13:46Z</time>
      </trkpt>
      <trkpt lat="42.28889" lon="3.28124">
        <ele>7</ele>
        <time>2024-11-10T13:13:47Z</time>
      </trkpt>
      <trkpt lat="42.28889" lon="3.28123">
        <ele>7</ele>
        <time>2024-11-10T13:13:48Z</time>
      </trkpt>
      <trkpt lat="42.28889" lon="3.28123">
        <ele>7</ele>
        <time>2024-11-10T13:13:49Z</time>
      </trkpt>
      <trkpt lat="42.28889" lon="3.28123">
        <ele>7</ele>
        <time>2024-11-10T13:13:50Z</time>
      </trkpt>
      <trkpt lat="42.28889" lon="3.28123">
        <ele>7</ele>
        <time>2024-11-10T13:13:51Z</time>
      </trkpt>
      <trkpt lat="42.28889" lon="3.28123">
        <ele>7</ele>
        <time>2024-11-10T13:13:52Z</time>
      </trkpt>
      <trkpt lat="42.28889" lon="3.28123">
        <ele>7</ele>
        <time>2024-11-10T13:13:53Z</time>
      </trkpt>
      <trkpt lat="42.28889" lon="3.28123">
        <ele>7</ele>
        <time>2024-11-10T13:13:54Z</time>
      </trkpt>
      <trkpt lat="42.28889" lon="3.28123">
        <ele>7</ele>
        <time>2024-11-10T13:13:55Z</time>
      </trkpt>
      <trkpt lat="42.28889" lon="3.28123">
        <ele>7</ele>
        <time>2024-11-10T13:13:56Z</time>
      </trkpt>
      <trkpt lat="42.28889" lon="3.28123">
        <ele>7</ele>
        <time>2024-11-10T13:13:57Z</time>
      </trkpt>
      <trkpt lat="42.28889" lon="3.28123">
        <ele>7</ele>
        <time>2024-11-10T13:13:58Z</time>
      </trkpt>
      <trkpt lat="42.28889" lon="3.28123">
        <ele>7</ele>
        <time>2024-11-10T13:13:59Z</time>
      </trkpt>
      <trkpt lat="42.28889" lon="3.28122">
        <ele>7</ele>
        <time>2024-11-10T13:14:00Z</time>
      </trkpt>
      <trkpt lat="42.28889" lon="3.28122">
        <ele>7</ele>
        <time>2024-11-10T13:14:01Z</time>
      </trkpt>
      <trkpt lat="42.28889" lon="3.28122">
        <ele>7</ele>
        <time>2024-11-10T13:14:02Z</time>
      </trkpt>
      <trkpt lat="42.28889" lon="3.28122">
        <ele>7</ele>
        <time>2024-11-10T13:14:03Z</time>
      </trkpt>
      <trkpt lat="42.28889" lon="3.28122">
        <ele>7</ele>
        <time>2024-11-10T13:14:04Z</time>
      </trkpt>
      <trkpt lat="42.28889" lon="3.28122">
        <ele>7</ele>
        <time>2024-11-10T13:14:05Z</time>
      </trkpt>
      <trkpt lat="42.28889" lon="3.28122">
        <ele>7</ele>
        <time>2024-11-10T13:14:06Z</time>
      </trkpt>
      <trkpt lat="42.2889" lon="3.28122">
        <ele>7</ele>
        <time>2024-11-10T13:14:07Z</time>
      </trkpt>
      <trkpt lat="42.2889" lon="3.28122">
        <ele>7</ele>
        <time>2024-11-10T13:14:08Z</time>
      </trkpt>
      <trkpt lat="42.2889" lon="3.28122">
        <ele>7</ele>
        <time>2024-11-10T13:14:09Z</time>
      </trkpt>
      <trkpt lat="42.2889" lon="3.28122">
        <ele>7</ele>
        <time>2024-11-10T13:14:10Z</time>
      </trkpt>
      <trkpt lat="42.2889" lon="3.28121">
        <ele>7</ele>
        <time>2024-11-10T13:14:11Z</time>
      </trkpt>
      <trkpt lat="42.2889" lon="3.28121">
        <ele>7</ele>
        <time>2024-11-10T13:14:12Z</time>
      </trkpt>
      <trkpt lat="42.2889" lon="3.28121">
        <ele>7</ele>
        <time>2024-11-10T13:14:13Z</time>
      </trkpt>
      <trkpt lat="42.2889" lon="3.28121">
        <ele>7</ele>
        <time>2024-11-10T13:14:14Z</time>
      </trkpt>
      <trkpt lat="42.2889" lon="3.28121">
        <ele>7</ele>
        <time>2024-11-10T13:14:15Z</time>
      </trkpt>
      <trkpt lat="42.2889" lon="3.28121">
        <ele>7</ele>
        <time>2024-11-10T13:14:16Z</time>
      </trkpt>
      <trkpt lat="42.2889" lon="3.28121">
        <ele>7</ele>
        <time>2024-11-10T13:14:17Z</time>
      </trkpt>
      <trkpt lat="42.2889" lon="3.28121">
        <ele>7</ele>
        <time>2024-11-10T13:14:18Z</time>
      </trkpt>
      <trkpt lat="42.2889" lon="3.28121">
        <ele>7</ele>
        <time>2024-11-10T13:14:19Z</time>
      </trkpt>
      <trkpt lat="42.2889" lon="3.28121">
        <ele>7</ele>
        <time>2024-11-10T13:14:20Z</time>
      </trkpt>
      <trkpt lat="42.2889" lon="3.28121">
        <ele>7</ele>
        <time>2024-11-10T13:14:21Z</time>
      </trkpt>
      <trkpt lat="42.2889" lon="3.2812">
        <ele>7</ele>
        <time>2024-11-10T13:14:22Z</time>
      </trkpt>
      <trkpt lat="42.2889" lon="3.2812">
        <ele>7</ele>
        <time>2024-11-10T13:14:23Z</time>
      </trkpt>
      <trkpt lat="42.2889" lon="3.2812">
        <ele>7</ele>
        <time>2024-11-10T13:14:24Z</time>
      </trkpt>
      <trkpt lat="42.2889" lon="3.2812">
        <ele>7</ele>
        <time>2024-11-10T13:14:25Z</time>
      </trkpt>
      <trkpt lat="42.2889" lon="3.2812">
        <ele>7</ele>
        <time>2024-11-10T13:14:26Z</time>
      </trkpt>
      <trkpt lat="42.2889" lon="3.2812">
        <ele>7</ele>
        <time>2024-11-10T13:14:27Z</time>
      </trkpt>
      <trkpt lat="42.2889" lon="3.28121">
        <ele>7</ele>
        <time>2024-11-10T13:14:28Z</time>
      </trkpt>
      <trkpt lat="42.2889" lon="3.28121">
        <ele>7</ele>
        <time>2024-11-10T13:14:29Z</time>
      </trkpt>
      <trkpt lat="42.2889" lon="3.28121">
        <ele>7</ele>
        <time>2024-11-10T13:14:30Z</time>
      </trkpt>
      <trkpt lat="42.2889" lon="3.28121">
        <ele>7</ele>
        <time>2024-11-10T13:14:31Z</time>
      </trkpt>
      <trkpt lat="42.2889" lon="3.28122">
        <ele>7</ele>
        <time>2024-11-10T13:14:32Z</time>
      </trkpt>
      <trkpt lat="42.2889" lon="3.28122">
        <ele>7</ele>
        <time>2024-11-10T13:14:33Z</time>
      </trkpt>
      <trkpt lat="42.2889" lon="3.28122">
        <ele>7</ele>
        <time>2024-11-10T13:14:34Z</time>
      </trkpt>
      <trkpt lat="42.2889" lon="3.28122">
        <ele>7</ele>
        <time>2024-11-10T13:14:35Z</time>
      </trkpt>
      <trkpt lat="42.2889" lon="3.28122">
        <ele>7</ele>
        <time>2024-11-10T13:14:36Z</time>
      </trkpt>
      <trkpt lat="42.2889" lon="3.28121">
        <ele>7</ele>
        <time>2024-11-10T13:14:37Z</time>
      </trkpt>
      <trkpt lat="42.2889" lon="3.28121">
        <ele>7</ele>
        <time>2024-11-10T13:14:38Z</time>
      </trkpt>
      <trkpt lat="42.2889" lon="3.28121">
        <ele>7</ele>
        <time>2024-11-10T13:14:39Z</time>
      </trkpt>
      <trkpt lat="42.2889" lon="3.28121">
        <ele>7</ele>
        <time>2024-11-10T13:14:40Z</time>
      </trkpt>
      <trkpt lat="42.2889" lon="3.28121">
        <ele>7</ele>
        <time>2024-11-10T13:14:41Z</time>
      </trkpt>
      <trkpt lat="42.2889" lon="3.28121">
        <ele>7</ele>
        <time>2024-11-10T13:14:42Z</time>
      </trkpt>
      <trkpt lat="42.2889" lon="3.28121">
        <ele>7</ele>
        <time>2024-11-10T13:14:43Z</time>
      </trkpt>
      <trkpt lat="42.2889" lon="3.28121">
        <ele>7</ele>
        <time>2024-11-10T13:14:44Z</time>
      </trkpt>
      <trkpt lat="42.2889" lon="3.28121">
        <ele>7</ele>
        <time>2024-11-10T13:14:45Z</time>
      </trkpt>
      <trkpt lat="42.2889" lon="3.28121">
        <ele>7</ele>
        <time>2024-11-10T13:14:46Z</time>
      </trkpt>
      <trkpt lat="42.2889" lon="3.28122">
        <ele>7</ele>
        <time>2024-11-10T13:14:47Z</time>
      </trkpt>
      <trkpt lat="42.2889" lon="3.28121">
        <ele>7</ele>
        <time>2024-11-10T13:14:48Z</time>
      </trkpt>
      <trkpt lat="42.2889" lon="3.28121">
        <ele>7</ele>
        <time>2024-11-10T13:14:49Z</time>
      </trkpt>
      <trkpt lat="42.2889" lon="3.28121">
        <ele>7</ele>
        <time>2024-11-10T13:14:50Z</time>
      </trkpt>
      <trkpt lat="42.2889" lon="3.28121">
        <ele>7</ele>
        <time>2024-11-10T13:14:51Z</time>
      </trkpt>
      <trkpt lat="42.2889" lon="3.28121">
        <ele>7</ele>
        <time>2024-11-10T13:14:52Z</time>
      </trkpt>
      <trkpt lat="42.2889" lon="3.28121">
        <ele>7</ele>
        <time>2024-11-10T13:14:53Z</time>
      </trkpt>
      <trkpt lat="42.2889" lon="3.28121">
        <ele>7</ele>
        <time>2024-11-10T13:14:54Z</time>
      </trkpt>
      <trkpt lat="42.2889" lon="3.28121">
        <ele>7</ele>
        <time>2024-11-10T13:14:55Z</time>
      </trkpt>
      <trkpt lat="42.2889" lon="3.28121">
        <ele>7</ele>
        <time>2024-11-10T13:14:56Z</time>
      </trkpt>
      <trkpt lat="42.2889" lon="3.28121">
        <ele>7</ele>
        <time>2024-11-10T13:14:57Z</time>
      </trkpt>
      <trkpt lat="42.2889" lon="3.28121">
        <ele>7</ele>
        <time>2024-11-10T13:14:58Z</time>
      </trkpt>
      <trkpt lat="42.2889" lon="3.28122">
        <ele>7</ele>
        <time>2024-11-10T13:14:59Z</time>
      </trkpt>
      <trkpt lat="42.2889" lon="3.28122">
        <ele>7</ele>
        <time>2024-11-10T13:15:00Z</time>
      </trkpt>
      <trkpt lat="42.2889" lon="3.28122">
        <ele>7</ele>
        <time>2024-11-10T13:15:01Z</time>
      </trkpt>
      <trkpt lat="42.2889" lon="3.28122">
        <ele>7</ele>
        <time>2024-11-10T13:15:02Z</time>
      </trkpt>
      <trkpt lat="42.2889" lon="3.28121">
        <ele>7</ele>
        <time>2024-11-10T13:15:03Z</time>
      </trkpt>
      <trkpt lat="42.2889" lon="3.28121">
        <ele>7</ele>
        <time>2024-11-10T13:15:04Z</time>
      </trkpt>
      <trkpt lat="42.2889" lon="3.28121">
        <ele>7</ele>
        <time>2024-11-10T13:15:05Z</time>
      </trkpt>
      <trkpt lat="42.2889" lon="3.28121">
        <ele>7</ele>
        <time>2024-11-10T13:15:06Z</time>
      </trkpt>
      <trkpt lat="42.2889" lon="3.28121">
        <ele>7</ele>
        <time>2024-11-10T13:15:07Z</time>
      </trkpt>
      <trkpt lat="42.2889" lon="3.28121">
        <ele>7</ele>
        <time>2024-11-10T13:15:08Z</time>
      </trkpt>
      <trkpt lat="42.2889" lon="3.28121">
        <ele>7</ele>
        <time>2024-11-10T13:15:09Z</time>
      </trkpt>
      <trkpt lat="42.2889" lon="3.28121">
        <ele>7</ele>
        <time>2024-11-10T13:15:10Z</time>
      </trkpt>
      <trkpt lat="42.2889" lon="3.28121">
        <ele>7</ele>
        <time>2024-11-10T13:15:11Z</time>
      </trkpt>
      <trkpt lat="42.2889" lon="3.28121">
        <ele>7</ele>
        <time>2024-11-10T13:15:12Z</time>
      </trkpt>
      <trkpt lat="42.2889" lon="3.28122">
        <ele>7</ele>
        <time>2024-11-10T13:15:13Z</time>
      </trkpt>
      <trkpt lat="42.2889" lon="3.28122">
        <ele>7</ele>
        <time>2024-11-10T13:15:14Z</time>
      </trkpt>
      <trkpt lat="42.2889" lon="3.28122">
        <ele>7</ele>
        <time>2024-11-10T13:15:15Z</time>
      </trkpt>
      <trkpt lat="42.2889" lon="3.28122">
        <ele>7</ele>
        <time>2024-11-10T13:15:16Z</time>
      </trkpt>
      <trkpt lat="42.2889" lon="3.28121">
        <ele>7</ele>
        <time>2024-11-10T13:15:17Z</time>
      </trkpt>
      <trkpt lat="42.2889" lon="3.28121">
        <ele>7</ele>
        <time>2024-11-10T13:15:18Z</time>
      </trkpt>
      <trkpt lat="42.2889" lon="3.28121">
        <ele>7</ele>
        <time>2024-11-10T13:15:19Z</time>
      </trkpt>
      <trkpt lat="42.2889" lon="3.28121">
        <ele>7</ele>
        <time>2024-11-10T13:15:20Z</time>
      </trkpt>
      <trkpt lat="42.2889" lon="3.28121">
        <ele>7</ele>
        <time>2024-11-10T13:15:21Z</time>
      </trkpt>
      <trkpt lat="42.2889" lon="3.28121">
        <ele>7</ele>
        <time>2024-11-10T13:15:22Z</time>
      </trkpt>
      <trkpt lat="42.2889" lon="3.28122">
        <ele>7</ele>
        <time>2024-11-10T13:15:23Z</time>
      </trkpt>
      <trkpt lat="42.2889" lon="3.28122">
        <ele>7</ele>
        <time>2024-11-10T13:15:24Z</time>
      </trkpt>
      <trkpt lat="42.2889" lon="3.28122">
        <ele>7</ele>
        <time>2024-11-10T13:15:25Z</time>
      </trkpt>
      <trkpt lat="42.2889" lon="3.28122">
        <ele>7</ele>
        <time>2024-11-10T13:15:26Z</time>
      </trkpt>
      <trkpt lat="42.2889" lon="3.28122">
        <ele>7</ele>
        <time>2024-11-10T13:15:27Z</time>
      </trkpt>
      <trkpt lat="42.2889" lon="3.28121">
        <ele>7</ele>
        <time>2024-11-10T13:15:28Z</time>
      </trkpt>
      <trkpt lat="42.2889" lon="3.28121">
        <ele>7</ele>
        <time>2024-11-10T13:15:29Z</time>
      </trkpt>
      <trkpt lat="42.2889" lon="3.28121">
        <ele>7</ele>
        <time>2024-11-10T13:15:30Z</time>
      </trkpt>
      <trkpt lat="42.2889" lon="3.28121">
        <ele>7</ele>
        <time>2024-11-10T13:15:31Z</time>
      </trkpt>
      <trkpt lat="42.2889" lon="3.28121">
        <ele>7</ele>
        <time>2024-11-10T13:15:32Z</time>
      </trkpt>
      <trkpt lat="42.2889" lon="3.28121">
        <ele>7</ele>
        <time>2024-11-10T13:15:33Z</time>
      </trkpt>
      <trkpt lat="42.2889" lon="3.28121">
        <ele>7</ele>
        <time>2024-11-10T13:15:34Z</time>
      </trkpt>
      <trkpt lat="42.2889" lon="3.28121">
        <ele>7</ele>
        <time>2024-11-10T13:15:35Z</time>
      </trkpt>
      <trkpt lat="42.2889" lon="3.28121">
        <ele>7</ele>
        <time>2024-11-10T13:15:36Z</time>
      </trkpt>
      <trkpt lat="42.2889" lon="3.28121">
        <ele>7</ele>
        <time>2024-11-10T13:15:37Z</time>
      </trkpt>
      <trkpt lat="42.2889" lon="3.28122">
        <ele>7</ele>
        <time>2024-11-10T13:15:38Z</time>
      </trkpt>
      <trkpt lat="42.2889" lon="3.28122">
        <ele>7</ele>
        <time>2024-11-10T13:15:39Z</time>
      </trkpt>
      <trkpt lat="42.2889" lon="3.28122">
        <ele>7</ele>
        <time>2024-11-10T13:15:40Z</time>
      </trkpt>
      <trkpt lat="42.2889" lon="3.28122">
        <ele>7</ele>
        <time>2024-11-10T13:15:41Z</time>
      </trkpt>
      <trkpt lat="42.2889" lon="3.28122">
        <ele>7</ele>
        <time>2024-11-10T13:15:42Z</time>
      </trkpt>
      <trkpt lat="42.2889" lon="3.28125">
        <ele>7</ele>
        <time>2024-11-10T13:15:44Z</time>
      </trkpt>
      <trkpt lat="42.2889" lon="3.28125">
        <ele>7</ele>
        <time>2024-11-10T13:15:45Z</time>
      </trkpt>
      <trkpt lat="42.2889" lon="3.28125">
        <ele>7</ele>
        <time>2024-11-10T13:15:46Z</time>
      </trkpt>
      <trkpt lat="42.2889" lon="3.28125">
        <ele>7</ele>
        <time>2024-11-10T13:15:47Z</time>
      </trkpt>
      <trkpt lat="42.2889" lon="3.28125">
        <ele>7</ele>
        <time>2024-11-10T13:15:48Z</time>
      </trkpt>
      <trkpt lat="42.2889" lon="3.28125">
        <ele>7</ele>
        <time>2024-11-10T13:15:49Z</time>
      </trkpt>
      <trkpt lat="42.2889" lon="3.28125">
        <ele>7</ele>
        <time>2024-11-10T13:15:50Z</time>
      </trkpt>
      <trkpt lat="42.2889" lon="3.28125">
        <ele>7</ele>
        <time>2024-11-10T13:15:51Z</time>
      </trkpt>
      <trkpt lat="42.2889" lon="3.28125">
        <ele>7</ele>
        <time>2024-11-10T13:15:52Z</time>
      </trkpt>
      <trkpt lat="42.2889" lon="3.28125">
        <ele>7</ele>
        <time>2024-11-10T13:15:53Z</time>
      </trkpt>
      <trkpt lat="42.2889" lon="3.28125">
        <ele>7</ele>
        <time>2024-11-10T13:15:54Z</time>
      </trkpt>
      <trkpt lat="42.2889" lon="3.28125">
        <ele>7</ele>
        <time>2024-11-10T13:15:55Z</time>
      </trkpt>
      <trkpt lat="42.2889" lon="3.28125">
        <ele>7</ele>
        <time>2024-11-10T13:15:56Z</time>
      </trkpt>
      <trkpt lat="42.28889" lon="3.28124">
        <ele>7</ele>
        <time>2024-11-10T13:15:57Z</time>
      </trkpt>
      <trkpt lat="42.28889" lon="3.28124">
        <ele>7</ele>
        <time>2024-11-10T13:15:58Z</time>
      </trkpt>
      <trkpt lat="42.28889" lon="3.28124">
        <ele>7</ele>
        <time>2024-11-10T13:15:59Z</time>
      </trkpt>
      <trkpt lat="42.28889" lon="3.28123">
        <ele>7</ele>
        <time>2024-11-10T13:16:00Z</time>
      </trkpt>
      <trkpt lat="42.28889" lon="3.28123">
        <ele>7</ele>
        <time>2024-11-10T13:16:01Z</time>
      </trkpt>
      <trkpt lat="42.28889" lon="3.28123">
        <ele>7</ele>
        <time>2024-11-10T13:16:02Z</time>
      </trkpt>
      <trkpt lat="42.28889" lon="3.28123">
        <ele>7</ele>
        <time>2024-11-10T13:16:03Z</time>
      </trkpt>
      <trkpt lat="42.28889" lon="3.28123">
        <ele>7</ele>
        <time>2024-11-10T13:16:04Z</time>
      </trkpt>
      <trkpt lat="42.28888" lon="3.28123">
        <ele>7</ele>
        <time>2024-11-10T13:16:05Z</time>
      </trkpt>
      <trkpt lat="42.28888" lon="3.28124">
        <ele>7</ele>
        <time>2024-11-10T13:16:06Z</time>
      </trkpt>
      <trkpt lat="42.28888" lon="3.28124">
        <ele>7</ele>
        <time>2024-11-10T13:16:07Z</time>
      </trkpt>
      <trkpt lat="42.28888" lon="3.28124">
        <ele>7</ele>
        <time>2024-11-10T13:16:08Z</time>
      </trkpt>
      <trkpt lat="42.28888" lon="3.28124">
        <ele>7</ele>
        <time>2024-11-10T13:16:09Z</time>
      </trkpt>
      <trkpt lat="42.28888" lon="3.28124">
        <ele>7</ele>
        <time>2024-11-10T13:16:10Z</time>
      </trkpt>
      <trkpt lat="42.28888" lon="3.28124">
        <ele>7</ele>
        <time>2024-11-10T13:16:11Z</time>
      </trkpt>
      <trkpt lat="42.28888" lon="3.28124">
        <ele>7</ele>
        <time>2024-11-10T13:16:12Z</time>
      </trkpt>
      <trkpt lat="42.28888" lon="3.28124">
        <ele>7</ele>
        <time>2024-11-10T13:16:13Z</time>
      </trkpt>
      <trkpt lat="42.28888" lon="3.28124">
        <ele>7</ele>
        <time>2024-11-10T13:16:14Z</time>
      </trkpt>
      <trkpt lat="42.28888" lon="3.28124">
        <ele>7</ele>
        <time>2024-11-10T13:16:15Z</time>
      </trkpt>
      <trkpt lat="42.28888" lon="3.28124">
        <ele>7</ele>
        <time>2024-11-10T13:16:16Z</time>
      </trkpt>
      <trkpt lat="42.28888" lon="3.28124">
        <ele>7</ele>
        <time>2024-11-10T13:16:17Z</time>
      </trkpt>
      <trkpt lat="42.28888" lon="3.28124">
        <ele>7</ele>
        <time>2024-11-10T13:16:18Z</time>
      </trkpt>
      <trkpt lat="42.28888" lon="3.28124">
        <ele>7</ele>
        <time>2024-11-10T13:16:19Z</time>
      </trkpt>
      <trkpt lat="42.28888" lon="3.28124">
        <ele>7</ele>
        <time>2024-11-10T13:16:20Z</time>
      </trkpt>
      <trkpt lat="42.28888" lon="3.28124">
        <ele>7</ele>
        <time>2024-11-10T13:16:21Z</time>
      </trkpt>
      <trkpt lat="42.28888" lon="3.28124">
        <ele>7</ele>
        <time>2024-11-10T13:16:22Z</time>
      </trkpt>
      <trkpt lat="42.28888" lon="3.28124">
        <ele>7</ele>
        <time>2024-11-10T13:16:23Z</time>
      </trkpt>
      <trkpt lat="42.28888" lon="3.28124">
        <ele>7</ele>
        <time>2024-11-10T13:16:24Z</time>
      </trkpt>
      <trkpt lat="42.28888" lon="3.28124">
        <ele>7</ele>
        <time>2024-11-10T13:16:25Z</time>
      </trkpt>
      <trkpt lat="42.28888" lon="3.28124">
        <ele>7</ele>
        <time>2024-11-10T13:16:26Z</time>
      </trkpt>
      <trkpt lat="42.28888" lon="3.28124">
        <ele>7</ele>
        <time>2024-11-10T13:16:27Z</time>
      </trkpt>
      <trkpt lat="42.28888" lon="3.28124">
        <ele>7</ele>
        <time>2024-11-10T13:16:28Z</time>
      </trkpt>
      <trkpt lat="42.28888" lon="3.28124">
        <ele>7</ele>
        <time>2024-11-10T13:16:29Z</time>
      </trkpt>
      <trkpt lat="42.28888" lon="3.28124">
        <ele>7</ele>
        <time>2024-11-10T13:16:30Z</time>
      </trkpt>
      <trkpt lat="42.28888" lon="3.28124">
        <ele>7</ele>
        <time>2024-11-10T13:16:31Z</time>
      </trkpt>
      <trkpt lat="42.28888" lon="3.28124">
        <ele>7</ele>
        <time>2024-11-10T13:16:32Z</time>
      </trkpt>
      <trkpt lat="42.28888" lon="3.28124">
        <ele>7</ele>
        <time>2024-11-10T13:16:33Z</time>
      </trkpt>
      <trkpt lat="42.28888" lon="3.28124">
        <ele>7</ele>
        <time>2024-11-10T13:16:34Z</time>
      </trkpt>
      <trkpt lat="42.28889" lon="3.28124">
        <ele>7</ele>
        <time>2024-11-10T13:16:35Z</time>
      </trkpt>
      <trkpt lat="42.28889" lon="3.28124">
        <ele>7</ele>
        <time>2024-11-10T13:16:36Z</time>
      </trkpt>
      <trkpt lat="42.28889" lon="3.28124">
        <ele>7</ele>
        <time>2024-11-10T13:16:37Z</time>
      </trkpt>
      <trkpt lat="42.28889" lon="3.28124">
        <ele>7</ele>
        <time>2024-11-10T13:16:38Z</time>
      </trkpt>
      <trkpt lat="42.28889" lon="3.28124">
        <ele>7</ele>
        <time>2024-11-10T13:16:39Z</time>
      </trkpt>
      <trkpt lat="42.28889" lon="3.28124">
        <ele>7</ele>
        <time>2024-11-10T13:16:40Z</time>
      </trkpt>
      <trkpt lat="42.28889" lon="3.28124">
        <ele>7</ele>
        <time>2024-11-10T13:16:41Z</time>
      </trkpt>
      <trkpt lat="42.28889" lon="3.28124">
        <ele>7</ele>
        <time>2024-11-10T13:16:42Z</time>
      </trkpt>
      <trkpt lat="42.28889" lon="3.28124">
        <ele>7</ele>
        <time>2024-11-10T13:16:43Z</time>
      </trkpt>
      <trkpt lat="42.28889" lon="3.28124">
        <ele>7</ele>
        <time>2024-11-10T13:16:44Z</time>
      </trkpt>
      <trkpt lat="42.28889" lon="3.28124">
        <ele>7</ele>
        <time>2024-11-10T13:16:45Z</time>
      </trkpt>
      <trkpt lat="42.28889" lon="3.28124">
        <ele>7</ele>
        <time>2024-11-10T13:16:46Z</time>
      </trkpt>
      <trkpt lat="42.28889" lon="3.28122">
        <ele>7</ele>
        <time>2024-11-10T13:16:47Z</time>
      </trkpt>
      <trkpt lat="42.28889" lon="3.28122">
        <ele>7</ele>
        <time>2024-11-10T13:16:48Z</time>
      </trkpt>
      <trkpt lat="42.28889" lon="3.28122">
        <ele>7</ele>
        <time>2024-11-10T13:16:49Z</time>
      </trkpt>
      <trkpt lat="42.28889" lon="3.28122">
        <ele>7</ele>
        <time>2024-11-10T13:16:50Z</time>
      </trkpt>
      <trkpt lat="42.28889" lon="3.28122">
        <ele>7</ele>
        <time>2024-11-10T13:16:51Z</time>
      </trkpt>
      <trkpt lat="42.28889" lon="3.28122">
        <ele>7</ele>
        <time>2024-11-10T13:16:52Z</time>
      </trkpt>
      <trkpt lat="42.28889" lon="3.28124">
        <ele>7</ele>
        <time>2024-11-10T13:16:53Z</time>
      </trkpt>
      <trkpt lat="42.28889" lon="3.28124">
        <ele>7</ele>
        <time>2024-11-10T13:16:54Z</time>
      </trkpt>
      <trkpt lat="42.28889" lon="3.28124">
        <ele>7</ele>
        <time>2024-11-10T13:16:55Z</time>
      </trkpt>
      <trkpt lat="42.28889" lon="3.28124">
        <ele>7</ele>
        <time>2024-11-10T13:16:56Z</time>
      </trkpt>
      <trkpt lat="42.28889" lon="3.28124">
        <ele>7</ele>
        <time>2024-11-10T13:16:57Z</time>
      </trkpt>
      <trkpt lat="42.28889" lon="3.28123">
        <ele>7</ele>
        <time>2024-11-10T13:16:58Z</time>
      </trkpt>
      <trkpt lat="42.28889" lon="3.28122">
        <ele>7</ele>
        <time>2024-11-10T13:16:59Z</time>
      </trkpt>
      <trkpt lat="42.28889" lon="3.28122">
        <ele>7</ele>
        <time>2024-11-10T13:17:00Z</time>
      </trkpt>
      <trkpt lat="42.28889" lon="3.28122">
        <ele>7</ele>
        <time>2024-11-10T13:17:01Z</time>
      </trkpt>
      <trkpt lat="42.28889" lon="3.28122">
        <ele>7</ele>
        <time>2024-11-10T13:17:02Z</time>
      </trkpt>
      <trkpt lat="42.28889" lon="3.28122">
        <ele>7</ele>
        <time>2024-11-10T13:17:03Z</time>
      </trkpt>
      <trkpt lat="42.28889" lon="3.28122">
        <ele>7</ele>
        <time>2024-11-10T13:17:04Z</time>
      </trkpt>
      <trkpt lat="42.28889" lon="3.28122">
        <ele>7</ele>
        <time>2024-11-10T13:17:05Z</time>
      </trkpt>
      <trkpt lat="42.28889" lon="3.28122">
        <ele>7</ele>
        <time>2024-11-10T13:17:06Z</time>
      </trkpt>
      <trkpt lat="42.28889" lon="3.28122">
        <ele>7</ele>
        <time>2024-11-10T13:17:07Z</time>
      </trkpt>
      <trkpt lat="42.28889" lon="3.28122">
        <ele>7</ele>
        <time>2024-11-10T13:17:08Z</time>
      </trkpt>
      <trkpt lat="42.28889" lon="3.28122">
        <ele>7</ele>
        <time>2024-11-10T13:17:09Z</time>
      </trkpt>
      <trkpt lat="42.28889" lon="3.28122">
        <ele>7</ele>
        <time>2024-11-10T13:17:10Z</time>
      </trkpt>
      <trkpt lat="42.28889" lon="3.28122">
        <ele>7</ele>
        <time>2024-11-10T13:17:11Z</time>
      </trkpt>
      <trkpt lat="42.28889" lon="3.28122">
        <ele>7</ele>
        <time>2024-11-10T13:17:12Z</time>
      </trkpt>
      <trkpt lat="42.28889" lon="3.28122">
        <ele>7</ele>
        <time>2024-11-10T13:17:13Z</time>
      </trkpt>
      <trkpt lat="42.28889" lon="3.28122">
        <ele>7</ele>
        <time>2024-11-10T13:17:14Z</time>
      </trkpt>
      <trkpt lat="42.28889" lon="3.28122">
        <ele>7</ele>
        <time>2024-11-10T13:17:15Z</time>
      </trkpt>
      <trkpt lat="42.28889" lon="3.28122">
        <ele>7</ele>
        <time>2024-11-10T13:17:16Z</time>
      </trkpt>
      <trkpt lat="42.28889" lon="3.28122">
        <ele>7</ele>
        <time>2024-11-10T13:17:17Z</time>
      </trkpt>
      <trkpt lat="42.28889" lon="3.28122">
        <ele>7</ele>
        <time>2024-11-10T13:17:18Z</time>
      </trkpt>
      <trkpt lat="42.28889" lon="3.28122">
        <ele>7</ele>
        <time>2024-11-10T13:17:19Z</time>
      </trkpt>
      <trkpt lat="42.28889" lon="3.28122">
        <ele>7</ele>
        <time>2024-11-10T13:17:20Z</time>
      </trkpt>
      <trkpt lat="42.28889" lon="3.28122">
        <ele>7</ele>
        <time>2024-11-10T13:17:21Z</time>
      </trkpt>
      <trkpt lat="42.28889" lon="3.28122">
        <ele>7</ele>
        <time>2024-11-10T13:17:22Z</time>
      </trkpt>
      <trkpt lat="42.2889" lon="3.28122">
        <ele>6.9</ele>
        <time>2024-11-10T13:17:23Z</time>
      </trkpt>
      <trkpt lat="42.2889" lon="3.28122">
        <ele>6.9</ele>
        <time>2024-11-10T13:17:24Z</time>
      </trkpt>
      <trkpt lat="42.2889" lon="3.28122">
        <ele>6.9</ele>
        <time>2024-11-10T13:17:25Z</time>
      </trkpt>
      <trkpt lat="42.28889" lon="3.28122">
        <ele>6.9</ele>
        <time>2024-11-10T13:17:26Z</time>
      </trkpt>
      <trkpt lat="42.28889" lon="3.28122">
        <ele>6.9</ele>
        <time>2024-11-10T13:17:27Z</time>
      </trkpt>
      <trkpt lat="42.2889" lon="3.28122">
        <ele>6.9</ele>
        <time>2024-11-10T13:17:28Z</time>
      </trkpt>
      <trkpt lat="42.2889" lon="3.28122">
        <ele>6.9</ele>
        <time>2024-11-10T13:17:29Z</time>
      </trkpt>
      <trkpt lat="42.2889" lon="3.28122">
        <ele>6.9</ele>
        <time>2024-11-10T13:17:30Z</time>
      </trkpt>
      <trkpt lat="42.2889" lon="3.28122">
        <ele>6.9</ele>
        <time>2024-11-10T13:17:31Z</time>
      </trkpt>
      <trkpt lat="42.2889" lon="3.28122">
        <ele>6.9</ele>
        <time>2024-11-10T13:17:32Z</time>
      </trkpt>
      <trkpt lat="42.2889" lon="3.28121">
        <ele>6.9</ele>
        <time>2024-11-10T13:17:33Z</time>
      </trkpt>
      <trkpt lat="42.2889" lon="3.28121">
        <ele>6.9</ele>
        <time>2024-11-10T13:17:34Z</time>
      </trkpt>
      <trkpt lat="42.2889" lon="3.28121">
        <ele>6.9</ele>
        <time>2024-11-10T13:17:35Z</time>
      </trkpt>
      <trkpt lat="42.2889" lon="3.28121">
        <ele>6.9</ele>
        <time>2024-11-10T13:17:36Z</time>
      </trkpt>
      <trkpt lat="42.2889" lon="3.28121">
        <ele>6.9</ele>
        <time>2024-11-10T13:17:37Z</time>
      </trkpt>
      <trkpt lat="42.2889" lon="3.28121">
        <ele>6.9</ele>
        <time>2024-11-10T13:17:38Z</time>
      </trkpt>
      <trkpt lat="42.2889" lon="3.28121">
        <ele>6.9</ele>
        <time>2024-11-10T13:17:39Z</time>
      </trkpt>
      <trkpt lat="42.2889" lon="3.28121">
        <ele>6.9</ele>
        <time>2024-11-10T13:17:40Z</time>
      </trkpt>
      <trkpt lat="42.2889" lon="3.28121">
        <ele>6.9</ele>
        <time>2024-11-10T13:17:41Z</time>
      </trkpt>
      <trkpt lat="42.2889" lon="3.28121">
        <ele>6.9</ele>
        <time>2024-11-10T13:17:42Z</time>
      </trkpt>
      <trkpt lat="42.28889" lon="3.28121">
        <ele>6.9</ele>
        <time>2024-11-10T13:17:43Z</time>
      </trkpt>
      <trkpt lat="42.28889" lon="3.2812">
        <ele>6.9</ele>
        <time>2024-11-10T13:17:44Z</time>
      </trkpt>
      <trkpt lat="42.28889" lon="3.2812">
        <ele>6.9</ele>
        <time>2024-11-10T13:17:45Z</time>
      </trkpt>
      <trkpt lat="42.28889" lon="3.2812">
        <ele>6.9</ele>
        <time>2024-11-10T13:17:46Z</time>
      </trkpt>
      <trkpt lat="42.28889" lon="3.2812">
        <ele>6.9</ele>
        <time>2024-11-10T13:17:47Z</time>
      </trkpt>
      <trkpt lat="42.28889" lon="3.28121">
        <ele>6.9</ele>
        <time>2024-11-10T13:17:48Z</time>
      </trkpt>
      <trkpt lat="42.28889" lon="3.28121">
        <ele>6.9</ele>
        <time>2024-11-10T13:17:49Z</time>
      </trkpt>
      <trkpt lat="42.28889" lon="3.28121">
        <ele>6.9</ele>
        <time>2024-11-10T13:17:50Z</time>
      </trkpt>
      <trkpt lat="42.28889" lon="3.28121">
        <ele>6.9</ele>
        <time>2024-11-10T13:17:51Z</time>
      </trkpt>
      <trkpt lat="42.28889" lon="3.28121">
        <ele>6.9</ele>
        <time>2024-11-10T13:17:52Z</time>
      </trkpt>
      <trkpt lat="42.28889" lon="3.28121">
        <ele>6.9</ele>
        <time>2024-11-10T13:17:53Z</time>
      </trkpt>
      <trkpt lat="42.28889" lon="3.28121">
        <ele>6.9</ele>
        <time>2024-11-10T13:17:54Z</time>
      </trkpt>
      <trkpt lat="42.28889" lon="3.28121">
        <ele>6.9</ele>
        <time>2024-11-10T13:17:55Z</time>
      </trkpt>
      <trkpt lat="42.28889" lon="3.28121">
        <ele>6.9</ele>
        <time>2024-11-10T13:17:56Z</time>
      </trkpt>
      <trkpt lat="42.28889" lon="3.28121">
        <ele>6.9</ele>
        <time>2024-11-10T13:17:57Z</time>
      </trkpt>
      <trkpt lat="42.28889" lon="3.28121">
        <ele>6.9</ele>
        <time>2024-11-10T13:17:58Z</time>
      </trkpt>
      <trkpt lat="42.28889" lon="3.2812">
        <ele>6.9</ele>
        <time>2024-11-10T13:17:59Z</time>
      </trkpt>
      <trkpt lat="42.28889" lon="3.2812">
        <ele>6.9</ele>
        <time>2024-11-10T13:18:00Z</time>
      </trkpt>
      <trkpt lat="42.28889" lon="3.2812">
        <ele>6.9</ele>
        <time>2024-11-10T13:18:01Z</time>
      </trkpt>
      <trkpt lat="42.28889" lon="3.2812">
        <ele>6.9</ele>
        <time>2024-11-10T13:18:02Z</time>
      </trkpt>
      <trkpt lat="42.28889" lon="3.28121">
        <ele>6.9</ele>
        <time>2024-11-10T13:18:03Z</time>
      </trkpt>
      <trkpt lat="42.28889" lon="3.28122">
        <ele>6.9</ele>
        <time>2024-11-10T13:18:04Z</time>
      </trkpt>
      <trkpt lat="42.28889" lon="3.28122">
        <ele>6.9</ele>
        <time>2024-11-10T13:18:05Z</time>
      </trkpt>
      <trkpt lat="42.28889" lon="3.28122">
        <ele>6.9</ele>
        <time>2024-11-10T13:18:06Z</time>
      </trkpt>
      <trkpt lat="42.28889" lon="3.28122">
        <ele>6.9</ele>
        <time>2024-11-10T13:18:07Z</time>
      </trkpt>
      <trkpt lat="42.28889" lon="3.28122">
        <ele>6.9</ele>
        <time>2024-11-10T13:18:08Z</time>
      </trkpt>
      <trkpt lat="42.28889" lon="3.28122">
        <ele>6.9</ele>
        <time>2024-11-10T13:18:09Z</time>
      </trkpt>
      <trkpt lat="42.28889" lon="3.28122">
        <ele>6.9</ele>
        <time>2024-11-10T13:18:10Z</time>
      </trkpt>
      <trkpt lat="42.28889" lon="3.28122">
        <ele>6.9</ele>
        <time>2024-11-10T13:18:11Z</time>
      </trkpt>
      <trkpt lat="42.28889" lon="3.28122">
        <ele>6.9</ele>
        <time>2024-11-10T13:18:12Z</time>
      </trkpt>
      <trkpt lat="42.28889" lon="3.28122">
        <ele>6.9</ele>
        <time>2024-11-10T13:18:13Z</time>
      </trkpt>
      <trkpt lat="42.28889" lon="3.28122">
        <ele>6.9</ele>
        <time>2024-11-10T13:18:14Z</time>
      </trkpt>
      <trkpt lat="42.28889" lon="3.28122">
        <ele>6.9</ele>
        <time>2024-11-10T13:18:15Z</time>
      </trkpt>
      <trkpt lat="42.28889" lon="3.28122">
        <ele>6.9</ele>
        <time>2024-11-10T13:18:16Z</time>
      </trkpt>
      <trkpt lat="42.28889" lon="3.28122">
        <ele>6.9</ele>
        <time>2024-11-10T13:18:17Z</time>
      </trkpt>
      <trkpt lat="42.28888" lon="3.28126">
        <ele>6.9</ele>
        <time>2024-11-10T13:18:18Z</time>
      </trkpt>
      <trkpt lat="42.28888" lon="3.28126">
        <ele>6.9</ele>
        <time>2024-11-10T13:18:19Z</time>
      </trkpt>
      <trkpt lat="42.28888" lon="3.28126">
        <ele>6.9</ele>
        <time>2024-11-10T13:18:20Z</time>
      </trkpt>
      <trkpt lat="42.28888" lon="3.28126">
        <ele>6.9</ele>
        <time>2024-11-10T13:18:21Z</time>
      </trkpt>
      <trkpt lat="42.28888" lon="3.28126">
        <ele>6.9</ele>
        <time>2024-11-10T13:18:22Z</time>
      </trkpt>
      <trkpt lat="42.28888" lon="3.28124">
        <ele>6.9</ele>
        <time>2024-11-10T13:18:23Z</time>
      </trkpt>
      <trkpt lat="42.28888" lon="3.28123">
        <ele>6.9</ele>
        <time>2024-11-10T13:18:24Z</time>
      </trkpt>
      <trkpt lat="42.28888" lon="3.28123">
        <ele>6.9</ele>
        <time>2024-11-10T13:18:25Z</time>
      </trkpt>
      <trkpt lat="42.28888" lon="3.28123">
        <ele>6.9</ele>
        <time>2024-11-10T13:18:26Z</time>
      </trkpt>
      <trkpt lat="42.28888" lon="3.28123">
        <ele>6.9</ele>
        <time>2024-11-10T13:18:27Z</time>
      </trkpt>
      <trkpt lat="42.28889" lon="3.28122">
        <ele>6.9</ele>
        <time>2024-11-10T13:18:28Z</time>
      </trkpt>
      <trkpt lat="42.28889" lon="3.28122">
        <ele>6.9</ele>
        <time>2024-11-10T13:18:29Z</time>
      </trkpt>
      <trkpt lat="42.28889" lon="3.28122">
        <ele>6.9</ele>
        <time>2024-11-10T13:18:30Z</time>
      </trkpt>
      <trkpt lat="42.28889" lon="3.28122">
        <ele>6.9</ele>
        <time>2024-11-10T13:18:31Z</time>
      </trkpt>
      <trkpt lat="42.28889" lon="3.28122">
        <ele>6.9</ele>
        <time>2024-11-10T13:18:32Z</time>
      </trkpt>
      <trkpt lat="42.28889" lon="3.28123">
        <ele>6.9</ele>
        <time>2024-11-10T13:18:33Z</time>
      </trkpt>
      <trkpt lat="42.28889" lon="3.28123">
        <ele>6.9</ele>
        <time>2024-11-10T13:18:34Z</time>
      </trkpt>
      <trkpt lat="42.28889" lon="3.28123">
        <ele>6.9</ele>
        <time>2024-11-10T13:18:35Z</time>
      </trkpt>
      <trkpt lat="42.28889" lon="3.28123">
        <ele>6.9</ele>
        <time>2024-11-10T13:18:36Z</time>
      </trkpt>
      <trkpt lat="42.28889" lon="3.28123">
        <ele>6.9</ele>
        <time>2024-11-10T13:18:37Z</time>
      </trkpt>
      <trkpt lat="42.28889" lon="3.28123">
        <ele>6.9</ele>
        <time>2024-11-10T13:18:38Z</time>
      </trkpt>
      <trkpt lat="42.28889" lon="3.28123">
        <ele>6.9</ele>
        <time>2024-11-10T13:18:39Z</time>
      </trkpt>
      <trkpt lat="42.28889" lon="3.28123">
        <ele>6.9</ele>
        <time>2024-11-10T13:18:40Z</time>
      </trkpt>
      <trkpt lat="42.28889" lon="3.28123">
        <ele>6.9</ele>
        <time>2024-11-10T13:18:41Z</time>
      </trkpt>
      <trkpt lat="42.28889" lon="3.28123">
        <ele>6.9</ele>
        <time>2024-11-10T13:18:42Z</time>
      </trkpt>
      <trkpt lat="42.28889" lon="3.28123">
        <ele>6.9</ele>
        <time>2024-11-10T13:18:43Z</time>
      </trkpt>
      <trkpt lat="42.28889" lon="3.28123">
        <ele>6.9</ele>
        <time>2024-11-10T13:18:44Z</time>
      </trkpt>
      <trkpt lat="42.28889" lon="3.28123">
        <ele>6.9</ele>
        <time>2024-11-10T13:18:45Z</time>
      </trkpt>
      <trkpt lat="42.28889" lon="3.28123">
        <ele>6.9</ele>
        <time>2024-11-10T13:18:46Z</time>
      </trkpt>
      <trkpt lat="42.28889" lon="3.28123">
        <ele>6.9</ele>
        <time>2024-11-10T13:18:47Z</time>
      </trkpt>
      <trkpt lat="42.28889" lon="3.28122">
        <ele>6.9</ele>
        <time>2024-11-10T13:18:48Z</time>
      </trkpt>
      <trkpt lat="42.28889" lon="3.28121">
        <ele>6.9</ele>
        <time>2024-11-10T13:18:49Z</time>
      </trkpt>
      <trkpt lat="42.28889" lon="3.28121">
        <ele>6.9</ele>
        <time>2024-11-10T13:18:50Z</time>
      </trkpt>
      <trkpt lat="42.28889" lon="3.28121">
        <ele>6.9</ele>
        <time>2024-11-10T13:18:51Z</time>
      </trkpt>
      <trkpt lat="42.28889" lon="3.28121">
        <ele>6.9</ele>
        <time>2024-11-10T13:18:52Z</time>
      </trkpt>
      <trkpt lat="42.28889" lon="3.28123">
        <ele>6.9</ele>
        <time>2024-11-10T13:18:53Z</time>
      </trkpt>
      <trkpt lat="42.28889" lon="3.28123">
        <ele>6.9</ele>
        <time>2024-11-10T13:18:54Z</time>
      </trkpt>
      <trkpt lat="42.28889" lon="3.28123">
        <ele>6.9</ele>
        <time>2024-11-10T13:18:55Z</time>
      </trkpt>
      <trkpt lat="42.28889" lon="3.28123">
        <ele>6.9</ele>
        <time>2024-11-10T13:18:56Z</time>
      </trkpt>
      <trkpt lat="42.28889" lon="3.28123">
        <ele>6.9</ele>
        <time>2024-11-10T13:18:57Z</time>
      </trkpt>
      <trkpt lat="42.28889" lon="3.28122">
        <ele>6.9</ele>
        <time>2024-11-10T13:18:58Z</time>
      </trkpt>
      <trkpt lat="42.28889" lon="3.28121">
        <ele>6.9</ele>
        <time>2024-11-10T13:18:59Z</time>
      </trkpt>
      <trkpt lat="42.28889" lon="3.28121">
        <ele>6.9</ele>
        <time>2024-11-10T13:19:00Z</time>
      </trkpt>
      <trkpt lat="42.28889" lon="3.28121">
        <ele>6.9</ele>
        <time>2024-11-10T13:19:01Z</time>
      </trkpt>
      <trkpt lat="42.28889" lon="3.28121">
        <ele>6.9</ele>
        <time>2024-11-10T13:19:02Z</time>
      </trkpt>
      <trkpt lat="42.28889" lon="3.28121">
        <ele>6.9</ele>
        <time>2024-11-10T13:19:03Z</time>
      </trkpt>
      <trkpt lat="42.28889" lon="3.28121">
        <ele>6.9</ele>
        <time>2024-11-10T13:19:04Z</time>
      </trkpt>
      <trkpt lat="42.28889" lon="3.28121">
        <ele>6.9</ele>
        <time>2024-11-10T13:19:05Z</time>
      </trkpt>
      <trkpt lat="42.28889" lon="3.28121">
        <ele>6.9</ele>
        <time>2024-11-10T13:19:06Z</time>
      </trkpt>
      <trkpt lat="42.28889" lon="3.28121">
        <ele>6.9</ele>
        <time>2024-11-10T13:19:07Z</time>
      </trkpt>
      <trkpt lat="42.28889" lon="3.28121">
        <ele>6.9</ele>
        <time>2024-11-10T13:19:08Z</time>
      </trkpt>
      <trkpt lat="42.28889" lon="3.28122">
        <ele>6.9</ele>
        <time>2024-11-10T13:19:09Z</time>
      </trkpt>
      <trkpt lat="42.28889" lon="3.28123">
        <ele>6.9</ele>
        <time>2024-11-10T13:19:10Z</time>
      </trkpt>
      <trkpt lat="42.28889" lon="3.28123">
        <ele>6.9</ele>
        <time>2024-11-10T13:19:11Z</time>
      </trkpt>
      <trkpt lat="42.28889" lon="3.28123">
        <ele>6.9</ele>
        <time>2024-11-10T13:19:12Z</time>
      </trkpt>
      <trkpt lat="42.28889" lon="3.28123">
        <ele>6.9</ele>
        <time>2024-11-10T13:19:13Z</time>
      </trkpt>
      <trkpt lat="42.28889" lon="3.28122">
        <ele>6.9</ele>
        <time>2024-11-10T13:19:14Z</time>
      </trkpt>
      <trkpt lat="42.28889" lon="3.28121">
        <ele>6.9</ele>
        <time>2024-11-10T13:19:15Z</time>
      </trkpt>
      <trkpt lat="42.28889" lon="3.28121">
        <ele>6.9</ele>
        <time>2024-11-10T13:19:16Z</time>
      </trkpt>
      <trkpt lat="42.28889" lon="3.28121">
        <ele>6.9</ele>
        <time>2024-11-10T13:19:17Z</time>
      </trkpt>
      <trkpt lat="42.28889" lon="3.28121">
        <ele>6.9</ele>
        <time>2024-11-10T13:19:18Z</time>
      </trkpt>
      <trkpt lat="42.28889" lon="3.28122">
        <ele>6.9</ele>
        <time>2024-11-10T13:19:19Z</time>
      </trkpt>
      <trkpt lat="42.28889" lon="3.28122">
        <ele>6.9</ele>
        <time>2024-11-10T13:19:20Z</time>
      </trkpt>
      <trkpt lat="42.28889" lon="3.28122">
        <ele>6.9</ele>
        <time>2024-11-10T13:19:21Z</time>
      </trkpt>
      <trkpt lat="42.28889" lon="3.28122">
        <ele>6.9</ele>
        <time>2024-11-10T13:19:22Z</time>
      </trkpt>
      <trkpt lat="42.28889" lon="3.28122">
        <ele>6.9</ele>
        <time>2024-11-10T13:19:23Z</time>
      </trkpt>
      <trkpt lat="42.28889" lon="3.28121">
        <ele>6.9</ele>
        <time>2024-11-10T13:19:24Z</time>
      </trkpt>
      <trkpt lat="42.28889" lon="3.28121">
        <ele>6.9</ele>
        <time>2024-11-10T13:19:25Z</time>
      </trkpt>
      <trkpt lat="42.2889" lon="3.28121">
        <ele>6.9</ele>
        <time>2024-11-10T13:19:26Z</time>
      </trkpt>
      <trkpt lat="42.28889" lon="3.28121">
        <ele>6.9</ele>
        <time>2024-11-10T13:19:27Z</time>
      </trkpt>
      <trkpt lat="42.2889" lon="3.28121">
        <ele>6.9</ele>
        <time>2024-11-10T13:19:28Z</time>
      </trkpt>
      <trkpt lat="42.2889" lon="3.28121">
        <ele>6.9</ele>
        <time>2024-11-10T13:19:29Z</time>
      </trkpt>
      <trkpt lat="42.2889" lon="3.28121">
        <ele>6.9</ele>
        <time>2024-11-10T13:19:30Z</time>
      </trkpt>
      <trkpt lat="42.2889" lon="3.28121">
        <ele>6.9</ele>
        <time>2024-11-10T13:19:31Z</time>
      </trkpt>
      <trkpt lat="42.2889" lon="3.28121">
        <ele>6.9</ele>
        <time>2024-11-10T13:19:32Z</time>
      </trkpt>
      <trkpt lat="42.2889" lon="3.28121">
        <ele>6.9</ele>
        <time>2024-11-10T13:19:33Z</time>
      </trkpt>
      <trkpt lat="42.2889" lon="3.28121">
        <ele>6.9</ele>
        <time>2024-11-10T13:19:34Z</time>
      </trkpt>
      <trkpt lat="42.2889" lon="3.28121">
        <ele>6.9</ele>
        <time>2024-11-10T13:19:35Z</time>
      </trkpt>
      <trkpt lat="42.2889" lon="3.28121">
        <ele>6.9</ele>
        <time>2024-11-10T13:19:36Z</time>
      </trkpt>
      <trkpt lat="42.2889" lon="3.28121">
        <ele>6.9</ele>
        <time>2024-11-10T13:19:37Z</time>
      </trkpt>
      <trkpt lat="42.2889" lon="3.28121">
        <ele>6.9</ele>
        <time>2024-11-10T13:19:38Z</time>
      </trkpt>
      <trkpt lat="42.2889" lon="3.28121">
        <ele>6.9</ele>
        <time>2024-11-10T13:19:39Z</time>
      </trkpt>
      <trkpt lat="42.2889" lon="3.28121">
        <ele>6.9</ele>
        <time>2024-11-10T13:19:40Z</time>
      </trkpt>
      <trkpt lat="42.2889" lon="3.28121">
        <ele>6.9</ele>
        <time>2024-11-10T13:19:41Z</time>
      </trkpt>
      <trkpt lat="42.2889" lon="3.28121">
        <ele>6.9</ele>
        <time>2024-11-10T13:19:42Z</time>
      </trkpt>
      <trkpt lat="42.2889" lon="3.28121">
        <ele>6.9</ele>
        <time>2024-11-10T13:19:43Z</time>
      </trkpt>
      <trkpt lat="42.2889" lon="3.28121">
        <ele>6.9</ele>
        <time>2024-11-10T13:19:44Z</time>
      </trkpt>
      <trkpt lat="42.2889" lon="3.28121">
        <ele>6.9</ele>
        <time>2024-11-10T13:19:45Z</time>
      </trkpt>
      <trkpt lat="42.2889" lon="3.28121">
        <ele>6.9</ele>
        <time>2024-11-10T13:19:46Z</time>
      </trkpt>
      <trkpt lat="42.2889" lon="3.28121">
        <ele>6.9</ele>
        <time>2024-11-10T13:19:47Z</time>
      </trkpt>
      <trkpt lat="42.2889" lon="3.28121">
        <ele>6.9</ele>
        <time>2024-11-10T13:19:48Z</time>
      </trkpt>
      <trkpt lat="42.2889" lon="3.28121">
        <ele>6.9</ele>
        <time>2024-11-10T13:19:49Z</time>
      </trkpt>
      <trkpt lat="42.2889" lon="3.28121">
        <ele>6.9</ele>
        <time>2024-11-10T13:19:50Z</time>
      </trkpt>
      <trkpt lat="42.2889" lon="3.28121">
        <ele>6.9</ele>
        <time>2024-11-10T13:19:51Z</time>
      </trkpt>
      <trkpt lat="42.2889" lon="3.28121">
        <ele>6.9</ele>
        <time>2024-11-10T13:19:52Z</time>
      </trkpt>
      <trkpt lat="42.2889" lon="3.28121">
        <ele>6.9</ele>
        <time>2024-11-10T13:19:53Z</time>
      </trkpt>
      <trkpt lat="42.2889" lon="3.28121">
        <ele>6.9</ele>
        <time>2024-11-10T13:19:54Z</time>
      </trkpt>
      <trkpt lat="42.2889" lon="3.28121">
        <ele>6.9</ele>
        <time>2024-11-10T13:19:55Z</time>
      </trkpt>
      <trkpt lat="42.2889" lon="3.28121">
        <ele>6.9</ele>
        <time>2024-11-10T13:19:56Z</time>
      </trkpt>
      <trkpt lat="42.2889" lon="3.28121">
        <ele>6.9</ele>
        <time>2024-11-10T13:19:57Z</time>
      </trkpt>
      <trkpt lat="42.2889" lon="3.28121">
        <ele>6.9</ele>
        <time>2024-11-10T13:19:58Z</time>
      </trkpt>
      <trkpt lat="42.2889" lon="3.28121">
        <ele>6.9</ele>
        <time>2024-11-10T13:19:59Z</time>
      </trkpt>
      <trkpt lat="42.2889" lon="3.28121">
        <ele>6.9</ele>
        <time>2024-11-10T13:20:00Z</time>
      </trkpt>
      <trkpt lat="42.2889" lon="3.28121">
        <ele>6.9</ele>
        <time>2024-11-10T13:20:01Z</time>
      </trkpt>
      <trkpt lat="42.2889" lon="3.28121">
        <ele>6.9</ele>
        <time>2024-11-10T13:20:02Z</time>
      </trkpt>
      <trkpt lat="42.2889" lon="3.28121">
        <ele>6.9</ele>
        <time>2024-11-10T13:20:03Z</time>
      </trkpt>
      <trkpt lat="42.28889" lon="3.28121">
        <ele>6.9</ele>
        <time>2024-11-10T13:20:04Z</time>
      </trkpt>
      <trkpt lat="42.28889" lon="3.28121">
        <ele>6.9</ele>
        <time>2024-11-10T13:20:05Z</time>
      </trkpt>
      <trkpt lat="42.28889" lon="3.28121">
        <ele>6.9</ele>
        <time>2024-11-10T13:20:06Z</time>
      </trkpt>
      <trkpt lat="42.28889" lon="3.28121">
        <ele>6.9</ele>
        <time>2024-11-10T13:20:07Z</time>
      </trkpt>
      <trkpt lat="42.28889" lon="3.28121">
        <ele>6.9</ele>
        <time>2024-11-10T13:20:08Z</time>
      </trkpt>
      <trkpt lat="42.28889" lon="3.28122">
        <ele>6.9</ele>
        <time>2024-11-10T13:20:09Z</time>
      </trkpt>
      <trkpt lat="42.28889" lon="3.28123">
        <ele>6.9</ele>
        <time>2024-11-10T13:20:10Z</time>
      </trkpt>
      <trkpt lat="42.28889" lon="3.28124">
        <ele>6.9</ele>
        <time>2024-11-10T13:20:11Z</time>
      </trkpt>
      <trkpt lat="42.28889" lon="3.28124">
        <ele>6.9</ele>
        <time>2024-11-10T13:20:12Z</time>
      </trkpt>
      <trkpt lat="42.28889" lon="3.28123">
        <ele>6.9</ele>
        <time>2024-11-10T13:20:13Z</time>
      </trkpt>
      <trkpt lat="42.28889" lon="3.28123">
        <ele>6.9</ele>
        <time>2024-11-10T13:20:14Z</time>
      </trkpt>
      <trkpt lat="42.28889" lon="3.28123">
        <ele>6.9</ele>
        <time>2024-11-10T13:20:15Z</time>
      </trkpt>
      <trkpt lat="42.28889" lon="3.28123">
        <ele>6.9</ele>
        <time>2024-11-10T13:20:16Z</time>
      </trkpt>
      <trkpt lat="42.28889" lon="3.28123">
        <ele>6.9</ele>
        <time>2024-11-10T13:20:17Z</time>
      </trkpt>
      <trkpt lat="42.28889" lon="3.28123">
        <ele>6.9</ele>
        <time>2024-11-10T13:20:18Z</time>
      </trkpt>
      <trkpt lat="42.28889" lon="3.28123">
        <ele>6.9</ele>
        <time>2024-11-10T13:20:19Z</time>
      </trkpt>
      <trkpt lat="42.28889" lon="3.28123">
        <ele>6.9</ele>
        <time>2024-11-10T13:20:20Z</time>
      </trkpt>
      <trkpt lat="42.28889" lon="3.28123">
        <ele>6.9</ele>
        <time>2024-11-10T13:20:21Z</time>
      </trkpt>
      <trkpt lat="42.28889" lon="3.28123">
        <ele>6.9</ele>
        <time>2024-11-10T13:20:22Z</time>
      </trkpt>
      <trkpt lat="42.28889" lon="3.28123">
        <ele>6.9</ele>
        <time>2024-11-10T13:20:23Z</time>
      </trkpt>
      <trkpt lat="42.28888" lon="3.28126">
        <ele>6.9</ele>
        <time>2024-11-10T13:20:24Z</time>
      </trkpt>
      <trkpt lat="42.28888" lon="3.28127">
        <ele>6.9</ele>
        <time>2024-11-10T13:20:25Z</time>
      </trkpt>
      <trkpt lat="42.28888" lon="3.28127">
        <ele>6.9</ele>
        <time>2024-11-10T13:20:26Z</time>
      </trkpt>
      <trkpt lat="42.28888" lon="3.28127">
        <ele>6.9</ele>
        <time>2024-11-10T13:20:27Z</time>
      </trkpt>
      <trkpt lat="42.28888" lon="3.28126">
        <ele>6.9</ele>
        <time>2024-11-10T13:20:28Z</time>
      </trkpt>
      <trkpt lat="42.28888" lon="3.28126">
        <ele>6.9</ele>
        <time>2024-11-10T13:20:29Z</time>
      </trkpt>
      <trkpt lat="42.28888" lon="3.28126">
        <ele>6.9</ele>
        <time>2024-11-10T13:20:30Z</time>
      </trkpt>
      <trkpt lat="42.28888" lon="3.28126">
        <ele>6.9</ele>
        <time>2024-11-10T13:20:31Z</time>
      </trkpt>
      <trkpt lat="42.28888" lon="3.28126">
        <ele>6.9</ele>
        <time>2024-11-10T13:20:32Z</time>
      </trkpt>
      <trkpt lat="42.28888" lon="3.28126">
        <ele>6.9</ele>
        <time>2024-11-10T13:20:33Z</time>
      </trkpt>
      <trkpt lat="42.28888" lon="3.28126">
        <ele>6.9</ele>
        <time>2024-11-10T13:20:34Z</time>
      </trkpt>
      <trkpt lat="42.28888" lon="3.28126">
        <ele>6.9</ele>
        <time>2024-11-10T13:20:35Z</time>
      </trkpt>
      <trkpt lat="42.28888" lon="3.28126">
        <ele>6.9</ele>
        <time>2024-11-10T13:20:36Z</time>
      </trkpt>
      <trkpt lat="42.28888" lon="3.28126">
        <ele>6.9</ele>
        <time>2024-11-10T13:20:37Z</time>
      </trkpt>
      <trkpt lat="42.28888" lon="3.28126">
        <ele>6.9</ele>
        <time>2024-11-10T13:20:38Z</time>
      </trkpt>
      <trkpt lat="42.28888" lon="3.28126">
        <ele>6.9</ele>
        <time>2024-11-10T13:20:39Z</time>
      </trkpt>
      <trkpt lat="42.28888" lon="3.28126">
        <ele>6.9</ele>
        <time>2024-11-10T13:20:40Z</time>
      </trkpt>
      <trkpt lat="42.28888" lon="3.28126">
        <ele>6.9</ele>
        <time>2024-11-10T13:20:41Z</time>
      </trkpt>
      <trkpt lat="42.28888" lon="3.28126">
        <ele>6.9</ele>
        <time>2024-11-10T13:20:42Z</time>
      </trkpt>
      <trkpt lat="42.28888" lon="3.28126">
        <ele>6.9</ele>
        <time>2024-11-10T13:20:43Z</time>
      </trkpt>
      <trkpt lat="42.28889" lon="3.28124">
        <ele>6.8</ele>
        <time>2024-11-10T13:20:44Z</time>
      </trkpt>
      <trkpt lat="42.28888" lon="3.28126">
        <ele>6.8</ele>
        <time>2024-11-10T13:20:45Z</time>
      </trkpt>
      <trkpt lat="42.28888" lon="3.28126">
        <ele>6.8</ele>
        <time>2024-11-10T13:20:46Z</time>
      </trkpt>
      <trkpt lat="42.28888" lon="3.28126">
        <ele>6.8</ele>
        <time>2024-11-10T13:20:47Z</time>
      </trkpt>
      <trkpt lat="42.28888" lon="3.28126">
        <ele>6.8</ele>
        <time>2024-11-10T13:20:48Z</time>
      </trkpt>
      <trkpt lat="42.28888" lon="3.28126">
        <ele>6.8</ele>
        <time>2024-11-10T13:20:49Z</time>
      </trkpt>
      <trkpt lat="42.28888" lon="3.28126">
        <ele>6.8</ele>
        <time>2024-11-10T13:20:50Z</time>
      </trkpt>
      <trkpt lat="42.28888" lon="3.28126">
        <ele>6.8</ele>
        <time>2024-11-10T13:20:51Z</time>
      </trkpt>
      <trkpt lat="42.28888" lon="3.28126">
        <ele>6.8</ele>
        <time>2024-11-10T13:20:52Z</time>
      </trkpt>
      <trkpt lat="42.28888" lon="3.28126">
        <ele>6.8</ele>
        <time>2024-11-10T13:20:53Z</time>
      </trkpt>
      <trkpt lat="42.28889" lon="3.28124">
        <ele>6.8</ele>
        <time>2024-11-10T13:20:54Z</time>
      </trkpt>
      <trkpt lat="42.28889" lon="3.28123">
        <ele>6.8</ele>
        <time>2024-11-10T13:20:55Z</time>
      </trkpt>
      <trkpt lat="42.28889" lon="3.28122">
        <ele>6.8</ele>
        <time>2024-11-10T13:20:56Z</time>
      </trkpt>
      <trkpt lat="42.28889" lon="3.28122">
        <ele>6.8</ele>
        <time>2024-11-10T13:20:57Z</time>
      </trkpt>
      <trkpt lat="42.28889" lon="3.28123">
        <ele>6.8</ele>
        <time>2024-11-10T13:20:58Z</time>
      </trkpt>
      <trkpt lat="42.28889" lon="3.28123">
        <ele>6.8</ele>
        <time>2024-11-10T13:20:59Z</time>
      </trkpt>
      <trkpt lat="42.28889" lon="3.28123">
        <ele>6.8</ele>
        <time>2024-11-10T13:21:00Z</time>
      </trkpt>
      <trkpt lat="42.28889" lon="3.28123">
        <ele>6.8</ele>
        <time>2024-11-10T13:21:01Z</time>
      </trkpt>
      <trkpt lat="42.28889" lon="3.28123">
        <ele>6.8</ele>
        <time>2024-11-10T13:21:02Z</time>
      </trkpt>
      <trkpt lat="42.28889" lon="3.28123">
        <ele>6.8</ele>
        <time>2024-11-10T13:21:03Z</time>
      </trkpt>
      <trkpt lat="42.28889" lon="3.28123">
        <ele>6.8</ele>
        <time>2024-11-10T13:21:04Z</time>
      </trkpt>
      <trkpt lat="42.28889" lon="3.28123">
        <ele>6.8</ele>
        <time>2024-11-10T13:21:05Z</time>
      </trkpt>
      <trkpt lat="42.28889" lon="3.28123">
        <ele>6.8</ele>
        <time>2024-11-10T13:21:06Z</time>
      </trkpt>
      <trkpt lat="42.28889" lon="3.28123">
        <ele>6.8</ele>
        <time>2024-11-10T13:21:07Z</time>
      </trkpt>
      <trkpt lat="42.28889" lon="3.28123">
        <ele>6.8</ele>
        <time>2024-11-10T13:21:08Z</time>
      </trkpt>
      <trkpt lat="42.28889" lon="3.28122">
        <ele>6.8</ele>
        <time>2024-11-10T13:21:09Z</time>
      </trkpt>
      <trkpt lat="42.28889" lon="3.28122">
        <ele>6.8</ele>
        <time>2024-11-10T13:21:10Z</time>
      </trkpt>
      <trkpt lat="42.28889" lon="3.28122">
        <ele>6.8</ele>
        <time>2024-11-10T13:21:11Z</time>
      </trkpt>
      <trkpt lat="42.28889" lon="3.28122">
        <ele>6.8</ele>
        <time>2024-11-10T13:21:12Z</time>
      </trkpt>
      <trkpt lat="42.28889" lon="3.28122">
        <ele>6.8</ele>
        <time>2024-11-10T13:21:13Z</time>
      </trkpt>
      <trkpt lat="42.28889" lon="3.28122">
        <ele>6.8</ele>
        <time>2024-11-10T13:21:14Z</time>
      </trkpt>
      <trkpt lat="42.28889" lon="3.28122">
        <ele>6.8</ele>
        <time>2024-11-10T13:21:15Z</time>
      </trkpt>
      <trkpt lat="42.28889" lon="3.28122">
        <ele>6.8</ele>
        <time>2024-11-10T13:21:16Z</time>
      </trkpt>
      <trkpt lat="42.28889" lon="3.28122">
        <ele>6.8</ele>
        <time>2024-11-10T13:21:17Z</time>
      </trkpt>
      <trkpt lat="42.28889" lon="3.28122">
        <ele>6.8</ele>
        <time>2024-11-10T13:21:18Z</time>
      </trkpt>
      <trkpt lat="42.28889" lon="3.28122">
        <ele>6.8</ele>
        <time>2024-11-10T13:21:19Z</time>
      </trkpt>
      <trkpt lat="42.28888" lon="3.28126">
        <ele>6.8</ele>
        <time>2024-11-10T13:21:20Z</time>
      </trkpt>
      <trkpt lat="42.28888" lon="3.28126">
        <ele>6.8</ele>
        <time>2024-11-10T13:21:21Z</time>
      </trkpt>
      <trkpt lat="42.28888" lon="3.28126">
        <ele>6.8</ele>
        <time>2024-11-10T13:21:22Z</time>
      </trkpt>
      <trkpt lat="42.28888" lon="3.28126">
        <ele>6.8</ele>
        <time>2024-11-10T13:21:23Z</time>
      </trkpt>
      <trkpt lat="42.28889" lon="3.28123">
        <ele>6.8</ele>
        <time>2024-11-10T13:21:24Z</time>
      </trkpt>
      <trkpt lat="42.28889" lon="3.28122">
        <ele>6.8</ele>
        <time>2024-11-10T13:21:25Z</time>
      </trkpt>
      <trkpt lat="42.28889" lon="3.28122">
        <ele>6.8</ele>
        <time>2024-11-10T13:21:26Z</time>
      </trkpt>
      <trkpt lat="42.28889" lon="3.28122">
        <ele>6.8</ele>
        <time>2024-11-10T13:21:27Z</time>
      </trkpt>
      <trkpt lat="42.28889" lon="3.28122">
        <ele>6.8</ele>
        <time>2024-11-10T13:21:28Z</time>
      </trkpt>
      <trkpt lat="42.28889" lon="3.28121">
        <ele>6.8</ele>
        <time>2024-11-10T13:21:29Z</time>
      </trkpt>
      <trkpt lat="42.2889" lon="3.28121">
        <ele>6.8</ele>
        <time>2024-11-10T13:21:30Z</time>
      </trkpt>
      <trkpt lat="42.2889" lon="3.28121">
        <ele>6.8</ele>
        <time>2024-11-10T13:21:31Z</time>
      </trkpt>
      <trkpt lat="42.2889" lon="3.28121">
        <ele>6.8</ele>
        <time>2024-11-10T13:21:32Z</time>
      </trkpt>
      <trkpt lat="42.2889" lon="3.28121">
        <ele>6.8</ele>
        <time>2024-11-10T13:21:33Z</time>
      </trkpt>
      <trkpt lat="42.28889" lon="3.28122">
        <ele>6.8</ele>
        <time>2024-11-10T13:21:34Z</time>
      </trkpt>
      <trkpt lat="42.28889" lon="3.28122">
        <ele>6.8</ele>
        <time>2024-11-10T13:21:35Z</time>
      </trkpt>
      <trkpt lat="42.28889" lon="3.28122">
        <ele>6.8</ele>
        <time>2024-11-10T13:21:36Z</time>
      </trkpt>
      <trkpt lat="42.28889" lon="3.28122">
        <ele>6.8</ele>
        <time>2024-11-10T13:21:37Z</time>
      </trkpt>
      <trkpt lat="42.28889" lon="3.28122">
        <ele>6.8</ele>
        <time>2024-11-10T13:21:38Z</time>
      </trkpt>
      <trkpt lat="42.28889" lon="3.28121">
        <ele>6.8</ele>
        <time>2024-11-10T13:21:39Z</time>
      </trkpt>
      <trkpt lat="42.28889" lon="3.28121">
        <ele>6.8</ele>
        <time>2024-11-10T13:21:40Z</time>
      </trkpt>
      <trkpt lat="42.28889" lon="3.28121">
        <ele>6.8</ele>
        <time>2024-11-10T13:21:41Z</time>
      </trkpt>
      <trkpt lat="42.28889" lon="3.28121">
        <ele>6.8</ele>
        <time>2024-11-10T13:21:42Z</time>
      </trkpt>
      <trkpt lat="42.28889" lon="3.28121">
        <ele>6.8</ele>
        <time>2024-11-10T13:21:43Z</time>
      </trkpt>
      <trkpt lat="42.28889" lon="3.28122">
        <ele>6.8</ele>
        <time>2024-11-10T13:21:44Z</time>
      </trkpt>
      <trkpt lat="42.28889" lon="3.28122">
        <ele>6.8</ele>
        <time>2024-11-10T13:21:45Z</time>
      </trkpt>
      <trkpt lat="42.28889" lon="3.28122">
        <ele>6.8</ele>
        <time>2024-11-10T13:21:46Z</time>
      </trkpt>
      <trkpt lat="42.28889" lon="3.28122">
        <ele>6.8</ele>
        <time>2024-11-10T13:21:47Z</time>
      </trkpt>
      <trkpt lat="42.28889" lon="3.28122">
        <ele>6.8</ele>
        <time>2024-11-10T13:21:48Z</time>
      </trkpt>
      <trkpt lat="42.28889" lon="3.28122">
        <ele>6.8</ele>
        <time>2024-11-10T13:21:49Z</time>
      </trkpt>
      <trkpt lat="42.28889" lon="3.28122">
        <ele>6.8</ele>
        <time>2024-11-10T13:21:50Z</time>
      </trkpt>
      <trkpt lat="42.28889" lon="3.28122">
        <ele>6.8</ele>
        <time>2024-11-10T13:21:51Z</time>
      </trkpt>
      <trkpt lat="42.28889" lon="3.28122">
        <ele>6.8</ele>
        <time>2024-11-10T13:21:52Z</time>
      </trkpt>
      <trkpt lat="42.28889" lon="3.28122">
        <ele>6.8</ele>
        <time>2024-11-10T13:21:53Z</time>
      </trkpt>
      <trkpt lat="42.28889" lon="3.28123">
        <ele>6.8</ele>
        <time>2024-11-10T13:21:54Z</time>
      </trkpt>
      <trkpt lat="42.28889" lon="3.28123">
        <ele>6.8</ele>
        <time>2024-11-10T13:21:55Z</time>
      </trkpt>
      <trkpt lat="42.28889" lon="3.28123">
        <ele>6.8</ele>
        <time>2024-11-10T13:21:56Z</time>
      </trkpt>
      <trkpt lat="42.28888" lon="3.28126">
        <ele>6.8</ele>
        <time>2024-11-10T13:21:57Z</time>
      </trkpt>
      <trkpt lat="42.28888" lon="3.28124">
        <ele>6.8</ele>
        <time>2024-11-10T13:21:58Z</time>
      </trkpt>
      <trkpt lat="42.28889" lon="3.28123">
        <ele>6.8</ele>
        <time>2024-11-10T13:21:59Z</time>
      </trkpt>
      <trkpt lat="42.28889" lon="3.28122">
        <ele>6.8</ele>
        <time>2024-11-10T13:22:00Z</time>
      </trkpt>
      <trkpt lat="42.28889" lon="3.28122">
        <ele>6.8</ele>
        <time>2024-11-10T13:22:01Z</time>
      </trkpt>
      <trkpt lat="42.28889" lon="3.28122">
        <ele>6.8</ele>
        <time>2024-11-10T13:22:02Z</time>
      </trkpt>
      <trkpt lat="42.28889" lon="3.28122">
        <ele>6.8</ele>
        <time>2024-11-10T13:22:03Z</time>
      </trkpt>
      <trkpt lat="42.28888" lon="3.28125">
        <ele>6.8</ele>
        <time>2024-11-10T13:22:04Z</time>
      </trkpt>
      <trkpt lat="42.28888" lon="3.28126">
        <ele>6.8</ele>
        <time>2024-11-10T13:22:05Z</time>
      </trkpt>
      <trkpt lat="42.28888" lon="3.28125">
        <ele>6.8</ele>
        <time>2024-11-10T13:22:06Z</time>
      </trkpt>
      <trkpt lat="42.28888" lon="3.28124">
        <ele>6.8</ele>
        <time>2024-11-10T13:22:07Z</time>
      </trkpt>
      <trkpt lat="42.28889" lon="3.28123">
        <ele>6.8</ele>
        <time>2024-11-10T13:22:08Z</time>
      </trkpt>
      <trkpt lat="42.28889" lon="3.28122">
        <ele>6.8</ele>
        <time>2024-11-10T13:22:09Z</time>
      </trkpt>
      <trkpt lat="42.28889" lon="3.28122">
        <ele>6.8</ele>
        <time>2024-11-10T13:22:10Z</time>
      </trkpt>
      <trkpt lat="42.28889" lon="3.28121">
        <ele>6.8</ele>
        <time>2024-11-10T13:22:11Z</time>
      </trkpt>
      <trkpt lat="42.28889" lon="3.28121">
        <ele>6.8</ele>
        <time>2024-11-10T13:22:12Z</time>
      </trkpt>
      <trkpt lat="42.28889" lon="3.28122">
        <ele>6.8</ele>
        <time>2024-11-10T13:22:13Z</time>
      </trkpt>
      <trkpt lat="42.28889" lon="3.28122">
        <ele>6.8</ele>
        <time>2024-11-10T13:22:14Z</time>
      </trkpt>
      <trkpt lat="42.28889" lon="3.28122">
        <ele>6.8</ele>
        <time>2024-11-10T13:22:15Z</time>
      </trkpt>
      <trkpt lat="42.28889" lon="3.28122">
        <ele>6.8</ele>
        <time>2024-11-10T13:22:16Z</time>
      </trkpt>
      <trkpt lat="42.28889" lon="3.28122">
        <ele>6.8</ele>
        <time>2024-11-10T13:22:17Z</time>
      </trkpt>
      <trkpt lat="42.28889" lon="3.28122">
        <ele>6.8</ele>
        <time>2024-11-10T13:22:18Z</time>
      </trkpt>
      <trkpt lat="42.28889" lon="3.28122">
        <ele>6.8</ele>
        <time>2024-11-10T13:22:19Z</time>
      </trkpt>
      <trkpt lat="42.28889" lon="3.28122">
        <ele>6.8</ele>
        <time>2024-11-10T13:22:20Z</time>
      </trkpt>
      <trkpt lat="42.28889" lon="3.28122">
        <ele>6.8</ele>
        <time>2024-11-10T13:22:21Z</time>
      </trkpt>
      <trkpt lat="42.28889" lon="3.28122">
        <ele>6.8</ele>
        <time>2024-11-10T13:22:22Z</time>
      </trkpt>
      <trkpt lat="42.28889" lon="3.28122">
        <ele>6.8</ele>
        <time>2024-11-10T13:22:23Z</time>
      </trkpt>
      <trkpt lat="42.28889" lon="3.28122">
        <ele>6.8</ele>
        <time>2024-11-10T13:22:24Z</time>
      </trkpt>
      <trkpt lat="42.28889" lon="3.28122">
        <ele>6.8</ele>
        <time>2024-11-10T13:22:25Z</time>
      </trkpt>
      <trkpt lat="42.28889" lon="3.28122">
        <ele>6.8</ele>
        <time>2024-11-10T13:22:26Z</time>
      </trkpt>
      <trkpt lat="42.28889" lon="3.28122">
        <ele>6.8</ele>
        <time>2024-11-10T13:22:27Z</time>
      </trkpt>
      <trkpt lat="42.28889" lon="3.28122">
        <ele>6.8</ele>
        <time>2024-11-10T13:22:28Z</time>
      </trkpt>
      <trkpt lat="42.28889" lon="3.28122">
        <ele>6.8</ele>
        <time>2024-11-10T13:22:29Z</time>
      </trkpt>
      <trkpt lat="42.28889" lon="3.28122">
        <ele>6.8</ele>
        <time>2024-11-10T13:22:30Z</time>
      </trkpt>
      <trkpt lat="42.28889" lon="3.28123">
        <ele>6.8</ele>
        <time>2024-11-10T13:22:31Z</time>
      </trkpt>
      <trkpt lat="42.28889" lon="3.28123">
        <ele>6.8</ele>
        <time>2024-11-10T13:22:32Z</time>
      </trkpt>
      <trkpt lat="42.28889" lon="3.28123">
        <ele>6.8</ele>
        <time>2024-11-10T13:22:33Z</time>
      </trkpt>
      <trkpt lat="42.28889" lon="3.28123">
        <ele>6.8</ele>
        <time>2024-11-10T13:22:34Z</time>
      </trkpt>
      <trkpt lat="42.28889" lon="3.28123">
        <ele>6.8</ele>
        <time>2024-11-10T13:22:35Z</time>
      </trkpt>
      <trkpt lat="42.28889" lon="3.28123">
        <ele>6.8</ele>
        <time>2024-11-10T13:22:36Z</time>
      </trkpt>
      <trkpt lat="42.28889" lon="3.28123">
        <ele>6.8</ele>
        <time>2024-11-10T13:22:37Z</time>
      </trkpt>
      <trkpt lat="42.28889" lon="3.28123">
        <ele>6.8</ele>
        <time>2024-11-10T13:22:38Z</time>
      </trkpt>
      <trkpt lat="42.28889" lon="3.28122">
        <ele>6.8</ele>
        <time>2024-11-10T13:22:39Z</time>
      </trkpt>
      <trkpt lat="42.28889" lon="3.28122">
        <ele>6.8</ele>
        <time>2024-11-10T13:22:40Z</time>
      </trkpt>
      <trkpt lat="42.28889" lon="3.28122">
        <ele>6.8</ele>
        <time>2024-11-10T13:22:41Z</time>
      </trkpt>
      <trkpt lat="42.28889" lon="3.28122">
        <ele>6.8</ele>
        <time>2024-11-10T13:22:42Z</time>
      </trkpt>
      <trkpt lat="42.28889" lon="3.28122">
        <ele>6.8</ele>
        <time>2024-11-10T13:22:43Z</time>
      </trkpt>
      <trkpt lat="42.28889" lon="3.28122">
        <ele>6.8</ele>
        <time>2024-11-10T13:22:44Z</time>
      </trkpt>
      <trkpt lat="42.28889" lon="3.28122">
        <ele>6.8</ele>
        <time>2024-11-10T13:22:45Z</time>
      </trkpt>
      <trkpt lat="42.28889" lon="3.28122">
        <ele>6.8</ele>
        <time>2024-11-10T13:22:46Z</time>
      </trkpt>
      <trkpt lat="42.28889" lon="3.28122">
        <ele>6.8</ele>
        <time>2024-11-10T13:22:47Z</time>
      </trkpt>
      <trkpt lat="42.28889" lon="3.28122">
        <ele>6.8</ele>
        <time>2024-11-10T13:22:48Z</time>
      </trkpt>
      <trkpt lat="42.28889" lon="3.28122">
        <ele>6.8</ele>
        <time>2024-11-10T13:22:49Z</time>
      </trkpt>
      <trkpt lat="42.28889" lon="3.28122">
        <ele>6.8</ele>
        <time>2024-11-10T13:22:50Z</time>
      </trkpt>
      <trkpt lat="42.28889" lon="3.28121">
        <ele>6.8</ele>
        <time>2024-11-10T13:22:51Z</time>
      </trkpt>
      <trkpt lat="42.28889" lon="3.28121">
        <ele>6.8</ele>
        <time>2024-11-10T13:22:52Z</time>
      </trkpt>
      <trkpt lat="42.28889" lon="3.28122">
        <ele>6.8</ele>
        <time>2024-11-10T13:22:53Z</time>
      </trkpt>
      <trkpt lat="42.28889" lon="3.28121">
        <ele>6.8</ele>
        <time>2024-11-10T13:22:54Z</time>
      </trkpt>
      <trkpt lat="42.28889" lon="3.28121">
        <ele>6.8</ele>
        <time>2024-11-10T13:22:55Z</time>
      </trkpt>
      <trkpt lat="42.2889" lon="3.28121">
        <ele>6.8</ele>
        <time>2024-11-10T13:22:56Z</time>
      </trkpt>
      <trkpt lat="42.28889" lon="3.28121">
        <ele>6.8</ele>
        <time>2024-11-10T13:22:57Z</time>
      </trkpt>
      <trkpt lat="42.28889" lon="3.28121">
        <ele>6.8</ele>
        <time>2024-11-10T13:22:58Z</time>
      </trkpt>
      <trkpt lat="42.28889" lon="3.28121">
        <ele>6.8</ele>
        <time>2024-11-10T13:22:59Z</time>
      </trkpt>
      <trkpt lat="42.28889" lon="3.28122">
        <ele>6.8</ele>
        <time>2024-11-10T13:23:00Z</time>
      </trkpt>
      <trkpt lat="42.28889" lon="3.28122">
        <ele>6.7</ele>
        <time>2024-11-10T13:23:01Z</time>
      </trkpt>
      <trkpt lat="42.28889" lon="3.28122">
        <ele>6.7</ele>
        <time>2024-11-10T13:23:02Z</time>
      </trkpt>
      <trkpt lat="42.28889" lon="3.28122">
        <ele>6.7</ele>
        <time>2024-11-10T13:23:03Z</time>
      </trkpt>
      <trkpt lat="42.28889" lon="3.28122">
        <ele>6.7</ele>
        <time>2024-11-10T13:23:04Z</time>
      </trkpt>
      <trkpt lat="42.28889" lon="3.28122">
        <ele>6.7</ele>
        <time>2024-11-10T13:23:05Z</time>
      </trkpt>
      <trkpt lat="42.28889" lon="3.28122">
        <ele>6.7</ele>
        <time>2024-11-10T13:23:06Z</time>
      </trkpt>
      <trkpt lat="42.28889" lon="3.28122">
        <ele>6.7</ele>
        <time>2024-11-10T13:23:07Z</time>
      </trkpt>
      <trkpt lat="42.28889" lon="3.28122">
        <ele>6.7</ele>
        <time>2024-11-10T13:23:08Z</time>
      </trkpt>
      <trkpt lat="42.28889" lon="3.28122">
        <ele>6.7</ele>
        <time>2024-11-10T13:23:09Z</time>
      </trkpt>
      <trkpt lat="42.28889" lon="3.28122">
        <ele>6.7</ele>
        <time>2024-11-10T13:23:10Z</time>
      </trkpt>
      <trkpt lat="42.28889" lon="3.28122">
        <ele>6.7</ele>
        <time>2024-11-10T13:23:11Z</time>
      </trkpt>
      <trkpt lat="42.28889" lon="3.28122">
        <ele>6.7</ele>
        <time>2024-11-10T13:23:12Z</time>
      </trkpt>
      <trkpt lat="42.28889" lon="3.28122">
        <ele>6.7</ele>
        <time>2024-11-10T13:23:13Z</time>
      </trkpt>
      <trkpt lat="42.28889" lon="3.28122">
        <ele>6.7</ele>
        <time>2024-11-10T13:23:14Z</time>
      </trkpt>
      <trkpt lat="42.28889" lon="3.28122">
        <ele>6.7</ele>
        <time>2024-11-10T13:23:15Z</time>
      </trkpt>
      <trkpt lat="42.28889" lon="3.28122">
        <ele>6.7</ele>
        <time>2024-11-10T13:23:16Z</time>
      </trkpt>
      <trkpt lat="42.28889" lon="3.28122">
        <ele>6.7</ele>
        <time>2024-11-10T13:23:17Z</time>
      </trkpt>
      <trkpt lat="42.28889" lon="3.28122">
        <ele>6.7</ele>
        <time>2024-11-10T13:23:18Z</time>
      </trkpt>
      <trkpt lat="42.28889" lon="3.28122">
        <ele>6.7</ele>
        <time>2024-11-10T13:23:19Z</time>
      </trkpt>
      <trkpt lat="42.28889" lon="3.28122">
        <ele>6.7</ele>
        <time>2024-11-10T13:23:20Z</time>
      </trkpt>
      <trkpt lat="42.28889" lon="3.28122">
        <ele>6.7</ele>
        <time>2024-11-10T13:23:21Z</time>
      </trkpt>
      <trkpt lat="42.28889" lon="3.28122">
        <ele>6.7</ele>
        <time>2024-11-10T13:23:22Z</time>
      </trkpt>
      <trkpt lat="42.28889" lon="3.28122">
        <ele>6.7</ele>
        <time>2024-11-10T13:23:23Z</time>
      </trkpt>
      <trkpt lat="42.28889" lon="3.28122">
        <ele>6.7</ele>
        <time>2024-11-10T13:23:24Z</time>
      </trkpt>
      <trkpt lat="42.28889" lon="3.28122">
        <ele>6.7</ele>
        <time>2024-11-10T13:23:25Z</time>
      </trkpt>
      <trkpt lat="42.28889" lon="3.28123">
        <ele>6.7</ele>
        <time>2024-11-10T13:23:26Z</time>
      </trkpt>
      <trkpt lat="42.28889" lon="3.28123">
        <ele>6.7</ele>
        <time>2024-11-10T13:23:27Z</time>
      </trkpt>
      <trkpt lat="42.28889" lon="3.28123">
        <ele>6.7</ele>
        <time>2024-11-10T13:23:28Z</time>
      </trkpt>
      <trkpt lat="42.28889" lon="3.28122">
        <ele>6.7</ele>
        <time>2024-11-10T13:23:29Z</time>
      </trkpt>
      <trkpt lat="42.28889" lon="3.28122">
        <ele>6.7</ele>
        <time>2024-11-10T13:23:30Z</time>
      </trkpt>
      <trkpt lat="42.28889" lon="3.28122">
        <ele>6.7</ele>
        <time>2024-11-10T13:23:31Z</time>
      </trkpt>
      <trkpt lat="42.28889" lon="3.28122">
        <ele>6.7</ele>
        <time>2024-11-10T13:23:32Z</time>
      </trkpt>
      <trkpt lat="42.28889" lon="3.28122">
        <ele>6.7</ele>
        <time>2024-11-10T13:23:33Z</time>
      </trkpt>
      <trkpt lat="42.28889" lon="3.28122">
        <ele>6.7</ele>
        <time>2024-11-10T13:23:34Z</time>
      </trkpt>
      <trkpt lat="42.28888" lon="3.28125">
        <ele>6.7</ele>
        <time>2024-11-10T13:23:35Z</time>
      </trkpt>
      <trkpt lat="42.28888" lon="3.28125">
        <ele>6.7</ele>
        <time>2024-11-10T13:23:36Z</time>
      </trkpt>
      <trkpt lat="42.28888" lon="3.28125">
        <ele>6.7</ele>
        <time>2024-11-10T13:23:37Z</time>
      </trkpt>
      <trkpt lat="42.28888" lon="3.28125">
        <ele>6.7</ele>
        <time>2024-11-10T13:23:38Z</time>
      </trkpt>
      <trkpt lat="42.28888" lon="3.28125">
        <ele>6.7</ele>
        <time>2024-11-10T13:23:39Z</time>
      </trkpt>
      <trkpt lat="42.28889" lon="3.28122">
        <ele>6.7</ele>
        <time>2024-11-10T13:23:40Z</time>
      </trkpt>
      <trkpt lat="42.28889" lon="3.28121">
        <ele>6.7</ele>
        <time>2024-11-10T13:23:41Z</time>
      </trkpt>
      <trkpt lat="42.28889" lon="3.28121">
        <ele>6.7</ele>
        <time>2024-11-10T13:23:42Z</time>
      </trkpt>
      <trkpt lat="42.28889" lon="3.28121">
        <ele>6.7</ele>
        <time>2024-11-10T13:23:43Z</time>
      </trkpt>
      <trkpt lat="42.28889" lon="3.28121">
        <ele>6.7</ele>
        <time>2024-11-10T13:23:44Z</time>
      </trkpt>
      <trkpt lat="42.28889" lon="3.28122">
        <ele>6.7</ele>
        <time>2024-11-10T13:23:45Z</time>
      </trkpt>
      <trkpt lat="42.28889" lon="3.28122">
        <ele>6.7</ele>
        <time>2024-11-10T13:23:46Z</time>
      </trkpt>
      <trkpt lat="42.28889" lon="3.28122">
        <ele>6.7</ele>
        <time>2024-11-10T13:23:47Z</time>
      </trkpt>
      <trkpt lat="42.28889" lon="3.28122">
        <ele>6.7</ele>
        <time>2024-11-10T13:23:48Z</time>
      </trkpt>
      <trkpt lat="42.28889" lon="3.28122">
        <ele>6.7</ele>
        <time>2024-11-10T13:23:49Z</time>
      </trkpt>
      <trkpt lat="42.28889" lon="3.28121">
        <ele>6.7</ele>
        <time>2024-11-10T13:23:50Z</time>
      </trkpt>
      <trkpt lat="42.28889" lon="3.28121">
        <ele>6.7</ele>
        <time>2024-11-10T13:23:51Z</time>
      </trkpt>
      <trkpt lat="42.28889" lon="3.28121">
        <ele>6.7</ele>
        <time>2024-11-10T13:23:52Z</time>
      </trkpt>
      <trkpt lat="42.28889" lon="3.28121">
        <ele>6.7</ele>
        <time>2024-11-10T13:23:53Z</time>
      </trkpt>
      <trkpt lat="42.28889" lon="3.28121">
        <ele>6.7</ele>
        <time>2024-11-10T13:23:54Z</time>
      </trkpt>
      <trkpt lat="42.28889" lon="3.28123">
        <ele>6.7</ele>
        <time>2024-11-10T13:23:55Z</time>
      </trkpt>
      <trkpt lat="42.28888" lon="3.28123">
        <ele>6.7</ele>
        <time>2024-11-10T13:23:56Z</time>
      </trkpt>
      <trkpt lat="42.28888" lon="3.28124">
        <ele>6.7</ele>
        <time>2024-11-10T13:23:57Z</time>
      </trkpt>
      <trkpt lat="42.28888" lon="3.28124">
        <ele>6.7</ele>
        <time>2024-11-10T13:23:58Z</time>
      </trkpt>
      <trkpt lat="42.28888" lon="3.28123">
        <ele>6.7</ele>
        <time>2024-11-10T13:23:59Z</time>
      </trkpt>
      <trkpt lat="42.28889" lon="3.28122">
        <ele>6.7</ele>
        <time>2024-11-10T13:24:00Z</time>
      </trkpt>
      <trkpt lat="42.2889" lon="3.28121">
        <ele>6.7</ele>
        <time>2024-11-10T13:24:01Z</time>
      </trkpt>
      <trkpt lat="42.2889" lon="3.28121">
        <ele>6.7</ele>
        <time>2024-11-10T13:24:02Z</time>
      </trkpt>
      <trkpt lat="42.2889" lon="3.28121">
        <ele>6.7</ele>
        <time>2024-11-10T13:24:03Z</time>
      </trkpt>
      <trkpt lat="42.2889" lon="3.28121">
        <ele>6.7</ele>
        <time>2024-11-10T13:24:04Z</time>
      </trkpt>
      <trkpt lat="42.2889" lon="3.28121">
        <ele>6.7</ele>
        <time>2024-11-10T13:24:05Z</time>
      </trkpt>
      <trkpt lat="42.28889" lon="3.28122">
        <ele>6.7</ele>
        <time>2024-11-10T13:24:06Z</time>
      </trkpt>
      <trkpt lat="42.28889" lon="3.28122">
        <ele>6.7</ele>
        <time>2024-11-10T13:24:07Z</time>
      </trkpt>
      <trkpt lat="42.28889" lon="3.28122">
        <ele>6.7</ele>
        <time>2024-11-10T13:24:08Z</time>
      </trkpt>
      <trkpt lat="42.28889" lon="3.28122">
        <ele>6.7</ele>
        <time>2024-11-10T13:24:09Z</time>
      </trkpt>
      <trkpt lat="42.28889" lon="3.28122">
        <ele>6.7</ele>
        <time>2024-11-10T13:24:10Z</time>
      </trkpt>
      <trkpt lat="42.28889" lon="3.28122">
        <ele>6.7</ele>
        <time>2024-11-10T13:24:11Z</time>
      </trkpt>
      <trkpt lat="42.28888" lon="3.28125">
        <ele>6.7</ele>
        <time>2024-11-10T13:24:12Z</time>
      </trkpt>
      <trkpt lat="42.28888" lon="3.28125">
        <ele>6.7</ele>
        <time>2024-11-10T13:24:13Z</time>
      </trkpt>
      <trkpt lat="42.28888" lon="3.28125">
        <ele>6.7</ele>
        <time>2024-11-10T13:24:14Z</time>
      </trkpt>
      <trkpt lat="42.28889" lon="3.28122">
        <ele>6.7</ele>
        <time>2024-11-10T13:24:15Z</time>
      </trkpt>
      <trkpt lat="42.28889" lon="3.28121">
        <ele>6.7</ele>
        <time>2024-11-10T13:24:16Z</time>
      </trkpt>
      <trkpt lat="42.28889" lon="3.28121">
        <ele>6.7</ele>
        <time>2024-11-10T13:24:17Z</time>
      </trkpt>
      <trkpt lat="42.28889" lon="3.28121">
        <ele>6.7</ele>
        <time>2024-11-10T13:24:18Z</time>
      </trkpt>
      <trkpt lat="42.28889" lon="3.28121">
        <ele>6.7</ele>
        <time>2024-11-10T13:24:19Z</time>
      </trkpt>
      <trkpt lat="42.28889" lon="3.28121">
        <ele>6.7</ele>
        <time>2024-11-10T13:24:20Z</time>
      </trkpt>
      <trkpt lat="42.28889" lon="3.28121">
        <ele>6.7</ele>
        <time>2024-11-10T13:24:21Z</time>
      </trkpt>
      <trkpt lat="42.28889" lon="3.28121">
        <ele>6.7</ele>
        <time>2024-11-10T13:24:22Z</time>
      </trkpt>
      <trkpt lat="42.28889" lon="3.28121">
        <ele>6.7</ele>
        <time>2024-11-10T13:24:23Z</time>
      </trkpt>
      <trkpt lat="42.28889" lon="3.28121">
        <ele>6.7</ele>
        <time>2024-11-10T13:24:24Z</time>
      </trkpt>
      <trkpt lat="42.28889" lon="3.28121">
        <ele>6.7</ele>
        <time>2024-11-10T13:24:25Z</time>
      </trkpt>
      <trkpt lat="42.28889" lon="3.28121">
        <ele>6.7</ele>
        <time>2024-11-10T13:24:26Z</time>
      </trkpt>
      <trkpt lat="42.28889" lon="3.28121">
        <ele>6.7</ele>
        <time>2024-11-10T13:24:27Z</time>
      </trkpt>
      <trkpt lat="42.28889" lon="3.28121">
        <ele>6.7</ele>
        <time>2024-11-10T13:24:28Z</time>
      </trkpt>
      <trkpt lat="42.28889" lon="3.28121">
        <ele>6.7</ele>
        <time>2024-11-10T13:24:29Z</time>
      </trkpt>
      <trkpt lat="42.28889" lon="3.28121">
        <ele>6.7</ele>
        <time>2024-11-10T13:24:30Z</time>
      </trkpt>
      <trkpt lat="42.28889" lon="3.28121">
        <ele>6.7</ele>
        <time>2024-11-10T13:24:31Z</time>
      </trkpt>
      <trkpt lat="42.28889" lon="3.28121">
        <ele>6.7</ele>
        <time>2024-11-10T13:24:32Z</time>
      </trkpt>
      <trkpt lat="42.28889" lon="3.28121">
        <ele>6.7</ele>
        <time>2024-11-10T13:24:33Z</time>
      </trkpt>
      <trkpt lat="42.28889" lon="3.28121">
        <ele>6.7</ele>
        <time>2024-11-10T13:24:34Z</time>
      </trkpt>
      <trkpt lat="42.28889" lon="3.28121">
        <ele>6.7</ele>
        <time>2024-11-10T13:24:35Z</time>
      </trkpt>
      <trkpt lat="42.28889" lon="3.28121">
        <ele>6.7</ele>
        <time>2024-11-10T13:24:36Z</time>
      </trkpt>
      <trkpt lat="42.28889" lon="3.28121">
        <ele>6.7</ele>
        <time>2024-11-10T13:24:37Z</time>
      </trkpt>
      <trkpt lat="42.28889" lon="3.28121">
        <ele>6.7</ele>
        <time>2024-11-10T13:24:38Z</time>
      </trkpt>
      <trkpt lat="42.28889" lon="3.28121">
        <ele>6.7</ele>
        <time>2024-11-10T13:24:39Z</time>
      </trkpt>
      <trkpt lat="42.28889" lon="3.28122">
        <ele>6.7</ele>
        <time>2024-11-10T13:24:40Z</time>
      </trkpt>
      <trkpt lat="42.28889" lon="3.28122">
        <ele>6.7</ele>
        <time>2024-11-10T13:24:41Z</time>
      </trkpt>
      <trkpt lat="42.28889" lon="3.28122">
        <ele>6.7</ele>
        <time>2024-11-10T13:24:42Z</time>
      </trkpt>
      <trkpt lat="42.28888" lon="3.28125">
        <ele>6.7</ele>
        <time>2024-11-10T13:24:43Z</time>
      </trkpt>
      <trkpt lat="42.28888" lon="3.28125">
        <ele>6.7</ele>
        <time>2024-11-10T13:24:44Z</time>
      </trkpt>
      <trkpt lat="42.28889" lon="3.28122">
        <ele>6.7</ele>
        <time>2024-11-10T13:24:45Z</time>
      </trkpt>
      <trkpt lat="42.28889" lon="3.28121">
        <ele>6.7</ele>
        <time>2024-11-10T13:24:46Z</time>
      </trkpt>
      <trkpt lat="42.2889" lon="3.28121">
        <ele>6.7</ele>
        <time>2024-11-10T13:24:47Z</time>
      </trkpt>
      <trkpt lat="42.28889" lon="3.28121">
        <ele>6.7</ele>
        <time>2024-11-10T13:24:48Z</time>
      </trkpt>
      <trkpt lat="42.28889" lon="3.28121">
        <ele>6.7</ele>
        <time>2024-11-10T13:24:49Z</time>
      </trkpt>
      <trkpt lat="42.28889" lon="3.28121">
        <ele>6.7</ele>
        <time>2024-11-10T13:24:50Z</time>
      </trkpt>
      <trkpt lat="42.28889" lon="3.28121">
        <ele>6.7</ele>
        <time>2024-11-10T13:24:51Z</time>
      </trkpt>
      <trkpt lat="42.28889" lon="3.28121">
        <ele>6.7</ele>
        <time>2024-11-10T13:24:52Z</time>
      </trkpt>
      <trkpt lat="42.28889" lon="3.28121">
        <ele>6.7</ele>
        <time>2024-11-10T13:24:53Z</time>
      </trkpt>
      <trkpt lat="42.28889" lon="3.28121">
        <ele>6.7</ele>
        <time>2024-11-10T13:24:54Z</time>
      </trkpt>
      <trkpt lat="42.28889" lon="3.28122">
        <ele>6.7</ele>
        <time>2024-11-10T13:24:55Z</time>
      </trkpt>
      <trkpt lat="42.28889" lon="3.28122">
        <ele>6.7</ele>
        <time>2024-11-10T13:24:56Z</time>
      </trkpt>
      <trkpt lat="42.28889" lon="3.28122">
        <ele>6.7</ele>
        <time>2024-11-10T13:24:57Z</time>
      </trkpt>
      <trkpt lat="42.28889" lon="3.28122">
        <ele>6.7</ele>
        <time>2024-11-10T13:24:58Z</time>
      </trkpt>
      <trkpt lat="42.28889" lon="3.28122">
        <ele>6.7</ele>
        <time>2024-11-10T13:24:59Z</time>
      </trkpt>
      <trkpt lat="42.28889" lon="3.28121">
        <ele>6.7</ele>
        <time>2024-11-10T13:25:00Z</time>
      </trkpt>
      <trkpt lat="42.28889" lon="3.28121">
        <ele>6.7</ele>
        <time>2024-11-10T13:25:01Z</time>
      </trkpt>
      <trkpt lat="42.28889" lon="3.28121">
        <ele>6.7</ele>
        <time>2024-11-10T13:25:02Z</time>
      </trkpt>
      <trkpt lat="42.28889" lon="3.28121">
        <ele>6.7</ele>
        <time>2024-11-10T13:25:03Z</time>
      </trkpt>
      <trkpt lat="42.28889" lon="3.28121">
        <ele>6.7</ele>
        <time>2024-11-10T13:25:04Z</time>
      </trkpt>
      <trkpt lat="42.28889" lon="3.28121">
        <ele>6.7</ele>
        <time>2024-11-10T13:25:05Z</time>
      </trkpt>
      <trkpt lat="42.28889" lon="3.28121">
        <ele>6.7</ele>
        <time>2024-11-10T13:25:06Z</time>
      </trkpt>
      <trkpt lat="42.28889" lon="3.28121">
        <ele>6.7</ele>
        <time>2024-11-10T13:25:07Z</time>
      </trkpt>
      <trkpt lat="42.28889" lon="3.28121">
        <ele>6.7</ele>
        <time>2024-11-10T13:25:08Z</time>
      </trkpt>
      <trkpt lat="42.28889" lon="3.28121">
        <ele>6.7</ele>
        <time>2024-11-10T13:25:09Z</time>
      </trkpt>
      <trkpt lat="42.28889" lon="3.28121">
        <ele>6.7</ele>
        <time>2024-11-10T13:25:10Z</time>
      </trkpt>
      <trkpt lat="42.28889" lon="3.28122">
        <ele>6.7</ele>
        <time>2024-11-10T13:25:11Z</time>
      </trkpt>
      <trkpt lat="42.28889" lon="3.28122">
        <ele>6.7</ele>
        <time>2024-11-10T13:25:12Z</time>
      </trkpt>
      <trkpt lat="42.28889" lon="3.28123">
        <ele>6.7</ele>
        <time>2024-11-10T13:25:13Z</time>
      </trkpt>
      <trkpt lat="42.28889" lon="3.28123">
        <ele>6.7</ele>
        <time>2024-11-10T13:25:14Z</time>
      </trkpt>
      <trkpt lat="42.28889" lon="3.28122">
        <ele>6.7</ele>
        <time>2024-11-10T13:25:15Z</time>
      </trkpt>
      <trkpt lat="42.28889" lon="3.28121">
        <ele>6.7</ele>
        <time>2024-11-10T13:25:16Z</time>
      </trkpt>
      <trkpt lat="42.28889" lon="3.28121">
        <ele>6.7</ele>
        <time>2024-11-10T13:25:17Z</time>
      </trkpt>
      <trkpt lat="42.28889" lon="3.28121">
        <ele>6.7</ele>
        <time>2024-11-10T13:25:18Z</time>
      </trkpt>
      <trkpt lat="42.28889" lon="3.28121">
        <ele>6.7</ele>
        <time>2024-11-10T13:25:19Z</time>
      </trkpt>
      <trkpt lat="42.28889" lon="3.28121">
        <ele>6.7</ele>
        <time>2024-11-10T13:25:20Z</time>
      </trkpt>
      <trkpt lat="42.28889" lon="3.28121">
        <ele>6.7</ele>
        <time>2024-11-10T13:25:21Z</time>
      </trkpt>
      <trkpt lat="42.28889" lon="3.28121">
        <ele>6.7</ele>
        <time>2024-11-10T13:25:22Z</time>
      </trkpt>
      <trkpt lat="42.28889" lon="3.28121">
        <ele>6.7</ele>
        <time>2024-11-10T13:25:23Z</time>
      </trkpt>
      <trkpt lat="42.28889" lon="3.28121">
        <ele>6.7</ele>
        <time>2024-11-10T13:25:24Z</time>
      </trkpt>
      <trkpt lat="42.28889" lon="3.28121">
        <ele>6.7</ele>
        <time>2024-11-10T13:25:25Z</time>
      </trkpt>
      <trkpt lat="42.28889" lon="3.28122">
        <ele>6.7</ele>
        <time>2024-11-10T13:25:26Z</time>
      </trkpt>
      <trkpt lat="42.28889" lon="3.28122">
        <ele>6.7</ele>
        <time>2024-11-10T13:25:27Z</time>
      </trkpt>
      <trkpt lat="42.28889" lon="3.28122">
        <ele>6.7</ele>
        <time>2024-11-10T13:25:28Z</time>
      </trkpt>
      <trkpt lat="42.28889" lon="3.28122">
        <ele>6.7</ele>
        <time>2024-11-10T13:25:29Z</time>
      </trkpt>
      <trkpt lat="42.28889" lon="3.28122">
        <ele>6.7</ele>
        <time>2024-11-10T13:25:30Z</time>
      </trkpt>
      <trkpt lat="42.28889" lon="3.28122">
        <ele>6.7</ele>
        <time>2024-11-10T13:25:31Z</time>
      </trkpt>
      <trkpt lat="42.28889" lon="3.28122">
        <ele>6.7</ele>
        <time>2024-11-10T13:25:32Z</time>
      </trkpt>
      <trkpt lat="42.28889" lon="3.28122">
        <ele>6.7</ele>
        <time>2024-11-10T13:25:33Z</time>
      </trkpt>
      <trkpt lat="42.28889" lon="3.28122">
        <ele>6.7</ele>
        <time>2024-11-10T13:25:34Z</time>
      </trkpt>
      <trkpt lat="42.28889" lon="3.28122">
        <ele>6.7</ele>
        <time>2024-11-10T13:25:35Z</time>
      </trkpt>
      <trkpt lat="42.28889" lon="3.28122">
        <ele>6.7</ele>
        <time>2024-11-10T13:25:36Z</time>
      </trkpt>
      <trkpt lat="42.28889" lon="3.28122">
        <ele>6.7</ele>
        <time>2024-11-10T13:25:37Z</time>
      </trkpt>
      <trkpt lat="42.28889" lon="3.28122">
        <ele>6.7</ele>
        <time>2024-11-10T13:25:38Z</time>
      </trkpt>
      <trkpt lat="42.28889" lon="3.28122">
        <ele>6.7</ele>
        <time>2024-11-10T13:25:39Z</time>
      </trkpt>
      <trkpt lat="42.28889" lon="3.28122">
        <ele>6.7</ele>
        <time>2024-11-10T13:25:40Z</time>
      </trkpt>
      <trkpt lat="42.28889" lon="3.28122">
        <ele>6.7</ele>
        <time>2024-11-10T13:25:41Z</time>
      </trkpt>
      <trkpt lat="42.28889" lon="3.28122">
        <ele>6.7</ele>
        <time>2024-11-10T13:25:42Z</time>
      </trkpt>
      <trkpt lat="42.28889" lon="3.28122">
        <ele>6.7</ele>
        <time>2024-11-10T13:25:43Z</time>
      </trkpt>
      <trkpt lat="42.28889" lon="3.28122">
        <ele>6.7</ele>
        <time>2024-11-10T13:25:44Z</time>
      </trkpt>
      <trkpt lat="42.28889" lon="3.28122">
        <ele>6.7</ele>
        <time>2024-11-10T13:25:45Z</time>
      </trkpt>
      <trkpt lat="42.28889" lon="3.28121">
        <ele>6.7</ele>
        <time>2024-11-10T13:25:46Z</time>
      </trkpt>
      <trkpt lat="42.28889" lon="3.28121">
        <ele>6.7</ele>
        <time>2024-11-10T13:25:47Z</time>
      </trkpt>
      <trkpt lat="42.28889" lon="3.28121">
        <ele>6.7</ele>
        <time>2024-11-10T13:25:48Z</time>
      </trkpt>
      <trkpt lat="42.28889" lon="3.28121">
        <ele>6.7</ele>
        <time>2024-11-10T13:25:49Z</time>
      </trkpt>
      <trkpt lat="42.28889" lon="3.28121">
        <ele>6.7</ele>
        <time>2024-11-10T13:25:50Z</time>
      </trkpt>
      <trkpt lat="42.28889" lon="3.28122">
        <ele>6.7</ele>
        <time>2024-11-10T13:25:51Z</time>
      </trkpt>
      <trkpt lat="42.28889" lon="3.28122">
        <ele>6.7</ele>
        <time>2024-11-10T13:25:52Z</time>
      </trkpt>
      <trkpt lat="42.28889" lon="3.28122">
        <ele>6.7</ele>
        <time>2024-11-10T13:25:53Z</time>
      </trkpt>
      <trkpt lat="42.28889" lon="3.28122">
        <ele>6.7</ele>
        <time>2024-11-10T13:25:54Z</time>
      </trkpt>
      <trkpt lat="42.28889" lon="3.28122">
        <ele>6.7</ele>
        <time>2024-11-10T13:25:55Z</time>
      </trkpt>
      <trkpt lat="42.28889" lon="3.28121">
        <ele>6.7</ele>
        <time>2024-11-10T13:25:56Z</time>
      </trkpt>
      <trkpt lat="42.28889" lon="3.28121">
        <ele>6.7</ele>
        <time>2024-11-10T13:25:57Z</time>
      </trkpt>
      <trkpt lat="42.28889" lon="3.28121">
        <ele>6.7</ele>
        <time>2024-11-10T13:25:58Z</time>
      </trkpt>
      <trkpt lat="42.28889" lon="3.28121">
        <ele>6.7</ele>
        <time>2024-11-10T13:25:59Z</time>
      </trkpt>
      <trkpt lat="42.28889" lon="3.28121">
        <ele>6.7</ele>
        <time>2024-11-10T13:26:00Z</time>
      </trkpt>
      <trkpt lat="42.28889" lon="3.28121">
        <ele>6.7</ele>
        <time>2024-11-10T13:26:01Z</time>
      </trkpt>
      <trkpt lat="42.28889" lon="3.28121">
        <ele>6.7</ele>
        <time>2024-11-10T13:26:02Z</time>
      </trkpt>
      <trkpt lat="42.28889" lon="3.28121">
        <ele>6.7</ele>
        <time>2024-11-10T13:26:03Z</time>
      </trkpt>
      <trkpt lat="42.28889" lon="3.28121">
        <ele>6.7</ele>
        <time>2024-11-10T13:26:04Z</time>
      </trkpt>
      <trkpt lat="42.28889" lon="3.28121">
        <ele>6.7</ele>
        <time>2024-11-10T13:26:05Z</time>
      </trkpt>
      <trkpt lat="42.28889" lon="3.28121">
        <ele>6.7</ele>
        <time>2024-11-10T13:26:06Z</time>
      </trkpt>
      <trkpt lat="42.28889" lon="3.28121">
        <ele>6.7</ele>
        <time>2024-11-10T13:26:07Z</time>
      </trkpt>
      <trkpt lat="42.28889" lon="3.28121">
        <ele>6.7</ele>
        <time>2024-11-10T13:26:08Z</time>
      </trkpt>
      <trkpt lat="42.28889" lon="3.28121">
        <ele>6.7</ele>
        <time>2024-11-10T13:26:09Z</time>
      </trkpt>
      <trkpt lat="42.28889" lon="3.28121">
        <ele>6.7</ele>
        <time>2024-11-10T13:26:10Z</time>
      </trkpt>
      <trkpt lat="42.28889" lon="3.28122">
        <ele>6.7</ele>
        <time>2024-11-10T13:26:11Z</time>
      </trkpt>
      <trkpt lat="42.28889" lon="3.28122">
        <ele>6.7</ele>
        <time>2024-11-10T13:26:12Z</time>
      </trkpt>
      <trkpt lat="42.28889" lon="3.28122">
        <ele>6.7</ele>
        <time>2024-11-10T13:26:13Z</time>
      </trkpt>
      <trkpt lat="42.28889" lon="3.28122">
        <ele>6.7</ele>
        <time>2024-11-10T13:26:14Z</time>
      </trkpt>
      <trkpt lat="42.28889" lon="3.28122">
        <ele>6.7</ele>
        <time>2024-11-10T13:26:15Z</time>
      </trkpt>
      <trkpt lat="42.2889" lon="3.28121">
        <ele>6.7</ele>
        <time>2024-11-10T13:26:16Z</time>
      </trkpt>
      <trkpt lat="42.2889" lon="3.28121">
        <ele>6.7</ele>
        <time>2024-11-10T13:26:17Z</time>
      </trkpt>
      <trkpt lat="42.2889" lon="3.28121">
        <ele>6.7</ele>
        <time>2024-11-10T13:26:18Z</time>
      </trkpt>
      <trkpt lat="42.2889" lon="3.28121">
        <ele>6.7</ele>
        <time>2024-11-10T13:26:19Z</time>
      </trkpt>
      <trkpt lat="42.2889" lon="3.28121">
        <ele>6.7</ele>
        <time>2024-11-10T13:26:20Z</time>
      </trkpt>
      <trkpt lat="42.28889" lon="3.28121">
        <ele>6.6</ele>
        <time>2024-11-10T13:26:21Z</time>
      </trkpt>
      <trkpt lat="42.28889" lon="3.28121">
        <ele>6.6</ele>
        <time>2024-11-10T13:26:22Z</time>
      </trkpt>
      <trkpt lat="42.28889" lon="3.28121">
        <ele>6.6</ele>
        <time>2024-11-10T13:26:23Z</time>
      </trkpt>
      <trkpt lat="42.28889" lon="3.28121">
        <ele>6.6</ele>
        <time>2024-11-10T13:26:24Z</time>
      </trkpt>
      <trkpt lat="42.28889" lon="3.28121">
        <ele>6.6</ele>
        <time>2024-11-10T13:26:25Z</time>
      </trkpt>
      <trkpt lat="42.28889" lon="3.28122">
        <ele>6.6</ele>
        <time>2024-11-10T13:26:26Z</time>
      </trkpt>
      <trkpt lat="42.28889" lon="3.28122">
        <ele>6.6</ele>
        <time>2024-11-10T13:26:27Z</time>
      </trkpt>
      <trkpt lat="42.28889" lon="3.28122">
        <ele>6.6</ele>
        <time>2024-11-10T13:26:28Z</time>
      </trkpt>
      <trkpt lat="42.28889" lon="3.28122">
        <ele>6.6</ele>
        <time>2024-11-10T13:26:29Z</time>
      </trkpt>
      <trkpt lat="42.28889" lon="3.28122">
        <ele>6.6</ele>
        <time>2024-11-10T13:26:30Z</time>
      </trkpt>
      <trkpt lat="42.28889" lon="3.28122">
        <ele>6.6</ele>
        <time>2024-11-10T13:26:31Z</time>
      </trkpt>
      <trkpt lat="42.28889" lon="3.28122">
        <ele>6.6</ele>
        <time>2024-11-10T13:26:32Z</time>
      </trkpt>
      <trkpt lat="42.28889" lon="3.28122">
        <ele>6.6</ele>
        <time>2024-11-10T13:26:33Z</time>
      </trkpt>
      <trkpt lat="42.28889" lon="3.28122">
        <ele>6.6</ele>
        <time>2024-11-10T13:26:34Z</time>
      </trkpt>
      <trkpt lat="42.28889" lon="3.28122">
        <ele>6.6</ele>
        <time>2024-11-10T13:26:35Z</time>
      </trkpt>
      <trkpt lat="42.28889" lon="3.28122">
        <ele>6.6</ele>
        <time>2024-11-10T13:26:36Z</time>
      </trkpt>
      <trkpt lat="42.28889" lon="3.28122">
        <ele>6.6</ele>
        <time>2024-11-10T13:26:37Z</time>
      </trkpt>
      <trkpt lat="42.28889" lon="3.28122">
        <ele>6.6</ele>
        <time>2024-11-10T13:26:38Z</time>
      </trkpt>
      <trkpt lat="42.28889" lon="3.28122">
        <ele>6.6</ele>
        <time>2024-11-10T13:26:39Z</time>
      </trkpt>
      <trkpt lat="42.28889" lon="3.28122">
        <ele>6.6</ele>
        <time>2024-11-10T13:26:40Z</time>
      </trkpt>
      <trkpt lat="42.28889" lon="3.28121">
        <ele>6.6</ele>
        <time>2024-11-10T13:26:41Z</time>
      </trkpt>
      <trkpt lat="42.28889" lon="3.28121">
        <ele>6.6</ele>
        <time>2024-11-10T13:26:42Z</time>
      </trkpt>
      <trkpt lat="42.28889" lon="3.28121">
        <ele>6.6</ele>
        <time>2024-11-10T13:26:43Z</time>
      </trkpt>
      <trkpt lat="42.28889" lon="3.28121">
        <ele>6.6</ele>
        <time>2024-11-10T13:26:44Z</time>
      </trkpt>
      <trkpt lat="42.28889" lon="3.28121">
        <ele>6.6</ele>
        <time>2024-11-10T13:26:45Z</time>
      </trkpt>
      <trkpt lat="42.28889" lon="3.28121">
        <ele>6.6</ele>
        <time>2024-11-10T13:26:46Z</time>
      </trkpt>
      <trkpt lat="42.28889" lon="3.28121">
        <ele>6.6</ele>
        <time>2024-11-10T13:26:47Z</time>
      </trkpt>
      <trkpt lat="42.28889" lon="3.28121">
        <ele>6.6</ele>
        <time>2024-11-10T13:26:48Z</time>
      </trkpt>
      <trkpt lat="42.28889" lon="3.28121">
        <ele>6.6</ele>
        <time>2024-11-10T13:26:49Z</time>
      </trkpt>
      <trkpt lat="42.28889" lon="3.28121">
        <ele>6.6</ele>
        <time>2024-11-10T13:26:50Z</time>
      </trkpt>
      <trkpt lat="42.28889" lon="3.28121">
        <ele>6.6</ele>
        <time>2024-11-10T13:26:51Z</time>
      </trkpt>
      <trkpt lat="42.28889" lon="3.28121">
        <ele>6.6</ele>
        <time>2024-11-10T13:26:52Z</time>
      </trkpt>
      <trkpt lat="42.28889" lon="3.28121">
        <ele>6.6</ele>
        <time>2024-11-10T13:26:53Z</time>
      </trkpt>
      <trkpt lat="42.28889" lon="3.28121">
        <ele>6.6</ele>
        <time>2024-11-10T13:26:54Z</time>
      </trkpt>
      <trkpt lat="42.28889" lon="3.28121">
        <ele>6.6</ele>
        <time>2024-11-10T13:26:55Z</time>
      </trkpt>
      <trkpt lat="42.28889" lon="3.28121">
        <ele>6.6</ele>
        <time>2024-11-10T13:26:56Z</time>
      </trkpt>
      <trkpt lat="42.28889" lon="3.28121">
        <ele>6.6</ele>
        <time>2024-11-10T13:26:57Z</time>
      </trkpt>
      <trkpt lat="42.28889" lon="3.28121">
        <ele>6.6</ele>
        <time>2024-11-10T13:26:58Z</time>
      </trkpt>
      <trkpt lat="42.28889" lon="3.28121">
        <ele>6.6</ele>
        <time>2024-11-10T13:26:59Z</time>
      </trkpt>
      <trkpt lat="42.28889" lon="3.28121">
        <ele>6.6</ele>
        <time>2024-11-10T13:27:00Z</time>
      </trkpt>
      <trkpt lat="42.28889" lon="3.28121">
        <ele>6.6</ele>
        <time>2024-11-10T13:27:01Z</time>
      </trkpt>
      <trkpt lat="42.28889" lon="3.28121">
        <ele>6.6</ele>
        <time>2024-11-10T13:27:02Z</time>
      </trkpt>
      <trkpt lat="42.28889" lon="3.28121">
        <ele>6.6</ele>
        <time>2024-11-10T13:27:03Z</time>
      </trkpt>
      <trkpt lat="42.28889" lon="3.28121">
        <ele>6.6</ele>
        <time>2024-11-10T13:27:04Z</time>
      </trkpt>
      <trkpt lat="42.28889" lon="3.28121">
        <ele>6.6</ele>
        <time>2024-11-10T13:27:05Z</time>
      </trkpt>
      <trkpt lat="42.28889" lon="3.28121">
        <ele>6.6</ele>
        <time>2024-11-10T13:27:06Z</time>
      </trkpt>
      <trkpt lat="42.28889" lon="3.28121">
        <ele>6.6</ele>
        <time>2024-11-10T13:27:07Z</time>
      </trkpt>
      <trkpt lat="42.28889" lon="3.28122">
        <ele>6.6</ele>
        <time>2024-11-10T13:27:08Z</time>
      </trkpt>
      <trkpt lat="42.28889" lon="3.28122">
        <ele>6.6</ele>
        <time>2024-11-10T13:27:09Z</time>
      </trkpt>
      <trkpt lat="42.28889" lon="3.28122">
        <ele>6.6</ele>
        <time>2024-11-10T13:27:10Z</time>
      </trkpt>
      <trkpt lat="42.28889" lon="3.28121">
        <ele>6.6</ele>
        <time>2024-11-10T13:27:11Z</time>
      </trkpt>
      <trkpt lat="42.28889" lon="3.28121">
        <ele>6.6</ele>
        <time>2024-11-10T13:27:12Z</time>
      </trkpt>
      <trkpt lat="42.28889" lon="3.28121">
        <ele>6.6</ele>
        <time>2024-11-10T13:27:13Z</time>
      </trkpt>
      <trkpt lat="42.28889" lon="3.28121">
        <ele>6.6</ele>
        <time>2024-11-10T13:27:14Z</time>
      </trkpt>
      <trkpt lat="42.28889" lon="3.28121">
        <ele>6.6</ele>
        <time>2024-11-10T13:27:15Z</time>
      </trkpt>
      <trkpt lat="42.28889" lon="3.28121">
        <ele>6.6</ele>
        <time>2024-11-10T13:27:16Z</time>
      </trkpt>
      <trkpt lat="42.28889" lon="3.28121">
        <ele>6.6</ele>
        <time>2024-11-10T13:27:17Z</time>
      </trkpt>
      <trkpt lat="42.28889" lon="3.28121">
        <ele>6.6</ele>
        <time>2024-11-10T13:27:18Z</time>
      </trkpt>
      <trkpt lat="42.28889" lon="3.28121">
        <ele>6.6</ele>
        <time>2024-11-10T13:27:19Z</time>
      </trkpt>
      <trkpt lat="42.28889" lon="3.28121">
        <ele>6.6</ele>
        <time>2024-11-10T13:27:20Z</time>
      </trkpt>
      <trkpt lat="42.28889" lon="3.28121">
        <ele>6.6</ele>
        <time>2024-11-10T13:27:21Z</time>
      </trkpt>
      <trkpt lat="42.28889" lon="3.28121">
        <ele>6.6</ele>
        <time>2024-11-10T13:27:22Z</time>
      </trkpt>
      <trkpt lat="42.28889" lon="3.28121">
        <ele>6.6</ele>
        <time>2024-11-10T13:27:23Z</time>
      </trkpt>
      <trkpt lat="42.28889" lon="3.28121">
        <ele>6.6</ele>
        <time>2024-11-10T13:27:24Z</time>
      </trkpt>
      <trkpt lat="42.28889" lon="3.28121">
        <ele>6.6</ele>
        <time>2024-11-10T13:27:25Z</time>
      </trkpt>
      <trkpt lat="42.28889" lon="3.28121">
        <ele>6.6</ele>
        <time>2024-11-10T13:27:26Z</time>
      </trkpt>
      <trkpt lat="42.28889" lon="3.28121">
        <ele>6.6</ele>
        <time>2024-11-10T13:27:27Z</time>
      </trkpt>
      <trkpt lat="42.28889" lon="3.28121">
        <ele>6.6</ele>
        <time>2024-11-10T13:27:28Z</time>
      </trkpt>
      <trkpt lat="42.28889" lon="3.28121">
        <ele>6.6</ele>
        <time>2024-11-10T13:27:29Z</time>
      </trkpt>
      <trkpt lat="42.28889" lon="3.28121">
        <ele>6.6</ele>
        <time>2024-11-10T13:27:30Z</time>
      </trkpt>
      <trkpt lat="42.28889" lon="3.28121">
        <ele>6.6</ele>
        <time>2024-11-10T13:27:31Z</time>
      </trkpt>
      <trkpt lat="42.28889" lon="3.28122">
        <ele>6.6</ele>
        <time>2024-11-10T13:27:32Z</time>
      </trkpt>
      <trkpt lat="42.28889" lon="3.28122">
        <ele>6.6</ele>
        <time>2024-11-10T13:27:33Z</time>
      </trkpt>
      <trkpt lat="42.28889" lon="3.28122">
        <ele>6.6</ele>
        <time>2024-11-10T13:27:34Z</time>
      </trkpt>
      <trkpt lat="42.28889" lon="3.28122">
        <ele>6.6</ele>
        <time>2024-11-10T13:27:35Z</time>
      </trkpt>
      <trkpt lat="42.28889" lon="3.28122">
        <ele>6.6</ele>
        <time>2024-11-10T13:27:36Z</time>
      </trkpt>
      <trkpt lat="42.28889" lon="3.28123">
        <ele>6.6</ele>
        <time>2024-11-10T13:27:37Z</time>
      </trkpt>
      <trkpt lat="42.28889" lon="3.28123">
        <ele>6.6</ele>
        <time>2024-11-10T13:27:38Z</time>
      </trkpt>
      <trkpt lat="42.28889" lon="3.28123">
        <ele>6.6</ele>
        <time>2024-11-10T13:27:39Z</time>
      </trkpt>
      <trkpt lat="42.28889" lon="3.28123">
        <ele>6.6</ele>
        <time>2024-11-10T13:27:40Z</time>
      </trkpt>
      <trkpt lat="42.28889" lon="3.28122">
        <ele>6.6</ele>
        <time>2024-11-10T13:27:41Z</time>
      </trkpt>
      <trkpt lat="42.28889" lon="3.28122">
        <ele>6.6</ele>
        <time>2024-11-10T13:27:42Z</time>
      </trkpt>
      <trkpt lat="42.28889" lon="3.28122">
        <ele>6.6</ele>
        <time>2024-11-10T13:27:43Z</time>
      </trkpt>
      <trkpt lat="42.28889" lon="3.28122">
        <ele>6.6</ele>
        <time>2024-11-10T13:27:44Z</time>
      </trkpt>
      <trkpt lat="42.28889" lon="3.28122">
        <ele>6.6</ele>
        <time>2024-11-10T13:27:45Z</time>
      </trkpt>
      <trkpt lat="42.28889" lon="3.28122">
        <ele>6.6</ele>
        <time>2024-11-10T13:27:46Z</time>
      </trkpt>
      <trkpt lat="42.28889" lon="3.28122">
        <ele>6.6</ele>
        <time>2024-11-10T13:27:47Z</time>
      </trkpt>
      <trkpt lat="42.28889" lon="3.28122">
        <ele>6.6</ele>
        <time>2024-11-10T13:27:48Z</time>
      </trkpt>
      <trkpt lat="42.28889" lon="3.28122">
        <ele>6.6</ele>
        <time>2024-11-10T13:27:49Z</time>
      </trkpt>
      <trkpt lat="42.28889" lon="3.28122">
        <ele>6.6</ele>
        <time>2024-11-10T13:27:50Z</time>
      </trkpt>
      <trkpt lat="42.28889" lon="3.28122">
        <ele>6.6</ele>
        <time>2024-11-10T13:27:51Z</time>
      </trkpt>
      <trkpt lat="42.28889" lon="3.28122">
        <ele>6.6</ele>
        <time>2024-11-10T13:27:52Z</time>
      </trkpt>
      <trkpt lat="42.28889" lon="3.28122">
        <ele>6.6</ele>
        <time>2024-11-10T13:27:53Z</time>
      </trkpt>
      <trkpt lat="42.28889" lon="3.28122">
        <ele>6.6</ele>
        <time>2024-11-10T13:27:54Z</time>
      </trkpt>
      <trkpt lat="42.28889" lon="3.28122">
        <ele>6.6</ele>
        <time>2024-11-10T13:27:55Z</time>
      </trkpt>
      <trkpt lat="42.28889" lon="3.28122">
        <ele>6.6</ele>
        <time>2024-11-10T13:27:56Z</time>
      </trkpt>
      <trkpt lat="42.28889" lon="3.28122">
        <ele>6.6</ele>
        <time>2024-11-10T13:27:57Z</time>
      </trkpt>
      <trkpt lat="42.28889" lon="3.28122">
        <ele>6.6</ele>
        <time>2024-11-10T13:27:58Z</time>
      </trkpt>
      <trkpt lat="42.28889" lon="3.28122">
        <ele>6.6</ele>
        <time>2024-11-10T13:27:59Z</time>
      </trkpt>
      <trkpt lat="42.28889" lon="3.28122">
        <ele>6.6</ele>
        <time>2024-11-10T13:28:00Z</time>
      </trkpt>
      <trkpt lat="42.28889" lon="3.28122">
        <ele>6.6</ele>
        <time>2024-11-10T13:28:01Z</time>
      </trkpt>
      <trkpt lat="42.28889" lon="3.28122">
        <ele>6.6</ele>
        <time>2024-11-10T13:28:02Z</time>
      </trkpt>
      <trkpt lat="42.28889" lon="3.28122">
        <ele>6.6</ele>
        <time>2024-11-10T13:28:03Z</time>
      </trkpt>
      <trkpt lat="42.28889" lon="3.28122">
        <ele>6.6</ele>
        <time>2024-11-10T13:28:04Z</time>
      </trkpt>
      <trkpt lat="42.28889" lon="3.28122">
        <ele>6.6</ele>
        <time>2024-11-10T13:28:05Z</time>
      </trkpt>
      <trkpt lat="42.28888" lon="3.28123">
        <ele>6.6</ele>
        <time>2024-11-10T13:28:06Z</time>
      </trkpt>
      <trkpt lat="42.28888" lon="3.28124">
        <ele>6.6</ele>
        <time>2024-11-10T13:28:07Z</time>
      </trkpt>
      <trkpt lat="42.28888" lon="3.28124">
        <ele>6.6</ele>
        <time>2024-11-10T13:28:08Z</time>
      </trkpt>
      <trkpt lat="42.28888" lon="3.28124">
        <ele>6.6</ele>
        <time>2024-11-10T13:28:09Z</time>
      </trkpt>
      <trkpt lat="42.28888" lon="3.28124">
        <ele>6.6</ele>
        <time>2024-11-10T13:28:10Z</time>
      </trkpt>
      <trkpt lat="42.28888" lon="3.28123">
        <ele>6.6</ele>
        <time>2024-11-10T13:28:11Z</time>
      </trkpt>
      <trkpt lat="42.28888" lon="3.28123">
        <ele>6.6</ele>
        <time>2024-11-10T13:28:12Z</time>
      </trkpt>
      <trkpt lat="42.28888" lon="3.28123">
        <ele>6.6</ele>
        <time>2024-11-10T13:28:13Z</time>
      </trkpt>
      <trkpt lat="42.28888" lon="3.28123">
        <ele>6.6</ele>
        <time>2024-11-10T13:28:14Z</time>
      </trkpt>
      <trkpt lat="42.28888" lon="3.28123">
        <ele>6.6</ele>
        <time>2024-11-10T13:28:15Z</time>
      </trkpt>
      <trkpt lat="42.28889" lon="3.28123">
        <ele>6.6</ele>
        <time>2024-11-10T13:28:16Z</time>
      </trkpt>
      <trkpt lat="42.28888" lon="3.28125">
        <ele>6.6</ele>
        <time>2024-11-10T13:28:17Z</time>
      </trkpt>
      <trkpt lat="42.28888" lon="3.28125">
        <ele>6.6</ele>
        <time>2024-11-10T13:28:18Z</time>
      </trkpt>
      <trkpt lat="42.28888" lon="3.28125">
        <ele>6.6</ele>
        <time>2024-11-10T13:28:19Z</time>
      </trkpt>
      <trkpt lat="42.28888" lon="3.28125">
        <ele>6.6</ele>
        <time>2024-11-10T13:28:20Z</time>
      </trkpt>
      <trkpt lat="42.28888" lon="3.28125">
        <ele>6.6</ele>
        <time>2024-11-10T13:28:21Z</time>
      </trkpt>
      <trkpt lat="42.28888" lon="3.28125">
        <ele>6.6</ele>
        <time>2024-11-10T13:28:22Z</time>
      </trkpt>
      <trkpt lat="42.28888" lon="3.28125">
        <ele>6.6</ele>
        <time>2024-11-10T13:28:23Z</time>
      </trkpt>
      <trkpt lat="42.28888" lon="3.28125">
        <ele>6.6</ele>
        <time>2024-11-10T13:28:24Z</time>
      </trkpt>
      <trkpt lat="42.28888" lon="3.28125">
        <ele>6.6</ele>
        <time>2024-11-10T13:28:25Z</time>
      </trkpt>
      <trkpt lat="42.28888" lon="3.28125">
        <ele>6.6</ele>
        <time>2024-11-10T13:28:26Z</time>
      </trkpt>
      <trkpt lat="42.28888" lon="3.28125">
        <ele>6.6</ele>
        <time>2024-11-10T13:28:27Z</time>
      </trkpt>
      <trkpt lat="42.28888" lon="3.28125">
        <ele>6.6</ele>
        <time>2024-11-10T13:28:28Z</time>
      </trkpt>
      <trkpt lat="42.28888" lon="3.28125">
        <ele>6.6</ele>
        <time>2024-11-10T13:28:29Z</time>
      </trkpt>
      <trkpt lat="42.28888" lon="3.28125">
        <ele>6.6</ele>
        <time>2024-11-10T13:28:30Z</time>
      </trkpt>
      <trkpt lat="42.28888" lon="3.28125">
        <ele>6.6</ele>
        <time>2024-11-10T13:28:31Z</time>
      </trkpt>
      <trkpt lat="42.28888" lon="3.28125">
        <ele>6.6</ele>
        <time>2024-11-10T13:28:32Z</time>
      </trkpt>
      <trkpt lat="42.28888" lon="3.28125">
        <ele>6.6</ele>
        <time>2024-11-10T13:28:33Z</time>
      </trkpt>
      <trkpt lat="42.28888" lon="3.28125">
        <ele>6.6</ele>
        <time>2024-11-10T13:28:34Z</time>
      </trkpt>
      <trkpt lat="42.28888" lon="3.28125">
        <ele>6.6</ele>
        <time>2024-11-10T13:28:35Z</time>
      </trkpt>
      <trkpt lat="42.28888" lon="3.28125">
        <ele>6.6</ele>
        <time>2024-11-10T13:28:36Z</time>
      </trkpt>
      <trkpt lat="42.28888" lon="3.28125">
        <ele>6.6</ele>
        <time>2024-11-10T13:28:37Z</time>
      </trkpt>
      <trkpt lat="42.28888" lon="3.28125">
        <ele>6.6</ele>
        <time>2024-11-10T13:28:38Z</time>
      </trkpt>
      <trkpt lat="42.28888" lon="3.28125">
        <ele>6.6</ele>
        <time>2024-11-10T13:28:39Z</time>
      </trkpt>
      <trkpt lat="42.28888" lon="3.28125">
        <ele>6.6</ele>
        <time>2024-11-10T13:28:40Z</time>
      </trkpt>
      <trkpt lat="42.28888" lon="3.28124">
        <ele>6.6</ele>
        <time>2024-11-10T13:28:41Z</time>
      </trkpt>
      <trkpt lat="42.28888" lon="3.28123">
        <ele>6.6</ele>
        <time>2024-11-10T13:28:42Z</time>
      </trkpt>
      <trkpt lat="42.28888" lon="3.28123">
        <ele>6.6</ele>
        <time>2024-11-10T13:28:43Z</time>
      </trkpt>
      <trkpt lat="42.28888" lon="3.28123">
        <ele>6.6</ele>
        <time>2024-11-10T13:28:44Z</time>
      </trkpt>
      <trkpt lat="42.28888" lon="3.28123">
        <ele>6.6</ele>
        <time>2024-11-10T13:28:45Z</time>
      </trkpt>
      <trkpt lat="42.28888" lon="3.28125">
        <ele>6.6</ele>
        <time>2024-11-10T13:28:46Z</time>
      </trkpt>
      <trkpt lat="42.28888" lon="3.28125">
        <ele>6.6</ele>
        <time>2024-11-10T13:28:47Z</time>
      </trkpt>
      <trkpt lat="42.28888" lon="3.28125">
        <ele>6.6</ele>
        <time>2024-11-10T13:28:48Z</time>
      </trkpt>
      <trkpt lat="42.28888" lon="3.28125">
        <ele>6.6</ele>
        <time>2024-11-10T13:28:49Z</time>
      </trkpt>
      <trkpt lat="42.28888" lon="3.28125">
        <ele>6.6</ele>
        <time>2024-11-10T13:28:50Z</time>
      </trkpt>
      <trkpt lat="42.28888" lon="3.28125">
        <ele>6.6</ele>
        <time>2024-11-10T13:28:51Z</time>
      </trkpt>
      <trkpt lat="42.28888" lon="3.28125">
        <ele>6.6</ele>
        <time>2024-11-10T13:28:52Z</time>
      </trkpt>
      <trkpt lat="42.28888" lon="3.28125">
        <ele>6.6</ele>
        <time>2024-11-10T13:28:53Z</time>
      </trkpt>
      <trkpt lat="42.28888" lon="3.28125">
        <ele>6.6</ele>
        <time>2024-11-10T13:28:54Z</time>
      </trkpt>
      <trkpt lat="42.28888" lon="3.28125">
        <ele>6.6</ele>
        <time>2024-11-10T13:28:55Z</time>
      </trkpt>
      <trkpt lat="42.28889" lon="3.28122">
        <ele>6.6</ele>
        <time>2024-11-10T13:28:56Z</time>
      </trkpt>
      <trkpt lat="42.2889" lon="3.28121">
        <ele>6.6</ele>
        <time>2024-11-10T13:28:57Z</time>
      </trkpt>
      <trkpt lat="42.2889" lon="3.28121">
        <ele>6.6</ele>
        <time>2024-11-10T13:28:58Z</time>
      </trkpt>
      <trkpt lat="42.2889" lon="3.28121">
        <ele>6.6</ele>
        <time>2024-11-10T13:28:59Z</time>
      </trkpt>
      <trkpt lat="42.2889" lon="3.28121">
        <ele>6.6</ele>
        <time>2024-11-10T13:29:00Z</time>
      </trkpt>
      <trkpt lat="42.28888" lon="3.28125">
        <ele>6.6</ele>
        <time>2024-11-10T13:29:01Z</time>
      </trkpt>
      <trkpt lat="42.28888" lon="3.28126">
        <ele>6.6</ele>
        <time>2024-11-10T13:29:02Z</time>
      </trkpt>
      <trkpt lat="42.28888" lon="3.28126">
        <ele>6.6</ele>
        <time>2024-11-10T13:29:03Z</time>
      </trkpt>
      <trkpt lat="42.28888" lon="3.28125">
        <ele>6.6</ele>
        <time>2024-11-10T13:29:04Z</time>
      </trkpt>
      <trkpt lat="42.28888" lon="3.28125">
        <ele>6.6</ele>
        <time>2024-11-10T13:29:05Z</time>
      </trkpt>
      <trkpt lat="42.28888" lon="3.28125">
        <ele>6.6</ele>
        <time>2024-11-10T13:29:06Z</time>
      </trkpt>
      <trkpt lat="42.28888" lon="3.28125">
        <ele>6.6</ele>
        <time>2024-11-10T13:29:07Z</time>
      </trkpt>
      <trkpt lat="42.28888" lon="3.28125">
        <ele>6.6</ele>
        <time>2024-11-10T13:29:08Z</time>
      </trkpt>
      <trkpt lat="42.28888" lon="3.28125">
        <ele>6.6</ele>
        <time>2024-11-10T13:29:09Z</time>
      </trkpt>
      <trkpt lat="42.28889" lon="3.28123">
        <ele>6.6</ele>
        <time>2024-11-10T13:29:10Z</time>
      </trkpt>
      <trkpt lat="42.28889" lon="3.28121">
        <ele>6.6</ele>
        <time>2024-11-10T13:29:11Z</time>
      </trkpt>
      <trkpt lat="42.28889" lon="3.28121">
        <ele>6.6</ele>
        <time>2024-11-10T13:29:12Z</time>
      </trkpt>
      <trkpt lat="42.28889" lon="3.28121">
        <ele>6.6</ele>
        <time>2024-11-10T13:29:13Z</time>
      </trkpt>
      <trkpt lat="42.28889" lon="3.28121">
        <ele>6.6</ele>
        <time>2024-11-10T13:29:14Z</time>
      </trkpt>
      <trkpt lat="42.28889" lon="3.28121">
        <ele>6.6</ele>
        <time>2024-11-10T13:29:15Z</time>
      </trkpt>
      <trkpt lat="42.28889" lon="3.28121">
        <ele>6.6</ele>
        <time>2024-11-10T13:29:16Z</time>
      </trkpt>
      <trkpt lat="42.28889" lon="3.28121">
        <ele>6.6</ele>
        <time>2024-11-10T13:29:17Z</time>
      </trkpt>
      <trkpt lat="42.28889" lon="3.28121">
        <ele>6.6</ele>
        <time>2024-11-10T13:29:18Z</time>
      </trkpt>
      <trkpt lat="42.28889" lon="3.28121">
        <ele>6.6</ele>
        <time>2024-11-10T13:29:19Z</time>
      </trkpt>
      <trkpt lat="42.28889" lon="3.28121">
        <ele>6.6</ele>
        <time>2024-11-10T13:29:20Z</time>
      </trkpt>
      <trkpt lat="42.28889" lon="3.28121">
        <ele>6.6</ele>
        <time>2024-11-10T13:29:21Z</time>
      </trkpt>
      <trkpt lat="42.28889" lon="3.28122">
        <ele>6.6</ele>
        <time>2024-11-10T13:29:22Z</time>
      </trkpt>
      <trkpt lat="42.28889" lon="3.28122">
        <ele>6.6</ele>
        <time>2024-11-10T13:29:23Z</time>
      </trkpt>
      <trkpt lat="42.28889" lon="3.28122">
        <ele>6.6</ele>
        <time>2024-11-10T13:29:24Z</time>
      </trkpt>
      <trkpt lat="42.28889" lon="3.28122">
        <ele>6.6</ele>
        <time>2024-11-10T13:29:25Z</time>
      </trkpt>
      <trkpt lat="42.28889" lon="3.28122">
        <ele>6.6</ele>
        <time>2024-11-10T13:29:26Z</time>
      </trkpt>
      <trkpt lat="42.28889" lon="3.28121">
        <ele>6.6</ele>
        <time>2024-11-10T13:29:27Z</time>
      </trkpt>
      <trkpt lat="42.28889" lon="3.28121">
        <ele>6.6</ele>
        <time>2024-11-10T13:29:28Z</time>
      </trkpt>
      <trkpt lat="42.28889" lon="3.28121">
        <ele>6.6</ele>
        <time>2024-11-10T13:29:29Z</time>
      </trkpt>
      <trkpt lat="42.28889" lon="3.28121">
        <ele>6.6</ele>
        <time>2024-11-10T13:29:30Z</time>
      </trkpt>
      <trkpt lat="42.28889" lon="3.28121">
        <ele>6.6</ele>
        <time>2024-11-10T13:29:31Z</time>
      </trkpt>
      <trkpt lat="42.28889" lon="3.28121">
        <ele>6.6</ele>
        <time>2024-11-10T13:29:32Z</time>
      </trkpt>
      <trkpt lat="42.28889" lon="3.28122">
        <ele>6.6</ele>
        <time>2024-11-10T13:29:33Z</time>
      </trkpt>
      <trkpt lat="42.28889" lon="3.28122">
        <ele>6.6</ele>
        <time>2024-11-10T13:29:34Z</time>
      </trkpt>
      <trkpt lat="42.28889" lon="3.28122">
        <ele>6.6</ele>
        <time>2024-11-10T13:29:35Z</time>
      </trkpt>
      <trkpt lat="42.28889" lon="3.28122">
        <ele>6.6</ele>
        <time>2024-11-10T13:29:36Z</time>
      </trkpt>
      <trkpt lat="42.28889" lon="3.28121">
        <ele>6.6</ele>
        <time>2024-11-10T13:29:37Z</time>
      </trkpt>
      <trkpt lat="42.28889" lon="3.28121">
        <ele>6.6</ele>
        <time>2024-11-10T13:29:38Z</time>
      </trkpt>
      <trkpt lat="42.28889" lon="3.28121">
        <ele>6.6</ele>
        <time>2024-11-10T13:29:39Z</time>
      </trkpt>
      <trkpt lat="42.28889" lon="3.28121">
        <ele>6.6</ele>
        <time>2024-11-10T13:29:40Z</time>
      </trkpt>
      <trkpt lat="42.28889" lon="3.28121">
        <ele>6.6</ele>
        <time>2024-11-10T13:29:41Z</time>
      </trkpt>
      <trkpt lat="42.28889" lon="3.28121">
        <ele>6.6</ele>
        <time>2024-11-10T13:29:42Z</time>
      </trkpt>
      <trkpt lat="42.28889" lon="3.28122">
        <ele>6.6</ele>
        <time>2024-11-10T13:29:43Z</time>
      </trkpt>
      <trkpt lat="42.28889" lon="3.28122">
        <ele>6.6</ele>
        <time>2024-11-10T13:29:44Z</time>
      </trkpt>
      <trkpt lat="42.28889" lon="3.28122">
        <ele>6.6</ele>
        <time>2024-11-10T13:29:45Z</time>
      </trkpt>
      <trkpt lat="42.28889" lon="3.28122">
        <ele>6.6</ele>
        <time>2024-11-10T13:29:46Z</time>
      </trkpt>
      <trkpt lat="42.28889" lon="3.28121">
        <ele>6.6</ele>
        <time>2024-11-10T13:29:47Z</time>
      </trkpt>
      <trkpt lat="42.28889" lon="3.28121">
        <ele>6.6</ele>
        <time>2024-11-10T13:29:48Z</time>
      </trkpt>
      <trkpt lat="42.28889" lon="3.28121">
        <ele>6.6</ele>
        <time>2024-11-10T13:29:49Z</time>
      </trkpt>
      <trkpt lat="42.28889" lon="3.28121">
        <ele>6.6</ele>
        <time>2024-11-10T13:29:50Z</time>
      </trkpt>
      <trkpt lat="42.28889" lon="3.28121">
        <ele>6.6</ele>
        <time>2024-11-10T13:29:51Z</time>
      </trkpt>
      <trkpt lat="42.28889" lon="3.28121">
        <ele>6.6</ele>
        <time>2024-11-10T13:29:52Z</time>
      </trkpt>
      <trkpt lat="42.28889" lon="3.28121">
        <ele>6.6</ele>
        <time>2024-11-10T13:29:53Z</time>
      </trkpt>
      <trkpt lat="42.28889" lon="3.28121">
        <ele>6.6</ele>
        <time>2024-11-10T13:29:54Z</time>
      </trkpt>
      <trkpt lat="42.28889" lon="3.28121">
        <ele>6.6</ele>
        <time>2024-11-10T13:29:55Z</time>
      </trkpt>
      <trkpt lat="42.28889" lon="3.28121">
        <ele>6.6</ele>
        <time>2024-11-10T13:29:56Z</time>
      </trkpt>
      <trkpt lat="42.28889" lon="3.28121">
        <ele>6.6</ele>
        <time>2024-11-10T13:29:57Z</time>
      </trkpt>
      <trkpt lat="42.28889" lon="3.28121">
        <ele>6.6</ele>
        <time>2024-11-10T13:29:58Z</time>
      </trkpt>
      <trkpt lat="42.28889" lon="3.28121">
        <ele>6.6</ele>
        <time>2024-11-10T13:29:59Z</time>
      </trkpt>
      <trkpt lat="42.28889" lon="3.28121">
        <ele>6.6</ele>
        <time>2024-11-10T13:30:00Z</time>
      </trkpt>
      <trkpt lat="42.28889" lon="3.28121">
        <ele>6.6</ele>
        <time>2024-11-10T13:30:01Z</time>
      </trkpt>
      <trkpt lat="42.28889" lon="3.28122">
        <ele>6.6</ele>
        <time>2024-11-10T13:30:02Z</time>
      </trkpt>
      <trkpt lat="42.28889" lon="3.28122">
        <ele>6.6</ele>
        <time>2024-11-10T13:30:03Z</time>
      </trkpt>
      <trkpt lat="42.28889" lon="3.28122">
        <ele>6.6</ele>
        <time>2024-11-10T13:30:04Z</time>
      </trkpt>
      <trkpt lat="42.28889" lon="3.28122">
        <ele>6.6</ele>
        <time>2024-11-10T13:30:05Z</time>
      </trkpt>
      <trkpt lat="42.28889" lon="3.28121">
        <ele>6.6</ele>
        <time>2024-11-10T13:30:06Z</time>
      </trkpt>
      <trkpt lat="42.28889" lon="3.28121">
        <ele>6.6</ele>
        <time>2024-11-10T13:30:07Z</time>
      </trkpt>
      <trkpt lat="42.28889" lon="3.28121">
        <ele>6.6</ele>
        <time>2024-11-10T13:30:08Z</time>
      </trkpt>
      <trkpt lat="42.28889" lon="3.28121">
        <ele>6.6</ele>
        <time>2024-11-10T13:30:09Z</time>
      </trkpt>
      <trkpt lat="42.28889" lon="3.28121">
        <ele>6.6</ele>
        <time>2024-11-10T13:30:10Z</time>
      </trkpt>
      <trkpt lat="42.28889" lon="3.28121">
        <ele>6.6</ele>
        <time>2024-11-10T13:30:11Z</time>
      </trkpt>
      <trkpt lat="42.28889" lon="3.28121">
        <ele>6.6</ele>
        <time>2024-11-10T13:30:12Z</time>
      </trkpt>
      <trkpt lat="42.28889" lon="3.28121">
        <ele>6.6</ele>
        <time>2024-11-10T13:30:13Z</time>
      </trkpt>
      <trkpt lat="42.28889" lon="3.28122">
        <ele>6.6</ele>
        <time>2024-11-10T13:30:14Z</time>
      </trkpt>
      <trkpt lat="42.28889" lon="3.28122">
        <ele>6.6</ele>
        <time>2024-11-10T13:30:15Z</time>
      </trkpt>
      <trkpt lat="42.28889" lon="3.28121">
        <ele>6.6</ele>
        <time>2024-11-10T13:30:16Z</time>
      </trkpt>
      <trkpt lat="42.28889" lon="3.28121">
        <ele>6.6</ele>
        <time>2024-11-10T13:30:17Z</time>
      </trkpt>
      <trkpt lat="42.28889" lon="3.28121">
        <ele>6.6</ele>
        <time>2024-11-10T13:30:18Z</time>
      </trkpt>
      <trkpt lat="42.28889" lon="3.28121">
        <ele>6.6</ele>
        <time>2024-11-10T13:30:19Z</time>
      </trkpt>
      <trkpt lat="42.28889" lon="3.28121">
        <ele>6.6</ele>
        <time>2024-11-10T13:30:20Z</time>
      </trkpt>
      <trkpt lat="42.28889" lon="3.28121">
        <ele>6.6</ele>
        <time>2024-11-10T13:30:21Z</time>
      </trkpt>
      <trkpt lat="42.28889" lon="3.28121">
        <ele>6.6</ele>
        <time>2024-11-10T13:30:22Z</time>
      </trkpt>
      <trkpt lat="42.28889" lon="3.28121">
        <ele>6.6</ele>
        <time>2024-11-10T13:30:23Z</time>
      </trkpt>
      <trkpt lat="42.28889" lon="3.28121">
        <ele>6.6</ele>
        <time>2024-11-10T13:30:24Z</time>
      </trkpt>
      <trkpt lat="42.28889" lon="3.28121">
        <ele>6.6</ele>
        <time>2024-11-10T13:30:25Z</time>
      </trkpt>
      <trkpt lat="42.28889" lon="3.28121">
        <ele>6.6</ele>
        <time>2024-11-10T13:30:26Z</time>
      </trkpt>
      <trkpt lat="42.28889" lon="3.28121">
        <ele>6.6</ele>
        <time>2024-11-10T13:30:27Z</time>
      </trkpt>
      <trkpt lat="42.28889" lon="3.28121">
        <ele>6.6</ele>
        <time>2024-11-10T13:30:28Z</time>
      </trkpt>
      <trkpt lat="42.28889" lon="3.28121">
        <ele>6.6</ele>
        <time>2024-11-10T13:30:29Z</time>
      </trkpt>
      <trkpt lat="42.28889" lon="3.28121">
        <ele>6.6</ele>
        <time>2024-11-10T13:30:30Z</time>
      </trkpt>
      <trkpt lat="42.28889" lon="3.28121">
        <ele>6.6</ele>
        <time>2024-11-10T13:30:31Z</time>
      </trkpt>
      <trkpt lat="42.28889" lon="3.28122">
        <ele>6.6</ele>
        <time>2024-11-10T13:30:32Z</time>
      </trkpt>
      <trkpt lat="42.28889" lon="3.28122">
        <ele>6.6</ele>
        <time>2024-11-10T13:30:33Z</time>
      </trkpt>
      <trkpt lat="42.28889" lon="3.28122">
        <ele>6.6</ele>
        <time>2024-11-10T13:30:34Z</time>
      </trkpt>
      <trkpt lat="42.28889" lon="3.28122">
        <ele>6.6</ele>
        <time>2024-11-10T13:30:35Z</time>
      </trkpt>
      <trkpt lat="42.28889" lon="3.28122">
        <ele>6.6</ele>
        <time>2024-11-10T13:30:36Z</time>
      </trkpt>
      <trkpt lat="42.28889" lon="3.28122">
        <ele>6.6</ele>
        <time>2024-11-10T13:30:37Z</time>
      </trkpt>
      <trkpt lat="42.28889" lon="3.28122">
        <ele>6.6</ele>
        <time>2024-11-10T13:30:38Z</time>
      </trkpt>
      <trkpt lat="42.28889" lon="3.28122">
        <ele>6.6</ele>
        <time>2024-11-10T13:30:39Z</time>
      </trkpt>
      <trkpt lat="42.28889" lon="3.28122">
        <ele>6.6</ele>
        <time>2024-11-10T13:30:40Z</time>
      </trkpt>
      <trkpt lat="42.28889" lon="3.28122">
        <ele>6.6</ele>
        <time>2024-11-10T13:30:41Z</time>
      </trkpt>
      <trkpt lat="42.28889" lon="3.28122">
        <ele>6.6</ele>
        <time>2024-11-10T13:30:42Z</time>
      </trkpt>
      <trkpt lat="42.28889" lon="3.28122">
        <ele>6.6</ele>
        <time>2024-11-10T13:30:43Z</time>
      </trkpt>
      <trkpt lat="42.2889" lon="3.28122">
        <ele>6.6</ele>
        <time>2024-11-10T13:30:44Z</time>
      </trkpt>
      <trkpt lat="42.2889" lon="3.28122">
        <ele>6.6</ele>
        <time>2024-11-10T13:30:45Z</time>
      </trkpt>
      <trkpt lat="42.2889" lon="3.28122">
        <ele>6.6</ele>
        <time>2024-11-10T13:30:46Z</time>
      </trkpt>
      <trkpt lat="42.2889" lon="3.28122">
        <ele>6.6</ele>
        <time>2024-11-10T13:30:47Z</time>
      </trkpt>
      <trkpt lat="42.2889" lon="3.28122">
        <ele>6.6</ele>
        <time>2024-11-10T13:30:48Z</time>
      </trkpt>
      <trkpt lat="42.2889" lon="3.28122">
        <ele>6.6</ele>
        <time>2024-11-10T13:30:49Z</time>
      </trkpt>
      <trkpt lat="42.2889" lon="3.28122">
        <ele>6.6</ele>
        <time>2024-11-10T13:30:50Z</time>
      </trkpt>
      <trkpt lat="42.2889" lon="3.28122">
        <ele>6.6</ele>
        <time>2024-11-10T13:30:51Z</time>
      </trkpt>
      <trkpt lat="42.2889" lon="3.28122">
        <ele>6.6</ele>
        <time>2024-11-10T13:30:52Z</time>
      </trkpt>
      <trkpt lat="42.2889" lon="3.28122">
        <ele>6.6</ele>
        <time>2024-11-10T13:30:53Z</time>
      </trkpt>
      <trkpt lat="42.2889" lon="3.28122">
        <ele>6.6</ele>
        <time>2024-11-10T13:30:54Z</time>
      </trkpt>
      <trkpt lat="42.2889" lon="3.28122">
        <ele>6.6</ele>
        <time>2024-11-10T13:30:55Z</time>
      </trkpt>
      <trkpt lat="42.2889" lon="3.28122">
        <ele>6.6</ele>
        <time>2024-11-10T13:30:56Z</time>
      </trkpt>
      <trkpt lat="42.2889" lon="3.28121">
        <ele>6.6</ele>
        <time>2024-11-10T13:30:57Z</time>
      </trkpt>
      <trkpt lat="42.2889" lon="3.28121">
        <ele>6.6</ele>
        <time>2024-11-10T13:30:58Z</time>
      </trkpt>
      <trkpt lat="42.2889" lon="3.28121">
        <ele>6.6</ele>
        <time>2024-11-10T13:30:59Z</time>
      </trkpt>
      <trkpt lat="42.2889" lon="3.28121">
        <ele>6.6</ele>
        <time>2024-11-10T13:31:00Z</time>
      </trkpt>
      <trkpt lat="42.2889" lon="3.28121">
        <ele>6.6</ele>
        <time>2024-11-10T13:31:01Z</time>
      </trkpt>
      <trkpt lat="42.2889" lon="3.28121">
        <ele>6.6</ele>
        <time>2024-11-10T13:31:02Z</time>
      </trkpt>
      <trkpt lat="42.2889" lon="3.28122">
        <ele>6.6</ele>
        <time>2024-11-10T13:31:03Z</time>
      </trkpt>
      <trkpt lat="42.2889" lon="3.28122">
        <ele>6.6</ele>
        <time>2024-11-10T13:31:04Z</time>
      </trkpt>
      <trkpt lat="42.2889" lon="3.28122">
        <ele>6.6</ele>
        <time>2024-11-10T13:31:05Z</time>
      </trkpt>
      <trkpt lat="42.2889" lon="3.28122">
        <ele>6.6</ele>
        <time>2024-11-10T13:31:06Z</time>
      </trkpt>
      <trkpt lat="42.2889" lon="3.28121">
        <ele>6.6</ele>
        <time>2024-11-10T13:31:07Z</time>
      </trkpt>
      <trkpt lat="42.2889" lon="3.28121">
        <ele>6.5</ele>
        <time>2024-11-10T13:31:08Z</time>
      </trkpt>
      <trkpt lat="42.2889" lon="3.28121">
        <ele>6.5</ele>
        <time>2024-11-10T13:31:09Z</time>
      </trkpt>
      <trkpt lat="42.2889" lon="3.28121">
        <ele>6.5</ele>
        <time>2024-11-10T13:31:10Z</time>
      </trkpt>
      <trkpt lat="42.2889" lon="3.28121">
        <ele>6.5</ele>
        <time>2024-11-10T13:31:11Z</time>
      </trkpt>
      <trkpt lat="42.2889" lon="3.28122">
        <ele>6.5</ele>
        <time>2024-11-10T13:31:12Z</time>
      </trkpt>
      <trkpt lat="42.2889" lon="3.28122">
        <ele>6.5</ele>
        <time>2024-11-10T13:31:13Z</time>
      </trkpt>
      <trkpt lat="42.2889" lon="3.28122">
        <ele>6.5</ele>
        <time>2024-11-10T13:31:14Z</time>
      </trkpt>
      <trkpt lat="42.2889" lon="3.28122">
        <ele>6.5</ele>
        <time>2024-11-10T13:31:15Z</time>
      </trkpt>
      <trkpt lat="42.2889" lon="3.28121">
        <ele>6.5</ele>
        <time>2024-11-10T13:31:16Z</time>
      </trkpt>
      <trkpt lat="42.2889" lon="3.28121">
        <ele>6.5</ele>
        <time>2024-11-10T13:31:17Z</time>
      </trkpt>
      <trkpt lat="42.2889" lon="3.28121">
        <ele>6.5</ele>
        <time>2024-11-10T13:31:18Z</time>
      </trkpt>
      <trkpt lat="42.2889" lon="3.28122">
        <ele>6.5</ele>
        <time>2024-11-10T13:31:19Z</time>
      </trkpt>
      <trkpt lat="42.2889" lon="3.28122">
        <ele>6.5</ele>
        <time>2024-11-10T13:31:20Z</time>
      </trkpt>
      <trkpt lat="42.2889" lon="3.28122">
        <ele>6.5</ele>
        <time>2024-11-10T13:31:21Z</time>
      </trkpt>
      <trkpt lat="42.2889" lon="3.28122">
        <ele>6.5</ele>
        <time>2024-11-10T13:31:22Z</time>
      </trkpt>
      <trkpt lat="42.2889" lon="3.28121">
        <ele>6.5</ele>
        <time>2024-11-10T13:31:23Z</time>
      </trkpt>
      <trkpt lat="42.2889" lon="3.28122">
        <ele>6.5</ele>
        <time>2024-11-10T13:31:24Z</time>
      </trkpt>
      <trkpt lat="42.2889" lon="3.28122">
        <ele>6.5</ele>
        <time>2024-11-10T13:31:26Z</time>
      </trkpt>
      <trkpt lat="42.2889" lon="3.28122">
        <ele>6.5</ele>
        <time>2024-11-10T13:31:28Z</time>
      </trkpt>
      <trkpt lat="42.2889" lon="3.28121">
        <ele>6.5</ele>
        <time>2024-11-10T13:31:29Z</time>
      </trkpt>
      <trkpt lat="42.2889" lon="3.28121">
        <ele>6.5</ele>
        <time>2024-11-10T13:31:30Z</time>
      </trkpt>
      <trkpt lat="42.28891" lon="3.28121">
        <ele>6.5</ele>
        <time>2024-11-10T13:31:31Z</time>
      </trkpt>
      <trkpt lat="42.28891" lon="3.28121">
        <ele>6.5</ele>
        <time>2024-11-10T13:31:32Z</time>
      </trkpt>
      <trkpt lat="42.28891" lon="3.28121">
        <ele>6.5</ele>
        <time>2024-11-10T13:31:33Z</time>
      </trkpt>
      <trkpt lat="42.28891" lon="3.28121">
        <ele>6.5</ele>
        <time>2024-11-10T13:31:34Z</time>
      </trkpt>
      <trkpt lat="42.28891" lon="3.28121">
        <ele>6.5</ele>
        <time>2024-11-10T13:31:35Z</time>
      </trkpt>
      <trkpt lat="42.28891" lon="3.28123">
        <ele>6.5</ele>
        <time>2024-11-10T13:31:36Z</time>
      </trkpt>
      <trkpt lat="42.28891" lon="3.28123">
        <ele>6.5</ele>
        <time>2024-11-10T13:31:37Z</time>
      </trkpt>
      <trkpt lat="42.2889" lon="3.28122">
        <ele>6.5</ele>
        <time>2024-11-10T13:31:38Z</time>
      </trkpt>
      <trkpt lat="42.2889" lon="3.28122">
        <ele>6.5</ele>
        <time>2024-11-10T13:31:39Z</time>
      </trkpt>
      <trkpt lat="42.2889" lon="3.28121">
        <ele>6.5</ele>
        <time>2024-11-10T13:31:40Z</time>
      </trkpt>
      <trkpt lat="42.2889" lon="3.28121">
        <ele>6.5</ele>
        <time>2024-11-10T13:31:41Z</time>
      </trkpt>
      <trkpt lat="42.2889" lon="3.28121">
        <ele>6.5</ele>
        <time>2024-11-10T13:31:42Z</time>
      </trkpt>
      <trkpt lat="42.2889" lon="3.28121">
        <ele>6.5</ele>
        <time>2024-11-10T13:31:43Z</time>
      </trkpt>
      <trkpt lat="42.2889" lon="3.28121">
        <ele>6.5</ele>
        <time>2024-11-10T13:31:44Z</time>
      </trkpt>
      <trkpt lat="42.2889" lon="3.28121">
        <ele>6.5</ele>
        <time>2024-11-10T13:31:45Z</time>
      </trkpt>
      <trkpt lat="42.2889" lon="3.28121">
        <ele>6.5</ele>
        <time>2024-11-10T13:31:46Z</time>
      </trkpt>
      <trkpt lat="42.2889" lon="3.28121">
        <ele>6.5</ele>
        <time>2024-11-10T13:31:47Z</time>
      </trkpt>
      <trkpt lat="42.2889" lon="3.28121">
        <ele>6.5</ele>
        <time>2024-11-10T13:31:48Z</time>
      </trkpt>
      <trkpt lat="42.2889" lon="3.28121">
        <ele>6.5</ele>
        <time>2024-11-10T13:31:49Z</time>
      </trkpt>
      <trkpt lat="42.2889" lon="3.28121">
        <ele>6.5</ele>
        <time>2024-11-10T13:31:50Z</time>
      </trkpt>
      <trkpt lat="42.2889" lon="3.28121">
        <ele>6.5</ele>
        <time>2024-11-10T13:31:51Z</time>
      </trkpt>
      <trkpt lat="42.2889" lon="3.28121">
        <ele>6.5</ele>
        <time>2024-11-10T13:31:52Z</time>
      </trkpt>
      <trkpt lat="42.2889" lon="3.28121">
        <ele>6.5</ele>
        <time>2024-11-10T13:31:53Z</time>
      </trkpt>
      <trkpt lat="42.2889" lon="3.28121">
        <ele>6.5</ele>
        <time>2024-11-10T13:31:54Z</time>
      </trkpt>
      <trkpt lat="42.2889" lon="3.28121">
        <ele>6.5</ele>
        <time>2024-11-10T13:31:55Z</time>
      </trkpt>
      <trkpt lat="42.2889" lon="3.28121">
        <ele>6.5</ele>
        <time>2024-11-10T13:31:56Z</time>
      </trkpt>
      <trkpt lat="42.2889" lon="3.28121">
        <ele>6.5</ele>
        <time>2024-11-10T13:31:57Z</time>
      </trkpt>
      <trkpt lat="42.2889" lon="3.28121">
        <ele>6.5</ele>
        <time>2024-11-10T13:31:58Z</time>
      </trkpt>
      <trkpt lat="42.2889" lon="3.28121">
        <ele>6.5</ele>
        <time>2024-11-10T13:31:59Z</time>
      </trkpt>
      <trkpt lat="42.2889" lon="3.28121">
        <ele>6.5</ele>
        <time>2024-11-10T13:32:00Z</time>
      </trkpt>
      <trkpt lat="42.2889" lon="3.28121">
        <ele>6.5</ele>
        <time>2024-11-10T13:32:01Z</time>
      </trkpt>
      <trkpt lat="42.2889" lon="3.28121">
        <ele>6.5</ele>
        <time>2024-11-10T13:32:02Z</time>
      </trkpt>
      <trkpt lat="42.2889" lon="3.28121">
        <ele>6.5</ele>
        <time>2024-11-10T13:32:03Z</time>
      </trkpt>
      <trkpt lat="42.2889" lon="3.28121">
        <ele>6.5</ele>
        <time>2024-11-10T13:32:04Z</time>
      </trkpt>
      <trkpt lat="42.2889" lon="3.28121">
        <ele>6.5</ele>
        <time>2024-11-10T13:32:05Z</time>
      </trkpt>
      <trkpt lat="42.2889" lon="3.28121">
        <ele>6.5</ele>
        <time>2024-11-10T13:32:06Z</time>
      </trkpt>
      <trkpt lat="42.2889" lon="3.28121">
        <ele>6.5</ele>
        <time>2024-11-10T13:32:07Z</time>
      </trkpt>
      <trkpt lat="42.2889" lon="3.28121">
        <ele>6.5</ele>
        <time>2024-11-10T13:32:08Z</time>
      </trkpt>
      <trkpt lat="42.2889" lon="3.28121">
        <ele>6.5</ele>
        <time>2024-11-10T13:32:09Z</time>
      </trkpt>
      <trkpt lat="42.2889" lon="3.28121">
        <ele>6.5</ele>
        <time>2024-11-10T13:32:10Z</time>
      </trkpt>
      <trkpt lat="42.2889" lon="3.28121">
        <ele>6.5</ele>
        <time>2024-11-10T13:32:11Z</time>
      </trkpt>
      <trkpt lat="42.2889" lon="3.28121">
        <ele>6.5</ele>
        <time>2024-11-10T13:32:12Z</time>
      </trkpt>
      <trkpt lat="42.2889" lon="3.28121">
        <ele>6.5</ele>
        <time>2024-11-10T13:32:13Z</time>
      </trkpt>
      <trkpt lat="42.2889" lon="3.28121">
        <ele>6.5</ele>
        <time>2024-11-10T13:32:14Z</time>
      </trkpt>
      <trkpt lat="42.2889" lon="3.28121">
        <ele>6.5</ele>
        <time>2024-11-10T13:32:15Z</time>
      </trkpt>
      <trkpt lat="42.2889" lon="3.28121">
        <ele>6.5</ele>
        <time>2024-11-10T13:32:16Z</time>
      </trkpt>
      <trkpt lat="42.28891" lon="3.28122">
        <ele>6.5</ele>
        <time>2024-11-10T13:32:17Z</time>
      </trkpt>
      <trkpt lat="42.28891" lon="3.28122">
        <ele>6.5</ele>
        <time>2024-11-10T13:32:18Z</time>
      </trkpt>
      <trkpt lat="42.28891" lon="3.28122">
        <ele>6.5</ele>
        <time>2024-11-10T13:32:19Z</time>
      </trkpt>
      <trkpt lat="42.28891" lon="3.28122">
        <ele>6.5</ele>
        <time>2024-11-10T13:32:20Z</time>
      </trkpt>
      <trkpt lat="42.28891" lon="3.28122">
        <ele>6.5</ele>
        <time>2024-11-10T13:32:21Z</time>
      </trkpt>
      <trkpt lat="42.2889" lon="3.28122">
        <ele>6.5</ele>
        <time>2024-11-10T13:32:22Z</time>
      </trkpt>
      <trkpt lat="42.2889" lon="3.28121">
        <ele>6.5</ele>
        <time>2024-11-10T13:32:23Z</time>
      </trkpt>
      <trkpt lat="42.2889" lon="3.28121">
        <ele>6.5</ele>
        <time>2024-11-10T13:32:24Z</time>
      </trkpt>
      <trkpt lat="42.2889" lon="3.28121">
        <ele>6.5</ele>
        <time>2024-11-10T13:32:25Z</time>
      </trkpt>
      <trkpt lat="42.2889" lon="3.28121">
        <ele>6.5</ele>
        <time>2024-11-10T13:32:26Z</time>
      </trkpt>
      <trkpt lat="42.2889" lon="3.28121">
        <ele>6.5</ele>
        <time>2024-11-10T13:32:27Z</time>
      </trkpt>
      <trkpt lat="42.2889" lon="3.28121">
        <ele>6.5</ele>
        <time>2024-11-10T13:32:28Z</time>
      </trkpt>
      <trkpt lat="42.2889" lon="3.28121">
        <ele>6.5</ele>
        <time>2024-11-10T13:32:29Z</time>
      </trkpt>
      <trkpt lat="42.2889" lon="3.28121">
        <ele>6.5</ele>
        <time>2024-11-10T13:32:30Z</time>
      </trkpt>
      <trkpt lat="42.2889" lon="3.28121">
        <ele>6.5</ele>
        <time>2024-11-10T13:32:31Z</time>
      </trkpt>
      <trkpt lat="42.2889" lon="3.28121">
        <ele>6.5</ele>
        <time>2024-11-10T13:32:32Z</time>
      </trkpt>
      <trkpt lat="42.2889" lon="3.28121">
        <ele>6.5</ele>
        <time>2024-11-10T13:32:33Z</time>
      </trkpt>
      <trkpt lat="42.2889" lon="3.28121">
        <ele>6.5</ele>
        <time>2024-11-10T13:32:34Z</time>
      </trkpt>
      <trkpt lat="42.2889" lon="3.28121">
        <ele>6.5</ele>
        <time>2024-11-10T13:32:35Z</time>
      </trkpt>
      <trkpt lat="42.2889" lon="3.28121">
        <ele>6.5</ele>
        <time>2024-11-10T13:32:36Z</time>
      </trkpt>
      <trkpt lat="42.2889" lon="3.28121">
        <ele>6.5</ele>
        <time>2024-11-10T13:32:37Z</time>
      </trkpt>
      <trkpt lat="42.2889" lon="3.28122">
        <ele>6.5</ele>
        <time>2024-11-10T13:32:38Z</time>
      </trkpt>
      <trkpt lat="42.2889" lon="3.28122">
        <ele>6.5</ele>
        <time>2024-11-10T13:32:39Z</time>
      </trkpt>
      <trkpt lat="42.2889" lon="3.28122">
        <ele>6.5</ele>
        <time>2024-11-10T13:32:40Z</time>
      </trkpt>
      <trkpt lat="42.2889" lon="3.28122">
        <ele>6.5</ele>
        <time>2024-11-10T13:32:41Z</time>
      </trkpt>
      <trkpt lat="42.2889" lon="3.28122">
        <ele>6.5</ele>
        <time>2024-11-10T13:32:42Z</time>
      </trkpt>
      <trkpt lat="42.2889" lon="3.28122">
        <ele>6.5</ele>
        <time>2024-11-10T13:32:43Z</time>
      </trkpt>
      <trkpt lat="42.2889" lon="3.28122">
        <ele>6.5</ele>
        <time>2024-11-10T13:32:44Z</time>
      </trkpt>
      <trkpt lat="42.2889" lon="3.28122">
        <ele>6.5</ele>
        <time>2024-11-10T13:32:45Z</time>
      </trkpt>
      <trkpt lat="42.2889" lon="3.28122">
        <ele>6.5</ele>
        <time>2024-11-10T13:32:46Z</time>
      </trkpt>
      <trkpt lat="42.2889" lon="3.28122">
        <ele>6.5</ele>
        <time>2024-11-10T13:32:47Z</time>
      </trkpt>
      <trkpt lat="42.2889" lon="3.28122">
        <ele>6.5</ele>
        <time>2024-11-10T13:32:48Z</time>
      </trkpt>
      <trkpt lat="42.2889" lon="3.28122">
        <ele>6.5</ele>
        <time>2024-11-10T13:32:49Z</time>
      </trkpt>
      <trkpt lat="42.2889" lon="3.28122">
        <ele>6.5</ele>
        <time>2024-11-10T13:32:50Z</time>
      </trkpt>
      <trkpt lat="42.2889" lon="3.28122">
        <ele>6.5</ele>
        <time>2024-11-10T13:32:51Z</time>
      </trkpt>
      <trkpt lat="42.2889" lon="3.28122">
        <ele>6.5</ele>
        <time>2024-11-10T13:32:52Z</time>
      </trkpt>
      <trkpt lat="42.2889" lon="3.28122">
        <ele>6.5</ele>
        <time>2024-11-10T13:32:53Z</time>
      </trkpt>
      <trkpt lat="42.2889" lon="3.28122">
        <ele>6.5</ele>
        <time>2024-11-10T13:32:54Z</time>
      </trkpt>
      <trkpt lat="42.2889" lon="3.28122">
        <ele>6.5</ele>
        <time>2024-11-10T13:32:55Z</time>
      </trkpt>
      <trkpt lat="42.2889" lon="3.28122">
        <ele>6.5</ele>
        <time>2024-11-10T13:32:56Z</time>
      </trkpt>
      <trkpt lat="42.2889" lon="3.28122">
        <ele>6.5</ele>
        <time>2024-11-10T13:32:57Z</time>
      </trkpt>
      <trkpt lat="42.2889" lon="3.28122">
        <ele>6.5</ele>
        <time>2024-11-10T13:32:58Z</time>
      </trkpt>
      <trkpt lat="42.2889" lon="3.28122">
        <ele>6.5</ele>
        <time>2024-11-10T13:32:59Z</time>
      </trkpt>
      <trkpt lat="42.2889" lon="3.28122">
        <ele>6.5</ele>
        <time>2024-11-10T13:33:00Z</time>
      </trkpt>
      <trkpt lat="42.2889" lon="3.28122">
        <ele>6.5</ele>
        <time>2024-11-10T13:33:01Z</time>
      </trkpt>
      <trkpt lat="42.2889" lon="3.28122">
        <ele>6.5</ele>
        <time>2024-11-10T13:33:02Z</time>
      </trkpt>
      <trkpt lat="42.2889" lon="3.28122">
        <ele>6.5</ele>
        <time>2024-11-10T13:33:03Z</time>
      </trkpt>
      <trkpt lat="42.2889" lon="3.28121">
        <ele>6.5</ele>
        <time>2024-11-10T13:33:04Z</time>
      </trkpt>
      <trkpt lat="42.2889" lon="3.28121">
        <ele>6.5</ele>
        <time>2024-11-10T13:33:05Z</time>
      </trkpt>
      <trkpt lat="42.2889" lon="3.28121">
        <ele>6.5</ele>
        <time>2024-11-10T13:33:06Z</time>
      </trkpt>
      <trkpt lat="42.2889" lon="3.28121">
        <ele>6.5</ele>
        <time>2024-11-10T13:33:07Z</time>
      </trkpt>
      <trkpt lat="42.2889" lon="3.28122">
        <ele>6.5</ele>
        <time>2024-11-10T13:33:08Z</time>
      </trkpt>
      <trkpt lat="42.2889" lon="3.28122">
        <ele>6.5</ele>
        <time>2024-11-10T13:33:09Z</time>
      </trkpt>
      <trkpt lat="42.2889" lon="3.28122">
        <ele>6.5</ele>
        <time>2024-11-10T13:33:10Z</time>
      </trkpt>
      <trkpt lat="42.2889" lon="3.28122">
        <ele>6.5</ele>
        <time>2024-11-10T13:33:11Z</time>
      </trkpt>
      <trkpt lat="42.2889" lon="3.28122">
        <ele>6.5</ele>
        <time>2024-11-10T13:33:12Z</time>
      </trkpt>
      <trkpt lat="42.2889" lon="3.28121">
        <ele>6.5</ele>
        <time>2024-11-10T13:33:13Z</time>
      </trkpt>
      <trkpt lat="42.2889" lon="3.28121">
        <ele>6.5</ele>
        <time>2024-11-10T13:33:14Z</time>
      </trkpt>
      <trkpt lat="42.2889" lon="3.28121">
        <ele>6.5</ele>
        <time>2024-11-10T13:33:15Z</time>
      </trkpt>
      <trkpt lat="42.2889" lon="3.28121">
        <ele>6.5</ele>
        <time>2024-11-10T13:33:16Z</time>
      </trkpt>
      <trkpt lat="42.2889" lon="3.28121">
        <ele>6.5</ele>
        <time>2024-11-10T13:33:17Z</time>
      </trkpt>
      <trkpt lat="42.2889" lon="3.28121">
        <ele>6.5</ele>
        <time>2024-11-10T13:33:18Z</time>
      </trkpt>
      <trkpt lat="42.2889" lon="3.28122">
        <ele>6.5</ele>
        <time>2024-11-10T13:33:19Z</time>
      </trkpt>
      <trkpt lat="42.2889" lon="3.28122">
        <ele>6.5</ele>
        <time>2024-11-10T13:33:20Z</time>
      </trkpt>
      <trkpt lat="42.2889" lon="3.28122">
        <ele>6.5</ele>
        <time>2024-11-10T13:33:21Z</time>
      </trkpt>
      <trkpt lat="42.2889" lon="3.28122">
        <ele>6.5</ele>
        <time>2024-11-10T13:33:22Z</time>
      </trkpt>
      <trkpt lat="42.2889" lon="3.28122">
        <ele>6.5</ele>
        <time>2024-11-10T13:33:23Z</time>
      </trkpt>
      <trkpt lat="42.2889" lon="3.28122">
        <ele>6.5</ele>
        <time>2024-11-10T13:33:24Z</time>
      </trkpt>
      <trkpt lat="42.2889" lon="3.28122">
        <ele>6.5</ele>
        <time>2024-11-10T13:33:25Z</time>
      </trkpt>
      <trkpt lat="42.2889" lon="3.28122">
        <ele>6.5</ele>
        <time>2024-11-10T13:33:26Z</time>
      </trkpt>
      <trkpt lat="42.2889" lon="3.28122">
        <ele>6.5</ele>
        <time>2024-11-10T13:33:27Z</time>
      </trkpt>
      <trkpt lat="42.2889" lon="3.28122">
        <ele>6.5</ele>
        <time>2024-11-10T13:33:28Z</time>
      </trkpt>
      <trkpt lat="42.2889" lon="3.28122">
        <ele>6.5</ele>
        <time>2024-11-10T13:33:29Z</time>
      </trkpt>
      <trkpt lat="42.2889" lon="3.28122">
        <ele>6.5</ele>
        <time>2024-11-10T13:33:30Z</time>
      </trkpt>
      <trkpt lat="42.2889" lon="3.28122">
        <ele>6.5</ele>
        <time>2024-11-10T13:33:31Z</time>
      </trkpt>
      <trkpt lat="42.2889" lon="3.28122">
        <ele>6.5</ele>
        <time>2024-11-10T13:33:32Z</time>
      </trkpt>
      <trkpt lat="42.28891" lon="3.28122">
        <ele>6.5</ele>
        <time>2024-11-10T13:33:33Z</time>
      </trkpt>
      <trkpt lat="42.28891" lon="3.28122">
        <ele>6.5</ele>
        <time>2024-11-10T13:33:34Z</time>
      </trkpt>
      <trkpt lat="42.28891" lon="3.28122">
        <ele>6.5</ele>
        <time>2024-11-10T13:33:35Z</time>
      </trkpt>
      <trkpt lat="42.28891" lon="3.28122">
        <ele>6.5</ele>
        <time>2024-11-10T13:33:36Z</time>
      </trkpt>
      <trkpt lat="42.28891" lon="3.28122">
        <ele>6.5</ele>
        <time>2024-11-10T13:33:37Z</time>
      </trkpt>
      <trkpt lat="42.28891" lon="3.28122">
        <ele>6.5</ele>
        <time>2024-11-10T13:33:38Z</time>
      </trkpt>
      <trkpt lat="42.28891" lon="3.28122">
        <ele>6.5</ele>
        <time>2024-11-10T13:33:39Z</time>
      </trkpt>
      <trkpt lat="42.28891" lon="3.28122">
        <ele>6.5</ele>
        <time>2024-11-10T13:33:40Z</time>
      </trkpt>
      <trkpt lat="42.28891" lon="3.28122">
        <ele>6.5</ele>
        <time>2024-11-10T13:33:41Z</time>
      </trkpt>
      <trkpt lat="42.28891" lon="3.28122">
        <ele>6.5</ele>
        <time>2024-11-10T13:33:42Z</time>
      </trkpt>
      <trkpt lat="42.2889" lon="3.28122">
        <ele>6.5</ele>
        <time>2024-11-10T13:33:43Z</time>
      </trkpt>
      <trkpt lat="42.2889" lon="3.28122">
        <ele>6.5</ele>
        <time>2024-11-10T13:33:44Z</time>
      </trkpt>
      <trkpt lat="42.2889" lon="3.28122">
        <ele>6.5</ele>
        <time>2024-11-10T13:33:45Z</time>
      </trkpt>
      <trkpt lat="42.2889" lon="3.28122">
        <ele>6.5</ele>
        <time>2024-11-10T13:33:46Z</time>
      </trkpt>
      <trkpt lat="42.2889" lon="3.28122">
        <ele>6.5</ele>
        <time>2024-11-10T13:33:47Z</time>
      </trkpt>
      <trkpt lat="42.28891" lon="3.28122">
        <ele>6.5</ele>
        <time>2024-11-10T13:33:48Z</time>
      </trkpt>
      <trkpt lat="42.28891" lon="3.28122">
        <ele>6.5</ele>
        <time>2024-11-10T13:33:49Z</time>
      </trkpt>
      <trkpt lat="42.28891" lon="3.28122">
        <ele>6.5</ele>
        <time>2024-11-10T13:33:50Z</time>
      </trkpt>
      <trkpt lat="42.28891" lon="3.28122">
        <ele>6.5</ele>
        <time>2024-11-10T13:33:51Z</time>
      </trkpt>
      <trkpt lat="42.28891" lon="3.28122">
        <ele>6.5</ele>
        <time>2024-11-10T13:33:52Z</time>
      </trkpt>
      <trkpt lat="42.28891" lon="3.28122">
        <ele>6.5</ele>
        <time>2024-11-10T13:33:53Z</time>
      </trkpt>
      <trkpt lat="42.28891" lon="3.28122">
        <ele>6.5</ele>
        <time>2024-11-10T13:33:54Z</time>
      </trkpt>
      <trkpt lat="42.28891" lon="3.28122">
        <ele>6.5</ele>
        <time>2024-11-10T13:33:55Z</time>
      </trkpt>
      <trkpt lat="42.28891" lon="3.28122">
        <ele>6.5</ele>
        <time>2024-11-10T13:33:56Z</time>
      </trkpt>
      <trkpt lat="42.28891" lon="3.28122">
        <ele>6.5</ele>
        <time>2024-11-10T13:33:57Z</time>
      </trkpt>
      <trkpt lat="42.28891" lon="3.28121">
        <ele>6.5</ele>
        <time>2024-11-10T13:33:58Z</time>
      </trkpt>
      <trkpt lat="42.28891" lon="3.28121">
        <ele>6.5</ele>
        <time>2024-11-10T13:33:59Z</time>
      </trkpt>
      <trkpt lat="42.28891" lon="3.28121">
        <ele>6.5</ele>
        <time>2024-11-10T13:34:00Z</time>
      </trkpt>
      <trkpt lat="42.28891" lon="3.28121">
        <ele>6.5</ele>
        <time>2024-11-10T13:34:01Z</time>
      </trkpt>
      <trkpt lat="42.28891" lon="3.28121">
        <ele>6.5</ele>
        <time>2024-11-10T13:34:02Z</time>
      </trkpt>
      <trkpt lat="42.28891" lon="3.28121">
        <ele>6.5</ele>
        <time>2024-11-10T13:34:03Z</time>
      </trkpt>
      <trkpt lat="42.28891" lon="3.28121">
        <ele>6.5</ele>
        <time>2024-11-10T13:34:04Z</time>
      </trkpt>
      <trkpt lat="42.28891" lon="3.28121">
        <ele>6.5</ele>
        <time>2024-11-10T13:34:05Z</time>
      </trkpt>
      <trkpt lat="42.28891" lon="3.28121">
        <ele>6.5</ele>
        <time>2024-11-10T13:34:06Z</time>
      </trkpt>
      <trkpt lat="42.28891" lon="3.28121">
        <ele>6.5</ele>
        <time>2024-11-10T13:34:07Z</time>
      </trkpt>
      <trkpt lat="42.28891" lon="3.28121">
        <ele>6.5</ele>
        <time>2024-11-10T13:34:08Z</time>
      </trkpt>
      <trkpt lat="42.28891" lon="3.28121">
        <ele>6.5</ele>
        <time>2024-11-10T13:34:09Z</time>
      </trkpt>
      <trkpt lat="42.28891" lon="3.28121">
        <ele>6.5</ele>
        <time>2024-11-10T13:34:10Z</time>
      </trkpt>
      <trkpt lat="42.28891" lon="3.28121">
        <ele>6.5</ele>
        <time>2024-11-10T13:34:11Z</time>
      </trkpt>
      <trkpt lat="42.28891" lon="3.28121">
        <ele>6.5</ele>
        <time>2024-11-10T13:34:12Z</time>
      </trkpt>
      <trkpt lat="42.28891" lon="3.28122">
        <ele>6.5</ele>
        <time>2024-11-10T13:34:13Z</time>
      </trkpt>
      <trkpt lat="42.28891" lon="3.28122">
        <ele>6.5</ele>
        <time>2024-11-10T13:34:14Z</time>
      </trkpt>
      <trkpt lat="42.28891" lon="3.28122">
        <ele>6.5</ele>
        <time>2024-11-10T13:34:15Z</time>
      </trkpt>
      <trkpt lat="42.28891" lon="3.28122">
        <ele>6.5</ele>
        <time>2024-11-10T13:34:16Z</time>
      </trkpt>
      <trkpt lat="42.28891" lon="3.28122">
        <ele>6.5</ele>
        <time>2024-11-10T13:34:17Z</time>
      </trkpt>
      <trkpt lat="42.28891" lon="3.28122">
        <ele>6.5</ele>
        <time>2024-11-10T13:34:18Z</time>
      </trkpt>
      <trkpt lat="42.2889" lon="3.28121">
        <ele>6.5</ele>
        <time>2024-11-10T13:34:19Z</time>
      </trkpt>
      <trkpt lat="42.2889" lon="3.28121">
        <ele>6.5</ele>
        <time>2024-11-10T13:34:20Z</time>
      </trkpt>
      <trkpt lat="42.2889" lon="3.28121">
        <ele>6.5</ele>
        <time>2024-11-10T13:34:21Z</time>
      </trkpt>
      <trkpt lat="42.2889" lon="3.28122">
        <ele>6.5</ele>
        <time>2024-11-10T13:34:22Z</time>
      </trkpt>
      <trkpt lat="42.2889" lon="3.28122">
        <ele>6.5</ele>
        <time>2024-11-10T13:34:23Z</time>
      </trkpt>
      <trkpt lat="42.2889" lon="3.28122">
        <ele>6.5</ele>
        <time>2024-11-10T13:34:24Z</time>
      </trkpt>
      <trkpt lat="42.2889" lon="3.28122">
        <ele>6.5</ele>
        <time>2024-11-10T13:34:25Z</time>
      </trkpt>
      <trkpt lat="42.2889" lon="3.28122">
        <ele>6.5</ele>
        <time>2024-11-10T13:34:26Z</time>
      </trkpt>
      <trkpt lat="42.2889" lon="3.28122">
        <ele>6.5</ele>
        <time>2024-11-10T13:34:27Z</time>
      </trkpt>
      <trkpt lat="42.2889" lon="3.28122">
        <ele>6.5</ele>
        <time>2024-11-10T13:34:28Z</time>
      </trkpt>
      <trkpt lat="42.2889" lon="3.28122">
        <ele>6.5</ele>
        <time>2024-11-10T13:34:29Z</time>
      </trkpt>
      <trkpt lat="42.2889" lon="3.28122">
        <ele>6.5</ele>
        <time>2024-11-10T13:34:30Z</time>
      </trkpt>
      <trkpt lat="42.2889" lon="3.28122">
        <ele>6.5</ele>
        <time>2024-11-10T13:34:31Z</time>
      </trkpt>
      <trkpt lat="42.28892" lon="3.28124">
        <ele>6.5</ele>
        <time>2024-11-10T13:34:32Z</time>
      </trkpt>
      <trkpt lat="42.28893" lon="3.28125">
        <ele>6.5</ele>
        <time>2024-11-10T13:34:33Z</time>
      </trkpt>
      <trkpt lat="42.28893" lon="3.28125">
        <ele>6.5</ele>
        <time>2024-11-10T13:34:34Z</time>
      </trkpt>
      <trkpt lat="42.28892" lon="3.28125">
        <ele>6.5</ele>
        <time>2024-11-10T13:34:35Z</time>
      </trkpt>
      <trkpt lat="42.28892" lon="3.28125">
        <ele>6.5</ele>
        <time>2024-11-10T13:34:36Z</time>
      </trkpt>
      <trkpt lat="42.28892" lon="3.28125">
        <ele>6.5</ele>
        <time>2024-11-10T13:34:37Z</time>
      </trkpt>
      <trkpt lat="42.28892" lon="3.28125">
        <ele>6.5</ele>
        <time>2024-11-10T13:34:38Z</time>
      </trkpt>
      <trkpt lat="42.28892" lon="3.28125">
        <ele>6.5</ele>
        <time>2024-11-10T13:34:39Z</time>
      </trkpt>
      <trkpt lat="42.28892" lon="3.28125">
        <ele>6.5</ele>
        <time>2024-11-10T13:34:40Z</time>
      </trkpt>
      <trkpt lat="42.28892" lon="3.28125">
        <ele>6.5</ele>
        <time>2024-11-10T13:34:41Z</time>
      </trkpt>
      <trkpt lat="42.28892" lon="3.28125">
        <ele>6.5</ele>
        <time>2024-11-10T13:34:42Z</time>
      </trkpt>
      <trkpt lat="42.28892" lon="3.28125">
        <ele>6.5</ele>
        <time>2024-11-10T13:34:43Z</time>
      </trkpt>
      <trkpt lat="42.28892" lon="3.28125">
        <ele>6.5</ele>
        <time>2024-11-10T13:34:44Z</time>
      </trkpt>
      <trkpt lat="42.28892" lon="3.28125">
        <ele>6.5</ele>
        <time>2024-11-10T13:34:45Z</time>
      </trkpt>
      <trkpt lat="42.28892" lon="3.28125">
        <ele>6.5</ele>
        <time>2024-11-10T13:34:46Z</time>
      </trkpt>
      <trkpt lat="42.28892" lon="3.28125">
        <ele>6.5</ele>
        <time>2024-11-10T13:34:47Z</time>
      </trkpt>
      <trkpt lat="42.28892" lon="3.28125">
        <ele>6.5</ele>
        <time>2024-11-10T13:34:48Z</time>
      </trkpt>
      <trkpt lat="42.28892" lon="3.28125">
        <ele>6.5</ele>
        <time>2024-11-10T13:34:49Z</time>
      </trkpt>
      <trkpt lat="42.28892" lon="3.28125">
        <ele>6.5</ele>
        <time>2024-11-10T13:34:50Z</time>
      </trkpt>
      <trkpt lat="42.28892" lon="3.28125">
        <ele>6.5</ele>
        <time>2024-11-10T13:34:51Z</time>
      </trkpt>
      <trkpt lat="42.28892" lon="3.28125">
        <ele>6.5</ele>
        <time>2024-11-10T13:34:52Z</time>
      </trkpt>
      <trkpt lat="42.28892" lon="3.28125">
        <ele>6.5</ele>
        <time>2024-11-10T13:34:53Z</time>
      </trkpt>
      <trkpt lat="42.28892" lon="3.28125">
        <ele>6.5</ele>
        <time>2024-11-10T13:34:54Z</time>
      </trkpt>
      <trkpt lat="42.28892" lon="3.28125">
        <ele>6.5</ele>
        <time>2024-11-10T13:34:55Z</time>
      </trkpt>
      <trkpt lat="42.28892" lon="3.28125">
        <ele>6.5</ele>
        <time>2024-11-10T13:34:56Z</time>
      </trkpt>
      <trkpt lat="42.28892" lon="3.28125">
        <ele>6.5</ele>
        <time>2024-11-10T13:34:57Z</time>
      </trkpt>
      <trkpt lat="42.28892" lon="3.28125">
        <ele>6.5</ele>
        <time>2024-11-10T13:34:58Z</time>
      </trkpt>
      <trkpt lat="42.28892" lon="3.28125">
        <ele>6.5</ele>
        <time>2024-11-10T13:34:59Z</time>
      </trkpt>
      <trkpt lat="42.28892" lon="3.28125">
        <ele>6.5</ele>
        <time>2024-11-10T13:35:00Z</time>
      </trkpt>
      <trkpt lat="42.28892" lon="3.28125">
        <ele>6.5</ele>
        <time>2024-11-10T13:35:01Z</time>
      </trkpt>
      <trkpt lat="42.28892" lon="3.28125">
        <ele>6.5</ele>
        <time>2024-11-10T13:35:02Z</time>
      </trkpt>
      <trkpt lat="42.28892" lon="3.28125">
        <ele>6.5</ele>
        <time>2024-11-10T13:35:03Z</time>
      </trkpt>
      <trkpt lat="42.28892" lon="3.28125">
        <ele>6.5</ele>
        <time>2024-11-10T13:35:04Z</time>
      </trkpt>
      <trkpt lat="42.28892" lon="3.28125">
        <ele>6.5</ele>
        <time>2024-11-10T13:35:05Z</time>
      </trkpt>
      <trkpt lat="42.28892" lon="3.28125">
        <ele>6.5</ele>
        <time>2024-11-10T13:35:06Z</time>
      </trkpt>
      <trkpt lat="42.28892" lon="3.28125">
        <ele>6.5</ele>
        <time>2024-11-10T13:35:07Z</time>
      </trkpt>
      <trkpt lat="42.28892" lon="3.28125">
        <ele>6.5</ele>
        <time>2024-11-10T13:35:08Z</time>
      </trkpt>
      <trkpt lat="42.28892" lon="3.28125">
        <ele>6.5</ele>
        <time>2024-11-10T13:35:09Z</time>
      </trkpt>
      <trkpt lat="42.28892" lon="3.28125">
        <ele>6.5</ele>
        <time>2024-11-10T13:35:10Z</time>
      </trkpt>
      <trkpt lat="42.28892" lon="3.28125">
        <ele>6.5</ele>
        <time>2024-11-10T13:35:11Z</time>
      </trkpt>
      <trkpt lat="42.28892" lon="3.28125">
        <ele>6.5</ele>
        <time>2024-11-10T13:35:12Z</time>
      </trkpt>
      <trkpt lat="42.28892" lon="3.28125">
        <ele>6.5</ele>
        <time>2024-11-10T13:35:13Z</time>
      </trkpt>
      <trkpt lat="42.28892" lon="3.28125">
        <ele>6.5</ele>
        <time>2024-11-10T13:35:14Z</time>
      </trkpt>
      <trkpt lat="42.28892" lon="3.28125">
        <ele>6.5</ele>
        <time>2024-11-10T13:35:15Z</time>
      </trkpt>
      <trkpt lat="42.28892" lon="3.28125">
        <ele>6.5</ele>
        <time>2024-11-10T13:35:16Z</time>
      </trkpt>
      <trkpt lat="42.28892" lon="3.28125">
        <ele>6.5</ele>
        <time>2024-11-10T13:35:17Z</time>
      </trkpt>
      <trkpt lat="42.28892" lon="3.28125">
        <ele>6.5</ele>
        <time>2024-11-10T13:35:18Z</time>
      </trkpt>
      <trkpt lat="42.28892" lon="3.28125">
        <ele>6.5</ele>
        <time>2024-11-10T13:35:19Z</time>
      </trkpt>
      <trkpt lat="42.28892" lon="3.28125">
        <ele>6.5</ele>
        <time>2024-11-10T13:35:20Z</time>
      </trkpt>
      <trkpt lat="42.28892" lon="3.28125">
        <ele>6.5</ele>
        <time>2024-11-10T13:35:21Z</time>
      </trkpt>
      <trkpt lat="42.28892" lon="3.28125">
        <ele>6.5</ele>
        <time>2024-11-10T13:35:22Z</time>
      </trkpt>
      <trkpt lat="42.28892" lon="3.28125">
        <ele>6.5</ele>
        <time>2024-11-10T13:35:23Z</time>
      </trkpt>
      <trkpt lat="42.28892" lon="3.28125">
        <ele>6.5</ele>
        <time>2024-11-10T13:35:24Z</time>
      </trkpt>
      <trkpt lat="42.28892" lon="3.28125">
        <ele>6.5</ele>
        <time>2024-11-10T13:35:25Z</time>
      </trkpt>
      <trkpt lat="42.28892" lon="3.28125">
        <ele>6.5</ele>
        <time>2024-11-10T13:35:26Z</time>
      </trkpt>
      <trkpt lat="42.28892" lon="3.28125">
        <ele>6.5</ele>
        <time>2024-11-10T13:35:27Z</time>
      </trkpt>
      <trkpt lat="42.28892" lon="3.28125">
        <ele>6.5</ele>
        <time>2024-11-10T13:35:28Z</time>
      </trkpt>
      <trkpt lat="42.28892" lon="3.28125">
        <ele>6.5</ele>
        <time>2024-11-10T13:35:29Z</time>
      </trkpt>
      <trkpt lat="42.28892" lon="3.28125">
        <ele>6.5</ele>
        <time>2024-11-10T13:35:30Z</time>
      </trkpt>
      <trkpt lat="42.28892" lon="3.28125">
        <ele>6.5</ele>
        <time>2024-11-10T13:35:31Z</time>
      </trkpt>
      <trkpt lat="42.28892" lon="3.28125">
        <ele>6.5</ele>
        <time>2024-11-10T13:35:32Z</time>
      </trkpt>
      <trkpt lat="42.28892" lon="3.28125">
        <ele>6.5</ele>
        <time>2024-11-10T13:35:33Z</time>
      </trkpt>
      <trkpt lat="42.28892" lon="3.28125">
        <ele>6.5</ele>
        <time>2024-11-10T13:35:34Z</time>
      </trkpt>
      <trkpt lat="42.28892" lon="3.28125">
        <ele>6.5</ele>
        <time>2024-11-10T13:35:35Z</time>
      </trkpt>
      <trkpt lat="42.28892" lon="3.28124">
        <ele>6.5</ele>
        <time>2024-11-10T13:35:36Z</time>
      </trkpt>
      <trkpt lat="42.28891" lon="3.28123">
        <ele>6.5</ele>
        <time>2024-11-10T13:35:37Z</time>
      </trkpt>
      <trkpt lat="42.28891" lon="3.28122">
        <ele>6.5</ele>
        <time>2024-11-10T13:35:38Z</time>
      </trkpt>
      <trkpt lat="42.2889" lon="3.2812">
        <ele>6.5</ele>
        <time>2024-11-10T13:35:39Z</time>
      </trkpt>
      <trkpt lat="42.2889" lon="3.2812">
        <ele>6.5</ele>
        <time>2024-11-10T13:35:40Z</time>
      </trkpt>
      <trkpt lat="42.2889" lon="3.28119">
        <ele>6.5</ele>
        <time>2024-11-10T13:35:41Z</time>
      </trkpt>
      <trkpt lat="42.2889" lon="3.28119">
        <ele>6.5</ele>
        <time>2024-11-10T13:35:42Z</time>
      </trkpt>
      <trkpt lat="42.2889" lon="3.28119">
        <ele>6.5</ele>
        <time>2024-11-10T13:35:43Z</time>
      </trkpt>
      <trkpt lat="42.28889" lon="3.28119">
        <ele>6.5</ele>
        <time>2024-11-10T13:35:44Z</time>
      </trkpt>
      <trkpt lat="42.28889" lon="3.28119">
        <ele>6.5</ele>
        <time>2024-11-10T13:35:45Z</time>
      </trkpt>
      <trkpt lat="42.28889" lon="3.28119">
        <ele>6.5</ele>
        <time>2024-11-10T13:35:46Z</time>
      </trkpt>
      <trkpt lat="42.28889" lon="3.28119">
        <ele>6.5</ele>
        <time>2024-11-10T13:35:47Z</time>
      </trkpt>
      <trkpt lat="42.28889" lon="3.28119">
        <ele>6.5</ele>
        <time>2024-11-10T13:35:48Z</time>
      </trkpt>
      <trkpt lat="42.28889" lon="3.28119">
        <ele>6.5</ele>
        <time>2024-11-10T13:35:49Z</time>
      </trkpt>
      <trkpt lat="42.28889" lon="3.28119">
        <ele>6.5</ele>
        <time>2024-11-10T13:35:50Z</time>
      </trkpt>
      <trkpt lat="42.28889" lon="3.28119">
        <ele>6.5</ele>
        <time>2024-11-10T13:35:51Z</time>
      </trkpt>
      <trkpt lat="42.28889" lon="3.28119">
        <ele>6.5</ele>
        <time>2024-11-10T13:35:52Z</time>
      </trkpt>
      <trkpt lat="42.28889" lon="3.28119">
        <ele>6.5</ele>
        <time>2024-11-10T13:35:53Z</time>
      </trkpt>
      <trkpt lat="42.28889" lon="3.28119">
        <ele>6.5</ele>
        <time>2024-11-10T13:35:54Z</time>
      </trkpt>
      <trkpt lat="42.28889" lon="3.2812">
        <ele>6.5</ele>
        <time>2024-11-10T13:35:55Z</time>
      </trkpt>
      <trkpt lat="42.28889" lon="3.2812">
        <ele>6.5</ele>
        <time>2024-11-10T13:35:56Z</time>
      </trkpt>
      <trkpt lat="42.28889" lon="3.2812">
        <ele>6.5</ele>
        <time>2024-11-10T13:35:57Z</time>
      </trkpt>
      <trkpt lat="42.28889" lon="3.2812">
        <ele>6.5</ele>
        <time>2024-11-10T13:35:58Z</time>
      </trkpt>
      <trkpt lat="42.28889" lon="3.2812">
        <ele>6.5</ele>
        <time>2024-11-10T13:35:59Z</time>
      </trkpt>
      <trkpt lat="42.28889" lon="3.28119">
        <ele>6.5</ele>
        <time>2024-11-10T13:36:00Z</time>
      </trkpt>
      <trkpt lat="42.28889" lon="3.28119">
        <ele>6.5</ele>
        <time>2024-11-10T13:36:01Z</time>
      </trkpt>
      <trkpt lat="42.28889" lon="3.2812">
        <ele>6.5</ele>
        <time>2024-11-10T13:36:02Z</time>
      </trkpt>
      <trkpt lat="42.28889" lon="3.2812">
        <ele>6.5</ele>
        <time>2024-11-10T13:36:03Z</time>
      </trkpt>
      <trkpt lat="42.28889" lon="3.2812">
        <ele>6.5</ele>
        <time>2024-11-10T13:36:04Z</time>
      </trkpt>
      <trkpt lat="42.28889" lon="3.2812">
        <ele>6.5</ele>
        <time>2024-11-10T13:36:05Z</time>
      </trkpt>
      <trkpt lat="42.28889" lon="3.2812">
        <ele>6.5</ele>
        <time>2024-11-10T13:36:06Z</time>
      </trkpt>
      <trkpt lat="42.28889" lon="3.2812">
        <ele>6.5</ele>
        <time>2024-11-10T13:36:07Z</time>
      </trkpt>
      <trkpt lat="42.28889" lon="3.2812">
        <ele>6.5</ele>
        <time>2024-11-10T13:36:08Z</time>
      </trkpt>
      <trkpt lat="42.28888" lon="3.28119">
        <ele>6.5</ele>
        <time>2024-11-10T13:36:09Z</time>
      </trkpt>
      <trkpt lat="42.28888" lon="3.28118">
        <ele>6.5</ele>
        <time>2024-11-10T13:36:10Z</time>
      </trkpt>
      <trkpt lat="42.28888" lon="3.28119">
        <ele>6.5</ele>
        <time>2024-11-10T13:36:11Z</time>
      </trkpt>
      <trkpt lat="42.28888" lon="3.28119">
        <ele>6.5</ele>
        <time>2024-11-10T13:36:12Z</time>
      </trkpt>
      <trkpt lat="42.28887" lon="3.28119">
        <ele>6.4</ele>
        <time>2024-11-10T13:36:13Z</time>
      </trkpt>
      <trkpt lat="42.28888" lon="3.28119">
        <ele>6.4</ele>
        <time>2024-11-10T13:36:14Z</time>
      </trkpt>
      <trkpt lat="42.28888" lon="3.28119">
        <ele>6.4</ele>
        <time>2024-11-10T13:36:15Z</time>
      </trkpt>
      <trkpt lat="42.28888" lon="3.28119">
        <ele>6.4</ele>
        <time>2024-11-10T13:36:16Z</time>
      </trkpt>
      <trkpt lat="42.28888" lon="3.28119">
        <ele>6.4</ele>
        <time>2024-11-10T13:36:17Z</time>
      </trkpt>
      <trkpt lat="42.28888" lon="3.28119">
        <ele>6.4</ele>
        <time>2024-11-10T13:36:18Z</time>
      </trkpt>
      <trkpt lat="42.28888" lon="3.28119">
        <ele>6.4</ele>
        <time>2024-11-10T13:36:19Z</time>
      </trkpt>
      <trkpt lat="42.28887" lon="3.28119">
        <ele>6.4</ele>
        <time>2024-11-10T13:36:20Z</time>
      </trkpt>
      <trkpt lat="42.28886" lon="3.28119">
        <ele>6.4</ele>
        <time>2024-11-10T13:36:21Z</time>
      </trkpt>
      <trkpt lat="42.28886" lon="3.28119">
        <ele>6.4</ele>
        <time>2024-11-10T13:36:22Z</time>
      </trkpt>
      <trkpt lat="42.28886" lon="3.28119">
        <ele>6.4</ele>
        <time>2024-11-10T13:36:23Z</time>
      </trkpt>
      <trkpt lat="42.28886" lon="3.28119">
        <ele>6.4</ele>
        <time>2024-11-10T13:36:24Z</time>
      </trkpt>
      <trkpt lat="42.28886" lon="3.28119">
        <ele>6.4</ele>
        <time>2024-11-10T13:36:25Z</time>
      </trkpt>
      <trkpt lat="42.28886" lon="3.28118">
        <ele>6.4</ele>
        <time>2024-11-10T13:36:26Z</time>
      </trkpt>
      <trkpt lat="42.28886" lon="3.28118">
        <ele>6.4</ele>
        <time>2024-11-10T13:36:27Z</time>
      </trkpt>
      <trkpt lat="42.28887" lon="3.28119">
        <ele>6.4</ele>
        <time>2024-11-10T13:36:28Z</time>
      </trkpt>
      <trkpt lat="42.28888" lon="3.2812">
        <ele>6.4</ele>
        <time>2024-11-10T13:36:29Z</time>
      </trkpt>
      <trkpt lat="42.28888" lon="3.2812">
        <ele>6.4</ele>
        <time>2024-11-10T13:36:30Z</time>
      </trkpt>
      <trkpt lat="42.28888" lon="3.2812">
        <ele>6.4</ele>
        <time>2024-11-10T13:36:31Z</time>
      </trkpt>
      <trkpt lat="42.28888" lon="3.2812">
        <ele>6.4</ele>
        <time>2024-11-10T13:36:32Z</time>
      </trkpt>
      <trkpt lat="42.28888" lon="3.2812">
        <ele>6.4</ele>
        <time>2024-11-10T13:36:33Z</time>
      </trkpt>
      <trkpt lat="42.28887" lon="3.28118">
        <ele>6.4</ele>
        <time>2024-11-10T13:36:34Z</time>
      </trkpt>
      <trkpt lat="42.28886" lon="3.28117">
        <ele>6.4</ele>
        <time>2024-11-10T13:36:35Z</time>
      </trkpt>
      <trkpt lat="42.28886" lon="3.28117">
        <ele>6.4</ele>
        <time>2024-11-10T13:36:36Z</time>
      </trkpt>
      <trkpt lat="42.28886" lon="3.28117">
        <ele>6.4</ele>
        <time>2024-11-10T13:36:37Z</time>
      </trkpt>
      <trkpt lat="42.28886" lon="3.28117">
        <ele>6.4</ele>
        <time>2024-11-10T13:36:38Z</time>
      </trkpt>
      <trkpt lat="42.28887" lon="3.28118">
        <ele>6.4</ele>
        <time>2024-11-10T13:36:39Z</time>
      </trkpt>
      <trkpt lat="42.28888" lon="3.28119">
        <ele>6.4</ele>
        <time>2024-11-10T13:36:40Z</time>
      </trkpt>
      <trkpt lat="42.28888" lon="3.28119">
        <ele>6.4</ele>
        <time>2024-11-10T13:36:41Z</time>
      </trkpt>
      <trkpt lat="42.28888" lon="3.28119">
        <ele>6.4</ele>
        <time>2024-11-10T13:36:42Z</time>
      </trkpt>
      <trkpt lat="42.28888" lon="3.28119">
        <ele>6.4</ele>
        <time>2024-11-10T13:36:43Z</time>
      </trkpt>
      <trkpt lat="42.28888" lon="3.28119">
        <ele>6.4</ele>
        <time>2024-11-10T13:36:44Z</time>
      </trkpt>
      <trkpt lat="42.28888" lon="3.28119">
        <ele>6.4</ele>
        <time>2024-11-10T13:36:45Z</time>
      </trkpt>
      <trkpt lat="42.28888" lon="3.28119">
        <ele>6.4</ele>
        <time>2024-11-10T13:36:46Z</time>
      </trkpt>
      <trkpt lat="42.28888" lon="3.28119">
        <ele>6.4</ele>
        <time>2024-11-10T13:36:47Z</time>
      </trkpt>
      <trkpt lat="42.28888" lon="3.28118">
        <ele>6.4</ele>
        <time>2024-11-10T13:36:48Z</time>
      </trkpt>
      <trkpt lat="42.28888" lon="3.28118">
        <ele>6.4</ele>
        <time>2024-11-10T13:36:49Z</time>
      </trkpt>
      <trkpt lat="42.28888" lon="3.28118">
        <ele>6.4</ele>
        <time>2024-11-10T13:36:50Z</time>
      </trkpt>
      <trkpt lat="42.28888" lon="3.28118">
        <ele>6.4</ele>
        <time>2024-11-10T13:36:51Z</time>
      </trkpt>
      <trkpt lat="42.28888" lon="3.28119">
        <ele>6.4</ele>
        <time>2024-11-10T13:36:52Z</time>
      </trkpt>
      <trkpt lat="42.28888" lon="3.28119">
        <ele>6.4</ele>
        <time>2024-11-10T13:36:53Z</time>
      </trkpt>
      <trkpt lat="42.28886" lon="3.28118">
        <ele>6.4</ele>
        <time>2024-11-10T13:36:54Z</time>
      </trkpt>
      <trkpt lat="42.28886" lon="3.28117">
        <ele>6.4</ele>
        <time>2024-11-10T13:36:55Z</time>
      </trkpt>
      <trkpt lat="42.28885" lon="3.28117">
        <ele>6.4</ele>
        <time>2024-11-10T13:36:56Z</time>
      </trkpt>
      <trkpt lat="42.28885" lon="3.28117">
        <ele>6.4</ele>
        <time>2024-11-10T13:36:57Z</time>
      </trkpt>
      <trkpt lat="42.28886" lon="3.28117">
        <ele>6.4</ele>
        <time>2024-11-10T13:36:58Z</time>
      </trkpt>
      <trkpt lat="42.28886" lon="3.28118">
        <ele>6.4</ele>
        <time>2024-11-10T13:36:59Z</time>
      </trkpt>
      <trkpt lat="42.28886" lon="3.28118">
        <ele>6.4</ele>
        <time>2024-11-10T13:37:00Z</time>
      </trkpt>
      <trkpt lat="42.28886" lon="3.28118">
        <ele>6.4</ele>
        <time>2024-11-10T13:37:01Z</time>
      </trkpt>
      <trkpt lat="42.28886" lon="3.28118">
        <ele>6.4</ele>
        <time>2024-11-10T13:37:02Z</time>
      </trkpt>
      <trkpt lat="42.28886" lon="3.28118">
        <ele>6.4</ele>
        <time>2024-11-10T13:37:03Z</time>
      </trkpt>
      <trkpt lat="42.28888" lon="3.28119">
        <ele>6.4</ele>
        <time>2024-11-10T13:37:04Z</time>
      </trkpt>
      <trkpt lat="42.28888" lon="3.2812">
        <ele>6.4</ele>
        <time>2024-11-10T13:37:05Z</time>
      </trkpt>
      <trkpt lat="42.28888" lon="3.2812">
        <ele>6.4</ele>
        <time>2024-11-10T13:37:06Z</time>
      </trkpt>
      <trkpt lat="42.28888" lon="3.28119">
        <ele>6.4</ele>
        <time>2024-11-10T13:37:07Z</time>
      </trkpt>
      <trkpt lat="42.28888" lon="3.28119">
        <ele>6.4</ele>
        <time>2024-11-10T13:37:08Z</time>
      </trkpt>
      <trkpt lat="42.28888" lon="3.28118">
        <ele>6.4</ele>
        <time>2024-11-10T13:37:09Z</time>
      </trkpt>
      <trkpt lat="42.28888" lon="3.28118">
        <ele>6.4</ele>
        <time>2024-11-10T13:37:10Z</time>
      </trkpt>
      <trkpt lat="42.28888" lon="3.28118">
        <ele>6.4</ele>
        <time>2024-11-10T13:37:11Z</time>
      </trkpt>
      <trkpt lat="42.28888" lon="3.28118">
        <ele>6.4</ele>
        <time>2024-11-10T13:37:12Z</time>
      </trkpt>
      <trkpt lat="42.28888" lon="3.28118">
        <ele>6.4</ele>
        <time>2024-11-10T13:37:13Z</time>
      </trkpt>
      <trkpt lat="42.28888" lon="3.28119">
        <ele>6.4</ele>
        <time>2024-11-10T13:37:14Z</time>
      </trkpt>
      <trkpt lat="42.28888" lon="3.28119">
        <ele>6.4</ele>
        <time>2024-11-10T13:37:15Z</time>
      </trkpt>
      <trkpt lat="42.28888" lon="3.28119">
        <ele>6.4</ele>
        <time>2024-11-10T13:37:16Z</time>
      </trkpt>
      <trkpt lat="42.28888" lon="3.28119">
        <ele>6.4</ele>
        <time>2024-11-10T13:37:17Z</time>
      </trkpt>
      <trkpt lat="42.28888" lon="3.28119">
        <ele>6.4</ele>
        <time>2024-11-10T13:37:18Z</time>
      </trkpt>
      <trkpt lat="42.28886" lon="3.28118">
        <ele>6.4</ele>
        <time>2024-11-10T13:37:19Z</time>
      </trkpt>
      <trkpt lat="42.28886" lon="3.28117">
        <ele>6.4</ele>
        <time>2024-11-10T13:37:20Z</time>
      </trkpt>
      <trkpt lat="42.28885" lon="3.28117">
        <ele>6.4</ele>
        <time>2024-11-10T13:37:21Z</time>
      </trkpt>
      <trkpt lat="42.28885" lon="3.28117">
        <ele>6.4</ele>
        <time>2024-11-10T13:37:22Z</time>
      </trkpt>
      <trkpt lat="42.28885" lon="3.28117">
        <ele>6.4</ele>
        <time>2024-11-10T13:37:23Z</time>
      </trkpt>
      <trkpt lat="42.28885" lon="3.28117">
        <ele>6.4</ele>
        <time>2024-11-10T13:37:24Z</time>
      </trkpt>
      <trkpt lat="42.28885" lon="3.28117">
        <ele>6.4</ele>
        <time>2024-11-10T13:37:25Z</time>
      </trkpt>
      <trkpt lat="42.28885" lon="3.28117">
        <ele>6.4</ele>
        <time>2024-11-10T13:37:26Z</time>
      </trkpt>
      <trkpt lat="42.28887" lon="3.28119">
        <ele>6.4</ele>
        <time>2024-11-10T13:37:27Z</time>
      </trkpt>
      <trkpt lat="42.28888" lon="3.28119">
        <ele>6.4</ele>
        <time>2024-11-10T13:37:28Z</time>
      </trkpt>
      <trkpt lat="42.28888" lon="3.28119">
        <ele>6.4</ele>
        <time>2024-11-10T13:37:29Z</time>
      </trkpt>
      <trkpt lat="42.28888" lon="3.28119">
        <ele>6.4</ele>
        <time>2024-11-10T13:37:30Z</time>
      </trkpt>
      <trkpt lat="42.28888" lon="3.28119">
        <ele>6.4</ele>
        <time>2024-11-10T13:37:31Z</time>
      </trkpt>
      <trkpt lat="42.28888" lon="3.28119">
        <ele>6.4</ele>
        <time>2024-11-10T13:37:32Z</time>
      </trkpt>
      <trkpt lat="42.28888" lon="3.28119">
        <ele>6.4</ele>
        <time>2024-11-10T13:37:33Z</time>
      </trkpt>
      <trkpt lat="42.28886" lon="3.28118">
        <ele>6.4</ele>
        <time>2024-11-10T13:37:34Z</time>
      </trkpt>
      <trkpt lat="42.28885" lon="3.28117">
        <ele>6.4</ele>
        <time>2024-11-10T13:37:35Z</time>
      </trkpt>
      <trkpt lat="42.28885" lon="3.28117">
        <ele>6.4</ele>
        <time>2024-11-10T13:37:36Z</time>
      </trkpt>
      <trkpt lat="42.28885" lon="3.28117">
        <ele>6.4</ele>
        <time>2024-11-10T13:37:37Z</time>
      </trkpt>
      <trkpt lat="42.28885" lon="3.28117">
        <ele>6.4</ele>
        <time>2024-11-10T13:37:38Z</time>
      </trkpt>
      <trkpt lat="42.28885" lon="3.28116">
        <ele>6.4</ele>
        <time>2024-11-10T13:37:39Z</time>
      </trkpt>
      <trkpt lat="42.28885" lon="3.28116">
        <ele>6.4</ele>
        <time>2024-11-10T13:37:40Z</time>
      </trkpt>
      <trkpt lat="42.28885" lon="3.28116">
        <ele>6.4</ele>
        <time>2024-11-10T13:37:41Z</time>
      </trkpt>
      <trkpt lat="42.28885" lon="3.28116">
        <ele>6.4</ele>
        <time>2024-11-10T13:37:42Z</time>
      </trkpt>
      <trkpt lat="42.28885" lon="3.28116">
        <ele>6.4</ele>
        <time>2024-11-10T13:37:43Z</time>
      </trkpt>
      <trkpt lat="42.28884" lon="3.28116">
        <ele>6.4</ele>
        <time>2024-11-10T13:37:44Z</time>
      </trkpt>
      <trkpt lat="42.28884" lon="3.28116">
        <ele>6.4</ele>
        <time>2024-11-10T13:37:45Z</time>
      </trkpt>
      <trkpt lat="42.28884" lon="3.28116">
        <ele>6.4</ele>
        <time>2024-11-10T13:37:46Z</time>
      </trkpt>
      <trkpt lat="42.28884" lon="3.28116">
        <ele>6.4</ele>
        <time>2024-11-10T13:37:47Z</time>
      </trkpt>
      <trkpt lat="42.28884" lon="3.28116">
        <ele>6.4</ele>
        <time>2024-11-10T13:37:48Z</time>
      </trkpt>
      <trkpt lat="42.28884" lon="3.28116">
        <ele>6.4</ele>
        <time>2024-11-10T13:37:49Z</time>
      </trkpt>
      <trkpt lat="42.28884" lon="3.28116">
        <ele>6.4</ele>
        <time>2024-11-10T13:37:50Z</time>
      </trkpt>
      <trkpt lat="42.28884" lon="3.28115">
        <ele>6.4</ele>
        <time>2024-11-10T13:37:51Z</time>
      </trkpt>
      <trkpt lat="42.28884" lon="3.28115">
        <ele>6.4</ele>
        <time>2024-11-10T13:37:52Z</time>
      </trkpt>
      <trkpt lat="42.28884" lon="3.28115">
        <ele>6.4</ele>
        <time>2024-11-10T13:37:53Z</time>
      </trkpt>
      <trkpt lat="42.28884" lon="3.28115">
        <ele>6.4</ele>
        <time>2024-11-10T13:37:54Z</time>
      </trkpt>
      <trkpt lat="42.28884" lon="3.28115">
        <ele>6.4</ele>
        <time>2024-11-10T13:37:55Z</time>
      </trkpt>
      <trkpt lat="42.28883" lon="3.28115">
        <ele>6.4</ele>
        <time>2024-11-10T13:37:56Z</time>
      </trkpt>
      <trkpt lat="42.28883" lon="3.28115">
        <ele>6.4</ele>
        <time>2024-11-10T13:37:57Z</time>
      </trkpt>
      <trkpt lat="42.28883" lon="3.28115">
        <ele>6.4</ele>
        <time>2024-11-10T13:37:58Z</time>
      </trkpt>
      <trkpt lat="42.28883" lon="3.28115">
        <ele>6.4</ele>
        <time>2024-11-10T13:37:59Z</time>
      </trkpt>
      <trkpt lat="42.28883" lon="3.28115">
        <ele>6.4</ele>
        <time>2024-11-10T13:38:00Z</time>
      </trkpt>
      <trkpt lat="42.28883" lon="3.28115">
        <ele>6.4</ele>
        <time>2024-11-10T13:38:01Z</time>
      </trkpt>
      <trkpt lat="42.28883" lon="3.28114">
        <ele>6.4</ele>
        <time>2024-11-10T13:38:02Z</time>
      </trkpt>
      <trkpt lat="42.28883" lon="3.28114">
        <ele>6.4</ele>
        <time>2024-11-10T13:38:03Z</time>
      </trkpt>
      <trkpt lat="42.28883" lon="3.28114">
        <ele>6.4</ele>
        <time>2024-11-10T13:38:04Z</time>
      </trkpt>
      <trkpt lat="42.28883" lon="3.28114">
        <ele>6.4</ele>
        <time>2024-11-10T13:38:05Z</time>
      </trkpt>
      <trkpt lat="42.28883" lon="3.28114">
        <ele>6.4</ele>
        <time>2024-11-10T13:38:06Z</time>
      </trkpt>
      <trkpt lat="42.28882" lon="3.28114">
        <ele>6.4</ele>
        <time>2024-11-10T13:38:07Z</time>
      </trkpt>
      <trkpt lat="42.28882" lon="3.28114">
        <ele>6.4</ele>
        <time>2024-11-10T13:38:08Z</time>
      </trkpt>
      <trkpt lat="42.28882" lon="3.28114">
        <ele>6.4</ele>
        <time>2024-11-10T13:38:09Z</time>
      </trkpt>
      <trkpt lat="42.28882" lon="3.28114">
        <ele>6.4</ele>
        <time>2024-11-10T13:38:10Z</time>
      </trkpt>
      <trkpt lat="42.28882" lon="3.28114">
        <ele>6.4</ele>
        <time>2024-11-10T13:38:11Z</time>
      </trkpt>
      <trkpt lat="42.28882" lon="3.28114">
        <ele>6.4</ele>
        <time>2024-11-10T13:38:12Z</time>
      </trkpt>
      <trkpt lat="42.28882" lon="3.28113">
        <ele>6.4</ele>
        <time>2024-11-10T13:38:13Z</time>
      </trkpt>
      <trkpt lat="42.28882" lon="3.28113">
        <ele>6.4</ele>
        <time>2024-11-10T13:38:14Z</time>
      </trkpt>
      <trkpt lat="42.28882" lon="3.28113">
        <ele>6.4</ele>
        <time>2024-11-10T13:38:15Z</time>
      </trkpt>
      <trkpt lat="42.28882" lon="3.28113">
        <ele>6.4</ele>
        <time>2024-11-10T13:38:16Z</time>
      </trkpt>
      <trkpt lat="42.28882" lon="3.28113">
        <ele>6.4</ele>
        <time>2024-11-10T13:38:17Z</time>
      </trkpt>
      <trkpt lat="42.28882" lon="3.28113">
        <ele>6.4</ele>
        <time>2024-11-10T13:38:18Z</time>
      </trkpt>
      <trkpt lat="42.28881" lon="3.28113">
        <ele>6.4</ele>
        <time>2024-11-10T13:38:19Z</time>
      </trkpt>
      <trkpt lat="42.28881" lon="3.28113">
        <ele>6.4</ele>
        <time>2024-11-10T13:38:20Z</time>
      </trkpt>
      <trkpt lat="42.28882" lon="3.28113">
        <ele>6.3</ele>
        <time>2024-11-10T13:38:21Z</time>
      </trkpt>
      <trkpt lat="42.28883" lon="3.28114">
        <ele>6.3</ele>
        <time>2024-11-10T13:38:22Z</time>
      </trkpt>
      <trkpt lat="42.28884" lon="3.28115">
        <ele>6.3</ele>
        <time>2024-11-10T13:38:23Z</time>
      </trkpt>
      <trkpt lat="42.28886" lon="3.28117">
        <ele>6.3</ele>
        <time>2024-11-10T13:38:24Z</time>
      </trkpt>
      <trkpt lat="42.28887" lon="3.28117">
        <ele>6.3</ele>
        <time>2024-11-10T13:38:25Z</time>
      </trkpt>
      <trkpt lat="42.28885" lon="3.28116">
        <ele>6.3</ele>
        <time>2024-11-10T13:38:26Z</time>
      </trkpt>
      <trkpt lat="42.28884" lon="3.28115">
        <ele>6.3</ele>
        <time>2024-11-10T13:38:27Z</time>
      </trkpt>
      <trkpt lat="42.28883" lon="3.28114">
        <ele>6.3</ele>
        <time>2024-11-10T13:38:28Z</time>
      </trkpt>
      <trkpt lat="42.28882" lon="3.28113">
        <ele>6.3</ele>
        <time>2024-11-10T13:38:29Z</time>
      </trkpt>
      <trkpt lat="42.28883" lon="3.28115">
        <ele>6.3</ele>
        <time>2024-11-10T13:38:30Z</time>
      </trkpt>
      <trkpt lat="42.28884" lon="3.28116">
        <ele>6.3</ele>
        <time>2024-11-10T13:38:31Z</time>
      </trkpt>
      <trkpt lat="42.28885" lon="3.28116">
        <ele>6.3</ele>
        <time>2024-11-10T13:38:32Z</time>
      </trkpt>
      <trkpt lat="42.28885" lon="3.28116">
        <ele>6.3</ele>
        <time>2024-11-10T13:38:33Z</time>
      </trkpt>
      <trkpt lat="42.28886" lon="3.28117">
        <ele>6.3</ele>
        <time>2024-11-10T13:38:34Z</time>
      </trkpt>
      <trkpt lat="42.28888" lon="3.28118">
        <ele>6.3</ele>
        <time>2024-11-10T13:38:35Z</time>
      </trkpt>
      <trkpt lat="42.28888" lon="3.28118">
        <ele>6.3</ele>
        <time>2024-11-10T13:38:36Z</time>
      </trkpt>
      <trkpt lat="42.28888" lon="3.28118">
        <ele>6.3</ele>
        <time>2024-11-10T13:38:37Z</time>
      </trkpt>
      <trkpt lat="42.28888" lon="3.28118">
        <ele>6.3</ele>
        <time>2024-11-10T13:38:38Z</time>
      </trkpt>
      <trkpt lat="42.28888" lon="3.28118">
        <ele>6.3</ele>
        <time>2024-11-10T13:38:39Z</time>
      </trkpt>
      <trkpt lat="42.28888" lon="3.28118">
        <ele>6.3</ele>
        <time>2024-11-10T13:38:40Z</time>
      </trkpt>
      <trkpt lat="42.28888" lon="3.28118">
        <ele>6.3</ele>
        <time>2024-11-10T13:38:41Z</time>
      </trkpt>
      <trkpt lat="42.28888" lon="3.28118">
        <ele>6.3</ele>
        <time>2024-11-10T13:38:42Z</time>
      </trkpt>
      <trkpt lat="42.28888" lon="3.28118">
        <ele>6.3</ele>
        <time>2024-11-10T13:38:43Z</time>
      </trkpt>
      <trkpt lat="42.28887" lon="3.28118">
        <ele>6.3</ele>
        <time>2024-11-10T13:38:44Z</time>
      </trkpt>
      <trkpt lat="42.28887" lon="3.28118">
        <ele>6.3</ele>
        <time>2024-11-10T13:38:45Z</time>
      </trkpt>
      <trkpt lat="42.28887" lon="3.28118">
        <ele>6.3</ele>
        <time>2024-11-10T13:38:46Z</time>
      </trkpt>
      <trkpt lat="42.28887" lon="3.28118">
        <ele>6.3</ele>
        <time>2024-11-10T13:38:47Z</time>
      </trkpt>
      <trkpt lat="42.28887" lon="3.28118">
        <ele>6.3</ele>
        <time>2024-11-10T13:38:48Z</time>
      </trkpt>
      <trkpt lat="42.28886" lon="3.28117">
        <ele>6.3</ele>
        <time>2024-11-10T13:38:49Z</time>
      </trkpt>
      <trkpt lat="42.28886" lon="3.28117">
        <ele>6.3</ele>
        <time>2024-11-10T13:38:50Z</time>
      </trkpt>
      <trkpt lat="42.28886" lon="3.28117">
        <ele>6.3</ele>
        <time>2024-11-10T13:38:51Z</time>
      </trkpt>
      <trkpt lat="42.28885" lon="3.28117">
        <ele>6.3</ele>
        <time>2024-11-10T13:38:52Z</time>
      </trkpt>
      <trkpt lat="42.28886" lon="3.28117">
        <ele>6.3</ele>
        <time>2024-11-10T13:38:53Z</time>
      </trkpt>
      <trkpt lat="42.28887" lon="3.28119">
        <ele>6.3</ele>
        <time>2024-11-10T13:38:54Z</time>
      </trkpt>
      <trkpt lat="42.28888" lon="3.28119">
        <ele>6.3</ele>
        <time>2024-11-10T13:38:55Z</time>
      </trkpt>
      <trkpt lat="42.28888" lon="3.28119">
        <ele>6.3</ele>
        <time>2024-11-10T13:38:56Z</time>
      </trkpt>
      <trkpt lat="42.28888" lon="3.28119">
        <ele>6.3</ele>
        <time>2024-11-10T13:38:57Z</time>
      </trkpt>
      <trkpt lat="42.28888" lon="3.28119">
        <ele>6.3</ele>
        <time>2024-11-10T13:38:58Z</time>
      </trkpt>
      <trkpt lat="42.28888" lon="3.28119">
        <ele>6.3</ele>
        <time>2024-11-10T13:38:59Z</time>
      </trkpt>
      <trkpt lat="42.28888" lon="3.28119">
        <ele>6.3</ele>
        <time>2024-11-10T13:39:00Z</time>
      </trkpt>
      <trkpt lat="42.28888" lon="3.28119">
        <ele>6.3</ele>
        <time>2024-11-10T13:39:01Z</time>
      </trkpt>
      <trkpt lat="42.28888" lon="3.28119">
        <ele>6.3</ele>
        <time>2024-11-10T13:39:02Z</time>
      </trkpt>
      <trkpt lat="42.28888" lon="3.28119">
        <ele>6.3</ele>
        <time>2024-11-10T13:39:03Z</time>
      </trkpt>
      <trkpt lat="42.28888" lon="3.28118">
        <ele>6.3</ele>
        <time>2024-11-10T13:39:04Z</time>
      </trkpt>
      <trkpt lat="42.28888" lon="3.28118">
        <ele>6.3</ele>
        <time>2024-11-10T13:39:05Z</time>
      </trkpt>
      <trkpt lat="42.28888" lon="3.28118">
        <ele>6.3</ele>
        <time>2024-11-10T13:39:06Z</time>
      </trkpt>
      <trkpt lat="42.28888" lon="3.28118">
        <ele>6.3</ele>
        <time>2024-11-10T13:39:07Z</time>
      </trkpt>
      <trkpt lat="42.28888" lon="3.28118">
        <ele>6.3</ele>
        <time>2024-11-10T13:39:08Z</time>
      </trkpt>
      <trkpt lat="42.28886" lon="3.28117">
        <ele>6.3</ele>
        <time>2024-11-10T13:39:09Z</time>
      </trkpt>
      <trkpt lat="42.28886" lon="3.28117">
        <ele>6.3</ele>
        <time>2024-11-10T13:39:10Z</time>
      </trkpt>
      <trkpt lat="42.28885" lon="3.28117">
        <ele>6.3</ele>
        <time>2024-11-10T13:39:11Z</time>
      </trkpt>
      <trkpt lat="42.28885" lon="3.28117">
        <ele>6.3</ele>
        <time>2024-11-10T13:39:12Z</time>
      </trkpt>
      <trkpt lat="42.28886" lon="3.28117">
        <ele>6.3</ele>
        <time>2024-11-10T13:39:13Z</time>
      </trkpt>
      <trkpt lat="42.28887" lon="3.28118">
        <ele>6.3</ele>
        <time>2024-11-10T13:39:14Z</time>
      </trkpt>
      <trkpt lat="42.28888" lon="3.28119">
        <ele>6.3</ele>
        <time>2024-11-10T13:39:15Z</time>
      </trkpt>
      <trkpt lat="42.28888" lon="3.28119">
        <ele>6.3</ele>
        <time>2024-11-10T13:39:16Z</time>
      </trkpt>
      <trkpt lat="42.28888" lon="3.28119">
        <ele>6.3</ele>
        <time>2024-11-10T13:39:17Z</time>
      </trkpt>
      <trkpt lat="42.28888" lon="3.28119">
        <ele>6.3</ele>
        <time>2024-11-10T13:39:18Z</time>
      </trkpt>
      <trkpt lat="42.28887" lon="3.28117">
        <ele>6.3</ele>
        <time>2024-11-10T13:39:19Z</time>
      </trkpt>
      <trkpt lat="42.28886" lon="3.28117">
        <ele>6.3</ele>
        <time>2024-11-10T13:39:20Z</time>
      </trkpt>
      <trkpt lat="42.28886" lon="3.28117">
        <ele>6.3</ele>
        <time>2024-11-10T13:39:21Z</time>
      </trkpt>
      <trkpt lat="42.28886" lon="3.28117">
        <ele>6.3</ele>
        <time>2024-11-10T13:39:22Z</time>
      </trkpt>
      <trkpt lat="42.28886" lon="3.28117">
        <ele>6.3</ele>
        <time>2024-11-10T13:39:23Z</time>
      </trkpt>
      <trkpt lat="42.28888" lon="3.28118">
        <ele>6.2</ele>
        <time>2024-11-10T13:39:24Z</time>
      </trkpt>
      <trkpt lat="42.28888" lon="3.28118">
        <ele>6.2</ele>
        <time>2024-11-10T13:39:25Z</time>
      </trkpt>
      <trkpt lat="42.28888" lon="3.28118">
        <ele>6.2</ele>
        <time>2024-11-10T13:39:26Z</time>
      </trkpt>
      <trkpt lat="42.28888" lon="3.28118">
        <ele>6.2</ele>
        <time>2024-11-10T13:39:27Z</time>
      </trkpt>
      <trkpt lat="42.28888" lon="3.28118">
        <ele>6.2</ele>
        <time>2024-11-10T13:39:28Z</time>
      </trkpt>
      <trkpt lat="42.28888" lon="3.28118">
        <ele>6.2</ele>
        <time>2024-11-10T13:39:29Z</time>
      </trkpt>
      <trkpt lat="42.28888" lon="3.28118">
        <ele>6.2</ele>
        <time>2024-11-10T13:39:30Z</time>
      </trkpt>
      <trkpt lat="42.28888" lon="3.28118">
        <ele>6.2</ele>
        <time>2024-11-10T13:39:31Z</time>
      </trkpt>
      <trkpt lat="42.28888" lon="3.28118">
        <ele>6.2</ele>
        <time>2024-11-10T13:39:32Z</time>
      </trkpt>
      <trkpt lat="42.28888" lon="3.28118">
        <ele>6.2</ele>
        <time>2024-11-10T13:39:33Z</time>
      </trkpt>
      <trkpt lat="42.28888" lon="3.28118">
        <ele>6.2</ele>
        <time>2024-11-10T13:39:34Z</time>
      </trkpt>
      <trkpt lat="42.28888" lon="3.28119">
        <ele>6.2</ele>
        <time>2024-11-10T13:39:35Z</time>
      </trkpt>
      <trkpt lat="42.28888" lon="3.28119">
        <ele>6.2</ele>
        <time>2024-11-10T13:39:36Z</time>
      </trkpt>
      <trkpt lat="42.28888" lon="3.28119">
        <ele>6.2</ele>
        <time>2024-11-10T13:39:37Z</time>
      </trkpt>
      <trkpt lat="42.28888" lon="3.28119">
        <ele>6.2</ele>
        <time>2024-11-10T13:39:38Z</time>
      </trkpt>
      <trkpt lat="42.28888" lon="3.28119">
        <ele>6.2</ele>
        <time>2024-11-10T13:39:39Z</time>
      </trkpt>
      <trkpt lat="42.28888" lon="3.28119">
        <ele>6.2</ele>
        <time>2024-11-10T13:39:40Z</time>
      </trkpt>
      <trkpt lat="42.28888" lon="3.28119">
        <ele>6.2</ele>
        <time>2024-11-10T13:39:41Z</time>
      </trkpt>
      <trkpt lat="42.28888" lon="3.28119">
        <ele>6.2</ele>
        <time>2024-11-10T13:39:42Z</time>
      </trkpt>
      <trkpt lat="42.28888" lon="3.28119">
        <ele>6.2</ele>
        <time>2024-11-10T13:39:43Z</time>
      </trkpt>
      <trkpt lat="42.28888" lon="3.28119">
        <ele>6.2</ele>
        <time>2024-11-10T13:39:44Z</time>
      </trkpt>
      <trkpt lat="42.28888" lon="3.28119">
        <ele>6.2</ele>
        <time>2024-11-10T13:39:45Z</time>
      </trkpt>
      <trkpt lat="42.28887" lon="3.28119">
        <ele>6.2</ele>
        <time>2024-11-10T13:39:46Z</time>
      </trkpt>
      <trkpt lat="42.28887" lon="3.28119">
        <ele>6.2</ele>
        <time>2024-11-10T13:39:47Z</time>
      </trkpt>
      <trkpt lat="42.28887" lon="3.28119">
        <ele>6.2</ele>
        <time>2024-11-10T13:39:48Z</time>
      </trkpt>
      <trkpt lat="42.28888" lon="3.28118">
        <ele>6.2</ele>
        <time>2024-11-10T13:39:49Z</time>
      </trkpt>
      <trkpt lat="42.28888" lon="3.28118">
        <ele>6.2</ele>
        <time>2024-11-10T13:39:50Z</time>
      </trkpt>
      <trkpt lat="42.28888" lon="3.28118">
        <ele>6.2</ele>
        <time>2024-11-10T13:39:51Z</time>
      </trkpt>
      <trkpt lat="42.28888" lon="3.28118">
        <ele>6.2</ele>
        <time>2024-11-10T13:39:52Z</time>
      </trkpt>
      <trkpt lat="42.28888" lon="3.28118">
        <ele>6.2</ele>
        <time>2024-11-10T13:39:53Z</time>
      </trkpt>
      <trkpt lat="42.28887" lon="3.28117">
        <ele>6.2</ele>
        <time>2024-11-10T13:39:54Z</time>
      </trkpt>
      <trkpt lat="42.28886" lon="3.28117">
        <ele>6.2</ele>
        <time>2024-11-10T13:39:55Z</time>
      </trkpt>
      <trkpt lat="42.28886" lon="3.28117">
        <ele>6.2</ele>
        <time>2024-11-10T13:39:56Z</time>
      </trkpt>
      <trkpt lat="42.28886" lon="3.28117">
        <ele>6.2</ele>
        <time>2024-11-10T13:39:57Z</time>
      </trkpt>
      <trkpt lat="42.28886" lon="3.28117">
        <ele>6.2</ele>
        <time>2024-11-10T13:39:58Z</time>
      </trkpt>
      <trkpt lat="42.28886" lon="3.28117">
        <ele>6.2</ele>
        <time>2024-11-10T13:39:59Z</time>
      </trkpt>
      <trkpt lat="42.28886" lon="3.28117">
        <ele>6.2</ele>
        <time>2024-11-10T13:40:00Z</time>
      </trkpt>
      <trkpt lat="42.28886" lon="3.28117">
        <ele>6.2</ele>
        <time>2024-11-10T13:40:01Z</time>
      </trkpt>
      <trkpt lat="42.28886" lon="3.28117">
        <ele>6.2</ele>
        <time>2024-11-10T13:40:02Z</time>
      </trkpt>
      <trkpt lat="42.28886" lon="3.28117">
        <ele>6.2</ele>
        <time>2024-11-10T13:40:03Z</time>
      </trkpt>
      <trkpt lat="42.28886" lon="3.28117">
        <ele>6.2</ele>
        <time>2024-11-10T13:40:04Z</time>
      </trkpt>
      <trkpt lat="42.28888" lon="3.28118">
        <ele>6.2</ele>
        <time>2024-11-10T13:40:05Z</time>
      </trkpt>
      <trkpt lat="42.28888" lon="3.28118">
        <ele>6.2</ele>
        <time>2024-11-10T13:40:06Z</time>
      </trkpt>
      <trkpt lat="42.28888" lon="3.28118">
        <ele>6.2</ele>
        <time>2024-11-10T13:40:07Z</time>
      </trkpt>
      <trkpt lat="42.28888" lon="3.28118">
        <ele>6.2</ele>
        <time>2024-11-10T13:40:08Z</time>
      </trkpt>
      <trkpt lat="42.28888" lon="3.28118">
        <ele>6.2</ele>
        <time>2024-11-10T13:40:09Z</time>
      </trkpt>
      <trkpt lat="42.28888" lon="3.28118">
        <ele>6.2</ele>
        <time>2024-11-10T13:40:10Z</time>
      </trkpt>
      <trkpt lat="42.28888" lon="3.28118">
        <ele>6.2</ele>
        <time>2024-11-10T13:40:11Z</time>
      </trkpt>
      <trkpt lat="42.28888" lon="3.28118">
        <ele>6.2</ele>
        <time>2024-11-10T13:40:12Z</time>
      </trkpt>
      <trkpt lat="42.28888" lon="3.28118">
        <ele>6.2</ele>
        <time>2024-11-10T13:40:13Z</time>
      </trkpt>
      <trkpt lat="42.28888" lon="3.28118">
        <ele>6.2</ele>
        <time>2024-11-10T13:40:14Z</time>
      </trkpt>
      <trkpt lat="42.28886" lon="3.28117">
        <ele>6.2</ele>
        <time>2024-11-10T13:40:15Z</time>
      </trkpt>
      <trkpt lat="42.28886" lon="3.28117">
        <ele>6.2</ele>
        <time>2024-11-10T13:40:16Z</time>
      </trkpt>
      <trkpt lat="42.28886" lon="3.28117">
        <ele>6.2</ele>
        <time>2024-11-10T13:40:17Z</time>
      </trkpt>
      <trkpt lat="42.28886" lon="3.28117">
        <ele>6.2</ele>
        <time>2024-11-10T13:40:18Z</time>
      </trkpt>
      <trkpt lat="42.28886" lon="3.28117">
        <ele>6.2</ele>
        <time>2024-11-10T13:40:19Z</time>
      </trkpt>
      <trkpt lat="42.28888" lon="3.28118">
        <ele>6.2</ele>
        <time>2024-11-10T13:40:20Z</time>
      </trkpt>
      <trkpt lat="42.28888" lon="3.28118">
        <ele>6.2</ele>
        <time>2024-11-10T13:40:21Z</time>
      </trkpt>
      <trkpt lat="42.28888" lon="3.28118">
        <ele>6.2</ele>
        <time>2024-11-10T13:40:22Z</time>
      </trkpt>
      <trkpt lat="42.28888" lon="3.28118">
        <ele>6.2</ele>
        <time>2024-11-10T13:40:23Z</time>
      </trkpt>
      <trkpt lat="42.28888" lon="3.28118">
        <ele>6.2</ele>
        <time>2024-11-10T13:40:24Z</time>
      </trkpt>
      <trkpt lat="42.28887" lon="3.28117">
        <ele>6.2</ele>
        <time>2024-11-10T13:40:25Z</time>
      </trkpt>
      <trkpt lat="42.28886" lon="3.28117">
        <ele>6.2</ele>
        <time>2024-11-10T13:40:26Z</time>
      </trkpt>
      <trkpt lat="42.28886" lon="3.28117">
        <ele>6.2</ele>
        <time>2024-11-10T13:40:27Z</time>
      </trkpt>
      <trkpt lat="42.28886" lon="3.28117">
        <ele>6.2</ele>
        <time>2024-11-10T13:40:28Z</time>
      </trkpt>
      <trkpt lat="42.28886" lon="3.28117">
        <ele>6.2</ele>
        <time>2024-11-10T13:40:29Z</time>
      </trkpt>
      <trkpt lat="42.28887" lon="3.28118">
        <ele>6.2</ele>
        <time>2024-11-10T13:40:30Z</time>
      </trkpt>
      <trkpt lat="42.28888" lon="3.28118">
        <ele>6.2</ele>
        <time>2024-11-10T13:40:31Z</time>
      </trkpt>
      <trkpt lat="42.28888" lon="3.28118">
        <ele>6.2</ele>
        <time>2024-11-10T13:40:32Z</time>
      </trkpt>
      <trkpt lat="42.28888" lon="3.28118">
        <ele>6.2</ele>
        <time>2024-11-10T13:40:33Z</time>
      </trkpt>
      <trkpt lat="42.28888" lon="3.28118">
        <ele>6.2</ele>
        <time>2024-11-10T13:40:34Z</time>
      </trkpt>
      <trkpt lat="42.28886" lon="3.28117">
        <ele>6.2</ele>
        <time>2024-11-10T13:40:35Z</time>
      </trkpt>
      <trkpt lat="42.28886" lon="3.28117">
        <ele>6.2</ele>
        <time>2024-11-10T13:40:36Z</time>
      </trkpt>
      <trkpt lat="42.28885" lon="3.28117">
        <ele>6.2</ele>
        <time>2024-11-10T13:40:37Z</time>
      </trkpt>
      <trkpt lat="42.28885" lon="3.28117">
        <ele>6.2</ele>
        <time>2024-11-10T13:40:38Z</time>
      </trkpt>
      <trkpt lat="42.28886" lon="3.28117">
        <ele>6.2</ele>
        <time>2024-11-10T13:40:39Z</time>
      </trkpt>
      <trkpt lat="42.28887" lon="3.28118">
        <ele>6.2</ele>
        <time>2024-11-10T13:40:40Z</time>
      </trkpt>
      <trkpt lat="42.28888" lon="3.28119">
        <ele>6.2</ele>
        <time>2024-11-10T13:40:41Z</time>
      </trkpt>
      <trkpt lat="42.28888" lon="3.28119">
        <ele>6.2</ele>
        <time>2024-11-10T13:40:42Z</time>
      </trkpt>
      <trkpt lat="42.28887" lon="3.28119">
        <ele>6.2</ele>
        <time>2024-11-10T13:40:43Z</time>
      </trkpt>
      <trkpt lat="42.28887" lon="3.28118">
        <ele>6.2</ele>
        <time>2024-11-10T13:40:44Z</time>
      </trkpt>
      <trkpt lat="42.28887" lon="3.28118">
        <ele>6.2</ele>
        <time>2024-11-10T13:40:45Z</time>
      </trkpt>
      <trkpt lat="42.28887" lon="3.28118">
        <ele>6.2</ele>
        <time>2024-11-10T13:40:46Z</time>
      </trkpt>
      <trkpt lat="42.28887" lon="3.28118">
        <ele>6.2</ele>
        <time>2024-11-10T13:40:47Z</time>
      </trkpt>
      <trkpt lat="42.28887" lon="3.28118">
        <ele>6.2</ele>
        <time>2024-11-10T13:40:48Z</time>
      </trkpt>
      <trkpt lat="42.28886" lon="3.28118">
        <ele>6.2</ele>
        <time>2024-11-10T13:40:49Z</time>
      </trkpt>
      <trkpt lat="42.28886" lon="3.28118">
        <ele>6.2</ele>
        <time>2024-11-10T13:40:50Z</time>
      </trkpt>
      <trkpt lat="42.28886" lon="3.28118">
        <ele>6.2</ele>
        <time>2024-11-10T13:40:51Z</time>
      </trkpt>
      <trkpt lat="42.28886" lon="3.28117">
        <ele>6.2</ele>
        <time>2024-11-10T13:40:52Z</time>
      </trkpt>
      <trkpt lat="42.28886" lon="3.28117">
        <ele>6.2</ele>
        <time>2024-11-10T13:40:53Z</time>
      </trkpt>
      <trkpt lat="42.28886" lon="3.28117">
        <ele>6.2</ele>
        <time>2024-11-10T13:40:54Z</time>
      </trkpt>
      <trkpt lat="42.28885" lon="3.28117">
        <ele>6.2</ele>
        <time>2024-11-10T13:40:55Z</time>
      </trkpt>
      <trkpt lat="42.28885" lon="3.28117">
        <ele>6.2</ele>
        <time>2024-11-10T13:40:56Z</time>
      </trkpt>
      <trkpt lat="42.28885" lon="3.28117">
        <ele>6.2</ele>
        <time>2024-11-10T13:40:57Z</time>
      </trkpt>
      <trkpt lat="42.28885" lon="3.28117">
        <ele>6.2</ele>
        <time>2024-11-10T13:40:58Z</time>
      </trkpt>
      <trkpt lat="42.28885" lon="3.28116">
        <ele>6.2</ele>
        <time>2024-11-10T13:40:59Z</time>
      </trkpt>
      <trkpt lat="42.28885" lon="3.28116">
        <ele>6.2</ele>
        <time>2024-11-10T13:41:00Z</time>
      </trkpt>
      <trkpt lat="42.28884" lon="3.28116">
        <ele>6.2</ele>
        <time>2024-11-10T13:41:01Z</time>
      </trkpt>
      <trkpt lat="42.28884" lon="3.28116">
        <ele>6.2</ele>
        <time>2024-11-10T13:41:02Z</time>
      </trkpt>
      <trkpt lat="42.28884" lon="3.28116">
        <ele>6.2</ele>
        <time>2024-11-10T13:41:03Z</time>
      </trkpt>
      <trkpt lat="42.28884" lon="3.28116">
        <ele>6.2</ele>
        <time>2024-11-10T13:41:04Z</time>
      </trkpt>
      <trkpt lat="42.28884" lon="3.28116">
        <ele>6.2</ele>
        <time>2024-11-10T13:41:05Z</time>
      </trkpt>
      <trkpt lat="42.28883" lon="3.28116">
        <ele>6.2</ele>
        <time>2024-11-10T13:41:06Z</time>
      </trkpt>
      <trkpt lat="42.28883" lon="3.28115">
        <ele>6.2</ele>
        <time>2024-11-10T13:41:07Z</time>
      </trkpt>
      <trkpt lat="42.28883" lon="3.28115">
        <ele>6.2</ele>
        <time>2024-11-10T13:41:08Z</time>
      </trkpt>
      <trkpt lat="42.28883" lon="3.28115">
        <ele>6.2</ele>
        <time>2024-11-10T13:41:09Z</time>
      </trkpt>
      <trkpt lat="42.28883" lon="3.28115">
        <ele>6.2</ele>
        <time>2024-11-10T13:41:10Z</time>
      </trkpt>
      <trkpt lat="42.28883" lon="3.28115">
        <ele>6.2</ele>
        <time>2024-11-10T13:41:11Z</time>
      </trkpt>
      <trkpt lat="42.28882" lon="3.28115">
        <ele>6.2</ele>
        <time>2024-11-10T13:41:12Z</time>
      </trkpt>
      <trkpt lat="42.28882" lon="3.28115">
        <ele>6.2</ele>
        <time>2024-11-10T13:41:13Z</time>
      </trkpt>
      <trkpt lat="42.28882" lon="3.28114">
        <ele>6.2</ele>
        <time>2024-11-10T13:41:14Z</time>
      </trkpt>
      <trkpt lat="42.28882" lon="3.28114">
        <ele>6.2</ele>
        <time>2024-11-10T13:41:15Z</time>
      </trkpt>
      <trkpt lat="42.28882" lon="3.28114">
        <ele>6.2</ele>
        <time>2024-11-10T13:41:16Z</time>
      </trkpt>
      <trkpt lat="42.28882" lon="3.28114">
        <ele>6.2</ele>
        <time>2024-11-10T13:41:17Z</time>
      </trkpt>
      <trkpt lat="42.28881" lon="3.28114">
        <ele>6.2</ele>
        <time>2024-11-10T13:41:18Z</time>
      </trkpt>
      <trkpt lat="42.28881" lon="3.28114">
        <ele>6.2</ele>
        <time>2024-11-10T13:41:19Z</time>
      </trkpt>
      <trkpt lat="42.28881" lon="3.28114">
        <ele>6.2</ele>
        <time>2024-11-10T13:41:20Z</time>
      </trkpt>
      <trkpt lat="42.28882" lon="3.28114">
        <ele>6.2</ele>
        <time>2024-11-10T13:41:21Z</time>
      </trkpt>
      <trkpt lat="42.28883" lon="3.28116">
        <ele>6.2</ele>
        <time>2024-11-10T13:41:22Z</time>
      </trkpt>
      <trkpt lat="42.28885" lon="3.28117">
        <ele>6.1</ele>
        <time>2024-11-10T13:41:23Z</time>
      </trkpt>
      <trkpt lat="42.28886" lon="3.28117">
        <ele>6.1</ele>
        <time>2024-11-10T13:41:24Z</time>
      </trkpt>
      <trkpt lat="42.28888" lon="3.28119">
        <ele>6.1</ele>
        <time>2024-11-10T13:41:25Z</time>
      </trkpt>
      <trkpt lat="42.28888" lon="3.28119">
        <ele>6.1</ele>
        <time>2024-11-10T13:41:26Z</time>
      </trkpt>
      <trkpt lat="42.28888" lon="3.28119">
        <ele>6.1</ele>
        <time>2024-11-10T13:41:27Z</time>
      </trkpt>
      <trkpt lat="42.28888" lon="3.28119">
        <ele>6.1</ele>
        <time>2024-11-10T13:41:28Z</time>
      </trkpt>
      <trkpt lat="42.28887" lon="3.28119">
        <ele>6.1</ele>
        <time>2024-11-10T13:41:29Z</time>
      </trkpt>
      <trkpt lat="42.28887" lon="3.28118">
        <ele>6.1</ele>
        <time>2024-11-10T13:41:30Z</time>
      </trkpt>
      <trkpt lat="42.28887" lon="3.28118">
        <ele>6.1</ele>
        <time>2024-11-10T13:41:31Z</time>
      </trkpt>
      <trkpt lat="42.28887" lon="3.28118">
        <ele>6.1</ele>
        <time>2024-11-10T13:41:32Z</time>
      </trkpt>
      <trkpt lat="42.28887" lon="3.28118">
        <ele>6.1</ele>
        <time>2024-11-10T13:41:33Z</time>
      </trkpt>
      <trkpt lat="42.28887" lon="3.28118">
        <ele>6.1</ele>
        <time>2024-11-10T13:41:34Z</time>
      </trkpt>
      <trkpt lat="42.28886" lon="3.28118">
        <ele>6.1</ele>
        <time>2024-11-10T13:41:35Z</time>
      </trkpt>
      <trkpt lat="42.28886" lon="3.28118">
        <ele>6.1</ele>
        <time>2024-11-10T13:41:36Z</time>
      </trkpt>
      <trkpt lat="42.28886" lon="3.28118">
        <ele>6.1</ele>
        <time>2024-11-10T13:41:37Z</time>
      </trkpt>
      <trkpt lat="42.28886" lon="3.28117">
        <ele>6.1</ele>
        <time>2024-11-10T13:41:38Z</time>
      </trkpt>
      <trkpt lat="42.28886" lon="3.28117">
        <ele>6.1</ele>
        <time>2024-11-10T13:41:39Z</time>
      </trkpt>
      <trkpt lat="42.28885" lon="3.28117">
        <ele>6.1</ele>
        <time>2024-11-10T13:41:40Z</time>
      </trkpt>
      <trkpt lat="42.28885" lon="3.28117">
        <ele>6.1</ele>
        <time>2024-11-10T13:41:41Z</time>
      </trkpt>
      <trkpt lat="42.28885" lon="3.28117">
        <ele>6.1</ele>
        <time>2024-11-10T13:41:42Z</time>
      </trkpt>
      <trkpt lat="42.28885" lon="3.28117">
        <ele>6.1</ele>
        <time>2024-11-10T13:41:43Z</time>
      </trkpt>
      <trkpt lat="42.28885" lon="3.28117">
        <ele>6.1</ele>
        <time>2024-11-10T13:41:44Z</time>
      </trkpt>
      <trkpt lat="42.28885" lon="3.28116">
        <ele>6.1</ele>
        <time>2024-11-10T13:41:45Z</time>
      </trkpt>
      <trkpt lat="42.28884" lon="3.28116">
        <ele>6.1</ele>
        <time>2024-11-10T13:41:46Z</time>
      </trkpt>
      <trkpt lat="42.28884" lon="3.28116">
        <ele>6.1</ele>
        <time>2024-11-10T13:41:47Z</time>
      </trkpt>
      <trkpt lat="42.28884" lon="3.28116">
        <ele>6.1</ele>
        <time>2024-11-10T13:41:48Z</time>
      </trkpt>
      <trkpt lat="42.28884" lon="3.28116">
        <ele>6.1</ele>
        <time>2024-11-10T13:41:49Z</time>
      </trkpt>
      <trkpt lat="42.28884" lon="3.28116">
        <ele>6.1</ele>
        <time>2024-11-10T13:41:50Z</time>
      </trkpt>
      <trkpt lat="42.28883" lon="3.28116">
        <ele>6.1</ele>
        <time>2024-11-10T13:41:51Z</time>
      </trkpt>
      <trkpt lat="42.28883" lon="3.28116">
        <ele>6.1</ele>
        <time>2024-11-10T13:41:52Z</time>
      </trkpt>
      <trkpt lat="42.28883" lon="3.28115">
        <ele>6.1</ele>
        <time>2024-11-10T13:41:53Z</time>
      </trkpt>
      <trkpt lat="42.28883" lon="3.28115">
        <ele>6.1</ele>
        <time>2024-11-10T13:41:54Z</time>
      </trkpt>
      <trkpt lat="42.28883" lon="3.28115">
        <ele>6.1</ele>
        <time>2024-11-10T13:41:55Z</time>
      </trkpt>
      <trkpt lat="42.28883" lon="3.28115">
        <ele>6.1</ele>
        <time>2024-11-10T13:41:56Z</time>
      </trkpt>
      <trkpt lat="42.28882" lon="3.28115">
        <ele>6.1</ele>
        <time>2024-11-10T13:41:57Z</time>
      </trkpt>
      <trkpt lat="42.28882" lon="3.28115">
        <ele>6.1</ele>
        <time>2024-11-10T13:41:58Z</time>
      </trkpt>
      <trkpt lat="42.28882" lon="3.28115">
        <ele>6.1</ele>
        <time>2024-11-10T13:41:59Z</time>
      </trkpt>
      <trkpt lat="42.28882" lon="3.28114">
        <ele>6.1</ele>
        <time>2024-11-10T13:42:00Z</time>
      </trkpt>
      <trkpt lat="42.28882" lon="3.28114">
        <ele>6.1</ele>
        <time>2024-11-10T13:42:01Z</time>
      </trkpt>
      <trkpt lat="42.28882" lon="3.28114">
        <ele>6.1</ele>
        <time>2024-11-10T13:42:02Z</time>
      </trkpt>
      <trkpt lat="42.28881" lon="3.28114">
        <ele>6.1</ele>
        <time>2024-11-10T13:42:03Z</time>
      </trkpt>
      <trkpt lat="42.28881" lon="3.28114">
        <ele>6.1</ele>
        <time>2024-11-10T13:42:04Z</time>
      </trkpt>
      <trkpt lat="42.2888" lon="3.28113">
        <ele>6.1</ele>
        <time>2024-11-10T13:42:05Z</time>
      </trkpt>
      <trkpt lat="42.2888" lon="3.28113">
        <ele>6.1</ele>
        <time>2024-11-10T13:42:06Z</time>
      </trkpt>
      <trkpt lat="42.2888" lon="3.28113">
        <ele>6.1</ele>
        <time>2024-11-10T13:42:07Z</time>
      </trkpt>
      <trkpt lat="42.2888" lon="3.28113">
        <ele>6.1</ele>
        <time>2024-11-10T13:42:08Z</time>
      </trkpt>
      <trkpt lat="42.2888" lon="3.28113">
        <ele>6.1</ele>
        <time>2024-11-10T13:42:09Z</time>
      </trkpt>
      <trkpt lat="42.2888" lon="3.28114">
        <ele>6.1</ele>
        <time>2024-11-10T13:42:10Z</time>
      </trkpt>
      <trkpt lat="42.2888" lon="3.28114">
        <ele>6.1</ele>
        <time>2024-11-10T13:42:11Z</time>
      </trkpt>
      <trkpt lat="42.2888" lon="3.28114">
        <ele>6.1</ele>
        <time>2024-11-10T13:42:12Z</time>
      </trkpt>
      <trkpt lat="42.28884" lon="3.28116">
        <ele>6.1</ele>
        <time>2024-11-10T13:42:13Z</time>
      </trkpt>
      <trkpt lat="42.28886" lon="3.28118">
        <ele>6.1</ele>
        <time>2024-11-10T13:42:14Z</time>
      </trkpt>
      <trkpt lat="42.28881" lon="3.28114">
        <ele>6.1</ele>
        <time>2024-11-10T13:42:15Z</time>
      </trkpt>
      <trkpt lat="42.2888" lon="3.28114">
        <ele>6.1</ele>
        <time>2024-11-10T13:42:16Z</time>
      </trkpt>
      <trkpt lat="42.2888" lon="3.28113">
        <ele>6.1</ele>
        <time>2024-11-10T13:42:17Z</time>
      </trkpt>
      <trkpt lat="42.2888" lon="3.28114">
        <ele>6.1</ele>
        <time>2024-11-10T13:42:18Z</time>
      </trkpt>
      <trkpt lat="42.2888" lon="3.28114">
        <ele>6.1</ele>
        <time>2024-11-10T13:42:19Z</time>
      </trkpt>
      <trkpt lat="42.28884" lon="3.28116">
        <ele>6.1</ele>
        <time>2024-11-10T13:42:20Z</time>
      </trkpt>
      <trkpt lat="42.28886" lon="3.28117">
        <ele>6.1</ele>
        <time>2024-11-10T13:42:21Z</time>
      </trkpt>
      <trkpt lat="42.28886" lon="3.28118">
        <ele>6.1</ele>
        <time>2024-11-10T13:42:22Z</time>
      </trkpt>
      <trkpt lat="42.28885" lon="3.28117">
        <ele>6.1</ele>
        <time>2024-11-10T13:42:23Z</time>
      </trkpt>
      <trkpt lat="42.28883" lon="3.28115">
        <ele>6</ele>
        <time>2024-11-10T13:42:24Z</time>
      </trkpt>
      <trkpt lat="42.28881" lon="3.28114">
        <ele>6</ele>
        <time>2024-11-10T13:42:25Z</time>
      </trkpt>
      <trkpt lat="42.28881" lon="3.28114">
        <ele>6</ele>
        <time>2024-11-10T13:42:26Z</time>
      </trkpt>
      <trkpt lat="42.28882" lon="3.28115">
        <ele>6</ele>
        <time>2024-11-10T13:42:27Z</time>
      </trkpt>
      <trkpt lat="42.28884" lon="3.28116">
        <ele>6</ele>
        <time>2024-11-10T13:42:28Z</time>
      </trkpt>
      <trkpt lat="42.28885" lon="3.28117">
        <ele>6</ele>
        <time>2024-11-10T13:42:29Z</time>
      </trkpt>
      <trkpt lat="42.28886" lon="3.28118">
        <ele>6</ele>
        <time>2024-11-10T13:42:30Z</time>
      </trkpt>
      <trkpt lat="42.28888" lon="3.2812">
        <ele>6</ele>
        <time>2024-11-10T13:42:31Z</time>
      </trkpt>
      <trkpt lat="42.28888" lon="3.2812">
        <ele>6</ele>
        <time>2024-11-10T13:42:32Z</time>
      </trkpt>
      <trkpt lat="42.28888" lon="3.2812">
        <ele>6</ele>
        <time>2024-11-10T13:42:33Z</time>
      </trkpt>
      <trkpt lat="42.28888" lon="3.2812">
        <ele>6</ele>
        <time>2024-11-10T13:42:34Z</time>
      </trkpt>
      <trkpt lat="42.28887" lon="3.28119">
        <ele>6</ele>
        <time>2024-11-10T13:42:35Z</time>
      </trkpt>
      <trkpt lat="42.28887" lon="3.28119">
        <ele>6</ele>
        <time>2024-11-10T13:42:36Z</time>
      </trkpt>
      <trkpt lat="42.28887" lon="3.28118">
        <ele>6</ele>
        <time>2024-11-10T13:42:37Z</time>
      </trkpt>
      <trkpt lat="42.28887" lon="3.28118">
        <ele>6</ele>
        <time>2024-11-10T13:42:38Z</time>
      </trkpt>
      <trkpt lat="42.28887" lon="3.28119">
        <ele>6</ele>
        <time>2024-11-10T13:42:39Z</time>
      </trkpt>
      <trkpt lat="42.28887" lon="3.28118">
        <ele>6</ele>
        <time>2024-11-10T13:42:40Z</time>
      </trkpt>
      <trkpt lat="42.28887" lon="3.28118">
        <ele>6</ele>
        <time>2024-11-10T13:42:41Z</time>
      </trkpt>
      <trkpt lat="42.28887" lon="3.28118">
        <ele>6</ele>
        <time>2024-11-10T13:42:42Z</time>
      </trkpt>
      <trkpt lat="42.28887" lon="3.28118">
        <ele>6</ele>
        <time>2024-11-10T13:42:43Z</time>
      </trkpt>
      <trkpt lat="42.28887" lon="3.28118">
        <ele>6</ele>
        <time>2024-11-10T13:42:44Z</time>
      </trkpt>
      <trkpt lat="42.28887" lon="3.28118">
        <ele>6</ele>
        <time>2024-11-10T13:42:45Z</time>
      </trkpt>
      <trkpt lat="42.28887" lon="3.28118">
        <ele>6</ele>
        <time>2024-11-10T13:42:46Z</time>
      </trkpt>
      <trkpt lat="42.28887" lon="3.28118">
        <ele>6</ele>
        <time>2024-11-10T13:42:47Z</time>
      </trkpt>
      <trkpt lat="42.28887" lon="3.28118">
        <ele>6</ele>
        <time>2024-11-10T13:42:48Z</time>
      </trkpt>
      <trkpt lat="42.28887" lon="3.28118">
        <ele>6</ele>
        <time>2024-11-10T13:42:49Z</time>
      </trkpt>
      <trkpt lat="42.28888" lon="3.28118">
        <ele>6</ele>
        <time>2024-11-10T13:42:50Z</time>
      </trkpt>
      <trkpt lat="42.28888" lon="3.28119">
        <ele>6</ele>
        <time>2024-11-10T13:42:51Z</time>
      </trkpt>
      <trkpt lat="42.28888" lon="3.28119">
        <ele>6</ele>
        <time>2024-11-10T13:42:52Z</time>
      </trkpt>
      <trkpt lat="42.28888" lon="3.28119">
        <ele>6</ele>
        <time>2024-11-10T13:42:53Z</time>
      </trkpt>
      <trkpt lat="42.28888" lon="3.28119">
        <ele>6</ele>
        <time>2024-11-10T13:42:54Z</time>
      </trkpt>
      <trkpt lat="42.28888" lon="3.28119">
        <ele>6</ele>
        <time>2024-11-10T13:42:55Z</time>
      </trkpt>
      <trkpt lat="42.28888" lon="3.28119">
        <ele>6</ele>
        <time>2024-11-10T13:42:56Z</time>
      </trkpt>
      <trkpt lat="42.28888" lon="3.28119">
        <ele>6</ele>
        <time>2024-11-10T13:42:57Z</time>
      </trkpt>
      <trkpt lat="42.28888" lon="3.28119">
        <ele>6</ele>
        <time>2024-11-10T13:42:58Z</time>
      </trkpt>
      <trkpt lat="42.28888" lon="3.28119">
        <ele>6</ele>
        <time>2024-11-10T13:42:59Z</time>
      </trkpt>
      <trkpt lat="42.28888" lon="3.28119">
        <ele>6</ele>
        <time>2024-11-10T13:43:00Z</time>
      </trkpt>
      <trkpt lat="42.28888" lon="3.28119">
        <ele>6</ele>
        <time>2024-11-10T13:43:01Z</time>
      </trkpt>
      <trkpt lat="42.28888" lon="3.28119">
        <ele>6</ele>
        <time>2024-11-10T13:43:02Z</time>
      </trkpt>
      <trkpt lat="42.28888" lon="3.28119">
        <ele>6</ele>
        <time>2024-11-10T13:43:03Z</time>
      </trkpt>
      <trkpt lat="42.28888" lon="3.28119">
        <ele>6</ele>
        <time>2024-11-10T13:43:04Z</time>
      </trkpt>
      <trkpt lat="42.28887" lon="3.28119">
        <ele>6</ele>
        <time>2024-11-10T13:43:05Z</time>
      </trkpt>
      <trkpt lat="42.28887" lon="3.28119">
        <ele>6</ele>
        <time>2024-11-10T13:43:06Z</time>
      </trkpt>
      <trkpt lat="42.28887" lon="3.28119">
        <ele>6</ele>
        <time>2024-11-10T13:43:07Z</time>
      </trkpt>
      <trkpt lat="42.28887" lon="3.28119">
        <ele>6</ele>
        <time>2024-11-10T13:43:08Z</time>
      </trkpt>
      <trkpt lat="42.28887" lon="3.28119">
        <ele>6</ele>
        <time>2024-11-10T13:43:09Z</time>
      </trkpt>
      <trkpt lat="42.28888" lon="3.28119">
        <ele>6</ele>
        <time>2024-11-10T13:43:10Z</time>
      </trkpt>
      <trkpt lat="42.28888" lon="3.28119">
        <ele>6</ele>
        <time>2024-11-10T13:43:11Z</time>
      </trkpt>
      <trkpt lat="42.28888" lon="3.28119">
        <ele>6</ele>
        <time>2024-11-10T13:43:12Z</time>
      </trkpt>
      <trkpt lat="42.28888" lon="3.28119">
        <ele>6</ele>
        <time>2024-11-10T13:43:13Z</time>
      </trkpt>
      <trkpt lat="42.28888" lon="3.28119">
        <ele>6</ele>
        <time>2024-11-10T13:43:14Z</time>
      </trkpt>
      <trkpt lat="42.28888" lon="3.28119">
        <ele>6</ele>
        <time>2024-11-10T13:43:15Z</time>
      </trkpt>
      <trkpt lat="42.28888" lon="3.28119">
        <ele>6</ele>
        <time>2024-11-10T13:43:16Z</time>
      </trkpt>
      <trkpt lat="42.28888" lon="3.28119">
        <ele>6</ele>
        <time>2024-11-10T13:43:17Z</time>
      </trkpt>
      <trkpt lat="42.28888" lon="3.28119">
        <ele>6</ele>
        <time>2024-11-10T13:43:18Z</time>
      </trkpt>
      <trkpt lat="42.28888" lon="3.28119">
        <ele>6</ele>
        <time>2024-11-10T13:43:19Z</time>
      </trkpt>
      <trkpt lat="42.28888" lon="3.28119">
        <ele>6</ele>
        <time>2024-11-10T13:43:20Z</time>
      </trkpt>
      <trkpt lat="42.28888" lon="3.28119">
        <ele>6</ele>
        <time>2024-11-10T13:43:21Z</time>
      </trkpt>
      <trkpt lat="42.28888" lon="3.28119">
        <ele>6</ele>
        <time>2024-11-10T13:43:22Z</time>
      </trkpt>
      <trkpt lat="42.28888" lon="3.28119">
        <ele>6</ele>
        <time>2024-11-10T13:43:23Z</time>
      </trkpt>
      <trkpt lat="42.28888" lon="3.28119">
        <ele>6</ele>
        <time>2024-11-10T13:43:24Z</time>
      </trkpt>
      <trkpt lat="42.28888" lon="3.28119">
        <ele>6</ele>
        <time>2024-11-10T13:43:25Z</time>
      </trkpt>
      <trkpt lat="42.28888" lon="3.28119">
        <ele>6</ele>
        <time>2024-11-10T13:43:26Z</time>
      </trkpt>
      <trkpt lat="42.28888" lon="3.28119">
        <ele>6</ele>
        <time>2024-11-10T13:43:27Z</time>
      </trkpt>
      <trkpt lat="42.28888" lon="3.28119">
        <ele>6</ele>
        <time>2024-11-10T13:43:28Z</time>
      </trkpt>
      <trkpt lat="42.28888" lon="3.28119">
        <ele>6</ele>
        <time>2024-11-10T13:43:29Z</time>
      </trkpt>
      <trkpt lat="42.28888" lon="3.28119">
        <ele>6</ele>
        <time>2024-11-10T13:43:30Z</time>
      </trkpt>
      <trkpt lat="42.28888" lon="3.28119">
        <ele>6</ele>
        <time>2024-11-10T13:43:31Z</time>
      </trkpt>
      <trkpt lat="42.28888" lon="3.28119">
        <ele>6</ele>
        <time>2024-11-10T13:43:32Z</time>
      </trkpt>
      <trkpt lat="42.28888" lon="3.28119">
        <ele>6</ele>
        <time>2024-11-10T13:43:33Z</time>
      </trkpt>
      <trkpt lat="42.28888" lon="3.28119">
        <ele>6</ele>
        <time>2024-11-10T13:43:34Z</time>
      </trkpt>
      <trkpt lat="42.28888" lon="3.28119">
        <ele>6</ele>
        <time>2024-11-10T13:43:35Z</time>
      </trkpt>
      <trkpt lat="42.28888" lon="3.28119">
        <ele>6</ele>
        <time>2024-11-10T13:43:36Z</time>
      </trkpt>
      <trkpt lat="42.28888" lon="3.28118">
        <ele>6</ele>
        <time>2024-11-10T13:43:37Z</time>
      </trkpt>
      <trkpt lat="42.28888" lon="3.28118">
        <ele>6</ele>
        <time>2024-11-10T13:43:38Z</time>
      </trkpt>
      <trkpt lat="42.28888" lon="3.28118">
        <ele>6</ele>
        <time>2024-11-10T13:43:39Z</time>
      </trkpt>
      <trkpt lat="42.28888" lon="3.28119">
        <ele>6</ele>
        <time>2024-11-10T13:43:40Z</time>
      </trkpt>
      <trkpt lat="42.28888" lon="3.28119">
        <ele>6</ele>
        <time>2024-11-10T13:43:41Z</time>
      </trkpt>
      <trkpt lat="42.28888" lon="3.28119">
        <ele>6</ele>
        <time>2024-11-10T13:43:42Z</time>
      </trkpt>
      <trkpt lat="42.28888" lon="3.28119">
        <ele>6</ele>
        <time>2024-11-10T13:43:43Z</time>
      </trkpt>
      <trkpt lat="42.28888" lon="3.28119">
        <ele>6</ele>
        <time>2024-11-10T13:43:44Z</time>
      </trkpt>
      <trkpt lat="42.28888" lon="3.28119">
        <ele>6</ele>
        <time>2024-11-10T13:43:45Z</time>
      </trkpt>
      <trkpt lat="42.28887" lon="3.28119">
        <ele>6</ele>
        <time>2024-11-10T13:43:46Z</time>
      </trkpt>
      <trkpt lat="42.28887" lon="3.2812">
        <ele>6</ele>
        <time>2024-11-10T13:43:47Z</time>
      </trkpt>
      <trkpt lat="42.28887" lon="3.2812">
        <ele>6</ele>
        <time>2024-11-10T13:43:48Z</time>
      </trkpt>
      <trkpt lat="42.28887" lon="3.2812">
        <ele>6</ele>
        <time>2024-11-10T13:43:49Z</time>
      </trkpt>
      <trkpt lat="42.28887" lon="3.2812">
        <ele>6</ele>
        <time>2024-11-10T13:43:50Z</time>
      </trkpt>
      <trkpt lat="42.28887" lon="3.28119">
        <ele>6</ele>
        <time>2024-11-10T13:43:51Z</time>
      </trkpt>
      <trkpt lat="42.28886" lon="3.28119">
        <ele>6</ele>
        <time>2024-11-10T13:43:52Z</time>
      </trkpt>
      <trkpt lat="42.28886" lon="3.28119">
        <ele>6</ele>
        <time>2024-11-10T13:43:53Z</time>
      </trkpt>
      <trkpt lat="42.28886" lon="3.28119">
        <ele>6</ele>
        <time>2024-11-10T13:43:54Z</time>
      </trkpt>
      <trkpt lat="42.28886" lon="3.28119">
        <ele>6</ele>
        <time>2024-11-10T13:43:55Z</time>
      </trkpt>
      <trkpt lat="42.28886" lon="3.28119">
        <ele>6</ele>
        <time>2024-11-10T13:43:56Z</time>
      </trkpt>
      <trkpt lat="42.28886" lon="3.28119">
        <ele>6</ele>
        <time>2024-11-10T13:43:57Z</time>
      </trkpt>
      <trkpt lat="42.28886" lon="3.28119">
        <ele>6</ele>
        <time>2024-11-10T13:43:58Z</time>
      </trkpt>
      <trkpt lat="42.28886" lon="3.28119">
        <ele>6</ele>
        <time>2024-11-10T13:43:59Z</time>
      </trkpt>
      <trkpt lat="42.28886" lon="3.28119">
        <ele>6</ele>
        <time>2024-11-10T13:44:00Z</time>
      </trkpt>
      <trkpt lat="42.28887" lon="3.28119">
        <ele>6</ele>
        <time>2024-11-10T13:44:01Z</time>
      </trkpt>
      <trkpt lat="42.28887" lon="3.28119">
        <ele>6</ele>
        <time>2024-11-10T13:44:02Z</time>
      </trkpt>
      <trkpt lat="42.28888" lon="3.28119">
        <ele>6</ele>
        <time>2024-11-10T13:44:03Z</time>
      </trkpt>
      <trkpt lat="42.28888" lon="3.28119">
        <ele>6</ele>
        <time>2024-11-10T13:44:04Z</time>
      </trkpt>
      <trkpt lat="42.28888" lon="3.28119">
        <ele>6</ele>
        <time>2024-11-10T13:44:05Z</time>
      </trkpt>
      <trkpt lat="42.28888" lon="3.28119">
        <ele>6</ele>
        <time>2024-11-10T13:44:06Z</time>
      </trkpt>
      <trkpt lat="42.28888" lon="3.28119">
        <ele>6</ele>
        <time>2024-11-10T13:44:07Z</time>
      </trkpt>
      <trkpt lat="42.28888" lon="3.28119">
        <ele>6</ele>
        <time>2024-11-10T13:44:08Z</time>
      </trkpt>
      <trkpt lat="42.28888" lon="3.28119">
        <ele>6</ele>
        <time>2024-11-10T13:44:09Z</time>
      </trkpt>
      <trkpt lat="42.28887" lon="3.28119">
        <ele>6</ele>
        <time>2024-11-10T13:44:10Z</time>
      </trkpt>
      <trkpt lat="42.28887" lon="3.28119">
        <ele>6</ele>
        <time>2024-11-10T13:44:11Z</time>
      </trkpt>
      <trkpt lat="42.28887" lon="3.28119">
        <ele>6</ele>
        <time>2024-11-10T13:44:12Z</time>
      </trkpt>
      <trkpt lat="42.28887" lon="3.28119">
        <ele>6</ele>
        <time>2024-11-10T13:44:13Z</time>
      </trkpt>
      <trkpt lat="42.28887" lon="3.28119">
        <ele>6</ele>
        <time>2024-11-10T13:44:14Z</time>
      </trkpt>
      <trkpt lat="42.28887" lon="3.28119">
        <ele>6</ele>
        <time>2024-11-10T13:44:15Z</time>
      </trkpt>
      <trkpt lat="42.28887" lon="3.28119">
        <ele>6</ele>
        <time>2024-11-10T13:44:16Z</time>
      </trkpt>
      <trkpt lat="42.28887" lon="3.28119">
        <ele>6</ele>
        <time>2024-11-10T13:44:17Z</time>
      </trkpt>
      <trkpt lat="42.28887" lon="3.28119">
        <ele>6</ele>
        <time>2024-11-10T13:44:18Z</time>
      </trkpt>
      <trkpt lat="42.28887" lon="3.28119">
        <ele>6</ele>
        <time>2024-11-10T13:44:19Z</time>
      </trkpt>
      <trkpt lat="42.28887" lon="3.28119">
        <ele>6</ele>
        <time>2024-11-10T13:44:20Z</time>
      </trkpt>
      <trkpt lat="42.28887" lon="3.28119">
        <ele>6</ele>
        <time>2024-11-10T13:44:21Z</time>
      </trkpt>
      <trkpt lat="42.28888" lon="3.2812">
        <ele>6</ele>
        <time>2024-11-10T13:44:22Z</time>
      </trkpt>
      <trkpt lat="42.28887" lon="3.2812">
        <ele>6</ele>
        <time>2024-11-10T13:44:23Z</time>
      </trkpt>
      <trkpt lat="42.28887" lon="3.2812">
        <ele>6</ele>
        <time>2024-11-10T13:44:24Z</time>
      </trkpt>
      <trkpt lat="42.28887" lon="3.28119">
        <ele>6</ele>
        <time>2024-11-10T13:44:25Z</time>
      </trkpt>
      <trkpt lat="42.28887" lon="3.28119">
        <ele>6</ele>
        <time>2024-11-10T13:44:26Z</time>
      </trkpt>
      <trkpt lat="42.28887" lon="3.28119">
        <ele>6</ele>
        <time>2024-11-10T13:44:27Z</time>
      </trkpt>
      <trkpt lat="42.28887" lon="3.28119">
        <ele>6</ele>
        <time>2024-11-10T13:44:28Z</time>
      </trkpt>
      <trkpt lat="42.28887" lon="3.28119">
        <ele>6</ele>
        <time>2024-11-10T13:44:29Z</time>
      </trkpt>
      <trkpt lat="42.28888" lon="3.28119">
        <ele>6</ele>
        <time>2024-11-10T13:44:30Z</time>
      </trkpt>
      <trkpt lat="42.28888" lon="3.28119">
        <ele>6</ele>
        <time>2024-11-10T13:44:31Z</time>
      </trkpt>
      <trkpt lat="42.28888" lon="3.28119">
        <ele>6</ele>
        <time>2024-11-10T13:44:32Z</time>
      </trkpt>
      <trkpt lat="42.28888" lon="3.28118">
        <ele>6</ele>
        <time>2024-11-10T13:44:33Z</time>
      </trkpt>
      <trkpt lat="42.28888" lon="3.28119">
        <ele>6</ele>
        <time>2024-11-10T13:44:34Z</time>
      </trkpt>
      <trkpt lat="42.28888" lon="3.28119">
        <ele>6</ele>
        <time>2024-11-10T13:44:35Z</time>
      </trkpt>
      <trkpt lat="42.28888" lon="3.28119">
        <ele>6</ele>
        <time>2024-11-10T13:44:36Z</time>
      </trkpt>
      <trkpt lat="42.28888" lon="3.28119">
        <ele>6</ele>
        <time>2024-11-10T13:44:37Z</time>
      </trkpt>
      <trkpt lat="42.28888" lon="3.28119">
        <ele>6</ele>
        <time>2024-11-10T13:44:38Z</time>
      </trkpt>
      <trkpt lat="42.28888" lon="3.28119">
        <ele>6</ele>
        <time>2024-11-10T13:44:39Z</time>
      </trkpt>
      <trkpt lat="42.28888" lon="3.28119">
        <ele>6</ele>
        <time>2024-11-10T13:44:40Z</time>
      </trkpt>
      <trkpt lat="42.28888" lon="3.28119">
        <ele>6</ele>
        <time>2024-11-10T13:44:41Z</time>
      </trkpt>
      <trkpt lat="42.28888" lon="3.28119">
        <ele>6</ele>
        <time>2024-11-10T13:44:42Z</time>
      </trkpt>
      <trkpt lat="42.28888" lon="3.28119">
        <ele>6</ele>
        <time>2024-11-10T13:44:43Z</time>
      </trkpt>
      <trkpt lat="42.28888" lon="3.28119">
        <ele>6</ele>
        <time>2024-11-10T13:44:44Z</time>
      </trkpt>
      <trkpt lat="42.28888" lon="3.28119">
        <ele>6</ele>
        <time>2024-11-10T13:44:45Z</time>
      </trkpt>
      <trkpt lat="42.28888" lon="3.28119">
        <ele>6</ele>
        <time>2024-11-10T13:44:46Z</time>
      </trkpt>
      <trkpt lat="42.28888" lon="3.28119">
        <ele>6</ele>
        <time>2024-11-10T13:44:47Z</time>
      </trkpt>
      <trkpt lat="42.28888" lon="3.28119">
        <ele>6</ele>
        <time>2024-11-10T13:44:48Z</time>
      </trkpt>
      <trkpt lat="42.28888" lon="3.28119">
        <ele>6</ele>
        <time>2024-11-10T13:44:49Z</time>
      </trkpt>
      <trkpt lat="42.28888" lon="3.28119">
        <ele>6</ele>
        <time>2024-11-10T13:44:50Z</time>
      </trkpt>
      <trkpt lat="42.28888" lon="3.28119">
        <ele>6</ele>
        <time>2024-11-10T13:44:51Z</time>
      </trkpt>
      <trkpt lat="42.28888" lon="3.2812">
        <ele>6</ele>
        <time>2024-11-10T13:44:52Z</time>
      </trkpt>
      <trkpt lat="42.28888" lon="3.2812">
        <ele>6</ele>
        <time>2024-11-10T13:44:53Z</time>
      </trkpt>
      <trkpt lat="42.28888" lon="3.2812">
        <ele>6</ele>
        <time>2024-11-10T13:44:54Z</time>
      </trkpt>
      <trkpt lat="42.28888" lon="3.2812">
        <ele>6</ele>
        <time>2024-11-10T13:44:55Z</time>
      </trkpt>
      <trkpt lat="42.28888" lon="3.28119">
        <ele>6</ele>
        <time>2024-11-10T13:44:56Z</time>
      </trkpt>
      <trkpt lat="42.28887" lon="3.28119">
        <ele>6</ele>
        <time>2024-11-10T13:44:57Z</time>
      </trkpt>
      <trkpt lat="42.28886" lon="3.28118">
        <ele>6</ele>
        <time>2024-11-10T13:44:58Z</time>
      </trkpt>
      <trkpt lat="42.28885" lon="3.28117">
        <ele>6</ele>
        <time>2024-11-10T13:44:59Z</time>
      </trkpt>
      <trkpt lat="42.28885" lon="3.28117">
        <ele>6</ele>
        <time>2024-11-10T13:45:00Z</time>
      </trkpt>
      <trkpt lat="42.28884" lon="3.28116">
        <ele>6</ele>
        <time>2024-11-10T13:45:01Z</time>
      </trkpt>
      <trkpt lat="42.28884" lon="3.28116">
        <ele>6</ele>
        <time>2024-11-10T13:45:04Z</time>
      </trkpt>
      <trkpt lat="42.28884" lon="3.28116">
        <ele>6</ele>
        <time>2024-11-10T13:45:05Z</time>
      </trkpt>
      <trkpt lat="42.28884" lon="3.28116">
        <ele>6</ele>
        <time>2024-11-10T13:45:06Z</time>
      </trkpt>
      <trkpt lat="42.28885" lon="3.28117">
        <ele>5.9</ele>
        <time>2024-11-10T13:45:07Z</time>
      </trkpt>
      <trkpt lat="42.28885" lon="3.28117">
        <ele>5.9</ele>
        <time>2024-11-10T13:45:08Z</time>
      </trkpt>
      <trkpt lat="42.28886" lon="3.28117">
        <ele>5.9</ele>
        <time>2024-11-10T13:45:09Z</time>
      </trkpt>
      <trkpt lat="42.28886" lon="3.28117">
        <ele>5.9</ele>
        <time>2024-11-10T13:45:11Z</time>
      </trkpt>
      <trkpt lat="42.28885" lon="3.28117">
        <ele>5.9</ele>
        <time>2024-11-10T13:45:13Z</time>
      </trkpt>
      <trkpt lat="42.28885" lon="3.28117">
        <ele>5.9</ele>
        <time>2024-11-10T13:45:16Z</time>
      </trkpt>
      <trkpt lat="42.28885" lon="3.28118">
        <ele>5.9</ele>
        <time>2024-11-10T13:45:21Z</time>
      </trkpt>
      <trkpt lat="42.28886" lon="3.2812">
        <ele>5.9</ele>
        <time>2024-11-10T13:45:24Z</time>
      </trkpt>
      <trkpt lat="42.28886" lon="3.2812">
        <ele>5.9</ele>
        <time>2024-11-10T13:45:25Z</time>
      </trkpt>
      <trkpt lat="42.28886" lon="3.2812">
        <ele>5.9</ele>
        <time>2024-11-10T13:45:26Z</time>
      </trkpt>
      <trkpt lat="42.28886" lon="3.2812">
        <ele>5.9</ele>
        <time>2024-11-10T13:45:27Z</time>
      </trkpt>
      <trkpt lat="42.28885" lon="3.28121">
        <ele>5.9</ele>
        <time>2024-11-10T13:45:28Z</time>
      </trkpt>
      <trkpt lat="42.28885" lon="3.28122">
        <ele>5.9</ele>
        <time>2024-11-10T13:45:29Z</time>
      </trkpt>
      <trkpt lat="42.28885" lon="3.28122">
        <ele>5.9</ele>
        <time>2024-11-10T13:45:31Z</time>
      </trkpt>
      <trkpt lat="42.28884" lon="3.28122">
        <ele>5.9</ele>
        <time>2024-11-10T13:45:32Z</time>
      </trkpt>
      <trkpt lat="42.28884" lon="3.28121">
        <ele>5.9</ele>
        <time>2024-11-10T13:45:33Z</time>
      </trkpt>
      <trkpt lat="42.28884" lon="3.28121">
        <ele>5.9</ele>
        <time>2024-11-10T13:45:36Z</time>
      </trkpt>
      <trkpt lat="42.28884" lon="3.28119">
        <ele>5.9</ele>
        <time>2024-11-10T13:45:37Z</time>
      </trkpt>
      <trkpt lat="42.28884" lon="3.28119">
        <ele>5.9</ele>
        <time>2024-11-10T13:45:39Z</time>
      </trkpt>
      <trkpt lat="42.28884" lon="3.28118">
        <ele>5.9</ele>
        <time>2024-11-10T13:45:40Z</time>
      </trkpt>
      <trkpt lat="42.28884" lon="3.28118">
        <ele>5.9</ele>
        <time>2024-11-10T13:45:41Z</time>
      </trkpt>
      <trkpt lat="42.28885" lon="3.28117">
        <ele>5.9</ele>
        <time>2024-11-10T13:45:42Z</time>
      </trkpt>
      <trkpt lat="42.28887" lon="3.28116">
        <ele>5.9</ele>
        <time>2024-11-10T13:45:43Z</time>
      </trkpt>
      <trkpt lat="42.2889" lon="3.28114">
        <ele>5.9</ele>
        <time>2024-11-10T13:45:44Z</time>
      </trkpt>
      <trkpt lat="42.28891" lon="3.28113">
        <ele>5.9</ele>
        <time>2024-11-10T13:45:45Z</time>
      </trkpt>
      <trkpt lat="42.28893" lon="3.28113">
        <ele>5.9</ele>
        <time>2024-11-10T13:45:47Z</time>
      </trkpt>
      <trkpt lat="42.28893" lon="3.28112">
        <ele>5.9</ele>
        <time>2024-11-10T13:45:48Z</time>
      </trkpt>
      <trkpt lat="42.28892" lon="3.28111">
        <ele>5.9</ele>
        <time>2024-11-10T13:45:49Z</time>
      </trkpt>
      <trkpt lat="42.28891" lon="3.2811">
        <ele>5.9</ele>
        <time>2024-11-10T13:45:50Z</time>
      </trkpt>
      <trkpt lat="42.2889" lon="3.28108">
        <ele>5.9</ele>
        <time>2024-11-10T13:45:51Z</time>
      </trkpt>
      <trkpt lat="42.28888" lon="3.28107">
        <ele>5.9</ele>
        <time>2024-11-10T13:45:52Z</time>
      </trkpt>
      <trkpt lat="42.28888" lon="3.28106">
        <ele>5.9</ele>
        <time>2024-11-10T13:45:53Z</time>
      </trkpt>
      <trkpt lat="42.28887" lon="3.28106">
        <ele>5.9</ele>
        <time>2024-11-10T13:45:54Z</time>
      </trkpt>
      <trkpt lat="42.28886" lon="3.28105">
        <ele>5.9</ele>
        <time>2024-11-10T13:45:55Z</time>
      </trkpt>
      <trkpt lat="42.28885" lon="3.28104">
        <ele>5.9</ele>
        <time>2024-11-10T13:45:56Z</time>
      </trkpt>
      <trkpt lat="42.28885" lon="3.28103">
        <ele>5.9</ele>
        <time>2024-11-10T13:45:57Z</time>
      </trkpt>
      <trkpt lat="42.28884" lon="3.28103">
        <ele>5.9</ele>
        <time>2024-11-10T13:45:58Z</time>
      </trkpt>
      <trkpt lat="42.28883" lon="3.28102">
        <ele>5.9</ele>
        <time>2024-11-10T13:45:59Z</time>
      </trkpt>
      <trkpt lat="42.28883" lon="3.28102">
        <ele>5.9</ele>
        <time>2024-11-10T13:46:00Z</time>
      </trkpt>
      <trkpt lat="42.28883" lon="3.281">
        <ele>5.9</ele>
        <time>2024-11-10T13:46:01Z</time>
      </trkpt>
      <trkpt lat="42.28883" lon="3.28099">
        <ele>5.8</ele>
        <time>2024-11-10T13:46:02Z</time>
      </trkpt>
      <trkpt lat="42.28882" lon="3.28099">
        <ele>5.8</ele>
        <time>2024-11-10T13:46:03Z</time>
      </trkpt>
      <trkpt lat="42.28881" lon="3.28098">
        <ele>5.8</ele>
        <time>2024-11-10T13:46:04Z</time>
      </trkpt>
      <trkpt lat="42.28881" lon="3.28098">
        <ele>5.8</ele>
        <time>2024-11-10T13:46:05Z</time>
      </trkpt>
      <trkpt lat="42.28881" lon="3.28097">
        <ele>5.8</ele>
        <time>2024-11-10T13:46:06Z</time>
      </trkpt>
      <trkpt lat="42.28881" lon="3.28096">
        <ele>5.8</ele>
        <time>2024-11-10T13:46:07Z</time>
      </trkpt>
      <trkpt lat="42.2888" lon="3.28095">
        <ele>5.8</ele>
        <time>2024-11-10T13:46:08Z</time>
      </trkpt>
      <trkpt lat="42.2888" lon="3.28094">
        <ele>5.7</ele>
        <time>2024-11-10T13:46:09Z</time>
      </trkpt>
      <trkpt lat="42.28879" lon="3.28093">
        <ele>5.7</ele>
        <time>2024-11-10T13:46:10Z</time>
      </trkpt>
      <trkpt lat="42.28879" lon="3.28092">
        <ele>5.7</ele>
        <time>2024-11-10T13:46:11Z</time>
      </trkpt>
      <trkpt lat="42.28879" lon="3.28091">
        <ele>5.7</ele>
        <time>2024-11-10T13:46:12Z</time>
      </trkpt>
      <trkpt lat="42.28879" lon="3.2809">
        <ele>5.6</ele>
        <time>2024-11-10T13:46:13Z</time>
      </trkpt>
      <trkpt lat="42.28879" lon="3.28088">
        <ele>5.6</ele>
        <time>2024-11-10T13:46:14Z</time>
      </trkpt>
      <trkpt lat="42.28879" lon="3.28087">
        <ele>5.6</ele>
        <time>2024-11-10T13:46:15Z</time>
      </trkpt>
      <trkpt lat="42.2888" lon="3.28085">
        <ele>5.6</ele>
        <time>2024-11-10T13:46:16Z</time>
      </trkpt>
      <trkpt lat="42.2888" lon="3.28085">
        <ele>5.6</ele>
        <time>2024-11-10T13:46:17Z</time>
      </trkpt>
      <trkpt lat="42.28879" lon="3.28083">
        <ele>5.6</ele>
        <time>2024-11-10T13:46:18Z</time>
      </trkpt>
      <trkpt lat="42.28878" lon="3.28083">
        <ele>5.6</ele>
        <time>2024-11-10T13:46:19Z</time>
      </trkpt>
      <trkpt lat="42.28878" lon="3.28083">
        <ele>5.6</ele>
        <time>2024-11-10T13:46:20Z</time>
      </trkpt>
      <trkpt lat="42.28878" lon="3.28081">
        <ele>5.6</ele>
        <time>2024-11-10T13:46:21Z</time>
      </trkpt>
      <trkpt lat="42.28878" lon="3.28081">
        <ele>5.6</ele>
        <time>2024-11-10T13:46:22Z</time>
      </trkpt>
      <trkpt lat="42.28878" lon="3.2808">
        <ele>5.6</ele>
        <time>2024-11-10T13:46:23Z</time>
      </trkpt>
      <trkpt lat="42.28878" lon="3.2808">
        <ele>5.6</ele>
        <time>2024-11-10T13:46:24Z</time>
      </trkpt>
      <trkpt lat="42.28878" lon="3.28079">
        <ele>5.6</ele>
        <time>2024-11-10T13:46:25Z</time>
      </trkpt>
      <trkpt lat="42.28878" lon="3.28079">
        <ele>5.6</ele>
        <time>2024-11-10T13:46:26Z</time>
      </trkpt>
      <trkpt lat="42.28877" lon="3.28079">
        <ele>5.6</ele>
        <time>2024-11-10T13:46:27Z</time>
      </trkpt>
      <trkpt lat="42.28876" lon="3.2808">
        <ele>5.6</ele>
        <time>2024-11-10T13:46:28Z</time>
      </trkpt>
      <trkpt lat="42.28876" lon="3.2808">
        <ele>5.6</ele>
        <time>2024-11-10T13:46:29Z</time>
      </trkpt>
      <trkpt lat="42.28876" lon="3.28081">
        <ele>5.6</ele>
        <time>2024-11-10T13:46:30Z</time>
      </trkpt>
      <trkpt lat="42.28876" lon="3.28082">
        <ele>5.6</ele>
        <time>2024-11-10T13:46:31Z</time>
      </trkpt>
      <trkpt lat="42.28876" lon="3.28083">
        <ele>5.6</ele>
        <time>2024-11-10T13:46:32Z</time>
      </trkpt>
      <trkpt lat="42.28876" lon="3.28084">
        <ele>5.6</ele>
        <time>2024-11-10T13:46:33Z</time>
      </trkpt>
      <trkpt lat="42.28876" lon="3.28085">
        <ele>5.6</ele>
        <time>2024-11-10T13:46:34Z</time>
      </trkpt>
      <trkpt lat="42.28876" lon="3.28085">
        <ele>5.6</ele>
        <time>2024-11-10T13:46:35Z</time>
      </trkpt>
      <trkpt lat="42.28876" lon="3.28085">
        <ele>5.6</ele>
        <time>2024-11-10T13:46:36Z</time>
      </trkpt>
      <trkpt lat="42.28876" lon="3.28085">
        <ele>5.6</ele>
        <time>2024-11-10T13:46:37Z</time>
      </trkpt>
      <trkpt lat="42.28876" lon="3.28086">
        <ele>5.6</ele>
        <time>2024-11-10T13:46:38Z</time>
      </trkpt>
      <trkpt lat="42.28876" lon="3.28086">
        <ele>5.6</ele>
        <time>2024-11-10T13:46:39Z</time>
      </trkpt>
      <trkpt lat="42.28876" lon="3.28086">
        <ele>5.6</ele>
        <time>2024-11-10T13:46:40Z</time>
      </trkpt>
      <trkpt lat="42.28876" lon="3.28086">
        <ele>5.6</ele>
        <time>2024-11-10T13:46:41Z</time>
      </trkpt>
      <trkpt lat="42.28876" lon="3.28086">
        <ele>5.6</ele>
        <time>2024-11-10T13:46:42Z</time>
      </trkpt>
      <trkpt lat="42.28876" lon="3.28086">
        <ele>5.6</ele>
        <time>2024-11-10T13:46:43Z</time>
      </trkpt>
      <trkpt lat="42.28876" lon="3.28086">
        <ele>5.6</ele>
        <time>2024-11-10T13:46:44Z</time>
      </trkpt>
      <trkpt lat="42.28876" lon="3.28086">
        <ele>5.6</ele>
        <time>2024-11-10T13:46:45Z</time>
      </trkpt>
      <trkpt lat="42.28875" lon="3.28086">
        <ele>5.6</ele>
        <time>2024-11-10T13:46:46Z</time>
      </trkpt>
      <trkpt lat="42.28875" lon="3.28086">
        <ele>5.6</ele>
        <time>2024-11-10T13:46:47Z</time>
      </trkpt>
      <trkpt lat="42.28875" lon="3.28086">
        <ele>5.6</ele>
        <time>2024-11-10T13:46:48Z</time>
      </trkpt>
      <trkpt lat="42.28875" lon="3.28086">
        <ele>5.6</ele>
        <time>2024-11-10T13:46:49Z</time>
      </trkpt>
      <trkpt lat="42.28875" lon="3.28086">
        <ele>5.6</ele>
        <time>2024-11-10T13:46:50Z</time>
      </trkpt>
      <trkpt lat="42.28876" lon="3.28086">
        <ele>5.6</ele>
        <time>2024-11-10T13:46:51Z</time>
      </trkpt>
      <trkpt lat="42.28875" lon="3.28086">
        <ele>5.6</ele>
        <time>2024-11-10T13:46:52Z</time>
      </trkpt>
      <trkpt lat="42.28875" lon="3.28086">
        <ele>5.6</ele>
        <time>2024-11-10T13:46:53Z</time>
      </trkpt>
      <trkpt lat="42.28875" lon="3.28086">
        <ele>5.6</ele>
        <time>2024-11-10T13:46:54Z</time>
      </trkpt>
      <trkpt lat="42.28876" lon="3.28086">
        <ele>5.6</ele>
        <time>2024-11-10T13:46:55Z</time>
      </trkpt>
      <trkpt lat="42.28876" lon="3.28086">
        <ele>5.6</ele>
        <time>2024-11-10T13:46:56Z</time>
      </trkpt>
      <trkpt lat="42.28877" lon="3.28085">
        <ele>5.6</ele>
        <time>2024-11-10T13:46:57Z</time>
      </trkpt>
      <trkpt lat="42.28878" lon="3.28084">
        <ele>5.6</ele>
        <time>2024-11-10T13:46:58Z</time>
      </trkpt>
      <trkpt lat="42.28878" lon="3.28083">
        <ele>5.5</ele>
        <time>2024-11-10T13:46:59Z</time>
      </trkpt>
      <trkpt lat="42.28878" lon="3.28081">
        <ele>5.5</ele>
        <time>2024-11-10T13:47:00Z</time>
      </trkpt>
      <trkpt lat="42.28878" lon="3.28079">
        <ele>5.5</ele>
        <time>2024-11-10T13:47:01Z</time>
      </trkpt>
      <trkpt lat="42.28879" lon="3.28076">
        <ele>5.4</ele>
        <time>2024-11-10T13:47:02Z</time>
      </trkpt>
      <trkpt lat="42.28879" lon="3.28075">
        <ele>5.4</ele>
        <time>2024-11-10T13:47:03Z</time>
      </trkpt>
      <trkpt lat="42.28879" lon="3.28074">
        <ele>5.4</ele>
        <time>2024-11-10T13:47:04Z</time>
      </trkpt>
      <trkpt lat="42.28879" lon="3.28071">
        <ele>5.4</ele>
        <time>2024-11-10T13:47:05Z</time>
      </trkpt>
      <trkpt lat="42.28879" lon="3.2807">
        <ele>5.4</ele>
        <time>2024-11-10T13:47:06Z</time>
      </trkpt>
      <trkpt lat="42.28879" lon="3.28069">
        <ele>5.3</ele>
        <time>2024-11-10T13:47:07Z</time>
      </trkpt>
      <trkpt lat="42.28879" lon="3.28067">
        <ele>5.3</ele>
        <time>2024-11-10T13:47:08Z</time>
      </trkpt>
      <trkpt lat="42.28878" lon="3.28066">
        <ele>5.3</ele>
        <time>2024-11-10T13:47:09Z</time>
      </trkpt>
      <trkpt lat="42.28878" lon="3.28065">
        <ele>5.3</ele>
        <time>2024-11-10T13:47:10Z</time>
      </trkpt>
      <trkpt lat="42.28877" lon="3.28062">
        <ele>5.2</ele>
        <time>2024-11-10T13:47:11Z</time>
      </trkpt>
      <trkpt lat="42.28877" lon="3.28061">
        <ele>5.2</ele>
        <time>2024-11-10T13:47:12Z</time>
      </trkpt>
      <trkpt lat="42.28876" lon="3.2806">
        <ele>5.2</ele>
        <time>2024-11-10T13:47:13Z</time>
      </trkpt>
      <trkpt lat="42.28875" lon="3.28057">
        <ele>5.2</ele>
        <time>2024-11-10T13:47:14Z</time>
      </trkpt>
      <trkpt lat="42.28875" lon="3.28056">
        <ele>5.2</ele>
        <time>2024-11-10T13:47:15Z</time>
      </trkpt>
      <trkpt lat="42.28875" lon="3.28055">
        <ele>5.2</ele>
        <time>2024-11-10T13:47:16Z</time>
      </trkpt>
      <trkpt lat="42.28874" lon="3.28053">
        <ele>5.1</ele>
        <time>2024-11-10T13:47:17Z</time>
      </trkpt>
      <trkpt lat="42.28874" lon="3.28052">
        <ele>5.1</ele>
        <time>2024-11-10T13:47:18Z</time>
      </trkpt>
      <trkpt lat="42.28873" lon="3.28051">
        <ele>5.1</ele>
        <time>2024-11-10T13:47:19Z</time>
      </trkpt>
      <trkpt lat="42.28873" lon="3.28048">
        <ele>5.1</ele>
        <time>2024-11-10T13:47:20Z</time>
      </trkpt>
      <trkpt lat="42.28873" lon="3.28047">
        <ele>5.1</ele>
        <time>2024-11-10T13:47:21Z</time>
      </trkpt>
      <trkpt lat="42.28872" lon="3.28046">
        <ele>5.1</ele>
        <time>2024-11-10T13:47:22Z</time>
      </trkpt>
      <trkpt lat="42.28872" lon="3.28045">
        <ele>5.1</ele>
        <time>2024-11-10T13:47:23Z</time>
      </trkpt>
      <trkpt lat="42.28871" lon="3.28044">
        <ele>5</ele>
        <time>2024-11-10T13:47:24Z</time>
      </trkpt>
      <trkpt lat="42.28871" lon="3.28042">
        <ele>5</ele>
        <time>2024-11-10T13:47:25Z</time>
      </trkpt>
      <trkpt lat="42.2887" lon="3.28041">
        <ele>5</ele>
        <time>2024-11-10T13:47:26Z</time>
      </trkpt>
      <trkpt lat="42.2887" lon="3.28039">
        <ele>5</ele>
        <time>2024-11-10T13:47:27Z</time>
      </trkpt>
      <trkpt lat="42.2887" lon="3.28038">
        <ele>5</ele>
        <time>2024-11-10T13:47:28Z</time>
      </trkpt>
      <trkpt lat="42.28869" lon="3.28037">
        <ele>5</ele>
        <time>2024-11-10T13:47:29Z</time>
      </trkpt>
      <trkpt lat="42.2887" lon="3.28035">
        <ele>5</ele>
        <time>2024-11-10T13:47:30Z</time>
      </trkpt>
      <trkpt lat="42.2887" lon="3.28034">
        <ele>5</ele>
        <time>2024-11-10T13:47:31Z</time>
      </trkpt>
      <trkpt lat="42.28871" lon="3.28033">
        <ele>5</ele>
        <time>2024-11-10T13:47:32Z</time>
      </trkpt>
      <trkpt lat="42.28871" lon="3.28032">
        <ele>5</ele>
        <time>2024-11-10T13:47:33Z</time>
      </trkpt>
      <trkpt lat="42.28871" lon="3.28031">
        <ele>5</ele>
        <time>2024-11-10T13:47:34Z</time>
      </trkpt>
      <trkpt lat="42.28872" lon="3.28029">
        <ele>5</ele>
        <time>2024-11-10T13:47:35Z</time>
      </trkpt>
      <trkpt lat="42.28872" lon="3.28028">
        <ele>5</ele>
        <time>2024-11-10T13:47:36Z</time>
      </trkpt>
      <trkpt lat="42.28873" lon="3.28026">
        <ele>5</ele>
        <time>2024-11-10T13:47:37Z</time>
      </trkpt>
      <trkpt lat="42.28874" lon="3.28025">
        <ele>5</ele>
        <time>2024-11-10T13:47:38Z</time>
      </trkpt>
      <trkpt lat="42.28874" lon="3.28023">
        <ele>5</ele>
        <time>2024-11-10T13:47:39Z</time>
      </trkpt>
      <trkpt lat="42.28874" lon="3.28022">
        <ele>5</ele>
        <time>2024-11-10T13:47:40Z</time>
      </trkpt>
      <trkpt lat="42.28875" lon="3.28021">
        <ele>5</ele>
        <time>2024-11-10T13:47:41Z</time>
      </trkpt>
      <trkpt lat="42.28876" lon="3.28019">
        <ele>5</ele>
        <time>2024-11-10T13:47:42Z</time>
      </trkpt>
      <trkpt lat="42.28876" lon="3.28018">
        <ele>5</ele>
        <time>2024-11-10T13:47:43Z</time>
      </trkpt>
      <trkpt lat="42.28877" lon="3.28017">
        <ele>5</ele>
        <time>2024-11-10T13:47:44Z</time>
      </trkpt>
      <trkpt lat="42.28878" lon="3.28017">
        <ele>5</ele>
        <time>2024-11-10T13:47:45Z</time>
      </trkpt>
      <trkpt lat="42.28878" lon="3.28018">
        <ele>5</ele>
        <time>2024-11-10T13:47:46Z</time>
      </trkpt>
      <trkpt lat="42.28878" lon="3.28018">
        <ele>5</ele>
        <time>2024-11-10T13:47:47Z</time>
      </trkpt>
      <trkpt lat="42.28878" lon="3.28018">
        <ele>5</ele>
        <time>2024-11-10T13:47:48Z</time>
      </trkpt>
      <trkpt lat="42.28878" lon="3.28018">
        <ele>5</ele>
        <time>2024-11-10T13:47:49Z</time>
      </trkpt>
      <trkpt lat="42.28879" lon="3.28018">
        <ele>5</ele>
        <time>2024-11-10T13:47:50Z</time>
      </trkpt>
      <trkpt lat="42.2888" lon="3.28017">
        <ele>5</ele>
        <time>2024-11-10T13:47:51Z</time>
      </trkpt>
      <trkpt lat="42.28881" lon="3.28016">
        <ele>5</ele>
        <time>2024-11-10T13:47:52Z</time>
      </trkpt>
      <trkpt lat="42.28882" lon="3.28015">
        <ele>5</ele>
        <time>2024-11-10T13:47:53Z</time>
      </trkpt>
      <trkpt lat="42.28882" lon="3.28013">
        <ele>5</ele>
        <time>2024-11-10T13:47:54Z</time>
      </trkpt>
      <trkpt lat="42.28882" lon="3.28012">
        <ele>5</ele>
        <time>2024-11-10T13:47:55Z</time>
      </trkpt>
      <trkpt lat="42.28882" lon="3.28011">
        <ele>5</ele>
        <time>2024-11-10T13:47:56Z</time>
      </trkpt>
      <trkpt lat="42.28883" lon="3.28009">
        <ele>5</ele>
        <time>2024-11-10T13:47:57Z</time>
      </trkpt>
      <trkpt lat="42.28884" lon="3.28008">
        <ele>5</ele>
        <time>2024-11-10T13:47:58Z</time>
      </trkpt>
      <trkpt lat="42.28884" lon="3.28007">
        <ele>5</ele>
        <time>2024-11-10T13:47:59Z</time>
      </trkpt>
      <trkpt lat="42.28885" lon="3.28006">
        <ele>5</ele>
        <time>2024-11-10T13:48:00Z</time>
      </trkpt>
      <trkpt lat="42.28885" lon="3.28005">
        <ele>5</ele>
        <time>2024-11-10T13:48:01Z</time>
      </trkpt>
      <trkpt lat="42.28886" lon="3.28004">
        <ele>5</ele>
        <time>2024-11-10T13:48:02Z</time>
      </trkpt>
      <trkpt lat="42.28886" lon="3.28004">
        <ele>5</ele>
        <time>2024-11-10T13:48:03Z</time>
      </trkpt>
      <trkpt lat="42.28887" lon="3.28003">
        <ele>5</ele>
        <time>2024-11-10T13:48:04Z</time>
      </trkpt>
      <trkpt lat="42.28887" lon="3.28002">
        <ele>5</ele>
        <time>2024-11-10T13:48:05Z</time>
      </trkpt>
      <trkpt lat="42.28887" lon="3.28001">
        <ele>5</ele>
        <time>2024-11-10T13:48:06Z</time>
      </trkpt>
      <trkpt lat="42.28887" lon="3.28">
        <ele>5</ele>
        <time>2024-11-10T13:48:07Z</time>
      </trkpt>
      <trkpt lat="42.28888" lon="3.27999">
        <ele>5</ele>
        <time>2024-11-10T13:48:08Z</time>
      </trkpt>
      <trkpt lat="42.28887" lon="3.27998">
        <ele>5</ele>
        <time>2024-11-10T13:48:09Z</time>
      </trkpt>
      <trkpt lat="42.28886" lon="3.27998">
        <ele>5</ele>
        <time>2024-11-10T13:48:10Z</time>
      </trkpt>
      <trkpt lat="42.28886" lon="3.27998">
        <ele>5</ele>
        <time>2024-11-10T13:48:11Z</time>
      </trkpt>
      <trkpt lat="42.28886" lon="3.27997">
        <ele>5</ele>
        <time>2024-11-10T13:48:12Z</time>
      </trkpt>
      <trkpt lat="42.28886" lon="3.27997">
        <ele>5</ele>
        <time>2024-11-10T13:48:13Z</time>
      </trkpt>
      <trkpt lat="42.28886" lon="3.27996">
        <ele>5</ele>
        <time>2024-11-10T13:48:14Z</time>
      </trkpt>
      <trkpt lat="42.28886" lon="3.27996">
        <ele>5</ele>
        <time>2024-11-10T13:48:15Z</time>
      </trkpt>
      <trkpt lat="42.28887" lon="3.27996">
        <ele>5</ele>
        <time>2024-11-10T13:48:16Z</time>
      </trkpt>
      <trkpt lat="42.28887" lon="3.27995">
        <ele>5</ele>
        <time>2024-11-10T13:48:17Z</time>
      </trkpt>
      <trkpt lat="42.28887" lon="3.27995">
        <ele>5</ele>
        <time>2024-11-10T13:48:18Z</time>
      </trkpt>
      <trkpt lat="42.28888" lon="3.27995">
        <ele>5</ele>
        <time>2024-11-10T13:48:19Z</time>
      </trkpt>
      <trkpt lat="42.28888" lon="3.27994">
        <ele>5</ele>
        <time>2024-11-10T13:48:20Z</time>
      </trkpt>
      <trkpt lat="42.28888" lon="3.27994">
        <ele>5</ele>
        <time>2024-11-10T13:48:21Z</time>
      </trkpt>
      <trkpt lat="42.28888" lon="3.27994">
        <ele>5</ele>
        <time>2024-11-10T13:48:22Z</time>
      </trkpt>
      <trkpt lat="42.2889" lon="3.27995">
        <ele>5</ele>
        <time>2024-11-10T13:48:23Z</time>
      </trkpt>
      <trkpt lat="42.2889" lon="3.27996">
        <ele>5</ele>
        <time>2024-11-10T13:48:24Z</time>
      </trkpt>
      <trkpt lat="42.2889" lon="3.27997">
        <ele>5</ele>
        <time>2024-11-10T13:48:25Z</time>
      </trkpt>
      <trkpt lat="42.2889" lon="3.27998">
        <ele>5</ele>
        <time>2024-11-10T13:48:26Z</time>
      </trkpt>
      <trkpt lat="42.2889" lon="3.27998">
        <ele>5.1</ele>
        <time>2024-11-10T13:48:27Z</time>
      </trkpt>
      <trkpt lat="42.2889" lon="3.27998">
        <ele>5.1</ele>
        <time>2024-11-10T13:48:28Z</time>
      </trkpt>
      <trkpt lat="42.28889" lon="3.27998">
        <ele>5.1</ele>
        <time>2024-11-10T13:48:29Z</time>
      </trkpt>
      <trkpt lat="42.28889" lon="3.27998">
        <ele>5.1</ele>
        <time>2024-11-10T13:48:30Z</time>
      </trkpt>
      <trkpt lat="42.28889" lon="3.27998">
        <ele>5.1</ele>
        <time>2024-11-10T13:48:31Z</time>
      </trkpt>
      <trkpt lat="42.28889" lon="3.27998">
        <ele>5.1</ele>
        <time>2024-11-10T13:48:32Z</time>
      </trkpt>
      <trkpt lat="42.28889" lon="3.27998">
        <ele>5.1</ele>
        <time>2024-11-10T13:48:33Z</time>
      </trkpt>
      <trkpt lat="42.28889" lon="3.27998">
        <ele>5.1</ele>
        <time>2024-11-10T13:48:34Z</time>
      </trkpt>
      <trkpt lat="42.28889" lon="3.27998">
        <ele>5.1</ele>
        <time>2024-11-10T13:48:35Z</time>
      </trkpt>
      <trkpt lat="42.28889" lon="3.27998">
        <ele>5.1</ele>
        <time>2024-11-10T13:48:36Z</time>
      </trkpt>
      <trkpt lat="42.28889" lon="3.27998">
        <ele>5.1</ele>
        <time>2024-11-10T13:48:37Z</time>
      </trkpt>
      <trkpt lat="42.28889" lon="3.27998">
        <ele>5.1</ele>
        <time>2024-11-10T13:48:38Z</time>
      </trkpt>
      <trkpt lat="42.28889" lon="3.27998">
        <ele>5.1</ele>
        <time>2024-11-10T13:48:39Z</time>
      </trkpt>
      <trkpt lat="42.28889" lon="3.27998">
        <ele>5.1</ele>
        <time>2024-11-10T13:48:40Z</time>
      </trkpt>
      <trkpt lat="42.28889" lon="3.27998">
        <ele>5.1</ele>
        <time>2024-11-10T13:48:41Z</time>
      </trkpt>
      <trkpt lat="42.28889" lon="3.27998">
        <ele>5.1</ele>
        <time>2024-11-10T13:48:42Z</time>
      </trkpt>
      <trkpt lat="42.28889" lon="3.27998">
        <ele>5.1</ele>
        <time>2024-11-10T13:48:43Z</time>
      </trkpt>
      <trkpt lat="42.28889" lon="3.27998">
        <ele>5.1</ele>
        <time>2024-11-10T13:48:44Z</time>
      </trkpt>
      <trkpt lat="42.28889" lon="3.27998">
        <ele>5.1</ele>
        <time>2024-11-10T13:48:45Z</time>
      </trkpt>
      <trkpt lat="42.28889" lon="3.27998">
        <ele>5.1</ele>
        <time>2024-11-10T13:48:46Z</time>
      </trkpt>
      <trkpt lat="42.28889" lon="3.27998">
        <ele>5.1</ele>
        <time>2024-11-10T13:48:47Z</time>
      </trkpt>
      <trkpt lat="42.28889" lon="3.27998">
        <ele>5.1</ele>
        <time>2024-11-10T13:48:48Z</time>
      </trkpt>
      <trkpt lat="42.28889" lon="3.27998">
        <ele>5.1</ele>
        <time>2024-11-10T13:48:49Z</time>
      </trkpt>
      <trkpt lat="42.28889" lon="3.27998">
        <ele>5.1</ele>
        <time>2024-11-10T13:48:50Z</time>
      </trkpt>
      <trkpt lat="42.28889" lon="3.27998">
        <ele>5.1</ele>
        <time>2024-11-10T13:48:51Z</time>
      </trkpt>
      <trkpt lat="42.28889" lon="3.27998">
        <ele>5.1</ele>
        <time>2024-11-10T13:48:52Z</time>
      </trkpt>
      <trkpt lat="42.28889" lon="3.27998">
        <ele>5.1</ele>
        <time>2024-11-10T13:48:53Z</time>
      </trkpt>
      <trkpt lat="42.28889" lon="3.27998">
        <ele>5.1</ele>
        <time>2024-11-10T13:48:54Z</time>
      </trkpt>
      <trkpt lat="42.28889" lon="3.27998">
        <ele>5.1</ele>
        <time>2024-11-10T13:48:55Z</time>
      </trkpt>
      <trkpt lat="42.28889" lon="3.27998">
        <ele>5.1</ele>
        <time>2024-11-10T13:48:56Z</time>
      </trkpt>
      <trkpt lat="42.28889" lon="3.27998">
        <ele>5.1</ele>
        <time>2024-11-10T13:48:57Z</time>
      </trkpt>
      <trkpt lat="42.28889" lon="3.27998">
        <ele>5.1</ele>
        <time>2024-11-10T13:48:58Z</time>
      </trkpt>
      <trkpt lat="42.28889" lon="3.27998">
        <ele>5.1</ele>
        <time>2024-11-10T13:48:59Z</time>
      </trkpt>
      <trkpt lat="42.28889" lon="3.27998">
        <ele>5.1</ele>
        <time>2024-11-10T13:49:00Z</time>
      </trkpt>
      <trkpt lat="42.28889" lon="3.27998">
        <ele>5.1</ele>
        <time>2024-11-10T13:49:01Z</time>
      </trkpt>
      <trkpt lat="42.28889" lon="3.27998">
        <ele>5.1</ele>
        <time>2024-11-10T13:49:02Z</time>
      </trkpt>
      <trkpt lat="42.28889" lon="3.27998">
        <ele>5.1</ele>
        <time>2024-11-10T13:49:03Z</time>
      </trkpt>
      <trkpt lat="42.28889" lon="3.27998">
        <ele>5.1</ele>
        <time>2024-11-10T13:49:04Z</time>
      </trkpt>
      <trkpt lat="42.28889" lon="3.27998">
        <ele>5.1</ele>
        <time>2024-11-10T13:49:05Z</time>
      </trkpt>
      <trkpt lat="42.28889" lon="3.27998">
        <ele>5.1</ele>
        <time>2024-11-10T13:49:06Z</time>
      </trkpt>
      <trkpt lat="42.28889" lon="3.27998">
        <ele>5.1</ele>
        <time>2024-11-10T13:49:07Z</time>
      </trkpt>
      <trkpt lat="42.28889" lon="3.27998">
        <ele>5.1</ele>
        <time>2024-11-10T13:49:08Z</time>
      </trkpt>
      <trkpt lat="42.28889" lon="3.27998">
        <ele>5.1</ele>
        <time>2024-11-10T13:49:09Z</time>
      </trkpt>
      <trkpt lat="42.28889" lon="3.27998">
        <ele>5.1</ele>
        <time>2024-11-10T13:49:10Z</time>
      </trkpt>
      <trkpt lat="42.28889" lon="3.27998">
        <ele>5.1</ele>
        <time>2024-11-10T13:49:11Z</time>
      </trkpt>
      <trkpt lat="42.28889" lon="3.27998">
        <ele>5.1</ele>
        <time>2024-11-10T13:49:12Z</time>
      </trkpt>
      <trkpt lat="42.28889" lon="3.27998">
        <ele>5.1</ele>
        <time>2024-11-10T13:49:13Z</time>
      </trkpt>
      <trkpt lat="42.28889" lon="3.27998">
        <ele>5.1</ele>
        <time>2024-11-10T13:49:14Z</time>
      </trkpt>
      <trkpt lat="42.28889" lon="3.27998">
        <ele>5.1</ele>
        <time>2024-11-10T13:49:15Z</time>
      </trkpt>
      <trkpt lat="42.28889" lon="3.27998">
        <ele>5.1</ele>
        <time>2024-11-10T13:49:16Z</time>
      </trkpt>
      <trkpt lat="42.28889" lon="3.27998">
        <ele>5.1</ele>
        <time>2024-11-10T13:49:17Z</time>
      </trkpt>
      <trkpt lat="42.28889" lon="3.27998">
        <ele>5.1</ele>
        <time>2024-11-10T13:49:18Z</time>
      </trkpt>
      <trkpt lat="42.28889" lon="3.27998">
        <ele>5.1</ele>
        <time>2024-11-10T13:49:19Z</time>
      </trkpt>
      <trkpt lat="42.28889" lon="3.27998">
        <ele>5.1</ele>
        <time>2024-11-10T13:49:20Z</time>
      </trkpt>
      <trkpt lat="42.28889" lon="3.27998">
        <ele>5.1</ele>
        <time>2024-11-10T13:49:21Z</time>
      </trkpt>
      <trkpt lat="42.28889" lon="3.27998">
        <ele>5.1</ele>
        <time>2024-11-10T13:49:22Z</time>
      </trkpt>
      <trkpt lat="42.28889" lon="3.27998">
        <ele>5.1</ele>
        <time>2024-11-10T13:49:23Z</time>
      </trkpt>
      <trkpt lat="42.28889" lon="3.27998">
        <ele>5.1</ele>
        <time>2024-11-10T13:49:24Z</time>
      </trkpt>
      <trkpt lat="42.28889" lon="3.27998">
        <ele>5.1</ele>
        <time>2024-11-10T13:49:25Z</time>
      </trkpt>
      <trkpt lat="42.28889" lon="3.27998">
        <ele>5.1</ele>
        <time>2024-11-10T13:49:26Z</time>
      </trkpt>
      <trkpt lat="42.28889" lon="3.27998">
        <ele>5.1</ele>
        <time>2024-11-10T13:49:27Z</time>
      </trkpt>
      <trkpt lat="42.28889" lon="3.27998">
        <ele>5.1</ele>
        <time>2024-11-10T13:49:28Z</time>
      </trkpt>
      <trkpt lat="42.28889" lon="3.27998">
        <ele>5.1</ele>
        <time>2024-11-10T13:49:29Z</time>
      </trkpt>
      <trkpt lat="42.28889" lon="3.27998">
        <ele>5.1</ele>
        <time>2024-11-10T13:49:30Z</time>
      </trkpt>
      <trkpt lat="42.28889" lon="3.27998">
        <ele>5.1</ele>
        <time>2024-11-10T13:49:31Z</time>
      </trkpt>
      <trkpt lat="42.28889" lon="3.27998">
        <ele>5.1</ele>
        <time>2024-11-10T13:49:32Z</time>
      </trkpt>
      <trkpt lat="42.28889" lon="3.27998">
        <ele>5.1</ele>
        <time>2024-11-10T13:49:33Z</time>
      </trkpt>
      <trkpt lat="42.28889" lon="3.27998">
        <ele>5.1</ele>
        <time>2024-11-10T13:49:34Z</time>
      </trkpt>
      <trkpt lat="42.28889" lon="3.27998">
        <ele>5.1</ele>
        <time>2024-11-10T13:49:35Z</time>
      </trkpt>
      <trkpt lat="42.28889" lon="3.27998">
        <ele>5.1</ele>
        <time>2024-11-10T13:49:36Z</time>
      </trkpt>
      <trkpt lat="42.28889" lon="3.27998">
        <ele>5.1</ele>
        <time>2024-11-10T13:49:37Z</time>
      </trkpt>
      <trkpt lat="42.28889" lon="3.27998">
        <ele>5.1</ele>
        <time>2024-11-10T13:49:38Z</time>
      </trkpt>
      <trkpt lat="42.28889" lon="3.27998">
        <ele>5.1</ele>
        <time>2024-11-10T13:49:39Z</time>
      </trkpt>
      <trkpt lat="42.28889" lon="3.27998">
        <ele>5.1</ele>
        <time>2024-11-10T13:49:40Z</time>
      </trkpt>
      <trkpt lat="42.28889" lon="3.27998">
        <ele>5.1</ele>
        <time>2024-11-10T13:49:41Z</time>
      </trkpt>
      <trkpt lat="42.28889" lon="3.27998">
        <ele>5.1</ele>
        <time>2024-11-10T13:49:42Z</time>
      </trkpt>
      <trkpt lat="42.28889" lon="3.27998">
        <ele>5.1</ele>
        <time>2024-11-10T13:49:43Z</time>
      </trkpt>
      <trkpt lat="42.28889" lon="3.27998">
        <ele>5.1</ele>
        <time>2024-11-10T13:49:44Z</time>
      </trkpt>
      <trkpt lat="42.28889" lon="3.27998">
        <ele>5.1</ele>
        <time>2024-11-10T13:49:45Z</time>
      </trkpt>
      <trkpt lat="42.28889" lon="3.27998">
        <ele>5.1</ele>
        <time>2024-11-10T13:49:46Z</time>
      </trkpt>
      <trkpt lat="42.28889" lon="3.27998">
        <ele>5.1</ele>
        <time>2024-11-10T13:49:47Z</time>
      </trkpt>
      <trkpt lat="42.28889" lon="3.27998">
        <ele>5.1</ele>
        <time>2024-11-10T13:49:48Z</time>
      </trkpt>
      <trkpt lat="42.28889" lon="3.27998">
        <ele>5.1</ele>
        <time>2024-11-10T13:49:49Z</time>
      </trkpt>
      <trkpt lat="42.28889" lon="3.27998">
        <ele>5.1</ele>
        <time>2024-11-10T13:49:50Z</time>
      </trkpt>
      <trkpt lat="42.28889" lon="3.27998">
        <ele>5.1</ele>
        <time>2024-11-10T13:49:51Z</time>
      </trkpt>
      <trkpt lat="42.28889" lon="3.27998">
        <ele>5.1</ele>
        <time>2024-11-10T13:49:52Z</time>
      </trkpt>
      <trkpt lat="42.28889" lon="3.27998">
        <ele>5.1</ele>
        <time>2024-11-10T13:49:53Z</time>
      </trkpt>
      <trkpt lat="42.28889" lon="3.27998">
        <ele>5.1</ele>
        <time>2024-11-10T13:49:54Z</time>
      </trkpt>
      <trkpt lat="42.28889" lon="3.27998">
        <ele>5.1</ele>
        <time>2024-11-10T13:49:55Z</time>
      </trkpt>
      <trkpt lat="42.28889" lon="3.27998">
        <ele>5.1</ele>
        <time>2024-11-10T13:49:56Z</time>
      </trkpt>
      <trkpt lat="42.28889" lon="3.27998">
        <ele>5.1</ele>
        <time>2024-11-10T13:49:57Z</time>
      </trkpt>
      <trkpt lat="42.28889" lon="3.27998">
        <ele>5.1</ele>
        <time>2024-11-10T13:49:58Z</time>
      </trkpt>
      <trkpt lat="42.28889" lon="3.27998">
        <ele>5.1</ele>
        <time>2024-11-10T13:49:59Z</time>
      </trkpt>
      <trkpt lat="42.28889" lon="3.27998">
        <ele>5.1</ele>
        <time>2024-11-10T13:50:00Z</time>
      </trkpt>
      <trkpt lat="42.28889" lon="3.27998">
        <ele>5.1</ele>
        <time>2024-11-10T13:50:01Z</time>
      </trkpt>
      <trkpt lat="42.28889" lon="3.27998">
        <ele>5.1</ele>
        <time>2024-11-10T13:50:02Z</time>
      </trkpt>
      <trkpt lat="42.28889" lon="3.27998">
        <ele>5.1</ele>
        <time>2024-11-10T13:50:03Z</time>
      </trkpt>
      <trkpt lat="42.28889" lon="3.27998">
        <ele>5.1</ele>
        <time>2024-11-10T13:50:04Z</time>
      </trkpt>
      <trkpt lat="42.28889" lon="3.27998">
        <ele>5.1</ele>
        <time>2024-11-10T13:50:05Z</time>
      </trkpt>
      <trkpt lat="42.28889" lon="3.27998">
        <ele>5.1</ele>
        <time>2024-11-10T13:50:06Z</time>
      </trkpt>
      <trkpt lat="42.28889" lon="3.27998">
        <ele>5.1</ele>
        <time>2024-11-10T13:50:07Z</time>
      </trkpt>
      <trkpt lat="42.28889" lon="3.27998">
        <ele>5.1</ele>
        <time>2024-11-10T13:50:08Z</time>
      </trkpt>
      <trkpt lat="42.28889" lon="3.27998">
        <ele>5.1</ele>
        <time>2024-11-10T13:50:09Z</time>
      </trkpt>
      <trkpt lat="42.28889" lon="3.27998">
        <ele>5.1</ele>
        <time>2024-11-10T13:50:10Z</time>
      </trkpt>
      <trkpt lat="42.28889" lon="3.27998">
        <ele>5.1</ele>
        <time>2024-11-10T13:50:11Z</time>
      </trkpt>
      <trkpt lat="42.28889" lon="3.27998">
        <ele>5.1</ele>
        <time>2024-11-10T13:50:12Z</time>
      </trkpt>
      <trkpt lat="42.28889" lon="3.27998">
        <ele>5.1</ele>
        <time>2024-11-10T13:50:13Z</time>
      </trkpt>
      <trkpt lat="42.28889" lon="3.27998">
        <ele>5.1</ele>
        <time>2024-11-10T13:50:14Z</time>
      </trkpt>
      <trkpt lat="42.28889" lon="3.27998">
        <ele>5.1</ele>
        <time>2024-11-10T13:50:15Z</time>
      </trkpt>
      <trkpt lat="42.28889" lon="3.27998">
        <ele>5.1</ele>
        <time>2024-11-10T13:50:16Z</time>
      </trkpt>
      <trkpt lat="42.28889" lon="3.27998">
        <ele>5.1</ele>
        <time>2024-11-10T13:50:17Z</time>
      </trkpt>
      <trkpt lat="42.28889" lon="3.27998">
        <ele>5.1</ele>
        <time>2024-11-10T13:50:18Z</time>
      </trkpt>
      <trkpt lat="42.28889" lon="3.27998">
        <ele>5.1</ele>
        <time>2024-11-10T13:50:19Z</time>
      </trkpt>
      <trkpt lat="42.28889" lon="3.27998">
        <ele>5.1</ele>
        <time>2024-11-10T13:50:20Z</time>
      </trkpt>
      <trkpt lat="42.28889" lon="3.27998">
        <ele>5.1</ele>
        <time>2024-11-10T13:50:21Z</time>
      </trkpt>
      <trkpt lat="42.28889" lon="3.27998">
        <ele>5.1</ele>
        <time>2024-11-10T13:50:22Z</time>
      </trkpt>
      <trkpt lat="42.28889" lon="3.27998">
        <ele>5.1</ele>
        <time>2024-11-10T13:50:23Z</time>
      </trkpt>
      <trkpt lat="42.28889" lon="3.27998">
        <ele>5.1</ele>
        <time>2024-11-10T13:50:24Z</time>
      </trkpt>
      <trkpt lat="42.28889" lon="3.27998">
        <ele>5.1</ele>
        <time>2024-11-10T13:50:25Z</time>
      </trkpt>
      <trkpt lat="42.28889" lon="3.27998">
        <ele>5.1</ele>
        <time>2024-11-10T13:50:26Z</time>
      </trkpt>
      <trkpt lat="42.28889" lon="3.27998">
        <ele>5.1</ele>
        <time>2024-11-10T13:50:27Z</time>
      </trkpt>
      <trkpt lat="42.28889" lon="3.27998">
        <ele>5.1</ele>
        <time>2024-11-10T13:50:28Z</time>
      </trkpt>
      <trkpt lat="42.28889" lon="3.27998">
        <ele>5.1</ele>
        <time>2024-11-10T13:50:29Z</time>
      </trkpt>
      <trkpt lat="42.28889" lon="3.27998">
        <ele>5.1</ele>
        <time>2024-11-10T13:50:30Z</time>
      </trkpt>
      <trkpt lat="42.28889" lon="3.27998">
        <ele>5.1</ele>
        <time>2024-11-10T13:50:31Z</time>
      </trkpt>
      <trkpt lat="42.28889" lon="3.27998">
        <ele>5.1</ele>
        <time>2024-11-10T13:50:32Z</time>
      </trkpt>
      <trkpt lat="42.28889" lon="3.27998">
        <ele>5.1</ele>
        <time>2024-11-10T13:50:33Z</time>
      </trkpt>
      <trkpt lat="42.28889" lon="3.27998">
        <ele>5.1</ele>
        <time>2024-11-10T13:50:34Z</time>
      </trkpt>
      <trkpt lat="42.28889" lon="3.27998">
        <ele>5.1</ele>
        <time>2024-11-10T13:50:35Z</time>
      </trkpt>
      <trkpt lat="42.28889" lon="3.27998">
        <ele>5.1</ele>
        <time>2024-11-10T13:50:36Z</time>
      </trkpt>
      <trkpt lat="42.28889" lon="3.27998">
        <ele>5.1</ele>
        <time>2024-11-10T13:50:37Z</time>
      </trkpt>
      <trkpt lat="42.28889" lon="3.27998">
        <ele>5.1</ele>
        <time>2024-11-10T13:50:38Z</time>
      </trkpt>
      <trkpt lat="42.28889" lon="3.27998">
        <ele>5.1</ele>
        <time>2024-11-10T13:50:39Z</time>
      </trkpt>
      <trkpt lat="42.28889" lon="3.27998">
        <ele>5.1</ele>
        <time>2024-11-10T13:50:40Z</time>
      </trkpt>
      <trkpt lat="42.28889" lon="3.27998">
        <ele>5.1</ele>
        <time>2024-11-10T13:50:41Z</time>
      </trkpt>
      <trkpt lat="42.28889" lon="3.27998">
        <ele>5.1</ele>
        <time>2024-11-10T13:50:42Z</time>
      </trkpt>
      <trkpt lat="42.28889" lon="3.27998">
        <ele>5.1</ele>
        <time>2024-11-10T13:50:43Z</time>
      </trkpt>
      <trkpt lat="42.28889" lon="3.27998">
        <ele>5.1</ele>
        <time>2024-11-10T13:50:44Z</time>
      </trkpt>
      <trkpt lat="42.28889" lon="3.27998">
        <ele>5.1</ele>
        <time>2024-11-10T13:50:45Z</time>
      </trkpt>
      <trkpt lat="42.28889" lon="3.27998">
        <ele>5.1</ele>
        <time>2024-11-10T13:50:46Z</time>
      </trkpt>
      <trkpt lat="42.28889" lon="3.27998">
        <ele>5.1</ele>
        <time>2024-11-10T13:50:47Z</time>
      </trkpt>
      <trkpt lat="42.28889" lon="3.27998">
        <ele>5.1</ele>
        <time>2024-11-10T13:50:48Z</time>
      </trkpt>
      <trkpt lat="42.28889" lon="3.27998">
        <ele>5.1</ele>
        <time>2024-11-10T13:50:49Z</time>
      </trkpt>
      <trkpt lat="42.28889" lon="3.27998">
        <ele>5.1</ele>
        <time>2024-11-10T13:50:50Z</time>
      </trkpt>
      <trkpt lat="42.28889" lon="3.27998">
        <ele>5.1</ele>
        <time>2024-11-10T13:50:51Z</time>
      </trkpt>
      <trkpt lat="42.28889" lon="3.27998">
        <ele>5.1</ele>
        <time>2024-11-10T13:50:52Z</time>
      </trkpt>
      <trkpt lat="42.28889" lon="3.27998">
        <ele>5.1</ele>
        <time>2024-11-10T13:50:53Z</time>
      </trkpt>
      <trkpt lat="42.28889" lon="3.27998">
        <ele>5.1</ele>
        <time>2024-11-10T13:50:54Z</time>
      </trkpt>
      <trkpt lat="42.28889" lon="3.27998">
        <ele>5.1</ele>
        <time>2024-11-10T13:50:55Z</time>
      </trkpt>
      <trkpt lat="42.28889" lon="3.27998">
        <ele>5.1</ele>
        <time>2024-11-10T13:50:56Z</time>
      </trkpt>
      <trkpt lat="42.28889" lon="3.27998">
        <ele>5.1</ele>
        <time>2024-11-10T13:50:57Z</time>
      </trkpt>
      <trkpt lat="42.28889" lon="3.27998">
        <ele>5.1</ele>
        <time>2024-11-10T13:50:58Z</time>
      </trkpt>
      <trkpt lat="42.28889" lon="3.27998">
        <ele>5.1</ele>
        <time>2024-11-10T13:50:59Z</time>
      </trkpt>
      <trkpt lat="42.28889" lon="3.27998">
        <ele>5.1</ele>
        <time>2024-11-10T13:51:00Z</time>
      </trkpt>
      <trkpt lat="42.28889" lon="3.27998">
        <ele>5.1</ele>
        <time>2024-11-10T13:51:01Z</time>
      </trkpt>
      <trkpt lat="42.28889" lon="3.27998">
        <ele>5.1</ele>
        <time>2024-11-10T13:51:02Z</time>
      </trkpt>
      <trkpt lat="42.28889" lon="3.27998">
        <ele>5.1</ele>
        <time>2024-11-10T13:51:03Z</time>
      </trkpt>
      <trkpt lat="42.28889" lon="3.27998">
        <ele>5.1</ele>
        <time>2024-11-10T13:51:04Z</time>
      </trkpt>
      <trkpt lat="42.28889" lon="3.27998">
        <ele>5.1</ele>
        <time>2024-11-10T13:51:05Z</time>
      </trkpt>
      <trkpt lat="42.28889" lon="3.27998">
        <ele>5.1</ele>
        <time>2024-11-10T13:51:06Z</time>
      </trkpt>
      <trkpt lat="42.28889" lon="3.27998">
        <ele>5.1</ele>
        <time>2024-11-10T13:51:07Z</time>
      </trkpt>
      <trkpt lat="42.28889" lon="3.27998">
        <ele>5.1</ele>
        <time>2024-11-10T13:51:08Z</time>
      </trkpt>
      <trkpt lat="42.28889" lon="3.27998">
        <ele>5.1</ele>
        <time>2024-11-10T13:51:09Z</time>
      </trkpt>
      <trkpt lat="42.28889" lon="3.27998">
        <ele>5.1</ele>
        <time>2024-11-10T13:51:10Z</time>
      </trkpt>
      <trkpt lat="42.28889" lon="3.27998">
        <ele>5.1</ele>
        <time>2024-11-10T13:51:11Z</time>
      </trkpt>
      <trkpt lat="42.28889" lon="3.27998">
        <ele>5.1</ele>
        <time>2024-11-10T13:51:12Z</time>
      </trkpt>
      <trkpt lat="42.28889" lon="3.27998">
        <ele>5.1</ele>
        <time>2024-11-10T13:51:13Z</time>
      </trkpt>
      <trkpt lat="42.28889" lon="3.27998">
        <ele>5.1</ele>
        <time>2024-11-10T13:51:14Z</time>
      </trkpt>
      <trkpt lat="42.28889" lon="3.27998">
        <ele>5.1</ele>
        <time>2024-11-10T13:51:15Z</time>
      </trkpt>
      <trkpt lat="42.28889" lon="3.27998">
        <ele>5.1</ele>
        <time>2024-11-10T13:51:16Z</time>
      </trkpt>
      <trkpt lat="42.28889" lon="3.27998">
        <ele>5.1</ele>
        <time>2024-11-10T13:51:17Z</time>
      </trkpt>
      <trkpt lat="42.28889" lon="3.27998">
        <ele>5.1</ele>
        <time>2024-11-10T13:51:18Z</time>
      </trkpt>
      <trkpt lat="42.28889" lon="3.27998">
        <ele>5.1</ele>
        <time>2024-11-10T13:51:19Z</time>
      </trkpt>
      <trkpt lat="42.28889" lon="3.27998">
        <ele>5.1</ele>
        <time>2024-11-10T13:51:20Z</time>
      </trkpt>
      <trkpt lat="42.28889" lon="3.27998">
        <ele>5.1</ele>
        <time>2024-11-10T13:51:21Z</time>
      </trkpt>
      <trkpt lat="42.28889" lon="3.27998">
        <ele>5.1</ele>
        <time>2024-11-10T13:51:22Z</time>
      </trkpt>
      <trkpt lat="42.28889" lon="3.27998">
        <ele>5.1</ele>
        <time>2024-11-10T13:51:23Z</time>
      </trkpt>
      <trkpt lat="42.28889" lon="3.27998">
        <ele>5.1</ele>
        <time>2024-11-10T13:51:24Z</time>
      </trkpt>
      <trkpt lat="42.28889" lon="3.27998">
        <ele>5.1</ele>
        <time>2024-11-10T13:51:25Z</time>
      </trkpt>
      <trkpt lat="42.28889" lon="3.27998">
        <ele>5.1</ele>
        <time>2024-11-10T13:51:26Z</time>
      </trkpt>
      <trkpt lat="42.28889" lon="3.27998">
        <ele>5.1</ele>
        <time>2024-11-10T13:51:27Z</time>
      </trkpt>
      <trkpt lat="42.28889" lon="3.27998">
        <ele>5.1</ele>
        <time>2024-11-10T13:51:28Z</time>
      </trkpt>
      <trkpt lat="42.28889" lon="3.27998">
        <ele>5.1</ele>
        <time>2024-11-10T13:51:29Z</time>
      </trkpt>
      <trkpt lat="42.28889" lon="3.27998">
        <ele>5.1</ele>
        <time>2024-11-10T13:51:30Z</time>
      </trkpt>
      <trkpt lat="42.28889" lon="3.27998">
        <ele>5.1</ele>
        <time>2024-11-10T13:51:31Z</time>
      </trkpt>
      <trkpt lat="42.28889" lon="3.27998">
        <ele>5.1</ele>
        <time>2024-11-10T13:51:32Z</time>
      </trkpt>
      <trkpt lat="42.28889" lon="3.27998">
        <ele>5.1</ele>
        <time>2024-11-10T13:51:33Z</time>
      </trkpt>
      <trkpt lat="42.28889" lon="3.27998">
        <ele>5.1</ele>
        <time>2024-11-10T13:51:34Z</time>
      </trkpt>
      <trkpt lat="42.28889" lon="3.27998">
        <ele>5.1</ele>
        <time>2024-11-10T13:51:35Z</time>
      </trkpt>
      <trkpt lat="42.28889" lon="3.27998">
        <ele>5.1</ele>
        <time>2024-11-10T13:51:36Z</time>
      </trkpt>
      <trkpt lat="42.28889" lon="3.27998">
        <ele>5.1</ele>
        <time>2024-11-10T13:51:37Z</time>
      </trkpt>
      <trkpt lat="42.28889" lon="3.27998">
        <ele>5.1</ele>
        <time>2024-11-10T13:51:38Z</time>
      </trkpt>
      <trkpt lat="42.28889" lon="3.27998">
        <ele>5.1</ele>
        <time>2024-11-10T13:51:39Z</time>
      </trkpt>
      <trkpt lat="42.28889" lon="3.27998">
        <ele>5.1</ele>
        <time>2024-11-10T13:51:40Z</time>
      </trkpt>
      <trkpt lat="42.28889" lon="3.27998">
        <ele>5.1</ele>
        <time>2024-11-10T13:51:41Z</time>
      </trkpt>
      <trkpt lat="42.28889" lon="3.27998">
        <ele>5.1</ele>
        <time>2024-11-10T13:51:42Z</time>
      </trkpt>
      <trkpt lat="42.28889" lon="3.27998">
        <ele>5.1</ele>
        <time>2024-11-10T13:51:43Z</time>
      </trkpt>
      <trkpt lat="42.28889" lon="3.27998">
        <ele>5.1</ele>
        <time>2024-11-10T13:51:44Z</time>
      </trkpt>
      <trkpt lat="42.28889" lon="3.27998">
        <ele>5.1</ele>
        <time>2024-11-10T13:51:45Z</time>
      </trkpt>
      <trkpt lat="42.28888" lon="3.27999">
        <ele>5.1</ele>
        <time>2024-11-10T13:51:46Z</time>
      </trkpt>
      <trkpt lat="42.28888" lon="3.27999">
        <ele>5.1</ele>
        <time>2024-11-10T13:51:47Z</time>
      </trkpt>
      <trkpt lat="42.28887" lon="3.27998">
        <ele>5.1</ele>
        <time>2024-11-10T13:51:48Z</time>
      </trkpt>
      <trkpt lat="42.28887" lon="3.27998">
        <ele>5.1</ele>
        <time>2024-11-10T13:51:49Z</time>
      </trkpt>
      <trkpt lat="42.28887" lon="3.27998">
        <ele>5.1</ele>
        <time>2024-11-10T13:51:50Z</time>
      </trkpt>
      <trkpt lat="42.28887" lon="3.27998">
        <ele>5.1</ele>
        <time>2024-11-10T13:51:51Z</time>
      </trkpt>
      <trkpt lat="42.28887" lon="3.27998">
        <ele>5.1</ele>
        <time>2024-11-10T13:51:52Z</time>
      </trkpt>
      <trkpt lat="42.28887" lon="3.27998">
        <ele>5.1</ele>
        <time>2024-11-10T13:51:53Z</time>
      </trkpt>
      <trkpt lat="42.28887" lon="3.27998">
        <ele>5.1</ele>
        <time>2024-11-10T13:51:54Z</time>
      </trkpt>
      <trkpt lat="42.28887" lon="3.27998">
        <ele>5.1</ele>
        <time>2024-11-10T13:51:55Z</time>
      </trkpt>
      <trkpt lat="42.28887" lon="3.27998">
        <ele>5.1</ele>
        <time>2024-11-10T13:51:56Z</time>
      </trkpt>
      <trkpt lat="42.28887" lon="3.27998">
        <ele>5.1</ele>
        <time>2024-11-10T13:51:57Z</time>
      </trkpt>
      <trkpt lat="42.28887" lon="3.27998">
        <ele>5.1</ele>
        <time>2024-11-10T13:51:58Z</time>
      </trkpt>
      <trkpt lat="42.28887" lon="3.27998">
        <ele>5.1</ele>
        <time>2024-11-10T13:51:59Z</time>
      </trkpt>
      <trkpt lat="42.28887" lon="3.27998">
        <ele>5.1</ele>
        <time>2024-11-10T13:52:00Z</time>
      </trkpt>
      <trkpt lat="42.28887" lon="3.27998">
        <ele>5.1</ele>
        <time>2024-11-10T13:52:01Z</time>
      </trkpt>
      <trkpt lat="42.28887" lon="3.27998">
        <ele>5.1</ele>
        <time>2024-11-10T13:52:02Z</time>
      </trkpt>
      <trkpt lat="42.28887" lon="3.27998">
        <ele>5.1</ele>
        <time>2024-11-10T13:52:03Z</time>
      </trkpt>
      <trkpt lat="42.28887" lon="3.27998">
        <ele>5.1</ele>
        <time>2024-11-10T13:52:04Z</time>
      </trkpt>
      <trkpt lat="42.28887" lon="3.27998">
        <ele>5.1</ele>
        <time>2024-11-10T13:52:05Z</time>
      </trkpt>
      <trkpt lat="42.28887" lon="3.27998">
        <ele>5.1</ele>
        <time>2024-11-10T13:52:06Z</time>
      </trkpt>
      <trkpt lat="42.28887" lon="3.27998">
        <ele>5.1</ele>
        <time>2024-11-10T13:52:07Z</time>
      </trkpt>
      <trkpt lat="42.28887" lon="3.27998">
        <ele>5.1</ele>
        <time>2024-11-10T13:52:08Z</time>
      </trkpt>
      <trkpt lat="42.28887" lon="3.27998">
        <ele>5.1</ele>
        <time>2024-11-10T13:52:09Z</time>
      </trkpt>
      <trkpt lat="42.28887" lon="3.27998">
        <ele>5.1</ele>
        <time>2024-11-10T13:52:10Z</time>
      </trkpt>
      <trkpt lat="42.28887" lon="3.27998">
        <ele>5.1</ele>
        <time>2024-11-10T13:52:11Z</time>
      </trkpt>
      <trkpt lat="42.28887" lon="3.27998">
        <ele>5.1</ele>
        <time>2024-11-10T13:52:12Z</time>
      </trkpt>
      <trkpt lat="42.28887" lon="3.27998">
        <ele>5.1</ele>
        <time>2024-11-10T13:52:13Z</time>
      </trkpt>
      <trkpt lat="42.28887" lon="3.27998">
        <ele>5.1</ele>
        <time>2024-11-10T13:52:14Z</time>
      </trkpt>
      <trkpt lat="42.28887" lon="3.27998">
        <ele>5.1</ele>
        <time>2024-11-10T13:52:15Z</time>
      </trkpt>
      <trkpt lat="42.28887" lon="3.27998">
        <ele>5.1</ele>
        <time>2024-11-10T13:52:16Z</time>
      </trkpt>
      <trkpt lat="42.28887" lon="3.27998">
        <ele>5.1</ele>
        <time>2024-11-10T13:52:17Z</time>
      </trkpt>
      <trkpt lat="42.28887" lon="3.27998">
        <ele>5.1</ele>
        <time>2024-11-10T13:52:18Z</time>
      </trkpt>
      <trkpt lat="42.28887" lon="3.27998">
        <ele>5.1</ele>
        <time>2024-11-10T13:52:19Z</time>
      </trkpt>
      <trkpt lat="42.28887" lon="3.27998">
        <ele>5.1</ele>
        <time>2024-11-10T13:52:20Z</time>
      </trkpt>
      <trkpt lat="42.28887" lon="3.27998">
        <ele>5.1</ele>
        <time>2024-11-10T13:52:21Z</time>
      </trkpt>
      <trkpt lat="42.28887" lon="3.27998">
        <ele>5.1</ele>
        <time>2024-11-10T13:52:22Z</time>
      </trkpt>
      <trkpt lat="42.28887" lon="3.27998">
        <ele>5.1</ele>
        <time>2024-11-10T13:52:23Z</time>
      </trkpt>
      <trkpt lat="42.28887" lon="3.27998">
        <ele>5.1</ele>
        <time>2024-11-10T13:52:24Z</time>
      </trkpt>
      <trkpt lat="42.28887" lon="3.27998">
        <ele>5.1</ele>
        <time>2024-11-10T13:52:25Z</time>
      </trkpt>
      <trkpt lat="42.28887" lon="3.27998">
        <ele>5.1</ele>
        <time>2024-11-10T13:52:26Z</time>
      </trkpt>
      <trkpt lat="42.28887" lon="3.27998">
        <ele>5.1</ele>
        <time>2024-11-10T13:52:27Z</time>
      </trkpt>
      <trkpt lat="42.28887" lon="3.27998">
        <ele>5.1</ele>
        <time>2024-11-10T13:52:28Z</time>
      </trkpt>
      <trkpt lat="42.28887" lon="3.27998">
        <ele>5.1</ele>
        <time>2024-11-10T13:52:29Z</time>
      </trkpt>
      <trkpt lat="42.28887" lon="3.27998">
        <ele>5.1</ele>
        <time>2024-11-10T13:52:30Z</time>
      </trkpt>
      <trkpt lat="42.28887" lon="3.27998">
        <ele>5.1</ele>
        <time>2024-11-10T13:52:31Z</time>
      </trkpt>
      <trkpt lat="42.28887" lon="3.27998">
        <ele>5.1</ele>
        <time>2024-11-10T13:52:32Z</time>
      </trkpt>
      <trkpt lat="42.28887" lon="3.27998">
        <ele>5.1</ele>
        <time>2024-11-10T13:52:33Z</time>
      </trkpt>
      <trkpt lat="42.28887" lon="3.27998">
        <ele>5.1</ele>
        <time>2024-11-10T13:52:34Z</time>
      </trkpt>
      <trkpt lat="42.28887" lon="3.27998">
        <ele>5.1</ele>
        <time>2024-11-10T13:52:35Z</time>
      </trkpt>
      <trkpt lat="42.28887" lon="3.27998">
        <ele>5.1</ele>
        <time>2024-11-10T13:52:36Z</time>
      </trkpt>
      <trkpt lat="42.28887" lon="3.27998">
        <ele>5.1</ele>
        <time>2024-11-10T13:52:37Z</time>
      </trkpt>
      <trkpt lat="42.28887" lon="3.27998">
        <ele>5.1</ele>
        <time>2024-11-10T13:52:38Z</time>
      </trkpt>
      <trkpt lat="42.28887" lon="3.27998">
        <ele>5.1</ele>
        <time>2024-11-10T13:52:39Z</time>
      </trkpt>
      <trkpt lat="42.28887" lon="3.27998">
        <ele>5.1</ele>
        <time>2024-11-10T13:52:40Z</time>
      </trkpt>
      <trkpt lat="42.28887" lon="3.27998">
        <ele>5.1</ele>
        <time>2024-11-10T13:52:41Z</time>
      </trkpt>
      <trkpt lat="42.28887" lon="3.27998">
        <ele>5.1</ele>
        <time>2024-11-10T13:52:42Z</time>
      </trkpt>
      <trkpt lat="42.28887" lon="3.27998">
        <ele>5.1</ele>
        <time>2024-11-10T13:52:43Z</time>
      </trkpt>
      <trkpt lat="42.28887" lon="3.27998">
        <ele>5.1</ele>
        <time>2024-11-10T13:52:44Z</time>
      </trkpt>
      <trkpt lat="42.28887" lon="3.27998">
        <ele>5.1</ele>
        <time>2024-11-10T13:52:45Z</time>
      </trkpt>
      <trkpt lat="42.28887" lon="3.27998">
        <ele>5.1</ele>
        <time>2024-11-10T13:52:46Z</time>
      </trkpt>
      <trkpt lat="42.28887" lon="3.27998">
        <ele>5.1</ele>
        <time>2024-11-10T13:52:47Z</time>
      </trkpt>
      <trkpt lat="42.28887" lon="3.27998">
        <ele>5.1</ele>
        <time>2024-11-10T13:52:48Z</time>
      </trkpt>
      <trkpt lat="42.28887" lon="3.27998">
        <ele>5.1</ele>
        <time>2024-11-10T13:52:49Z</time>
      </trkpt>
      <trkpt lat="42.28887" lon="3.27998">
        <ele>5.1</ele>
        <time>2024-11-10T13:52:50Z</time>
      </trkpt>
      <trkpt lat="42.28887" lon="3.27998">
        <ele>5.1</ele>
        <time>2024-11-10T13:52:51Z</time>
      </trkpt>
      <trkpt lat="42.28887" lon="3.27998">
        <ele>5.1</ele>
        <time>2024-11-10T13:52:52Z</time>
      </trkpt>
      <trkpt lat="42.28887" lon="3.27998">
        <ele>5.1</ele>
        <time>2024-11-10T13:52:53Z</time>
      </trkpt>
      <trkpt lat="42.28887" lon="3.27998">
        <ele>5.1</ele>
        <time>2024-11-10T13:52:54Z</time>
      </trkpt>
      <trkpt lat="42.28887" lon="3.27998">
        <ele>5.1</ele>
        <time>2024-11-10T13:52:55Z</time>
      </trkpt>
      <trkpt lat="42.28887" lon="3.27998">
        <ele>5.1</ele>
        <time>2024-11-10T13:52:56Z</time>
      </trkpt>
      <trkpt lat="42.28887" lon="3.27998">
        <ele>5.1</ele>
        <time>2024-11-10T13:52:57Z</time>
      </trkpt>
      <trkpt lat="42.28887" lon="3.27998">
        <ele>5.1</ele>
        <time>2024-11-10T13:52:58Z</time>
      </trkpt>
      <trkpt lat="42.28887" lon="3.27998">
        <ele>5.1</ele>
        <time>2024-11-10T13:52:59Z</time>
      </trkpt>
      <trkpt lat="42.28887" lon="3.27998">
        <ele>5.1</ele>
        <time>2024-11-10T13:53:00Z</time>
      </trkpt>
      <trkpt lat="42.28887" lon="3.27998">
        <ele>5.1</ele>
        <time>2024-11-10T13:53:01Z</time>
      </trkpt>
      <trkpt lat="42.28887" lon="3.27998">
        <ele>5.1</ele>
        <time>2024-11-10T13:53:02Z</time>
      </trkpt>
      <trkpt lat="42.28887" lon="3.27998">
        <ele>5.1</ele>
        <time>2024-11-10T13:53:03Z</time>
      </trkpt>
      <trkpt lat="42.28887" lon="3.27998">
        <ele>5.1</ele>
        <time>2024-11-10T13:53:04Z</time>
      </trkpt>
      <trkpt lat="42.28887" lon="3.27998">
        <ele>5.1</ele>
        <time>2024-11-10T13:53:05Z</time>
      </trkpt>
      <trkpt lat="42.28887" lon="3.27998">
        <ele>5.1</ele>
        <time>2024-11-10T13:53:06Z</time>
      </trkpt>
      <trkpt lat="42.28887" lon="3.27998">
        <ele>5.1</ele>
        <time>2024-11-10T13:53:07Z</time>
      </trkpt>
      <trkpt lat="42.28887" lon="3.27998">
        <ele>5.1</ele>
        <time>2024-11-10T13:53:08Z</time>
      </trkpt>
      <trkpt lat="42.28887" lon="3.27998">
        <ele>5.1</ele>
        <time>2024-11-10T13:53:09Z</time>
      </trkpt>
      <trkpt lat="42.28887" lon="3.27998">
        <ele>5.1</ele>
        <time>2024-11-10T13:53:10Z</time>
      </trkpt>
      <trkpt lat="42.28887" lon="3.27998">
        <ele>5.1</ele>
        <time>2024-11-10T13:53:11Z</time>
      </trkpt>
      <trkpt lat="42.28887" lon="3.27998">
        <ele>5.1</ele>
        <time>2024-11-10T13:53:12Z</time>
      </trkpt>
      <trkpt lat="42.28887" lon="3.27998">
        <ele>5.1</ele>
        <time>2024-11-10T13:53:13Z</time>
      </trkpt>
      <trkpt lat="42.28887" lon="3.27998">
        <ele>5.1</ele>
        <time>2024-11-10T13:53:14Z</time>
      </trkpt>
      <trkpt lat="42.28887" lon="3.27998">
        <ele>5.1</ele>
        <time>2024-11-10T13:53:15Z</time>
      </trkpt>
      <trkpt lat="42.28887" lon="3.27998">
        <ele>5.1</ele>
        <time>2024-11-10T13:53:16Z</time>
      </trkpt>
      <trkpt lat="42.28887" lon="3.27998">
        <ele>5.1</ele>
        <time>2024-11-10T13:53:17Z</time>
      </trkpt>
      <trkpt lat="42.28887" lon="3.27998">
        <ele>5.1</ele>
        <time>2024-11-10T13:53:18Z</time>
      </trkpt>
      <trkpt lat="42.28887" lon="3.27998">
        <ele>5.1</ele>
        <time>2024-11-10T13:53:19Z</time>
      </trkpt>
      <trkpt lat="42.28887" lon="3.27998">
        <ele>5.1</ele>
        <time>2024-11-10T13:53:20Z</time>
      </trkpt>
      <trkpt lat="42.28887" lon="3.27998">
        <ele>5.1</ele>
        <time>2024-11-10T13:53:21Z</time>
      </trkpt>
      <trkpt lat="42.28887" lon="3.27998">
        <ele>5.1</ele>
        <time>2024-11-10T13:53:22Z</time>
      </trkpt>
      <trkpt lat="42.28887" lon="3.27998">
        <ele>5.1</ele>
        <time>2024-11-10T13:53:23Z</time>
      </trkpt>
      <trkpt lat="42.28887" lon="3.27998">
        <ele>5.1</ele>
        <time>2024-11-10T13:53:24Z</time>
      </trkpt>
      <trkpt lat="42.28887" lon="3.27998">
        <ele>5.1</ele>
        <time>2024-11-10T13:53:25Z</time>
      </trkpt>
      <trkpt lat="42.28887" lon="3.27998">
        <ele>5.1</ele>
        <time>2024-11-10T13:53:26Z</time>
      </trkpt>
      <trkpt lat="42.28887" lon="3.27998">
        <ele>5.1</ele>
        <time>2024-11-10T13:53:27Z</time>
      </trkpt>
      <trkpt lat="42.28887" lon="3.27998">
        <ele>5.1</ele>
        <time>2024-11-10T13:53:28Z</time>
      </trkpt>
      <trkpt lat="42.28887" lon="3.27998">
        <ele>5.1</ele>
        <time>2024-11-10T13:53:29Z</time>
      </trkpt>
      <trkpt lat="42.28887" lon="3.27998">
        <ele>5.1</ele>
        <time>2024-11-10T13:53:30Z</time>
      </trkpt>
      <trkpt lat="42.28887" lon="3.27998">
        <ele>5.1</ele>
        <time>2024-11-10T13:53:31Z</time>
      </trkpt>
      <trkpt lat="42.28887" lon="3.27998">
        <ele>5.1</ele>
        <time>2024-11-10T13:53:32Z</time>
      </trkpt>
      <trkpt lat="42.28887" lon="3.27998">
        <ele>5.1</ele>
        <time>2024-11-10T13:53:33Z</time>
      </trkpt>
      <trkpt lat="42.28887" lon="3.27998">
        <ele>5.1</ele>
        <time>2024-11-10T13:53:34Z</time>
      </trkpt>
      <trkpt lat="42.28887" lon="3.27998">
        <ele>5.1</ele>
        <time>2024-11-10T13:53:35Z</time>
      </trkpt>
      <trkpt lat="42.28887" lon="3.27998">
        <ele>5.1</ele>
        <time>2024-11-10T13:53:36Z</time>
      </trkpt>
      <trkpt lat="42.28887" lon="3.27998">
        <ele>5.1</ele>
        <time>2024-11-10T13:53:37Z</time>
      </trkpt>
      <trkpt lat="42.28887" lon="3.27998">
        <ele>5.1</ele>
        <time>2024-11-10T13:53:38Z</time>
      </trkpt>
      <trkpt lat="42.28887" lon="3.27998">
        <ele>5.1</ele>
        <time>2024-11-10T13:53:39Z</time>
      </trkpt>
      <trkpt lat="42.28887" lon="3.27998">
        <ele>5.1</ele>
        <time>2024-11-10T13:53:40Z</time>
      </trkpt>
      <trkpt lat="42.28887" lon="3.27998">
        <ele>5.1</ele>
        <time>2024-11-10T13:53:41Z</time>
      </trkpt>
      <trkpt lat="42.28887" lon="3.27998">
        <ele>5.1</ele>
        <time>2024-11-10T13:53:42Z</time>
      </trkpt>
      <trkpt lat="42.28887" lon="3.27998">
        <ele>5.1</ele>
        <time>2024-11-10T13:53:43Z</time>
      </trkpt>
      <trkpt lat="42.28887" lon="3.27998">
        <ele>5.1</ele>
        <time>2024-11-10T13:53:44Z</time>
      </trkpt>
      <trkpt lat="42.28887" lon="3.27998">
        <ele>5.1</ele>
        <time>2024-11-10T13:53:45Z</time>
      </trkpt>
      <trkpt lat="42.28887" lon="3.27998">
        <ele>5.1</ele>
        <time>2024-11-10T13:53:46Z</time>
      </trkpt>
      <trkpt lat="42.28887" lon="3.27998">
        <ele>5.1</ele>
        <time>2024-11-10T13:53:47Z</time>
      </trkpt>
      <trkpt lat="42.28887" lon="3.27998">
        <ele>5.1</ele>
        <time>2024-11-10T13:53:48Z</time>
      </trkpt>
      <trkpt lat="42.28887" lon="3.27998">
        <ele>5.1</ele>
        <time>2024-11-10T13:53:49Z</time>
      </trkpt>
      <trkpt lat="42.28887" lon="3.27998">
        <ele>5.1</ele>
        <time>2024-11-10T13:53:50Z</time>
      </trkpt>
      <trkpt lat="42.28887" lon="3.27998">
        <ele>5.1</ele>
        <time>2024-11-10T13:53:51Z</time>
      </trkpt>
      <trkpt lat="42.28887" lon="3.27998">
        <ele>5.1</ele>
        <time>2024-11-10T13:53:52Z</time>
      </trkpt>
      <trkpt lat="42.28887" lon="3.27998">
        <ele>5.1</ele>
        <time>2024-11-10T13:53:53Z</time>
      </trkpt>
      <trkpt lat="42.28887" lon="3.27998">
        <ele>5.1</ele>
        <time>2024-11-10T13:53:54Z</time>
      </trkpt>
      <trkpt lat="42.28887" lon="3.27998">
        <ele>5.1</ele>
        <time>2024-11-10T13:53:55Z</time>
      </trkpt>
      <trkpt lat="42.28887" lon="3.27998">
        <ele>5.1</ele>
        <time>2024-11-10T13:53:56Z</time>
      </trkpt>
      <trkpt lat="42.28887" lon="3.27998">
        <ele>5.1</ele>
        <time>2024-11-10T13:53:57Z</time>
      </trkpt>
      <trkpt lat="42.28887" lon="3.27998">
        <ele>5.1</ele>
        <time>2024-11-10T13:53:58Z</time>
      </trkpt>
      <trkpt lat="42.28887" lon="3.27998">
        <ele>5.1</ele>
        <time>2024-11-10T13:53:59Z</time>
      </trkpt>
      <trkpt lat="42.28887" lon="3.27998">
        <ele>5.1</ele>
        <time>2024-11-10T13:54:00Z</time>
      </trkpt>
      <trkpt lat="42.28887" lon="3.27998">
        <ele>5.1</ele>
        <time>2024-11-10T13:54:01Z</time>
      </trkpt>
      <trkpt lat="42.28887" lon="3.27998">
        <ele>5.1</ele>
        <time>2024-11-10T13:54:02Z</time>
      </trkpt>
      <trkpt lat="42.28887" lon="3.27998">
        <ele>5.1</ele>
        <time>2024-11-10T13:54:03Z</time>
      </trkpt>
      <trkpt lat="42.28887" lon="3.27998">
        <ele>5.1</ele>
        <time>2024-11-10T13:54:04Z</time>
      </trkpt>
      <trkpt lat="42.28887" lon="3.27998">
        <ele>5.1</ele>
        <time>2024-11-10T13:54:05Z</time>
      </trkpt>
      <trkpt lat="42.28887" lon="3.27998">
        <ele>5.1</ele>
        <time>2024-11-10T13:54:06Z</time>
      </trkpt>
      <trkpt lat="42.28887" lon="3.27998">
        <ele>5.1</ele>
        <time>2024-11-10T13:54:07Z</time>
      </trkpt>
      <trkpt lat="42.28887" lon="3.27998">
        <ele>5.1</ele>
        <time>2024-11-10T13:54:08Z</time>
      </trkpt>
      <trkpt lat="42.28887" lon="3.27998">
        <ele>5.1</ele>
        <time>2024-11-10T13:54:09Z</time>
      </trkpt>
      <trkpt lat="42.28887" lon="3.27998">
        <ele>5.1</ele>
        <time>2024-11-10T13:54:10Z</time>
      </trkpt>
      <trkpt lat="42.28887" lon="3.27998">
        <ele>5.1</ele>
        <time>2024-11-10T13:54:11Z</time>
      </trkpt>
      <trkpt lat="42.28887" lon="3.27998">
        <ele>5.1</ele>
        <time>2024-11-10T13:54:12Z</time>
      </trkpt>
      <trkpt lat="42.28887" lon="3.27998">
        <ele>5.1</ele>
        <time>2024-11-10T13:54:13Z</time>
      </trkpt>
      <trkpt lat="42.28887" lon="3.27998">
        <ele>5.1</ele>
        <time>2024-11-10T13:54:14Z</time>
      </trkpt>
      <trkpt lat="42.28886" lon="3.27998">
        <ele>5.1</ele>
        <time>2024-11-10T13:54:15Z</time>
      </trkpt>
      <trkpt lat="42.28887" lon="3.27997">
        <ele>5.1</ele>
        <time>2024-11-10T13:54:16Z</time>
      </trkpt>
      <trkpt lat="42.28888" lon="3.27996">
        <ele>5.1</ele>
        <time>2024-11-10T13:54:17Z</time>
      </trkpt>
      <trkpt lat="42.28889" lon="3.27995">
        <ele>5.1</ele>
        <time>2024-11-10T13:54:18Z</time>
      </trkpt>
      <trkpt lat="42.28891" lon="3.27993">
        <ele>5.1</ele>
        <time>2024-11-10T13:54:19Z</time>
      </trkpt>
      <trkpt lat="42.28892" lon="3.27993">
        <ele>5.1</ele>
        <time>2024-11-10T13:54:20Z</time>
      </trkpt>
      <trkpt lat="42.28892" lon="3.27992">
        <ele>5.1</ele>
        <time>2024-11-10T13:54:21Z</time>
      </trkpt>
      <trkpt lat="42.28893" lon="3.27991">
        <ele>5.1</ele>
        <time>2024-11-10T13:54:22Z</time>
      </trkpt>
      <trkpt lat="42.28893" lon="3.2799">
        <ele>5.1</ele>
        <time>2024-11-10T13:54:23Z</time>
      </trkpt>
      <trkpt lat="42.28893" lon="3.27988">
        <ele>5.1</ele>
        <time>2024-11-10T13:54:24Z</time>
      </trkpt>
      <trkpt lat="42.28894" lon="3.27987">
        <ele>5.1</ele>
        <time>2024-11-10T13:54:25Z</time>
      </trkpt>
      <trkpt lat="42.28894" lon="3.27985">
        <ele>5.1</ele>
        <time>2024-11-10T13:54:26Z</time>
      </trkpt>
      <trkpt lat="42.28894" lon="3.27984">
        <ele>5.1</ele>
        <time>2024-11-10T13:54:27Z</time>
      </trkpt>
      <trkpt lat="42.28894" lon="3.27982">
        <ele>5.1</ele>
        <time>2024-11-10T13:54:28Z</time>
      </trkpt>
      <trkpt lat="42.28895" lon="3.27981">
        <ele>5.1</ele>
        <time>2024-11-10T13:54:29Z</time>
      </trkpt>
      <trkpt lat="42.28894" lon="3.2798">
        <ele>5.1</ele>
        <time>2024-11-10T13:54:30Z</time>
      </trkpt>
      <trkpt lat="42.28894" lon="3.27977">
        <ele>5.1</ele>
        <time>2024-11-10T13:54:31Z</time>
      </trkpt>
      <trkpt lat="42.28894" lon="3.27976">
        <ele>5.1</ele>
        <time>2024-11-10T13:54:32Z</time>
      </trkpt>
      <trkpt lat="42.28895" lon="3.27975">
        <ele>5.1</ele>
        <time>2024-11-10T13:54:33Z</time>
      </trkpt>
      <trkpt lat="42.28895" lon="3.27973">
        <ele>5.1</ele>
        <time>2024-11-10T13:54:34Z</time>
      </trkpt>
      <trkpt lat="42.28896" lon="3.27972">
        <ele>5.1</ele>
        <time>2024-11-10T13:54:35Z</time>
      </trkpt>
      <trkpt lat="42.28896" lon="3.2797">
        <ele>5.1</ele>
        <time>2024-11-10T13:54:36Z</time>
      </trkpt>
      <trkpt lat="42.28896" lon="3.27969">
        <ele>5.1</ele>
        <time>2024-11-10T13:54:37Z</time>
      </trkpt>
      <trkpt lat="42.28897" lon="3.27968">
        <ele>5.1</ele>
        <time>2024-11-10T13:54:38Z</time>
      </trkpt>
      <trkpt lat="42.28897" lon="3.27966">
        <ele>5.1</ele>
        <time>2024-11-10T13:54:39Z</time>
      </trkpt>
      <trkpt lat="42.28897" lon="3.27966">
        <ele>5.1</ele>
        <time>2024-11-10T13:54:40Z</time>
      </trkpt>
      <trkpt lat="42.28897" lon="3.27965">
        <ele>5.1</ele>
        <time>2024-11-10T13:54:41Z</time>
      </trkpt>
      <trkpt lat="42.28898" lon="3.27963">
        <ele>5.1</ele>
        <time>2024-11-10T13:54:42Z</time>
      </trkpt>
      <trkpt lat="42.28898" lon="3.27962">
        <ele>5.1</ele>
        <time>2024-11-10T13:54:43Z</time>
      </trkpt>
      <trkpt lat="42.28898" lon="3.27961">
        <ele>5.1</ele>
        <time>2024-11-10T13:54:44Z</time>
      </trkpt>
      <trkpt lat="42.28898" lon="3.2796">
        <ele>5.1</ele>
        <time>2024-11-10T13:54:45Z</time>
      </trkpt>
      <trkpt lat="42.28898" lon="3.27959">
        <ele>5.1</ele>
        <time>2024-11-10T13:54:46Z</time>
      </trkpt>
      <trkpt lat="42.28898" lon="3.27958">
        <ele>5.2</ele>
        <time>2024-11-10T13:54:47Z</time>
      </trkpt>
      <trkpt lat="42.28898" lon="3.27957">
        <ele>5.2</ele>
        <time>2024-11-10T13:54:48Z</time>
      </trkpt>
      <trkpt lat="42.28898" lon="3.27957">
        <ele>5.2</ele>
        <time>2024-11-10T13:54:49Z</time>
      </trkpt>
      <trkpt lat="42.28898" lon="3.27956">
        <ele>5.2</ele>
        <time>2024-11-10T13:54:50Z</time>
      </trkpt>
      <trkpt lat="42.28898" lon="3.27956">
        <ele>5.2</ele>
        <time>2024-11-10T13:54:51Z</time>
      </trkpt>
      <trkpt lat="42.28898" lon="3.27956">
        <ele>5.2</ele>
        <time>2024-11-10T13:54:52Z</time>
      </trkpt>
      <trkpt lat="42.28898" lon="3.27956">
        <ele>5.2</ele>
        <time>2024-11-10T13:54:53Z</time>
      </trkpt>
      <trkpt lat="42.28898" lon="3.27956">
        <ele>5.2</ele>
        <time>2024-11-10T13:54:54Z</time>
      </trkpt>
      <trkpt lat="42.28898" lon="3.27956">
        <ele>5.2</ele>
        <time>2024-11-10T13:54:55Z</time>
      </trkpt>
      <trkpt lat="42.28898" lon="3.27956">
        <ele>5.2</ele>
        <time>2024-11-10T13:54:56Z</time>
      </trkpt>
      <trkpt lat="42.28898" lon="3.27956">
        <ele>5.2</ele>
        <time>2024-11-10T13:54:57Z</time>
      </trkpt>
      <trkpt lat="42.28898" lon="3.27956">
        <ele>5.2</ele>
        <time>2024-11-10T13:54:58Z</time>
      </trkpt>
      <trkpt lat="42.28898" lon="3.27956">
        <ele>5.2</ele>
        <time>2024-11-10T13:54:59Z</time>
      </trkpt>
      <trkpt lat="42.28898" lon="3.27957">
        <ele>5.2</ele>
        <time>2024-11-10T13:55:00Z</time>
      </trkpt>
      <trkpt lat="42.28898" lon="3.27956">
        <ele>5.2</ele>
        <time>2024-11-10T13:55:01Z</time>
      </trkpt>
      <trkpt lat="42.28898" lon="3.27956">
        <ele>5.2</ele>
        <time>2024-11-10T13:55:02Z</time>
      </trkpt>
      <trkpt lat="42.28898" lon="3.27955">
        <ele>5.2</ele>
        <time>2024-11-10T13:55:03Z</time>
      </trkpt>
      <trkpt lat="42.28898" lon="3.27954">
        <ele>5.2</ele>
        <time>2024-11-10T13:55:04Z</time>
      </trkpt>
      <trkpt lat="42.28898" lon="3.27953">
        <ele>5.2</ele>
        <time>2024-11-10T13:55:05Z</time>
      </trkpt>
      <trkpt lat="42.28898" lon="3.27952">
        <ele>5.2</ele>
        <time>2024-11-10T13:55:06Z</time>
      </trkpt>
      <trkpt lat="42.28898" lon="3.27951">
        <ele>5.2</ele>
        <time>2024-11-10T13:55:07Z</time>
      </trkpt>
      <trkpt lat="42.28898" lon="3.2795">
        <ele>5.3</ele>
        <time>2024-11-10T13:55:08Z</time>
      </trkpt>
      <trkpt lat="42.28898" lon="3.27949">
        <ele>5.3</ele>
        <time>2024-11-10T13:55:09Z</time>
      </trkpt>
      <trkpt lat="42.28898" lon="3.27947">
        <ele>5.3</ele>
        <time>2024-11-10T13:55:10Z</time>
      </trkpt>
      <trkpt lat="42.28899" lon="3.27946">
        <ele>5.3</ele>
        <time>2024-11-10T13:55:11Z</time>
      </trkpt>
      <trkpt lat="42.28899" lon="3.27944">
        <ele>5.3</ele>
        <time>2024-11-10T13:55:12Z</time>
      </trkpt>
      <trkpt lat="42.28899" lon="3.27943">
        <ele>5.3</ele>
        <time>2024-11-10T13:55:13Z</time>
      </trkpt>
      <trkpt lat="42.289" lon="3.27942">
        <ele>5.3</ele>
        <time>2024-11-10T13:55:14Z</time>
      </trkpt>
      <trkpt lat="42.289" lon="3.27941">
        <ele>5.3</ele>
        <time>2024-11-10T13:55:15Z</time>
      </trkpt>
      <trkpt lat="42.289" lon="3.2794">
        <ele>5.3</ele>
        <time>2024-11-10T13:55:16Z</time>
      </trkpt>
      <trkpt lat="42.289" lon="3.27939">
        <ele>5.3</ele>
        <time>2024-11-10T13:55:17Z</time>
      </trkpt>
      <trkpt lat="42.289" lon="3.27937">
        <ele>5.4</ele>
        <time>2024-11-10T13:55:18Z</time>
      </trkpt>
      <trkpt lat="42.289" lon="3.27936">
        <ele>5.4</ele>
        <time>2024-11-10T13:55:19Z</time>
      </trkpt>
      <trkpt lat="42.289" lon="3.27935">
        <ele>5.4</ele>
        <time>2024-11-10T13:55:20Z</time>
      </trkpt>
      <trkpt lat="42.289" lon="3.27934">
        <ele>5.4</ele>
        <time>2024-11-10T13:55:21Z</time>
      </trkpt>
      <trkpt lat="42.28901" lon="3.27932">
        <ele>5.4</ele>
        <time>2024-11-10T13:55:22Z</time>
      </trkpt>
      <trkpt lat="42.28901" lon="3.27931">
        <ele>5.4</ele>
        <time>2024-11-10T13:55:23Z</time>
      </trkpt>
      <trkpt lat="42.28901" lon="3.2793">
        <ele>5.4</ele>
        <time>2024-11-10T13:55:24Z</time>
      </trkpt>
      <trkpt lat="42.28901" lon="3.27929">
        <ele>5.4</ele>
        <time>2024-11-10T13:55:25Z</time>
      </trkpt>
      <trkpt lat="42.28901" lon="3.27928">
        <ele>5.4</ele>
        <time>2024-11-10T13:55:26Z</time>
      </trkpt>
      <trkpt lat="42.289" lon="3.27926">
        <ele>5.4</ele>
        <time>2024-11-10T13:55:27Z</time>
      </trkpt>
      <trkpt lat="42.289" lon="3.27925">
        <ele>5.4</ele>
        <time>2024-11-10T13:55:28Z</time>
      </trkpt>
      <trkpt lat="42.289" lon="3.27924">
        <ele>5.4</ele>
        <time>2024-11-10T13:55:29Z</time>
      </trkpt>
      <trkpt lat="42.289" lon="3.27923">
        <ele>5.4</ele>
        <time>2024-11-10T13:55:30Z</time>
      </trkpt>
      <trkpt lat="42.289" lon="3.27922">
        <ele>5.4</ele>
        <time>2024-11-10T13:55:31Z</time>
      </trkpt>
      <trkpt lat="42.28901" lon="3.2792">
        <ele>5.5</ele>
        <time>2024-11-10T13:55:32Z</time>
      </trkpt>
      <trkpt lat="42.289" lon="3.2792">
        <ele>5.5</ele>
        <time>2024-11-10T13:55:33Z</time>
      </trkpt>
      <trkpt lat="42.289" lon="3.27918">
        <ele>5.5</ele>
        <time>2024-11-10T13:55:34Z</time>
      </trkpt>
      <trkpt lat="42.289" lon="3.27918">
        <ele>5.5</ele>
        <time>2024-11-10T13:55:35Z</time>
      </trkpt>
      <trkpt lat="42.289" lon="3.27916">
        <ele>5.5</ele>
        <time>2024-11-10T13:55:36Z</time>
      </trkpt>
      <trkpt lat="42.289" lon="3.27916">
        <ele>5.5</ele>
        <time>2024-11-10T13:55:37Z</time>
      </trkpt>
      <trkpt lat="42.289" lon="3.27916">
        <ele>5.5</ele>
        <time>2024-11-10T13:55:38Z</time>
      </trkpt>
      <trkpt lat="42.289" lon="3.27917">
        <ele>5.5</ele>
        <time>2024-11-10T13:55:39Z</time>
      </trkpt>
      <trkpt lat="42.289" lon="3.27917">
        <ele>5.5</ele>
        <time>2024-11-10T13:55:40Z</time>
      </trkpt>
      <trkpt lat="42.289" lon="3.27917">
        <ele>5.5</ele>
        <time>2024-11-10T13:55:41Z</time>
      </trkpt>
      <trkpt lat="42.289" lon="3.27917">
        <ele>5.5</ele>
        <time>2024-11-10T13:55:42Z</time>
      </trkpt>
      <trkpt lat="42.28901" lon="3.27917">
        <ele>5.5</ele>
        <time>2024-11-10T13:55:43Z</time>
      </trkpt>
      <trkpt lat="42.289" lon="3.27916">
        <ele>5.5</ele>
        <time>2024-11-10T13:55:44Z</time>
      </trkpt>
      <trkpt lat="42.289" lon="3.27915">
        <ele>5.5</ele>
        <time>2024-11-10T13:55:45Z</time>
      </trkpt>
      <trkpt lat="42.28901" lon="3.27911">
        <ele>5.5</ele>
        <time>2024-11-10T13:55:46Z</time>
      </trkpt>
      <trkpt lat="42.28901" lon="3.2791">
        <ele>5.5</ele>
        <time>2024-11-10T13:55:47Z</time>
      </trkpt>
      <trkpt lat="42.28901" lon="3.27909">
        <ele>5.5</ele>
        <time>2024-11-10T13:55:48Z</time>
      </trkpt>
      <trkpt lat="42.28901" lon="3.27907">
        <ele>5.5</ele>
        <time>2024-11-10T13:55:49Z</time>
      </trkpt>
      <trkpt lat="42.289" lon="3.27906">
        <ele>5.5</ele>
        <time>2024-11-10T13:55:50Z</time>
      </trkpt>
      <trkpt lat="42.289" lon="3.27904">
        <ele>5.5</ele>
        <time>2024-11-10T13:55:51Z</time>
      </trkpt>
      <trkpt lat="42.289" lon="3.27902">
        <ele>5.5</ele>
        <time>2024-11-10T13:55:52Z</time>
      </trkpt>
      <trkpt lat="42.289" lon="3.27901">
        <ele>5.5</ele>
        <time>2024-11-10T13:55:53Z</time>
      </trkpt>
      <trkpt lat="42.289" lon="3.279">
        <ele>5.6</ele>
        <time>2024-11-10T13:55:54Z</time>
      </trkpt>
      <trkpt lat="42.289" lon="3.27899">
        <ele>5.6</ele>
        <time>2024-11-10T13:55:55Z</time>
      </trkpt>
      <trkpt lat="42.28899" lon="3.27897">
        <ele>5.6</ele>
        <time>2024-11-10T13:55:56Z</time>
      </trkpt>
      <trkpt lat="42.28899" lon="3.27896">
        <ele>5.6</ele>
        <time>2024-11-10T13:55:57Z</time>
      </trkpt>
      <trkpt lat="42.28898" lon="3.27895">
        <ele>5.6</ele>
        <time>2024-11-10T13:55:58Z</time>
      </trkpt>
      <trkpt lat="42.28898" lon="3.27894">
        <ele>5.6</ele>
        <time>2024-11-10T13:55:59Z</time>
      </trkpt>
      <trkpt lat="42.28897" lon="3.27892">
        <ele>5.6</ele>
        <time>2024-11-10T13:56:00Z</time>
      </trkpt>
      <trkpt lat="42.28897" lon="3.27891">
        <ele>5.6</ele>
        <time>2024-11-10T13:56:01Z</time>
      </trkpt>
      <trkpt lat="42.28898" lon="3.2789">
        <ele>5.6</ele>
        <time>2024-11-10T13:56:02Z</time>
      </trkpt>
      <trkpt lat="42.28898" lon="3.27889">
        <ele>5.6</ele>
        <time>2024-11-10T13:56:03Z</time>
      </trkpt>
      <trkpt lat="42.28898" lon="3.27888">
        <ele>5.6</ele>
        <time>2024-11-10T13:56:04Z</time>
      </trkpt>
      <trkpt lat="42.28898" lon="3.27887">
        <ele>5.6</ele>
        <time>2024-11-10T13:56:05Z</time>
      </trkpt>
      <trkpt lat="42.28898" lon="3.27885">
        <ele>5.6</ele>
        <time>2024-11-10T13:56:06Z</time>
      </trkpt>
      <trkpt lat="42.28898" lon="3.27884">
        <ele>5.6</ele>
        <time>2024-11-10T13:56:07Z</time>
      </trkpt>
      <trkpt lat="42.28898" lon="3.27882">
        <ele>5.6</ele>
        <time>2024-11-10T13:56:08Z</time>
      </trkpt>
      <trkpt lat="42.28898" lon="3.27881">
        <ele>5.6</ele>
        <time>2024-11-10T13:56:09Z</time>
      </trkpt>
      <trkpt lat="42.28897" lon="3.2788">
        <ele>5.6</ele>
        <time>2024-11-10T13:56:10Z</time>
      </trkpt>
      <trkpt lat="42.28897" lon="3.27879">
        <ele>5.6</ele>
        <time>2024-11-10T13:56:11Z</time>
      </trkpt>
      <trkpt lat="42.28898" lon="3.27878">
        <ele>5.5</ele>
        <time>2024-11-10T13:56:12Z</time>
      </trkpt>
      <trkpt lat="42.28898" lon="3.27876">
        <ele>5.5</ele>
        <time>2024-11-10T13:56:13Z</time>
      </trkpt>
      <trkpt lat="42.28897" lon="3.27875">
        <ele>5.5</ele>
        <time>2024-11-10T13:56:14Z</time>
      </trkpt>
      <trkpt lat="42.28897" lon="3.27874">
        <ele>5.5</ele>
        <time>2024-11-10T13:56:15Z</time>
      </trkpt>
      <trkpt lat="42.28896" lon="3.27873">
        <ele>5.5</ele>
        <time>2024-11-10T13:56:16Z</time>
      </trkpt>
      <trkpt lat="42.28896" lon="3.27871">
        <ele>5.5</ele>
        <time>2024-11-10T13:56:17Z</time>
      </trkpt>
      <trkpt lat="42.28896" lon="3.2787">
        <ele>5.5</ele>
        <time>2024-11-10T13:56:18Z</time>
      </trkpt>
      <trkpt lat="42.28895" lon="3.27869">
        <ele>5.5</ele>
        <time>2024-11-10T13:56:19Z</time>
      </trkpt>
      <trkpt lat="42.28894" lon="3.27868">
        <ele>5.5</ele>
        <time>2024-11-10T13:56:20Z</time>
      </trkpt>
      <trkpt lat="42.28894" lon="3.27866">
        <ele>5.5</ele>
        <time>2024-11-10T13:56:21Z</time>
      </trkpt>
      <trkpt lat="42.28894" lon="3.27865">
        <ele>5.5</ele>
        <time>2024-11-10T13:56:22Z</time>
      </trkpt>
      <trkpt lat="42.28894" lon="3.27864">
        <ele>5.5</ele>
        <time>2024-11-10T13:56:23Z</time>
      </trkpt>
      <trkpt lat="42.28893" lon="3.27862">
        <ele>5.5</ele>
        <time>2024-11-10T13:56:24Z</time>
      </trkpt>
      <trkpt lat="42.28893" lon="3.27861">
        <ele>5.5</ele>
        <time>2024-11-10T13:56:25Z</time>
      </trkpt>
      <trkpt lat="42.28893" lon="3.2786">
        <ele>5.5</ele>
        <time>2024-11-10T13:56:26Z</time>
      </trkpt>
      <trkpt lat="42.28892" lon="3.27859">
        <ele>5.5</ele>
        <time>2024-11-10T13:56:27Z</time>
      </trkpt>
      <trkpt lat="42.28892" lon="3.27857">
        <ele>5.5</ele>
        <time>2024-11-10T13:56:28Z</time>
      </trkpt>
      <trkpt lat="42.28891" lon="3.27856">
        <ele>5.5</ele>
        <time>2024-11-10T13:56:29Z</time>
      </trkpt>
      <trkpt lat="42.28891" lon="3.27854">
        <ele>5.5</ele>
        <time>2024-11-10T13:56:30Z</time>
      </trkpt>
      <trkpt lat="42.28891" lon="3.27854">
        <ele>5.5</ele>
        <time>2024-11-10T13:56:31Z</time>
      </trkpt>
      <trkpt lat="42.2889" lon="3.27853">
        <ele>5.5</ele>
        <time>2024-11-10T13:56:32Z</time>
      </trkpt>
      <trkpt lat="42.28891" lon="3.27852">
        <ele>5.5</ele>
        <time>2024-11-10T13:56:33Z</time>
      </trkpt>
      <trkpt lat="42.2889" lon="3.2785">
        <ele>5.5</ele>
        <time>2024-11-10T13:56:34Z</time>
      </trkpt>
      <trkpt lat="42.2889" lon="3.27849">
        <ele>5.5</ele>
        <time>2024-11-10T13:56:35Z</time>
      </trkpt>
      <trkpt lat="42.2889" lon="3.27848">
        <ele>5.5</ele>
        <time>2024-11-10T13:56:36Z</time>
      </trkpt>
      <trkpt lat="42.28889" lon="3.27846">
        <ele>5.5</ele>
        <time>2024-11-10T13:56:37Z</time>
      </trkpt>
      <trkpt lat="42.28889" lon="3.27844">
        <ele>5.5</ele>
        <time>2024-11-10T13:56:38Z</time>
      </trkpt>
      <trkpt lat="42.28888" lon="3.27843">
        <ele>5.5</ele>
        <time>2024-11-10T13:56:39Z</time>
      </trkpt>
      <trkpt lat="42.28888" lon="3.27842">
        <ele>5.5</ele>
        <time>2024-11-10T13:56:40Z</time>
      </trkpt>
      <trkpt lat="42.28887" lon="3.2784">
        <ele>5.5</ele>
        <time>2024-11-10T13:56:41Z</time>
      </trkpt>
      <trkpt lat="42.28887" lon="3.27839">
        <ele>5.5</ele>
        <time>2024-11-10T13:56:42Z</time>
      </trkpt>
      <trkpt lat="42.28886" lon="3.27838">
        <ele>5.5</ele>
        <time>2024-11-10T13:56:43Z</time>
      </trkpt>
      <trkpt lat="42.28886" lon="3.27837">
        <ele>5.5</ele>
        <time>2024-11-10T13:56:44Z</time>
      </trkpt>
      <trkpt lat="42.28885" lon="3.27836">
        <ele>5.5</ele>
        <time>2024-11-10T13:56:45Z</time>
      </trkpt>
      <trkpt lat="42.28885" lon="3.27835">
        <ele>5.5</ele>
        <time>2024-11-10T13:56:46Z</time>
      </trkpt>
      <trkpt lat="42.28885" lon="3.27834">
        <ele>5.5</ele>
        <time>2024-11-10T13:56:47Z</time>
      </trkpt>
      <trkpt lat="42.28885" lon="3.27833">
        <ele>5.5</ele>
        <time>2024-11-10T13:56:48Z</time>
      </trkpt>
      <trkpt lat="42.28885" lon="3.27832">
        <ele>5.5</ele>
        <time>2024-11-10T13:56:49Z</time>
      </trkpt>
      <trkpt lat="42.28885" lon="3.2783">
        <ele>5.5</ele>
        <time>2024-11-10T13:56:50Z</time>
      </trkpt>
      <trkpt lat="42.28884" lon="3.27829">
        <ele>5.5</ele>
        <time>2024-11-10T13:56:51Z</time>
      </trkpt>
      <trkpt lat="42.28883" lon="3.27829">
        <ele>5.5</ele>
        <time>2024-11-10T13:56:52Z</time>
      </trkpt>
      <trkpt lat="42.28883" lon="3.27827">
        <ele>5.5</ele>
        <time>2024-11-10T13:56:53Z</time>
      </trkpt>
      <trkpt lat="42.28882" lon="3.27826">
        <ele>5.5</ele>
        <time>2024-11-10T13:56:54Z</time>
      </trkpt>
      <trkpt lat="42.28882" lon="3.27824">
        <ele>5.5</ele>
        <time>2024-11-10T13:56:55Z</time>
      </trkpt>
      <trkpt lat="42.28881" lon="3.27821">
        <ele>5.5</ele>
        <time>2024-11-10T13:56:56Z</time>
      </trkpt>
      <trkpt lat="42.28881" lon="3.2782">
        <ele>5.5</ele>
        <time>2024-11-10T13:56:57Z</time>
      </trkpt>
      <trkpt lat="42.28881" lon="3.27819">
        <ele>5.5</ele>
        <time>2024-11-10T13:56:58Z</time>
      </trkpt>
      <trkpt lat="42.2888" lon="3.27818">
        <ele>5.5</ele>
        <time>2024-11-10T13:56:59Z</time>
      </trkpt>
      <trkpt lat="42.28879" lon="3.27817">
        <ele>5.5</ele>
        <time>2024-11-10T13:57:00Z</time>
      </trkpt>
      <trkpt lat="42.28879" lon="3.27816">
        <ele>5.5</ele>
        <time>2024-11-10T13:57:01Z</time>
      </trkpt>
      <trkpt lat="42.28878" lon="3.27815">
        <ele>5.5</ele>
        <time>2024-11-10T13:57:02Z</time>
      </trkpt>
      <trkpt lat="42.28878" lon="3.27814">
        <ele>5.5</ele>
        <time>2024-11-10T13:57:03Z</time>
      </trkpt>
      <trkpt lat="42.28877" lon="3.27814">
        <ele>5.5</ele>
        <time>2024-11-10T13:57:04Z</time>
      </trkpt>
      <trkpt lat="42.28877" lon="3.27812">
        <ele>5.5</ele>
        <time>2024-11-10T13:57:05Z</time>
      </trkpt>
      <trkpt lat="42.28877" lon="3.27811">
        <ele>5.6</ele>
        <time>2024-11-10T13:57:06Z</time>
      </trkpt>
      <trkpt lat="42.28877" lon="3.2781">
        <ele>5.6</ele>
        <time>2024-11-10T13:57:07Z</time>
      </trkpt>
      <trkpt lat="42.28876" lon="3.27808">
        <ele>5.6</ele>
        <time>2024-11-10T13:57:08Z</time>
      </trkpt>
      <trkpt lat="42.28876" lon="3.27807">
        <ele>5.6</ele>
        <time>2024-11-10T13:57:09Z</time>
      </trkpt>
      <trkpt lat="42.28875" lon="3.27806">
        <ele>5.6</ele>
        <time>2024-11-10T13:57:10Z</time>
      </trkpt>
      <trkpt lat="42.28875" lon="3.27805">
        <ele>5.6</ele>
        <time>2024-11-10T13:57:11Z</time>
      </trkpt>
      <trkpt lat="42.28875" lon="3.27804">
        <ele>5.6</ele>
        <time>2024-11-10T13:57:12Z</time>
      </trkpt>
      <trkpt lat="42.28874" lon="3.27802">
        <ele>5.6</ele>
        <time>2024-11-10T13:57:13Z</time>
      </trkpt>
      <trkpt lat="42.28874" lon="3.27801">
        <ele>5.6</ele>
        <time>2024-11-10T13:57:14Z</time>
      </trkpt>
      <trkpt lat="42.28874" lon="3.278">
        <ele>5.6</ele>
        <time>2024-11-10T13:57:15Z</time>
      </trkpt>
      <trkpt lat="42.28874" lon="3.27798">
        <ele>5.6</ele>
        <time>2024-11-10T13:57:16Z</time>
      </trkpt>
      <trkpt lat="42.28873" lon="3.27797">
        <ele>5.6</ele>
        <time>2024-11-10T13:57:17Z</time>
      </trkpt>
      <trkpt lat="42.28873" lon="3.27796">
        <ele>5.7</ele>
        <time>2024-11-10T13:57:18Z</time>
      </trkpt>
      <trkpt lat="42.28873" lon="3.27795">
        <ele>5.7</ele>
        <time>2024-11-10T13:57:19Z</time>
      </trkpt>
      <trkpt lat="42.28872" lon="3.27794">
        <ele>5.7</ele>
        <time>2024-11-10T13:57:20Z</time>
      </trkpt>
      <trkpt lat="42.28871" lon="3.27793">
        <ele>5.7</ele>
        <time>2024-11-10T13:57:21Z</time>
      </trkpt>
      <trkpt lat="42.2887" lon="3.27791">
        <ele>5.7</ele>
        <time>2024-11-10T13:57:22Z</time>
      </trkpt>
      <trkpt lat="42.2887" lon="3.2779">
        <ele>5.7</ele>
        <time>2024-11-10T13:57:23Z</time>
      </trkpt>
      <trkpt lat="42.28869" lon="3.2779">
        <ele>5.8</ele>
        <time>2024-11-10T13:57:24Z</time>
      </trkpt>
      <trkpt lat="42.28868" lon="3.27789">
        <ele>5.8</ele>
        <time>2024-11-10T13:57:25Z</time>
      </trkpt>
      <trkpt lat="42.28868" lon="3.27788">
        <ele>5.8</ele>
        <time>2024-11-10T13:57:26Z</time>
      </trkpt>
      <trkpt lat="42.28867" lon="3.27787">
        <ele>5.8</ele>
        <time>2024-11-10T13:57:27Z</time>
      </trkpt>
      <trkpt lat="42.28866" lon="3.27786">
        <ele>5.8</ele>
        <time>2024-11-10T13:57:28Z</time>
      </trkpt>
      <trkpt lat="42.28866" lon="3.27785">
        <ele>5.8</ele>
        <time>2024-11-10T13:57:29Z</time>
      </trkpt>
      <trkpt lat="42.28865" lon="3.27784">
        <ele>5.9</ele>
        <time>2024-11-10T13:57:30Z</time>
      </trkpt>
      <trkpt lat="42.28865" lon="3.27783">
        <ele>5.9</ele>
        <time>2024-11-10T13:57:31Z</time>
      </trkpt>
      <trkpt lat="42.28864" lon="3.27782">
        <ele>5.9</ele>
        <time>2024-11-10T13:57:32Z</time>
      </trkpt>
      <trkpt lat="42.28863" lon="3.27781">
        <ele>5.9</ele>
        <time>2024-11-10T13:57:33Z</time>
      </trkpt>
      <trkpt lat="42.28863" lon="3.2778">
        <ele>5.9</ele>
        <time>2024-11-10T13:57:34Z</time>
      </trkpt>
      <trkpt lat="42.28862" lon="3.27778">
        <ele>5.9</ele>
        <time>2024-11-10T13:57:35Z</time>
      </trkpt>
      <trkpt lat="42.28861" lon="3.27777">
        <ele>6</ele>
        <time>2024-11-10T13:57:36Z</time>
      </trkpt>
      <trkpt lat="42.2886" lon="3.27776">
        <ele>6</ele>
        <time>2024-11-10T13:57:37Z</time>
      </trkpt>
      <trkpt lat="42.2886" lon="3.27775">
        <ele>6</ele>
        <time>2024-11-10T13:57:38Z</time>
      </trkpt>
      <trkpt lat="42.28859" lon="3.27774">
        <ele>6</ele>
        <time>2024-11-10T13:57:39Z</time>
      </trkpt>
      <trkpt lat="42.28858" lon="3.27772">
        <ele>6</ele>
        <time>2024-11-10T13:57:40Z</time>
      </trkpt>
      <trkpt lat="42.28858" lon="3.27771">
        <ele>6</ele>
        <time>2024-11-10T13:57:41Z</time>
      </trkpt>
      <trkpt lat="42.28857" lon="3.27771">
        <ele>6</ele>
        <time>2024-11-10T13:57:42Z</time>
      </trkpt>
      <trkpt lat="42.28857" lon="3.2777">
        <ele>6</ele>
        <time>2024-11-10T13:57:43Z</time>
      </trkpt>
      <trkpt lat="42.28856" lon="3.27769">
        <ele>6.1</ele>
        <time>2024-11-10T13:57:44Z</time>
      </trkpt>
      <trkpt lat="42.28856" lon="3.27768">
        <ele>6.1</ele>
        <time>2024-11-10T13:57:45Z</time>
      </trkpt>
      <trkpt lat="42.28855" lon="3.27766">
        <ele>6.1</ele>
        <time>2024-11-10T13:57:46Z</time>
      </trkpt>
      <trkpt lat="42.28855" lon="3.27765">
        <ele>6.1</ele>
        <time>2024-11-10T13:57:47Z</time>
      </trkpt>
      <trkpt lat="42.28854" lon="3.27764">
        <ele>6.1</ele>
        <time>2024-11-10T13:57:48Z</time>
      </trkpt>
      <trkpt lat="42.28853" lon="3.27763">
        <ele>6.1</ele>
        <time>2024-11-10T13:57:49Z</time>
      </trkpt>
      <trkpt lat="42.28853" lon="3.27762">
        <ele>6.1</ele>
        <time>2024-11-10T13:57:50Z</time>
      </trkpt>
      <trkpt lat="42.28852" lon="3.27761">
        <ele>6.1</ele>
        <time>2024-11-10T13:57:51Z</time>
      </trkpt>
      <trkpt lat="42.28852" lon="3.2776">
        <ele>6.1</ele>
        <time>2024-11-10T13:57:52Z</time>
      </trkpt>
      <trkpt lat="42.28853" lon="3.27758">
        <ele>6.1</ele>
        <time>2024-11-10T13:57:53Z</time>
      </trkpt>
      <trkpt lat="42.28853" lon="3.27757">
        <ele>6.1</ele>
        <time>2024-11-10T13:57:54Z</time>
      </trkpt>
      <trkpt lat="42.28854" lon="3.27757">
        <ele>6.1</ele>
        <time>2024-11-10T13:57:55Z</time>
      </trkpt>
      <trkpt lat="42.28855" lon="3.27756">
        <ele>6.1</ele>
        <time>2024-11-10T13:57:56Z</time>
      </trkpt>
      <trkpt lat="42.28856" lon="3.27756">
        <ele>6.1</ele>
        <time>2024-11-10T13:57:57Z</time>
      </trkpt>
      <trkpt lat="42.28857" lon="3.27756">
        <ele>6.1</ele>
        <time>2024-11-10T13:57:58Z</time>
      </trkpt>
      <trkpt lat="42.28858" lon="3.27756">
        <ele>6.1</ele>
        <time>2024-11-10T13:57:59Z</time>
      </trkpt>
      <trkpt lat="42.2886" lon="3.27757">
        <ele>6.1</ele>
        <time>2024-11-10T13:58:00Z</time>
      </trkpt>
      <trkpt lat="42.28861" lon="3.27757">
        <ele>6.1</ele>
        <time>2024-11-10T13:58:01Z</time>
      </trkpt>
      <trkpt lat="42.28862" lon="3.27757">
        <ele>6.1</ele>
        <time>2024-11-10T13:58:02Z</time>
      </trkpt>
      <trkpt lat="42.28863" lon="3.27757">
        <ele>6.1</ele>
        <time>2024-11-10T13:58:03Z</time>
      </trkpt>
      <trkpt lat="42.28863" lon="3.27757">
        <ele>6.1</ele>
        <time>2024-11-10T13:58:04Z</time>
      </trkpt>
      <trkpt lat="42.28864" lon="3.27757">
        <ele>6.1</ele>
        <time>2024-11-10T13:58:05Z</time>
      </trkpt>
      <trkpt lat="42.28864" lon="3.27756">
        <ele>6.1</ele>
        <time>2024-11-10T13:58:06Z</time>
      </trkpt>
      <trkpt lat="42.28864" lon="3.27756">
        <ele>6.1</ele>
        <time>2024-11-10T13:58:07Z</time>
      </trkpt>
      <trkpt lat="42.28864" lon="3.27756">
        <ele>6.1</ele>
        <time>2024-11-10T13:58:08Z</time>
      </trkpt>
      <trkpt lat="42.28864" lon="3.27756">
        <ele>6.1</ele>
        <time>2024-11-10T13:58:09Z</time>
      </trkpt>
      <trkpt lat="42.28864" lon="3.27756">
        <ele>6.1</ele>
        <time>2024-11-10T13:58:10Z</time>
      </trkpt>
      <trkpt lat="42.28864" lon="3.27756">
        <ele>6.1</ele>
        <time>2024-11-10T13:58:11Z</time>
      </trkpt>
      <trkpt lat="42.28864" lon="3.27756">
        <ele>6.1</ele>
        <time>2024-11-10T13:58:12Z</time>
      </trkpt>
      <trkpt lat="42.28864" lon="3.27755">
        <ele>6.1</ele>
        <time>2024-11-10T13:58:13Z</time>
      </trkpt>
      <trkpt lat="42.28864" lon="3.27755">
        <ele>6.1</ele>
        <time>2024-11-10T13:58:14Z</time>
      </trkpt>
      <trkpt lat="42.28864" lon="3.27755">
        <ele>6.1</ele>
        <time>2024-11-10T13:58:15Z</time>
      </trkpt>
      <trkpt lat="42.28864" lon="3.27755">
        <ele>6.1</ele>
        <time>2024-11-10T13:58:16Z</time>
      </trkpt>
      <trkpt lat="42.28864" lon="3.27755">
        <ele>6.1</ele>
        <time>2024-11-10T13:58:17Z</time>
      </trkpt>
      <trkpt lat="42.28865" lon="3.27755">
        <ele>6.1</ele>
        <time>2024-11-10T13:58:18Z</time>
      </trkpt>
      <trkpt lat="42.28865" lon="3.27754">
        <ele>6.1</ele>
        <time>2024-11-10T13:58:19Z</time>
      </trkpt>
      <trkpt lat="42.28866" lon="3.27754">
        <ele>6.1</ele>
        <time>2024-11-10T13:58:20Z</time>
      </trkpt>
      <trkpt lat="42.28866" lon="3.27753">
        <ele>6.1</ele>
        <time>2024-11-10T13:58:21Z</time>
      </trkpt>
      <trkpt lat="42.28867" lon="3.27753">
        <ele>6.1</ele>
        <time>2024-11-10T13:58:22Z</time>
      </trkpt>
      <trkpt lat="42.28867" lon="3.27752">
        <ele>6.1</ele>
        <time>2024-11-10T13:58:23Z</time>
      </trkpt>
      <trkpt lat="42.28867" lon="3.27752">
        <ele>6.1</ele>
        <time>2024-11-10T13:58:24Z</time>
      </trkpt>
      <trkpt lat="42.28867" lon="3.27752">
        <ele>6.1</ele>
        <time>2024-11-10T13:58:25Z</time>
      </trkpt>
      <trkpt lat="42.28867" lon="3.27752">
        <ele>6.1</ele>
        <time>2024-11-10T13:58:26Z</time>
      </trkpt>
      <trkpt lat="42.28867" lon="3.27752">
        <ele>6.1</ele>
        <time>2024-11-10T13:58:27Z</time>
      </trkpt>
      <trkpt lat="42.28867" lon="3.27752">
        <ele>6.1</ele>
        <time>2024-11-10T13:58:28Z</time>
      </trkpt>
      <trkpt lat="42.28867" lon="3.27751">
        <ele>6.1</ele>
        <time>2024-11-10T13:58:29Z</time>
      </trkpt>
      <trkpt lat="42.28867" lon="3.27751">
        <ele>6.1</ele>
        <time>2024-11-10T13:58:30Z</time>
      </trkpt>
      <trkpt lat="42.28867" lon="3.27751">
        <ele>6.1</ele>
        <time>2024-11-10T13:58:31Z</time>
      </trkpt>
      <trkpt lat="42.28867" lon="3.27751">
        <ele>6.1</ele>
        <time>2024-11-10T13:58:32Z</time>
      </trkpt>
      <trkpt lat="42.28867" lon="3.27751">
        <ele>6.1</ele>
        <time>2024-11-10T13:58:33Z</time>
      </trkpt>
      <trkpt lat="42.28867" lon="3.27751">
        <ele>6.1</ele>
        <time>2024-11-10T13:58:34Z</time>
      </trkpt>
      <trkpt lat="42.28867" lon="3.2775">
        <ele>6.1</ele>
        <time>2024-11-10T13:58:35Z</time>
      </trkpt>
      <trkpt lat="42.28867" lon="3.2775">
        <ele>6.1</ele>
        <time>2024-11-10T13:58:36Z</time>
      </trkpt>
      <trkpt lat="42.28867" lon="3.2775">
        <ele>6.1</ele>
        <time>2024-11-10T13:58:38Z</time>
      </trkpt>
      <trkpt lat="42.28867" lon="3.27751">
        <ele>6.1</ele>
        <time>2024-11-10T13:58:39Z</time>
      </trkpt>
      <trkpt lat="42.28867" lon="3.27751">
        <ele>6.1</ele>
        <time>2024-11-10T13:58:40Z</time>
      </trkpt>
      <trkpt lat="42.28867" lon="3.27751">
        <ele>6.1</ele>
        <time>2024-11-10T13:58:41Z</time>
      </trkpt>
      <trkpt lat="42.28867" lon="3.27751">
        <ele>6.1</ele>
        <time>2024-11-10T13:58:42Z</time>
      </trkpt>
      <trkpt lat="42.28867" lon="3.27751">
        <ele>6.1</ele>
        <time>2024-11-10T13:58:43Z</time>
      </trkpt>
      <trkpt lat="42.28867" lon="3.27751">
        <ele>6.1</ele>
        <time>2024-11-10T13:58:44Z</time>
      </trkpt>
      <trkpt lat="42.28867" lon="3.27751">
        <ele>6.1</ele>
        <time>2024-11-10T13:58:45Z</time>
      </trkpt>
      <trkpt lat="42.28867" lon="3.27751">
        <ele>6.1</ele>
        <time>2024-11-10T13:58:46Z</time>
      </trkpt>
      <trkpt lat="42.28867" lon="3.27751">
        <ele>6.1</ele>
        <time>2024-11-10T13:58:47Z</time>
      </trkpt>
      <trkpt lat="42.28867" lon="3.27752">
        <ele>6.1</ele>
        <time>2024-11-10T13:58:48Z</time>
      </trkpt>
      <trkpt lat="42.28867" lon="3.27752">
        <ele>6.1</ele>
        <time>2024-11-10T13:58:49Z</time>
      </trkpt>
      <trkpt lat="42.28867" lon="3.27752">
        <ele>6.1</ele>
        <time>2024-11-10T13:58:50Z</time>
      </trkpt>
      <trkpt lat="42.28867" lon="3.27752">
        <ele>6.1</ele>
        <time>2024-11-10T13:58:51Z</time>
      </trkpt>
      <trkpt lat="42.28867" lon="3.27753">
        <ele>6.1</ele>
        <time>2024-11-10T13:58:52Z</time>
      </trkpt>
      <trkpt lat="42.28867" lon="3.27753">
        <ele>6.1</ele>
        <time>2024-11-10T13:58:53Z</time>
      </trkpt>
      <trkpt lat="42.28866" lon="3.27754">
        <ele>6.1</ele>
        <time>2024-11-10T13:58:54Z</time>
      </trkpt>
      <trkpt lat="42.28866" lon="3.27754">
        <ele>6.1</ele>
        <time>2024-11-10T13:58:55Z</time>
      </trkpt>
      <trkpt lat="42.28866" lon="3.27754">
        <ele>6.1</ele>
        <time>2024-11-10T13:58:56Z</time>
      </trkpt>
      <trkpt lat="42.28866" lon="3.27754">
        <ele>6.1</ele>
        <time>2024-11-10T13:58:57Z</time>
      </trkpt>
      <trkpt lat="42.28866" lon="3.27754">
        <ele>6.1</ele>
        <time>2024-11-10T13:58:58Z</time>
      </trkpt>
      <trkpt lat="42.28865" lon="3.27755">
        <ele>6.1</ele>
        <time>2024-11-10T13:58:59Z</time>
      </trkpt>
      <trkpt lat="42.28865" lon="3.27755">
        <ele>6.1</ele>
        <time>2024-11-10T13:59:00Z</time>
      </trkpt>
      <trkpt lat="42.28865" lon="3.27755">
        <ele>6.1</ele>
        <time>2024-11-10T13:59:01Z</time>
      </trkpt>
      <trkpt lat="42.28865" lon="3.27755">
        <ele>6.1</ele>
        <time>2024-11-10T13:59:02Z</time>
      </trkpt>
      <trkpt lat="42.28866" lon="3.27757">
        <ele>6.1</ele>
        <time>2024-11-10T13:59:03Z</time>
      </trkpt>
      <trkpt lat="42.28867" lon="3.27758">
        <ele>6.1</ele>
        <time>2024-11-10T13:59:04Z</time>
      </trkpt>
      <trkpt lat="42.28867" lon="3.27758">
        <ele>6.1</ele>
        <time>2024-11-10T13:59:05Z</time>
      </trkpt>
      <trkpt lat="42.28867" lon="3.27758">
        <ele>6.1</ele>
        <time>2024-11-10T13:59:06Z</time>
      </trkpt>
      <trkpt lat="42.28867" lon="3.27758">
        <ele>6.1</ele>
        <time>2024-11-10T13:59:07Z</time>
      </trkpt>
      <trkpt lat="42.28867" lon="3.27757">
        <ele>6.1</ele>
        <time>2024-11-10T13:59:08Z</time>
      </trkpt>
      <trkpt lat="42.28867" lon="3.27756">
        <ele>6.1</ele>
        <time>2024-11-10T13:59:09Z</time>
      </trkpt>
      <trkpt lat="42.28867" lon="3.27756">
        <ele>6.1</ele>
        <time>2024-11-10T13:59:10Z</time>
      </trkpt>
      <trkpt lat="42.28868" lon="3.27756">
        <ele>6.1</ele>
        <time>2024-11-10T13:59:11Z</time>
      </trkpt>
      <trkpt lat="42.28868" lon="3.27756">
        <ele>6.1</ele>
        <time>2024-11-10T13:59:12Z</time>
      </trkpt>
      <trkpt lat="42.28867" lon="3.27753">
        <ele>6.1</ele>
        <time>2024-11-10T13:59:13Z</time>
      </trkpt>
      <trkpt lat="42.28867" lon="3.27752">
        <ele>6.1</ele>
        <time>2024-11-10T13:59:14Z</time>
      </trkpt>
      <trkpt lat="42.28867" lon="3.27752">
        <ele>6.1</ele>
        <time>2024-11-10T13:59:15Z</time>
      </trkpt>
      <trkpt lat="42.28866" lon="3.27752">
        <ele>6.1</ele>
        <time>2024-11-10T13:59:16Z</time>
      </trkpt>
      <trkpt lat="42.28866" lon="3.27752">
        <ele>6.1</ele>
        <time>2024-11-10T13:59:17Z</time>
      </trkpt>
      <trkpt lat="42.28867" lon="3.27753">
        <ele>6.1</ele>
        <time>2024-11-10T13:59:18Z</time>
      </trkpt>
      <trkpt lat="42.28867" lon="3.27753">
        <ele>6.1</ele>
        <time>2024-11-10T13:59:19Z</time>
      </trkpt>
      <trkpt lat="42.28868" lon="3.27754">
        <ele>6.1</ele>
        <time>2024-11-10T13:59:20Z</time>
      </trkpt>
      <trkpt lat="42.28868" lon="3.27754">
        <ele>6.1</ele>
        <time>2024-11-10T13:59:21Z</time>
      </trkpt>
      <trkpt lat="42.28868" lon="3.27754">
        <ele>6.1</ele>
        <time>2024-11-10T13:59:22Z</time>
      </trkpt>
      <trkpt lat="42.28867" lon="3.27755">
        <ele>6.1</ele>
        <time>2024-11-10T13:59:23Z</time>
      </trkpt>
      <trkpt lat="42.28867" lon="3.27755">
        <ele>6.1</ele>
        <time>2024-11-10T13:59:24Z</time>
      </trkpt>
      <trkpt lat="42.28867" lon="3.27755">
        <ele>6.1</ele>
        <time>2024-11-10T13:59:25Z</time>
      </trkpt>
      <trkpt lat="42.28867" lon="3.27755">
        <ele>6.1</ele>
        <time>2024-11-10T13:59:26Z</time>
      </trkpt>
      <trkpt lat="42.28867" lon="3.27755">
        <ele>6.1</ele>
        <time>2024-11-10T13:59:27Z</time>
      </trkpt>
      <trkpt lat="42.28867" lon="3.27755">
        <ele>6.1</ele>
        <time>2024-11-10T13:59:28Z</time>
      </trkpt>
      <trkpt lat="42.28867" lon="3.27754">
        <ele>6.1</ele>
        <time>2024-11-10T13:59:29Z</time>
      </trkpt>
      <trkpt lat="42.28867" lon="3.27754">
        <ele>6.1</ele>
        <time>2024-11-10T13:59:30Z</time>
      </trkpt>
      <trkpt lat="42.28867" lon="3.27755">
        <ele>6.1</ele>
        <time>2024-11-10T13:59:31Z</time>
      </trkpt>
      <trkpt lat="42.28867" lon="3.27755">
        <ele>6.1</ele>
        <time>2024-11-10T13:59:32Z</time>
      </trkpt>
      <trkpt lat="42.28867" lon="3.27754">
        <ele>6.1</ele>
        <time>2024-11-10T13:59:33Z</time>
      </trkpt>
      <trkpt lat="42.28867" lon="3.27754">
        <ele>6.1</ele>
        <time>2024-11-10T13:59:34Z</time>
      </trkpt>
      <trkpt lat="42.28867" lon="3.27754">
        <ele>6.1</ele>
        <time>2024-11-10T13:59:35Z</time>
      </trkpt>
      <trkpt lat="42.28867" lon="3.27754">
        <ele>6.1</ele>
        <time>2024-11-10T13:59:36Z</time>
      </trkpt>
      <trkpt lat="42.28867" lon="3.27753">
        <ele>6.1</ele>
        <time>2024-11-10T13:59:37Z</time>
      </trkpt>
      <trkpt lat="42.28868" lon="3.27755">
        <ele>6</ele>
        <time>2024-11-10T13:59:38Z</time>
      </trkpt>
      <trkpt lat="42.28868" lon="3.27755">
        <ele>6</ele>
        <time>2024-11-10T13:59:39Z</time>
      </trkpt>
      <trkpt lat="42.28868" lon="3.27756">
        <ele>6</ele>
        <time>2024-11-10T13:59:40Z</time>
      </trkpt>
      <trkpt lat="42.28867" lon="3.27756">
        <ele>6</ele>
        <time>2024-11-10T13:59:41Z</time>
      </trkpt>
      <trkpt lat="42.28867" lon="3.27756">
        <ele>6</ele>
        <time>2024-11-10T13:59:42Z</time>
      </trkpt>
      <trkpt lat="42.28866" lon="3.27755">
        <ele>6</ele>
        <time>2024-11-10T13:59:43Z</time>
      </trkpt>
      <trkpt lat="42.28865" lon="3.27755">
        <ele>6</ele>
        <time>2024-11-10T13:59:44Z</time>
      </trkpt>
      <trkpt lat="42.28865" lon="3.27755">
        <ele>6</ele>
        <time>2024-11-10T13:59:45Z</time>
      </trkpt>
      <trkpt lat="42.28864" lon="3.27755">
        <ele>6</ele>
        <time>2024-11-10T13:59:46Z</time>
      </trkpt>
      <trkpt lat="42.28864" lon="3.27754">
        <ele>6</ele>
        <time>2024-11-10T13:59:47Z</time>
      </trkpt>
      <trkpt lat="42.28863" lon="3.27754">
        <ele>6</ele>
        <time>2024-11-10T13:59:48Z</time>
      </trkpt>
      <trkpt lat="42.28863" lon="3.27754">
        <ele>6</ele>
        <time>2024-11-10T13:59:49Z</time>
      </trkpt>
      <trkpt lat="42.28862" lon="3.27754">
        <ele>6</ele>
        <time>2024-11-10T13:59:50Z</time>
      </trkpt>
      <trkpt lat="42.28862" lon="3.27754">
        <ele>6</ele>
        <time>2024-11-10T13:59:51Z</time>
      </trkpt>
      <trkpt lat="42.28861" lon="3.27754">
        <ele>6</ele>
        <time>2024-11-10T13:59:52Z</time>
      </trkpt>
      <trkpt lat="42.28861" lon="3.27754">
        <ele>6</ele>
        <time>2024-11-10T13:59:53Z</time>
      </trkpt>
      <trkpt lat="42.28861" lon="3.27755">
        <ele>6</ele>
        <time>2024-11-10T13:59:54Z</time>
      </trkpt>
      <trkpt lat="42.28862" lon="3.27757">
        <ele>6</ele>
        <time>2024-11-10T13:59:55Z</time>
      </trkpt>
      <trkpt lat="42.28862" lon="3.27758">
        <ele>6</ele>
        <time>2024-11-10T13:59:56Z</time>
      </trkpt>
      <trkpt lat="42.28862" lon="3.27762">
        <ele>5.9</ele>
        <time>2024-11-10T13:59:57Z</time>
      </trkpt>
      <trkpt lat="42.28862" lon="3.27763">
        <ele>5.9</ele>
        <time>2024-11-10T13:59:58Z</time>
      </trkpt>
      <trkpt lat="42.28862" lon="3.27764">
        <ele>5.9</ele>
        <time>2024-11-10T13:59:59Z</time>
      </trkpt>
      <trkpt lat="42.28863" lon="3.27766">
        <ele>5.9</ele>
        <time>2024-11-10T14:00:00Z</time>
      </trkpt>
      <trkpt lat="42.28863" lon="3.27767">
        <ele>5.9</ele>
        <time>2024-11-10T14:00:01Z</time>
      </trkpt>
      <trkpt lat="42.28863" lon="3.27768">
        <ele>5.9</ele>
        <time>2024-11-10T14:00:02Z</time>
      </trkpt>
      <trkpt lat="42.28864" lon="3.27769">
        <ele>5.9</ele>
        <time>2024-11-10T14:00:03Z</time>
      </trkpt>
      <trkpt lat="42.28864" lon="3.2777">
        <ele>5.9</ele>
        <time>2024-11-10T14:00:04Z</time>
      </trkpt>
      <trkpt lat="42.28865" lon="3.27771">
        <ele>5.9</ele>
        <time>2024-11-10T14:00:05Z</time>
      </trkpt>
      <trkpt lat="42.28865" lon="3.27772">
        <ele>5.9</ele>
        <time>2024-11-10T14:00:06Z</time>
      </trkpt>
      <trkpt lat="42.28866" lon="3.27772">
        <ele>5.9</ele>
        <time>2024-11-10T14:00:07Z</time>
      </trkpt>
      <trkpt lat="42.28866" lon="3.27773">
        <ele>5.8</ele>
        <time>2024-11-10T14:00:08Z</time>
      </trkpt>
      <trkpt lat="42.28866" lon="3.27775">
        <ele>5.8</ele>
        <time>2024-11-10T14:00:09Z</time>
      </trkpt>
      <trkpt lat="42.28867" lon="3.27775">
        <ele>5.8</ele>
        <time>2024-11-10T14:00:10Z</time>
      </trkpt>
      <trkpt lat="42.28867" lon="3.27776">
        <ele>5.8</ele>
        <time>2024-11-10T14:00:11Z</time>
      </trkpt>
      <trkpt lat="42.28868" lon="3.27777">
        <ele>5.8</ele>
        <time>2024-11-10T14:00:12Z</time>
      </trkpt>
      <trkpt lat="42.28869" lon="3.27778">
        <ele>5.8</ele>
        <time>2024-11-10T14:00:13Z</time>
      </trkpt>
      <trkpt lat="42.28869" lon="3.27779">
        <ele>5.8</ele>
        <time>2024-11-10T14:00:14Z</time>
      </trkpt>
      <trkpt lat="42.2887" lon="3.2778">
        <ele>5.8</ele>
        <time>2024-11-10T14:00:15Z</time>
      </trkpt>
      <trkpt lat="42.2887" lon="3.27781">
        <ele>5.8</ele>
        <time>2024-11-10T14:00:16Z</time>
      </trkpt>
      <trkpt lat="42.28871" lon="3.27782">
        <ele>5.8</ele>
        <time>2024-11-10T14:00:17Z</time>
      </trkpt>
      <trkpt lat="42.28871" lon="3.27783">
        <ele>5.8</ele>
        <time>2024-11-10T14:00:18Z</time>
      </trkpt>
      <trkpt lat="42.28872" lon="3.27784">
        <ele>5.7</ele>
        <time>2024-11-10T14:00:19Z</time>
      </trkpt>
      <trkpt lat="42.28872" lon="3.27785">
        <ele>5.7</ele>
        <time>2024-11-10T14:00:20Z</time>
      </trkpt>
      <trkpt lat="42.28873" lon="3.27786">
        <ele>5.7</ele>
        <time>2024-11-10T14:00:21Z</time>
      </trkpt>
      <trkpt lat="42.28874" lon="3.27787">
        <ele>5.7</ele>
        <time>2024-11-10T14:00:22Z</time>
      </trkpt>
      <trkpt lat="42.28874" lon="3.27788">
        <ele>5.7</ele>
        <time>2024-11-10T14:00:23Z</time>
      </trkpt>
      <trkpt lat="42.28875" lon="3.27789">
        <ele>5.7</ele>
        <time>2024-11-10T14:00:24Z</time>
      </trkpt>
      <trkpt lat="42.28875" lon="3.2779">
        <ele>5.7</ele>
        <time>2024-11-10T14:00:25Z</time>
      </trkpt>
      <trkpt lat="42.28876" lon="3.27791">
        <ele>5.7</ele>
        <time>2024-11-10T14:00:26Z</time>
      </trkpt>
      <trkpt lat="42.28876" lon="3.27792">
        <ele>5.7</ele>
        <time>2024-11-10T14:00:27Z</time>
      </trkpt>
      <trkpt lat="42.28877" lon="3.27793">
        <ele>5.7</ele>
        <time>2024-11-10T14:00:28Z</time>
      </trkpt>
      <trkpt lat="42.28878" lon="3.27794">
        <ele>5.7</ele>
        <time>2024-11-10T14:00:29Z</time>
      </trkpt>
      <trkpt lat="42.28878" lon="3.27795">
        <ele>5.6</ele>
        <time>2024-11-10T14:00:30Z</time>
      </trkpt>
      <trkpt lat="42.28879" lon="3.27796">
        <ele>5.6</ele>
        <time>2024-11-10T14:00:31Z</time>
      </trkpt>
      <trkpt lat="42.2888" lon="3.27796">
        <ele>5.6</ele>
        <time>2024-11-10T14:00:32Z</time>
      </trkpt>
      <trkpt lat="42.28881" lon="3.27797">
        <ele>5.6</ele>
        <time>2024-11-10T14:00:33Z</time>
      </trkpt>
      <trkpt lat="42.28882" lon="3.27798">
        <ele>5.6</ele>
        <time>2024-11-10T14:00:34Z</time>
      </trkpt>
      <trkpt lat="42.28882" lon="3.27799">
        <ele>5.6</ele>
        <time>2024-11-10T14:00:35Z</time>
      </trkpt>
      <trkpt lat="42.28883" lon="3.278">
        <ele>5.6</ele>
        <time>2024-11-10T14:00:36Z</time>
      </trkpt>
      <trkpt lat="42.28883" lon="3.27801">
        <ele>5.6</ele>
        <time>2024-11-10T14:00:37Z</time>
      </trkpt>
      <trkpt lat="42.28883" lon="3.27802">
        <ele>5.6</ele>
        <time>2024-11-10T14:00:38Z</time>
      </trkpt>
      <trkpt lat="42.28884" lon="3.27803">
        <ele>5.6</ele>
        <time>2024-11-10T14:00:39Z</time>
      </trkpt>
      <trkpt lat="42.28885" lon="3.27804">
        <ele>5.6</ele>
        <time>2024-11-10T14:00:40Z</time>
      </trkpt>
      <trkpt lat="42.28885" lon="3.27805">
        <ele>5.6</ele>
        <time>2024-11-10T14:00:41Z</time>
      </trkpt>
      <trkpt lat="42.28886" lon="3.27806">
        <ele>5.6</ele>
        <time>2024-11-10T14:00:42Z</time>
      </trkpt>
      <trkpt lat="42.28886" lon="3.27807">
        <ele>5.6</ele>
        <time>2024-11-10T14:00:43Z</time>
      </trkpt>
      <trkpt lat="42.28887" lon="3.27808">
        <ele>5.5</ele>
        <time>2024-11-10T14:00:44Z</time>
      </trkpt>
      <trkpt lat="42.28887" lon="3.27809">
        <ele>5.5</ele>
        <time>2024-11-10T14:00:45Z</time>
      </trkpt>
      <trkpt lat="42.28887" lon="3.2781">
        <ele>5.5</ele>
        <time>2024-11-10T14:00:46Z</time>
      </trkpt>
      <trkpt lat="42.28887" lon="3.27811">
        <ele>5.5</ele>
        <time>2024-11-10T14:00:47Z</time>
      </trkpt>
      <trkpt lat="42.28887" lon="3.27812">
        <ele>5.5</ele>
        <time>2024-11-10T14:00:48Z</time>
      </trkpt>
      <trkpt lat="42.28887" lon="3.27813">
        <ele>5.5</ele>
        <time>2024-11-10T14:00:49Z</time>
      </trkpt>
      <trkpt lat="42.28887" lon="3.27814">
        <ele>5.5</ele>
        <time>2024-11-10T14:00:50Z</time>
      </trkpt>
      <trkpt lat="42.28887" lon="3.27815">
        <ele>5.5</ele>
        <time>2024-11-10T14:00:51Z</time>
      </trkpt>
      <trkpt lat="42.28887" lon="3.27817">
        <ele>5.5</ele>
        <time>2024-11-10T14:00:52Z</time>
      </trkpt>
      <trkpt lat="42.28887" lon="3.27818">
        <ele>5.5</ele>
        <time>2024-11-10T14:00:53Z</time>
      </trkpt>
      <trkpt lat="42.28887" lon="3.27819">
        <ele>5.5</ele>
        <time>2024-11-10T14:00:54Z</time>
      </trkpt>
      <trkpt lat="42.28887" lon="3.2782">
        <ele>5.5</ele>
        <time>2024-11-10T14:00:55Z</time>
      </trkpt>
      <trkpt lat="42.28887" lon="3.27821">
        <ele>5.5</ele>
        <time>2024-11-10T14:00:56Z</time>
      </trkpt>
      <trkpt lat="42.28887" lon="3.27822">
        <ele>5.5</ele>
        <time>2024-11-10T14:00:57Z</time>
      </trkpt>
      <trkpt lat="42.28887" lon="3.27822">
        <ele>5.5</ele>
        <time>2024-11-10T14:00:58Z</time>
      </trkpt>
      <trkpt lat="42.28887" lon="3.27823">
        <ele>5.5</ele>
        <time>2024-11-10T14:00:59Z</time>
      </trkpt>
      <trkpt lat="42.28888" lon="3.27824">
        <ele>5.5</ele>
        <time>2024-11-10T14:01:00Z</time>
      </trkpt>
      <trkpt lat="42.28888" lon="3.27825">
        <ele>5.5</ele>
        <time>2024-11-10T14:01:01Z</time>
      </trkpt>
      <trkpt lat="42.28888" lon="3.27826">
        <ele>5.5</ele>
        <time>2024-11-10T14:01:02Z</time>
      </trkpt>
      <trkpt lat="42.28888" lon="3.27827">
        <ele>5.5</ele>
        <time>2024-11-10T14:01:03Z</time>
      </trkpt>
      <trkpt lat="42.28888" lon="3.27828">
        <ele>5.5</ele>
        <time>2024-11-10T14:01:04Z</time>
      </trkpt>
      <trkpt lat="42.28888" lon="3.27829">
        <ele>5.5</ele>
        <time>2024-11-10T14:01:05Z</time>
      </trkpt>
      <trkpt lat="42.28889" lon="3.27831">
        <ele>5.5</ele>
        <time>2024-11-10T14:01:06Z</time>
      </trkpt>
      <trkpt lat="42.28889" lon="3.27832">
        <ele>5.5</ele>
        <time>2024-11-10T14:01:07Z</time>
      </trkpt>
      <trkpt lat="42.28889" lon="3.27833">
        <ele>5.5</ele>
        <time>2024-11-10T14:01:08Z</time>
      </trkpt>
      <trkpt lat="42.2889" lon="3.27834">
        <ele>5.5</ele>
        <time>2024-11-10T14:01:09Z</time>
      </trkpt>
      <trkpt lat="42.2889" lon="3.27836">
        <ele>5.5</ele>
        <time>2024-11-10T14:01:10Z</time>
      </trkpt>
      <trkpt lat="42.28891" lon="3.27837">
        <ele>5.5</ele>
        <time>2024-11-10T14:01:11Z</time>
      </trkpt>
      <trkpt lat="42.28891" lon="3.27838">
        <ele>5.5</ele>
        <time>2024-11-10T14:01:12Z</time>
      </trkpt>
      <trkpt lat="42.28891" lon="3.27839">
        <ele>5.5</ele>
        <time>2024-11-10T14:01:13Z</time>
      </trkpt>
      <trkpt lat="42.28891" lon="3.2784">
        <ele>5.5</ele>
        <time>2024-11-10T14:01:14Z</time>
      </trkpt>
      <trkpt lat="42.28891" lon="3.27841">
        <ele>5.5</ele>
        <time>2024-11-10T14:01:15Z</time>
      </trkpt>
      <trkpt lat="42.28891" lon="3.27842">
        <ele>5.5</ele>
        <time>2024-11-10T14:01:16Z</time>
      </trkpt>
      <trkpt lat="42.28892" lon="3.27843">
        <ele>5.5</ele>
        <time>2024-11-10T14:01:17Z</time>
      </trkpt>
      <trkpt lat="42.28892" lon="3.27844">
        <ele>5.5</ele>
        <time>2024-11-10T14:01:18Z</time>
      </trkpt>
      <trkpt lat="42.28892" lon="3.27845">
        <ele>5.5</ele>
        <time>2024-11-10T14:01:19Z</time>
      </trkpt>
      <trkpt lat="42.28892" lon="3.27846">
        <ele>5.5</ele>
        <time>2024-11-10T14:01:20Z</time>
      </trkpt>
      <trkpt lat="42.28893" lon="3.27848">
        <ele>5.5</ele>
        <time>2024-11-10T14:01:21Z</time>
      </trkpt>
      <trkpt lat="42.28893" lon="3.27849">
        <ele>5.5</ele>
        <time>2024-11-10T14:01:22Z</time>
      </trkpt>
      <trkpt lat="42.28894" lon="3.2785">
        <ele>5.5</ele>
        <time>2024-11-10T14:01:23Z</time>
      </trkpt>
      <trkpt lat="42.28894" lon="3.27851">
        <ele>5.5</ele>
        <time>2024-11-10T14:01:24Z</time>
      </trkpt>
      <trkpt lat="42.28895" lon="3.27852">
        <ele>5.5</ele>
        <time>2024-11-10T14:01:25Z</time>
      </trkpt>
      <trkpt lat="42.28895" lon="3.27853">
        <ele>5.5</ele>
        <time>2024-11-10T14:01:26Z</time>
      </trkpt>
      <trkpt lat="42.28896" lon="3.27854">
        <ele>5.5</ele>
        <time>2024-11-10T14:01:27Z</time>
      </trkpt>
      <trkpt lat="42.28896" lon="3.27855">
        <ele>5.5</ele>
        <time>2024-11-10T14:01:28Z</time>
      </trkpt>
      <trkpt lat="42.28896" lon="3.27856">
        <ele>5.5</ele>
        <time>2024-11-10T14:01:29Z</time>
      </trkpt>
      <trkpt lat="42.28897" lon="3.27857">
        <ele>5.5</ele>
        <time>2024-11-10T14:01:30Z</time>
      </trkpt>
      <trkpt lat="42.28897" lon="3.27858">
        <ele>5.5</ele>
        <time>2024-11-10T14:01:31Z</time>
      </trkpt>
      <trkpt lat="42.28897" lon="3.27859">
        <ele>5.5</ele>
        <time>2024-11-10T14:01:32Z</time>
      </trkpt>
      <trkpt lat="42.28898" lon="3.2786">
        <ele>5.5</ele>
        <time>2024-11-10T14:01:33Z</time>
      </trkpt>
      <trkpt lat="42.28898" lon="3.27862">
        <ele>5.5</ele>
        <time>2024-11-10T14:01:34Z</time>
      </trkpt>
      <trkpt lat="42.28898" lon="3.27863">
        <ele>5.5</ele>
        <time>2024-11-10T14:01:35Z</time>
      </trkpt>
      <trkpt lat="42.28898" lon="3.27864">
        <ele>5.5</ele>
        <time>2024-11-10T14:01:36Z</time>
      </trkpt>
      <trkpt lat="42.28899" lon="3.27865">
        <ele>5.5</ele>
        <time>2024-11-10T14:01:37Z</time>
      </trkpt>
      <trkpt lat="42.28899" lon="3.27866">
        <ele>5.5</ele>
        <time>2024-11-10T14:01:38Z</time>
      </trkpt>
      <trkpt lat="42.28899" lon="3.27868">
        <ele>5.5</ele>
        <time>2024-11-10T14:01:39Z</time>
      </trkpt>
      <trkpt lat="42.28899" lon="3.27869">
        <ele>5.5</ele>
        <time>2024-11-10T14:01:40Z</time>
      </trkpt>
      <trkpt lat="42.28899" lon="3.2787">
        <ele>5.5</ele>
        <time>2024-11-10T14:01:41Z</time>
      </trkpt>
      <trkpt lat="42.289" lon="3.27871">
        <ele>5.5</ele>
        <time>2024-11-10T14:01:42Z</time>
      </trkpt>
      <trkpt lat="42.289" lon="3.27872">
        <ele>5.5</ele>
        <time>2024-11-10T14:01:43Z</time>
      </trkpt>
      <trkpt lat="42.289" lon="3.27873">
        <ele>5.5</ele>
        <time>2024-11-10T14:01:44Z</time>
      </trkpt>
      <trkpt lat="42.289" lon="3.27874">
        <ele>5.5</ele>
        <time>2024-11-10T14:01:45Z</time>
      </trkpt>
      <trkpt lat="42.28901" lon="3.27875">
        <ele>5.5</ele>
        <time>2024-11-10T14:01:46Z</time>
      </trkpt>
      <trkpt lat="42.28901" lon="3.27874">
        <ele>5.5</ele>
        <time>2024-11-10T14:01:47Z</time>
      </trkpt>
      <trkpt lat="42.28901" lon="3.27875">
        <ele>5.5</ele>
        <time>2024-11-10T14:01:48Z</time>
      </trkpt>
      <trkpt lat="42.28901" lon="3.27876">
        <ele>5.5</ele>
        <time>2024-11-10T14:01:49Z</time>
      </trkpt>
      <trkpt lat="42.28901" lon="3.27878">
        <ele>5.5</ele>
        <time>2024-11-10T14:01:50Z</time>
      </trkpt>
      <trkpt lat="42.28902" lon="3.27879">
        <ele>5.5</ele>
        <time>2024-11-10T14:01:51Z</time>
      </trkpt>
      <trkpt lat="42.28902" lon="3.2788">
        <ele>5.5</ele>
        <time>2024-11-10T14:01:52Z</time>
      </trkpt>
      <trkpt lat="42.28902" lon="3.27882">
        <ele>5.5</ele>
        <time>2024-11-10T14:01:53Z</time>
      </trkpt>
      <trkpt lat="42.28902" lon="3.27884">
        <ele>5.5</ele>
        <time>2024-11-10T14:01:54Z</time>
      </trkpt>
      <trkpt lat="42.28902" lon="3.27885">
        <ele>5.5</ele>
        <time>2024-11-10T14:01:55Z</time>
      </trkpt>
      <trkpt lat="42.28903" lon="3.27886">
        <ele>5.5</ele>
        <time>2024-11-10T14:01:56Z</time>
      </trkpt>
      <trkpt lat="42.28903" lon="3.27887">
        <ele>5.5</ele>
        <time>2024-11-10T14:01:57Z</time>
      </trkpt>
      <trkpt lat="42.28904" lon="3.27888">
        <ele>5.5</ele>
        <time>2024-11-10T14:01:58Z</time>
      </trkpt>
      <trkpt lat="42.28904" lon="3.27889">
        <ele>5.5</ele>
        <time>2024-11-10T14:01:59Z</time>
      </trkpt>
      <trkpt lat="42.28905" lon="3.2789">
        <ele>5.6</ele>
        <time>2024-11-10T14:02:00Z</time>
      </trkpt>
      <trkpt lat="42.28905" lon="3.27891">
        <ele>5.6</ele>
        <time>2024-11-10T14:02:01Z</time>
      </trkpt>
      <trkpt lat="42.28906" lon="3.27893">
        <ele>5.6</ele>
        <time>2024-11-10T14:02:02Z</time>
      </trkpt>
      <trkpt lat="42.28906" lon="3.27894">
        <ele>5.6</ele>
        <time>2024-11-10T14:02:03Z</time>
      </trkpt>
      <trkpt lat="42.28906" lon="3.27895">
        <ele>5.6</ele>
        <time>2024-11-10T14:02:04Z</time>
      </trkpt>
      <trkpt lat="42.28906" lon="3.27896">
        <ele>5.6</ele>
        <time>2024-11-10T14:02:05Z</time>
      </trkpt>
      <trkpt lat="42.28906" lon="3.27897">
        <ele>5.6</ele>
        <time>2024-11-10T14:02:06Z</time>
      </trkpt>
      <trkpt lat="42.28907" lon="3.27899">
        <ele>5.6</ele>
        <time>2024-11-10T14:02:07Z</time>
      </trkpt>
      <trkpt lat="42.28906" lon="3.279">
        <ele>5.6</ele>
        <time>2024-11-10T14:02:08Z</time>
      </trkpt>
      <trkpt lat="42.28906" lon="3.27901">
        <ele>5.6</ele>
        <time>2024-11-10T14:02:09Z</time>
      </trkpt>
      <trkpt lat="42.28907" lon="3.27903">
        <ele>5.6</ele>
        <time>2024-11-10T14:02:10Z</time>
      </trkpt>
      <trkpt lat="42.28907" lon="3.27904">
        <ele>5.6</ele>
        <time>2024-11-10T14:02:11Z</time>
      </trkpt>
      <trkpt lat="42.28907" lon="3.27905">
        <ele>5.6</ele>
        <time>2024-11-10T14:02:12Z</time>
      </trkpt>
      <trkpt lat="42.28907" lon="3.27906">
        <ele>5.6</ele>
        <time>2024-11-10T14:02:13Z</time>
      </trkpt>
      <trkpt lat="42.28906" lon="3.27908">
        <ele>5.6</ele>
        <time>2024-11-10T14:02:14Z</time>
      </trkpt>
      <trkpt lat="42.28906" lon="3.27909">
        <ele>5.6</ele>
        <time>2024-11-10T14:02:15Z</time>
      </trkpt>
      <trkpt lat="42.28907" lon="3.2791">
        <ele>5.6</ele>
        <time>2024-11-10T14:02:16Z</time>
      </trkpt>
      <trkpt lat="42.28907" lon="3.27913">
        <ele>5.6</ele>
        <time>2024-11-10T14:02:17Z</time>
      </trkpt>
      <trkpt lat="42.28907" lon="3.27915">
        <ele>5.6</ele>
        <time>2024-11-10T14:02:18Z</time>
      </trkpt>
      <trkpt lat="42.28907" lon="3.27916">
        <ele>5.6</ele>
        <time>2024-11-10T14:02:19Z</time>
      </trkpt>
      <trkpt lat="42.28907" lon="3.27917">
        <ele>5.5</ele>
        <time>2024-11-10T14:02:20Z</time>
      </trkpt>
      <trkpt lat="42.28907" lon="3.27919">
        <ele>5.5</ele>
        <time>2024-11-10T14:02:21Z</time>
      </trkpt>
      <trkpt lat="42.28907" lon="3.27919">
        <ele>5.5</ele>
        <time>2024-11-10T14:02:22Z</time>
      </trkpt>
      <trkpt lat="42.28907" lon="3.2792">
        <ele>5.5</ele>
        <time>2024-11-10T14:02:23Z</time>
      </trkpt>
      <trkpt lat="42.28906" lon="3.27922">
        <ele>5.5</ele>
        <time>2024-11-10T14:02:24Z</time>
      </trkpt>
      <trkpt lat="42.28906" lon="3.27923">
        <ele>5.5</ele>
        <time>2024-11-10T14:02:25Z</time>
      </trkpt>
      <trkpt lat="42.28906" lon="3.27924">
        <ele>5.5</ele>
        <time>2024-11-10T14:02:26Z</time>
      </trkpt>
      <trkpt lat="42.28906" lon="3.27925">
        <ele>5.5</ele>
        <time>2024-11-10T14:02:27Z</time>
      </trkpt>
      <trkpt lat="42.28906" lon="3.27926">
        <ele>5.5</ele>
        <time>2024-11-10T14:02:28Z</time>
      </trkpt>
      <trkpt lat="42.28906" lon="3.27928">
        <ele>5.5</ele>
        <time>2024-11-10T14:02:29Z</time>
      </trkpt>
      <trkpt lat="42.28906" lon="3.27929">
        <ele>5.5</ele>
        <time>2024-11-10T14:02:30Z</time>
      </trkpt>
      <trkpt lat="42.28906" lon="3.2793">
        <ele>5.5</ele>
        <time>2024-11-10T14:02:31Z</time>
      </trkpt>
      <trkpt lat="42.28906" lon="3.27931">
        <ele>5.5</ele>
        <time>2024-11-10T14:02:32Z</time>
      </trkpt>
      <trkpt lat="42.28906" lon="3.27932">
        <ele>5.5</ele>
        <time>2024-11-10T14:02:33Z</time>
      </trkpt>
      <trkpt lat="42.28906" lon="3.27934">
        <ele>5.5</ele>
        <time>2024-11-10T14:02:34Z</time>
      </trkpt>
      <trkpt lat="42.28906" lon="3.27935">
        <ele>5.5</ele>
        <time>2024-11-10T14:02:35Z</time>
      </trkpt>
      <trkpt lat="42.28906" lon="3.27936">
        <ele>5.5</ele>
        <time>2024-11-10T14:02:36Z</time>
      </trkpt>
      <trkpt lat="42.28906" lon="3.27937">
        <ele>5.5</ele>
        <time>2024-11-10T14:02:37Z</time>
      </trkpt>
      <trkpt lat="42.28907" lon="3.27938">
        <ele>5.5</ele>
        <time>2024-11-10T14:02:38Z</time>
      </trkpt>
      <trkpt lat="42.28906" lon="3.27939">
        <ele>5.5</ele>
        <time>2024-11-10T14:02:39Z</time>
      </trkpt>
      <trkpt lat="42.28906" lon="3.2794">
        <ele>5.5</ele>
        <time>2024-11-10T14:02:40Z</time>
      </trkpt>
      <trkpt lat="42.28907" lon="3.27941">
        <ele>5.5</ele>
        <time>2024-11-10T14:02:41Z</time>
      </trkpt>
      <trkpt lat="42.28907" lon="3.27941">
        <ele>5.5</ele>
        <time>2024-11-10T14:02:42Z</time>
      </trkpt>
      <trkpt lat="42.28907" lon="3.27942">
        <ele>5.5</ele>
        <time>2024-11-10T14:02:43Z</time>
      </trkpt>
      <trkpt lat="42.28907" lon="3.27941">
        <ele>5.5</ele>
        <time>2024-11-10T14:02:44Z</time>
      </trkpt>
      <trkpt lat="42.28907" lon="3.27941">
        <ele>5.5</ele>
        <time>2024-11-10T14:02:45Z</time>
      </trkpt>
      <trkpt lat="42.28907" lon="3.2794">
        <ele>5.5</ele>
        <time>2024-11-10T14:02:46Z</time>
      </trkpt>
      <trkpt lat="42.28907" lon="3.27939">
        <ele>5.4</ele>
        <time>2024-11-10T14:02:47Z</time>
      </trkpt>
      <trkpt lat="42.28907" lon="3.27939">
        <ele>5.4</ele>
        <time>2024-11-10T14:02:48Z</time>
      </trkpt>
      <trkpt lat="42.28907" lon="3.27939">
        <ele>5.4</ele>
        <time>2024-11-10T14:02:49Z</time>
      </trkpt>
      <trkpt lat="42.28907" lon="3.27939">
        <ele>5.4</ele>
        <time>2024-11-10T14:02:50Z</time>
      </trkpt>
      <trkpt lat="42.28907" lon="3.27939">
        <ele>5.4</ele>
        <time>2024-11-10T14:02:51Z</time>
      </trkpt>
      <trkpt lat="42.28907" lon="3.27939">
        <ele>5.4</ele>
        <time>2024-11-10T14:02:52Z</time>
      </trkpt>
      <trkpt lat="42.28907" lon="3.2794">
        <ele>5.4</ele>
        <time>2024-11-10T14:02:53Z</time>
      </trkpt>
      <trkpt lat="42.28907" lon="3.2794">
        <ele>5.4</ele>
        <time>2024-11-10T14:02:54Z</time>
      </trkpt>
      <trkpt lat="42.28907" lon="3.2794">
        <ele>5.4</ele>
        <time>2024-11-10T14:02:55Z</time>
      </trkpt>
      <trkpt lat="42.28907" lon="3.2794">
        <ele>5.4</ele>
        <time>2024-11-10T14:02:56Z</time>
      </trkpt>
      <trkpt lat="42.28908" lon="3.2794">
        <ele>5.4</ele>
        <time>2024-11-10T14:02:57Z</time>
      </trkpt>
      <trkpt lat="42.28908" lon="3.2794">
        <ele>5.4</ele>
        <time>2024-11-10T14:02:58Z</time>
      </trkpt>
      <trkpt lat="42.28908" lon="3.2794">
        <ele>5.4</ele>
        <time>2024-11-10T14:02:59Z</time>
      </trkpt>
      <trkpt lat="42.28908" lon="3.2794">
        <ele>5.4</ele>
        <time>2024-11-10T14:03:00Z</time>
      </trkpt>
      <trkpt lat="42.28908" lon="3.2794">
        <ele>5.4</ele>
        <time>2024-11-10T14:03:01Z</time>
      </trkpt>
      <trkpt lat="42.28908" lon="3.2794">
        <ele>5.4</ele>
        <time>2024-11-10T14:03:02Z</time>
      </trkpt>
      <trkpt lat="42.28908" lon="3.27941">
        <ele>5.4</ele>
        <time>2024-11-10T14:03:03Z</time>
      </trkpt>
      <trkpt lat="42.28908" lon="3.27941">
        <ele>5.4</ele>
        <time>2024-11-10T14:03:04Z</time>
      </trkpt>
      <trkpt lat="42.28908" lon="3.27941">
        <ele>5.4</ele>
        <time>2024-11-10T14:03:05Z</time>
      </trkpt>
      <trkpt lat="42.28909" lon="3.27942">
        <ele>5.4</ele>
        <time>2024-11-10T14:03:06Z</time>
      </trkpt>
      <trkpt lat="42.28909" lon="3.27943">
        <ele>5.4</ele>
        <time>2024-11-10T14:03:07Z</time>
      </trkpt>
      <trkpt lat="42.28909" lon="3.27944">
        <ele>5.4</ele>
        <time>2024-11-10T14:03:08Z</time>
      </trkpt>
      <trkpt lat="42.28909" lon="3.27944">
        <ele>5.4</ele>
        <time>2024-11-10T14:03:09Z</time>
      </trkpt>
      <trkpt lat="42.2891" lon="3.27945">
        <ele>5.4</ele>
        <time>2024-11-10T14:03:10Z</time>
      </trkpt>
      <trkpt lat="42.2891" lon="3.27945">
        <ele>5.4</ele>
        <time>2024-11-10T14:03:11Z</time>
      </trkpt>
      <trkpt lat="42.2891" lon="3.27946">
        <ele>5.4</ele>
        <time>2024-11-10T14:03:12Z</time>
      </trkpt>
      <trkpt lat="42.28911" lon="3.27946">
        <ele>5.4</ele>
        <time>2024-11-10T14:03:13Z</time>
      </trkpt>
      <trkpt lat="42.28911" lon="3.27946">
        <ele>5.4</ele>
        <time>2024-11-10T14:03:14Z</time>
      </trkpt>
      <trkpt lat="42.28911" lon="3.27947">
        <ele>5.4</ele>
        <time>2024-11-10T14:03:15Z</time>
      </trkpt>
      <trkpt lat="42.28911" lon="3.27947">
        <ele>5.4</ele>
        <time>2024-11-10T14:03:16Z</time>
      </trkpt>
      <trkpt lat="42.28911" lon="3.27947">
        <ele>5.4</ele>
        <time>2024-11-10T14:03:17Z</time>
      </trkpt>
      <trkpt lat="42.28911" lon="3.27947">
        <ele>5.4</ele>
        <time>2024-11-10T14:03:18Z</time>
      </trkpt>
      <trkpt lat="42.28911" lon="3.27947">
        <ele>5.4</ele>
        <time>2024-11-10T14:03:19Z</time>
      </trkpt>
      <trkpt lat="42.28911" lon="3.27947">
        <ele>5.4</ele>
        <time>2024-11-10T14:03:20Z</time>
      </trkpt>
      <trkpt lat="42.28911" lon="3.27947">
        <ele>5.4</ele>
        <time>2024-11-10T14:03:21Z</time>
      </trkpt>
      <trkpt lat="42.28911" lon="3.27947">
        <ele>5.4</ele>
        <time>2024-11-10T14:03:22Z</time>
      </trkpt>
      <trkpt lat="42.28911" lon="3.27947">
        <ele>5.4</ele>
        <time>2024-11-10T14:03:23Z</time>
      </trkpt>
      <trkpt lat="42.28911" lon="3.27947">
        <ele>5.4</ele>
        <time>2024-11-10T14:03:24Z</time>
      </trkpt>
      <trkpt lat="42.28911" lon="3.27947">
        <ele>5.4</ele>
        <time>2024-11-10T14:03:25Z</time>
      </trkpt>
      <trkpt lat="42.28911" lon="3.27948">
        <ele>5.4</ele>
        <time>2024-11-10T14:03:26Z</time>
      </trkpt>
      <trkpt lat="42.28911" lon="3.27947">
        <ele>5.4</ele>
        <time>2024-11-10T14:03:27Z</time>
      </trkpt>
      <trkpt lat="42.28911" lon="3.27947">
        <ele>5.4</ele>
        <time>2024-11-10T14:03:28Z</time>
      </trkpt>
      <trkpt lat="42.28911" lon="3.27948">
        <ele>5.4</ele>
        <time>2024-11-10T14:03:29Z</time>
      </trkpt>
      <trkpt lat="42.28911" lon="3.27948">
        <ele>5.4</ele>
        <time>2024-11-10T14:03:30Z</time>
      </trkpt>
      <trkpt lat="42.28912" lon="3.27948">
        <ele>5.4</ele>
        <time>2024-11-10T14:03:31Z</time>
      </trkpt>
      <trkpt lat="42.28912" lon="3.27948">
        <ele>5.4</ele>
        <time>2024-11-10T14:03:32Z</time>
      </trkpt>
      <trkpt lat="42.28912" lon="3.27948">
        <ele>5.4</ele>
        <time>2024-11-10T14:03:33Z</time>
      </trkpt>
      <trkpt lat="42.28912" lon="3.27948">
        <ele>5.4</ele>
        <time>2024-11-10T14:03:34Z</time>
      </trkpt>
      <trkpt lat="42.28912" lon="3.27948">
        <ele>5.4</ele>
        <time>2024-11-10T14:03:35Z</time>
      </trkpt>
      <trkpt lat="42.28912" lon="3.27948">
        <ele>5.4</ele>
        <time>2024-11-10T14:03:36Z</time>
      </trkpt>
      <trkpt lat="42.28912" lon="3.27948">
        <ele>5.4</ele>
        <time>2024-11-10T14:03:37Z</time>
      </trkpt>
      <trkpt lat="42.28912" lon="3.27948">
        <ele>5.4</ele>
        <time>2024-11-10T14:03:38Z</time>
      </trkpt>
      <trkpt lat="42.28912" lon="3.27948">
        <ele>5.4</ele>
        <time>2024-11-10T14:03:39Z</time>
      </trkpt>
      <trkpt lat="42.28912" lon="3.27948">
        <ele>5.4</ele>
        <time>2024-11-10T14:03:40Z</time>
      </trkpt>
      <trkpt lat="42.28912" lon="3.27948">
        <ele>5.4</ele>
        <time>2024-11-10T14:03:41Z</time>
      </trkpt>
      <trkpt lat="42.28912" lon="3.27948">
        <ele>5.4</ele>
        <time>2024-11-10T14:03:42Z</time>
      </trkpt>
      <trkpt lat="42.28912" lon="3.27948">
        <ele>5.4</ele>
        <time>2024-11-10T14:03:43Z</time>
      </trkpt>
      <trkpt lat="42.28912" lon="3.27948">
        <ele>5.4</ele>
        <time>2024-11-10T14:03:44Z</time>
      </trkpt>
      <trkpt lat="42.28912" lon="3.27948">
        <ele>5.4</ele>
        <time>2024-11-10T14:03:45Z</time>
      </trkpt>
      <trkpt lat="42.28912" lon="3.27948">
        <ele>5.4</ele>
        <time>2024-11-10T14:03:46Z</time>
      </trkpt>
      <trkpt lat="42.28912" lon="3.27948">
        <ele>5.4</ele>
        <time>2024-11-10T14:03:47Z</time>
      </trkpt>
      <trkpt lat="42.28912" lon="3.27948">
        <ele>5.4</ele>
        <time>2024-11-10T14:03:48Z</time>
      </trkpt>
      <trkpt lat="42.28912" lon="3.27948">
        <ele>5.4</ele>
        <time>2024-11-10T14:03:49Z</time>
      </trkpt>
      <trkpt lat="42.28912" lon="3.27948">
        <ele>5.4</ele>
        <time>2024-11-10T14:03:50Z</time>
      </trkpt>
      <trkpt lat="42.28912" lon="3.27948">
        <ele>5.4</ele>
        <time>2024-11-10T14:03:51Z</time>
      </trkpt>
      <trkpt lat="42.28912" lon="3.27948">
        <ele>5.4</ele>
        <time>2024-11-10T14:03:52Z</time>
      </trkpt>
      <trkpt lat="42.28912" lon="3.27948">
        <ele>5.4</ele>
        <time>2024-11-10T14:03:53Z</time>
      </trkpt>
      <trkpt lat="42.28912" lon="3.27948">
        <ele>5.4</ele>
        <time>2024-11-10T14:03:54Z</time>
      </trkpt>
      <trkpt lat="42.28912" lon="3.27948">
        <ele>5.4</ele>
        <time>2024-11-10T14:03:55Z</time>
      </trkpt>
      <trkpt lat="42.28912" lon="3.27948">
        <ele>5.4</ele>
        <time>2024-11-10T14:03:56Z</time>
      </trkpt>
      <trkpt lat="42.28912" lon="3.27948">
        <ele>5.4</ele>
        <time>2024-11-10T14:03:57Z</time>
      </trkpt>
      <trkpt lat="42.28912" lon="3.27948">
        <ele>5.4</ele>
        <time>2024-11-10T14:03:58Z</time>
      </trkpt>
      <trkpt lat="42.28912" lon="3.27948">
        <ele>5.4</ele>
        <time>2024-11-10T14:03:59Z</time>
      </trkpt>
      <trkpt lat="42.28912" lon="3.27948">
        <ele>5.4</ele>
        <time>2024-11-10T14:04:00Z</time>
      </trkpt>
      <trkpt lat="42.28912" lon="3.27948">
        <ele>5.4</ele>
        <time>2024-11-10T14:04:01Z</time>
      </trkpt>
      <trkpt lat="42.28912" lon="3.27948">
        <ele>5.4</ele>
        <time>2024-11-10T14:04:02Z</time>
      </trkpt>
      <trkpt lat="42.28912" lon="3.27948">
        <ele>5.4</ele>
        <time>2024-11-10T14:04:03Z</time>
      </trkpt>
      <trkpt lat="42.28912" lon="3.27948">
        <ele>5.4</ele>
        <time>2024-11-10T14:04:04Z</time>
      </trkpt>
      <trkpt lat="42.28912" lon="3.27948">
        <ele>5.4</ele>
        <time>2024-11-10T14:04:05Z</time>
      </trkpt>
      <trkpt lat="42.28912" lon="3.27948">
        <ele>5.4</ele>
        <time>2024-11-10T14:04:06Z</time>
      </trkpt>
      <trkpt lat="42.28912" lon="3.27948">
        <ele>5.4</ele>
        <time>2024-11-10T14:04:07Z</time>
      </trkpt>
      <trkpt lat="42.28912" lon="3.27948">
        <ele>5.4</ele>
        <time>2024-11-10T14:04:08Z</time>
      </trkpt>
      <trkpt lat="42.28912" lon="3.27948">
        <ele>5.4</ele>
        <time>2024-11-10T14:04:09Z</time>
      </trkpt>
      <trkpt lat="42.28912" lon="3.27948">
        <ele>5.4</ele>
        <time>2024-11-10T14:04:10Z</time>
      </trkpt>
      <trkpt lat="42.28912" lon="3.27948">
        <ele>5.4</ele>
        <time>2024-11-10T14:04:11Z</time>
      </trkpt>
      <trkpt lat="42.28912" lon="3.27948">
        <ele>5.4</ele>
        <time>2024-11-10T14:04:12Z</time>
      </trkpt>
      <trkpt lat="42.28912" lon="3.27948">
        <ele>5.4</ele>
        <time>2024-11-10T14:04:13Z</time>
      </trkpt>
      <trkpt lat="42.28912" lon="3.27948">
        <ele>5.4</ele>
        <time>2024-11-10T14:04:14Z</time>
      </trkpt>
      <trkpt lat="42.28912" lon="3.27948">
        <ele>5.4</ele>
        <time>2024-11-10T14:04:15Z</time>
      </trkpt>
      <trkpt lat="42.28912" lon="3.27948">
        <ele>5.4</ele>
        <time>2024-11-10T14:04:16Z</time>
      </trkpt>
      <trkpt lat="42.28912" lon="3.27948">
        <ele>5.4</ele>
        <time>2024-11-10T14:04:17Z</time>
      </trkpt>
      <trkpt lat="42.28912" lon="3.27948">
        <ele>5.4</ele>
        <time>2024-11-10T14:04:18Z</time>
      </trkpt>
      <trkpt lat="42.28912" lon="3.27948">
        <ele>5.4</ele>
        <time>2024-11-10T14:04:19Z</time>
      </trkpt>
      <trkpt lat="42.28912" lon="3.27948">
        <ele>5.4</ele>
        <time>2024-11-10T14:04:20Z</time>
      </trkpt>
      <trkpt lat="42.28912" lon="3.27948">
        <ele>5.4</ele>
        <time>2024-11-10T14:04:21Z</time>
      </trkpt>
      <trkpt lat="42.28912" lon="3.27948">
        <ele>5.4</ele>
        <time>2024-11-10T14:04:22Z</time>
      </trkpt>
      <trkpt lat="42.28912" lon="3.27948">
        <ele>5.4</ele>
        <time>2024-11-10T14:04:23Z</time>
      </trkpt>
      <trkpt lat="42.28912" lon="3.27948">
        <ele>5.4</ele>
        <time>2024-11-10T14:04:24Z</time>
      </trkpt>
      <trkpt lat="42.28912" lon="3.27948">
        <ele>5.4</ele>
        <time>2024-11-10T14:04:25Z</time>
      </trkpt>
      <trkpt lat="42.28912" lon="3.27948">
        <ele>5.4</ele>
        <time>2024-11-10T14:04:26Z</time>
      </trkpt>
      <trkpt lat="42.28912" lon="3.27948">
        <ele>5.4</ele>
        <time>2024-11-10T14:04:27Z</time>
      </trkpt>
      <trkpt lat="42.28912" lon="3.27948">
        <ele>5.4</ele>
        <time>2024-11-10T14:04:28Z</time>
      </trkpt>
      <trkpt lat="42.28912" lon="3.27948">
        <ele>5.4</ele>
        <time>2024-11-10T14:04:29Z</time>
      </trkpt>
      <trkpt lat="42.28912" lon="3.27948">
        <ele>5.4</ele>
        <time>2024-11-10T14:04:30Z</time>
      </trkpt>
      <trkpt lat="42.28912" lon="3.27948">
        <ele>5.4</ele>
        <time>2024-11-10T14:04:31Z</time>
      </trkpt>
      <trkpt lat="42.28912" lon="3.27948">
        <ele>5.4</ele>
        <time>2024-11-10T14:04:32Z</time>
      </trkpt>
      <trkpt lat="42.28912" lon="3.27948">
        <ele>5.4</ele>
        <time>2024-11-10T14:04:33Z</time>
      </trkpt>
      <trkpt lat="42.28912" lon="3.27948">
        <ele>5.4</ele>
        <time>2024-11-10T14:04:34Z</time>
      </trkpt>
      <trkpt lat="42.28912" lon="3.27948">
        <ele>5.4</ele>
        <time>2024-11-10T14:04:35Z</time>
      </trkpt>
      <trkpt lat="42.28912" lon="3.27948">
        <ele>5.4</ele>
        <time>2024-11-10T14:04:36Z</time>
      </trkpt>
      <trkpt lat="42.28912" lon="3.27948">
        <ele>5.4</ele>
        <time>2024-11-10T14:04:37Z</time>
      </trkpt>
      <trkpt lat="42.28912" lon="3.27948">
        <ele>5.4</ele>
        <time>2024-11-10T14:04:38Z</time>
      </trkpt>
      <trkpt lat="42.28912" lon="3.27948">
        <ele>5.4</ele>
        <time>2024-11-10T14:04:39Z</time>
      </trkpt>
      <trkpt lat="42.28912" lon="3.27948">
        <ele>5.4</ele>
        <time>2024-11-10T14:04:40Z</time>
      </trkpt>
      <trkpt lat="42.28912" lon="3.27948">
        <ele>5.4</ele>
        <time>2024-11-10T14:04:41Z</time>
      </trkpt>
      <trkpt lat="42.28912" lon="3.27948">
        <ele>5.4</ele>
        <time>2024-11-10T14:04:42Z</time>
      </trkpt>
      <trkpt lat="42.28912" lon="3.27948">
        <ele>5.4</ele>
        <time>2024-11-10T14:04:43Z</time>
      </trkpt>
      <trkpt lat="42.28912" lon="3.27948">
        <ele>5.4</ele>
        <time>2024-11-10T14:04:44Z</time>
      </trkpt>
      <trkpt lat="42.28912" lon="3.27948">
        <ele>5.4</ele>
        <time>2024-11-10T14:04:45Z</time>
      </trkpt>
      <trkpt lat="42.28912" lon="3.27948">
        <ele>5.4</ele>
        <time>2024-11-10T14:04:46Z</time>
      </trkpt>
      <trkpt lat="42.28912" lon="3.27948">
        <ele>5.4</ele>
        <time>2024-11-10T14:04:47Z</time>
      </trkpt>
      <trkpt lat="42.28912" lon="3.27948">
        <ele>5.4</ele>
        <time>2024-11-10T14:04:48Z</time>
      </trkpt>
      <trkpt lat="42.28912" lon="3.27948">
        <ele>5.4</ele>
        <time>2024-11-10T14:04:49Z</time>
      </trkpt>
      <trkpt lat="42.28912" lon="3.27948">
        <ele>5.4</ele>
        <time>2024-11-10T14:04:50Z</time>
      </trkpt>
      <trkpt lat="42.28912" lon="3.27948">
        <ele>5.4</ele>
        <time>2024-11-10T14:04:51Z</time>
      </trkpt>
      <trkpt lat="42.28912" lon="3.27948">
        <ele>5.4</ele>
        <time>2024-11-10T14:04:52Z</time>
      </trkpt>
      <trkpt lat="42.28912" lon="3.27948">
        <ele>5.4</ele>
        <time>2024-11-10T14:04:53Z</time>
      </trkpt>
      <trkpt lat="42.28912" lon="3.27948">
        <ele>5.4</ele>
        <time>2024-11-10T14:04:54Z</time>
      </trkpt>
      <trkpt lat="42.28912" lon="3.27948">
        <ele>5.4</ele>
        <time>2024-11-10T14:04:55Z</time>
      </trkpt>
      <trkpt lat="42.28912" lon="3.27948">
        <ele>5.4</ele>
        <time>2024-11-10T14:04:56Z</time>
      </trkpt>
      <trkpt lat="42.28912" lon="3.27948">
        <ele>5.4</ele>
        <time>2024-11-10T14:04:57Z</time>
      </trkpt>
      <trkpt lat="42.28912" lon="3.27948">
        <ele>5.4</ele>
        <time>2024-11-10T14:04:58Z</time>
      </trkpt>
      <trkpt lat="42.28912" lon="3.27948">
        <ele>5.4</ele>
        <time>2024-11-10T14:04:59Z</time>
      </trkpt>
      <trkpt lat="42.28912" lon="3.27948">
        <ele>5.4</ele>
        <time>2024-11-10T14:05:00Z</time>
      </trkpt>
      <trkpt lat="42.28912" lon="3.27948">
        <ele>5.4</ele>
        <time>2024-11-10T14:05:01Z</time>
      </trkpt>
      <trkpt lat="42.28912" lon="3.27948">
        <ele>5.4</ele>
        <time>2024-11-10T14:05:02Z</time>
      </trkpt>
      <trkpt lat="42.28912" lon="3.27948">
        <ele>5.4</ele>
        <time>2024-11-10T14:05:03Z</time>
      </trkpt>
      <trkpt lat="42.28912" lon="3.27948">
        <ele>5.4</ele>
        <time>2024-11-10T14:05:04Z</time>
      </trkpt>
      <trkpt lat="42.28912" lon="3.27948">
        <ele>5.4</ele>
        <time>2024-11-10T14:05:05Z</time>
      </trkpt>
      <trkpt lat="42.28912" lon="3.27948">
        <ele>5.4</ele>
        <time>2024-11-10T14:05:06Z</time>
      </trkpt>
      <trkpt lat="42.28912" lon="3.27948">
        <ele>5.4</ele>
        <time>2024-11-10T14:05:07Z</time>
      </trkpt>
      <trkpt lat="42.28912" lon="3.27948">
        <ele>5.4</ele>
        <time>2024-11-10T14:05:08Z</time>
      </trkpt>
      <trkpt lat="42.28912" lon="3.27948">
        <ele>5.4</ele>
        <time>2024-11-10T14:05:09Z</time>
      </trkpt>
      <trkpt lat="42.28912" lon="3.27948">
        <ele>5.4</ele>
        <time>2024-11-10T14:05:10Z</time>
      </trkpt>
      <trkpt lat="42.28912" lon="3.27948">
        <ele>5.4</ele>
        <time>2024-11-10T14:05:11Z</time>
      </trkpt>
      <trkpt lat="42.28912" lon="3.27948">
        <ele>5.4</ele>
        <time>2024-11-10T14:05:12Z</time>
      </trkpt>
      <trkpt lat="42.28912" lon="3.27948">
        <ele>5.4</ele>
        <time>2024-11-10T14:05:13Z</time>
      </trkpt>
      <trkpt lat="42.28912" lon="3.27948">
        <ele>5.4</ele>
        <time>2024-11-10T14:05:14Z</time>
      </trkpt>
      <trkpt lat="42.28912" lon="3.27948">
        <ele>5.4</ele>
        <time>2024-11-10T14:05:15Z</time>
      </trkpt>
      <trkpt lat="42.28912" lon="3.27948">
        <ele>5.4</ele>
        <time>2024-11-10T14:05:16Z</time>
      </trkpt>
      <trkpt lat="42.28912" lon="3.27948">
        <ele>5.4</ele>
        <time>2024-11-10T14:05:17Z</time>
      </trkpt>
      <trkpt lat="42.28912" lon="3.27948">
        <ele>5.4</ele>
        <time>2024-11-10T14:05:18Z</time>
      </trkpt>
      <trkpt lat="42.28912" lon="3.27948">
        <ele>5.4</ele>
        <time>2024-11-10T14:05:19Z</time>
      </trkpt>
      <trkpt lat="42.28912" lon="3.27948">
        <ele>5.4</ele>
        <time>2024-11-10T14:05:20Z</time>
      </trkpt>
      <trkpt lat="42.28912" lon="3.27948">
        <ele>5.4</ele>
        <time>2024-11-10T14:05:21Z</time>
      </trkpt>
      <trkpt lat="42.28912" lon="3.27948">
        <ele>5.4</ele>
        <time>2024-11-10T14:05:22Z</time>
      </trkpt>
      <trkpt lat="42.28912" lon="3.27948">
        <ele>5.4</ele>
        <time>2024-11-10T14:05:23Z</time>
      </trkpt>
      <trkpt lat="42.28912" lon="3.27948">
        <ele>5.4</ele>
        <time>2024-11-10T14:05:24Z</time>
      </trkpt>
      <trkpt lat="42.28912" lon="3.27948">
        <ele>5.4</ele>
        <time>2024-11-10T14:05:25Z</time>
      </trkpt>
      <trkpt lat="42.28912" lon="3.27948">
        <ele>5.4</ele>
        <time>2024-11-10T14:05:26Z</time>
      </trkpt>
      <trkpt lat="42.28912" lon="3.27948">
        <ele>5.4</ele>
        <time>2024-11-10T14:05:27Z</time>
      </trkpt>
      <trkpt lat="42.28912" lon="3.27948">
        <ele>5.4</ele>
        <time>2024-11-10T14:05:28Z</time>
      </trkpt>
      <trkpt lat="42.28912" lon="3.27948">
        <ele>5.4</ele>
        <time>2024-11-10T14:05:29Z</time>
      </trkpt>
      <trkpt lat="42.28912" lon="3.27948">
        <ele>5.4</ele>
        <time>2024-11-10T14:05:30Z</time>
      </trkpt>
      <trkpt lat="42.28912" lon="3.27948">
        <ele>5.4</ele>
        <time>2024-11-10T14:05:31Z</time>
      </trkpt>
      <trkpt lat="42.28912" lon="3.27948">
        <ele>5.4</ele>
        <time>2024-11-10T14:05:32Z</time>
      </trkpt>
      <trkpt lat="42.28912" lon="3.27948">
        <ele>5.4</ele>
        <time>2024-11-10T14:05:33Z</time>
      </trkpt>
      <trkpt lat="42.28912" lon="3.27948">
        <ele>5.4</ele>
        <time>2024-11-10T14:05:34Z</time>
      </trkpt>
      <trkpt lat="42.28912" lon="3.27948">
        <ele>5.4</ele>
        <time>2024-11-10T14:05:35Z</time>
      </trkpt>
      <trkpt lat="42.28912" lon="3.27948">
        <ele>5.4</ele>
        <time>2024-11-10T14:05:36Z</time>
      </trkpt>
      <trkpt lat="42.28912" lon="3.27948">
        <ele>5.4</ele>
        <time>2024-11-10T14:05:37Z</time>
      </trkpt>
      <trkpt lat="42.28912" lon="3.27948">
        <ele>5.4</ele>
        <time>2024-11-10T14:05:38Z</time>
      </trkpt>
      <trkpt lat="42.28912" lon="3.27948">
        <ele>5.4</ele>
        <time>2024-11-10T14:05:39Z</time>
      </trkpt>
      <trkpt lat="42.28912" lon="3.27948">
        <ele>5.4</ele>
        <time>2024-11-10T14:05:40Z</time>
      </trkpt>
      <trkpt lat="42.28912" lon="3.27948">
        <ele>5.4</ele>
        <time>2024-11-10T14:05:41Z</time>
      </trkpt>
      <trkpt lat="42.28912" lon="3.27948">
        <ele>5.4</ele>
        <time>2024-11-10T14:05:42Z</time>
      </trkpt>
      <trkpt lat="42.28912" lon="3.27948">
        <ele>5.4</ele>
        <time>2024-11-10T14:05:43Z</time>
      </trkpt>
      <trkpt lat="42.28912" lon="3.27948">
        <ele>5.4</ele>
        <time>2024-11-10T14:05:44Z</time>
      </trkpt>
      <trkpt lat="42.28912" lon="3.27948">
        <ele>5.4</ele>
        <time>2024-11-10T14:05:45Z</time>
      </trkpt>
      <trkpt lat="42.28912" lon="3.27948">
        <ele>5.4</ele>
        <time>2024-11-10T14:05:46Z</time>
      </trkpt>
      <trkpt lat="42.28912" lon="3.27948">
        <ele>5.4</ele>
        <time>2024-11-10T14:05:47Z</time>
      </trkpt>
      <trkpt lat="42.28912" lon="3.27948">
        <ele>5.4</ele>
        <time>2024-11-10T14:05:48Z</time>
      </trkpt>
      <trkpt lat="42.28912" lon="3.27948">
        <ele>5.4</ele>
        <time>2024-11-10T14:05:49Z</time>
      </trkpt>
      <trkpt lat="42.28912" lon="3.27948">
        <ele>5.4</ele>
        <time>2024-11-10T14:05:50Z</time>
      </trkpt>
      <trkpt lat="42.28912" lon="3.27948">
        <ele>5.4</ele>
        <time>2024-11-10T14:05:51Z</time>
      </trkpt>
      <trkpt lat="42.28912" lon="3.27948">
        <ele>5.4</ele>
        <time>2024-11-10T14:05:52Z</time>
      </trkpt>
      <trkpt lat="42.28912" lon="3.27948">
        <ele>5.4</ele>
        <time>2024-11-10T14:05:53Z</time>
      </trkpt>
      <trkpt lat="42.28912" lon="3.27948">
        <ele>5.4</ele>
        <time>2024-11-10T14:05:54Z</time>
      </trkpt>
      <trkpt lat="42.28912" lon="3.27948">
        <ele>5.4</ele>
        <time>2024-11-10T14:05:55Z</time>
      </trkpt>
      <trkpt lat="42.28912" lon="3.27948">
        <ele>5.4</ele>
        <time>2024-11-10T14:05:56Z</time>
      </trkpt>
      <trkpt lat="42.28912" lon="3.27948">
        <ele>5.4</ele>
        <time>2024-11-10T14:05:57Z</time>
      </trkpt>
      <trkpt lat="42.28912" lon="3.27948">
        <ele>5.4</ele>
        <time>2024-11-10T14:05:58Z</time>
      </trkpt>
      <trkpt lat="42.28912" lon="3.27948">
        <ele>5.4</ele>
        <time>2024-11-10T14:05:59Z</time>
      </trkpt>
      <trkpt lat="42.28912" lon="3.27948">
        <ele>5.4</ele>
        <time>2024-11-10T14:06:00Z</time>
      </trkpt>
      <trkpt lat="42.28912" lon="3.27948">
        <ele>5.4</ele>
        <time>2024-11-10T14:06:01Z</time>
      </trkpt>
      <trkpt lat="42.28912" lon="3.27948">
        <ele>5.4</ele>
        <time>2024-11-10T14:06:02Z</time>
      </trkpt>
      <trkpt lat="42.28912" lon="3.27948">
        <ele>5.4</ele>
        <time>2024-11-10T14:06:03Z</time>
      </trkpt>
      <trkpt lat="42.28912" lon="3.27948">
        <ele>5.4</ele>
        <time>2024-11-10T14:06:04Z</time>
      </trkpt>
      <trkpt lat="42.28912" lon="3.27948">
        <ele>5.4</ele>
        <time>2024-11-10T14:06:05Z</time>
      </trkpt>
      <trkpt lat="42.28912" lon="3.27948">
        <ele>5.4</ele>
        <time>2024-11-10T14:06:06Z</time>
      </trkpt>
      <trkpt lat="42.28912" lon="3.27948">
        <ele>5.4</ele>
        <time>2024-11-10T14:06:07Z</time>
      </trkpt>
      <trkpt lat="42.28912" lon="3.27948">
        <ele>5.4</ele>
        <time>2024-11-10T14:06:08Z</time>
      </trkpt>
      <trkpt lat="42.28912" lon="3.27948">
        <ele>5.4</ele>
        <time>2024-11-10T14:06:09Z</time>
      </trkpt>
      <trkpt lat="42.28912" lon="3.27948">
        <ele>5.4</ele>
        <time>2024-11-10T14:06:10Z</time>
      </trkpt>
      <trkpt lat="42.28912" lon="3.27948">
        <ele>5.4</ele>
        <time>2024-11-10T14:06:11Z</time>
      </trkpt>
      <trkpt lat="42.28912" lon="3.27948">
        <ele>5.4</ele>
        <time>2024-11-10T14:06:12Z</time>
      </trkpt>
      <trkpt lat="42.28912" lon="3.27948">
        <ele>5.4</ele>
        <time>2024-11-10T14:06:13Z</time>
      </trkpt>
      <trkpt lat="42.28912" lon="3.27948">
        <ele>5.4</ele>
        <time>2024-11-10T14:06:14Z</time>
      </trkpt>
      <trkpt lat="42.28912" lon="3.27948">
        <ele>5.4</ele>
        <time>2024-11-10T14:06:15Z</time>
      </trkpt>
      <trkpt lat="42.28912" lon="3.27948">
        <ele>5.4</ele>
        <time>2024-11-10T14:06:16Z</time>
      </trkpt>
      <trkpt lat="42.28912" lon="3.27948">
        <ele>5.4</ele>
        <time>2024-11-10T14:06:17Z</time>
      </trkpt>
      <trkpt lat="42.28912" lon="3.27948">
        <ele>5.4</ele>
        <time>2024-11-10T14:06:18Z</time>
      </trkpt>
      <trkpt lat="42.28912" lon="3.27948">
        <ele>5.4</ele>
        <time>2024-11-10T14:06:19Z</time>
      </trkpt>
      <trkpt lat="42.28912" lon="3.27948">
        <ele>5.4</ele>
        <time>2024-11-10T14:06:20Z</time>
      </trkpt>
      <trkpt lat="42.28912" lon="3.27948">
        <ele>5.4</ele>
        <time>2024-11-10T14:06:21Z</time>
      </trkpt>
      <trkpt lat="42.28912" lon="3.27948">
        <ele>5.4</ele>
        <time>2024-11-10T14:06:22Z</time>
      </trkpt>
      <trkpt lat="42.28912" lon="3.27948">
        <ele>5.4</ele>
        <time>2024-11-10T14:06:23Z</time>
      </trkpt>
      <trkpt lat="42.28912" lon="3.27948">
        <ele>5.4</ele>
        <time>2024-11-10T14:06:24Z</time>
      </trkpt>
      <trkpt lat="42.28912" lon="3.27948">
        <ele>5.4</ele>
        <time>2024-11-10T14:06:25Z</time>
      </trkpt>
      <trkpt lat="42.28912" lon="3.27948">
        <ele>5.4</ele>
        <time>2024-11-10T14:06:26Z</time>
      </trkpt>
      <trkpt lat="42.28912" lon="3.27948">
        <ele>5.4</ele>
        <time>2024-11-10T14:06:27Z</time>
      </trkpt>
      <trkpt lat="42.28912" lon="3.27948">
        <ele>5.4</ele>
        <time>2024-11-10T14:06:28Z</time>
      </trkpt>
      <trkpt lat="42.28912" lon="3.27948">
        <ele>5.4</ele>
        <time>2024-11-10T14:06:29Z</time>
      </trkpt>
      <trkpt lat="42.28912" lon="3.27948">
        <ele>5.4</ele>
        <time>2024-11-10T14:06:30Z</time>
      </trkpt>
      <trkpt lat="42.28912" lon="3.27948">
        <ele>5.4</ele>
        <time>2024-11-10T14:06:31Z</time>
      </trkpt>
      <trkpt lat="42.28912" lon="3.27948">
        <ele>5.4</ele>
        <time>2024-11-10T14:06:32Z</time>
      </trkpt>
      <trkpt lat="42.28912" lon="3.27948">
        <ele>5.4</ele>
        <time>2024-11-10T14:06:33Z</time>
      </trkpt>
      <trkpt lat="42.28912" lon="3.27948">
        <ele>5.4</ele>
        <time>2024-11-10T14:06:34Z</time>
      </trkpt>
      <trkpt lat="42.28912" lon="3.27948">
        <ele>5.4</ele>
        <time>2024-11-10T14:06:35Z</time>
      </trkpt>
      <trkpt lat="42.28912" lon="3.27948">
        <ele>5.4</ele>
        <time>2024-11-10T14:06:36Z</time>
      </trkpt>
      <trkpt lat="42.28912" lon="3.27948">
        <ele>5.4</ele>
        <time>2024-11-10T14:06:37Z</time>
      </trkpt>
      <trkpt lat="42.28912" lon="3.27948">
        <ele>5.4</ele>
        <time>2024-11-10T14:06:38Z</time>
      </trkpt>
      <trkpt lat="42.28912" lon="3.27948">
        <ele>5.4</ele>
        <time>2024-11-10T14:06:39Z</time>
      </trkpt>
      <trkpt lat="42.28912" lon="3.27948">
        <ele>5.4</ele>
        <time>2024-11-10T14:06:40Z</time>
      </trkpt>
      <trkpt lat="42.28912" lon="3.27948">
        <ele>5.4</ele>
        <time>2024-11-10T14:06:41Z</time>
      </trkpt>
      <trkpt lat="42.28912" lon="3.27948">
        <ele>5.4</ele>
        <time>2024-11-10T14:06:42Z</time>
      </trkpt>
      <trkpt lat="42.28912" lon="3.27948">
        <ele>5.4</ele>
        <time>2024-11-10T14:06:43Z</time>
      </trkpt>
      <trkpt lat="42.28912" lon="3.27948">
        <ele>5.4</ele>
        <time>2024-11-10T14:06:44Z</time>
      </trkpt>
      <trkpt lat="42.28912" lon="3.27948">
        <ele>5.4</ele>
        <time>2024-11-10T14:06:45Z</time>
      </trkpt>
      <trkpt lat="42.28912" lon="3.27948">
        <ele>5.4</ele>
        <time>2024-11-10T14:06:46Z</time>
      </trkpt>
      <trkpt lat="42.28912" lon="3.27948">
        <ele>5.4</ele>
        <time>2024-11-10T14:06:47Z</time>
      </trkpt>
      <trkpt lat="42.28912" lon="3.27948">
        <ele>5.4</ele>
        <time>2024-11-10T14:06:48Z</time>
      </trkpt>
      <trkpt lat="42.28912" lon="3.27948">
        <ele>5.4</ele>
        <time>2024-11-10T14:06:49Z</time>
      </trkpt>
      <trkpt lat="42.28912" lon="3.27948">
        <ele>5.4</ele>
        <time>2024-11-10T14:06:50Z</time>
      </trkpt>
      <trkpt lat="42.28912" lon="3.27948">
        <ele>5.4</ele>
        <time>2024-11-10T14:06:51Z</time>
      </trkpt>
      <trkpt lat="42.28912" lon="3.27948">
        <ele>5.4</ele>
        <time>2024-11-10T14:06:52Z</time>
      </trkpt>
      <trkpt lat="42.28912" lon="3.27948">
        <ele>5.4</ele>
        <time>2024-11-10T14:06:53Z</time>
      </trkpt>
      <trkpt lat="42.28912" lon="3.27948">
        <ele>5.4</ele>
        <time>2024-11-10T14:06:54Z</time>
      </trkpt>
      <trkpt lat="42.28912" lon="3.27948">
        <ele>5.4</ele>
        <time>2024-11-10T14:06:55Z</time>
      </trkpt>
      <trkpt lat="42.28912" lon="3.27948">
        <ele>5.4</ele>
        <time>2024-11-10T14:06:56Z</time>
      </trkpt>
      <trkpt lat="42.28912" lon="3.27948">
        <ele>5.4</ele>
        <time>2024-11-10T14:06:57Z</time>
      </trkpt>
      <trkpt lat="42.28912" lon="3.27948">
        <ele>5.4</ele>
        <time>2024-11-10T14:06:58Z</time>
      </trkpt>
      <trkpt lat="42.28912" lon="3.27948">
        <ele>5.4</ele>
        <time>2024-11-10T14:06:59Z</time>
      </trkpt>
      <trkpt lat="42.28912" lon="3.27948">
        <ele>5.4</ele>
        <time>2024-11-10T14:07:00Z</time>
      </trkpt>
      <trkpt lat="42.28912" lon="3.27948">
        <ele>5.4</ele>
        <time>2024-11-10T14:07:01Z</time>
      </trkpt>
      <trkpt lat="42.28912" lon="3.27948">
        <ele>5.4</ele>
        <time>2024-11-10T14:07:02Z</time>
      </trkpt>
      <trkpt lat="42.28912" lon="3.27948">
        <ele>5.4</ele>
        <time>2024-11-10T14:07:03Z</time>
      </trkpt>
      <trkpt lat="42.28912" lon="3.27948">
        <ele>5.4</ele>
        <time>2024-11-10T14:07:04Z</time>
      </trkpt>
      <trkpt lat="42.28912" lon="3.27948">
        <ele>5.4</ele>
        <time>2024-11-10T14:07:05Z</time>
      </trkpt>
      <trkpt lat="42.28912" lon="3.27948">
        <ele>5.4</ele>
        <time>2024-11-10T14:07:06Z</time>
      </trkpt>
      <trkpt lat="42.28912" lon="3.27948">
        <ele>5.4</ele>
        <time>2024-11-10T14:07:07Z</time>
      </trkpt>
      <trkpt lat="42.28912" lon="3.27948">
        <ele>5.4</ele>
        <time>2024-11-10T14:07:08Z</time>
      </trkpt>
      <trkpt lat="42.28912" lon="3.27948">
        <ele>5.4</ele>
        <time>2024-11-10T14:07:09Z</time>
      </trkpt>
      <trkpt lat="42.28912" lon="3.27948">
        <ele>5.4</ele>
        <time>2024-11-10T14:07:10Z</time>
      </trkpt>
      <trkpt lat="42.28912" lon="3.27948">
        <ele>5.4</ele>
        <time>2024-11-10T14:07:11Z</time>
      </trkpt>
      <trkpt lat="42.28912" lon="3.27948">
        <ele>5.4</ele>
        <time>2024-11-10T14:07:12Z</time>
      </trkpt>
      <trkpt lat="42.28912" lon="3.27948">
        <ele>5.4</ele>
        <time>2024-11-10T14:07:13Z</time>
      </trkpt>
      <trkpt lat="42.28912" lon="3.27948">
        <ele>5.4</ele>
        <time>2024-11-10T14:07:14Z</time>
      </trkpt>
      <trkpt lat="42.28912" lon="3.27948">
        <ele>5.4</ele>
        <time>2024-11-10T14:07:15Z</time>
      </trkpt>
      <trkpt lat="42.28912" lon="3.27948">
        <ele>5.4</ele>
        <time>2024-11-10T14:07:16Z</time>
      </trkpt>
      <trkpt lat="42.28912" lon="3.27948">
        <ele>5.4</ele>
        <time>2024-11-10T14:07:17Z</time>
      </trkpt>
      <trkpt lat="42.28912" lon="3.27948">
        <ele>5.4</ele>
        <time>2024-11-10T14:07:18Z</time>
      </trkpt>
      <trkpt lat="42.28912" lon="3.27948">
        <ele>5.4</ele>
        <time>2024-11-10T14:07:19Z</time>
      </trkpt>
      <trkpt lat="42.28912" lon="3.27948">
        <ele>5.4</ele>
        <time>2024-11-10T14:07:20Z</time>
      </trkpt>
      <trkpt lat="42.28912" lon="3.27948">
        <ele>5.4</ele>
        <time>2024-11-10T14:07:21Z</time>
      </trkpt>
      <trkpt lat="42.28912" lon="3.27948">
        <ele>5.4</ele>
        <time>2024-11-10T14:07:22Z</time>
      </trkpt>
      <trkpt lat="42.28912" lon="3.27948">
        <ele>5.4</ele>
        <time>2024-11-10T14:07:23Z</time>
      </trkpt>
      <trkpt lat="42.28912" lon="3.27948">
        <ele>5.4</ele>
        <time>2024-11-10T14:07:24Z</time>
      </trkpt>
      <trkpt lat="42.28912" lon="3.27948">
        <ele>5.4</ele>
        <time>2024-11-10T14:07:25Z</time>
      </trkpt>
      <trkpt lat="42.28912" lon="3.27948">
        <ele>5.4</ele>
        <time>2024-11-10T14:07:26Z</time>
      </trkpt>
      <trkpt lat="42.28912" lon="3.27948">
        <ele>5.4</ele>
        <time>2024-11-10T14:07:27Z</time>
      </trkpt>
      <trkpt lat="42.28912" lon="3.27948">
        <ele>5.4</ele>
        <time>2024-11-10T14:07:28Z</time>
      </trkpt>
      <trkpt lat="42.28912" lon="3.27948">
        <ele>5.4</ele>
        <time>2024-11-10T14:07:29Z</time>
      </trkpt>
      <trkpt lat="42.28912" lon="3.27948">
        <ele>5.4</ele>
        <time>2024-11-10T14:07:30Z</time>
      </trkpt>
      <trkpt lat="42.28912" lon="3.27948">
        <ele>5.4</ele>
        <time>2024-11-10T14:07:31Z</time>
      </trkpt>
      <trkpt lat="42.28912" lon="3.27948">
        <ele>5.4</ele>
        <time>2024-11-10T14:07:32Z</time>
      </trkpt>
      <trkpt lat="42.28912" lon="3.27948">
        <ele>5.4</ele>
        <time>2024-11-10T14:07:33Z</time>
      </trkpt>
      <trkpt lat="42.28912" lon="3.27948">
        <ele>5.4</ele>
        <time>2024-11-10T14:07:34Z</time>
      </trkpt>
      <trkpt lat="42.28912" lon="3.27948">
        <ele>5.4</ele>
        <time>2024-11-10T14:07:35Z</time>
      </trkpt>
      <trkpt lat="42.28912" lon="3.27948">
        <ele>5.4</ele>
        <time>2024-11-10T14:07:36Z</time>
      </trkpt>
      <trkpt lat="42.28912" lon="3.27948">
        <ele>5.4</ele>
        <time>2024-11-10T14:07:37Z</time>
      </trkpt>
      <trkpt lat="42.28912" lon="3.27948">
        <ele>5.4</ele>
        <time>2024-11-10T14:07:38Z</time>
      </trkpt>
      <trkpt lat="42.28912" lon="3.27948">
        <ele>5.4</ele>
        <time>2024-11-10T14:07:39Z</time>
      </trkpt>
      <trkpt lat="42.28912" lon="3.27948">
        <ele>5.4</ele>
        <time>2024-11-10T14:07:40Z</time>
      </trkpt>
      <trkpt lat="42.28912" lon="3.27948">
        <ele>5.4</ele>
        <time>2024-11-10T14:07:41Z</time>
      </trkpt>
      <trkpt lat="42.28912" lon="3.27948">
        <ele>5.4</ele>
        <time>2024-11-10T14:07:42Z</time>
      </trkpt>
      <trkpt lat="42.28912" lon="3.27948">
        <ele>5.4</ele>
        <time>2024-11-10T14:07:43Z</time>
      </trkpt>
      <trkpt lat="42.28912" lon="3.27948">
        <ele>5.4</ele>
        <time>2024-11-10T14:07:44Z</time>
      </trkpt>
      <trkpt lat="42.28912" lon="3.27948">
        <ele>5.4</ele>
        <time>2024-11-10T14:07:45Z</time>
      </trkpt>
      <trkpt lat="42.28912" lon="3.27948">
        <ele>5.4</ele>
        <time>2024-11-10T14:07:46Z</time>
      </trkpt>
      <trkpt lat="42.28912" lon="3.27948">
        <ele>5.4</ele>
        <time>2024-11-10T14:07:47Z</time>
      </trkpt>
      <trkpt lat="42.28912" lon="3.27948">
        <ele>5.4</ele>
        <time>2024-11-10T14:07:48Z</time>
      </trkpt>
      <trkpt lat="42.28912" lon="3.27948">
        <ele>5.4</ele>
        <time>2024-11-10T14:07:49Z</time>
      </trkpt>
      <trkpt lat="42.28912" lon="3.27948">
        <ele>5.4</ele>
        <time>2024-11-10T14:07:50Z</time>
      </trkpt>
      <trkpt lat="42.28912" lon="3.27948">
        <ele>5.4</ele>
        <time>2024-11-10T14:07:51Z</time>
      </trkpt>
      <trkpt lat="42.28912" lon="3.27948">
        <ele>5.4</ele>
        <time>2024-11-10T14:07:52Z</time>
      </trkpt>
      <trkpt lat="42.28912" lon="3.27948">
        <ele>5.4</ele>
        <time>2024-11-10T14:07:53Z</time>
      </trkpt>
      <trkpt lat="42.28912" lon="3.27948">
        <ele>5.4</ele>
        <time>2024-11-10T14:07:54Z</time>
      </trkpt>
      <trkpt lat="42.28912" lon="3.27948">
        <ele>5.4</ele>
        <time>2024-11-10T14:07:55Z</time>
      </trkpt>
      <trkpt lat="42.28912" lon="3.27948">
        <ele>5.4</ele>
        <time>2024-11-10T14:07:56Z</time>
      </trkpt>
      <trkpt lat="42.28912" lon="3.27948">
        <ele>5.4</ele>
        <time>2024-11-10T14:07:57Z</time>
      </trkpt>
      <trkpt lat="42.28912" lon="3.27948">
        <ele>5.4</ele>
        <time>2024-11-10T14:07:58Z</time>
      </trkpt>
      <trkpt lat="42.28912" lon="3.27948">
        <ele>5.4</ele>
        <time>2024-11-10T14:07:59Z</time>
      </trkpt>
      <trkpt lat="42.28912" lon="3.27948">
        <ele>5.4</ele>
        <time>2024-11-10T14:08:00Z</time>
      </trkpt>
      <trkpt lat="42.28912" lon="3.27948">
        <ele>5.4</ele>
        <time>2024-11-10T14:08:01Z</time>
      </trkpt>
      <trkpt lat="42.28912" lon="3.27948">
        <ele>5.4</ele>
        <time>2024-11-10T14:08:02Z</time>
      </trkpt>
      <trkpt lat="42.28912" lon="3.27948">
        <ele>5.4</ele>
        <time>2024-11-10T14:08:03Z</time>
      </trkpt>
      <trkpt lat="42.28912" lon="3.27948">
        <ele>5.4</ele>
        <time>2024-11-10T14:08:04Z</time>
      </trkpt>
      <trkpt lat="42.28912" lon="3.27948">
        <ele>5.4</ele>
        <time>2024-11-10T14:08:05Z</time>
      </trkpt>
      <trkpt lat="42.28912" lon="3.27948">
        <ele>5.4</ele>
        <time>2024-11-10T14:08:06Z</time>
      </trkpt>
      <trkpt lat="42.28912" lon="3.27948">
        <ele>5.4</ele>
        <time>2024-11-10T14:08:07Z</time>
      </trkpt>
      <trkpt lat="42.28912" lon="3.27948">
        <ele>5.4</ele>
        <time>2024-11-10T14:08:08Z</time>
      </trkpt>
      <trkpt lat="42.28912" lon="3.27948">
        <ele>5.4</ele>
        <time>2024-11-10T14:08:09Z</time>
      </trkpt>
      <trkpt lat="42.28912" lon="3.27948">
        <ele>5.4</ele>
        <time>2024-11-10T14:08:10Z</time>
      </trkpt>
      <trkpt lat="42.28912" lon="3.27948">
        <ele>5.4</ele>
        <time>2024-11-10T14:08:11Z</time>
      </trkpt>
      <trkpt lat="42.28912" lon="3.27948">
        <ele>5.4</ele>
        <time>2024-11-10T14:08:12Z</time>
      </trkpt>
      <trkpt lat="42.28912" lon="3.27948">
        <ele>5.4</ele>
        <time>2024-11-10T14:08:13Z</time>
      </trkpt>
      <trkpt lat="42.28912" lon="3.27948">
        <ele>5.4</ele>
        <time>2024-11-10T14:08:14Z</time>
      </trkpt>
      <trkpt lat="42.28912" lon="3.27948">
        <ele>5.4</ele>
        <time>2024-11-10T14:08:15Z</time>
      </trkpt>
      <trkpt lat="42.28912" lon="3.27948">
        <ele>5.4</ele>
        <time>2024-11-10T14:08:16Z</time>
      </trkpt>
      <trkpt lat="42.28912" lon="3.27948">
        <ele>5.4</ele>
        <time>2024-11-10T14:08:17Z</time>
      </trkpt>
      <trkpt lat="42.28912" lon="3.27948">
        <ele>5.4</ele>
        <time>2024-11-10T14:08:18Z</time>
      </trkpt>
      <trkpt lat="42.28912" lon="3.27948">
        <ele>5.4</ele>
        <time>2024-11-10T14:08:19Z</time>
      </trkpt>
      <trkpt lat="42.28912" lon="3.27948">
        <ele>5.4</ele>
        <time>2024-11-10T14:08:20Z</time>
      </trkpt>
      <trkpt lat="42.28912" lon="3.27948">
        <ele>5.4</ele>
        <time>2024-11-10T14:08:21Z</time>
      </trkpt>
      <trkpt lat="42.28912" lon="3.27948">
        <ele>5.4</ele>
        <time>2024-11-10T14:08:22Z</time>
      </trkpt>
      <trkpt lat="42.28912" lon="3.27948">
        <ele>5.4</ele>
        <time>2024-11-10T14:08:23Z</time>
      </trkpt>
      <trkpt lat="42.28912" lon="3.27948">
        <ele>5.4</ele>
        <time>2024-11-10T14:08:24Z</time>
      </trkpt>
      <trkpt lat="42.28912" lon="3.27948">
        <ele>5.4</ele>
        <time>2024-11-10T14:08:25Z</time>
      </trkpt>
      <trkpt lat="42.28912" lon="3.27948">
        <ele>5.4</ele>
        <time>2024-11-10T14:08:26Z</time>
      </trkpt>
      <trkpt lat="42.28912" lon="3.27948">
        <ele>5.4</ele>
        <time>2024-11-10T14:08:27Z</time>
      </trkpt>
      <trkpt lat="42.28912" lon="3.27948">
        <ele>5.4</ele>
        <time>2024-11-10T14:08:28Z</time>
      </trkpt>
      <trkpt lat="42.28912" lon="3.27948">
        <ele>5.4</ele>
        <time>2024-11-10T14:08:29Z</time>
      </trkpt>
      <trkpt lat="42.28912" lon="3.27948">
        <ele>5.4</ele>
        <time>2024-11-10T14:08:30Z</time>
      </trkpt>
      <trkpt lat="42.28912" lon="3.27948">
        <ele>5.4</ele>
        <time>2024-11-10T14:08:31Z</time>
      </trkpt>
      <trkpt lat="42.28912" lon="3.27948">
        <ele>5.4</ele>
        <time>2024-11-10T14:08:32Z</time>
      </trkpt>
      <trkpt lat="42.28912" lon="3.27948">
        <ele>5.4</ele>
        <time>2024-11-10T14:08:33Z</time>
      </trkpt>
      <trkpt lat="42.28912" lon="3.27948">
        <ele>5.4</ele>
        <time>2024-11-10T14:08:34Z</time>
      </trkpt>
      <trkpt lat="42.28912" lon="3.27948">
        <ele>5.4</ele>
        <time>2024-11-10T14:08:35Z</time>
      </trkpt>
      <trkpt lat="42.28912" lon="3.27948">
        <ele>5.4</ele>
        <time>2024-11-10T14:08:36Z</time>
      </trkpt>
      <trkpt lat="42.28912" lon="3.27948">
        <ele>5.4</ele>
        <time>2024-11-10T14:08:37Z</time>
      </trkpt>
      <trkpt lat="42.28912" lon="3.27948">
        <ele>5.4</ele>
        <time>2024-11-10T14:08:38Z</time>
      </trkpt>
      <trkpt lat="42.28912" lon="3.27948">
        <ele>5.4</ele>
        <time>2024-11-10T14:08:39Z</time>
      </trkpt>
      <trkpt lat="42.28912" lon="3.27948">
        <ele>5.4</ele>
        <time>2024-11-10T14:08:40Z</time>
      </trkpt>
      <trkpt lat="42.28912" lon="3.27948">
        <ele>5.4</ele>
        <time>2024-11-10T14:08:41Z</time>
      </trkpt>
      <trkpt lat="42.28912" lon="3.27948">
        <ele>5.4</ele>
        <time>2024-11-10T14:08:42Z</time>
      </trkpt>
      <trkpt lat="42.28912" lon="3.27948">
        <ele>5.4</ele>
        <time>2024-11-10T14:08:43Z</time>
      </trkpt>
      <trkpt lat="42.28912" lon="3.27948">
        <ele>5.4</ele>
        <time>2024-11-10T14:08:44Z</time>
      </trkpt>
      <trkpt lat="42.28912" lon="3.27948">
        <ele>5.4</ele>
        <time>2024-11-10T14:08:45Z</time>
      </trkpt>
      <trkpt lat="42.28912" lon="3.27948">
        <ele>5.4</ele>
        <time>2024-11-10T14:08:46Z</time>
      </trkpt>
      <trkpt lat="42.28912" lon="3.27948">
        <ele>5.4</ele>
        <time>2024-11-10T14:08:47Z</time>
      </trkpt>
      <trkpt lat="42.28912" lon="3.27948">
        <ele>5.4</ele>
        <time>2024-11-10T14:08:48Z</time>
      </trkpt>
      <trkpt lat="42.28912" lon="3.27948">
        <ele>5.4</ele>
        <time>2024-11-10T14:08:49Z</time>
      </trkpt>
      <trkpt lat="42.28912" lon="3.27948">
        <ele>5.4</ele>
        <time>2024-11-10T14:08:50Z</time>
      </trkpt>
      <trkpt lat="42.28912" lon="3.27948">
        <ele>5.4</ele>
        <time>2024-11-10T14:08:51Z</time>
      </trkpt>
      <trkpt lat="42.28912" lon="3.27948">
        <ele>5.4</ele>
        <time>2024-11-10T14:08:52Z</time>
      </trkpt>
      <trkpt lat="42.28912" lon="3.27948">
        <ele>5.4</ele>
        <time>2024-11-10T14:08:53Z</time>
      </trkpt>
      <trkpt lat="42.28912" lon="3.27948">
        <ele>5.4</ele>
        <time>2024-11-10T14:08:54Z</time>
      </trkpt>
      <trkpt lat="42.28912" lon="3.27948">
        <ele>5.4</ele>
        <time>2024-11-10T14:08:55Z</time>
      </trkpt>
      <trkpt lat="42.28912" lon="3.27948">
        <ele>5.4</ele>
        <time>2024-11-10T14:08:56Z</time>
      </trkpt>
      <trkpt lat="42.28912" lon="3.27948">
        <ele>5.4</ele>
        <time>2024-11-10T14:08:57Z</time>
      </trkpt>
      <trkpt lat="42.28912" lon="3.27948">
        <ele>5.4</ele>
        <time>2024-11-10T14:08:58Z</time>
      </trkpt>
      <trkpt lat="42.28912" lon="3.27948">
        <ele>5.4</ele>
        <time>2024-11-10T14:08:59Z</time>
      </trkpt>
      <trkpt lat="42.28912" lon="3.27948">
        <ele>5.4</ele>
        <time>2024-11-10T14:09:00Z</time>
      </trkpt>
      <trkpt lat="42.28912" lon="3.27948">
        <ele>5.4</ele>
        <time>2024-11-10T14:09:01Z</time>
      </trkpt>
      <trkpt lat="42.28912" lon="3.27948">
        <ele>5.4</ele>
        <time>2024-11-10T14:09:02Z</time>
      </trkpt>
      <trkpt lat="42.28912" lon="3.27948">
        <ele>5.4</ele>
        <time>2024-11-10T14:09:03Z</time>
      </trkpt>
      <trkpt lat="42.28912" lon="3.27948">
        <ele>5.4</ele>
        <time>2024-11-10T14:09:04Z</time>
      </trkpt>
      <trkpt lat="42.28912" lon="3.27948">
        <ele>5.4</ele>
        <time>2024-11-10T14:09:05Z</time>
      </trkpt>
      <trkpt lat="42.28912" lon="3.27947">
        <ele>5.4</ele>
        <time>2024-11-10T14:09:06Z</time>
      </trkpt>
      <trkpt lat="42.28912" lon="3.27947">
        <ele>5.4</ele>
        <time>2024-11-10T14:09:07Z</time>
      </trkpt>
      <trkpt lat="42.28912" lon="3.27947">
        <ele>5.4</ele>
        <time>2024-11-10T14:09:08Z</time>
      </trkpt>
      <trkpt lat="42.28912" lon="3.27947">
        <ele>5.4</ele>
        <time>2024-11-10T14:09:09Z</time>
      </trkpt>
      <trkpt lat="42.28912" lon="3.27947">
        <ele>5.4</ele>
        <time>2024-11-10T14:09:10Z</time>
      </trkpt>
      <trkpt lat="42.28912" lon="3.27947">
        <ele>5.4</ele>
        <time>2024-11-10T14:09:11Z</time>
      </trkpt>
      <trkpt lat="42.28912" lon="3.27947">
        <ele>5.4</ele>
        <time>2024-11-10T14:09:12Z</time>
      </trkpt>
      <trkpt lat="42.28912" lon="3.27947">
        <ele>5.4</ele>
        <time>2024-11-10T14:09:13Z</time>
      </trkpt>
      <trkpt lat="42.28912" lon="3.27947">
        <ele>5.4</ele>
        <time>2024-11-10T14:09:14Z</time>
      </trkpt>
      <trkpt lat="42.28912" lon="3.27947">
        <ele>5.4</ele>
        <time>2024-11-10T14:09:15Z</time>
      </trkpt>
      <trkpt lat="42.28912" lon="3.27947">
        <ele>5.4</ele>
        <time>2024-11-10T14:09:16Z</time>
      </trkpt>
      <trkpt lat="42.28912" lon="3.27947">
        <ele>5.4</ele>
        <time>2024-11-10T14:09:17Z</time>
      </trkpt>
      <trkpt lat="42.28912" lon="3.27947">
        <ele>5.4</ele>
        <time>2024-11-10T14:09:18Z</time>
      </trkpt>
      <trkpt lat="42.28912" lon="3.27947">
        <ele>5.4</ele>
        <time>2024-11-10T14:09:19Z</time>
      </trkpt>
      <trkpt lat="42.28912" lon="3.27947">
        <ele>5.4</ele>
        <time>2024-11-10T14:09:20Z</time>
      </trkpt>
      <trkpt lat="42.28912" lon="3.27947">
        <ele>5.4</ele>
        <time>2024-11-10T14:09:21Z</time>
      </trkpt>
      <trkpt lat="42.28912" lon="3.27947">
        <ele>5.4</ele>
        <time>2024-11-10T14:09:22Z</time>
      </trkpt>
      <trkpt lat="42.28912" lon="3.27947">
        <ele>5.4</ele>
        <time>2024-11-10T14:09:23Z</time>
      </trkpt>
      <trkpt lat="42.28912" lon="3.27947">
        <ele>5.4</ele>
        <time>2024-11-10T14:09:24Z</time>
      </trkpt>
      <trkpt lat="42.28912" lon="3.27947">
        <ele>5.4</ele>
        <time>2024-11-10T14:09:25Z</time>
      </trkpt>
      <trkpt lat="42.28912" lon="3.27947">
        <ele>5.4</ele>
        <time>2024-11-10T14:09:26Z</time>
      </trkpt>
      <trkpt lat="42.28912" lon="3.27947">
        <ele>5.4</ele>
        <time>2024-11-10T14:09:27Z</time>
      </trkpt>
      <trkpt lat="42.28912" lon="3.27947">
        <ele>5.4</ele>
        <time>2024-11-10T14:09:28Z</time>
      </trkpt>
      <trkpt lat="42.28912" lon="3.27947">
        <ele>5.4</ele>
        <time>2024-11-10T14:09:29Z</time>
      </trkpt>
      <trkpt lat="42.28912" lon="3.27947">
        <ele>5.4</ele>
        <time>2024-11-10T14:09:30Z</time>
      </trkpt>
      <trkpt lat="42.28912" lon="3.27947">
        <ele>5.4</ele>
        <time>2024-11-10T14:09:31Z</time>
      </trkpt>
      <trkpt lat="42.28912" lon="3.27947">
        <ele>5.4</ele>
        <time>2024-11-10T14:09:32Z</time>
      </trkpt>
      <trkpt lat="42.28912" lon="3.27947">
        <ele>5.4</ele>
        <time>2024-11-10T14:09:33Z</time>
      </trkpt>
      <trkpt lat="42.28912" lon="3.27947">
        <ele>5.4</ele>
        <time>2024-11-10T14:09:34Z</time>
      </trkpt>
      <trkpt lat="42.28912" lon="3.27947">
        <ele>5.4</ele>
        <time>2024-11-10T14:09:35Z</time>
      </trkpt>
      <trkpt lat="42.28912" lon="3.27947">
        <ele>5.4</ele>
        <time>2024-11-10T14:09:36Z</time>
      </trkpt>
      <trkpt lat="42.28912" lon="3.27947">
        <ele>5.4</ele>
        <time>2024-11-10T14:09:37Z</time>
      </trkpt>
      <trkpt lat="42.28912" lon="3.27947">
        <ele>5.4</ele>
        <time>2024-11-10T14:09:38Z</time>
      </trkpt>
      <trkpt lat="42.28912" lon="3.27947">
        <ele>5.4</ele>
        <time>2024-11-10T14:09:39Z</time>
      </trkpt>
      <trkpt lat="42.28912" lon="3.27947">
        <ele>5.4</ele>
        <time>2024-11-10T14:09:40Z</time>
      </trkpt>
      <trkpt lat="42.28912" lon="3.27947">
        <ele>5.4</ele>
        <time>2024-11-10T14:09:41Z</time>
      </trkpt>
      <trkpt lat="42.28912" lon="3.27947">
        <ele>5.4</ele>
        <time>2024-11-10T14:09:42Z</time>
      </trkpt>
      <trkpt lat="42.28912" lon="3.27947">
        <ele>5.4</ele>
        <time>2024-11-10T14:09:43Z</time>
      </trkpt>
      <trkpt lat="42.28912" lon="3.27947">
        <ele>5.4</ele>
        <time>2024-11-10T14:09:44Z</time>
      </trkpt>
      <trkpt lat="42.28912" lon="3.27947">
        <ele>5.4</ele>
        <time>2024-11-10T14:09:45Z</time>
      </trkpt>
      <trkpt lat="42.28912" lon="3.27947">
        <ele>5.4</ele>
        <time>2024-11-10T14:09:46Z</time>
      </trkpt>
      <trkpt lat="42.28912" lon="3.27947">
        <ele>5.4</ele>
        <time>2024-11-10T14:09:47Z</time>
      </trkpt>
      <trkpt lat="42.28912" lon="3.27947">
        <ele>5.4</ele>
        <time>2024-11-10T14:09:48Z</time>
      </trkpt>
      <trkpt lat="42.28912" lon="3.27947">
        <ele>5.4</ele>
        <time>2024-11-10T14:09:49Z</time>
      </trkpt>
      <trkpt lat="42.28912" lon="3.27947">
        <ele>5.4</ele>
        <time>2024-11-10T14:09:50Z</time>
      </trkpt>
      <trkpt lat="42.28912" lon="3.27947">
        <ele>5.4</ele>
        <time>2024-11-10T14:09:51Z</time>
      </trkpt>
      <trkpt lat="42.28912" lon="3.27947">
        <ele>5.4</ele>
        <time>2024-11-10T14:09:52Z</time>
      </trkpt>
      <trkpt lat="42.28912" lon="3.27947">
        <ele>5.4</ele>
        <time>2024-11-10T14:09:53Z</time>
      </trkpt>
      <trkpt lat="42.28912" lon="3.27947">
        <ele>5.4</ele>
        <time>2024-11-10T14:09:54Z</time>
      </trkpt>
      <trkpt lat="42.28912" lon="3.27947">
        <ele>5.4</ele>
        <time>2024-11-10T14:09:55Z</time>
      </trkpt>
      <trkpt lat="42.28912" lon="3.27947">
        <ele>5.4</ele>
        <time>2024-11-10T14:09:56Z</time>
      </trkpt>
      <trkpt lat="42.28912" lon="3.27947">
        <ele>5.4</ele>
        <time>2024-11-10T14:09:57Z</time>
      </trkpt>
      <trkpt lat="42.28912" lon="3.27947">
        <ele>5.4</ele>
        <time>2024-11-10T14:09:58Z</time>
      </trkpt>
      <trkpt lat="42.28912" lon="3.27947">
        <ele>5.4</ele>
        <time>2024-11-10T14:09:59Z</time>
      </trkpt>
      <trkpt lat="42.28912" lon="3.27947">
        <ele>5.4</ele>
        <time>2024-11-10T14:10:00Z</time>
      </trkpt>
      <trkpt lat="42.28912" lon="3.27947">
        <ele>5.4</ele>
        <time>2024-11-10T14:10:01Z</time>
      </trkpt>
      <trkpt lat="42.28912" lon="3.27947">
        <ele>5.4</ele>
        <time>2024-11-10T14:10:02Z</time>
      </trkpt>
      <trkpt lat="42.28912" lon="3.27947">
        <ele>5.4</ele>
        <time>2024-11-10T14:10:03Z</time>
      </trkpt>
      <trkpt lat="42.28912" lon="3.27947">
        <ele>5.4</ele>
        <time>2024-11-10T14:10:04Z</time>
      </trkpt>
      <trkpt lat="42.28912" lon="3.27947">
        <ele>5.4</ele>
        <time>2024-11-10T14:10:05Z</time>
      </trkpt>
      <trkpt lat="42.28912" lon="3.27947">
        <ele>5.4</ele>
        <time>2024-11-10T14:10:06Z</time>
      </trkpt>
      <trkpt lat="42.28912" lon="3.27947">
        <ele>5.4</ele>
        <time>2024-11-10T14:10:07Z</time>
      </trkpt>
      <trkpt lat="42.28912" lon="3.27947">
        <ele>5.4</ele>
        <time>2024-11-10T14:10:08Z</time>
      </trkpt>
      <trkpt lat="42.28912" lon="3.27947">
        <ele>5.4</ele>
        <time>2024-11-10T14:10:09Z</time>
      </trkpt>
      <trkpt lat="42.28912" lon="3.27947">
        <ele>5.4</ele>
        <time>2024-11-10T14:10:10Z</time>
      </trkpt>
      <trkpt lat="42.28912" lon="3.27947">
        <ele>5.4</ele>
        <time>2024-11-10T14:10:11Z</time>
      </trkpt>
      <trkpt lat="42.28912" lon="3.27947">
        <ele>5.4</ele>
        <time>2024-11-10T14:10:12Z</time>
      </trkpt>
      <trkpt lat="42.28912" lon="3.27947">
        <ele>5.4</ele>
        <time>2024-11-10T14:10:13Z</time>
      </trkpt>
      <trkpt lat="42.28912" lon="3.27947">
        <ele>5.4</ele>
        <time>2024-11-10T14:10:14Z</time>
      </trkpt>
      <trkpt lat="42.28912" lon="3.27947">
        <ele>5.4</ele>
        <time>2024-11-10T14:10:15Z</time>
      </trkpt>
      <trkpt lat="42.28912" lon="3.27947">
        <ele>5.4</ele>
        <time>2024-11-10T14:10:16Z</time>
      </trkpt>
      <trkpt lat="42.28912" lon="3.27947">
        <ele>5.4</ele>
        <time>2024-11-10T14:10:17Z</time>
      </trkpt>
      <trkpt lat="42.28912" lon="3.27947">
        <ele>5.4</ele>
        <time>2024-11-10T14:10:18Z</time>
      </trkpt>
      <trkpt lat="42.28912" lon="3.27947">
        <ele>5.4</ele>
        <time>2024-11-10T14:10:19Z</time>
      </trkpt>
      <trkpt lat="42.28912" lon="3.27947">
        <ele>5.4</ele>
        <time>2024-11-10T14:10:20Z</time>
      </trkpt>
      <trkpt lat="42.28912" lon="3.27947">
        <ele>5.4</ele>
        <time>2024-11-10T14:10:21Z</time>
      </trkpt>
      <trkpt lat="42.28912" lon="3.27947">
        <ele>5.4</ele>
        <time>2024-11-10T14:10:22Z</time>
      </trkpt>
      <trkpt lat="42.28912" lon="3.27947">
        <ele>5.4</ele>
        <time>2024-11-10T14:10:23Z</time>
      </trkpt>
      <trkpt lat="42.28912" lon="3.27947">
        <ele>5.4</ele>
        <time>2024-11-10T14:10:24Z</time>
      </trkpt>
      <trkpt lat="42.28912" lon="3.27947">
        <ele>5.4</ele>
        <time>2024-11-10T14:10:25Z</time>
      </trkpt>
      <trkpt lat="42.28912" lon="3.27947">
        <ele>5.4</ele>
        <time>2024-11-10T14:10:26Z</time>
      </trkpt>
      <trkpt lat="42.28912" lon="3.27947">
        <ele>5.4</ele>
        <time>2024-11-10T14:10:27Z</time>
      </trkpt>
      <trkpt lat="42.28912" lon="3.27947">
        <ele>5.4</ele>
        <time>2024-11-10T14:10:28Z</time>
      </trkpt>
      <trkpt lat="42.28912" lon="3.27947">
        <ele>5.4</ele>
        <time>2024-11-10T14:10:29Z</time>
      </trkpt>
      <trkpt lat="42.28912" lon="3.27947">
        <ele>5.4</ele>
        <time>2024-11-10T14:10:30Z</time>
      </trkpt>
      <trkpt lat="42.28912" lon="3.27947">
        <ele>5.4</ele>
        <time>2024-11-10T14:10:31Z</time>
      </trkpt>
      <trkpt lat="42.28912" lon="3.27947">
        <ele>5.4</ele>
        <time>2024-11-10T14:10:32Z</time>
      </trkpt>
      <trkpt lat="42.28912" lon="3.27947">
        <ele>5.4</ele>
        <time>2024-11-10T14:10:33Z</time>
      </trkpt>
      <trkpt lat="42.28912" lon="3.27947">
        <ele>5.4</ele>
        <time>2024-11-10T14:10:34Z</time>
      </trkpt>
      <trkpt lat="42.28912" lon="3.27947">
        <ele>5.4</ele>
        <time>2024-11-10T14:10:35Z</time>
      </trkpt>
      <trkpt lat="42.28912" lon="3.27947">
        <ele>5.4</ele>
        <time>2024-11-10T14:10:36Z</time>
      </trkpt>
      <trkpt lat="42.28912" lon="3.27947">
        <ele>5.4</ele>
        <time>2024-11-10T14:10:37Z</time>
      </trkpt>
      <trkpt lat="42.28912" lon="3.27947">
        <ele>5.4</ele>
        <time>2024-11-10T14:10:38Z</time>
      </trkpt>
      <trkpt lat="42.28912" lon="3.27947">
        <ele>5.4</ele>
        <time>2024-11-10T14:10:39Z</time>
      </trkpt>
      <trkpt lat="42.28912" lon="3.27947">
        <ele>5.4</ele>
        <time>2024-11-10T14:10:40Z</time>
      </trkpt>
      <trkpt lat="42.28912" lon="3.27947">
        <ele>5.4</ele>
        <time>2024-11-10T14:10:41Z</time>
      </trkpt>
      <trkpt lat="42.28912" lon="3.27947">
        <ele>5.4</ele>
        <time>2024-11-10T14:10:42Z</time>
      </trkpt>
      <trkpt lat="42.28912" lon="3.27947">
        <ele>5.4</ele>
        <time>2024-11-10T14:10:43Z</time>
      </trkpt>
      <trkpt lat="42.28912" lon="3.27947">
        <ele>5.4</ele>
        <time>2024-11-10T14:10:44Z</time>
      </trkpt>
      <trkpt lat="42.28912" lon="3.27947">
        <ele>5.4</ele>
        <time>2024-11-10T14:10:45Z</time>
      </trkpt>
      <trkpt lat="42.28912" lon="3.27947">
        <ele>5.4</ele>
        <time>2024-11-10T14:10:46Z</time>
      </trkpt>
      <trkpt lat="42.28912" lon="3.27947">
        <ele>5.4</ele>
        <time>2024-11-10T14:10:47Z</time>
      </trkpt>
      <trkpt lat="42.28912" lon="3.27947">
        <ele>5.4</ele>
        <time>2024-11-10T14:10:48Z</time>
      </trkpt>
      <trkpt lat="42.28912" lon="3.27947">
        <ele>5.4</ele>
        <time>2024-11-10T14:10:49Z</time>
      </trkpt>
      <trkpt lat="42.28912" lon="3.27947">
        <ele>5.4</ele>
        <time>2024-11-10T14:10:50Z</time>
      </trkpt>
      <trkpt lat="42.28912" lon="3.27947">
        <ele>5.4</ele>
        <time>2024-11-10T14:10:51Z</time>
      </trkpt>
      <trkpt lat="42.28912" lon="3.27947">
        <ele>5.4</ele>
        <time>2024-11-10T14:10:52Z</time>
      </trkpt>
      <trkpt lat="42.28912" lon="3.27947">
        <ele>5.4</ele>
        <time>2024-11-10T14:10:53Z</time>
      </trkpt>
      <trkpt lat="42.28912" lon="3.27947">
        <ele>5.4</ele>
        <time>2024-11-10T14:10:54Z</time>
      </trkpt>
      <trkpt lat="42.28912" lon="3.27947">
        <ele>5.4</ele>
        <time>2024-11-10T14:10:55Z</time>
      </trkpt>
      <trkpt lat="42.28912" lon="3.27947">
        <ele>5.4</ele>
        <time>2024-11-10T14:10:56Z</time>
      </trkpt>
      <trkpt lat="42.28912" lon="3.27947">
        <ele>5.4</ele>
        <time>2024-11-10T14:10:57Z</time>
      </trkpt>
      <trkpt lat="42.28912" lon="3.27947">
        <ele>5.4</ele>
        <time>2024-11-10T14:10:58Z</time>
      </trkpt>
      <trkpt lat="42.28912" lon="3.27947">
        <ele>5.4</ele>
        <time>2024-11-10T14:10:59Z</time>
      </trkpt>
      <trkpt lat="42.28912" lon="3.27947">
        <ele>5.4</ele>
        <time>2024-11-10T14:11:00Z</time>
      </trkpt>
      <trkpt lat="42.28912" lon="3.27947">
        <ele>5.4</ele>
        <time>2024-11-10T14:11:01Z</time>
      </trkpt>
      <trkpt lat="42.28912" lon="3.27947">
        <ele>5.4</ele>
        <time>2024-11-10T14:11:02Z</time>
      </trkpt>
      <trkpt lat="42.28912" lon="3.27947">
        <ele>5.4</ele>
        <time>2024-11-10T14:11:03Z</time>
      </trkpt>
      <trkpt lat="42.28912" lon="3.27947">
        <ele>5.4</ele>
        <time>2024-11-10T14:11:04Z</time>
      </trkpt>
      <trkpt lat="42.28912" lon="3.27947">
        <ele>5.4</ele>
        <time>2024-11-10T14:11:05Z</time>
      </trkpt>
      <trkpt lat="42.28912" lon="3.27947">
        <ele>5.4</ele>
        <time>2024-11-10T14:11:06Z</time>
      </trkpt>
      <trkpt lat="42.28912" lon="3.27947">
        <ele>5.4</ele>
        <time>2024-11-10T14:11:07Z</time>
      </trkpt>
      <trkpt lat="42.28912" lon="3.27947">
        <ele>5.4</ele>
        <time>2024-11-10T14:11:08Z</time>
      </trkpt>
      <trkpt lat="42.28912" lon="3.27947">
        <ele>5.4</ele>
        <time>2024-11-10T14:11:09Z</time>
      </trkpt>
      <trkpt lat="42.28912" lon="3.27947">
        <ele>5.4</ele>
        <time>2024-11-10T14:11:10Z</time>
      </trkpt>
      <trkpt lat="42.28912" lon="3.27947">
        <ele>5.4</ele>
        <time>2024-11-10T14:11:11Z</time>
      </trkpt>
      <trkpt lat="42.28912" lon="3.27947">
        <ele>5.4</ele>
        <time>2024-11-10T14:11:12Z</time>
      </trkpt>
      <trkpt lat="42.28912" lon="3.27947">
        <ele>5.4</ele>
        <time>2024-11-10T14:11:13Z</time>
      </trkpt>
      <trkpt lat="42.28912" lon="3.27947">
        <ele>5.4</ele>
        <time>2024-11-10T14:11:14Z</time>
      </trkpt>
      <trkpt lat="42.28912" lon="3.27947">
        <ele>5.4</ele>
        <time>2024-11-10T14:11:15Z</time>
      </trkpt>
      <trkpt lat="42.28912" lon="3.27947">
        <ele>5.4</ele>
        <time>2024-11-10T14:11:16Z</time>
      </trkpt>
      <trkpt lat="42.28912" lon="3.27947">
        <ele>5.4</ele>
        <time>2024-11-10T14:11:17Z</time>
      </trkpt>
      <trkpt lat="42.28912" lon="3.27947">
        <ele>5.4</ele>
        <time>2024-11-10T14:11:18Z</time>
      </trkpt>
      <trkpt lat="42.28912" lon="3.27947">
        <ele>5.4</ele>
        <time>2024-11-10T14:11:19Z</time>
      </trkpt>
      <trkpt lat="42.28912" lon="3.27947">
        <ele>5.4</ele>
        <time>2024-11-10T14:11:20Z</time>
      </trkpt>
      <trkpt lat="42.28912" lon="3.27947">
        <ele>5.4</ele>
        <time>2024-11-10T14:11:21Z</time>
      </trkpt>
      <trkpt lat="42.28912" lon="3.27947">
        <ele>5.4</ele>
        <time>2024-11-10T14:11:22Z</time>
      </trkpt>
      <trkpt lat="42.28912" lon="3.27947">
        <ele>5.4</ele>
        <time>2024-11-10T14:11:23Z</time>
      </trkpt>
      <trkpt lat="42.28912" lon="3.27947">
        <ele>5.4</ele>
        <time>2024-11-10T14:11:24Z</time>
      </trkpt>
      <trkpt lat="42.28912" lon="3.27947">
        <ele>5.4</ele>
        <time>2024-11-10T14:11:25Z</time>
      </trkpt>
      <trkpt lat="42.28912" lon="3.27947">
        <ele>5.4</ele>
        <time>2024-11-10T14:11:26Z</time>
      </trkpt>
      <trkpt lat="42.28912" lon="3.27947">
        <ele>5.4</ele>
        <time>2024-11-10T14:11:27Z</time>
      </trkpt>
      <trkpt lat="42.28912" lon="3.27947">
        <ele>5.4</ele>
        <time>2024-11-10T14:11:28Z</time>
      </trkpt>
      <trkpt lat="42.28912" lon="3.27947">
        <ele>5.4</ele>
        <time>2024-11-10T14:11:29Z</time>
      </trkpt>
      <trkpt lat="42.28912" lon="3.27947">
        <ele>5.4</ele>
        <time>2024-11-10T14:11:30Z</time>
      </trkpt>
      <trkpt lat="42.28912" lon="3.27947">
        <ele>5.4</ele>
        <time>2024-11-10T14:11:31Z</time>
      </trkpt>
      <trkpt lat="42.28912" lon="3.27947">
        <ele>5.4</ele>
        <time>2024-11-10T14:11:32Z</time>
      </trkpt>
      <trkpt lat="42.28912" lon="3.27947">
        <ele>5.4</ele>
        <time>2024-11-10T14:11:33Z</time>
      </trkpt>
      <trkpt lat="42.28912" lon="3.27947">
        <ele>5.4</ele>
        <time>2024-11-10T14:11:34Z</time>
      </trkpt>
      <trkpt lat="42.28912" lon="3.27947">
        <ele>5.4</ele>
        <time>2024-11-10T14:11:35Z</time>
      </trkpt>
      <trkpt lat="42.28912" lon="3.27947">
        <ele>5.4</ele>
        <time>2024-11-10T14:11:36Z</time>
      </trkpt>
      <trkpt lat="42.28912" lon="3.27947">
        <ele>5.4</ele>
        <time>2024-11-10T14:11:37Z</time>
      </trkpt>
      <trkpt lat="42.28912" lon="3.27947">
        <ele>5.4</ele>
        <time>2024-11-10T14:11:38Z</time>
      </trkpt>
      <trkpt lat="42.28912" lon="3.27947">
        <ele>5.4</ele>
        <time>2024-11-10T14:11:39Z</time>
      </trkpt>
      <trkpt lat="42.28912" lon="3.27947">
        <ele>5.4</ele>
        <time>2024-11-10T14:11:40Z</time>
      </trkpt>
      <trkpt lat="42.28912" lon="3.27947">
        <ele>5.4</ele>
        <time>2024-11-10T14:11:41Z</time>
      </trkpt>
      <trkpt lat="42.28912" lon="3.27947">
        <ele>5.4</ele>
        <time>2024-11-10T14:11:42Z</time>
      </trkpt>
      <trkpt lat="42.28912" lon="3.27947">
        <ele>5.4</ele>
        <time>2024-11-10T14:11:43Z</time>
      </trkpt>
      <trkpt lat="42.28912" lon="3.27947">
        <ele>5.4</ele>
        <time>2024-11-10T14:11:44Z</time>
      </trkpt>
      <trkpt lat="42.28912" lon="3.27947">
        <ele>5.4</ele>
        <time>2024-11-10T14:11:45Z</time>
      </trkpt>
      <trkpt lat="42.28912" lon="3.27947">
        <ele>5.4</ele>
        <time>2024-11-10T14:11:46Z</time>
      </trkpt>
      <trkpt lat="42.28912" lon="3.27947">
        <ele>5.4</ele>
        <time>2024-11-10T14:11:47Z</time>
      </trkpt>
      <trkpt lat="42.28912" lon="3.27947">
        <ele>5.4</ele>
        <time>2024-11-10T14:11:48Z</time>
      </trkpt>
      <trkpt lat="42.28912" lon="3.27947">
        <ele>5.4</ele>
        <time>2024-11-10T14:11:49Z</time>
      </trkpt>
      <trkpt lat="42.28912" lon="3.27947">
        <ele>5.4</ele>
        <time>2024-11-10T14:11:50Z</time>
      </trkpt>
      <trkpt lat="42.28912" lon="3.27947">
        <ele>5.4</ele>
        <time>2024-11-10T14:11:51Z</time>
      </trkpt>
      <trkpt lat="42.28912" lon="3.27947">
        <ele>5.4</ele>
        <time>2024-11-10T14:11:52Z</time>
      </trkpt>
      <trkpt lat="42.28912" lon="3.27947">
        <ele>5.4</ele>
        <time>2024-11-10T14:11:53Z</time>
      </trkpt>
      <trkpt lat="42.28912" lon="3.27947">
        <ele>5.4</ele>
        <time>2024-11-10T14:11:54Z</time>
      </trkpt>
      <trkpt lat="42.28912" lon="3.27947">
        <ele>5.4</ele>
        <time>2024-11-10T14:11:55Z</time>
      </trkpt>
      <trkpt lat="42.28912" lon="3.27947">
        <ele>5.4</ele>
        <time>2024-11-10T14:11:56Z</time>
      </trkpt>
      <trkpt lat="42.28912" lon="3.27947">
        <ele>5.4</ele>
        <time>2024-11-10T14:11:57Z</time>
      </trkpt>
      <trkpt lat="42.28912" lon="3.27947">
        <ele>5.4</ele>
        <time>2024-11-10T14:11:58Z</time>
      </trkpt>
      <trkpt lat="42.28912" lon="3.27947">
        <ele>5.4</ele>
        <time>2024-11-10T14:11:59Z</time>
      </trkpt>
      <trkpt lat="42.28912" lon="3.27947">
        <ele>5.4</ele>
        <time>2024-11-10T14:12:00Z</time>
      </trkpt>
      <trkpt lat="42.28912" lon="3.27947">
        <ele>5.4</ele>
        <time>2024-11-10T14:12:01Z</time>
      </trkpt>
      <trkpt lat="42.28912" lon="3.27947">
        <ele>5.4</ele>
        <time>2024-11-10T14:12:02Z</time>
      </trkpt>
      <trkpt lat="42.28912" lon="3.27947">
        <ele>5.4</ele>
        <time>2024-11-10T14:12:03Z</time>
      </trkpt>
      <trkpt lat="42.28912" lon="3.27947">
        <ele>5.4</ele>
        <time>2024-11-10T14:12:04Z</time>
      </trkpt>
      <trkpt lat="42.28912" lon="3.27947">
        <ele>5.4</ele>
        <time>2024-11-10T14:12:05Z</time>
      </trkpt>
      <trkpt lat="42.28912" lon="3.27947">
        <ele>5.4</ele>
        <time>2024-11-10T14:12:06Z</time>
      </trkpt>
      <trkpt lat="42.28912" lon="3.27947">
        <ele>5.4</ele>
        <time>2024-11-10T14:12:07Z</time>
      </trkpt>
      <trkpt lat="42.28912" lon="3.27947">
        <ele>5.4</ele>
        <time>2024-11-10T14:12:08Z</time>
      </trkpt>
      <trkpt lat="42.28912" lon="3.27947">
        <ele>5.4</ele>
        <time>2024-11-10T14:12:09Z</time>
      </trkpt>
      <trkpt lat="42.28912" lon="3.27947">
        <ele>5.4</ele>
        <time>2024-11-10T14:12:10Z</time>
      </trkpt>
      <trkpt lat="42.28912" lon="3.27947">
        <ele>5.4</ele>
        <time>2024-11-10T14:12:11Z</time>
      </trkpt>
      <trkpt lat="42.28912" lon="3.27947">
        <ele>5.4</ele>
        <time>2024-11-10T14:12:12Z</time>
      </trkpt>
      <trkpt lat="42.28912" lon="3.27947">
        <ele>5.4</ele>
        <time>2024-11-10T14:12:13Z</time>
      </trkpt>
      <trkpt lat="42.28912" lon="3.27947">
        <ele>5.4</ele>
        <time>2024-11-10T14:12:14Z</time>
      </trkpt>
      <trkpt lat="42.28912" lon="3.27947">
        <ele>5.4</ele>
        <time>2024-11-10T14:12:15Z</time>
      </trkpt>
      <trkpt lat="42.28912" lon="3.27947">
        <ele>5.4</ele>
        <time>2024-11-10T14:12:16Z</time>
      </trkpt>
      <trkpt lat="42.28912" lon="3.27947">
        <ele>5.4</ele>
        <time>2024-11-10T14:12:17Z</time>
      </trkpt>
      <trkpt lat="42.28912" lon="3.27947">
        <ele>5.4</ele>
        <time>2024-11-10T14:12:18Z</time>
      </trkpt>
      <trkpt lat="42.28912" lon="3.27947">
        <ele>5.4</ele>
        <time>2024-11-10T14:12:19Z</time>
      </trkpt>
      <trkpt lat="42.28912" lon="3.27947">
        <ele>5.4</ele>
        <time>2024-11-10T14:12:20Z</time>
      </trkpt>
      <trkpt lat="42.28912" lon="3.27947">
        <ele>5.4</ele>
        <time>2024-11-10T14:12:21Z</time>
      </trkpt>
      <trkpt lat="42.28912" lon="3.27947">
        <ele>5.4</ele>
        <time>2024-11-10T14:12:22Z</time>
      </trkpt>
      <trkpt lat="42.28912" lon="3.27947">
        <ele>5.4</ele>
        <time>2024-11-10T14:12:23Z</time>
      </trkpt>
      <trkpt lat="42.28912" lon="3.27947">
        <ele>5.4</ele>
        <time>2024-11-10T14:12:24Z</time>
      </trkpt>
      <trkpt lat="42.28912" lon="3.27947">
        <ele>5.4</ele>
        <time>2024-11-10T14:12:25Z</time>
      </trkpt>
      <trkpt lat="42.28912" lon="3.27947">
        <ele>5.4</ele>
        <time>2024-11-10T14:12:26Z</time>
      </trkpt>
      <trkpt lat="42.28912" lon="3.27947">
        <ele>5.4</ele>
        <time>2024-11-10T14:12:27Z</time>
      </trkpt>
      <trkpt lat="42.28912" lon="3.27947">
        <ele>5.4</ele>
        <time>2024-11-10T14:12:28Z</time>
      </trkpt>
      <trkpt lat="42.28912" lon="3.27947">
        <ele>5.4</ele>
        <time>2024-11-10T14:12:29Z</time>
      </trkpt>
      <trkpt lat="42.28912" lon="3.27947">
        <ele>5.4</ele>
        <time>2024-11-10T14:12:30Z</time>
      </trkpt>
      <trkpt lat="42.28912" lon="3.27947">
        <ele>5.4</ele>
        <time>2024-11-10T14:12:31Z</time>
      </trkpt>
      <trkpt lat="42.28912" lon="3.27947">
        <ele>5.4</ele>
        <time>2024-11-10T14:12:32Z</time>
      </trkpt>
      <trkpt lat="42.28912" lon="3.27947">
        <ele>5.4</ele>
        <time>2024-11-10T14:12:33Z</time>
      </trkpt>
      <trkpt lat="42.28912" lon="3.27947">
        <ele>5.4</ele>
        <time>2024-11-10T14:12:34Z</time>
      </trkpt>
      <trkpt lat="42.28912" lon="3.27947">
        <ele>5.4</ele>
        <time>2024-11-10T14:12:35Z</time>
      </trkpt>
      <trkpt lat="42.28912" lon="3.27947">
        <ele>5.4</ele>
        <time>2024-11-10T14:12:36Z</time>
      </trkpt>
      <trkpt lat="42.28912" lon="3.27947">
        <ele>5.4</ele>
        <time>2024-11-10T14:12:37Z</time>
      </trkpt>
      <trkpt lat="42.28912" lon="3.27947">
        <ele>5.4</ele>
        <time>2024-11-10T14:12:38Z</time>
      </trkpt>
      <trkpt lat="42.28912" lon="3.27947">
        <ele>5.4</ele>
        <time>2024-11-10T14:12:39Z</time>
      </trkpt>
      <trkpt lat="42.28912" lon="3.27947">
        <ele>5.4</ele>
        <time>2024-11-10T14:12:40Z</time>
      </trkpt>
      <trkpt lat="42.28912" lon="3.27947">
        <ele>5.4</ele>
        <time>2024-11-10T14:12:41Z</time>
      </trkpt>
      <trkpt lat="42.28912" lon="3.27947">
        <ele>5.4</ele>
        <time>2024-11-10T14:12:42Z</time>
      </trkpt>
      <trkpt lat="42.28912" lon="3.27947">
        <ele>5.4</ele>
        <time>2024-11-10T14:12:43Z</time>
      </trkpt>
      <trkpt lat="42.28912" lon="3.27947">
        <ele>5.4</ele>
        <time>2024-11-10T14:12:44Z</time>
      </trkpt>
      <trkpt lat="42.28912" lon="3.27947">
        <ele>5.4</ele>
        <time>2024-11-10T14:12:45Z</time>
      </trkpt>
      <trkpt lat="42.28912" lon="3.27947">
        <ele>5.4</ele>
        <time>2024-11-10T14:12:46Z</time>
      </trkpt>
      <trkpt lat="42.28912" lon="3.27947">
        <ele>5.4</ele>
        <time>2024-11-10T14:12:47Z</time>
      </trkpt>
      <trkpt lat="42.28912" lon="3.27947">
        <ele>5.4</ele>
        <time>2024-11-10T14:12:48Z</time>
      </trkpt>
      <trkpt lat="42.28912" lon="3.27947">
        <ele>5.4</ele>
        <time>2024-11-10T14:12:49Z</time>
      </trkpt>
      <trkpt lat="42.28912" lon="3.27947">
        <ele>5.4</ele>
        <time>2024-11-10T14:12:50Z</time>
      </trkpt>
      <trkpt lat="42.28912" lon="3.27947">
        <ele>5.4</ele>
        <time>2024-11-10T14:12:51Z</time>
      </trkpt>
      <trkpt lat="42.28912" lon="3.27947">
        <ele>5.4</ele>
        <time>2024-11-10T14:12:52Z</time>
      </trkpt>
      <trkpt lat="42.28912" lon="3.27947">
        <ele>5.4</ele>
        <time>2024-11-10T14:12:53Z</time>
      </trkpt>
      <trkpt lat="42.28912" lon="3.27947">
        <ele>5.4</ele>
        <time>2024-11-10T14:12:54Z</time>
      </trkpt>
      <trkpt lat="42.28912" lon="3.27947">
        <ele>5.4</ele>
        <time>2024-11-10T14:12:55Z</time>
      </trkpt>
      <trkpt lat="42.28912" lon="3.27947">
        <ele>5.4</ele>
        <time>2024-11-10T14:12:56Z</time>
      </trkpt>
      <trkpt lat="42.28912" lon="3.27947">
        <ele>5.4</ele>
        <time>2024-11-10T14:12:57Z</time>
      </trkpt>
      <trkpt lat="42.28912" lon="3.27947">
        <ele>5.4</ele>
        <time>2024-11-10T14:12:58Z</time>
      </trkpt>
      <trkpt lat="42.28912" lon="3.27947">
        <ele>5.4</ele>
        <time>2024-11-10T14:12:59Z</time>
      </trkpt>
      <trkpt lat="42.28912" lon="3.27947">
        <ele>5.4</ele>
        <time>2024-11-10T14:13:00Z</time>
      </trkpt>
      <trkpt lat="42.28912" lon="3.27947">
        <ele>5.4</ele>
        <time>2024-11-10T14:13:01Z</time>
      </trkpt>
      <trkpt lat="42.28912" lon="3.27947">
        <ele>5.4</ele>
        <time>2024-11-10T14:13:02Z</time>
      </trkpt>
      <trkpt lat="42.28912" lon="3.27947">
        <ele>5.4</ele>
        <time>2024-11-10T14:13:03Z</time>
      </trkpt>
      <trkpt lat="42.28912" lon="3.27947">
        <ele>5.4</ele>
        <time>2024-11-10T14:13:04Z</time>
      </trkpt>
      <trkpt lat="42.28912" lon="3.27947">
        <ele>5.4</ele>
        <time>2024-11-10T14:13:05Z</time>
      </trkpt>
      <trkpt lat="42.28912" lon="3.27947">
        <ele>5.4</ele>
        <time>2024-11-10T14:13:06Z</time>
      </trkpt>
      <trkpt lat="42.28912" lon="3.27947">
        <ele>5.4</ele>
        <time>2024-11-10T14:13:07Z</time>
      </trkpt>
      <trkpt lat="42.28912" lon="3.27947">
        <ele>5.4</ele>
        <time>2024-11-10T14:13:08Z</time>
      </trkpt>
      <trkpt lat="42.28912" lon="3.27947">
        <ele>5.4</ele>
        <time>2024-11-10T14:13:09Z</time>
      </trkpt>
      <trkpt lat="42.28912" lon="3.27947">
        <ele>5.4</ele>
        <time>2024-11-10T14:13:10Z</time>
      </trkpt>
      <trkpt lat="42.28912" lon="3.27947">
        <ele>5.4</ele>
        <time>2024-11-10T14:13:11Z</time>
      </trkpt>
      <trkpt lat="42.28912" lon="3.27947">
        <ele>5.4</ele>
        <time>2024-11-10T14:13:12Z</time>
      </trkpt>
      <trkpt lat="42.28912" lon="3.27947">
        <ele>5.4</ele>
        <time>2024-11-10T14:13:13Z</time>
      </trkpt>
      <trkpt lat="42.28912" lon="3.27947">
        <ele>5.4</ele>
        <time>2024-11-10T14:13:14Z</time>
      </trkpt>
      <trkpt lat="42.28912" lon="3.27947">
        <ele>5.4</ele>
        <time>2024-11-10T14:13:15Z</time>
      </trkpt>
      <trkpt lat="42.28912" lon="3.27947">
        <ele>5.4</ele>
        <time>2024-11-10T14:13:16Z</time>
      </trkpt>
      <trkpt lat="42.28912" lon="3.27947">
        <ele>5.4</ele>
        <time>2024-11-10T14:13:17Z</time>
      </trkpt>
      <trkpt lat="42.28912" lon="3.27947">
        <ele>5.4</ele>
        <time>2024-11-10T14:13:18Z</time>
      </trkpt>
      <trkpt lat="42.28912" lon="3.27947">
        <ele>5.4</ele>
        <time>2024-11-10T14:13:19Z</time>
      </trkpt>
      <trkpt lat="42.28912" lon="3.27947">
        <ele>5.4</ele>
        <time>2024-11-10T14:13:20Z</time>
      </trkpt>
      <trkpt lat="42.28912" lon="3.27947">
        <ele>5.4</ele>
        <time>2024-11-10T14:13:21Z</time>
      </trkpt>
      <trkpt lat="42.28912" lon="3.27947">
        <ele>5.4</ele>
        <time>2024-11-10T14:13:22Z</time>
      </trkpt>
      <trkpt lat="42.28912" lon="3.27947">
        <ele>5.4</ele>
        <time>2024-11-10T14:13:23Z</time>
      </trkpt>
      <trkpt lat="42.28912" lon="3.27947">
        <ele>5.4</ele>
        <time>2024-11-10T14:13:24Z</time>
      </trkpt>
      <trkpt lat="42.28912" lon="3.27947">
        <ele>5.4</ele>
        <time>2024-11-10T14:13:25Z</time>
      </trkpt>
      <trkpt lat="42.28912" lon="3.27947">
        <ele>5.4</ele>
        <time>2024-11-10T14:13:26Z</time>
      </trkpt>
      <trkpt lat="42.28912" lon="3.27947">
        <ele>5.4</ele>
        <time>2024-11-10T14:13:27Z</time>
      </trkpt>
      <trkpt lat="42.28912" lon="3.27947">
        <ele>5.4</ele>
        <time>2024-11-10T14:13:28Z</time>
      </trkpt>
      <trkpt lat="42.28912" lon="3.27947">
        <ele>5.4</ele>
        <time>2024-11-10T14:13:29Z</time>
      </trkpt>
      <trkpt lat="42.28912" lon="3.27947">
        <ele>5.4</ele>
        <time>2024-11-10T14:13:30Z</time>
      </trkpt>
      <trkpt lat="42.28912" lon="3.27947">
        <ele>5.4</ele>
        <time>2024-11-10T14:13:31Z</time>
      </trkpt>
      <trkpt lat="42.28912" lon="3.27947">
        <ele>5.4</ele>
        <time>2024-11-10T14:13:32Z</time>
      </trkpt>
      <trkpt lat="42.28912" lon="3.27947">
        <ele>5.4</ele>
        <time>2024-11-10T14:13:33Z</time>
      </trkpt>
      <trkpt lat="42.28912" lon="3.27947">
        <ele>5.4</ele>
        <time>2024-11-10T14:13:34Z</time>
      </trkpt>
      <trkpt lat="42.28912" lon="3.27947">
        <ele>5.4</ele>
        <time>2024-11-10T14:13:35Z</time>
      </trkpt>
      <trkpt lat="42.28912" lon="3.27947">
        <ele>5.4</ele>
        <time>2024-11-10T14:13:36Z</time>
      </trkpt>
      <trkpt lat="42.28912" lon="3.27947">
        <ele>5.4</ele>
        <time>2024-11-10T14:13:37Z</time>
      </trkpt>
      <trkpt lat="42.28912" lon="3.27947">
        <ele>5.4</ele>
        <time>2024-11-10T14:13:38Z</time>
      </trkpt>
      <trkpt lat="42.28912" lon="3.27947">
        <ele>5.4</ele>
        <time>2024-11-10T14:13:39Z</time>
      </trkpt>
      <trkpt lat="42.28912" lon="3.27947">
        <ele>5.4</ele>
        <time>2024-11-10T14:13:40Z</time>
      </trkpt>
      <trkpt lat="42.28912" lon="3.27947">
        <ele>5.4</ele>
        <time>2024-11-10T14:13:41Z</time>
      </trkpt>
      <trkpt lat="42.28912" lon="3.27947">
        <ele>5.4</ele>
        <time>2024-11-10T14:13:42Z</time>
      </trkpt>
      <trkpt lat="42.28912" lon="3.27947">
        <ele>5.4</ele>
        <time>2024-11-10T14:13:43Z</time>
      </trkpt>
      <trkpt lat="42.28912" lon="3.27947">
        <ele>5.4</ele>
        <time>2024-11-10T14:13:44Z</time>
      </trkpt>
      <trkpt lat="42.28912" lon="3.27947">
        <ele>5.4</ele>
        <time>2024-11-10T14:13:45Z</time>
      </trkpt>
      <trkpt lat="42.28912" lon="3.27947">
        <ele>5.4</ele>
        <time>2024-11-10T14:13:46Z</time>
      </trkpt>
      <trkpt lat="42.28912" lon="3.27947">
        <ele>5.4</ele>
        <time>2024-11-10T14:13:47Z</time>
      </trkpt>
      <trkpt lat="42.28912" lon="3.27947">
        <ele>5.4</ele>
        <time>2024-11-10T14:13:48Z</time>
      </trkpt>
      <trkpt lat="42.28912" lon="3.27947">
        <ele>5.4</ele>
        <time>2024-11-10T14:13:49Z</time>
      </trkpt>
      <trkpt lat="42.28912" lon="3.27947">
        <ele>5.4</ele>
        <time>2024-11-10T14:13:50Z</time>
      </trkpt>
      <trkpt lat="42.28912" lon="3.27947">
        <ele>5.4</ele>
        <time>2024-11-10T14:13:51Z</time>
      </trkpt>
      <trkpt lat="42.28912" lon="3.27947">
        <ele>5.4</ele>
        <time>2024-11-10T14:13:52Z</time>
      </trkpt>
      <trkpt lat="42.28912" lon="3.27947">
        <ele>5.4</ele>
        <time>2024-11-10T14:13:53Z</time>
      </trkpt>
      <trkpt lat="42.28912" lon="3.27947">
        <ele>5.4</ele>
        <time>2024-11-10T14:13:54Z</time>
      </trkpt>
      <trkpt lat="42.28912" lon="3.27947">
        <ele>5.4</ele>
        <time>2024-11-10T14:13:55Z</time>
      </trkpt>
      <trkpt lat="42.28912" lon="3.27947">
        <ele>5.4</ele>
        <time>2024-11-10T14:13:56Z</time>
      </trkpt>
      <trkpt lat="42.28912" lon="3.27947">
        <ele>5.4</ele>
        <time>2024-11-10T14:13:57Z</time>
      </trkpt>
      <trkpt lat="42.28912" lon="3.27947">
        <ele>5.4</ele>
        <time>2024-11-10T14:13:58Z</time>
      </trkpt>
      <trkpt lat="42.28912" lon="3.27947">
        <ele>5.4</ele>
        <time>2024-11-10T14:13:59Z</time>
      </trkpt>
      <trkpt lat="42.28912" lon="3.27947">
        <ele>5.4</ele>
        <time>2024-11-10T14:14:00Z</time>
      </trkpt>
      <trkpt lat="42.28912" lon="3.27947">
        <ele>5.4</ele>
        <time>2024-11-10T14:14:01Z</time>
      </trkpt>
      <trkpt lat="42.28912" lon="3.27947">
        <ele>5.4</ele>
        <time>2024-11-10T14:14:02Z</time>
      </trkpt>
      <trkpt lat="42.28912" lon="3.27947">
        <ele>5.4</ele>
        <time>2024-11-10T14:14:03Z</time>
      </trkpt>
      <trkpt lat="42.28912" lon="3.27947">
        <ele>5.4</ele>
        <time>2024-11-10T14:14:04Z</time>
      </trkpt>
      <trkpt lat="42.28912" lon="3.27947">
        <ele>5.4</ele>
        <time>2024-11-10T14:14:05Z</time>
      </trkpt>
      <trkpt lat="42.28912" lon="3.27947">
        <ele>5.4</ele>
        <time>2024-11-10T14:14:06Z</time>
      </trkpt>
      <trkpt lat="42.28912" lon="3.27947">
        <ele>5.4</ele>
        <time>2024-11-10T14:14:07Z</time>
      </trkpt>
      <trkpt lat="42.28912" lon="3.27947">
        <ele>5.4</ele>
        <time>2024-11-10T14:14:08Z</time>
      </trkpt>
      <trkpt lat="42.28912" lon="3.27947">
        <ele>5.4</ele>
        <time>2024-11-10T14:14:09Z</time>
      </trkpt>
      <trkpt lat="42.28912" lon="3.27947">
        <ele>5.4</ele>
        <time>2024-11-10T14:14:10Z</time>
      </trkpt>
      <trkpt lat="42.28912" lon="3.27947">
        <ele>5.4</ele>
        <time>2024-11-10T14:14:11Z</time>
      </trkpt>
      <trkpt lat="42.28912" lon="3.27947">
        <ele>5.4</ele>
        <time>2024-11-10T14:14:12Z</time>
      </trkpt>
      <trkpt lat="42.28912" lon="3.27947">
        <ele>5.4</ele>
        <time>2024-11-10T14:14:13Z</time>
      </trkpt>
      <trkpt lat="42.28912" lon="3.27947">
        <ele>5.4</ele>
        <time>2024-11-10T14:14:14Z</time>
      </trkpt>
      <trkpt lat="42.28912" lon="3.27947">
        <ele>5.4</ele>
        <time>2024-11-10T14:14:15Z</time>
      </trkpt>
      <trkpt lat="42.28912" lon="3.27947">
        <ele>5.4</ele>
        <time>2024-11-10T14:14:16Z</time>
      </trkpt>
      <trkpt lat="42.28912" lon="3.27947">
        <ele>5.4</ele>
        <time>2024-11-10T14:14:17Z</time>
      </trkpt>
      <trkpt lat="42.28912" lon="3.27947">
        <ele>5.4</ele>
        <time>2024-11-10T14:14:18Z</time>
      </trkpt>
      <trkpt lat="42.28912" lon="3.27947">
        <ele>5.4</ele>
        <time>2024-11-10T14:14:19Z</time>
      </trkpt>
      <trkpt lat="42.28912" lon="3.27947">
        <ele>5.4</ele>
        <time>2024-11-10T14:14:20Z</time>
      </trkpt>
      <trkpt lat="42.28912" lon="3.27947">
        <ele>5.4</ele>
        <time>2024-11-10T14:14:21Z</time>
      </trkpt>
      <trkpt lat="42.28912" lon="3.27947">
        <ele>5.4</ele>
        <time>2024-11-10T14:14:22Z</time>
      </trkpt>
      <trkpt lat="42.28912" lon="3.27947">
        <ele>5.4</ele>
        <time>2024-11-10T14:14:23Z</time>
      </trkpt>
      <trkpt lat="42.28912" lon="3.27947">
        <ele>5.4</ele>
        <time>2024-11-10T14:14:24Z</time>
      </trkpt>
      <trkpt lat="42.28912" lon="3.27947">
        <ele>5.4</ele>
        <time>2024-11-10T14:14:25Z</time>
      </trkpt>
      <trkpt lat="42.28912" lon="3.27947">
        <ele>5.4</ele>
        <time>2024-11-10T14:14:26Z</time>
      </trkpt>
      <trkpt lat="42.28912" lon="3.27947">
        <ele>5.4</ele>
        <time>2024-11-10T14:14:27Z</time>
      </trkpt>
      <trkpt lat="42.28912" lon="3.27947">
        <ele>5.4</ele>
        <time>2024-11-10T14:14:28Z</time>
      </trkpt>
      <trkpt lat="42.28912" lon="3.27947">
        <ele>5.4</ele>
        <time>2024-11-10T14:14:29Z</time>
      </trkpt>
      <trkpt lat="42.28912" lon="3.27947">
        <ele>5.4</ele>
        <time>2024-11-10T14:14:30Z</time>
      </trkpt>
      <trkpt lat="42.28912" lon="3.27947">
        <ele>5.4</ele>
        <time>2024-11-10T14:14:31Z</time>
      </trkpt>
      <trkpt lat="42.28912" lon="3.27947">
        <ele>5.4</ele>
        <time>2024-11-10T14:14:32Z</time>
      </trkpt>
      <trkpt lat="42.28912" lon="3.27947">
        <ele>5.4</ele>
        <time>2024-11-10T14:14:33Z</time>
      </trkpt>
      <trkpt lat="42.28912" lon="3.27947">
        <ele>5.4</ele>
        <time>2024-11-10T14:14:34Z</time>
      </trkpt>
      <trkpt lat="42.28912" lon="3.27947">
        <ele>5.4</ele>
        <time>2024-11-10T14:14:35Z</time>
      </trkpt>
      <trkpt lat="42.28912" lon="3.27947">
        <ele>5.4</ele>
        <time>2024-11-10T14:14:36Z</time>
      </trkpt>
      <trkpt lat="42.28912" lon="3.27947">
        <ele>5.4</ele>
        <time>2024-11-10T14:14:37Z</time>
      </trkpt>
      <trkpt lat="42.28912" lon="3.27947">
        <ele>5.4</ele>
        <time>2024-11-10T14:14:38Z</time>
      </trkpt>
      <trkpt lat="42.28912" lon="3.27947">
        <ele>5.4</ele>
        <time>2024-11-10T14:14:39Z</time>
      </trkpt>
      <trkpt lat="42.28912" lon="3.27947">
        <ele>5.4</ele>
        <time>2024-11-10T14:14:40Z</time>
      </trkpt>
      <trkpt lat="42.28912" lon="3.27947">
        <ele>5.4</ele>
        <time>2024-11-10T14:14:41Z</time>
      </trkpt>
      <trkpt lat="42.28912" lon="3.27947">
        <ele>5.4</ele>
        <time>2024-11-10T14:14:42Z</time>
      </trkpt>
      <trkpt lat="42.28912" lon="3.27947">
        <ele>5.4</ele>
        <time>2024-11-10T14:14:43Z</time>
      </trkpt>
      <trkpt lat="42.28912" lon="3.27947">
        <ele>5.4</ele>
        <time>2024-11-10T14:14:44Z</time>
      </trkpt>
      <trkpt lat="42.28912" lon="3.27947">
        <ele>5.4</ele>
        <time>2024-11-10T14:14:45Z</time>
      </trkpt>
      <trkpt lat="42.28912" lon="3.27947">
        <ele>5.4</ele>
        <time>2024-11-10T14:14:46Z</time>
      </trkpt>
      <trkpt lat="42.28912" lon="3.27947">
        <ele>5.4</ele>
        <time>2024-11-10T14:14:47Z</time>
      </trkpt>
      <trkpt lat="42.28912" lon="3.27947">
        <ele>5.4</ele>
        <time>2024-11-10T14:14:48Z</time>
      </trkpt>
      <trkpt lat="42.28912" lon="3.27947">
        <ele>5.4</ele>
        <time>2024-11-10T14:14:49Z</time>
      </trkpt>
      <trkpt lat="42.28912" lon="3.27947">
        <ele>5.4</ele>
        <time>2024-11-10T14:14:50Z</time>
      </trkpt>
      <trkpt lat="42.28912" lon="3.27947">
        <ele>5.4</ele>
        <time>2024-11-10T14:14:51Z</time>
      </trkpt>
      <trkpt lat="42.28912" lon="3.27947">
        <ele>5.4</ele>
        <time>2024-11-10T14:14:52Z</time>
      </trkpt>
      <trkpt lat="42.28912" lon="3.27947">
        <ele>5.4</ele>
        <time>2024-11-10T14:14:53Z</time>
      </trkpt>
      <trkpt lat="42.28912" lon="3.27947">
        <ele>5.4</ele>
        <time>2024-11-10T14:14:54Z</time>
      </trkpt>
      <trkpt lat="42.28912" lon="3.27947">
        <ele>5.4</ele>
        <time>2024-11-10T14:14:55Z</time>
      </trkpt>
      <trkpt lat="42.28912" lon="3.27947">
        <ele>5.4</ele>
        <time>2024-11-10T14:14:56Z</time>
      </trkpt>
      <trkpt lat="42.28912" lon="3.27947">
        <ele>5.4</ele>
        <time>2024-11-10T14:14:57Z</time>
      </trkpt>
      <trkpt lat="42.28912" lon="3.27947">
        <ele>5.4</ele>
        <time>2024-11-10T14:14:58Z</time>
      </trkpt>
      <trkpt lat="42.28912" lon="3.27947">
        <ele>5.4</ele>
        <time>2024-11-10T14:14:59Z</time>
      </trkpt>
      <trkpt lat="42.28912" lon="3.27947">
        <ele>5.4</ele>
        <time>2024-11-10T14:15:00Z</time>
      </trkpt>
      <trkpt lat="42.28912" lon="3.27947">
        <ele>5.4</ele>
        <time>2024-11-10T14:15:01Z</time>
      </trkpt>
      <trkpt lat="42.28912" lon="3.27947">
        <ele>5.4</ele>
        <time>2024-11-10T14:15:02Z</time>
      </trkpt>
      <trkpt lat="42.28912" lon="3.27947">
        <ele>5.4</ele>
        <time>2024-11-10T14:15:03Z</time>
      </trkpt>
      <trkpt lat="42.28912" lon="3.27947">
        <ele>5.4</ele>
        <time>2024-11-10T14:15:04Z</time>
      </trkpt>
      <trkpt lat="42.28912" lon="3.27947">
        <ele>5.4</ele>
        <time>2024-11-10T14:15:05Z</time>
      </trkpt>
      <trkpt lat="42.28912" lon="3.27947">
        <ele>5.4</ele>
        <time>2024-11-10T14:15:06Z</time>
      </trkpt>
      <trkpt lat="42.28912" lon="3.27947">
        <ele>5.4</ele>
        <time>2024-11-10T14:15:07Z</time>
      </trkpt>
      <trkpt lat="42.28912" lon="3.27947">
        <ele>5.4</ele>
        <time>2024-11-10T14:15:08Z</time>
      </trkpt>
      <trkpt lat="42.28912" lon="3.27947">
        <ele>5.4</ele>
        <time>2024-11-10T14:15:09Z</time>
      </trkpt>
      <trkpt lat="42.28912" lon="3.27947">
        <ele>5.4</ele>
        <time>2024-11-10T14:15:10Z</time>
      </trkpt>
      <trkpt lat="42.28912" lon="3.27947">
        <ele>5.4</ele>
        <time>2024-11-10T14:15:11Z</time>
      </trkpt>
      <trkpt lat="42.28912" lon="3.27947">
        <ele>5.4</ele>
        <time>2024-11-10T14:15:12Z</time>
      </trkpt>
      <trkpt lat="42.28912" lon="3.27947">
        <ele>5.4</ele>
        <time>2024-11-10T14:15:13Z</time>
      </trkpt>
      <trkpt lat="42.28912" lon="3.27947">
        <ele>5.4</ele>
        <time>2024-11-10T14:15:14Z</time>
      </trkpt>
      <trkpt lat="42.28912" lon="3.27947">
        <ele>5.4</ele>
        <time>2024-11-10T14:15:15Z</time>
      </trkpt>
      <trkpt lat="42.28912" lon="3.27947">
        <ele>5.4</ele>
        <time>2024-11-10T14:15:16Z</time>
      </trkpt>
      <trkpt lat="42.28912" lon="3.27947">
        <ele>5.4</ele>
        <time>2024-11-10T14:15:17Z</time>
      </trkpt>
      <trkpt lat="42.28912" lon="3.27947">
        <ele>5.4</ele>
        <time>2024-11-10T14:15:18Z</time>
      </trkpt>
      <trkpt lat="42.28912" lon="3.27947">
        <ele>5.4</ele>
        <time>2024-11-10T14:15:19Z</time>
      </trkpt>
      <trkpt lat="42.28912" lon="3.27947">
        <ele>5.4</ele>
        <time>2024-11-10T14:15:20Z</time>
      </trkpt>
      <trkpt lat="42.28912" lon="3.27947">
        <ele>5.4</ele>
        <time>2024-11-10T14:15:21Z</time>
      </trkpt>
      <trkpt lat="42.28912" lon="3.27947">
        <ele>5.4</ele>
        <time>2024-11-10T14:15:22Z</time>
      </trkpt>
      <trkpt lat="42.28912" lon="3.27947">
        <ele>5.4</ele>
        <time>2024-11-10T14:15:23Z</time>
      </trkpt>
      <trkpt lat="42.28912" lon="3.27947">
        <ele>5.4</ele>
        <time>2024-11-10T14:15:24Z</time>
      </trkpt>
      <trkpt lat="42.28912" lon="3.27947">
        <ele>5.4</ele>
        <time>2024-11-10T14:15:25Z</time>
      </trkpt>
      <trkpt lat="42.28912" lon="3.27947">
        <ele>5.4</ele>
        <time>2024-11-10T14:15:26Z</time>
      </trkpt>
      <trkpt lat="42.28912" lon="3.27947">
        <ele>5.4</ele>
        <time>2024-11-10T14:15:27Z</time>
      </trkpt>
      <trkpt lat="42.28912" lon="3.27947">
        <ele>5.4</ele>
        <time>2024-11-10T14:15:28Z</time>
      </trkpt>
      <trkpt lat="42.28912" lon="3.27947">
        <ele>5.4</ele>
        <time>2024-11-10T14:15:29Z</time>
      </trkpt>
      <trkpt lat="42.28912" lon="3.27947">
        <ele>5.4</ele>
        <time>2024-11-10T14:15:30Z</time>
      </trkpt>
      <trkpt lat="42.28912" lon="3.27947">
        <ele>5.4</ele>
        <time>2024-11-10T14:15:31Z</time>
      </trkpt>
      <trkpt lat="42.28912" lon="3.27947">
        <ele>5.4</ele>
        <time>2024-11-10T14:15:32Z</time>
      </trkpt>
      <trkpt lat="42.28912" lon="3.27947">
        <ele>5.4</ele>
        <time>2024-11-10T14:15:33Z</time>
      </trkpt>
      <trkpt lat="42.28912" lon="3.27947">
        <ele>5.4</ele>
        <time>2024-11-10T14:15:34Z</time>
      </trkpt>
      <trkpt lat="42.28912" lon="3.27947">
        <ele>5.4</ele>
        <time>2024-11-10T14:15:35Z</time>
      </trkpt>
      <trkpt lat="42.28912" lon="3.27947">
        <ele>5.4</ele>
        <time>2024-11-10T14:15:36Z</time>
      </trkpt>
      <trkpt lat="42.28912" lon="3.27947">
        <ele>5.4</ele>
        <time>2024-11-10T14:15:37Z</time>
      </trkpt>
      <trkpt lat="42.28912" lon="3.27947">
        <ele>5.4</ele>
        <time>2024-11-10T14:15:38Z</time>
      </trkpt>
      <trkpt lat="42.28912" lon="3.27947">
        <ele>5.4</ele>
        <time>2024-11-10T14:15:39Z</time>
      </trkpt>
      <trkpt lat="42.28912" lon="3.27947">
        <ele>5.4</ele>
        <time>2024-11-10T14:15:40Z</time>
      </trkpt>
      <trkpt lat="42.28912" lon="3.27947">
        <ele>5.4</ele>
        <time>2024-11-10T14:15:41Z</time>
      </trkpt>
      <trkpt lat="42.28912" lon="3.27947">
        <ele>5.4</ele>
        <time>2024-11-10T14:15:42Z</time>
      </trkpt>
      <trkpt lat="42.28912" lon="3.27947">
        <ele>5.4</ele>
        <time>2024-11-10T14:15:43Z</time>
      </trkpt>
      <trkpt lat="42.28912" lon="3.27947">
        <ele>5.4</ele>
        <time>2024-11-10T14:15:44Z</time>
      </trkpt>
      <trkpt lat="42.28912" lon="3.27947">
        <ele>5.4</ele>
        <time>2024-11-10T14:15:45Z</time>
      </trkpt>
      <trkpt lat="42.28912" lon="3.27947">
        <ele>5.4</ele>
        <time>2024-11-10T14:15:46Z</time>
      </trkpt>
      <trkpt lat="42.28912" lon="3.27947">
        <ele>5.4</ele>
        <time>2024-11-10T14:15:47Z</time>
      </trkpt>
      <trkpt lat="42.28912" lon="3.27947">
        <ele>5.4</ele>
        <time>2024-11-10T14:15:48Z</time>
      </trkpt>
      <trkpt lat="42.28912" lon="3.27947">
        <ele>5.4</ele>
        <time>2024-11-10T14:15:49Z</time>
      </trkpt>
      <trkpt lat="42.28912" lon="3.27947">
        <ele>5.4</ele>
        <time>2024-11-10T14:15:50Z</time>
      </trkpt>
      <trkpt lat="42.28912" lon="3.27947">
        <ele>5.4</ele>
        <time>2024-11-10T14:15:51Z</time>
      </trkpt>
      <trkpt lat="42.28912" lon="3.27947">
        <ele>5.4</ele>
        <time>2024-11-10T14:15:52Z</time>
      </trkpt>
      <trkpt lat="42.28912" lon="3.27947">
        <ele>5.4</ele>
        <time>2024-11-10T14:15:53Z</time>
      </trkpt>
      <trkpt lat="42.28912" lon="3.27947">
        <ele>5.4</ele>
        <time>2024-11-10T14:15:54Z</time>
      </trkpt>
      <trkpt lat="42.28912" lon="3.27947">
        <ele>5.4</ele>
        <time>2024-11-10T14:15:55Z</time>
      </trkpt>
      <trkpt lat="42.28912" lon="3.27947">
        <ele>5.4</ele>
        <time>2024-11-10T14:15:56Z</time>
      </trkpt>
      <trkpt lat="42.28912" lon="3.27947">
        <ele>5.4</ele>
        <time>2024-11-10T14:15:57Z</time>
      </trkpt>
      <trkpt lat="42.28912" lon="3.27947">
        <ele>5.4</ele>
        <time>2024-11-10T14:15:58Z</time>
      </trkpt>
      <trkpt lat="42.28912" lon="3.27947">
        <ele>5.4</ele>
        <time>2024-11-10T14:15:59Z</time>
      </trkpt>
      <trkpt lat="42.28912" lon="3.27947">
        <ele>5.4</ele>
        <time>2024-11-10T14:16:00Z</time>
      </trkpt>
      <trkpt lat="42.28912" lon="3.27947">
        <ele>5.4</ele>
        <time>2024-11-10T14:16:01Z</time>
      </trkpt>
      <trkpt lat="42.28912" lon="3.27947">
        <ele>5.4</ele>
        <time>2024-11-10T14:16:02Z</time>
      </trkpt>
      <trkpt lat="42.28912" lon="3.27947">
        <ele>5.4</ele>
        <time>2024-11-10T14:16:03Z</time>
      </trkpt>
      <trkpt lat="42.28912" lon="3.27947">
        <ele>5.4</ele>
        <time>2024-11-10T14:16:04Z</time>
      </trkpt>
      <trkpt lat="42.28912" lon="3.27947">
        <ele>5.4</ele>
        <time>2024-11-10T14:16:05Z</time>
      </trkpt>
      <trkpt lat="42.28912" lon="3.27947">
        <ele>5.4</ele>
        <time>2024-11-10T14:16:06Z</time>
      </trkpt>
      <trkpt lat="42.28912" lon="3.27947">
        <ele>5.4</ele>
        <time>2024-11-10T14:16:07Z</time>
      </trkpt>
      <trkpt lat="42.28912" lon="3.27947">
        <ele>5.4</ele>
        <time>2024-11-10T14:16:08Z</time>
      </trkpt>
      <trkpt lat="42.28912" lon="3.27947">
        <ele>5.4</ele>
        <time>2024-11-10T14:16:09Z</time>
      </trkpt>
      <trkpt lat="42.28912" lon="3.27947">
        <ele>5.4</ele>
        <time>2024-11-10T14:16:10Z</time>
      </trkpt>
      <trkpt lat="42.28912" lon="3.27947">
        <ele>5.4</ele>
        <time>2024-11-10T14:16:11Z</time>
      </trkpt>
      <trkpt lat="42.28912" lon="3.27947">
        <ele>5.4</ele>
        <time>2024-11-10T14:16:12Z</time>
      </trkpt>
      <trkpt lat="42.28912" lon="3.27947">
        <ele>5.4</ele>
        <time>2024-11-10T14:16:13Z</time>
      </trkpt>
      <trkpt lat="42.28912" lon="3.27947">
        <ele>5.4</ele>
        <time>2024-11-10T14:16:14Z</time>
      </trkpt>
      <trkpt lat="42.28912" lon="3.27947">
        <ele>5.4</ele>
        <time>2024-11-10T14:16:15Z</time>
      </trkpt>
      <trkpt lat="42.28912" lon="3.27947">
        <ele>5.4</ele>
        <time>2024-11-10T14:16:16Z</time>
      </trkpt>
      <trkpt lat="42.28912" lon="3.27947">
        <ele>5.4</ele>
        <time>2024-11-10T14:16:17Z</time>
      </trkpt>
      <trkpt lat="42.28912" lon="3.27947">
        <ele>5.4</ele>
        <time>2024-11-10T14:16:18Z</time>
      </trkpt>
      <trkpt lat="42.28912" lon="3.27947">
        <ele>5.4</ele>
        <time>2024-11-10T14:16:19Z</time>
      </trkpt>
      <trkpt lat="42.28912" lon="3.27947">
        <ele>5.4</ele>
        <time>2024-11-10T14:16:20Z</time>
      </trkpt>
      <trkpt lat="42.28912" lon="3.27947">
        <ele>5.4</ele>
        <time>2024-11-10T14:16:21Z</time>
      </trkpt>
      <trkpt lat="42.28912" lon="3.27947">
        <ele>5.4</ele>
        <time>2024-11-10T14:16:22Z</time>
      </trkpt>
      <trkpt lat="42.28912" lon="3.27947">
        <ele>5.4</ele>
        <time>2024-11-10T14:16:23Z</time>
      </trkpt>
      <trkpt lat="42.28912" lon="3.27947">
        <ele>5.4</ele>
        <time>2024-11-10T14:16:24Z</time>
      </trkpt>
      <trkpt lat="42.28912" lon="3.27947">
        <ele>5.4</ele>
        <time>2024-11-10T14:16:25Z</time>
      </trkpt>
      <trkpt lat="42.28912" lon="3.27947">
        <ele>5.4</ele>
        <time>2024-11-10T14:16:26Z</time>
      </trkpt>
      <trkpt lat="42.28912" lon="3.27947">
        <ele>5.4</ele>
        <time>2024-11-10T14:16:27Z</time>
      </trkpt>
      <trkpt lat="42.28912" lon="3.27947">
        <ele>5.4</ele>
        <time>2024-11-10T14:16:28Z</time>
      </trkpt>
      <trkpt lat="42.28912" lon="3.27947">
        <ele>5.4</ele>
        <time>2024-11-10T14:16:29Z</time>
      </trkpt>
      <trkpt lat="42.28912" lon="3.27947">
        <ele>5.4</ele>
        <time>2024-11-10T14:16:30Z</time>
      </trkpt>
      <trkpt lat="42.28912" lon="3.27947">
        <ele>5.4</ele>
        <time>2024-11-10T14:16:31Z</time>
      </trkpt>
      <trkpt lat="42.28912" lon="3.27947">
        <ele>5.4</ele>
        <time>2024-11-10T14:16:32Z</time>
      </trkpt>
      <trkpt lat="42.28912" lon="3.27947">
        <ele>5.4</ele>
        <time>2024-11-10T14:16:33Z</time>
      </trkpt>
      <trkpt lat="42.28912" lon="3.27947">
        <ele>5.4</ele>
        <time>2024-11-10T14:16:34Z</time>
      </trkpt>
      <trkpt lat="42.28912" lon="3.27947">
        <ele>5.4</ele>
        <time>2024-11-10T14:16:35Z</time>
      </trkpt>
      <trkpt lat="42.28912" lon="3.27947">
        <ele>5.4</ele>
        <time>2024-11-10T14:16:36Z</time>
      </trkpt>
      <trkpt lat="42.28912" lon="3.27947">
        <ele>5.4</ele>
        <time>2024-11-10T14:16:37Z</time>
      </trkpt>
      <trkpt lat="42.28912" lon="3.27947">
        <ele>5.4</ele>
        <time>2024-11-10T14:16:38Z</time>
      </trkpt>
      <trkpt lat="42.28912" lon="3.27947">
        <ele>5.4</ele>
        <time>2024-11-10T14:16:39Z</time>
      </trkpt>
      <trkpt lat="42.28912" lon="3.27947">
        <ele>5.4</ele>
        <time>2024-11-10T14:16:40Z</time>
      </trkpt>
      <trkpt lat="42.28912" lon="3.27947">
        <ele>5.4</ele>
        <time>2024-11-10T14:16:41Z</time>
      </trkpt>
      <trkpt lat="42.28912" lon="3.27947">
        <ele>5.4</ele>
        <time>2024-11-10T14:16:42Z</time>
      </trkpt>
      <trkpt lat="42.28912" lon="3.27947">
        <ele>5.4</ele>
        <time>2024-11-10T14:16:43Z</time>
      </trkpt>
      <trkpt lat="42.28912" lon="3.27947">
        <ele>5.4</ele>
        <time>2024-11-10T14:16:44Z</time>
      </trkpt>
      <trkpt lat="42.28912" lon="3.27947">
        <ele>5.4</ele>
        <time>2024-11-10T14:16:45Z</time>
      </trkpt>
      <trkpt lat="42.28912" lon="3.27947">
        <ele>5.4</ele>
        <time>2024-11-10T14:16:46Z</time>
      </trkpt>
      <trkpt lat="42.28912" lon="3.27947">
        <ele>5.4</ele>
        <time>2024-11-10T14:16:47Z</time>
      </trkpt>
      <trkpt lat="42.28912" lon="3.27947">
        <ele>5.4</ele>
        <time>2024-11-10T14:16:48Z</time>
      </trkpt>
      <trkpt lat="42.28912" lon="3.27947">
        <ele>5.4</ele>
        <time>2024-11-10T14:16:49Z</time>
      </trkpt>
      <trkpt lat="42.28912" lon="3.27947">
        <ele>5.4</ele>
        <time>2024-11-10T14:16:50Z</time>
      </trkpt>
      <trkpt lat="42.28912" lon="3.27947">
        <ele>5.4</ele>
        <time>2024-11-10T14:16:51Z</time>
      </trkpt>
      <trkpt lat="42.28912" lon="3.27947">
        <ele>5.4</ele>
        <time>2024-11-10T14:16:52Z</time>
      </trkpt>
      <trkpt lat="42.28912" lon="3.27947">
        <ele>5.4</ele>
        <time>2024-11-10T14:16:53Z</time>
      </trkpt>
      <trkpt lat="42.28912" lon="3.27947">
        <ele>5.4</ele>
        <time>2024-11-10T14:16:54Z</time>
      </trkpt>
      <trkpt lat="42.28912" lon="3.27947">
        <ele>5.4</ele>
        <time>2024-11-10T14:16:55Z</time>
      </trkpt>
      <trkpt lat="42.28912" lon="3.27947">
        <ele>5.4</ele>
        <time>2024-11-10T14:16:56Z</time>
      </trkpt>
      <trkpt lat="42.28912" lon="3.27947">
        <ele>5.4</ele>
        <time>2024-11-10T14:16:57Z</time>
      </trkpt>
      <trkpt lat="42.28912" lon="3.27947">
        <ele>5.4</ele>
        <time>2024-11-10T14:16:58Z</time>
      </trkpt>
      <trkpt lat="42.28912" lon="3.27947">
        <ele>5.4</ele>
        <time>2024-11-10T14:16:59Z</time>
      </trkpt>
      <trkpt lat="42.28912" lon="3.27947">
        <ele>5.4</ele>
        <time>2024-11-10T14:17:00Z</time>
      </trkpt>
      <trkpt lat="42.28912" lon="3.27947">
        <ele>5.4</ele>
        <time>2024-11-10T14:17:01Z</time>
      </trkpt>
      <trkpt lat="42.28912" lon="3.27947">
        <ele>5.4</ele>
        <time>2024-11-10T14:17:02Z</time>
      </trkpt>
      <trkpt lat="42.28912" lon="3.27947">
        <ele>5.4</ele>
        <time>2024-11-10T14:17:03Z</time>
      </trkpt>
      <trkpt lat="42.28912" lon="3.27947">
        <ele>5.4</ele>
        <time>2024-11-10T14:17:04Z</time>
      </trkpt>
      <trkpt lat="42.28912" lon="3.27947">
        <ele>5.4</ele>
        <time>2024-11-10T14:17:05Z</time>
      </trkpt>
      <trkpt lat="42.28912" lon="3.27947">
        <ele>5.4</ele>
        <time>2024-11-10T14:17:06Z</time>
      </trkpt>
      <trkpt lat="42.28912" lon="3.27947">
        <ele>5.4</ele>
        <time>2024-11-10T14:17:07Z</time>
      </trkpt>
      <trkpt lat="42.28912" lon="3.27947">
        <ele>5.4</ele>
        <time>2024-11-10T14:17:08Z</time>
      </trkpt>
      <trkpt lat="42.28912" lon="3.27947">
        <ele>5.4</ele>
        <time>2024-11-10T14:17:09Z</time>
      </trkpt>
      <trkpt lat="42.28911" lon="3.27947">
        <ele>5.4</ele>
        <time>2024-11-10T14:17:10Z</time>
      </trkpt>
      <trkpt lat="42.28911" lon="3.27947">
        <ele>5.4</ele>
        <time>2024-11-10T14:17:11Z</time>
      </trkpt>
      <trkpt lat="42.28911" lon="3.27947">
        <ele>5.4</ele>
        <time>2024-11-10T14:17:12Z</time>
      </trkpt>
      <trkpt lat="42.28911" lon="3.27947">
        <ele>5.4</ele>
        <time>2024-11-10T14:17:13Z</time>
      </trkpt>
      <trkpt lat="42.28911" lon="3.27947">
        <ele>5.4</ele>
        <time>2024-11-10T14:17:14Z</time>
      </trkpt>
      <trkpt lat="42.28911" lon="3.27947">
        <ele>5.4</ele>
        <time>2024-11-10T14:17:15Z</time>
      </trkpt>
      <trkpt lat="42.28911" lon="3.27947">
        <ele>5.4</ele>
        <time>2024-11-10T14:17:16Z</time>
      </trkpt>
      <trkpt lat="42.28911" lon="3.27947">
        <ele>5.4</ele>
        <time>2024-11-10T14:17:17Z</time>
      </trkpt>
      <trkpt lat="42.28911" lon="3.27947">
        <ele>5.4</ele>
        <time>2024-11-10T14:17:18Z</time>
      </trkpt>
      <trkpt lat="42.28911" lon="3.27947">
        <ele>5.4</ele>
        <time>2024-11-10T14:17:19Z</time>
      </trkpt>
      <trkpt lat="42.28911" lon="3.27947">
        <ele>5.4</ele>
        <time>2024-11-10T14:17:20Z</time>
      </trkpt>
      <trkpt lat="42.28911" lon="3.27947">
        <ele>5.4</ele>
        <time>2024-11-10T14:17:21Z</time>
      </trkpt>
      <trkpt lat="42.28911" lon="3.27947">
        <ele>5.4</ele>
        <time>2024-11-10T14:17:22Z</time>
      </trkpt>
      <trkpt lat="42.28911" lon="3.27947">
        <ele>5.4</ele>
        <time>2024-11-10T14:17:23Z</time>
      </trkpt>
      <trkpt lat="42.28911" lon="3.27947">
        <ele>5.4</ele>
        <time>2024-11-10T14:17:24Z</time>
      </trkpt>
      <trkpt lat="42.28911" lon="3.27947">
        <ele>5.4</ele>
        <time>2024-11-10T14:17:25Z</time>
      </trkpt>
      <trkpt lat="42.28911" lon="3.27947">
        <ele>5.4</ele>
        <time>2024-11-10T14:17:26Z</time>
      </trkpt>
      <trkpt lat="42.28911" lon="3.27947">
        <ele>5.4</ele>
        <time>2024-11-10T14:17:27Z</time>
      </trkpt>
      <trkpt lat="42.28911" lon="3.27947">
        <ele>5.4</ele>
        <time>2024-11-10T14:17:28Z</time>
      </trkpt>
      <trkpt lat="42.28911" lon="3.27947">
        <ele>5.4</ele>
        <time>2024-11-10T14:17:29Z</time>
      </trkpt>
      <trkpt lat="42.28911" lon="3.27947">
        <ele>5.4</ele>
        <time>2024-11-10T14:17:30Z</time>
      </trkpt>
      <trkpt lat="42.28911" lon="3.27947">
        <ele>5.4</ele>
        <time>2024-11-10T14:17:31Z</time>
      </trkpt>
      <trkpt lat="42.28911" lon="3.27947">
        <ele>5.4</ele>
        <time>2024-11-10T14:17:32Z</time>
      </trkpt>
      <trkpt lat="42.28911" lon="3.27947">
        <ele>5.4</ele>
        <time>2024-11-10T14:17:33Z</time>
      </trkpt>
      <trkpt lat="42.28911" lon="3.27947">
        <ele>5.4</ele>
        <time>2024-11-10T14:17:34Z</time>
      </trkpt>
      <trkpt lat="42.28911" lon="3.27947">
        <ele>5.4</ele>
        <time>2024-11-10T14:17:35Z</time>
      </trkpt>
      <trkpt lat="42.28911" lon="3.27947">
        <ele>5.4</ele>
        <time>2024-11-10T14:17:36Z</time>
      </trkpt>
      <trkpt lat="42.28911" lon="3.27947">
        <ele>5.4</ele>
        <time>2024-11-10T14:17:37Z</time>
      </trkpt>
      <trkpt lat="42.28911" lon="3.27947">
        <ele>5.4</ele>
        <time>2024-11-10T14:17:38Z</time>
      </trkpt>
      <trkpt lat="42.28911" lon="3.27947">
        <ele>5.4</ele>
        <time>2024-11-10T14:17:39Z</time>
      </trkpt>
      <trkpt lat="42.28911" lon="3.27947">
        <ele>5.4</ele>
        <time>2024-11-10T14:17:40Z</time>
      </trkpt>
      <trkpt lat="42.28911" lon="3.27947">
        <ele>5.4</ele>
        <time>2024-11-10T14:17:41Z</time>
      </trkpt>
      <trkpt lat="42.28911" lon="3.27947">
        <ele>5.4</ele>
        <time>2024-11-10T14:17:42Z</time>
      </trkpt>
      <trkpt lat="42.28911" lon="3.27947">
        <ele>5.4</ele>
        <time>2024-11-10T14:17:43Z</time>
      </trkpt>
      <trkpt lat="42.28911" lon="3.27947">
        <ele>5.4</ele>
        <time>2024-11-10T14:17:44Z</time>
      </trkpt>
      <trkpt lat="42.28911" lon="3.27947">
        <ele>5.4</ele>
        <time>2024-11-10T14:17:45Z</time>
      </trkpt>
      <trkpt lat="42.28911" lon="3.27947">
        <ele>5.4</ele>
        <time>2024-11-10T14:17:46Z</time>
      </trkpt>
      <trkpt lat="42.28911" lon="3.27947">
        <ele>5.4</ele>
        <time>2024-11-10T14:17:47Z</time>
      </trkpt>
      <trkpt lat="42.28911" lon="3.27947">
        <ele>5.4</ele>
        <time>2024-11-10T14:17:48Z</time>
      </trkpt>
      <trkpt lat="42.28911" lon="3.27947">
        <ele>5.4</ele>
        <time>2024-11-10T14:17:49Z</time>
      </trkpt>
      <trkpt lat="42.28911" lon="3.27947">
        <ele>5.4</ele>
        <time>2024-11-10T14:17:50Z</time>
      </trkpt>
      <trkpt lat="42.28911" lon="3.27947">
        <ele>5.4</ele>
        <time>2024-11-10T14:17:51Z</time>
      </trkpt>
      <trkpt lat="42.28911" lon="3.27947">
        <ele>5.4</ele>
        <time>2024-11-10T14:17:52Z</time>
      </trkpt>
      <trkpt lat="42.28911" lon="3.27947">
        <ele>5.4</ele>
        <time>2024-11-10T14:17:53Z</time>
      </trkpt>
      <trkpt lat="42.28911" lon="3.27947">
        <ele>5.4</ele>
        <time>2024-11-10T14:17:54Z</time>
      </trkpt>
      <trkpt lat="42.28911" lon="3.27947">
        <ele>5.4</ele>
        <time>2024-11-10T14:17:55Z</time>
      </trkpt>
      <trkpt lat="42.28911" lon="3.27947">
        <ele>5.4</ele>
        <time>2024-11-10T14:17:56Z</time>
      </trkpt>
      <trkpt lat="42.28911" lon="3.27947">
        <ele>5.4</ele>
        <time>2024-11-10T14:17:57Z</time>
      </trkpt>
      <trkpt lat="42.28911" lon="3.27947">
        <ele>5.4</ele>
        <time>2024-11-10T14:17:58Z</time>
      </trkpt>
      <trkpt lat="42.28911" lon="3.27947">
        <ele>5.4</ele>
        <time>2024-11-10T14:17:59Z</time>
      </trkpt>
      <trkpt lat="42.28911" lon="3.27947">
        <ele>5.4</ele>
        <time>2024-11-10T14:18:00Z</time>
      </trkpt>
      <trkpt lat="42.28911" lon="3.27947">
        <ele>5.4</ele>
        <time>2024-11-10T14:18:01Z</time>
      </trkpt>
      <trkpt lat="42.28911" lon="3.27947">
        <ele>5.4</ele>
        <time>2024-11-10T14:18:02Z</time>
      </trkpt>
      <trkpt lat="42.28911" lon="3.27947">
        <ele>5.4</ele>
        <time>2024-11-10T14:18:03Z</time>
      </trkpt>
      <trkpt lat="42.28911" lon="3.27947">
        <ele>5.4</ele>
        <time>2024-11-10T14:18:04Z</time>
      </trkpt>
      <trkpt lat="42.28911" lon="3.27947">
        <ele>5.4</ele>
        <time>2024-11-10T14:18:05Z</time>
      </trkpt>
      <trkpt lat="42.28911" lon="3.27947">
        <ele>5.4</ele>
        <time>2024-11-10T14:18:06Z</time>
      </trkpt>
      <trkpt lat="42.28911" lon="3.27947">
        <ele>5.4</ele>
        <time>2024-11-10T14:18:07Z</time>
      </trkpt>
      <trkpt lat="42.28911" lon="3.27947">
        <ele>5.4</ele>
        <time>2024-11-10T14:18:08Z</time>
      </trkpt>
      <trkpt lat="42.28911" lon="3.27947">
        <ele>5.4</ele>
        <time>2024-11-10T14:18:09Z</time>
      </trkpt>
      <trkpt lat="42.28911" lon="3.27947">
        <ele>5.4</ele>
        <time>2024-11-10T14:18:10Z</time>
      </trkpt>
      <trkpt lat="42.28911" lon="3.27947">
        <ele>5.4</ele>
        <time>2024-11-10T14:18:11Z</time>
      </trkpt>
      <trkpt lat="42.28911" lon="3.27947">
        <ele>5.4</ele>
        <time>2024-11-10T14:18:12Z</time>
      </trkpt>
      <trkpt lat="42.28911" lon="3.27947">
        <ele>5.4</ele>
        <time>2024-11-10T14:18:13Z</time>
      </trkpt>
      <trkpt lat="42.28911" lon="3.27947">
        <ele>5.4</ele>
        <time>2024-11-10T14:18:14Z</time>
      </trkpt>
      <trkpt lat="42.28911" lon="3.27947">
        <ele>5.4</ele>
        <time>2024-11-10T14:18:15Z</time>
      </trkpt>
      <trkpt lat="42.28911" lon="3.27947">
        <ele>5.4</ele>
        <time>2024-11-10T14:18:16Z</time>
      </trkpt>
      <trkpt lat="42.28911" lon="3.27947">
        <ele>5.4</ele>
        <time>2024-11-10T14:18:17Z</time>
      </trkpt>
      <trkpt lat="42.28911" lon="3.27947">
        <ele>5.4</ele>
        <time>2024-11-10T14:18:18Z</time>
      </trkpt>
      <trkpt lat="42.28911" lon="3.27947">
        <ele>5.4</ele>
        <time>2024-11-10T14:18:19Z</time>
      </trkpt>
      <trkpt lat="42.28911" lon="3.27947">
        <ele>5.4</ele>
        <time>2024-11-10T14:18:20Z</time>
      </trkpt>
      <trkpt lat="42.28911" lon="3.27947">
        <ele>5.4</ele>
        <time>2024-11-10T14:18:21Z</time>
      </trkpt>
      <trkpt lat="42.28911" lon="3.27947">
        <ele>5.4</ele>
        <time>2024-11-10T14:18:22Z</time>
      </trkpt>
      <trkpt lat="42.28911" lon="3.27947">
        <ele>5.4</ele>
        <time>2024-11-10T14:18:23Z</time>
      </trkpt>
      <trkpt lat="42.28911" lon="3.27947">
        <ele>5.4</ele>
        <time>2024-11-10T14:18:24Z</time>
      </trkpt>
      <trkpt lat="42.28911" lon="3.27947">
        <ele>5.4</ele>
        <time>2024-11-10T14:18:25Z</time>
      </trkpt>
      <trkpt lat="42.28911" lon="3.27947">
        <ele>5.4</ele>
        <time>2024-11-10T14:18:26Z</time>
      </trkpt>
      <trkpt lat="42.28911" lon="3.27947">
        <ele>5.4</ele>
        <time>2024-11-10T14:18:27Z</time>
      </trkpt>
      <trkpt lat="42.28911" lon="3.27947">
        <ele>5.4</ele>
        <time>2024-11-10T14:18:28Z</time>
      </trkpt>
      <trkpt lat="42.28911" lon="3.27947">
        <ele>5.4</ele>
        <time>2024-11-10T14:18:29Z</time>
      </trkpt>
      <trkpt lat="42.28911" lon="3.27947">
        <ele>5.4</ele>
        <time>2024-11-10T14:18:30Z</time>
      </trkpt>
      <trkpt lat="42.28911" lon="3.27947">
        <ele>5.4</ele>
        <time>2024-11-10T14:18:31Z</time>
      </trkpt>
      <trkpt lat="42.28911" lon="3.27947">
        <ele>5.4</ele>
        <time>2024-11-10T14:18:32Z</time>
      </trkpt>
      <trkpt lat="42.28911" lon="3.27947">
        <ele>5.4</ele>
        <time>2024-11-10T14:18:33Z</time>
      </trkpt>
      <trkpt lat="42.28911" lon="3.27947">
        <ele>5.4</ele>
        <time>2024-11-10T14:18:34Z</time>
      </trkpt>
      <trkpt lat="42.28911" lon="3.27947">
        <ele>5.4</ele>
        <time>2024-11-10T14:18:35Z</time>
      </trkpt>
      <trkpt lat="42.28911" lon="3.27947">
        <ele>5.4</ele>
        <time>2024-11-10T14:18:36Z</time>
      </trkpt>
      <trkpt lat="42.28911" lon="3.27947">
        <ele>5.4</ele>
        <time>2024-11-10T14:18:37Z</time>
      </trkpt>
      <trkpt lat="42.28911" lon="3.27947">
        <ele>5.4</ele>
        <time>2024-11-10T14:18:38Z</time>
      </trkpt>
      <trkpt lat="42.28911" lon="3.27947">
        <ele>5.4</ele>
        <time>2024-11-10T14:18:39Z</time>
      </trkpt>
      <trkpt lat="42.28911" lon="3.27947">
        <ele>5.4</ele>
        <time>2024-11-10T14:18:40Z</time>
      </trkpt>
      <trkpt lat="42.28911" lon="3.27947">
        <ele>5.4</ele>
        <time>2024-11-10T14:18:41Z</time>
      </trkpt>
      <trkpt lat="42.28911" lon="3.27947">
        <ele>5.4</ele>
        <time>2024-11-10T14:18:42Z</time>
      </trkpt>
      <trkpt lat="42.28911" lon="3.27947">
        <ele>5.4</ele>
        <time>2024-11-10T14:18:43Z</time>
      </trkpt>
      <trkpt lat="42.28911" lon="3.27947">
        <ele>5.4</ele>
        <time>2024-11-10T14:18:44Z</time>
      </trkpt>
      <trkpt lat="42.28911" lon="3.27947">
        <ele>5.4</ele>
        <time>2024-11-10T14:18:45Z</time>
      </trkpt>
      <trkpt lat="42.28911" lon="3.27947">
        <ele>5.4</ele>
        <time>2024-11-10T14:18:46Z</time>
      </trkpt>
      <trkpt lat="42.28911" lon="3.27947">
        <ele>5.4</ele>
        <time>2024-11-10T14:18:47Z</time>
      </trkpt>
      <trkpt lat="42.28911" lon="3.27947">
        <ele>5.4</ele>
        <time>2024-11-10T14:18:48Z</time>
      </trkpt>
      <trkpt lat="42.28911" lon="3.27947">
        <ele>5.4</ele>
        <time>2024-11-10T14:18:49Z</time>
      </trkpt>
      <trkpt lat="42.28911" lon="3.27947">
        <ele>5.4</ele>
        <time>2024-11-10T14:18:50Z</time>
      </trkpt>
      <trkpt lat="42.28911" lon="3.27947">
        <ele>5.4</ele>
        <time>2024-11-10T14:18:51Z</time>
      </trkpt>
      <trkpt lat="42.28911" lon="3.27947">
        <ele>5.4</ele>
        <time>2024-11-10T14:18:52Z</time>
      </trkpt>
      <trkpt lat="42.28911" lon="3.27947">
        <ele>5.4</ele>
        <time>2024-11-10T14:18:53Z</time>
      </trkpt>
      <trkpt lat="42.28911" lon="3.27947">
        <ele>5.4</ele>
        <time>2024-11-10T14:18:54Z</time>
      </trkpt>
      <trkpt lat="42.28911" lon="3.27947">
        <ele>5.4</ele>
        <time>2024-11-10T14:18:55Z</time>
      </trkpt>
      <trkpt lat="42.28911" lon="3.27947">
        <ele>5.4</ele>
        <time>2024-11-10T14:18:56Z</time>
      </trkpt>
      <trkpt lat="42.28911" lon="3.27947">
        <ele>5.4</ele>
        <time>2024-11-10T14:18:57Z</time>
      </trkpt>
      <trkpt lat="42.28911" lon="3.27947">
        <ele>5.4</ele>
        <time>2024-11-10T14:18:58Z</time>
      </trkpt>
      <trkpt lat="42.28911" lon="3.27947">
        <ele>5.4</ele>
        <time>2024-11-10T14:18:59Z</time>
      </trkpt>
      <trkpt lat="42.28911" lon="3.27947">
        <ele>5.4</ele>
        <time>2024-11-10T14:19:00Z</time>
      </trkpt>
      <trkpt lat="42.28911" lon="3.27947">
        <ele>5.4</ele>
        <time>2024-11-10T14:19:01Z</time>
      </trkpt>
      <trkpt lat="42.28911" lon="3.27947">
        <ele>5.4</ele>
        <time>2024-11-10T14:19:02Z</time>
      </trkpt>
      <trkpt lat="42.28911" lon="3.27947">
        <ele>5.4</ele>
        <time>2024-11-10T14:19:03Z</time>
      </trkpt>
      <trkpt lat="42.28911" lon="3.27947">
        <ele>5.4</ele>
        <time>2024-11-10T14:19:04Z</time>
      </trkpt>
      <trkpt lat="42.28911" lon="3.27947">
        <ele>5.4</ele>
        <time>2024-11-10T14:19:05Z</time>
      </trkpt>
      <trkpt lat="42.28911" lon="3.27947">
        <ele>5.4</ele>
        <time>2024-11-10T14:19:06Z</time>
      </trkpt>
      <trkpt lat="42.28911" lon="3.27947">
        <ele>5.4</ele>
        <time>2024-11-10T14:19:07Z</time>
      </trkpt>
      <trkpt lat="42.28911" lon="3.27947">
        <ele>5.4</ele>
        <time>2024-11-10T14:19:08Z</time>
      </trkpt>
      <trkpt lat="42.28911" lon="3.27947">
        <ele>5.4</ele>
        <time>2024-11-10T14:19:09Z</time>
      </trkpt>
      <trkpt lat="42.28911" lon="3.27947">
        <ele>5.4</ele>
        <time>2024-11-10T14:19:10Z</time>
      </trkpt>
      <trkpt lat="42.28911" lon="3.27947">
        <ele>5.4</ele>
        <time>2024-11-10T14:19:11Z</time>
      </trkpt>
      <trkpt lat="42.28911" lon="3.27947">
        <ele>5.4</ele>
        <time>2024-11-10T14:19:12Z</time>
      </trkpt>
      <trkpt lat="42.28911" lon="3.27947">
        <ele>5.4</ele>
        <time>2024-11-10T14:19:13Z</time>
      </trkpt>
      <trkpt lat="42.28911" lon="3.27947">
        <ele>5.4</ele>
        <time>2024-11-10T14:19:14Z</time>
      </trkpt>
      <trkpt lat="42.28911" lon="3.27947">
        <ele>5.4</ele>
        <time>2024-11-10T14:19:15Z</time>
      </trkpt>
      <trkpt lat="42.28911" lon="3.27947">
        <ele>5.4</ele>
        <time>2024-11-10T14:19:16Z</time>
      </trkpt>
      <trkpt lat="42.28911" lon="3.27947">
        <ele>5.4</ele>
        <time>2024-11-10T14:19:17Z</time>
      </trkpt>
      <trkpt lat="42.28911" lon="3.27947">
        <ele>5.4</ele>
        <time>2024-11-10T14:19:18Z</time>
      </trkpt>
      <trkpt lat="42.28911" lon="3.27947">
        <ele>5.4</ele>
        <time>2024-11-10T14:19:19Z</time>
      </trkpt>
      <trkpt lat="42.28911" lon="3.27947">
        <ele>5.4</ele>
        <time>2024-11-10T14:19:20Z</time>
      </trkpt>
      <trkpt lat="42.28911" lon="3.27947">
        <ele>5.4</ele>
        <time>2024-11-10T14:19:21Z</time>
      </trkpt>
      <trkpt lat="42.28911" lon="3.27947">
        <ele>5.4</ele>
        <time>2024-11-10T14:19:22Z</time>
      </trkpt>
      <trkpt lat="42.28911" lon="3.27947">
        <ele>5.4</ele>
        <time>2024-11-10T14:19:23Z</time>
      </trkpt>
      <trkpt lat="42.28911" lon="3.27947">
        <ele>5.4</ele>
        <time>2024-11-10T14:19:24Z</time>
      </trkpt>
      <trkpt lat="42.28911" lon="3.27947">
        <ele>5.4</ele>
        <time>2024-11-10T14:19:25Z</time>
      </trkpt>
      <trkpt lat="42.28911" lon="3.27947">
        <ele>5.4</ele>
        <time>2024-11-10T14:19:26Z</time>
      </trkpt>
      <trkpt lat="42.28911" lon="3.27947">
        <ele>5.4</ele>
        <time>2024-11-10T14:19:27Z</time>
      </trkpt>
      <trkpt lat="42.28911" lon="3.27947">
        <ele>5.4</ele>
        <time>2024-11-10T14:19:28Z</time>
      </trkpt>
      <trkpt lat="42.28911" lon="3.27947">
        <ele>5.4</ele>
        <time>2024-11-10T14:19:29Z</time>
      </trkpt>
      <trkpt lat="42.28911" lon="3.27947">
        <ele>5.4</ele>
        <time>2024-11-10T14:19:30Z</time>
      </trkpt>
      <trkpt lat="42.28911" lon="3.27947">
        <ele>5.4</ele>
        <time>2024-11-10T14:19:31Z</time>
      </trkpt>
      <trkpt lat="42.28911" lon="3.27947">
        <ele>5.4</ele>
        <time>2024-11-10T14:19:32Z</time>
      </trkpt>
      <trkpt lat="42.28911" lon="3.27947">
        <ele>5.4</ele>
        <time>2024-11-10T14:19:33Z</time>
      </trkpt>
      <trkpt lat="42.28911" lon="3.27947">
        <ele>5.4</ele>
        <time>2024-11-10T14:19:34Z</time>
      </trkpt>
      <trkpt lat="42.28911" lon="3.27947">
        <ele>5.4</ele>
        <time>2024-11-10T14:19:35Z</time>
      </trkpt>
      <trkpt lat="42.28911" lon="3.27947">
        <ele>5.4</ele>
        <time>2024-11-10T14:19:36Z</time>
      </trkpt>
      <trkpt lat="42.28911" lon="3.27947">
        <ele>5.4</ele>
        <time>2024-11-10T14:19:37Z</time>
      </trkpt>
      <trkpt lat="42.28911" lon="3.27947">
        <ele>5.4</ele>
        <time>2024-11-10T14:19:38Z</time>
      </trkpt>
      <trkpt lat="42.28911" lon="3.27947">
        <ele>5.4</ele>
        <time>2024-11-10T14:19:39Z</time>
      </trkpt>
      <trkpt lat="42.28911" lon="3.27947">
        <ele>5.4</ele>
        <time>2024-11-10T14:19:40Z</time>
      </trkpt>
      <trkpt lat="42.28911" lon="3.27947">
        <ele>5.4</ele>
        <time>2024-11-10T14:19:41Z</time>
      </trkpt>
      <trkpt lat="42.28911" lon="3.27947">
        <ele>5.4</ele>
        <time>2024-11-10T14:19:42Z</time>
      </trkpt>
      <trkpt lat="42.28911" lon="3.27947">
        <ele>5.4</ele>
        <time>2024-11-10T14:19:43Z</time>
      </trkpt>
      <trkpt lat="42.28911" lon="3.27947">
        <ele>5.4</ele>
        <time>2024-11-10T14:19:44Z</time>
      </trkpt>
      <trkpt lat="42.28911" lon="3.27947">
        <ele>5.4</ele>
        <time>2024-11-10T14:19:45Z</time>
      </trkpt>
      <trkpt lat="42.28911" lon="3.27947">
        <ele>5.4</ele>
        <time>2024-11-10T14:19:46Z</time>
      </trkpt>
      <trkpt lat="42.28911" lon="3.27947">
        <ele>5.4</ele>
        <time>2024-11-10T14:19:47Z</time>
      </trkpt>
      <trkpt lat="42.28911" lon="3.27947">
        <ele>5.4</ele>
        <time>2024-11-10T14:19:48Z</time>
      </trkpt>
      <trkpt lat="42.28911" lon="3.27947">
        <ele>5.4</ele>
        <time>2024-11-10T14:19:49Z</time>
      </trkpt>
      <trkpt lat="42.28911" lon="3.27947">
        <ele>5.4</ele>
        <time>2024-11-10T14:19:50Z</time>
      </trkpt>
      <trkpt lat="42.28911" lon="3.27947">
        <ele>5.4</ele>
        <time>2024-11-10T14:19:51Z</time>
      </trkpt>
      <trkpt lat="42.28911" lon="3.27947">
        <ele>5.4</ele>
        <time>2024-11-10T14:19:52Z</time>
      </trkpt>
      <trkpt lat="42.28911" lon="3.27947">
        <ele>5.4</ele>
        <time>2024-11-10T14:19:53Z</time>
      </trkpt>
      <trkpt lat="42.28911" lon="3.27947">
        <ele>5.4</ele>
        <time>2024-11-10T14:19:54Z</time>
      </trkpt>
      <trkpt lat="42.28911" lon="3.27947">
        <ele>5.4</ele>
        <time>2024-11-10T14:19:55Z</time>
      </trkpt>
      <trkpt lat="42.28911" lon="3.27947">
        <ele>5.4</ele>
        <time>2024-11-10T14:19:56Z</time>
      </trkpt>
      <trkpt lat="42.28911" lon="3.27947">
        <ele>5.4</ele>
        <time>2024-11-10T14:19:57Z</time>
      </trkpt>
      <trkpt lat="42.28911" lon="3.27947">
        <ele>5.4</ele>
        <time>2024-11-10T14:19:58Z</time>
      </trkpt>
      <trkpt lat="42.28911" lon="3.27947">
        <ele>5.4</ele>
        <time>2024-11-10T14:19:59Z</time>
      </trkpt>
      <trkpt lat="42.28911" lon="3.27947">
        <ele>5.4</ele>
        <time>2024-11-10T14:20:00Z</time>
      </trkpt>
      <trkpt lat="42.28911" lon="3.27947">
        <ele>5.4</ele>
        <time>2024-11-10T14:20:01Z</time>
      </trkpt>
      <trkpt lat="42.28911" lon="3.27947">
        <ele>5.4</ele>
        <time>2024-11-10T14:20:02Z</time>
      </trkpt>
      <trkpt lat="42.28911" lon="3.27947">
        <ele>5.4</ele>
        <time>2024-11-10T14:20:03Z</time>
      </trkpt>
      <trkpt lat="42.28911" lon="3.27947">
        <ele>5.4</ele>
        <time>2024-11-10T14:20:04Z</time>
      </trkpt>
      <trkpt lat="42.28911" lon="3.27947">
        <ele>5.4</ele>
        <time>2024-11-10T14:20:05Z</time>
      </trkpt>
      <trkpt lat="42.28911" lon="3.27947">
        <ele>5.4</ele>
        <time>2024-11-10T14:20:06Z</time>
      </trkpt>
      <trkpt lat="42.28911" lon="3.27947">
        <ele>5.4</ele>
        <time>2024-11-10T14:20:07Z</time>
      </trkpt>
      <trkpt lat="42.28911" lon="3.27947">
        <ele>5.4</ele>
        <time>2024-11-10T14:20:08Z</time>
      </trkpt>
      <trkpt lat="42.28911" lon="3.27947">
        <ele>5.4</ele>
        <time>2024-11-10T14:20:09Z</time>
      </trkpt>
      <trkpt lat="42.28911" lon="3.27947">
        <ele>5.4</ele>
        <time>2024-11-10T14:20:10Z</time>
      </trkpt>
      <trkpt lat="42.28911" lon="3.27947">
        <ele>5.4</ele>
        <time>2024-11-10T14:20:11Z</time>
      </trkpt>
      <trkpt lat="42.28911" lon="3.27947">
        <ele>5.4</ele>
        <time>2024-11-10T14:20:12Z</time>
      </trkpt>
      <trkpt lat="42.28911" lon="3.27947">
        <ele>5.4</ele>
        <time>2024-11-10T14:20:13Z</time>
      </trkpt>
      <trkpt lat="42.28911" lon="3.27947">
        <ele>5.4</ele>
        <time>2024-11-10T14:20:14Z</time>
      </trkpt>
      <trkpt lat="42.28911" lon="3.27947">
        <ele>5.4</ele>
        <time>2024-11-10T14:20:15Z</time>
      </trkpt>
      <trkpt lat="42.28911" lon="3.27947">
        <ele>5.4</ele>
        <time>2024-11-10T14:20:16Z</time>
      </trkpt>
      <trkpt lat="42.28911" lon="3.27947">
        <ele>5.4</ele>
        <time>2024-11-10T14:20:17Z</time>
      </trkpt>
      <trkpt lat="42.28911" lon="3.27947">
        <ele>5.4</ele>
        <time>2024-11-10T14:20:18Z</time>
      </trkpt>
      <trkpt lat="42.28911" lon="3.27947">
        <ele>5.4</ele>
        <time>2024-11-10T14:20:19Z</time>
      </trkpt>
      <trkpt lat="42.28911" lon="3.27947">
        <ele>5.4</ele>
        <time>2024-11-10T14:20:20Z</time>
      </trkpt>
      <trkpt lat="42.28911" lon="3.27947">
        <ele>5.4</ele>
        <time>2024-11-10T14:20:21Z</time>
      </trkpt>
      <trkpt lat="42.28911" lon="3.27947">
        <ele>5.4</ele>
        <time>2024-11-10T14:20:22Z</time>
      </trkpt>
      <trkpt lat="42.28911" lon="3.27947">
        <ele>5.4</ele>
        <time>2024-11-10T14:20:23Z</time>
      </trkpt>
      <trkpt lat="42.28911" lon="3.27947">
        <ele>5.4</ele>
        <time>2024-11-10T14:20:24Z</time>
      </trkpt>
      <trkpt lat="42.28911" lon="3.27947">
        <ele>5.4</ele>
        <time>2024-11-10T14:20:25Z</time>
      </trkpt>
      <trkpt lat="42.28911" lon="3.27947">
        <ele>5.4</ele>
        <time>2024-11-10T14:20:26Z</time>
      </trkpt>
      <trkpt lat="42.28911" lon="3.27947">
        <ele>5.4</ele>
        <time>2024-11-10T14:20:27Z</time>
      </trkpt>
      <trkpt lat="42.28911" lon="3.27947">
        <ele>5.4</ele>
        <time>2024-11-10T14:20:28Z</time>
      </trkpt>
      <trkpt lat="42.28911" lon="3.27947">
        <ele>5.4</ele>
        <time>2024-11-10T14:20:29Z</time>
      </trkpt>
      <trkpt lat="42.28911" lon="3.27947">
        <ele>5.4</ele>
        <time>2024-11-10T14:20:30Z</time>
      </trkpt>
      <trkpt lat="42.28911" lon="3.27947">
        <ele>5.4</ele>
        <time>2024-11-10T14:20:31Z</time>
      </trkpt>
      <trkpt lat="42.28911" lon="3.27947">
        <ele>5.4</ele>
        <time>2024-11-10T14:20:32Z</time>
      </trkpt>
      <trkpt lat="42.28911" lon="3.27947">
        <ele>5.4</ele>
        <time>2024-11-10T14:20:33Z</time>
      </trkpt>
      <trkpt lat="42.28911" lon="3.27947">
        <ele>5.4</ele>
        <time>2024-11-10T14:20:34Z</time>
      </trkpt>
      <trkpt lat="42.28911" lon="3.27947">
        <ele>5.4</ele>
        <time>2024-11-10T14:20:35Z</time>
      </trkpt>
      <trkpt lat="42.28911" lon="3.27947">
        <ele>5.4</ele>
        <time>2024-11-10T14:20:36Z</time>
      </trkpt>
      <trkpt lat="42.28911" lon="3.27947">
        <ele>5.4</ele>
        <time>2024-11-10T14:20:37Z</time>
      </trkpt>
      <trkpt lat="42.28911" lon="3.27947">
        <ele>5.4</ele>
        <time>2024-11-10T14:20:38Z</time>
      </trkpt>
      <trkpt lat="42.28911" lon="3.27947">
        <ele>5.4</ele>
        <time>2024-11-10T14:20:39Z</time>
      </trkpt>
      <trkpt lat="42.28911" lon="3.27947">
        <ele>5.4</ele>
        <time>2024-11-10T14:20:40Z</time>
      </trkpt>
      <trkpt lat="42.28911" lon="3.27947">
        <ele>5.4</ele>
        <time>2024-11-10T14:20:41Z</time>
      </trkpt>
      <trkpt lat="42.28911" lon="3.27947">
        <ele>5.4</ele>
        <time>2024-11-10T14:20:42Z</time>
      </trkpt>
      <trkpt lat="42.28911" lon="3.27947">
        <ele>5.4</ele>
        <time>2024-11-10T14:20:43Z</time>
      </trkpt>
      <trkpt lat="42.28911" lon="3.27947">
        <ele>5.4</ele>
        <time>2024-11-10T14:20:44Z</time>
      </trkpt>
      <trkpt lat="42.28911" lon="3.27947">
        <ele>5.4</ele>
        <time>2024-11-10T14:20:45Z</time>
      </trkpt>
      <trkpt lat="42.28911" lon="3.27947">
        <ele>5.4</ele>
        <time>2024-11-10T14:20:46Z</time>
      </trkpt>
      <trkpt lat="42.28911" lon="3.27947">
        <ele>5.4</ele>
        <time>2024-11-10T14:20:47Z</time>
      </trkpt>
      <trkpt lat="42.28911" lon="3.27947">
        <ele>5.4</ele>
        <time>2024-11-10T14:20:48Z</time>
      </trkpt>
      <trkpt lat="42.28911" lon="3.27947">
        <ele>5.4</ele>
        <time>2024-11-10T14:20:49Z</time>
      </trkpt>
      <trkpt lat="42.28911" lon="3.27947">
        <ele>5.4</ele>
        <time>2024-11-10T14:20:50Z</time>
      </trkpt>
      <trkpt lat="42.28911" lon="3.27947">
        <ele>5.4</ele>
        <time>2024-11-10T14:20:51Z</time>
      </trkpt>
      <trkpt lat="42.28911" lon="3.27947">
        <ele>5.4</ele>
        <time>2024-11-10T14:20:52Z</time>
      </trkpt>
      <trkpt lat="42.28911" lon="3.27947">
        <ele>5.4</ele>
        <time>2024-11-10T14:20:53Z</time>
      </trkpt>
      <trkpt lat="42.28911" lon="3.27947">
        <ele>5.4</ele>
        <time>2024-11-10T14:20:54Z</time>
      </trkpt>
      <trkpt lat="42.28911" lon="3.27947">
        <ele>5.4</ele>
        <time>2024-11-10T14:20:55Z</time>
      </trkpt>
      <trkpt lat="42.28911" lon="3.27947">
        <ele>5.4</ele>
        <time>2024-11-10T14:20:56Z</time>
      </trkpt>
      <trkpt lat="42.28911" lon="3.27947">
        <ele>5.4</ele>
        <time>2024-11-10T14:20:57Z</time>
      </trkpt>
      <trkpt lat="42.28911" lon="3.27947">
        <ele>5.4</ele>
        <time>2024-11-10T14:20:58Z</time>
      </trkpt>
      <trkpt lat="42.28911" lon="3.27947">
        <ele>5.4</ele>
        <time>2024-11-10T14:20:59Z</time>
      </trkpt>
      <trkpt lat="42.28911" lon="3.27947">
        <ele>5.4</ele>
        <time>2024-11-10T14:21:00Z</time>
      </trkpt>
      <trkpt lat="42.28911" lon="3.27947">
        <ele>5.4</ele>
        <time>2024-11-10T14:21:01Z</time>
      </trkpt>
      <trkpt lat="42.28911" lon="3.27947">
        <ele>5.4</ele>
        <time>2024-11-10T14:21:02Z</time>
      </trkpt>
      <trkpt lat="42.28911" lon="3.27947">
        <ele>5.4</ele>
        <time>2024-11-10T14:21:03Z</time>
      </trkpt>
      <trkpt lat="42.28911" lon="3.27947">
        <ele>5.4</ele>
        <time>2024-11-10T14:21:04Z</time>
      </trkpt>
      <trkpt lat="42.28911" lon="3.27947">
        <ele>5.4</ele>
        <time>2024-11-10T14:21:05Z</time>
      </trkpt>
      <trkpt lat="42.28911" lon="3.27947">
        <ele>5.4</ele>
        <time>2024-11-10T14:21:06Z</time>
      </trkpt>
      <trkpt lat="42.28911" lon="3.27947">
        <ele>5.4</ele>
        <time>2024-11-10T14:21:07Z</time>
      </trkpt>
      <trkpt lat="42.28911" lon="3.27947">
        <ele>5.4</ele>
        <time>2024-11-10T14:21:08Z</time>
      </trkpt>
      <trkpt lat="42.28911" lon="3.27947">
        <ele>5.4</ele>
        <time>2024-11-10T14:21:09Z</time>
      </trkpt>
      <trkpt lat="42.28911" lon="3.27947">
        <ele>5.4</ele>
        <time>2024-11-10T14:21:10Z</time>
      </trkpt>
      <trkpt lat="42.28911" lon="3.27947">
        <ele>5.4</ele>
        <time>2024-11-10T14:21:11Z</time>
      </trkpt>
      <trkpt lat="42.28911" lon="3.27947">
        <ele>5.4</ele>
        <time>2024-11-10T14:21:12Z</time>
      </trkpt>
      <trkpt lat="42.28911" lon="3.27947">
        <ele>5.4</ele>
        <time>2024-11-10T14:21:13Z</time>
      </trkpt>
      <trkpt lat="42.28911" lon="3.27947">
        <ele>5.4</ele>
        <time>2024-11-10T14:21:14Z</time>
      </trkpt>
      <trkpt lat="42.28911" lon="3.27947">
        <ele>5.4</ele>
        <time>2024-11-10T14:21:15Z</time>
      </trkpt>
      <trkpt lat="42.28911" lon="3.27947">
        <ele>5.4</ele>
        <time>2024-11-10T14:21:16Z</time>
      </trkpt>
      <trkpt lat="42.28911" lon="3.27947">
        <ele>5.4</ele>
        <time>2024-11-10T14:21:17Z</time>
      </trkpt>
      <trkpt lat="42.28911" lon="3.27947">
        <ele>5.4</ele>
        <time>2024-11-10T14:21:18Z</time>
      </trkpt>
      <trkpt lat="42.28911" lon="3.27947">
        <ele>5.4</ele>
        <time>2024-11-10T14:21:19Z</time>
      </trkpt>
      <trkpt lat="42.28911" lon="3.27947">
        <ele>5.4</ele>
        <time>2024-11-10T14:21:20Z</time>
      </trkpt>
      <trkpt lat="42.28911" lon="3.27947">
        <ele>5.4</ele>
        <time>2024-11-10T14:21:21Z</time>
      </trkpt>
      <trkpt lat="42.28911" lon="3.27947">
        <ele>5.4</ele>
        <time>2024-11-10T14:21:22Z</time>
      </trkpt>
      <trkpt lat="42.28911" lon="3.27947">
        <ele>5.4</ele>
        <time>2024-11-10T14:21:23Z</time>
      </trkpt>
      <trkpt lat="42.28911" lon="3.27947">
        <ele>5.4</ele>
        <time>2024-11-10T14:21:24Z</time>
      </trkpt>
      <trkpt lat="42.28911" lon="3.27947">
        <ele>5.4</ele>
        <time>2024-11-10T14:21:25Z</time>
      </trkpt>
      <trkpt lat="42.28911" lon="3.27947">
        <ele>5.4</ele>
        <time>2024-11-10T14:21:26Z</time>
      </trkpt>
      <trkpt lat="42.28911" lon="3.27947">
        <ele>5.4</ele>
        <time>2024-11-10T14:21:27Z</time>
      </trkpt>
      <trkpt lat="42.28911" lon="3.27947">
        <ele>5.4</ele>
        <time>2024-11-10T14:21:28Z</time>
      </trkpt>
      <trkpt lat="42.28911" lon="3.27947">
        <ele>5.4</ele>
        <time>2024-11-10T14:21:29Z</time>
      </trkpt>
      <trkpt lat="42.28911" lon="3.27947">
        <ele>5.4</ele>
        <time>2024-11-10T14:21:30Z</time>
      </trkpt>
      <trkpt lat="42.28911" lon="3.27947">
        <ele>5.4</ele>
        <time>2024-11-10T14:21:31Z</time>
      </trkpt>
      <trkpt lat="42.28911" lon="3.27947">
        <ele>5.4</ele>
        <time>2024-11-10T14:21:32Z</time>
      </trkpt>
      <trkpt lat="42.28911" lon="3.27947">
        <ele>5.4</ele>
        <time>2024-11-10T14:21:33Z</time>
      </trkpt>
      <trkpt lat="42.28911" lon="3.27947">
        <ele>5.4</ele>
        <time>2024-11-10T14:21:34Z</time>
      </trkpt>
      <trkpt lat="42.28911" lon="3.27947">
        <ele>5.4</ele>
        <time>2024-11-10T14:21:35Z</time>
      </trkpt>
      <trkpt lat="42.28911" lon="3.27947">
        <ele>5.4</ele>
        <time>2024-11-10T14:21:36Z</time>
      </trkpt>
      <trkpt lat="42.28911" lon="3.27947">
        <ele>5.4</ele>
        <time>2024-11-10T14:21:37Z</time>
      </trkpt>
      <trkpt lat="42.28911" lon="3.27947">
        <ele>5.4</ele>
        <time>2024-11-10T14:21:38Z</time>
      </trkpt>
      <trkpt lat="42.28911" lon="3.27947">
        <ele>5.4</ele>
        <time>2024-11-10T14:21:39Z</time>
      </trkpt>
      <trkpt lat="42.28911" lon="3.27947">
        <ele>5.4</ele>
        <time>2024-11-10T14:21:40Z</time>
      </trkpt>
      <trkpt lat="42.28911" lon="3.27947">
        <ele>5.4</ele>
        <time>2024-11-10T14:21:41Z</time>
      </trkpt>
      <trkpt lat="42.28911" lon="3.27947">
        <ele>5.4</ele>
        <time>2024-11-10T14:21:42Z</time>
      </trkpt>
      <trkpt lat="42.28911" lon="3.27947">
        <ele>5.4</ele>
        <time>2024-11-10T14:21:43Z</time>
      </trkpt>
      <trkpt lat="42.28911" lon="3.27947">
        <ele>5.4</ele>
        <time>2024-11-10T14:21:44Z</time>
      </trkpt>
      <trkpt lat="42.28911" lon="3.27947">
        <ele>5.4</ele>
        <time>2024-11-10T14:21:45Z</time>
      </trkpt>
      <trkpt lat="42.28911" lon="3.27947">
        <ele>5.4</ele>
        <time>2024-11-10T14:21:46Z</time>
      </trkpt>
      <trkpt lat="42.28911" lon="3.27947">
        <ele>5.4</ele>
        <time>2024-11-10T14:21:47Z</time>
      </trkpt>
      <trkpt lat="42.28911" lon="3.27947">
        <ele>5.4</ele>
        <time>2024-11-10T14:21:48Z</time>
      </trkpt>
      <trkpt lat="42.28911" lon="3.27947">
        <ele>5.4</ele>
        <time>2024-11-10T14:21:49Z</time>
      </trkpt>
      <trkpt lat="42.28911" lon="3.27947">
        <ele>5.4</ele>
        <time>2024-11-10T14:21:50Z</time>
      </trkpt>
      <trkpt lat="42.28911" lon="3.27947">
        <ele>5.4</ele>
        <time>2024-11-10T14:21:51Z</time>
      </trkpt>
      <trkpt lat="42.28911" lon="3.27947">
        <ele>5.4</ele>
        <time>2024-11-10T14:21:52Z</time>
      </trkpt>
      <trkpt lat="42.28911" lon="3.27947">
        <ele>5.4</ele>
        <time>2024-11-10T14:21:53Z</time>
      </trkpt>
      <trkpt lat="42.28911" lon="3.27947">
        <ele>5.4</ele>
        <time>2024-11-10T14:21:54Z</time>
      </trkpt>
      <trkpt lat="42.28911" lon="3.27947">
        <ele>5.4</ele>
        <time>2024-11-10T14:21:55Z</time>
      </trkpt>
      <trkpt lat="42.28911" lon="3.27947">
        <ele>5.4</ele>
        <time>2024-11-10T14:21:56Z</time>
      </trkpt>
      <trkpt lat="42.28911" lon="3.27947">
        <ele>5.4</ele>
        <time>2024-11-10T14:21:57Z</time>
      </trkpt>
      <trkpt lat="42.28911" lon="3.27947">
        <ele>5.4</ele>
        <time>2024-11-10T14:21:58Z</time>
      </trkpt>
      <trkpt lat="42.28911" lon="3.27947">
        <ele>5.4</ele>
        <time>2024-11-10T14:21:59Z</time>
      </trkpt>
      <trkpt lat="42.28911" lon="3.27947">
        <ele>5.4</ele>
        <time>2024-11-10T14:22:00Z</time>
      </trkpt>
      <trkpt lat="42.28911" lon="3.27947">
        <ele>5.4</ele>
        <time>2024-11-10T14:22:01Z</time>
      </trkpt>
      <trkpt lat="42.28911" lon="3.27947">
        <ele>5.4</ele>
        <time>2024-11-10T14:22:02Z</time>
      </trkpt>
      <trkpt lat="42.28911" lon="3.27947">
        <ele>5.4</ele>
        <time>2024-11-10T14:22:03Z</time>
      </trkpt>
      <trkpt lat="42.28911" lon="3.27947">
        <ele>5.4</ele>
        <time>2024-11-10T14:22:04Z</time>
      </trkpt>
      <trkpt lat="42.28911" lon="3.27947">
        <ele>5.4</ele>
        <time>2024-11-10T14:22:05Z</time>
      </trkpt>
      <trkpt lat="42.28911" lon="3.27947">
        <ele>5.4</ele>
        <time>2024-11-10T14:22:06Z</time>
      </trkpt>
      <trkpt lat="42.28911" lon="3.27947">
        <ele>5.4</ele>
        <time>2024-11-10T14:22:07Z</time>
      </trkpt>
      <trkpt lat="42.28911" lon="3.27947">
        <ele>5.4</ele>
        <time>2024-11-10T14:22:08Z</time>
      </trkpt>
      <trkpt lat="42.28911" lon="3.27947">
        <ele>5.4</ele>
        <time>2024-11-10T14:22:09Z</time>
      </trkpt>
      <trkpt lat="42.28911" lon="3.27947">
        <ele>5.4</ele>
        <time>2024-11-10T14:22:10Z</time>
      </trkpt>
      <trkpt lat="42.28911" lon="3.27947">
        <ele>5.4</ele>
        <time>2024-11-10T14:22:11Z</time>
      </trkpt>
      <trkpt lat="42.28911" lon="3.27947">
        <ele>5.4</ele>
        <time>2024-11-10T14:22:12Z</time>
      </trkpt>
      <trkpt lat="42.28911" lon="3.27947">
        <ele>5.4</ele>
        <time>2024-11-10T14:22:13Z</time>
      </trkpt>
      <trkpt lat="42.28911" lon="3.27947">
        <ele>5.4</ele>
        <time>2024-11-10T14:22:14Z</time>
      </trkpt>
      <trkpt lat="42.28911" lon="3.27947">
        <ele>5.4</ele>
        <time>2024-11-10T14:22:15Z</time>
      </trkpt>
      <trkpt lat="42.28911" lon="3.27947">
        <ele>5.4</ele>
        <time>2024-11-10T14:22:16Z</time>
      </trkpt>
      <trkpt lat="42.28912" lon="3.27947">
        <ele>5.4</ele>
        <time>2024-11-10T14:22:17Z</time>
      </trkpt>
      <trkpt lat="42.28912" lon="3.27947">
        <ele>5.4</ele>
        <time>2024-11-10T14:22:18Z</time>
      </trkpt>
      <trkpt lat="42.28912" lon="3.27947">
        <ele>5.4</ele>
        <time>2024-11-10T14:22:19Z</time>
      </trkpt>
      <trkpt lat="42.28912" lon="3.27947">
        <ele>5.4</ele>
        <time>2024-11-10T14:22:20Z</time>
      </trkpt>
      <trkpt lat="42.28912" lon="3.27947">
        <ele>5.4</ele>
        <time>2024-11-10T14:22:21Z</time>
      </trkpt>
      <trkpt lat="42.28912" lon="3.27947">
        <ele>5.4</ele>
        <time>2024-11-10T14:22:22Z</time>
      </trkpt>
      <trkpt lat="42.28912" lon="3.27947">
        <ele>5.4</ele>
        <time>2024-11-10T14:22:23Z</time>
      </trkpt>
      <trkpt lat="42.28912" lon="3.27947">
        <ele>5.4</ele>
        <time>2024-11-10T14:22:24Z</time>
      </trkpt>
      <trkpt lat="42.28912" lon="3.27947">
        <ele>5.4</ele>
        <time>2024-11-10T14:22:25Z</time>
      </trkpt>
      <trkpt lat="42.28912" lon="3.27947">
        <ele>5.4</ele>
        <time>2024-11-10T14:22:26Z</time>
      </trkpt>
      <trkpt lat="42.28912" lon="3.27947">
        <ele>5.4</ele>
        <time>2024-11-10T14:22:27Z</time>
      </trkpt>
      <trkpt lat="42.28912" lon="3.27947">
        <ele>5.4</ele>
        <time>2024-11-10T14:22:28Z</time>
      </trkpt>
      <trkpt lat="42.28912" lon="3.27947">
        <ele>5.4</ele>
        <time>2024-11-10T14:22:29Z</time>
      </trkpt>
      <trkpt lat="42.28912" lon="3.27947">
        <ele>5.4</ele>
        <time>2024-11-10T14:22:30Z</time>
      </trkpt>
      <trkpt lat="42.28912" lon="3.27947">
        <ele>5.4</ele>
        <time>2024-11-10T14:22:31Z</time>
      </trkpt>
      <trkpt lat="42.28912" lon="3.27947">
        <ele>5.4</ele>
        <time>2024-11-10T14:22:32Z</time>
      </trkpt>
      <trkpt lat="42.28912" lon="3.27947">
        <ele>5.4</ele>
        <time>2024-11-10T14:22:33Z</time>
      </trkpt>
      <trkpt lat="42.28912" lon="3.27947">
        <ele>5.4</ele>
        <time>2024-11-10T14:22:34Z</time>
      </trkpt>
      <trkpt lat="42.28912" lon="3.27947">
        <ele>5.4</ele>
        <time>2024-11-10T14:22:35Z</time>
      </trkpt>
      <trkpt lat="42.28912" lon="3.27947">
        <ele>5.4</ele>
        <time>2024-11-10T14:22:36Z</time>
      </trkpt>
      <trkpt lat="42.28912" lon="3.27947">
        <ele>5.4</ele>
        <time>2024-11-10T14:22:37Z</time>
      </trkpt>
      <trkpt lat="42.28912" lon="3.27947">
        <ele>5.4</ele>
        <time>2024-11-10T14:22:38Z</time>
      </trkpt>
      <trkpt lat="42.28912" lon="3.27947">
        <ele>5.4</ele>
        <time>2024-11-10T14:22:39Z</time>
      </trkpt>
      <trkpt lat="42.28912" lon="3.27947">
        <ele>5.4</ele>
        <time>2024-11-10T14:22:40Z</time>
      </trkpt>
      <trkpt lat="42.28912" lon="3.27947">
        <ele>5.4</ele>
        <time>2024-11-10T14:22:41Z</time>
      </trkpt>
      <trkpt lat="42.28912" lon="3.27947">
        <ele>5.4</ele>
        <time>2024-11-10T14:22:42Z</time>
      </trkpt>
      <trkpt lat="42.28912" lon="3.27947">
        <ele>5.4</ele>
        <time>2024-11-10T14:22:43Z</time>
      </trkpt>
      <trkpt lat="42.28912" lon="3.27947">
        <ele>5.4</ele>
        <time>2024-11-10T14:22:44Z</time>
      </trkpt>
      <trkpt lat="42.28911" lon="3.27947">
        <ele>5.4</ele>
        <time>2024-11-10T14:22:45Z</time>
      </trkpt>
      <trkpt lat="42.28911" lon="3.27947">
        <ele>5.4</ele>
        <time>2024-11-10T14:22:46Z</time>
      </trkpt>
      <trkpt lat="42.28911" lon="3.27947">
        <ele>5.4</ele>
        <time>2024-11-10T14:22:47Z</time>
      </trkpt>
      <trkpt lat="42.28911" lon="3.27947">
        <ele>5.4</ele>
        <time>2024-11-10T14:22:48Z</time>
      </trkpt>
      <trkpt lat="42.28911" lon="3.27947">
        <ele>5.4</ele>
        <time>2024-11-10T14:22:49Z</time>
      </trkpt>
      <trkpt lat="42.28911" lon="3.27947">
        <ele>5.4</ele>
        <time>2024-11-10T14:22:50Z</time>
      </trkpt>
      <trkpt lat="42.28911" lon="3.27947">
        <ele>5.4</ele>
        <time>2024-11-10T14:22:51Z</time>
      </trkpt>
      <trkpt lat="42.28911" lon="3.27947">
        <ele>5.4</ele>
        <time>2024-11-10T14:22:52Z</time>
      </trkpt>
      <trkpt lat="42.28911" lon="3.27947">
        <ele>5.4</ele>
        <time>2024-11-10T14:22:53Z</time>
      </trkpt>
      <trkpt lat="42.28911" lon="3.27947">
        <ele>5.4</ele>
        <time>2024-11-10T14:22:54Z</time>
      </trkpt>
      <trkpt lat="42.28911" lon="3.27947">
        <ele>5.4</ele>
        <time>2024-11-10T14:22:55Z</time>
      </trkpt>
      <trkpt lat="42.28911" lon="3.27947">
        <ele>5.4</ele>
        <time>2024-11-10T14:22:56Z</time>
      </trkpt>
      <trkpt lat="42.28911" lon="3.27947">
        <ele>5.4</ele>
        <time>2024-11-10T14:22:57Z</time>
      </trkpt>
      <trkpt lat="42.28911" lon="3.27947">
        <ele>5.4</ele>
        <time>2024-11-10T14:22:58Z</time>
      </trkpt>
      <trkpt lat="42.28911" lon="3.27947">
        <ele>5.4</ele>
        <time>2024-11-10T14:22:59Z</time>
      </trkpt>
      <trkpt lat="42.28911" lon="3.27947">
        <ele>5.4</ele>
        <time>2024-11-10T14:23:00Z</time>
      </trkpt>
      <trkpt lat="42.28911" lon="3.27947">
        <ele>5.4</ele>
        <time>2024-11-10T14:23:01Z</time>
      </trkpt>
      <trkpt lat="42.28911" lon="3.27947">
        <ele>5.4</ele>
        <time>2024-11-10T14:23:02Z</time>
      </trkpt>
      <trkpt lat="42.28911" lon="3.27947">
        <ele>5.4</ele>
        <time>2024-11-10T14:23:03Z</time>
      </trkpt>
      <trkpt lat="42.28911" lon="3.27947">
        <ele>5.4</ele>
        <time>2024-11-10T14:23:04Z</time>
      </trkpt>
      <trkpt lat="42.28911" lon="3.27947">
        <ele>5.4</ele>
        <time>2024-11-10T14:23:05Z</time>
      </trkpt>
      <trkpt lat="42.28911" lon="3.27947">
        <ele>5.4</ele>
        <time>2024-11-10T14:23:06Z</time>
      </trkpt>
      <trkpt lat="42.28911" lon="3.27947">
        <ele>5.4</ele>
        <time>2024-11-10T14:23:07Z</time>
      </trkpt>
      <trkpt lat="42.28911" lon="3.27947">
        <ele>5.4</ele>
        <time>2024-11-10T14:23:08Z</time>
      </trkpt>
      <trkpt lat="42.28911" lon="3.27947">
        <ele>5.4</ele>
        <time>2024-11-10T14:23:09Z</time>
      </trkpt>
      <trkpt lat="42.28911" lon="3.27947">
        <ele>5.4</ele>
        <time>2024-11-10T14:23:10Z</time>
      </trkpt>
      <trkpt lat="42.28911" lon="3.27947">
        <ele>5.4</ele>
        <time>2024-11-10T14:23:11Z</time>
      </trkpt>
      <trkpt lat="42.28911" lon="3.27947">
        <ele>5.4</ele>
        <time>2024-11-10T14:23:12Z</time>
      </trkpt>
      <trkpt lat="42.28911" lon="3.27947">
        <ele>5.4</ele>
        <time>2024-11-10T14:23:13Z</time>
      </trkpt>
      <trkpt lat="42.28911" lon="3.27947">
        <ele>5.4</ele>
        <time>2024-11-10T14:23:14Z</time>
      </trkpt>
      <trkpt lat="42.28911" lon="3.27947">
        <ele>5.4</ele>
        <time>2024-11-10T14:23:15Z</time>
      </trkpt>
      <trkpt lat="42.28911" lon="3.27947">
        <ele>5.4</ele>
        <time>2024-11-10T14:23:16Z</time>
      </trkpt>
      <trkpt lat="42.28911" lon="3.27947">
        <ele>5.4</ele>
        <time>2024-11-10T14:23:17Z</time>
      </trkpt>
      <trkpt lat="42.28911" lon="3.27947">
        <ele>5.4</ele>
        <time>2024-11-10T14:23:18Z</time>
      </trkpt>
      <trkpt lat="42.28911" lon="3.27947">
        <ele>5.4</ele>
        <time>2024-11-10T14:23:19Z</time>
      </trkpt>
      <trkpt lat="42.28911" lon="3.27947">
        <ele>5.4</ele>
        <time>2024-11-10T14:23:20Z</time>
      </trkpt>
      <trkpt lat="42.28911" lon="3.27947">
        <ele>5.4</ele>
        <time>2024-11-10T14:23:21Z</time>
      </trkpt>
      <trkpt lat="42.28911" lon="3.27947">
        <ele>5.4</ele>
        <time>2024-11-10T14:23:22Z</time>
      </trkpt>
      <trkpt lat="42.28911" lon="3.27947">
        <ele>5.4</ele>
        <time>2024-11-10T14:23:23Z</time>
      </trkpt>
      <trkpt lat="42.28911" lon="3.27947">
        <ele>5.4</ele>
        <time>2024-11-10T14:23:24Z</time>
      </trkpt>
      <trkpt lat="42.28911" lon="3.27947">
        <ele>5.4</ele>
        <time>2024-11-10T14:23:25Z</time>
      </trkpt>
      <trkpt lat="42.28911" lon="3.27947">
        <ele>5.4</ele>
        <time>2024-11-10T14:23:26Z</time>
      </trkpt>
      <trkpt lat="42.28911" lon="3.27947">
        <ele>5.4</ele>
        <time>2024-11-10T14:23:27Z</time>
      </trkpt>
      <trkpt lat="42.28911" lon="3.27947">
        <ele>5.4</ele>
        <time>2024-11-10T14:23:28Z</time>
      </trkpt>
      <trkpt lat="42.28911" lon="3.27947">
        <ele>5.4</ele>
        <time>2024-11-10T14:23:29Z</time>
      </trkpt>
      <trkpt lat="42.28911" lon="3.27947">
        <ele>5.4</ele>
        <time>2024-11-10T14:23:30Z</time>
      </trkpt>
      <trkpt lat="42.28911" lon="3.27947">
        <ele>5.4</ele>
        <time>2024-11-10T14:23:31Z</time>
      </trkpt>
      <trkpt lat="42.28911" lon="3.27947">
        <ele>5.4</ele>
        <time>2024-11-10T14:23:32Z</time>
      </trkpt>
      <trkpt lat="42.28911" lon="3.27947">
        <ele>5.4</ele>
        <time>2024-11-10T14:23:33Z</time>
      </trkpt>
      <trkpt lat="42.28911" lon="3.27947">
        <ele>5.4</ele>
        <time>2024-11-10T14:23:34Z</time>
      </trkpt>
      <trkpt lat="42.28911" lon="3.27947">
        <ele>5.4</ele>
        <time>2024-11-10T14:23:35Z</time>
      </trkpt>
      <trkpt lat="42.28911" lon="3.27947">
        <ele>5.4</ele>
        <time>2024-11-10T14:23:36Z</time>
      </trkpt>
      <trkpt lat="42.28911" lon="3.27947">
        <ele>5.4</ele>
        <time>2024-11-10T14:23:37Z</time>
      </trkpt>
      <trkpt lat="42.28911" lon="3.27947">
        <ele>5.4</ele>
        <time>2024-11-10T14:23:38Z</time>
      </trkpt>
      <trkpt lat="42.28911" lon="3.27947">
        <ele>5.4</ele>
        <time>2024-11-10T14:23:39Z</time>
      </trkpt>
      <trkpt lat="42.28911" lon="3.27947">
        <ele>5.4</ele>
        <time>2024-11-10T14:23:40Z</time>
      </trkpt>
      <trkpt lat="42.28911" lon="3.27947">
        <ele>5.4</ele>
        <time>2024-11-10T14:23:41Z</time>
      </trkpt>
      <trkpt lat="42.28911" lon="3.27947">
        <ele>5.4</ele>
        <time>2024-11-10T14:23:42Z</time>
      </trkpt>
      <trkpt lat="42.28911" lon="3.27947">
        <ele>5.4</ele>
        <time>2024-11-10T14:23:43Z</time>
      </trkpt>
      <trkpt lat="42.28911" lon="3.27947">
        <ele>5.4</ele>
        <time>2024-11-10T14:23:44Z</time>
      </trkpt>
      <trkpt lat="42.28911" lon="3.27947">
        <ele>5.4</ele>
        <time>2024-11-10T14:23:45Z</time>
      </trkpt>
      <trkpt lat="42.28911" lon="3.27947">
        <ele>5.4</ele>
        <time>2024-11-10T14:23:46Z</time>
      </trkpt>
      <trkpt lat="42.28911" lon="3.27947">
        <ele>5.4</ele>
        <time>2024-11-10T14:23:47Z</time>
      </trkpt>
      <trkpt lat="42.28911" lon="3.27947">
        <ele>5.4</ele>
        <time>2024-11-10T14:23:48Z</time>
      </trkpt>
      <trkpt lat="42.28911" lon="3.27947">
        <ele>5.4</ele>
        <time>2024-11-10T14:23:49Z</time>
      </trkpt>
      <trkpt lat="42.28911" lon="3.27947">
        <ele>5.4</ele>
        <time>2024-11-10T14:23:50Z</time>
      </trkpt>
      <trkpt lat="42.28911" lon="3.27947">
        <ele>5.4</ele>
        <time>2024-11-10T14:23:51Z</time>
      </trkpt>
      <trkpt lat="42.28911" lon="3.27947">
        <ele>5.4</ele>
        <time>2024-11-10T14:23:52Z</time>
      </trkpt>
      <trkpt lat="42.28911" lon="3.27947">
        <ele>5.4</ele>
        <time>2024-11-10T14:23:53Z</time>
      </trkpt>
      <trkpt lat="42.28911" lon="3.27947">
        <ele>5.4</ele>
        <time>2024-11-10T14:23:54Z</time>
      </trkpt>
      <trkpt lat="42.28911" lon="3.27947">
        <ele>5.4</ele>
        <time>2024-11-10T14:23:55Z</time>
      </trkpt>
      <trkpt lat="42.28911" lon="3.27947">
        <ele>5.4</ele>
        <time>2024-11-10T14:23:56Z</time>
      </trkpt>
      <trkpt lat="42.28911" lon="3.27947">
        <ele>5.4</ele>
        <time>2024-11-10T14:23:57Z</time>
      </trkpt>
      <trkpt lat="42.28911" lon="3.27947">
        <ele>5.4</ele>
        <time>2024-11-10T14:23:58Z</time>
      </trkpt>
      <trkpt lat="42.28911" lon="3.27947">
        <ele>5.4</ele>
        <time>2024-11-10T14:23:59Z</time>
      </trkpt>
      <trkpt lat="42.28911" lon="3.27947">
        <ele>5.4</ele>
        <time>2024-11-10T14:24:00Z</time>
      </trkpt>
      <trkpt lat="42.28911" lon="3.27947">
        <ele>5.4</ele>
        <time>2024-11-10T14:24:01Z</time>
      </trkpt>
      <trkpt lat="42.28911" lon="3.27947">
        <ele>5.4</ele>
        <time>2024-11-10T14:24:02Z</time>
      </trkpt>
      <trkpt lat="42.28911" lon="3.27947">
        <ele>5.4</ele>
        <time>2024-11-10T14:24:03Z</time>
      </trkpt>
      <trkpt lat="42.28911" lon="3.27947">
        <ele>5.4</ele>
        <time>2024-11-10T14:24:04Z</time>
      </trkpt>
      <trkpt lat="42.28911" lon="3.27947">
        <ele>5.4</ele>
        <time>2024-11-10T14:24:05Z</time>
      </trkpt>
      <trkpt lat="42.28911" lon="3.27947">
        <ele>5.4</ele>
        <time>2024-11-10T14:24:06Z</time>
      </trkpt>
      <trkpt lat="42.28911" lon="3.27947">
        <ele>5.4</ele>
        <time>2024-11-10T14:24:07Z</time>
      </trkpt>
      <trkpt lat="42.28911" lon="3.27947">
        <ele>5.4</ele>
        <time>2024-11-10T14:24:08Z</time>
      </trkpt>
      <trkpt lat="42.28911" lon="3.27947">
        <ele>5.4</ele>
        <time>2024-11-10T14:24:09Z</time>
      </trkpt>
      <trkpt lat="42.28911" lon="3.27947">
        <ele>5.4</ele>
        <time>2024-11-10T14:24:10Z</time>
      </trkpt>
      <trkpt lat="42.28911" lon="3.27947">
        <ele>5.4</ele>
        <time>2024-11-10T14:24:11Z</time>
      </trkpt>
      <trkpt lat="42.28911" lon="3.27947">
        <ele>5.4</ele>
        <time>2024-11-10T14:24:12Z</time>
      </trkpt>
      <trkpt lat="42.28911" lon="3.27947">
        <ele>5.4</ele>
        <time>2024-11-10T14:24:13Z</time>
      </trkpt>
      <trkpt lat="42.28911" lon="3.27947">
        <ele>5.4</ele>
        <time>2024-11-10T14:24:14Z</time>
      </trkpt>
      <trkpt lat="42.28911" lon="3.27947">
        <ele>5.4</ele>
        <time>2024-11-10T14:24:15Z</time>
      </trkpt>
      <trkpt lat="42.28911" lon="3.27947">
        <ele>5.4</ele>
        <time>2024-11-10T14:24:16Z</time>
      </trkpt>
      <trkpt lat="42.28911" lon="3.27947">
        <ele>5.4</ele>
        <time>2024-11-10T14:24:17Z</time>
      </trkpt>
      <trkpt lat="42.28911" lon="3.27947">
        <ele>5.4</ele>
        <time>2024-11-10T14:24:18Z</time>
      </trkpt>
      <trkpt lat="42.28911" lon="3.27947">
        <ele>5.4</ele>
        <time>2024-11-10T14:24:19Z</time>
      </trkpt>
      <trkpt lat="42.28911" lon="3.27947">
        <ele>5.4</ele>
        <time>2024-11-10T14:24:20Z</time>
      </trkpt>
      <trkpt lat="42.28911" lon="3.27947">
        <ele>5.4</ele>
        <time>2024-11-10T14:24:21Z</time>
      </trkpt>
      <trkpt lat="42.28911" lon="3.27947">
        <ele>5.4</ele>
        <time>2024-11-10T14:24:22Z</time>
      </trkpt>
      <trkpt lat="42.28911" lon="3.27947">
        <ele>5.4</ele>
        <time>2024-11-10T14:24:23Z</time>
      </trkpt>
      <trkpt lat="42.28911" lon="3.27947">
        <ele>5.4</ele>
        <time>2024-11-10T14:24:24Z</time>
      </trkpt>
      <trkpt lat="42.28911" lon="3.27947">
        <ele>5.4</ele>
        <time>2024-11-10T14:24:25Z</time>
      </trkpt>
      <trkpt lat="42.28911" lon="3.27947">
        <ele>5.4</ele>
        <time>2024-11-10T14:24:26Z</time>
      </trkpt>
      <trkpt lat="42.28911" lon="3.27947">
        <ele>5.4</ele>
        <time>2024-11-10T14:24:27Z</time>
      </trkpt>
      <trkpt lat="42.28911" lon="3.27947">
        <ele>5.4</ele>
        <time>2024-11-10T14:24:28Z</time>
      </trkpt>
      <trkpt lat="42.28911" lon="3.27947">
        <ele>5.4</ele>
        <time>2024-11-10T14:24:29Z</time>
      </trkpt>
      <trkpt lat="42.28911" lon="3.27947">
        <ele>5.4</ele>
        <time>2024-11-10T14:24:30Z</time>
      </trkpt>
      <trkpt lat="42.28911" lon="3.27947">
        <ele>5.4</ele>
        <time>2024-11-10T14:24:31Z</time>
      </trkpt>
      <trkpt lat="42.28911" lon="3.27947">
        <ele>5.4</ele>
        <time>2024-11-10T14:24:32Z</time>
      </trkpt>
      <trkpt lat="42.28911" lon="3.27947">
        <ele>5.4</ele>
        <time>2024-11-10T14:24:33Z</time>
      </trkpt>
      <trkpt lat="42.28911" lon="3.27947">
        <ele>5.4</ele>
        <time>2024-11-10T14:24:34Z</time>
      </trkpt>
      <trkpt lat="42.28911" lon="3.27947">
        <ele>5.4</ele>
        <time>2024-11-10T14:24:35Z</time>
      </trkpt>
      <trkpt lat="42.28911" lon="3.27947">
        <ele>5.4</ele>
        <time>2024-11-10T14:24:36Z</time>
      </trkpt>
      <trkpt lat="42.28911" lon="3.27947">
        <ele>5.4</ele>
        <time>2024-11-10T14:24:37Z</time>
      </trkpt>
      <trkpt lat="42.28911" lon="3.27947">
        <ele>5.4</ele>
        <time>2024-11-10T14:24:38Z</time>
      </trkpt>
      <trkpt lat="42.28911" lon="3.27947">
        <ele>5.4</ele>
        <time>2024-11-10T14:24:39Z</time>
      </trkpt>
      <trkpt lat="42.28911" lon="3.27947">
        <ele>5.4</ele>
        <time>2024-11-10T14:24:40Z</time>
      </trkpt>
      <trkpt lat="42.28911" lon="3.27947">
        <ele>5.4</ele>
        <time>2024-11-10T14:24:41Z</time>
      </trkpt>
      <trkpt lat="42.28911" lon="3.27947">
        <ele>5.4</ele>
        <time>2024-11-10T14:24:42Z</time>
      </trkpt>
      <trkpt lat="42.28911" lon="3.27947">
        <ele>5.4</ele>
        <time>2024-11-10T14:24:43Z</time>
      </trkpt>
      <trkpt lat="42.28911" lon="3.27947">
        <ele>5.4</ele>
        <time>2024-11-10T14:24:44Z</time>
      </trkpt>
      <trkpt lat="42.28911" lon="3.27947">
        <ele>5.4</ele>
        <time>2024-11-10T14:24:45Z</time>
      </trkpt>
      <trkpt lat="42.28911" lon="3.27947">
        <ele>5.4</ele>
        <time>2024-11-10T14:24:46Z</time>
      </trkpt>
      <trkpt lat="42.28911" lon="3.27947">
        <ele>5.4</ele>
        <time>2024-11-10T14:24:47Z</time>
      </trkpt>
      <trkpt lat="42.28911" lon="3.27947">
        <ele>5.4</ele>
        <time>2024-11-10T14:24:48Z</time>
      </trkpt>
      <trkpt lat="42.28911" lon="3.27947">
        <ele>5.4</ele>
        <time>2024-11-10T14:24:49Z</time>
      </trkpt>
      <trkpt lat="42.28911" lon="3.27947">
        <ele>5.4</ele>
        <time>2024-11-10T14:24:50Z</time>
      </trkpt>
      <trkpt lat="42.28911" lon="3.27947">
        <ele>5.4</ele>
        <time>2024-11-10T14:24:51Z</time>
      </trkpt>
      <trkpt lat="42.28911" lon="3.27947">
        <ele>5.4</ele>
        <time>2024-11-10T14:24:52Z</time>
      </trkpt>
      <trkpt lat="42.28911" lon="3.27947">
        <ele>5.4</ele>
        <time>2024-11-10T14:24:53Z</time>
      </trkpt>
      <trkpt lat="42.28911" lon="3.27947">
        <ele>5.4</ele>
        <time>2024-11-10T14:24:54Z</time>
      </trkpt>
      <trkpt lat="42.28911" lon="3.27947">
        <ele>5.4</ele>
        <time>2024-11-10T14:24:55Z</time>
      </trkpt>
      <trkpt lat="42.28911" lon="3.27947">
        <ele>5.4</ele>
        <time>2024-11-10T14:24:56Z</time>
      </trkpt>
      <trkpt lat="42.28911" lon="3.27947">
        <ele>5.4</ele>
        <time>2024-11-10T14:24:57Z</time>
      </trkpt>
      <trkpt lat="42.28911" lon="3.27947">
        <ele>5.4</ele>
        <time>2024-11-10T14:24:58Z</time>
      </trkpt>
      <trkpt lat="42.28911" lon="3.27947">
        <ele>5.4</ele>
        <time>2024-11-10T14:24:59Z</time>
      </trkpt>
      <trkpt lat="42.28911" lon="3.27947">
        <ele>5.4</ele>
        <time>2024-11-10T14:25:00Z</time>
      </trkpt>
      <trkpt lat="42.28911" lon="3.27947">
        <ele>5.4</ele>
        <time>2024-11-10T14:25:01Z</time>
      </trkpt>
      <trkpt lat="42.28911" lon="3.27947">
        <ele>5.4</ele>
        <time>2024-11-10T14:25:02Z</time>
      </trkpt>
      <trkpt lat="42.28911" lon="3.27947">
        <ele>5.4</ele>
        <time>2024-11-10T14:25:03Z</time>
      </trkpt>
      <trkpt lat="42.28911" lon="3.27947">
        <ele>5.4</ele>
        <time>2024-11-10T14:25:04Z</time>
      </trkpt>
      <trkpt lat="42.28911" lon="3.27947">
        <ele>5.4</ele>
        <time>2024-11-10T14:25:05Z</time>
      </trkpt>
      <trkpt lat="42.28911" lon="3.27947">
        <ele>5.4</ele>
        <time>2024-11-10T14:25:06Z</time>
      </trkpt>
      <trkpt lat="42.28911" lon="3.27947">
        <ele>5.4</ele>
        <time>2024-11-10T14:25:07Z</time>
      </trkpt>
      <trkpt lat="42.28911" lon="3.27947">
        <ele>5.4</ele>
        <time>2024-11-10T14:25:08Z</time>
      </trkpt>
      <trkpt lat="42.28911" lon="3.27947">
        <ele>5.4</ele>
        <time>2024-11-10T14:25:09Z</time>
      </trkpt>
      <trkpt lat="42.28911" lon="3.27947">
        <ele>5.4</ele>
        <time>2024-11-10T14:25:10Z</time>
      </trkpt>
      <trkpt lat="42.28912" lon="3.27947">
        <ele>5.4</ele>
        <time>2024-11-10T14:25:11Z</time>
      </trkpt>
      <trkpt lat="42.28912" lon="3.27947">
        <ele>5.4</ele>
        <time>2024-11-10T14:25:12Z</time>
      </trkpt>
      <trkpt lat="42.28912" lon="3.27947">
        <ele>5.4</ele>
        <time>2024-11-10T14:25:13Z</time>
      </trkpt>
      <trkpt lat="42.28912" lon="3.27947">
        <ele>5.4</ele>
        <time>2024-11-10T14:25:14Z</time>
      </trkpt>
      <trkpt lat="42.28912" lon="3.27947">
        <ele>5.4</ele>
        <time>2024-11-10T14:25:15Z</time>
      </trkpt>
      <trkpt lat="42.28912" lon="3.27947">
        <ele>5.4</ele>
        <time>2024-11-10T14:25:16Z</time>
      </trkpt>
      <trkpt lat="42.28912" lon="3.27947">
        <ele>5.4</ele>
        <time>2024-11-10T14:25:17Z</time>
      </trkpt>
      <trkpt lat="42.28912" lon="3.27947">
        <ele>5.4</ele>
        <time>2024-11-10T14:25:18Z</time>
      </trkpt>
      <trkpt lat="42.28912" lon="3.27947">
        <ele>5.4</ele>
        <time>2024-11-10T14:25:19Z</time>
      </trkpt>
      <trkpt lat="42.28912" lon="3.27947">
        <ele>5.4</ele>
        <time>2024-11-10T14:25:20Z</time>
      </trkpt>
      <trkpt lat="42.28912" lon="3.27947">
        <ele>5.4</ele>
        <time>2024-11-10T14:25:21Z</time>
      </trkpt>
      <trkpt lat="42.28912" lon="3.27947">
        <ele>5.4</ele>
        <time>2024-11-10T14:25:22Z</time>
      </trkpt>
      <trkpt lat="42.28912" lon="3.27947">
        <ele>5.4</ele>
        <time>2024-11-10T14:25:23Z</time>
      </trkpt>
      <trkpt lat="42.28911" lon="3.27947">
        <ele>5.4</ele>
        <time>2024-11-10T14:25:24Z</time>
      </trkpt>
      <trkpt lat="42.28911" lon="3.27947">
        <ele>5.4</ele>
        <time>2024-11-10T14:25:25Z</time>
      </trkpt>
      <trkpt lat="42.28911" lon="3.27947">
        <ele>5.4</ele>
        <time>2024-11-10T14:25:26Z</time>
      </trkpt>
      <trkpt lat="42.28911" lon="3.27947">
        <ele>5.4</ele>
        <time>2024-11-10T14:25:27Z</time>
      </trkpt>
      <trkpt lat="42.28911" lon="3.27947">
        <ele>5.4</ele>
        <time>2024-11-10T14:25:28Z</time>
      </trkpt>
      <trkpt lat="42.28911" lon="3.27947">
        <ele>5.4</ele>
        <time>2024-11-10T14:25:29Z</time>
      </trkpt>
      <trkpt lat="42.28911" lon="3.27947">
        <ele>5.4</ele>
        <time>2024-11-10T14:25:30Z</time>
      </trkpt>
      <trkpt lat="42.28911" lon="3.27947">
        <ele>5.4</ele>
        <time>2024-11-10T14:25:31Z</time>
      </trkpt>
      <trkpt lat="42.28911" lon="3.27947">
        <ele>5.4</ele>
        <time>2024-11-10T14:25:32Z</time>
      </trkpt>
      <trkpt lat="42.28911" lon="3.27947">
        <ele>5.4</ele>
        <time>2024-11-10T14:25:33Z</time>
      </trkpt>
      <trkpt lat="42.28911" lon="3.27947">
        <ele>5.4</ele>
        <time>2024-11-10T14:25:34Z</time>
      </trkpt>
      <trkpt lat="42.28911" lon="3.27947">
        <ele>5.4</ele>
        <time>2024-11-10T14:25:35Z</time>
      </trkpt>
      <trkpt lat="42.28911" lon="3.27947">
        <ele>5.4</ele>
        <time>2024-11-10T14:25:36Z</time>
      </trkpt>
      <trkpt lat="42.28911" lon="3.27947">
        <ele>5.4</ele>
        <time>2024-11-10T14:25:37Z</time>
      </trkpt>
      <trkpt lat="42.28911" lon="3.27947">
        <ele>5.4</ele>
        <time>2024-11-10T14:25:38Z</time>
      </trkpt>
      <trkpt lat="42.28911" lon="3.27947">
        <ele>5.4</ele>
        <time>2024-11-10T14:25:39Z</time>
      </trkpt>
      <trkpt lat="42.28911" lon="3.27947">
        <ele>5.4</ele>
        <time>2024-11-10T14:25:40Z</time>
      </trkpt>
      <trkpt lat="42.28911" lon="3.27947">
        <ele>5.4</ele>
        <time>2024-11-10T14:25:41Z</time>
      </trkpt>
      <trkpt lat="42.28911" lon="3.27947">
        <ele>5.4</ele>
        <time>2024-11-10T14:25:42Z</time>
      </trkpt>
      <trkpt lat="42.28911" lon="3.27947">
        <ele>5.4</ele>
        <time>2024-11-10T14:25:43Z</time>
      </trkpt>
      <trkpt lat="42.28911" lon="3.27947">
        <ele>5.4</ele>
        <time>2024-11-10T14:25:44Z</time>
      </trkpt>
      <trkpt lat="42.28911" lon="3.27947">
        <ele>5.4</ele>
        <time>2024-11-10T14:25:45Z</time>
      </trkpt>
      <trkpt lat="42.28911" lon="3.27947">
        <ele>5.4</ele>
        <time>2024-11-10T14:25:46Z</time>
      </trkpt>
      <trkpt lat="42.28911" lon="3.27947">
        <ele>5.4</ele>
        <time>2024-11-10T14:25:47Z</time>
      </trkpt>
      <trkpt lat="42.28911" lon="3.27947">
        <ele>5.4</ele>
        <time>2024-11-10T14:25:48Z</time>
      </trkpt>
      <trkpt lat="42.28911" lon="3.27947">
        <ele>5.4</ele>
        <time>2024-11-10T14:25:49Z</time>
      </trkpt>
      <trkpt lat="42.28911" lon="3.27947">
        <ele>5.4</ele>
        <time>2024-11-10T14:25:50Z</time>
      </trkpt>
      <trkpt lat="42.28911" lon="3.27947">
        <ele>5.4</ele>
        <time>2024-11-10T14:25:51Z</time>
      </trkpt>
      <trkpt lat="42.28911" lon="3.27947">
        <ele>5.4</ele>
        <time>2024-11-10T14:25:52Z</time>
      </trkpt>
      <trkpt lat="42.28911" lon="3.27947">
        <ele>5.4</ele>
        <time>2024-11-10T14:25:53Z</time>
      </trkpt>
      <trkpt lat="42.28911" lon="3.27947">
        <ele>5.4</ele>
        <time>2024-11-10T14:25:54Z</time>
      </trkpt>
      <trkpt lat="42.28911" lon="3.27947">
        <ele>5.4</ele>
        <time>2024-11-10T14:25:55Z</time>
      </trkpt>
      <trkpt lat="42.28911" lon="3.27947">
        <ele>5.4</ele>
        <time>2024-11-10T14:25:56Z</time>
      </trkpt>
      <trkpt lat="42.28911" lon="3.27947">
        <ele>5.4</ele>
        <time>2024-11-10T14:25:57Z</time>
      </trkpt>
      <trkpt lat="42.28911" lon="3.27947">
        <ele>5.4</ele>
        <time>2024-11-10T14:25:58Z</time>
      </trkpt>
      <trkpt lat="42.28911" lon="3.27947">
        <ele>5.4</ele>
        <time>2024-11-10T14:25:59Z</time>
      </trkpt>
      <trkpt lat="42.28911" lon="3.27947">
        <ele>5.4</ele>
        <time>2024-11-10T14:26:00Z</time>
      </trkpt>
      <trkpt lat="42.28911" lon="3.27947">
        <ele>5.4</ele>
        <time>2024-11-10T14:26:01Z</time>
      </trkpt>
      <trkpt lat="42.28911" lon="3.27947">
        <ele>5.4</ele>
        <time>2024-11-10T14:26:02Z</time>
      </trkpt>
      <trkpt lat="42.28911" lon="3.27947">
        <ele>5.4</ele>
        <time>2024-11-10T14:26:03Z</time>
      </trkpt>
      <trkpt lat="42.28911" lon="3.27947">
        <ele>5.4</ele>
        <time>2024-11-10T14:26:04Z</time>
      </trkpt>
      <trkpt lat="42.28911" lon="3.27947">
        <ele>5.4</ele>
        <time>2024-11-10T14:26:05Z</time>
      </trkpt>
      <trkpt lat="42.28911" lon="3.27947">
        <ele>5.4</ele>
        <time>2024-11-10T14:26:06Z</time>
      </trkpt>
      <trkpt lat="42.28911" lon="3.27947">
        <ele>5.4</ele>
        <time>2024-11-10T14:26:07Z</time>
      </trkpt>
      <trkpt lat="42.28911" lon="3.27947">
        <ele>5.4</ele>
        <time>2024-11-10T14:26:08Z</time>
      </trkpt>
      <trkpt lat="42.28911" lon="3.27947">
        <ele>5.4</ele>
        <time>2024-11-10T14:26:09Z</time>
      </trkpt>
      <trkpt lat="42.28911" lon="3.27947">
        <ele>5.4</ele>
        <time>2024-11-10T14:26:10Z</time>
      </trkpt>
      <trkpt lat="42.28911" lon="3.27947">
        <ele>5.4</ele>
        <time>2024-11-10T14:26:11Z</time>
      </trkpt>
      <trkpt lat="42.28911" lon="3.27947">
        <ele>5.4</ele>
        <time>2024-11-10T14:26:12Z</time>
      </trkpt>
      <trkpt lat="42.28911" lon="3.27947">
        <ele>5.4</ele>
        <time>2024-11-10T14:26:13Z</time>
      </trkpt>
      <trkpt lat="42.28911" lon="3.27947">
        <ele>5.4</ele>
        <time>2024-11-10T14:26:14Z</time>
      </trkpt>
      <trkpt lat="42.28911" lon="3.27947">
        <ele>5.4</ele>
        <time>2024-11-10T14:26:15Z</time>
      </trkpt>
      <trkpt lat="42.28911" lon="3.27947">
        <ele>5.4</ele>
        <time>2024-11-10T14:26:16Z</time>
      </trkpt>
      <trkpt lat="42.28911" lon="3.27947">
        <ele>5.4</ele>
        <time>2024-11-10T14:26:17Z</time>
      </trkpt>
      <trkpt lat="42.28911" lon="3.27947">
        <ele>5.4</ele>
        <time>2024-11-10T14:26:18Z</time>
      </trkpt>
      <trkpt lat="42.28911" lon="3.27947">
        <ele>5.4</ele>
        <time>2024-11-10T14:26:19Z</time>
      </trkpt>
      <trkpt lat="42.28911" lon="3.27947">
        <ele>5.4</ele>
        <time>2024-11-10T14:26:20Z</time>
      </trkpt>
      <trkpt lat="42.28911" lon="3.27947">
        <ele>5.4</ele>
        <time>2024-11-10T14:26:21Z</time>
      </trkpt>
      <trkpt lat="42.28911" lon="3.27947">
        <ele>5.4</ele>
        <time>2024-11-10T14:26:22Z</time>
      </trkpt>
      <trkpt lat="42.28911" lon="3.27947">
        <ele>5.4</ele>
        <time>2024-11-10T14:26:23Z</time>
      </trkpt>
      <trkpt lat="42.28911" lon="3.27947">
        <ele>5.4</ele>
        <time>2024-11-10T14:26:24Z</time>
      </trkpt>
      <trkpt lat="42.28911" lon="3.27947">
        <ele>5.4</ele>
        <time>2024-11-10T14:26:25Z</time>
      </trkpt>
      <trkpt lat="42.28911" lon="3.27947">
        <ele>5.4</ele>
        <time>2024-11-10T14:26:26Z</time>
      </trkpt>
      <trkpt lat="42.28911" lon="3.27947">
        <ele>5.4</ele>
        <time>2024-11-10T14:26:27Z</time>
      </trkpt>
      <trkpt lat="42.28911" lon="3.27947">
        <ele>5.4</ele>
        <time>2024-11-10T14:26:28Z</time>
      </trkpt>
      <trkpt lat="42.28911" lon="3.27947">
        <ele>5.4</ele>
        <time>2024-11-10T14:26:29Z</time>
      </trkpt>
      <trkpt lat="42.28911" lon="3.27947">
        <ele>5.4</ele>
        <time>2024-11-10T14:26:30Z</time>
      </trkpt>
      <trkpt lat="42.28911" lon="3.27947">
        <ele>5.4</ele>
        <time>2024-11-10T14:26:31Z</time>
      </trkpt>
      <trkpt lat="42.28911" lon="3.27947">
        <ele>5.4</ele>
        <time>2024-11-10T14:26:32Z</time>
      </trkpt>
      <trkpt lat="42.28911" lon="3.27947">
        <ele>5.4</ele>
        <time>2024-11-10T14:26:33Z</time>
      </trkpt>
      <trkpt lat="42.28911" lon="3.27947">
        <ele>5.4</ele>
        <time>2024-11-10T14:26:34Z</time>
      </trkpt>
      <trkpt lat="42.28911" lon="3.27947">
        <ele>5.4</ele>
        <time>2024-11-10T14:26:35Z</time>
      </trkpt>
      <trkpt lat="42.28911" lon="3.27947">
        <ele>5.4</ele>
        <time>2024-11-10T14:26:36Z</time>
      </trkpt>
      <trkpt lat="42.28911" lon="3.27947">
        <ele>5.4</ele>
        <time>2024-11-10T14:26:37Z</time>
      </trkpt>
      <trkpt lat="42.28911" lon="3.27947">
        <ele>5.4</ele>
        <time>2024-11-10T14:26:38Z</time>
      </trkpt>
      <trkpt lat="42.28911" lon="3.27947">
        <ele>5.4</ele>
        <time>2024-11-10T14:26:39Z</time>
      </trkpt>
      <trkpt lat="42.28911" lon="3.27947">
        <ele>5.4</ele>
        <time>2024-11-10T14:26:40Z</time>
      </trkpt>
      <trkpt lat="42.28911" lon="3.27947">
        <ele>5.4</ele>
        <time>2024-11-10T14:26:41Z</time>
      </trkpt>
      <trkpt lat="42.28911" lon="3.27947">
        <ele>5.4</ele>
        <time>2024-11-10T14:26:42Z</time>
      </trkpt>
      <trkpt lat="42.28911" lon="3.27947">
        <ele>5.4</ele>
        <time>2024-11-10T14:26:43Z</time>
      </trkpt>
      <trkpt lat="42.28911" lon="3.27947">
        <ele>5.4</ele>
        <time>2024-11-10T14:26:44Z</time>
      </trkpt>
      <trkpt lat="42.28911" lon="3.27947">
        <ele>5.4</ele>
        <time>2024-11-10T14:26:45Z</time>
      </trkpt>
      <trkpt lat="42.28911" lon="3.27947">
        <ele>5.4</ele>
        <time>2024-11-10T14:26:46Z</time>
      </trkpt>
      <trkpt lat="42.28911" lon="3.27947">
        <ele>5.4</ele>
        <time>2024-11-10T14:26:47Z</time>
      </trkpt>
      <trkpt lat="42.28911" lon="3.27947">
        <ele>5.4</ele>
        <time>2024-11-10T14:26:48Z</time>
      </trkpt>
      <trkpt lat="42.28911" lon="3.27947">
        <ele>5.4</ele>
        <time>2024-11-10T14:26:49Z</time>
      </trkpt>
      <trkpt lat="42.28911" lon="3.27947">
        <ele>5.4</ele>
        <time>2024-11-10T14:26:50Z</time>
      </trkpt>
      <trkpt lat="42.28911" lon="3.27947">
        <ele>5.4</ele>
        <time>2024-11-10T14:26:51Z</time>
      </trkpt>
      <trkpt lat="42.28911" lon="3.27947">
        <ele>5.4</ele>
        <time>2024-11-10T14:26:52Z</time>
      </trkpt>
      <trkpt lat="42.28911" lon="3.27947">
        <ele>5.4</ele>
        <time>2024-11-10T14:26:53Z</time>
      </trkpt>
      <trkpt lat="42.28911" lon="3.27947">
        <ele>5.4</ele>
        <time>2024-11-10T14:26:54Z</time>
      </trkpt>
      <trkpt lat="42.28911" lon="3.27947">
        <ele>5.4</ele>
        <time>2024-11-10T14:26:55Z</time>
      </trkpt>
      <trkpt lat="42.28911" lon="3.27947">
        <ele>5.4</ele>
        <time>2024-11-10T14:26:56Z</time>
      </trkpt>
      <trkpt lat="42.28911" lon="3.27947">
        <ele>5.4</ele>
        <time>2024-11-10T14:26:57Z</time>
      </trkpt>
      <trkpt lat="42.28911" lon="3.27947">
        <ele>5.4</ele>
        <time>2024-11-10T14:26:58Z</time>
      </trkpt>
      <trkpt lat="42.28911" lon="3.27947">
        <ele>5.4</ele>
        <time>2024-11-10T14:26:59Z</time>
      </trkpt>
      <trkpt lat="42.28911" lon="3.27947">
        <ele>5.4</ele>
        <time>2024-11-10T14:27:00Z</time>
      </trkpt>
      <trkpt lat="42.28911" lon="3.27947">
        <ele>5.4</ele>
        <time>2024-11-10T14:27:01Z</time>
      </trkpt>
      <trkpt lat="42.28911" lon="3.27947">
        <ele>5.4</ele>
        <time>2024-11-10T14:27:02Z</time>
      </trkpt>
      <trkpt lat="42.28911" lon="3.27947">
        <ele>5.4</ele>
        <time>2024-11-10T14:27:03Z</time>
      </trkpt>
      <trkpt lat="42.28911" lon="3.27947">
        <ele>5.4</ele>
        <time>2024-11-10T14:27:04Z</time>
      </trkpt>
      <trkpt lat="42.28911" lon="3.27947">
        <ele>5.4</ele>
        <time>2024-11-10T14:27:05Z</time>
      </trkpt>
      <trkpt lat="42.28911" lon="3.27947">
        <ele>5.4</ele>
        <time>2024-11-10T14:27:06Z</time>
      </trkpt>
      <trkpt lat="42.28911" lon="3.27947">
        <ele>5.4</ele>
        <time>2024-11-10T14:27:07Z</time>
      </trkpt>
      <trkpt lat="42.28911" lon="3.27947">
        <ele>5.4</ele>
        <time>2024-11-10T14:27:08Z</time>
      </trkpt>
      <trkpt lat="42.28911" lon="3.27947">
        <ele>5.4</ele>
        <time>2024-11-10T14:27:09Z</time>
      </trkpt>
      <trkpt lat="42.28911" lon="3.27947">
        <ele>5.4</ele>
        <time>2024-11-10T14:27:10Z</time>
      </trkpt>
      <trkpt lat="42.28911" lon="3.27947">
        <ele>5.4</ele>
        <time>2024-11-10T14:27:11Z</time>
      </trkpt>
      <trkpt lat="42.28911" lon="3.27947">
        <ele>5.4</ele>
        <time>2024-11-10T14:27:12Z</time>
      </trkpt>
      <trkpt lat="42.28911" lon="3.27947">
        <ele>5.4</ele>
        <time>2024-11-10T14:27:13Z</time>
      </trkpt>
      <trkpt lat="42.28911" lon="3.27947">
        <ele>5.4</ele>
        <time>2024-11-10T14:27:14Z</time>
      </trkpt>
      <trkpt lat="42.28911" lon="3.27947">
        <ele>5.4</ele>
        <time>2024-11-10T14:27:15Z</time>
      </trkpt>
      <trkpt lat="42.28911" lon="3.27947">
        <ele>5.4</ele>
        <time>2024-11-10T14:27:16Z</time>
      </trkpt>
      <trkpt lat="42.28911" lon="3.27947">
        <ele>5.4</ele>
        <time>2024-11-10T14:27:17Z</time>
      </trkpt>
      <trkpt lat="42.28911" lon="3.27947">
        <ele>5.4</ele>
        <time>2024-11-10T14:27:18Z</time>
      </trkpt>
      <trkpt lat="42.28911" lon="3.27947">
        <ele>5.4</ele>
        <time>2024-11-10T14:27:19Z</time>
      </trkpt>
      <trkpt lat="42.28911" lon="3.27947">
        <ele>5.4</ele>
        <time>2024-11-10T14:27:20Z</time>
      </trkpt>
      <trkpt lat="42.28911" lon="3.27947">
        <ele>5.4</ele>
        <time>2024-11-10T14:27:21Z</time>
      </trkpt>
      <trkpt lat="42.28911" lon="3.27947">
        <ele>5.4</ele>
        <time>2024-11-10T14:27:22Z</time>
      </trkpt>
      <trkpt lat="42.28911" lon="3.27947">
        <ele>5.4</ele>
        <time>2024-11-10T14:27:23Z</time>
      </trkpt>
      <trkpt lat="42.28911" lon="3.27947">
        <ele>5.4</ele>
        <time>2024-11-10T14:27:24Z</time>
      </trkpt>
      <trkpt lat="42.28911" lon="3.27947">
        <ele>5.4</ele>
        <time>2024-11-10T14:27:25Z</time>
      </trkpt>
      <trkpt lat="42.28911" lon="3.27947">
        <ele>5.4</ele>
        <time>2024-11-10T14:27:26Z</time>
      </trkpt>
      <trkpt lat="42.28911" lon="3.27947">
        <ele>5.4</ele>
        <time>2024-11-10T14:27:27Z</time>
      </trkpt>
      <trkpt lat="42.28911" lon="3.27947">
        <ele>5.4</ele>
        <time>2024-11-10T14:27:28Z</time>
      </trkpt>
      <trkpt lat="42.28911" lon="3.27947">
        <ele>5.4</ele>
        <time>2024-11-10T14:27:29Z</time>
      </trkpt>
      <trkpt lat="42.28911" lon="3.27947">
        <ele>5.4</ele>
        <time>2024-11-10T14:27:30Z</time>
      </trkpt>
      <trkpt lat="42.28911" lon="3.27947">
        <ele>5.4</ele>
        <time>2024-11-10T14:27:31Z</time>
      </trkpt>
      <trkpt lat="42.28911" lon="3.27947">
        <ele>5.4</ele>
        <time>2024-11-10T14:27:32Z</time>
      </trkpt>
      <trkpt lat="42.28911" lon="3.27947">
        <ele>5.4</ele>
        <time>2024-11-10T14:27:33Z</time>
      </trkpt>
      <trkpt lat="42.28911" lon="3.27947">
        <ele>5.4</ele>
        <time>2024-11-10T14:27:34Z</time>
      </trkpt>
      <trkpt lat="42.28911" lon="3.27947">
        <ele>5.4</ele>
        <time>2024-11-10T14:27:35Z</time>
      </trkpt>
      <trkpt lat="42.28911" lon="3.27947">
        <ele>5.4</ele>
        <time>2024-11-10T14:27:36Z</time>
      </trkpt>
      <trkpt lat="42.28911" lon="3.27947">
        <ele>5.4</ele>
        <time>2024-11-10T14:27:37Z</time>
      </trkpt>
      <trkpt lat="42.28911" lon="3.27947">
        <ele>5.4</ele>
        <time>2024-11-10T14:27:38Z</time>
      </trkpt>
      <trkpt lat="42.28911" lon="3.27947">
        <ele>5.4</ele>
        <time>2024-11-10T14:27:39Z</time>
      </trkpt>
      <trkpt lat="42.28911" lon="3.27947">
        <ele>5.4</ele>
        <time>2024-11-10T14:27:40Z</time>
      </trkpt>
      <trkpt lat="42.28911" lon="3.27947">
        <ele>5.4</ele>
        <time>2024-11-10T14:27:41Z</time>
      </trkpt>
      <trkpt lat="42.28911" lon="3.27947">
        <ele>5.4</ele>
        <time>2024-11-10T14:27:42Z</time>
      </trkpt>
      <trkpt lat="42.28911" lon="3.27947">
        <ele>5.4</ele>
        <time>2024-11-10T14:27:43Z</time>
      </trkpt>
      <trkpt lat="42.28911" lon="3.27947">
        <ele>5.4</ele>
        <time>2024-11-10T14:27:44Z</time>
      </trkpt>
      <trkpt lat="42.28911" lon="3.27947">
        <ele>5.4</ele>
        <time>2024-11-10T14:27:45Z</time>
      </trkpt>
      <trkpt lat="42.28911" lon="3.27947">
        <ele>5.4</ele>
        <time>2024-11-10T14:27:46Z</time>
      </trkpt>
      <trkpt lat="42.28911" lon="3.27947">
        <ele>5.4</ele>
        <time>2024-11-10T14:27:47Z</time>
      </trkpt>
      <trkpt lat="42.28911" lon="3.27947">
        <ele>5.4</ele>
        <time>2024-11-10T14:27:48Z</time>
      </trkpt>
      <trkpt lat="42.28911" lon="3.27947">
        <ele>5.4</ele>
        <time>2024-11-10T14:27:49Z</time>
      </trkpt>
      <trkpt lat="42.28911" lon="3.27947">
        <ele>5.4</ele>
        <time>2024-11-10T14:27:50Z</time>
      </trkpt>
      <trkpt lat="42.28911" lon="3.27947">
        <ele>5.4</ele>
        <time>2024-11-10T14:27:51Z</time>
      </trkpt>
      <trkpt lat="42.28911" lon="3.27947">
        <ele>5.4</ele>
        <time>2024-11-10T14:27:52Z</time>
      </trkpt>
      <trkpt lat="42.28911" lon="3.27947">
        <ele>5.4</ele>
        <time>2024-11-10T14:27:53Z</time>
      </trkpt>
      <trkpt lat="42.28911" lon="3.27947">
        <ele>5.4</ele>
        <time>2024-11-10T14:27:54Z</time>
      </trkpt>
      <trkpt lat="42.28911" lon="3.27947">
        <ele>5.4</ele>
        <time>2024-11-10T14:27:55Z</time>
      </trkpt>
      <trkpt lat="42.28911" lon="3.27947">
        <ele>5.4</ele>
        <time>2024-11-10T14:27:56Z</time>
      </trkpt>
      <trkpt lat="42.28911" lon="3.27947">
        <ele>5.4</ele>
        <time>2024-11-10T14:27:57Z</time>
      </trkpt>
      <trkpt lat="42.28911" lon="3.27947">
        <ele>5.4</ele>
        <time>2024-11-10T14:27:58Z</time>
      </trkpt>
      <trkpt lat="42.28911" lon="3.27947">
        <ele>5.4</ele>
        <time>2024-11-10T14:27:59Z</time>
      </trkpt>
      <trkpt lat="42.28911" lon="3.27947">
        <ele>5.4</ele>
        <time>2024-11-10T14:28:00Z</time>
      </trkpt>
      <trkpt lat="42.28911" lon="3.27947">
        <ele>5.4</ele>
        <time>2024-11-10T14:28:01Z</time>
      </trkpt>
      <trkpt lat="42.28911" lon="3.27947">
        <ele>5.4</ele>
        <time>2024-11-10T14:28:02Z</time>
      </trkpt>
      <trkpt lat="42.28911" lon="3.27947">
        <ele>5.4</ele>
        <time>2024-11-10T14:28:03Z</time>
      </trkpt>
      <trkpt lat="42.28911" lon="3.27947">
        <ele>5.4</ele>
        <time>2024-11-10T14:28:04Z</time>
      </trkpt>
      <trkpt lat="42.28911" lon="3.27947">
        <ele>5.4</ele>
        <time>2024-11-10T14:28:05Z</time>
      </trkpt>
      <trkpt lat="42.28911" lon="3.27947">
        <ele>5.4</ele>
        <time>2024-11-10T14:28:06Z</time>
      </trkpt>
      <trkpt lat="42.28911" lon="3.27947">
        <ele>5.4</ele>
        <time>2024-11-10T14:28:07Z</time>
      </trkpt>
      <trkpt lat="42.28911" lon="3.27947">
        <ele>5.4</ele>
        <time>2024-11-10T14:28:08Z</time>
      </trkpt>
      <trkpt lat="42.28911" lon="3.27947">
        <ele>5.4</ele>
        <time>2024-11-10T14:28:09Z</time>
      </trkpt>
      <trkpt lat="42.28911" lon="3.27947">
        <ele>5.4</ele>
        <time>2024-11-10T14:28:10Z</time>
      </trkpt>
      <trkpt lat="42.28911" lon="3.27947">
        <ele>5.4</ele>
        <time>2024-11-10T14:28:11Z</time>
      </trkpt>
      <trkpt lat="42.28911" lon="3.27947">
        <ele>5.4</ele>
        <time>2024-11-10T14:28:12Z</time>
      </trkpt>
      <trkpt lat="42.28911" lon="3.27947">
        <ele>5.4</ele>
        <time>2024-11-10T14:28:13Z</time>
      </trkpt>
      <trkpt lat="42.28911" lon="3.27947">
        <ele>5.4</ele>
        <time>2024-11-10T14:28:14Z</time>
      </trkpt>
      <trkpt lat="42.28911" lon="3.27947">
        <ele>5.4</ele>
        <time>2024-11-10T14:28:15Z</time>
      </trkpt>
      <trkpt lat="42.28911" lon="3.27947">
        <ele>5.4</ele>
        <time>2024-11-10T14:28:16Z</time>
      </trkpt>
      <trkpt lat="42.28911" lon="3.27947">
        <ele>5.4</ele>
        <time>2024-11-10T14:28:17Z</time>
      </trkpt>
      <trkpt lat="42.28911" lon="3.27947">
        <ele>5.4</ele>
        <time>2024-11-10T14:28:18Z</time>
      </trkpt>
      <trkpt lat="42.28911" lon="3.27947">
        <ele>5.4</ele>
        <time>2024-11-10T14:28:19Z</time>
      </trkpt>
      <trkpt lat="42.28911" lon="3.27947">
        <ele>5.4</ele>
        <time>2024-11-10T14:28:20Z</time>
      </trkpt>
      <trkpt lat="42.28911" lon="3.27947">
        <ele>5.4</ele>
        <time>2024-11-10T14:28:21Z</time>
      </trkpt>
      <trkpt lat="42.28911" lon="3.27947">
        <ele>5.4</ele>
        <time>2024-11-10T14:28:22Z</time>
      </trkpt>
      <trkpt lat="42.28911" lon="3.27947">
        <ele>5.4</ele>
        <time>2024-11-10T14:28:23Z</time>
      </trkpt>
      <trkpt lat="42.28911" lon="3.27947">
        <ele>5.4</ele>
        <time>2024-11-10T14:28:24Z</time>
      </trkpt>
      <trkpt lat="42.28911" lon="3.27947">
        <ele>5.4</ele>
        <time>2024-11-10T14:28:25Z</time>
      </trkpt>
      <trkpt lat="42.28911" lon="3.27947">
        <ele>5.4</ele>
        <time>2024-11-10T14:28:26Z</time>
      </trkpt>
      <trkpt lat="42.28911" lon="3.27947">
        <ele>5.4</ele>
        <time>2024-11-10T14:28:27Z</time>
      </trkpt>
      <trkpt lat="42.28911" lon="3.27947">
        <ele>5.4</ele>
        <time>2024-11-10T14:28:28Z</time>
      </trkpt>
      <trkpt lat="42.28911" lon="3.27947">
        <ele>5.4</ele>
        <time>2024-11-10T14:28:29Z</time>
      </trkpt>
      <trkpt lat="42.28911" lon="3.27947">
        <ele>5.4</ele>
        <time>2024-11-10T14:28:30Z</time>
      </trkpt>
      <trkpt lat="42.28911" lon="3.27947">
        <ele>5.4</ele>
        <time>2024-11-10T14:28:31Z</time>
      </trkpt>
      <trkpt lat="42.28911" lon="3.27947">
        <ele>5.4</ele>
        <time>2024-11-10T14:28:32Z</time>
      </trkpt>
      <trkpt lat="42.28911" lon="3.27947">
        <ele>5.4</ele>
        <time>2024-11-10T14:28:33Z</time>
      </trkpt>
      <trkpt lat="42.28911" lon="3.27947">
        <ele>5.4</ele>
        <time>2024-11-10T14:28:34Z</time>
      </trkpt>
      <trkpt lat="42.28911" lon="3.27947">
        <ele>5.4</ele>
        <time>2024-11-10T14:28:35Z</time>
      </trkpt>
      <trkpt lat="42.28911" lon="3.27947">
        <ele>5.4</ele>
        <time>2024-11-10T14:28:36Z</time>
      </trkpt>
      <trkpt lat="42.28911" lon="3.27947">
        <ele>5.4</ele>
        <time>2024-11-10T14:28:37Z</time>
      </trkpt>
      <trkpt lat="42.28911" lon="3.27947">
        <ele>5.4</ele>
        <time>2024-11-10T14:28:38Z</time>
      </trkpt>
      <trkpt lat="42.28911" lon="3.27947">
        <ele>5.4</ele>
        <time>2024-11-10T14:28:39Z</time>
      </trkpt>
      <trkpt lat="42.28911" lon="3.27947">
        <ele>5.4</ele>
        <time>2024-11-10T14:28:40Z</time>
      </trkpt>
      <trkpt lat="42.28911" lon="3.27947">
        <ele>5.4</ele>
        <time>2024-11-10T14:28:41Z</time>
      </trkpt>
      <trkpt lat="42.28911" lon="3.27947">
        <ele>5.4</ele>
        <time>2024-11-10T14:28:42Z</time>
      </trkpt>
      <trkpt lat="42.28911" lon="3.27947">
        <ele>5.4</ele>
        <time>2024-11-10T14:28:43Z</time>
      </trkpt>
      <trkpt lat="42.28911" lon="3.27947">
        <ele>5.4</ele>
        <time>2024-11-10T14:28:44Z</time>
      </trkpt>
      <trkpt lat="42.2891" lon="3.27946">
        <ele>5.4</ele>
        <time>2024-11-10T14:28:45Z</time>
      </trkpt>
      <trkpt lat="42.2891" lon="3.27946">
        <ele>5.4</ele>
        <time>2024-11-10T14:28:46Z</time>
      </trkpt>
      <trkpt lat="42.2891" lon="3.27946">
        <ele>5.4</ele>
        <time>2024-11-10T14:28:47Z</time>
      </trkpt>
      <trkpt lat="42.2891" lon="3.27946">
        <ele>5.4</ele>
        <time>2024-11-10T14:28:48Z</time>
      </trkpt>
      <trkpt lat="42.2891" lon="3.27946">
        <ele>5.4</ele>
        <time>2024-11-10T14:28:49Z</time>
      </trkpt>
      <trkpt lat="42.2891" lon="3.27946">
        <ele>5.4</ele>
        <time>2024-11-10T14:28:50Z</time>
      </trkpt>
      <trkpt lat="42.2891" lon="3.27946">
        <ele>5.4</ele>
        <time>2024-11-10T14:28:51Z</time>
      </trkpt>
      <trkpt lat="42.2891" lon="3.27946">
        <ele>5.4</ele>
        <time>2024-11-10T14:28:52Z</time>
      </trkpt>
      <trkpt lat="42.2891" lon="3.27946">
        <ele>5.4</ele>
        <time>2024-11-10T14:28:53Z</time>
      </trkpt>
      <trkpt lat="42.2891" lon="3.27946">
        <ele>5.4</ele>
        <time>2024-11-10T14:28:54Z</time>
      </trkpt>
      <trkpt lat="42.2891" lon="3.27946">
        <ele>5.4</ele>
        <time>2024-11-10T14:28:55Z</time>
      </trkpt>
      <trkpt lat="42.2891" lon="3.27946">
        <ele>5.4</ele>
        <time>2024-11-10T14:28:56Z</time>
      </trkpt>
      <trkpt lat="42.2891" lon="3.27946">
        <ele>5.4</ele>
        <time>2024-11-10T14:28:57Z</time>
      </trkpt>
      <trkpt lat="42.2891" lon="3.27946">
        <ele>5.4</ele>
        <time>2024-11-10T14:28:58Z</time>
      </trkpt>
      <trkpt lat="42.2891" lon="3.27946">
        <ele>5.4</ele>
        <time>2024-11-10T14:28:59Z</time>
      </trkpt>
      <trkpt lat="42.2891" lon="3.27946">
        <ele>5.4</ele>
        <time>2024-11-10T14:29:00Z</time>
      </trkpt>
      <trkpt lat="42.2891" lon="3.27946">
        <ele>5.4</ele>
        <time>2024-11-10T14:29:01Z</time>
      </trkpt>
      <trkpt lat="42.2891" lon="3.27946">
        <ele>5.4</ele>
        <time>2024-11-10T14:29:02Z</time>
      </trkpt>
      <trkpt lat="42.2891" lon="3.27946">
        <ele>5.4</ele>
        <time>2024-11-10T14:29:03Z</time>
      </trkpt>
      <trkpt lat="42.2891" lon="3.27946">
        <ele>5.4</ele>
        <time>2024-11-10T14:29:04Z</time>
      </trkpt>
      <trkpt lat="42.2891" lon="3.27946">
        <ele>5.4</ele>
        <time>2024-11-10T14:29:05Z</time>
      </trkpt>
      <trkpt lat="42.2891" lon="3.27946">
        <ele>5.4</ele>
        <time>2024-11-10T14:29:06Z</time>
      </trkpt>
      <trkpt lat="42.2891" lon="3.27946">
        <ele>5.4</ele>
        <time>2024-11-10T14:29:07Z</time>
      </trkpt>
      <trkpt lat="42.2891" lon="3.27946">
        <ele>5.4</ele>
        <time>2024-11-10T14:29:08Z</time>
      </trkpt>
      <trkpt lat="42.2891" lon="3.27946">
        <ele>5.4</ele>
        <time>2024-11-10T14:29:09Z</time>
      </trkpt>
      <trkpt lat="42.2891" lon="3.27946">
        <ele>5.4</ele>
        <time>2024-11-10T14:29:10Z</time>
      </trkpt>
      <trkpt lat="42.2891" lon="3.27946">
        <ele>5.4</ele>
        <time>2024-11-10T14:29:11Z</time>
      </trkpt>
      <trkpt lat="42.2891" lon="3.27946">
        <ele>5.4</ele>
        <time>2024-11-10T14:29:12Z</time>
      </trkpt>
      <trkpt lat="42.2891" lon="3.27946">
        <ele>5.4</ele>
        <time>2024-11-10T14:29:13Z</time>
      </trkpt>
      <trkpt lat="42.2891" lon="3.27946">
        <ele>5.4</ele>
        <time>2024-11-10T14:29:14Z</time>
      </trkpt>
      <trkpt lat="42.2891" lon="3.27946">
        <ele>5.4</ele>
        <time>2024-11-10T14:29:15Z</time>
      </trkpt>
      <trkpt lat="42.2891" lon="3.27946">
        <ele>5.4</ele>
        <time>2024-11-10T14:29:16Z</time>
      </trkpt>
      <trkpt lat="42.2891" lon="3.27946">
        <ele>5.4</ele>
        <time>2024-11-10T14:29:17Z</time>
      </trkpt>
      <trkpt lat="42.2891" lon="3.27946">
        <ele>5.4</ele>
        <time>2024-11-10T14:29:18Z</time>
      </trkpt>
      <trkpt lat="42.2891" lon="3.27946">
        <ele>5.4</ele>
        <time>2024-11-10T14:29:19Z</time>
      </trkpt>
      <trkpt lat="42.2891" lon="3.27946">
        <ele>5.4</ele>
        <time>2024-11-10T14:29:20Z</time>
      </trkpt>
      <trkpt lat="42.2891" lon="3.27946">
        <ele>5.4</ele>
        <time>2024-11-10T14:29:21Z</time>
      </trkpt>
      <trkpt lat="42.2891" lon="3.27946">
        <ele>5.4</ele>
        <time>2024-11-10T14:29:22Z</time>
      </trkpt>
      <trkpt lat="42.2891" lon="3.27946">
        <ele>5.4</ele>
        <time>2024-11-10T14:29:23Z</time>
      </trkpt>
      <trkpt lat="42.2891" lon="3.27946">
        <ele>5.4</ele>
        <time>2024-11-10T14:29:24Z</time>
      </trkpt>
      <trkpt lat="42.2891" lon="3.27946">
        <ele>5.4</ele>
        <time>2024-11-10T14:29:25Z</time>
      </trkpt>
      <trkpt lat="42.2891" lon="3.27946">
        <ele>5.4</ele>
        <time>2024-11-10T14:29:26Z</time>
      </trkpt>
      <trkpt lat="42.2891" lon="3.27946">
        <ele>5.4</ele>
        <time>2024-11-10T14:29:27Z</time>
      </trkpt>
      <trkpt lat="42.2891" lon="3.27946">
        <ele>5.4</ele>
        <time>2024-11-10T14:29:28Z</time>
      </trkpt>
      <trkpt lat="42.2891" lon="3.27946">
        <ele>5.4</ele>
        <time>2024-11-10T14:29:29Z</time>
      </trkpt>
      <trkpt lat="42.2891" lon="3.27946">
        <ele>5.4</ele>
        <time>2024-11-10T14:29:30Z</time>
      </trkpt>
      <trkpt lat="42.2891" lon="3.27946">
        <ele>5.4</ele>
        <time>2024-11-10T14:29:31Z</time>
      </trkpt>
      <trkpt lat="42.2891" lon="3.27946">
        <ele>5.4</ele>
        <time>2024-11-10T14:29:32Z</time>
      </trkpt>
      <trkpt lat="42.2891" lon="3.27946">
        <ele>5.4</ele>
        <time>2024-11-10T14:29:33Z</time>
      </trkpt>
      <trkpt lat="42.2891" lon="3.27946">
        <ele>5.4</ele>
        <time>2024-11-10T14:29:34Z</time>
      </trkpt>
      <trkpt lat="42.2891" lon="3.27946">
        <ele>5.4</ele>
        <time>2024-11-10T14:29:35Z</time>
      </trkpt>
      <trkpt lat="42.2891" lon="3.27946">
        <ele>5.4</ele>
        <time>2024-11-10T14:29:36Z</time>
      </trkpt>
      <trkpt lat="42.2891" lon="3.27946">
        <ele>5.4</ele>
        <time>2024-11-10T14:29:37Z</time>
      </trkpt>
      <trkpt lat="42.2891" lon="3.27946">
        <ele>5.4</ele>
        <time>2024-11-10T14:29:38Z</time>
      </trkpt>
      <trkpt lat="42.2891" lon="3.27946">
        <ele>5.4</ele>
        <time>2024-11-10T14:29:39Z</time>
      </trkpt>
      <trkpt lat="42.2891" lon="3.27946">
        <ele>5.4</ele>
        <time>2024-11-10T14:29:40Z</time>
      </trkpt>
      <trkpt lat="42.2891" lon="3.27946">
        <ele>5.4</ele>
        <time>2024-11-10T14:29:41Z</time>
      </trkpt>
      <trkpt lat="42.2891" lon="3.27946">
        <ele>5.4</ele>
        <time>2024-11-10T14:29:42Z</time>
      </trkpt>
      <trkpt lat="42.2891" lon="3.27946">
        <ele>5.4</ele>
        <time>2024-11-10T14:29:43Z</time>
      </trkpt>
      <trkpt lat="42.2891" lon="3.27946">
        <ele>5.4</ele>
        <time>2024-11-10T14:29:44Z</time>
      </trkpt>
      <trkpt lat="42.2891" lon="3.27946">
        <ele>5.4</ele>
        <time>2024-11-10T14:29:45Z</time>
      </trkpt>
      <trkpt lat="42.2891" lon="3.27946">
        <ele>5.4</ele>
        <time>2024-11-10T14:29:46Z</time>
      </trkpt>
      <trkpt lat="42.2891" lon="3.27946">
        <ele>5.4</ele>
        <time>2024-11-10T14:29:47Z</time>
      </trkpt>
      <trkpt lat="42.2891" lon="3.27946">
        <ele>5.4</ele>
        <time>2024-11-10T14:29:48Z</time>
      </trkpt>
      <trkpt lat="42.2891" lon="3.27946">
        <ele>5.4</ele>
        <time>2024-11-10T14:29:49Z</time>
      </trkpt>
      <trkpt lat="42.2891" lon="3.27946">
        <ele>5.4</ele>
        <time>2024-11-10T14:29:50Z</time>
      </trkpt>
      <trkpt lat="42.2891" lon="3.27946">
        <ele>5.4</ele>
        <time>2024-11-10T14:29:51Z</time>
      </trkpt>
      <trkpt lat="42.2891" lon="3.27946">
        <ele>5.4</ele>
        <time>2024-11-10T14:29:52Z</time>
      </trkpt>
      <trkpt lat="42.2891" lon="3.27946">
        <ele>5.4</ele>
        <time>2024-11-10T14:29:53Z</time>
      </trkpt>
      <trkpt lat="42.2891" lon="3.27946">
        <ele>5.4</ele>
        <time>2024-11-10T14:29:54Z</time>
      </trkpt>
      <trkpt lat="42.2891" lon="3.27946">
        <ele>5.4</ele>
        <time>2024-11-10T14:29:55Z</time>
      </trkpt>
      <trkpt lat="42.2891" lon="3.27946">
        <ele>5.4</ele>
        <time>2024-11-10T14:29:56Z</time>
      </trkpt>
      <trkpt lat="42.2891" lon="3.27946">
        <ele>5.4</ele>
        <time>2024-11-10T14:29:57Z</time>
      </trkpt>
      <trkpt lat="42.2891" lon="3.27946">
        <ele>5.4</ele>
        <time>2024-11-10T14:29:58Z</time>
      </trkpt>
      <trkpt lat="42.2891" lon="3.27946">
        <ele>5.4</ele>
        <time>2024-11-10T14:29:59Z</time>
      </trkpt>
      <trkpt lat="42.2891" lon="3.27946">
        <ele>5.4</ele>
        <time>2024-11-10T14:30:00Z</time>
      </trkpt>
      <trkpt lat="42.2891" lon="3.27946">
        <ele>5.4</ele>
        <time>2024-11-10T14:30:01Z</time>
      </trkpt>
      <trkpt lat="42.2891" lon="3.27946">
        <ele>5.4</ele>
        <time>2024-11-10T14:30:02Z</time>
      </trkpt>
      <trkpt lat="42.2891" lon="3.27946">
        <ele>5.4</ele>
        <time>2024-11-10T14:30:03Z</time>
      </trkpt>
      <trkpt lat="42.2891" lon="3.27946">
        <ele>5.4</ele>
        <time>2024-11-10T14:30:04Z</time>
      </trkpt>
      <trkpt lat="42.2891" lon="3.27946">
        <ele>5.4</ele>
        <time>2024-11-10T14:30:05Z</time>
      </trkpt>
      <trkpt lat="42.2891" lon="3.27946">
        <ele>5.4</ele>
        <time>2024-11-10T14:30:06Z</time>
      </trkpt>
      <trkpt lat="42.2891" lon="3.27946">
        <ele>5.4</ele>
        <time>2024-11-10T14:30:07Z</time>
      </trkpt>
      <trkpt lat="42.2891" lon="3.27946">
        <ele>5.4</ele>
        <time>2024-11-10T14:30:08Z</time>
      </trkpt>
      <trkpt lat="42.2891" lon="3.27946">
        <ele>5.4</ele>
        <time>2024-11-10T14:30:09Z</time>
      </trkpt>
      <trkpt lat="42.2891" lon="3.27946">
        <ele>5.4</ele>
        <time>2024-11-10T14:30:10Z</time>
      </trkpt>
      <trkpt lat="42.2891" lon="3.27946">
        <ele>5.4</ele>
        <time>2024-11-10T14:30:11Z</time>
      </trkpt>
      <trkpt lat="42.2891" lon="3.27946">
        <ele>5.4</ele>
        <time>2024-11-10T14:30:12Z</time>
      </trkpt>
      <trkpt lat="42.2891" lon="3.27946">
        <ele>5.4</ele>
        <time>2024-11-10T14:30:13Z</time>
      </trkpt>
      <trkpt lat="42.2891" lon="3.27946">
        <ele>5.4</ele>
        <time>2024-11-10T14:30:14Z</time>
      </trkpt>
      <trkpt lat="42.2891" lon="3.27946">
        <ele>5.4</ele>
        <time>2024-11-10T14:30:15Z</time>
      </trkpt>
      <trkpt lat="42.2891" lon="3.27946">
        <ele>5.4</ele>
        <time>2024-11-10T14:30:16Z</time>
      </trkpt>
      <trkpt lat="42.2891" lon="3.27946">
        <ele>5.4</ele>
        <time>2024-11-10T14:30:17Z</time>
      </trkpt>
      <trkpt lat="42.2891" lon="3.27946">
        <ele>5.4</ele>
        <time>2024-11-10T14:30:18Z</time>
      </trkpt>
      <trkpt lat="42.2891" lon="3.27946">
        <ele>5.4</ele>
        <time>2024-11-10T14:30:19Z</time>
      </trkpt>
      <trkpt lat="42.2891" lon="3.27946">
        <ele>5.4</ele>
        <time>2024-11-10T14:30:20Z</time>
      </trkpt>
      <trkpt lat="42.2891" lon="3.27946">
        <ele>5.4</ele>
        <time>2024-11-10T14:30:21Z</time>
      </trkpt>
      <trkpt lat="42.2891" lon="3.27946">
        <ele>5.4</ele>
        <time>2024-11-10T14:30:22Z</time>
      </trkpt>
      <trkpt lat="42.2891" lon="3.27946">
        <ele>5.4</ele>
        <time>2024-11-10T14:30:23Z</time>
      </trkpt>
      <trkpt lat="42.2891" lon="3.27946">
        <ele>5.4</ele>
        <time>2024-11-10T14:30:24Z</time>
      </trkpt>
      <trkpt lat="42.2891" lon="3.27946">
        <ele>5.4</ele>
        <time>2024-11-10T14:30:25Z</time>
      </trkpt>
      <trkpt lat="42.2891" lon="3.27946">
        <ele>5.4</ele>
        <time>2024-11-10T14:30:26Z</time>
      </trkpt>
      <trkpt lat="42.2891" lon="3.27946">
        <ele>5.4</ele>
        <time>2024-11-10T14:30:27Z</time>
      </trkpt>
      <trkpt lat="42.2891" lon="3.27946">
        <ele>5.4</ele>
        <time>2024-11-10T14:30:28Z</time>
      </trkpt>
      <trkpt lat="42.2891" lon="3.27946">
        <ele>5.4</ele>
        <time>2024-11-10T14:30:29Z</time>
      </trkpt>
      <trkpt lat="42.2891" lon="3.27946">
        <ele>5.4</ele>
        <time>2024-11-10T14:30:30Z</time>
      </trkpt>
      <trkpt lat="42.2891" lon="3.27946">
        <ele>5.4</ele>
        <time>2024-11-10T14:30:31Z</time>
      </trkpt>
      <trkpt lat="42.2891" lon="3.27946">
        <ele>5.4</ele>
        <time>2024-11-10T14:30:32Z</time>
      </trkpt>
      <trkpt lat="42.2891" lon="3.27946">
        <ele>5.4</ele>
        <time>2024-11-10T14:30:33Z</time>
      </trkpt>
      <trkpt lat="42.2891" lon="3.27946">
        <ele>5.4</ele>
        <time>2024-11-10T14:30:34Z</time>
      </trkpt>
      <trkpt lat="42.2891" lon="3.27946">
        <ele>5.4</ele>
        <time>2024-11-10T14:30:35Z</time>
      </trkpt>
      <trkpt lat="42.2891" lon="3.27946">
        <ele>5.4</ele>
        <time>2024-11-10T14:30:36Z</time>
      </trkpt>
      <trkpt lat="42.2891" lon="3.27946">
        <ele>5.4</ele>
        <time>2024-11-10T14:30:37Z</time>
      </trkpt>
      <trkpt lat="42.2891" lon="3.27946">
        <ele>5.4</ele>
        <time>2024-11-10T14:30:38Z</time>
      </trkpt>
      <trkpt lat="42.2891" lon="3.27946">
        <ele>5.4</ele>
        <time>2024-11-10T14:30:39Z</time>
      </trkpt>
      <trkpt lat="42.2891" lon="3.27946">
        <ele>5.4</ele>
        <time>2024-11-10T14:30:40Z</time>
      </trkpt>
      <trkpt lat="42.2891" lon="3.27946">
        <ele>5.4</ele>
        <time>2024-11-10T14:30:41Z</time>
      </trkpt>
      <trkpt lat="42.2891" lon="3.27946">
        <ele>5.4</ele>
        <time>2024-11-10T14:30:42Z</time>
      </trkpt>
      <trkpt lat="42.2891" lon="3.27946">
        <ele>5.4</ele>
        <time>2024-11-10T14:30:43Z</time>
      </trkpt>
      <trkpt lat="42.2891" lon="3.27946">
        <ele>5.4</ele>
        <time>2024-11-10T14:30:44Z</time>
      </trkpt>
      <trkpt lat="42.2891" lon="3.27946">
        <ele>5.4</ele>
        <time>2024-11-10T14:30:45Z</time>
      </trkpt>
      <trkpt lat="42.2891" lon="3.27946">
        <ele>5.4</ele>
        <time>2024-11-10T14:30:46Z</time>
      </trkpt>
      <trkpt lat="42.2891" lon="3.27946">
        <ele>5.4</ele>
        <time>2024-11-10T14:30:47Z</time>
      </trkpt>
      <trkpt lat="42.2891" lon="3.27946">
        <ele>5.4</ele>
        <time>2024-11-10T14:30:48Z</time>
      </trkpt>
      <trkpt lat="42.2891" lon="3.27946">
        <ele>5.4</ele>
        <time>2024-11-10T14:30:49Z</time>
      </trkpt>
      <trkpt lat="42.2891" lon="3.27946">
        <ele>5.4</ele>
        <time>2024-11-10T14:30:50Z</time>
      </trkpt>
      <trkpt lat="42.2891" lon="3.27946">
        <ele>5.4</ele>
        <time>2024-11-10T14:30:51Z</time>
      </trkpt>
      <trkpt lat="42.2891" lon="3.27946">
        <ele>5.4</ele>
        <time>2024-11-10T14:30:52Z</time>
      </trkpt>
      <trkpt lat="42.2891" lon="3.27946">
        <ele>5.4</ele>
        <time>2024-11-10T14:30:53Z</time>
      </trkpt>
      <trkpt lat="42.2891" lon="3.27946">
        <ele>5.4</ele>
        <time>2024-11-10T14:30:54Z</time>
      </trkpt>
      <trkpt lat="42.2891" lon="3.27946">
        <ele>5.4</ele>
        <time>2024-11-10T14:30:55Z</time>
      </trkpt>
      <trkpt lat="42.2891" lon="3.27946">
        <ele>5.4</ele>
        <time>2024-11-10T14:30:56Z</time>
      </trkpt>
      <trkpt lat="42.2891" lon="3.27946">
        <ele>5.4</ele>
        <time>2024-11-10T14:30:57Z</time>
      </trkpt>
      <trkpt lat="42.2891" lon="3.27946">
        <ele>5.4</ele>
        <time>2024-11-10T14:30:58Z</time>
      </trkpt>
      <trkpt lat="42.2891" lon="3.27946">
        <ele>5.4</ele>
        <time>2024-11-10T14:30:59Z</time>
      </trkpt>
      <trkpt lat="42.2891" lon="3.27946">
        <ele>5.4</ele>
        <time>2024-11-10T14:31:00Z</time>
      </trkpt>
      <trkpt lat="42.2891" lon="3.27946">
        <ele>5.4</ele>
        <time>2024-11-10T14:31:01Z</time>
      </trkpt>
      <trkpt lat="42.2891" lon="3.27946">
        <ele>5.4</ele>
        <time>2024-11-10T14:31:02Z</time>
      </trkpt>
      <trkpt lat="42.2891" lon="3.27946">
        <ele>5.4</ele>
        <time>2024-11-10T14:31:03Z</time>
      </trkpt>
      <trkpt lat="42.2891" lon="3.27946">
        <ele>5.4</ele>
        <time>2024-11-10T14:31:04Z</time>
      </trkpt>
      <trkpt lat="42.2891" lon="3.27946">
        <ele>5.4</ele>
        <time>2024-11-10T14:31:05Z</time>
      </trkpt>
      <trkpt lat="42.2891" lon="3.27946">
        <ele>5.4</ele>
        <time>2024-11-10T14:31:06Z</time>
      </trkpt>
      <trkpt lat="42.2891" lon="3.27946">
        <ele>5.4</ele>
        <time>2024-11-10T14:31:07Z</time>
      </trkpt>
      <trkpt lat="42.2891" lon="3.27946">
        <ele>5.4</ele>
        <time>2024-11-10T14:31:08Z</time>
      </trkpt>
      <trkpt lat="42.2891" lon="3.27946">
        <ele>5.4</ele>
        <time>2024-11-10T14:31:09Z</time>
      </trkpt>
      <trkpt lat="42.2891" lon="3.27946">
        <ele>5.4</ele>
        <time>2024-11-10T14:31:10Z</time>
      </trkpt>
      <trkpt lat="42.2891" lon="3.27946">
        <ele>5.4</ele>
        <time>2024-11-10T14:31:11Z</time>
      </trkpt>
      <trkpt lat="42.2891" lon="3.27946">
        <ele>5.4</ele>
        <time>2024-11-10T14:31:12Z</time>
      </trkpt>
      <trkpt lat="42.2891" lon="3.27946">
        <ele>5.4</ele>
        <time>2024-11-10T14:31:13Z</time>
      </trkpt>
      <trkpt lat="42.2891" lon="3.27946">
        <ele>5.4</ele>
        <time>2024-11-10T14:31:14Z</time>
      </trkpt>
      <trkpt lat="42.2891" lon="3.27946">
        <ele>5.4</ele>
        <time>2024-11-10T14:31:15Z</time>
      </trkpt>
      <trkpt lat="42.2891" lon="3.27946">
        <ele>5.4</ele>
        <time>2024-11-10T14:31:16Z</time>
      </trkpt>
      <trkpt lat="42.2891" lon="3.27946">
        <ele>5.4</ele>
        <time>2024-11-10T14:31:17Z</time>
      </trkpt>
      <trkpt lat="42.2891" lon="3.27946">
        <ele>5.4</ele>
        <time>2024-11-10T14:31:18Z</time>
      </trkpt>
      <trkpt lat="42.2891" lon="3.27946">
        <ele>5.4</ele>
        <time>2024-11-10T14:31:19Z</time>
      </trkpt>
      <trkpt lat="42.2891" lon="3.27946">
        <ele>5.4</ele>
        <time>2024-11-10T14:31:20Z</time>
      </trkpt>
      <trkpt lat="42.2891" lon="3.27946">
        <ele>5.4</ele>
        <time>2024-11-10T14:31:21Z</time>
      </trkpt>
      <trkpt lat="42.2891" lon="3.27946">
        <ele>5.4</ele>
        <time>2024-11-10T14:31:22Z</time>
      </trkpt>
      <trkpt lat="42.2891" lon="3.27946">
        <ele>5.4</ele>
        <time>2024-11-10T14:31:23Z</time>
      </trkpt>
      <trkpt lat="42.2891" lon="3.27946">
        <ele>5.4</ele>
        <time>2024-11-10T14:31:24Z</time>
      </trkpt>
      <trkpt lat="42.2891" lon="3.27946">
        <ele>5.4</ele>
        <time>2024-11-10T14:31:25Z</time>
      </trkpt>
      <trkpt lat="42.2891" lon="3.27946">
        <ele>5.4</ele>
        <time>2024-11-10T14:31:26Z</time>
      </trkpt>
      <trkpt lat="42.2891" lon="3.27946">
        <ele>5.4</ele>
        <time>2024-11-10T14:31:27Z</time>
      </trkpt>
      <trkpt lat="42.2891" lon="3.27946">
        <ele>5.4</ele>
        <time>2024-11-10T14:31:28Z</time>
      </trkpt>
      <trkpt lat="42.2891" lon="3.27946">
        <ele>5.4</ele>
        <time>2024-11-10T14:31:29Z</time>
      </trkpt>
      <trkpt lat="42.2891" lon="3.27946">
        <ele>5.4</ele>
        <time>2024-11-10T14:31:30Z</time>
      </trkpt>
      <trkpt lat="42.2891" lon="3.27946">
        <ele>5.4</ele>
        <time>2024-11-10T14:31:31Z</time>
      </trkpt>
      <trkpt lat="42.2891" lon="3.27946">
        <ele>5.4</ele>
        <time>2024-11-10T14:31:32Z</time>
      </trkpt>
      <trkpt lat="42.2891" lon="3.27946">
        <ele>5.4</ele>
        <time>2024-11-10T14:31:33Z</time>
      </trkpt>
      <trkpt lat="42.2891" lon="3.27946">
        <ele>5.4</ele>
        <time>2024-11-10T14:31:34Z</time>
      </trkpt>
      <trkpt lat="42.2891" lon="3.27946">
        <ele>5.4</ele>
        <time>2024-11-10T14:31:35Z</time>
      </trkpt>
      <trkpt lat="42.2891" lon="3.27946">
        <ele>5.4</ele>
        <time>2024-11-10T14:31:36Z</time>
      </trkpt>
      <trkpt lat="42.2891" lon="3.27946">
        <ele>5.4</ele>
        <time>2024-11-10T14:31:37Z</time>
      </trkpt>
      <trkpt lat="42.2891" lon="3.27946">
        <ele>5.4</ele>
        <time>2024-11-10T14:31:38Z</time>
      </trkpt>
      <trkpt lat="42.2891" lon="3.27946">
        <ele>5.4</ele>
        <time>2024-11-10T14:31:39Z</time>
      </trkpt>
      <trkpt lat="42.2891" lon="3.27946">
        <ele>5.4</ele>
        <time>2024-11-10T14:31:40Z</time>
      </trkpt>
      <trkpt lat="42.2891" lon="3.27946">
        <ele>5.4</ele>
        <time>2024-11-10T14:31:41Z</time>
      </trkpt>
      <trkpt lat="42.2891" lon="3.27946">
        <ele>5.4</ele>
        <time>2024-11-10T14:31:42Z</time>
      </trkpt>
      <trkpt lat="42.2891" lon="3.27946">
        <ele>5.4</ele>
        <time>2024-11-10T14:31:43Z</time>
      </trkpt>
      <trkpt lat="42.2891" lon="3.27946">
        <ele>5.4</ele>
        <time>2024-11-10T14:31:44Z</time>
      </trkpt>
      <trkpt lat="42.2891" lon="3.27946">
        <ele>5.4</ele>
        <time>2024-11-10T14:31:45Z</time>
      </trkpt>
      <trkpt lat="42.2891" lon="3.27946">
        <ele>5.4</ele>
        <time>2024-11-10T14:31:46Z</time>
      </trkpt>
      <trkpt lat="42.2891" lon="3.27946">
        <ele>5.4</ele>
        <time>2024-11-10T14:31:47Z</time>
      </trkpt>
      <trkpt lat="42.2891" lon="3.27946">
        <ele>5.4</ele>
        <time>2024-11-10T14:31:48Z</time>
      </trkpt>
      <trkpt lat="42.2891" lon="3.27946">
        <ele>5.4</ele>
        <time>2024-11-10T14:31:49Z</time>
      </trkpt>
      <trkpt lat="42.2891" lon="3.27946">
        <ele>5.4</ele>
        <time>2024-11-10T14:31:50Z</time>
      </trkpt>
      <trkpt lat="42.2891" lon="3.27946">
        <ele>5.4</ele>
        <time>2024-11-10T14:31:51Z</time>
      </trkpt>
      <trkpt lat="42.2891" lon="3.27946">
        <ele>5.4</ele>
        <time>2024-11-10T14:31:52Z</time>
      </trkpt>
      <trkpt lat="42.2891" lon="3.27946">
        <ele>5.4</ele>
        <time>2024-11-10T14:31:53Z</time>
      </trkpt>
      <trkpt lat="42.2891" lon="3.27946">
        <ele>5.4</ele>
        <time>2024-11-10T14:31:54Z</time>
      </trkpt>
      <trkpt lat="42.2891" lon="3.27946">
        <ele>5.4</ele>
        <time>2024-11-10T14:31:55Z</time>
      </trkpt>
      <trkpt lat="42.2891" lon="3.27946">
        <ele>5.4</ele>
        <time>2024-11-10T14:31:56Z</time>
      </trkpt>
      <trkpt lat="42.2891" lon="3.27946">
        <ele>5.4</ele>
        <time>2024-11-10T14:31:57Z</time>
      </trkpt>
      <trkpt lat="42.2891" lon="3.27946">
        <ele>5.4</ele>
        <time>2024-11-10T14:31:58Z</time>
      </trkpt>
      <trkpt lat="42.2891" lon="3.27946">
        <ele>5.4</ele>
        <time>2024-11-10T14:31:59Z</time>
      </trkpt>
      <trkpt lat="42.2891" lon="3.27946">
        <ele>5.4</ele>
        <time>2024-11-10T14:32:00Z</time>
      </trkpt>
      <trkpt lat="42.2891" lon="3.27946">
        <ele>5.4</ele>
        <time>2024-11-10T14:32:01Z</time>
      </trkpt>
      <trkpt lat="42.2891" lon="3.27946">
        <ele>5.4</ele>
        <time>2024-11-10T14:32:02Z</time>
      </trkpt>
      <trkpt lat="42.2891" lon="3.27946">
        <ele>5.4</ele>
        <time>2024-11-10T14:32:03Z</time>
      </trkpt>
      <trkpt lat="42.2891" lon="3.27946">
        <ele>5.4</ele>
        <time>2024-11-10T14:32:04Z</time>
      </trkpt>
      <trkpt lat="42.2891" lon="3.27946">
        <ele>5.4</ele>
        <time>2024-11-10T14:32:05Z</time>
      </trkpt>
      <trkpt lat="42.2891" lon="3.27946">
        <ele>5.4</ele>
        <time>2024-11-10T14:32:06Z</time>
      </trkpt>
      <trkpt lat="42.2891" lon="3.27946">
        <ele>5.4</ele>
        <time>2024-11-10T14:32:07Z</time>
      </trkpt>
      <trkpt lat="42.2891" lon="3.27946">
        <ele>5.4</ele>
        <time>2024-11-10T14:32:08Z</time>
      </trkpt>
      <trkpt lat="42.2891" lon="3.27946">
        <ele>5.4</ele>
        <time>2024-11-10T14:32:09Z</time>
      </trkpt>
      <trkpt lat="42.2891" lon="3.27946">
        <ele>5.4</ele>
        <time>2024-11-10T14:32:10Z</time>
      </trkpt>
      <trkpt lat="42.2891" lon="3.27946">
        <ele>5.4</ele>
        <time>2024-11-10T14:32:11Z</time>
      </trkpt>
      <trkpt lat="42.2891" lon="3.27946">
        <ele>5.4</ele>
        <time>2024-11-10T14:32:12Z</time>
      </trkpt>
      <trkpt lat="42.2891" lon="3.27946">
        <ele>5.4</ele>
        <time>2024-11-10T14:32:13Z</time>
      </trkpt>
      <trkpt lat="42.2891" lon="3.27946">
        <ele>5.4</ele>
        <time>2024-11-10T14:32:14Z</time>
      </trkpt>
      <trkpt lat="42.2891" lon="3.27946">
        <ele>5.4</ele>
        <time>2024-11-10T14:32:15Z</time>
      </trkpt>
      <trkpt lat="42.2891" lon="3.27946">
        <ele>5.4</ele>
        <time>2024-11-10T14:32:16Z</time>
      </trkpt>
      <trkpt lat="42.2891" lon="3.27946">
        <ele>5.4</ele>
        <time>2024-11-10T14:32:17Z</time>
      </trkpt>
      <trkpt lat="42.2891" lon="3.27946">
        <ele>5.4</ele>
        <time>2024-11-10T14:32:18Z</time>
      </trkpt>
      <trkpt lat="42.2891" lon="3.27946">
        <ele>5.4</ele>
        <time>2024-11-10T14:32:19Z</time>
      </trkpt>
      <trkpt lat="42.2891" lon="3.27946">
        <ele>5.3</ele>
        <time>2024-11-10T14:32:20Z</time>
      </trkpt>
      <trkpt lat="42.2891" lon="3.27946">
        <ele>5.3</ele>
        <time>2024-11-10T14:32:21Z</time>
      </trkpt>
      <trkpt lat="42.2891" lon="3.27946">
        <ele>5.3</ele>
        <time>2024-11-10T14:32:22Z</time>
      </trkpt>
      <trkpt lat="42.2891" lon="3.27946">
        <ele>5.3</ele>
        <time>2024-11-10T14:32:23Z</time>
      </trkpt>
      <trkpt lat="42.2891" lon="3.27946">
        <ele>5.3</ele>
        <time>2024-11-10T14:32:24Z</time>
      </trkpt>
      <trkpt lat="42.2891" lon="3.27946">
        <ele>5.3</ele>
        <time>2024-11-10T14:32:25Z</time>
      </trkpt>
      <trkpt lat="42.2891" lon="3.27946">
        <ele>5.3</ele>
        <time>2024-11-10T14:32:26Z</time>
      </trkpt>
      <trkpt lat="42.2891" lon="3.27946">
        <ele>5.3</ele>
        <time>2024-11-10T14:32:27Z</time>
      </trkpt>
      <trkpt lat="42.2891" lon="3.27946">
        <ele>5.3</ele>
        <time>2024-11-10T14:32:28Z</time>
      </trkpt>
      <trkpt lat="42.2891" lon="3.27946">
        <ele>5.3</ele>
        <time>2024-11-10T14:32:29Z</time>
      </trkpt>
      <trkpt lat="42.2891" lon="3.27946">
        <ele>5.3</ele>
        <time>2024-11-10T14:32:30Z</time>
      </trkpt>
      <trkpt lat="42.2891" lon="3.27946">
        <ele>5.3</ele>
        <time>2024-11-10T14:32:31Z</time>
      </trkpt>
      <trkpt lat="42.2891" lon="3.27946">
        <ele>5.3</ele>
        <time>2024-11-10T14:32:32Z</time>
      </trkpt>
      <trkpt lat="42.2891" lon="3.27946">
        <ele>5.3</ele>
        <time>2024-11-10T14:32:33Z</time>
      </trkpt>
      <trkpt lat="42.2891" lon="3.27946">
        <ele>5.3</ele>
        <time>2024-11-10T14:32:34Z</time>
      </trkpt>
      <trkpt lat="42.2891" lon="3.27946">
        <ele>5.3</ele>
        <time>2024-11-10T14:32:35Z</time>
      </trkpt>
      <trkpt lat="42.2891" lon="3.27946">
        <ele>5.3</ele>
        <time>2024-11-10T14:32:36Z</time>
      </trkpt>
      <trkpt lat="42.2891" lon="3.27946">
        <ele>5.3</ele>
        <time>2024-11-10T14:32:37Z</time>
      </trkpt>
      <trkpt lat="42.2891" lon="3.27946">
        <ele>5.3</ele>
        <time>2024-11-10T14:32:38Z</time>
      </trkpt>
      <trkpt lat="42.2891" lon="3.27946">
        <ele>5.3</ele>
        <time>2024-11-10T14:32:39Z</time>
      </trkpt>
      <trkpt lat="42.2891" lon="3.27946">
        <ele>5.3</ele>
        <time>2024-11-10T14:32:40Z</time>
      </trkpt>
      <trkpt lat="42.2891" lon="3.27946">
        <ele>5.3</ele>
        <time>2024-11-10T14:32:41Z</time>
      </trkpt>
      <trkpt lat="42.2891" lon="3.27946">
        <ele>5.3</ele>
        <time>2024-11-10T14:32:42Z</time>
      </trkpt>
      <trkpt lat="42.2891" lon="3.27946">
        <ele>5.3</ele>
        <time>2024-11-10T14:32:43Z</time>
      </trkpt>
      <trkpt lat="42.2891" lon="3.27946">
        <ele>5.3</ele>
        <time>2024-11-10T14:32:44Z</time>
      </trkpt>
      <trkpt lat="42.2891" lon="3.27946">
        <ele>5.3</ele>
        <time>2024-11-10T14:32:45Z</time>
      </trkpt>
      <trkpt lat="42.2891" lon="3.27946">
        <ele>5.3</ele>
        <time>2024-11-10T14:32:46Z</time>
      </trkpt>
      <trkpt lat="42.2891" lon="3.27946">
        <ele>5.3</ele>
        <time>2024-11-10T14:32:47Z</time>
      </trkpt>
      <trkpt lat="42.2891" lon="3.27946">
        <ele>5.3</ele>
        <time>2024-11-10T14:32:48Z</time>
      </trkpt>
      <trkpt lat="42.2891" lon="3.27946">
        <ele>5.3</ele>
        <time>2024-11-10T14:32:49Z</time>
      </trkpt>
      <trkpt lat="42.2891" lon="3.27946">
        <ele>5.3</ele>
        <time>2024-11-10T14:32:50Z</time>
      </trkpt>
      <trkpt lat="42.2891" lon="3.27946">
        <ele>5.3</ele>
        <time>2024-11-10T14:32:51Z</time>
      </trkpt>
      <trkpt lat="42.2891" lon="3.27946">
        <ele>5.3</ele>
        <time>2024-11-10T14:32:52Z</time>
      </trkpt>
      <trkpt lat="42.2891" lon="3.27946">
        <ele>5.3</ele>
        <time>2024-11-10T14:32:53Z</time>
      </trkpt>
      <trkpt lat="42.2891" lon="3.27946">
        <ele>5.3</ele>
        <time>2024-11-10T14:32:54Z</time>
      </trkpt>
      <trkpt lat="42.2891" lon="3.27946">
        <ele>5.3</ele>
        <time>2024-11-10T14:32:55Z</time>
      </trkpt>
      <trkpt lat="42.2891" lon="3.27946">
        <ele>5.3</ele>
        <time>2024-11-10T14:32:56Z</time>
      </trkpt>
      <trkpt lat="42.2891" lon="3.27946">
        <ele>5.3</ele>
        <time>2024-11-10T14:32:57Z</time>
      </trkpt>
      <trkpt lat="42.2891" lon="3.27946">
        <ele>5.3</ele>
        <time>2024-11-10T14:32:58Z</time>
      </trkpt>
      <trkpt lat="42.2891" lon="3.27946">
        <ele>5.3</ele>
        <time>2024-11-10T14:32:59Z</time>
      </trkpt>
      <trkpt lat="42.2891" lon="3.27946">
        <ele>5.3</ele>
        <time>2024-11-10T14:33:00Z</time>
      </trkpt>
      <trkpt lat="42.2891" lon="3.27946">
        <ele>5.3</ele>
        <time>2024-11-10T14:33:01Z</time>
      </trkpt>
      <trkpt lat="42.2891" lon="3.27946">
        <ele>5.3</ele>
        <time>2024-11-10T14:33:02Z</time>
      </trkpt>
      <trkpt lat="42.2891" lon="3.27946">
        <ele>5.3</ele>
        <time>2024-11-10T14:33:03Z</time>
      </trkpt>
      <trkpt lat="42.2891" lon="3.27946">
        <ele>5.3</ele>
        <time>2024-11-10T14:33:04Z</time>
      </trkpt>
      <trkpt lat="42.2891" lon="3.27946">
        <ele>5.3</ele>
        <time>2024-11-10T14:33:05Z</time>
      </trkpt>
      <trkpt lat="42.2891" lon="3.27946">
        <ele>5.3</ele>
        <time>2024-11-10T14:33:06Z</time>
      </trkpt>
      <trkpt lat="42.2891" lon="3.27946">
        <ele>5.3</ele>
        <time>2024-11-10T14:33:07Z</time>
      </trkpt>
      <trkpt lat="42.2891" lon="3.27946">
        <ele>5.3</ele>
        <time>2024-11-10T14:33:08Z</time>
      </trkpt>
      <trkpt lat="42.2891" lon="3.27946">
        <ele>5.3</ele>
        <time>2024-11-10T14:33:09Z</time>
      </trkpt>
      <trkpt lat="42.2891" lon="3.27946">
        <ele>5.3</ele>
        <time>2024-11-10T14:33:10Z</time>
      </trkpt>
      <trkpt lat="42.2891" lon="3.27946">
        <ele>5.3</ele>
        <time>2024-11-10T14:33:11Z</time>
      </trkpt>
      <trkpt lat="42.2891" lon="3.27946">
        <ele>5.3</ele>
        <time>2024-11-10T14:33:12Z</time>
      </trkpt>
      <trkpt lat="42.2891" lon="3.27946">
        <ele>5.3</ele>
        <time>2024-11-10T14:33:13Z</time>
      </trkpt>
      <trkpt lat="42.2891" lon="3.27946">
        <ele>5.3</ele>
        <time>2024-11-10T14:33:14Z</time>
      </trkpt>
      <trkpt lat="42.2891" lon="3.27946">
        <ele>5.3</ele>
        <time>2024-11-10T14:33:15Z</time>
      </trkpt>
      <trkpt lat="42.2891" lon="3.27946">
        <ele>5.3</ele>
        <time>2024-11-10T14:33:16Z</time>
      </trkpt>
      <trkpt lat="42.2891" lon="3.27946">
        <ele>5.3</ele>
        <time>2024-11-10T14:33:17Z</time>
      </trkpt>
      <trkpt lat="42.2891" lon="3.27946">
        <ele>5.3</ele>
        <time>2024-11-10T14:33:18Z</time>
      </trkpt>
      <trkpt lat="42.2891" lon="3.27946">
        <ele>5.3</ele>
        <time>2024-11-10T14:33:19Z</time>
      </trkpt>
      <trkpt lat="42.2891" lon="3.27946">
        <ele>5.3</ele>
        <time>2024-11-10T14:33:20Z</time>
      </trkpt>
      <trkpt lat="42.2891" lon="3.27946">
        <ele>5.3</ele>
        <time>2024-11-10T14:33:21Z</time>
      </trkpt>
      <trkpt lat="42.2891" lon="3.27946">
        <ele>5.3</ele>
        <time>2024-11-10T14:33:22Z</time>
      </trkpt>
      <trkpt lat="42.2891" lon="3.27946">
        <ele>5.3</ele>
        <time>2024-11-10T14:33:23Z</time>
      </trkpt>
      <trkpt lat="42.2891" lon="3.27946">
        <ele>5.3</ele>
        <time>2024-11-10T14:33:24Z</time>
      </trkpt>
      <trkpt lat="42.2891" lon="3.27946">
        <ele>5.3</ele>
        <time>2024-11-10T14:33:25Z</time>
      </trkpt>
      <trkpt lat="42.2891" lon="3.27946">
        <ele>5.3</ele>
        <time>2024-11-10T14:33:26Z</time>
      </trkpt>
      <trkpt lat="42.2891" lon="3.27946">
        <ele>5.3</ele>
        <time>2024-11-10T14:33:27Z</time>
      </trkpt>
      <trkpt lat="42.2891" lon="3.27946">
        <ele>5.3</ele>
        <time>2024-11-10T14:33:28Z</time>
      </trkpt>
      <trkpt lat="42.2891" lon="3.27946">
        <ele>5.3</ele>
        <time>2024-11-10T14:33:29Z</time>
      </trkpt>
      <trkpt lat="42.2891" lon="3.27946">
        <ele>5.3</ele>
        <time>2024-11-10T14:33:30Z</time>
      </trkpt>
      <trkpt lat="42.2891" lon="3.27946">
        <ele>5.3</ele>
        <time>2024-11-10T14:33:31Z</time>
      </trkpt>
      <trkpt lat="42.2891" lon="3.27946">
        <ele>5.3</ele>
        <time>2024-11-10T14:33:32Z</time>
      </trkpt>
      <trkpt lat="42.2891" lon="3.27946">
        <ele>5.3</ele>
        <time>2024-11-10T14:33:33Z</time>
      </trkpt>
      <trkpt lat="42.2891" lon="3.27946">
        <ele>5.3</ele>
        <time>2024-11-10T14:33:34Z</time>
      </trkpt>
      <trkpt lat="42.2891" lon="3.27946">
        <ele>5.3</ele>
        <time>2024-11-10T14:33:35Z</time>
      </trkpt>
      <trkpt lat="42.2891" lon="3.27946">
        <ele>5.3</ele>
        <time>2024-11-10T14:33:36Z</time>
      </trkpt>
      <trkpt lat="42.2891" lon="3.27946">
        <ele>5.3</ele>
        <time>2024-11-10T14:33:37Z</time>
      </trkpt>
      <trkpt lat="42.2891" lon="3.27946">
        <ele>5.3</ele>
        <time>2024-11-10T14:33:38Z</time>
      </trkpt>
      <trkpt lat="42.2891" lon="3.27946">
        <ele>5.3</ele>
        <time>2024-11-10T14:33:39Z</time>
      </trkpt>
      <trkpt lat="42.2891" lon="3.27946">
        <ele>5.3</ele>
        <time>2024-11-10T14:33:40Z</time>
      </trkpt>
      <trkpt lat="42.2891" lon="3.27946">
        <ele>5.3</ele>
        <time>2024-11-10T14:33:41Z</time>
      </trkpt>
      <trkpt lat="42.2891" lon="3.27946">
        <ele>5.3</ele>
        <time>2024-11-10T14:33:42Z</time>
      </trkpt>
      <trkpt lat="42.2891" lon="3.27946">
        <ele>5.3</ele>
        <time>2024-11-10T14:33:43Z</time>
      </trkpt>
      <trkpt lat="42.2891" lon="3.27946">
        <ele>5.3</ele>
        <time>2024-11-10T14:33:44Z</time>
      </trkpt>
      <trkpt lat="42.2891" lon="3.27946">
        <ele>5.3</ele>
        <time>2024-11-10T14:33:45Z</time>
      </trkpt>
      <trkpt lat="42.2891" lon="3.27946">
        <ele>5.3</ele>
        <time>2024-11-10T14:33:46Z</time>
      </trkpt>
      <trkpt lat="42.2891" lon="3.27946">
        <ele>5.3</ele>
        <time>2024-11-10T14:33:47Z</time>
      </trkpt>
      <trkpt lat="42.2891" lon="3.27946">
        <ele>5.3</ele>
        <time>2024-11-10T14:33:48Z</time>
      </trkpt>
      <trkpt lat="42.2891" lon="3.27946">
        <ele>5.3</ele>
        <time>2024-11-10T14:33:49Z</time>
      </trkpt>
      <trkpt lat="42.2891" lon="3.27946">
        <ele>5.3</ele>
        <time>2024-11-10T14:33:50Z</time>
      </trkpt>
      <trkpt lat="42.2891" lon="3.27946">
        <ele>5.3</ele>
        <time>2024-11-10T14:33:51Z</time>
      </trkpt>
      <trkpt lat="42.2891" lon="3.27946">
        <ele>5.3</ele>
        <time>2024-11-10T14:33:52Z</time>
      </trkpt>
      <trkpt lat="42.2891" lon="3.27946">
        <ele>5.3</ele>
        <time>2024-11-10T14:33:53Z</time>
      </trkpt>
      <trkpt lat="42.2891" lon="3.27946">
        <ele>5.3</ele>
        <time>2024-11-10T14:33:54Z</time>
      </trkpt>
      <trkpt lat="42.2891" lon="3.27946">
        <ele>5.3</ele>
        <time>2024-11-10T14:33:55Z</time>
      </trkpt>
      <trkpt lat="42.2891" lon="3.27946">
        <ele>5.3</ele>
        <time>2024-11-10T14:33:56Z</time>
      </trkpt>
      <trkpt lat="42.2891" lon="3.27946">
        <ele>5.3</ele>
        <time>2024-11-10T14:33:57Z</time>
      </trkpt>
      <trkpt lat="42.2891" lon="3.27946">
        <ele>5.3</ele>
        <time>2024-11-10T14:33:58Z</time>
      </trkpt>
      <trkpt lat="42.2891" lon="3.27946">
        <ele>5.3</ele>
        <time>2024-11-10T14:33:59Z</time>
      </trkpt>
      <trkpt lat="42.2891" lon="3.27946">
        <ele>5.3</ele>
        <time>2024-11-10T14:34:00Z</time>
      </trkpt>
      <trkpt lat="42.2891" lon="3.27946">
        <ele>5.3</ele>
        <time>2024-11-10T14:34:01Z</time>
      </trkpt>
      <trkpt lat="42.2891" lon="3.27946">
        <ele>5.3</ele>
        <time>2024-11-10T14:34:02Z</time>
      </trkpt>
      <trkpt lat="42.2891" lon="3.27946">
        <ele>5.3</ele>
        <time>2024-11-10T14:34:03Z</time>
      </trkpt>
      <trkpt lat="42.2891" lon="3.27946">
        <ele>5.3</ele>
        <time>2024-11-10T14:34:04Z</time>
      </trkpt>
      <trkpt lat="42.2891" lon="3.27946">
        <ele>5.3</ele>
        <time>2024-11-10T14:34:05Z</time>
      </trkpt>
      <trkpt lat="42.2891" lon="3.27946">
        <ele>5.3</ele>
        <time>2024-11-10T14:34:06Z</time>
      </trkpt>
      <trkpt lat="42.2891" lon="3.27946">
        <ele>5.3</ele>
        <time>2024-11-10T14:34:07Z</time>
      </trkpt>
      <trkpt lat="42.2891" lon="3.27946">
        <ele>5.3</ele>
        <time>2024-11-10T14:34:08Z</time>
      </trkpt>
      <trkpt lat="42.2891" lon="3.27946">
        <ele>5.3</ele>
        <time>2024-11-10T14:34:09Z</time>
      </trkpt>
      <trkpt lat="42.2891" lon="3.27946">
        <ele>5.3</ele>
        <time>2024-11-10T14:34:10Z</time>
      </trkpt>
      <trkpt lat="42.2891" lon="3.27946">
        <ele>5.3</ele>
        <time>2024-11-10T14:34:11Z</time>
      </trkpt>
      <trkpt lat="42.2891" lon="3.27946">
        <ele>5.3</ele>
        <time>2024-11-10T14:34:12Z</time>
      </trkpt>
      <trkpt lat="42.2891" lon="3.27946">
        <ele>5.3</ele>
        <time>2024-11-10T14:34:13Z</time>
      </trkpt>
      <trkpt lat="42.2891" lon="3.27946">
        <ele>5.3</ele>
        <time>2024-11-10T14:34:14Z</time>
      </trkpt>
      <trkpt lat="42.2891" lon="3.27946">
        <ele>5.3</ele>
        <time>2024-11-10T14:34:15Z</time>
      </trkpt>
      <trkpt lat="42.2891" lon="3.27946">
        <ele>5.3</ele>
        <time>2024-11-10T14:34:16Z</time>
      </trkpt>
      <trkpt lat="42.2891" lon="3.27946">
        <ele>5.3</ele>
        <time>2024-11-10T14:34:17Z</time>
      </trkpt>
      <trkpt lat="42.2891" lon="3.27946">
        <ele>5.3</ele>
        <time>2024-11-10T14:34:18Z</time>
      </trkpt>
      <trkpt lat="42.2891" lon="3.27946">
        <ele>5.3</ele>
        <time>2024-11-10T14:34:19Z</time>
      </trkpt>
      <trkpt lat="42.2891" lon="3.27946">
        <ele>5.3</ele>
        <time>2024-11-10T14:34:20Z</time>
      </trkpt>
      <trkpt lat="42.2891" lon="3.27946">
        <ele>5.3</ele>
        <time>2024-11-10T14:34:21Z</time>
      </trkpt>
      <trkpt lat="42.2891" lon="3.27946">
        <ele>5.3</ele>
        <time>2024-11-10T14:34:22Z</time>
      </trkpt>
      <trkpt lat="42.2891" lon="3.27946">
        <ele>5.3</ele>
        <time>2024-11-10T14:34:23Z</time>
      </trkpt>
      <trkpt lat="42.2891" lon="3.27946">
        <ele>5.3</ele>
        <time>2024-11-10T14:34:24Z</time>
      </trkpt>
      <trkpt lat="42.2891" lon="3.27946">
        <ele>5.3</ele>
        <time>2024-11-10T14:34:25Z</time>
      </trkpt>
      <trkpt lat="42.2891" lon="3.27946">
        <ele>5.3</ele>
        <time>2024-11-10T14:34:26Z</time>
      </trkpt>
      <trkpt lat="42.2891" lon="3.27946">
        <ele>5.3</ele>
        <time>2024-11-10T14:34:27Z</time>
      </trkpt>
      <trkpt lat="42.2891" lon="3.27946">
        <ele>5.3</ele>
        <time>2024-11-10T14:34:28Z</time>
      </trkpt>
      <trkpt lat="42.2891" lon="3.27946">
        <ele>5.3</ele>
        <time>2024-11-10T14:34:29Z</time>
      </trkpt>
      <trkpt lat="42.2891" lon="3.27946">
        <ele>5.3</ele>
        <time>2024-11-10T14:34:30Z</time>
      </trkpt>
      <trkpt lat="42.2891" lon="3.27946">
        <ele>5.3</ele>
        <time>2024-11-10T14:34:31Z</time>
      </trkpt>
      <trkpt lat="42.2891" lon="3.27946">
        <ele>5.3</ele>
        <time>2024-11-10T14:34:32Z</time>
      </trkpt>
      <trkpt lat="42.2891" lon="3.27946">
        <ele>5.3</ele>
        <time>2024-11-10T14:34:33Z</time>
      </trkpt>
      <trkpt lat="42.2891" lon="3.27946">
        <ele>5.3</ele>
        <time>2024-11-10T14:34:34Z</time>
      </trkpt>
      <trkpt lat="42.2891" lon="3.27946">
        <ele>5.3</ele>
        <time>2024-11-10T14:34:35Z</time>
      </trkpt>
      <trkpt lat="42.2891" lon="3.27946">
        <ele>5.3</ele>
        <time>2024-11-10T14:34:36Z</time>
      </trkpt>
      <trkpt lat="42.2891" lon="3.27946">
        <ele>5.3</ele>
        <time>2024-11-10T14:34:37Z</time>
      </trkpt>
      <trkpt lat="42.2891" lon="3.27946">
        <ele>5.3</ele>
        <time>2024-11-10T14:34:38Z</time>
      </trkpt>
      <trkpt lat="42.2891" lon="3.27946">
        <ele>5.3</ele>
        <time>2024-11-10T14:34:39Z</time>
      </trkpt>
      <trkpt lat="42.2891" lon="3.27946">
        <ele>5.3</ele>
        <time>2024-11-10T14:34:40Z</time>
      </trkpt>
      <trkpt lat="42.2891" lon="3.27946">
        <ele>5.3</ele>
        <time>2024-11-10T14:34:41Z</time>
      </trkpt>
      <trkpt lat="42.2891" lon="3.27946">
        <ele>5.3</ele>
        <time>2024-11-10T14:34:42Z</time>
      </trkpt>
      <trkpt lat="42.2891" lon="3.27946">
        <ele>5.3</ele>
        <time>2024-11-10T14:34:43Z</time>
      </trkpt>
      <trkpt lat="42.2891" lon="3.27946">
        <ele>5.3</ele>
        <time>2024-11-10T14:34:44Z</time>
      </trkpt>
      <trkpt lat="42.2891" lon="3.27946">
        <ele>5.3</ele>
        <time>2024-11-10T14:34:45Z</time>
      </trkpt>
      <trkpt lat="42.2891" lon="3.27946">
        <ele>5.3</ele>
        <time>2024-11-10T14:34:46Z</time>
      </trkpt>
      <trkpt lat="42.2891" lon="3.27946">
        <ele>5.3</ele>
        <time>2024-11-10T14:34:47Z</time>
      </trkpt>
      <trkpt lat="42.2891" lon="3.27946">
        <ele>5.3</ele>
        <time>2024-11-10T14:34:48Z</time>
      </trkpt>
      <trkpt lat="42.2891" lon="3.27946">
        <ele>5.3</ele>
        <time>2024-11-10T14:34:49Z</time>
      </trkpt>
      <trkpt lat="42.2891" lon="3.27946">
        <ele>5.3</ele>
        <time>2024-11-10T14:34:50Z</time>
      </trkpt>
      <trkpt lat="42.2891" lon="3.27946">
        <ele>5.3</ele>
        <time>2024-11-10T14:34:51Z</time>
      </trkpt>
      <trkpt lat="42.2891" lon="3.27946">
        <ele>5.3</ele>
        <time>2024-11-10T14:34:52Z</time>
      </trkpt>
      <trkpt lat="42.2891" lon="3.27946">
        <ele>5.3</ele>
        <time>2024-11-10T14:34:53Z</time>
      </trkpt>
      <trkpt lat="42.2891" lon="3.27946">
        <ele>5.3</ele>
        <time>2024-11-10T14:34:54Z</time>
      </trkpt>
      <trkpt lat="42.2891" lon="3.27946">
        <ele>5.3</ele>
        <time>2024-11-10T14:34:55Z</time>
      </trkpt>
      <trkpt lat="42.2891" lon="3.27946">
        <ele>5.3</ele>
        <time>2024-11-10T14:34:56Z</time>
      </trkpt>
      <trkpt lat="42.2891" lon="3.27946">
        <ele>5.3</ele>
        <time>2024-11-10T14:34:57Z</time>
      </trkpt>
      <trkpt lat="42.2891" lon="3.27946">
        <ele>5.3</ele>
        <time>2024-11-10T14:34:58Z</time>
      </trkpt>
      <trkpt lat="42.2891" lon="3.27946">
        <ele>5.3</ele>
        <time>2024-11-10T14:34:59Z</time>
      </trkpt>
      <trkpt lat="42.2891" lon="3.27946">
        <ele>5.3</ele>
        <time>2024-11-10T14:35:00Z</time>
      </trkpt>
      <trkpt lat="42.2891" lon="3.27946">
        <ele>5.3</ele>
        <time>2024-11-10T14:35:01Z</time>
      </trkpt>
      <trkpt lat="42.2891" lon="3.27946">
        <ele>5.3</ele>
        <time>2024-11-10T14:35:02Z</time>
      </trkpt>
      <trkpt lat="42.2891" lon="3.27946">
        <ele>5.3</ele>
        <time>2024-11-10T14:35:03Z</time>
      </trkpt>
      <trkpt lat="42.2891" lon="3.27946">
        <ele>5.3</ele>
        <time>2024-11-10T14:35:04Z</time>
      </trkpt>
      <trkpt lat="42.2891" lon="3.27946">
        <ele>5.3</ele>
        <time>2024-11-10T14:35:05Z</time>
      </trkpt>
      <trkpt lat="42.2891" lon="3.27946">
        <ele>5.3</ele>
        <time>2024-11-10T14:35:06Z</time>
      </trkpt>
      <trkpt lat="42.2891" lon="3.27946">
        <ele>5.3</ele>
        <time>2024-11-10T14:35:07Z</time>
      </trkpt>
      <trkpt lat="42.2891" lon="3.27946">
        <ele>5.3</ele>
        <time>2024-11-10T14:35:08Z</time>
      </trkpt>
      <trkpt lat="42.2891" lon="3.27946">
        <ele>5.3</ele>
        <time>2024-11-10T14:35:09Z</time>
      </trkpt>
      <trkpt lat="42.2891" lon="3.27946">
        <ele>5.3</ele>
        <time>2024-11-10T14:35:10Z</time>
      </trkpt>
      <trkpt lat="42.2891" lon="3.27946">
        <ele>5.3</ele>
        <time>2024-11-10T14:35:11Z</time>
      </trkpt>
      <trkpt lat="42.2891" lon="3.27946">
        <ele>5.3</ele>
        <time>2024-11-10T14:35:12Z</time>
      </trkpt>
      <trkpt lat="42.2891" lon="3.27946">
        <ele>5.3</ele>
        <time>2024-11-10T14:35:13Z</time>
      </trkpt>
      <trkpt lat="42.2891" lon="3.27946">
        <ele>5.3</ele>
        <time>2024-11-10T14:35:14Z</time>
      </trkpt>
      <trkpt lat="42.2891" lon="3.27946">
        <ele>5.3</ele>
        <time>2024-11-10T14:35:15Z</time>
      </trkpt>
      <trkpt lat="42.2891" lon="3.27946">
        <ele>5.3</ele>
        <time>2024-11-10T14:35:16Z</time>
      </trkpt>
      <trkpt lat="42.2891" lon="3.27946">
        <ele>5.3</ele>
        <time>2024-11-10T14:35:17Z</time>
      </trkpt>
      <trkpt lat="42.2891" lon="3.27946">
        <ele>5.3</ele>
        <time>2024-11-10T14:35:18Z</time>
      </trkpt>
      <trkpt lat="42.2891" lon="3.27946">
        <ele>5.3</ele>
        <time>2024-11-10T14:35:19Z</time>
      </trkpt>
      <trkpt lat="42.2891" lon="3.27946">
        <ele>5.3</ele>
        <time>2024-11-10T14:35:20Z</time>
      </trkpt>
      <trkpt lat="42.2891" lon="3.27946">
        <ele>5.3</ele>
        <time>2024-11-10T14:35:21Z</time>
      </trkpt>
      <trkpt lat="42.2891" lon="3.27946">
        <ele>5.3</ele>
        <time>2024-11-10T14:35:22Z</time>
      </trkpt>
      <trkpt lat="42.2891" lon="3.27946">
        <ele>5.3</ele>
        <time>2024-11-10T14:35:23Z</time>
      </trkpt>
      <trkpt lat="42.2891" lon="3.27946">
        <ele>5.3</ele>
        <time>2024-11-10T14:35:24Z</time>
      </trkpt>
      <trkpt lat="42.2891" lon="3.27946">
        <ele>5.3</ele>
        <time>2024-11-10T14:35:25Z</time>
      </trkpt>
      <trkpt lat="42.2891" lon="3.27946">
        <ele>5.3</ele>
        <time>2024-11-10T14:35:26Z</time>
      </trkpt>
      <trkpt lat="42.2891" lon="3.27946">
        <ele>5.3</ele>
        <time>2024-11-10T14:35:27Z</time>
      </trkpt>
      <trkpt lat="42.2891" lon="3.27946">
        <ele>5.3</ele>
        <time>2024-11-10T14:35:28Z</time>
      </trkpt>
      <trkpt lat="42.2891" lon="3.27946">
        <ele>5.3</ele>
        <time>2024-11-10T14:35:29Z</time>
      </trkpt>
      <trkpt lat="42.2891" lon="3.27946">
        <ele>5.3</ele>
        <time>2024-11-10T14:35:30Z</time>
      </trkpt>
      <trkpt lat="42.2891" lon="3.27946">
        <ele>5.3</ele>
        <time>2024-11-10T14:35:31Z</time>
      </trkpt>
      <trkpt lat="42.2891" lon="3.27946">
        <ele>5.3</ele>
        <time>2024-11-10T14:35:32Z</time>
      </trkpt>
      <trkpt lat="42.2891" lon="3.27946">
        <ele>5.3</ele>
        <time>2024-11-10T14:35:33Z</time>
      </trkpt>
      <trkpt lat="42.2891" lon="3.27946">
        <ele>5.3</ele>
        <time>2024-11-10T14:35:34Z</time>
      </trkpt>
      <trkpt lat="42.2891" lon="3.27946">
        <ele>5.3</ele>
        <time>2024-11-10T14:35:35Z</time>
      </trkpt>
      <trkpt lat="42.2891" lon="3.27946">
        <ele>5.3</ele>
        <time>2024-11-10T14:35:36Z</time>
      </trkpt>
      <trkpt lat="42.2891" lon="3.27946">
        <ele>5.3</ele>
        <time>2024-11-10T14:35:37Z</time>
      </trkpt>
      <trkpt lat="42.2891" lon="3.27946">
        <ele>5.3</ele>
        <time>2024-11-10T14:35:38Z</time>
      </trkpt>
      <trkpt lat="42.2891" lon="3.27946">
        <ele>5.3</ele>
        <time>2024-11-10T14:35:39Z</time>
      </trkpt>
      <trkpt lat="42.2891" lon="3.27946">
        <ele>5.3</ele>
        <time>2024-11-10T14:35:40Z</time>
      </trkpt>
      <trkpt lat="42.2891" lon="3.27946">
        <ele>5.3</ele>
        <time>2024-11-10T14:35:41Z</time>
      </trkpt>
      <trkpt lat="42.2891" lon="3.27946">
        <ele>5.3</ele>
        <time>2024-11-10T14:35:42Z</time>
      </trkpt>
      <trkpt lat="42.2891" lon="3.27946">
        <ele>5.3</ele>
        <time>2024-11-10T14:35:43Z</time>
      </trkpt>
      <trkpt lat="42.2891" lon="3.27946">
        <ele>5.3</ele>
        <time>2024-11-10T14:35:44Z</time>
      </trkpt>
      <trkpt lat="42.2891" lon="3.27946">
        <ele>5.3</ele>
        <time>2024-11-10T14:35:45Z</time>
      </trkpt>
      <trkpt lat="42.2891" lon="3.27946">
        <ele>5.3</ele>
        <time>2024-11-10T14:35:46Z</time>
      </trkpt>
      <trkpt lat="42.2891" lon="3.27946">
        <ele>5.3</ele>
        <time>2024-11-10T14:35:47Z</time>
      </trkpt>
      <trkpt lat="42.2891" lon="3.27946">
        <ele>5.3</ele>
        <time>2024-11-10T14:35:48Z</time>
      </trkpt>
      <trkpt lat="42.2891" lon="3.27946">
        <ele>5.3</ele>
        <time>2024-11-10T14:35:49Z</time>
      </trkpt>
      <trkpt lat="42.2891" lon="3.27946">
        <ele>5.3</ele>
        <time>2024-11-10T14:35:50Z</time>
      </trkpt>
      <trkpt lat="42.2891" lon="3.27946">
        <ele>5.3</ele>
        <time>2024-11-10T14:35:51Z</time>
      </trkpt>
      <trkpt lat="42.2891" lon="3.27946">
        <ele>5.3</ele>
        <time>2024-11-10T14:35:52Z</time>
      </trkpt>
      <trkpt lat="42.2891" lon="3.27946">
        <ele>5.3</ele>
        <time>2024-11-10T14:35:53Z</time>
      </trkpt>
      <trkpt lat="42.2891" lon="3.27946">
        <ele>5.3</ele>
        <time>2024-11-10T14:35:54Z</time>
      </trkpt>
      <trkpt lat="42.2891" lon="3.27946">
        <ele>5.3</ele>
        <time>2024-11-10T14:35:55Z</time>
      </trkpt>
      <trkpt lat="42.2891" lon="3.27946">
        <ele>5.3</ele>
        <time>2024-11-10T14:35:56Z</time>
      </trkpt>
      <trkpt lat="42.2891" lon="3.27946">
        <ele>5.3</ele>
        <time>2024-11-10T14:35:57Z</time>
      </trkpt>
      <trkpt lat="42.2891" lon="3.27946">
        <ele>5.3</ele>
        <time>2024-11-10T14:35:58Z</time>
      </trkpt>
      <trkpt lat="42.2891" lon="3.27946">
        <ele>5.3</ele>
        <time>2024-11-10T14:35:59Z</time>
      </trkpt>
      <trkpt lat="42.2891" lon="3.27946">
        <ele>5.3</ele>
        <time>2024-11-10T14:36:00Z</time>
      </trkpt>
      <trkpt lat="42.2891" lon="3.27946">
        <ele>5.3</ele>
        <time>2024-11-10T14:36:01Z</time>
      </trkpt>
      <trkpt lat="42.2891" lon="3.27946">
        <ele>5.3</ele>
        <time>2024-11-10T14:36:02Z</time>
      </trkpt>
      <trkpt lat="42.2891" lon="3.27946">
        <ele>5.3</ele>
        <time>2024-11-10T14:36:03Z</time>
      </trkpt>
      <trkpt lat="42.2891" lon="3.27946">
        <ele>5.3</ele>
        <time>2024-11-10T14:36:04Z</time>
      </trkpt>
      <trkpt lat="42.2891" lon="3.27946">
        <ele>5.3</ele>
        <time>2024-11-10T14:36:05Z</time>
      </trkpt>
      <trkpt lat="42.2891" lon="3.27946">
        <ele>5.3</ele>
        <time>2024-11-10T14:36:06Z</time>
      </trkpt>
      <trkpt lat="42.2891" lon="3.27946">
        <ele>5.3</ele>
        <time>2024-11-10T14:36:07Z</time>
      </trkpt>
      <trkpt lat="42.2891" lon="3.27946">
        <ele>5.3</ele>
        <time>2024-11-10T14:36:08Z</time>
      </trkpt>
      <trkpt lat="42.2891" lon="3.27946">
        <ele>5.3</ele>
        <time>2024-11-10T14:36:09Z</time>
      </trkpt>
      <trkpt lat="42.2891" lon="3.27946">
        <ele>5.3</ele>
        <time>2024-11-10T14:36:10Z</time>
      </trkpt>
      <trkpt lat="42.2891" lon="3.27946">
        <ele>5.3</ele>
        <time>2024-11-10T14:36:11Z</time>
      </trkpt>
      <trkpt lat="42.2891" lon="3.27946">
        <ele>5.3</ele>
        <time>2024-11-10T14:36:12Z</time>
      </trkpt>
      <trkpt lat="42.2891" lon="3.27946">
        <ele>5.3</ele>
        <time>2024-11-10T14:36:13Z</time>
      </trkpt>
      <trkpt lat="42.2891" lon="3.27946">
        <ele>5.3</ele>
        <time>2024-11-10T14:36:14Z</time>
      </trkpt>
      <trkpt lat="42.2891" lon="3.27946">
        <ele>5.3</ele>
        <time>2024-11-10T14:36:15Z</time>
      </trkpt>
      <trkpt lat="42.2891" lon="3.27946">
        <ele>5.3</ele>
        <time>2024-11-10T14:36:16Z</time>
      </trkpt>
      <trkpt lat="42.2891" lon="3.27946">
        <ele>5.3</ele>
        <time>2024-11-10T14:36:17Z</time>
      </trkpt>
      <trkpt lat="42.2891" lon="3.27946">
        <ele>5.3</ele>
        <time>2024-11-10T14:36:18Z</time>
      </trkpt>
      <trkpt lat="42.2891" lon="3.27946">
        <ele>5.3</ele>
        <time>2024-11-10T14:36:19Z</time>
      </trkpt>
      <trkpt lat="42.2891" lon="3.27946">
        <ele>5.3</ele>
        <time>2024-11-10T14:36:20Z</time>
      </trkpt>
      <trkpt lat="42.2891" lon="3.27946">
        <ele>5.3</ele>
        <time>2024-11-10T14:36:21Z</time>
      </trkpt>
      <trkpt lat="42.2891" lon="3.27946">
        <ele>5.3</ele>
        <time>2024-11-10T14:36:22Z</time>
      </trkpt>
      <trkpt lat="42.2891" lon="3.27946">
        <ele>5.3</ele>
        <time>2024-11-10T14:36:23Z</time>
      </trkpt>
      <trkpt lat="42.2891" lon="3.27946">
        <ele>5.3</ele>
        <time>2024-11-10T14:36:24Z</time>
      </trkpt>
      <trkpt lat="42.2891" lon="3.27946">
        <ele>5.3</ele>
        <time>2024-11-10T14:36:25Z</time>
      </trkpt>
      <trkpt lat="42.2891" lon="3.27946">
        <ele>5.3</ele>
        <time>2024-11-10T14:36:26Z</time>
      </trkpt>
      <trkpt lat="42.2891" lon="3.27946">
        <ele>5.3</ele>
        <time>2024-11-10T14:36:27Z</time>
      </trkpt>
      <trkpt lat="42.2891" lon="3.27946">
        <ele>5.3</ele>
        <time>2024-11-10T14:36:28Z</time>
      </trkpt>
      <trkpt lat="42.2891" lon="3.27946">
        <ele>5.3</ele>
        <time>2024-11-10T14:36:29Z</time>
      </trkpt>
      <trkpt lat="42.2891" lon="3.27946">
        <ele>5.3</ele>
        <time>2024-11-10T14:36:30Z</time>
      </trkpt>
      <trkpt lat="42.2891" lon="3.27946">
        <ele>5.3</ele>
        <time>2024-11-10T14:36:31Z</time>
      </trkpt>
      <trkpt lat="42.2891" lon="3.27946">
        <ele>5.3</ele>
        <time>2024-11-10T14:36:32Z</time>
      </trkpt>
      <trkpt lat="42.2891" lon="3.27946">
        <ele>5.3</ele>
        <time>2024-11-10T14:36:33Z</time>
      </trkpt>
      <trkpt lat="42.2891" lon="3.27946">
        <ele>5.3</ele>
        <time>2024-11-10T14:36:34Z</time>
      </trkpt>
      <trkpt lat="42.2891" lon="3.27946">
        <ele>5.3</ele>
        <time>2024-11-10T14:36:35Z</time>
      </trkpt>
      <trkpt lat="42.2891" lon="3.27946">
        <ele>5.3</ele>
        <time>2024-11-10T14:36:36Z</time>
      </trkpt>
      <trkpt lat="42.2891" lon="3.27946">
        <ele>5.3</ele>
        <time>2024-11-10T14:36:37Z</time>
      </trkpt>
      <trkpt lat="42.2891" lon="3.27946">
        <ele>5.3</ele>
        <time>2024-11-10T14:36:38Z</time>
      </trkpt>
      <trkpt lat="42.2891" lon="3.27946">
        <ele>5.3</ele>
        <time>2024-11-10T14:36:39Z</time>
      </trkpt>
      <trkpt lat="42.2891" lon="3.27946">
        <ele>5.3</ele>
        <time>2024-11-10T14:36:40Z</time>
      </trkpt>
      <trkpt lat="42.2891" lon="3.27946">
        <ele>5.3</ele>
        <time>2024-11-10T14:36:41Z</time>
      </trkpt>
      <trkpt lat="42.2891" lon="3.27946">
        <ele>5.3</ele>
        <time>2024-11-10T14:36:42Z</time>
      </trkpt>
      <trkpt lat="42.2891" lon="3.27946">
        <ele>5.3</ele>
        <time>2024-11-10T14:36:43Z</time>
      </trkpt>
      <trkpt lat="42.2891" lon="3.27946">
        <ele>5.3</ele>
        <time>2024-11-10T14:36:44Z</time>
      </trkpt>
      <trkpt lat="42.2891" lon="3.27946">
        <ele>5.3</ele>
        <time>2024-11-10T14:36:45Z</time>
      </trkpt>
      <trkpt lat="42.2891" lon="3.27946">
        <ele>5.3</ele>
        <time>2024-11-10T14:36:46Z</time>
      </trkpt>
      <trkpt lat="42.2891" lon="3.27946">
        <ele>5.3</ele>
        <time>2024-11-10T14:36:47Z</time>
      </trkpt>
      <trkpt lat="42.2891" lon="3.27946">
        <ele>5.3</ele>
        <time>2024-11-10T14:36:48Z</time>
      </trkpt>
      <trkpt lat="42.2891" lon="3.27946">
        <ele>5.3</ele>
        <time>2024-11-10T14:36:49Z</time>
      </trkpt>
      <trkpt lat="42.2891" lon="3.27946">
        <ele>5.3</ele>
        <time>2024-11-10T14:36:50Z</time>
      </trkpt>
      <trkpt lat="42.2891" lon="3.27946">
        <ele>5.3</ele>
        <time>2024-11-10T14:36:51Z</time>
      </trkpt>
      <trkpt lat="42.2891" lon="3.27946">
        <ele>5.3</ele>
        <time>2024-11-10T14:36:52Z</time>
      </trkpt>
      <trkpt lat="42.2891" lon="3.27946">
        <ele>5.3</ele>
        <time>2024-11-10T14:36:53Z</time>
      </trkpt>
      <trkpt lat="42.2891" lon="3.27946">
        <ele>5.3</ele>
        <time>2024-11-10T14:36:54Z</time>
      </trkpt>
      <trkpt lat="42.2891" lon="3.27946">
        <ele>5.3</ele>
        <time>2024-11-10T14:36:55Z</time>
      </trkpt>
      <trkpt lat="42.2891" lon="3.27946">
        <ele>5.3</ele>
        <time>2024-11-10T14:36:56Z</time>
      </trkpt>
      <trkpt lat="42.2891" lon="3.27946">
        <ele>5.3</ele>
        <time>2024-11-10T14:36:57Z</time>
      </trkpt>
      <trkpt lat="42.2891" lon="3.27946">
        <ele>5.3</ele>
        <time>2024-11-10T14:36:58Z</time>
      </trkpt>
      <trkpt lat="42.2891" lon="3.27946">
        <ele>5.3</ele>
        <time>2024-11-10T14:36:59Z</time>
      </trkpt>
      <trkpt lat="42.2891" lon="3.27946">
        <ele>5.3</ele>
        <time>2024-11-10T14:37:00Z</time>
      </trkpt>
      <trkpt lat="42.2891" lon="3.27946">
        <ele>5.3</ele>
        <time>2024-11-10T14:37:01Z</time>
      </trkpt>
      <trkpt lat="42.2891" lon="3.27946">
        <ele>5.3</ele>
        <time>2024-11-10T14:37:02Z</time>
      </trkpt>
      <trkpt lat="42.2891" lon="3.27946">
        <ele>5.3</ele>
        <time>2024-11-10T14:37:03Z</time>
      </trkpt>
      <trkpt lat="42.2891" lon="3.27946">
        <ele>5.3</ele>
        <time>2024-11-10T14:37:04Z</time>
      </trkpt>
      <trkpt lat="42.2891" lon="3.27946">
        <ele>5.3</ele>
        <time>2024-11-10T14:37:05Z</time>
      </trkpt>
      <trkpt lat="42.2891" lon="3.27946">
        <ele>5.3</ele>
        <time>2024-11-10T14:37:06Z</time>
      </trkpt>
      <trkpt lat="42.2891" lon="3.27946">
        <ele>5.3</ele>
        <time>2024-11-10T14:37:07Z</time>
      </trkpt>
      <trkpt lat="42.2891" lon="3.27946">
        <ele>5.3</ele>
        <time>2024-11-10T14:37:08Z</time>
      </trkpt>
      <trkpt lat="42.2891" lon="3.27946">
        <ele>5.3</ele>
        <time>2024-11-10T14:37:09Z</time>
      </trkpt>
      <trkpt lat="42.2891" lon="3.27946">
        <ele>5.3</ele>
        <time>2024-11-10T14:37:10Z</time>
      </trkpt>
      <trkpt lat="42.2891" lon="3.27946">
        <ele>5.3</ele>
        <time>2024-11-10T14:37:11Z</time>
      </trkpt>
      <trkpt lat="42.2891" lon="3.27946">
        <ele>5.3</ele>
        <time>2024-11-10T14:37:12Z</time>
      </trkpt>
      <trkpt lat="42.2891" lon="3.27946">
        <ele>5.3</ele>
        <time>2024-11-10T14:37:13Z</time>
      </trkpt>
      <trkpt lat="42.2891" lon="3.27946">
        <ele>5.3</ele>
        <time>2024-11-10T14:37:14Z</time>
      </trkpt>
      <trkpt lat="42.2891" lon="3.27946">
        <ele>5.3</ele>
        <time>2024-11-10T14:37:15Z</time>
      </trkpt>
      <trkpt lat="42.2891" lon="3.27946">
        <ele>5.3</ele>
        <time>2024-11-10T14:37:16Z</time>
      </trkpt>
      <trkpt lat="42.2891" lon="3.27946">
        <ele>5.3</ele>
        <time>2024-11-10T14:37:17Z</time>
      </trkpt>
      <trkpt lat="42.2891" lon="3.27946">
        <ele>5.3</ele>
        <time>2024-11-10T14:37:18Z</time>
      </trkpt>
      <trkpt lat="42.2891" lon="3.27946">
        <ele>5.3</ele>
        <time>2024-11-10T14:37:19Z</time>
      </trkpt>
      <trkpt lat="42.2891" lon="3.27946">
        <ele>5.3</ele>
        <time>2024-11-10T14:37:20Z</time>
      </trkpt>
      <trkpt lat="42.2891" lon="3.27946">
        <ele>5.3</ele>
        <time>2024-11-10T14:37:21Z</time>
      </trkpt>
      <trkpt lat="42.2891" lon="3.27946">
        <ele>5.3</ele>
        <time>2024-11-10T14:37:22Z</time>
      </trkpt>
      <trkpt lat="42.2891" lon="3.27946">
        <ele>5.3</ele>
        <time>2024-11-10T14:37:23Z</time>
      </trkpt>
      <trkpt lat="42.2891" lon="3.27946">
        <ele>5.3</ele>
        <time>2024-11-10T14:37:24Z</time>
      </trkpt>
      <trkpt lat="42.2891" lon="3.27946">
        <ele>5.3</ele>
        <time>2024-11-10T14:37:25Z</time>
      </trkpt>
      <trkpt lat="42.2891" lon="3.27946">
        <ele>5.3</ele>
        <time>2024-11-10T14:37:26Z</time>
      </trkpt>
      <trkpt lat="42.2891" lon="3.27946">
        <ele>5.3</ele>
        <time>2024-11-10T14:37:27Z</time>
      </trkpt>
      <trkpt lat="42.2891" lon="3.27946">
        <ele>5.3</ele>
        <time>2024-11-10T14:37:28Z</time>
      </trkpt>
      <trkpt lat="42.2891" lon="3.27946">
        <ele>5.3</ele>
        <time>2024-11-10T14:37:29Z</time>
      </trkpt>
      <trkpt lat="42.2891" lon="3.27946">
        <ele>5.3</ele>
        <time>2024-11-10T14:37:30Z</time>
      </trkpt>
      <trkpt lat="42.2891" lon="3.27946">
        <ele>5.3</ele>
        <time>2024-11-10T14:37:31Z</time>
      </trkpt>
      <trkpt lat="42.2891" lon="3.27946">
        <ele>5.3</ele>
        <time>2024-11-10T14:37:32Z</time>
      </trkpt>
      <trkpt lat="42.2891" lon="3.27946">
        <ele>5.3</ele>
        <time>2024-11-10T14:37:33Z</time>
      </trkpt>
      <trkpt lat="42.2891" lon="3.27946">
        <ele>5.3</ele>
        <time>2024-11-10T14:37:34Z</time>
      </trkpt>
      <trkpt lat="42.2891" lon="3.27946">
        <ele>5.3</ele>
        <time>2024-11-10T14:37:35Z</time>
      </trkpt>
      <trkpt lat="42.2891" lon="3.27946">
        <ele>5.3</ele>
        <time>2024-11-10T14:37:36Z</time>
      </trkpt>
      <trkpt lat="42.2891" lon="3.27946">
        <ele>5.3</ele>
        <time>2024-11-10T14:37:37Z</time>
      </trkpt>
      <trkpt lat="42.2891" lon="3.27946">
        <ele>5.3</ele>
        <time>2024-11-10T14:37:38Z</time>
      </trkpt>
      <trkpt lat="42.2891" lon="3.27946">
        <ele>5.3</ele>
        <time>2024-11-10T14:37:39Z</time>
      </trkpt>
      <trkpt lat="42.2891" lon="3.27946">
        <ele>5.3</ele>
        <time>2024-11-10T14:37:40Z</time>
      </trkpt>
      <trkpt lat="42.2891" lon="3.27946">
        <ele>5.3</ele>
        <time>2024-11-10T14:37:41Z</time>
      </trkpt>
      <trkpt lat="42.2891" lon="3.27946">
        <ele>5.3</ele>
        <time>2024-11-10T14:37:42Z</time>
      </trkpt>
      <trkpt lat="42.2891" lon="3.27946">
        <ele>5.3</ele>
        <time>2024-11-10T14:37:43Z</time>
      </trkpt>
      <trkpt lat="42.2891" lon="3.27946">
        <ele>5.3</ele>
        <time>2024-11-10T14:37:44Z</time>
      </trkpt>
      <trkpt lat="42.2891" lon="3.27946">
        <ele>5.3</ele>
        <time>2024-11-10T14:37:45Z</time>
      </trkpt>
      <trkpt lat="42.2891" lon="3.27946">
        <ele>5.3</ele>
        <time>2024-11-10T14:37:46Z</time>
      </trkpt>
      <trkpt lat="42.2891" lon="3.27946">
        <ele>5.3</ele>
        <time>2024-11-10T14:37:47Z</time>
      </trkpt>
      <trkpt lat="42.2891" lon="3.27946">
        <ele>5.3</ele>
        <time>2024-11-10T14:37:48Z</time>
      </trkpt>
      <trkpt lat="42.2891" lon="3.27946">
        <ele>5.3</ele>
        <time>2024-11-10T14:37:49Z</time>
      </trkpt>
      <trkpt lat="42.2891" lon="3.27946">
        <ele>5.3</ele>
        <time>2024-11-10T14:37:50Z</time>
      </trkpt>
      <trkpt lat="42.2891" lon="3.27946">
        <ele>5.3</ele>
        <time>2024-11-10T14:37:51Z</time>
      </trkpt>
      <trkpt lat="42.2891" lon="3.27946">
        <ele>5.3</ele>
        <time>2024-11-10T14:37:52Z</time>
      </trkpt>
      <trkpt lat="42.2891" lon="3.27946">
        <ele>5.3</ele>
        <time>2024-11-10T14:37:53Z</time>
      </trkpt>
      <trkpt lat="42.2891" lon="3.27946">
        <ele>5.3</ele>
        <time>2024-11-10T14:37:54Z</time>
      </trkpt>
      <trkpt lat="42.2891" lon="3.27946">
        <ele>5.3</ele>
        <time>2024-11-10T14:37:55Z</time>
      </trkpt>
      <trkpt lat="42.2891" lon="3.27946">
        <ele>5.3</ele>
        <time>2024-11-10T14:37:56Z</time>
      </trkpt>
      <trkpt lat="42.2891" lon="3.27946">
        <ele>5.3</ele>
        <time>2024-11-10T14:37:57Z</time>
      </trkpt>
      <trkpt lat="42.2891" lon="3.27946">
        <ele>5.3</ele>
        <time>2024-11-10T14:37:58Z</time>
      </trkpt>
      <trkpt lat="42.2891" lon="3.27946">
        <ele>5.3</ele>
        <time>2024-11-10T14:37:59Z</time>
      </trkpt>
      <trkpt lat="42.2891" lon="3.27946">
        <ele>5.3</ele>
        <time>2024-11-10T14:38:00Z</time>
      </trkpt>
      <trkpt lat="42.2891" lon="3.27946">
        <ele>5.3</ele>
        <time>2024-11-10T14:38:01Z</time>
      </trkpt>
      <trkpt lat="42.2891" lon="3.27946">
        <ele>5.3</ele>
        <time>2024-11-10T14:38:02Z</time>
      </trkpt>
      <trkpt lat="42.2891" lon="3.27946">
        <ele>5.3</ele>
        <time>2024-11-10T14:38:03Z</time>
      </trkpt>
      <trkpt lat="42.2891" lon="3.27946">
        <ele>5.3</ele>
        <time>2024-11-10T14:38:04Z</time>
      </trkpt>
      <trkpt lat="42.2891" lon="3.27946">
        <ele>5.3</ele>
        <time>2024-11-10T14:38:05Z</time>
      </trkpt>
      <trkpt lat="42.2891" lon="3.27946">
        <ele>5.3</ele>
        <time>2024-11-10T14:38:06Z</time>
      </trkpt>
      <trkpt lat="42.2891" lon="3.27946">
        <ele>5.3</ele>
        <time>2024-11-10T14:38:07Z</time>
      </trkpt>
      <trkpt lat="42.2891" lon="3.27946">
        <ele>5.3</ele>
        <time>2024-11-10T14:38:08Z</time>
      </trkpt>
      <trkpt lat="42.2891" lon="3.27946">
        <ele>5.3</ele>
        <time>2024-11-10T14:38:09Z</time>
      </trkpt>
      <trkpt lat="42.2891" lon="3.27946">
        <ele>5.3</ele>
        <time>2024-11-10T14:38:10Z</time>
      </trkpt>
      <trkpt lat="42.2891" lon="3.27946">
        <ele>5.3</ele>
        <time>2024-11-10T14:38:11Z</time>
      </trkpt>
      <trkpt lat="42.2891" lon="3.27946">
        <ele>5.3</ele>
        <time>2024-11-10T14:38:12Z</time>
      </trkpt>
      <trkpt lat="42.2891" lon="3.27946">
        <ele>5.3</ele>
        <time>2024-11-10T14:38:13Z</time>
      </trkpt>
      <trkpt lat="42.2891" lon="3.27946">
        <ele>5.3</ele>
        <time>2024-11-10T14:38:14Z</time>
      </trkpt>
      <trkpt lat="42.2891" lon="3.27946">
        <ele>5.3</ele>
        <time>2024-11-10T14:38:15Z</time>
      </trkpt>
      <trkpt lat="42.2891" lon="3.27946">
        <ele>5.3</ele>
        <time>2024-11-10T14:38:16Z</time>
      </trkpt>
      <trkpt lat="42.2891" lon="3.27946">
        <ele>5.3</ele>
        <time>2024-11-10T14:38:17Z</time>
      </trkpt>
      <trkpt lat="42.2891" lon="3.27946">
        <ele>5.3</ele>
        <time>2024-11-10T14:38:18Z</time>
      </trkpt>
      <trkpt lat="42.2891" lon="3.27946">
        <ele>5.3</ele>
        <time>2024-11-10T14:38:19Z</time>
      </trkpt>
      <trkpt lat="42.2891" lon="3.27946">
        <ele>5.3</ele>
        <time>2024-11-10T14:38:20Z</time>
      </trkpt>
      <trkpt lat="42.2891" lon="3.27946">
        <ele>5.3</ele>
        <time>2024-11-10T14:38:21Z</time>
      </trkpt>
      <trkpt lat="42.2891" lon="3.27946">
        <ele>5.3</ele>
        <time>2024-11-10T14:38:22Z</time>
      </trkpt>
      <trkpt lat="42.2891" lon="3.27946">
        <ele>5.3</ele>
        <time>2024-11-10T14:38:23Z</time>
      </trkpt>
      <trkpt lat="42.2891" lon="3.27946">
        <ele>5.3</ele>
        <time>2024-11-10T14:38:24Z</time>
      </trkpt>
      <trkpt lat="42.2891" lon="3.27946">
        <ele>5.3</ele>
        <time>2024-11-10T14:38:25Z</time>
      </trkpt>
      <trkpt lat="42.2891" lon="3.27946">
        <ele>5.3</ele>
        <time>2024-11-10T14:38:26Z</time>
      </trkpt>
      <trkpt lat="42.2891" lon="3.27946">
        <ele>5.3</ele>
        <time>2024-11-10T14:38:27Z</time>
      </trkpt>
      <trkpt lat="42.2891" lon="3.27946">
        <ele>5.3</ele>
        <time>2024-11-10T14:38:28Z</time>
      </trkpt>
      <trkpt lat="42.2891" lon="3.27946">
        <ele>5.3</ele>
        <time>2024-11-10T14:38:29Z</time>
      </trkpt>
      <trkpt lat="42.2891" lon="3.27946">
        <ele>5.3</ele>
        <time>2024-11-10T14:38:30Z</time>
      </trkpt>
      <trkpt lat="42.2891" lon="3.27946">
        <ele>5.3</ele>
        <time>2024-11-10T14:38:31Z</time>
      </trkpt>
      <trkpt lat="42.2891" lon="3.27946">
        <ele>5.3</ele>
        <time>2024-11-10T14:38:32Z</time>
      </trkpt>
      <trkpt lat="42.2891" lon="3.27946">
        <ele>5.3</ele>
        <time>2024-11-10T14:38:33Z</time>
      </trkpt>
      <trkpt lat="42.2891" lon="3.27946">
        <ele>5.3</ele>
        <time>2024-11-10T14:38:34Z</time>
      </trkpt>
      <trkpt lat="42.2891" lon="3.27946">
        <ele>5.3</ele>
        <time>2024-11-10T14:38:35Z</time>
      </trkpt>
      <trkpt lat="42.2891" lon="3.27946">
        <ele>5.3</ele>
        <time>2024-11-10T14:38:36Z</time>
      </trkpt>
      <trkpt lat="42.2891" lon="3.27946">
        <ele>5.3</ele>
        <time>2024-11-10T14:38:37Z</time>
      </trkpt>
      <trkpt lat="42.2891" lon="3.27946">
        <ele>5.3</ele>
        <time>2024-11-10T14:38:38Z</time>
      </trkpt>
      <trkpt lat="42.2891" lon="3.27946">
        <ele>5.3</ele>
        <time>2024-11-10T14:38:39Z</time>
      </trkpt>
      <trkpt lat="42.2891" lon="3.27946">
        <ele>5.3</ele>
        <time>2024-11-10T14:38:40Z</time>
      </trkpt>
      <trkpt lat="42.2891" lon="3.27946">
        <ele>5.3</ele>
        <time>2024-11-10T14:38:41Z</time>
      </trkpt>
      <trkpt lat="42.2891" lon="3.27946">
        <ele>5.3</ele>
        <time>2024-11-10T14:38:42Z</time>
      </trkpt>
      <trkpt lat="42.2891" lon="3.27946">
        <ele>5.3</ele>
        <time>2024-11-10T14:38:43Z</time>
      </trkpt>
      <trkpt lat="42.2891" lon="3.27946">
        <ele>5.3</ele>
        <time>2024-11-10T14:38:44Z</time>
      </trkpt>
      <trkpt lat="42.2891" lon="3.27946">
        <ele>5.3</ele>
        <time>2024-11-10T14:38:45Z</time>
      </trkpt>
      <trkpt lat="42.2891" lon="3.27946">
        <ele>5.3</ele>
        <time>2024-11-10T14:38:46Z</time>
      </trkpt>
      <trkpt lat="42.2891" lon="3.27946">
        <ele>5.3</ele>
        <time>2024-11-10T14:38:47Z</time>
      </trkpt>
      <trkpt lat="42.2891" lon="3.27946">
        <ele>5.3</ele>
        <time>2024-11-10T14:38:48Z</time>
      </trkpt>
      <trkpt lat="42.2891" lon="3.27946">
        <ele>5.3</ele>
        <time>2024-11-10T14:38:49Z</time>
      </trkpt>
      <trkpt lat="42.2891" lon="3.27946">
        <ele>5.3</ele>
        <time>2024-11-10T14:38:50Z</time>
      </trkpt>
      <trkpt lat="42.2891" lon="3.27946">
        <ele>5.3</ele>
        <time>2024-11-10T14:38:51Z</time>
      </trkpt>
      <trkpt lat="42.2891" lon="3.27946">
        <ele>5.3</ele>
        <time>2024-11-10T14:38:52Z</time>
      </trkpt>
      <trkpt lat="42.2891" lon="3.27946">
        <ele>5.3</ele>
        <time>2024-11-10T14:38:53Z</time>
      </trkpt>
      <trkpt lat="42.2891" lon="3.27946">
        <ele>5.3</ele>
        <time>2024-11-10T14:38:54Z</time>
      </trkpt>
      <trkpt lat="42.2891" lon="3.27946">
        <ele>5.3</ele>
        <time>2024-11-10T14:38:55Z</time>
      </trkpt>
      <trkpt lat="42.2891" lon="3.27946">
        <ele>5.3</ele>
        <time>2024-11-10T14:38:56Z</time>
      </trkpt>
      <trkpt lat="42.2891" lon="3.27946">
        <ele>5.3</ele>
        <time>2024-11-10T14:38:57Z</time>
      </trkpt>
      <trkpt lat="42.2891" lon="3.27946">
        <ele>5.3</ele>
        <time>2024-11-10T14:38:58Z</time>
      </trkpt>
      <trkpt lat="42.2891" lon="3.27946">
        <ele>5.3</ele>
        <time>2024-11-10T14:38:59Z</time>
      </trkpt>
      <trkpt lat="42.2891" lon="3.27946">
        <ele>5.3</ele>
        <time>2024-11-10T14:39:00Z</time>
      </trkpt>
      <trkpt lat="42.2891" lon="3.27946">
        <ele>5.3</ele>
        <time>2024-11-10T14:39:01Z</time>
      </trkpt>
      <trkpt lat="42.2891" lon="3.27946">
        <ele>5.3</ele>
        <time>2024-11-10T14:39:02Z</time>
      </trkpt>
      <trkpt lat="42.2891" lon="3.27946">
        <ele>5.3</ele>
        <time>2024-11-10T14:39:03Z</time>
      </trkpt>
      <trkpt lat="42.2891" lon="3.27946">
        <ele>5.3</ele>
        <time>2024-11-10T14:39:04Z</time>
      </trkpt>
      <trkpt lat="42.2891" lon="3.27946">
        <ele>5.3</ele>
        <time>2024-11-10T14:39:05Z</time>
      </trkpt>
      <trkpt lat="42.2891" lon="3.27946">
        <ele>5.3</ele>
        <time>2024-11-10T14:39:06Z</time>
      </trkpt>
      <trkpt lat="42.2891" lon="3.27946">
        <ele>5.3</ele>
        <time>2024-11-10T14:39:07Z</time>
      </trkpt>
      <trkpt lat="42.2891" lon="3.27946">
        <ele>5.3</ele>
        <time>2024-11-10T14:39:08Z</time>
      </trkpt>
      <trkpt lat="42.2891" lon="3.27946">
        <ele>5.3</ele>
        <time>2024-11-10T14:39:09Z</time>
      </trkpt>
      <trkpt lat="42.2891" lon="3.27946">
        <ele>5.3</ele>
        <time>2024-11-10T14:39:10Z</time>
      </trkpt>
      <trkpt lat="42.2891" lon="3.27946">
        <ele>5.3</ele>
        <time>2024-11-10T14:39:11Z</time>
      </trkpt>
      <trkpt lat="42.2891" lon="3.27946">
        <ele>5.3</ele>
        <time>2024-11-10T14:39:12Z</time>
      </trkpt>
      <trkpt lat="42.2891" lon="3.27946">
        <ele>5.3</ele>
        <time>2024-11-10T14:39:13Z</time>
      </trkpt>
      <trkpt lat="42.2891" lon="3.27946">
        <ele>5.3</ele>
        <time>2024-11-10T14:39:14Z</time>
      </trkpt>
      <trkpt lat="42.2891" lon="3.27946">
        <ele>5.3</ele>
        <time>2024-11-10T14:39:15Z</time>
      </trkpt>
      <trkpt lat="42.2891" lon="3.27946">
        <ele>5.3</ele>
        <time>2024-11-10T14:39:16Z</time>
      </trkpt>
      <trkpt lat="42.2891" lon="3.27946">
        <ele>5.3</ele>
        <time>2024-11-10T14:39:17Z</time>
      </trkpt>
      <trkpt lat="42.2891" lon="3.27946">
        <ele>5.3</ele>
        <time>2024-11-10T14:39:18Z</time>
      </trkpt>
      <trkpt lat="42.2891" lon="3.27946">
        <ele>5.3</ele>
        <time>2024-11-10T14:39:19Z</time>
      </trkpt>
      <trkpt lat="42.2891" lon="3.27946">
        <ele>5.3</ele>
        <time>2024-11-10T14:39:20Z</time>
      </trkpt>
      <trkpt lat="42.2891" lon="3.27946">
        <ele>5.3</ele>
        <time>2024-11-10T14:39:21Z</time>
      </trkpt>
      <trkpt lat="42.2891" lon="3.27946">
        <ele>5.3</ele>
        <time>2024-11-10T14:39:22Z</time>
      </trkpt>
      <trkpt lat="42.2891" lon="3.27946">
        <ele>5.3</ele>
        <time>2024-11-10T14:39:23Z</time>
      </trkpt>
      <trkpt lat="42.2891" lon="3.27946">
        <ele>5.3</ele>
        <time>2024-11-10T14:39:24Z</time>
      </trkpt>
      <trkpt lat="42.2891" lon="3.27946">
        <ele>5.3</ele>
        <time>2024-11-10T14:39:25Z</time>
      </trkpt>
      <trkpt lat="42.2891" lon="3.27946">
        <ele>5.3</ele>
        <time>2024-11-10T14:39:26Z</time>
      </trkpt>
      <trkpt lat="42.2891" lon="3.27946">
        <ele>5.3</ele>
        <time>2024-11-10T14:39:27Z</time>
      </trkpt>
      <trkpt lat="42.2891" lon="3.27946">
        <ele>5.3</ele>
        <time>2024-11-10T14:39:28Z</time>
      </trkpt>
      <trkpt lat="42.2891" lon="3.27946">
        <ele>5.3</ele>
        <time>2024-11-10T14:39:29Z</time>
      </trkpt>
      <trkpt lat="42.2891" lon="3.27946">
        <ele>5.3</ele>
        <time>2024-11-10T14:39:30Z</time>
      </trkpt>
      <trkpt lat="42.2891" lon="3.27946">
        <ele>5.3</ele>
        <time>2024-11-10T14:39:31Z</time>
      </trkpt>
      <trkpt lat="42.2891" lon="3.27946">
        <ele>5.3</ele>
        <time>2024-11-10T14:39:32Z</time>
      </trkpt>
      <trkpt lat="42.2891" lon="3.27946">
        <ele>5.3</ele>
        <time>2024-11-10T14:39:33Z</time>
      </trkpt>
      <trkpt lat="42.2891" lon="3.27946">
        <ele>5.3</ele>
        <time>2024-11-10T14:39:34Z</time>
      </trkpt>
      <trkpt lat="42.2891" lon="3.27946">
        <ele>5.3</ele>
        <time>2024-11-10T14:39:35Z</time>
      </trkpt>
      <trkpt lat="42.2891" lon="3.27946">
        <ele>5.3</ele>
        <time>2024-11-10T14:39:36Z</time>
      </trkpt>
      <trkpt lat="42.2891" lon="3.27946">
        <ele>5.3</ele>
        <time>2024-11-10T14:39:37Z</time>
      </trkpt>
      <trkpt lat="42.2891" lon="3.27946">
        <ele>5.3</ele>
        <time>2024-11-10T14:39:38Z</time>
      </trkpt>
      <trkpt lat="42.2891" lon="3.27946">
        <ele>5.3</ele>
        <time>2024-11-10T14:39:39Z</time>
      </trkpt>
      <trkpt lat="42.2891" lon="3.27946">
        <ele>5.3</ele>
        <time>2024-11-10T14:39:40Z</time>
      </trkpt>
      <trkpt lat="42.2891" lon="3.27946">
        <ele>5.3</ele>
        <time>2024-11-10T14:39:41Z</time>
      </trkpt>
      <trkpt lat="42.2891" lon="3.27946">
        <ele>5.3</ele>
        <time>2024-11-10T14:39:42Z</time>
      </trkpt>
      <trkpt lat="42.2891" lon="3.27946">
        <ele>5.3</ele>
        <time>2024-11-10T14:39:43Z</time>
      </trkpt>
      <trkpt lat="42.2891" lon="3.27946">
        <ele>5.3</ele>
        <time>2024-11-10T14:39:44Z</time>
      </trkpt>
      <trkpt lat="42.2891" lon="3.27946">
        <ele>5.3</ele>
        <time>2024-11-10T14:39:45Z</time>
      </trkpt>
      <trkpt lat="42.2891" lon="3.27946">
        <ele>5.3</ele>
        <time>2024-11-10T14:39:46Z</time>
      </trkpt>
      <trkpt lat="42.2891" lon="3.27946">
        <ele>5.3</ele>
        <time>2024-11-10T14:39:47Z</time>
      </trkpt>
      <trkpt lat="42.2891" lon="3.27946">
        <ele>5.3</ele>
        <time>2024-11-10T14:39:48Z</time>
      </trkpt>
      <trkpt lat="42.2891" lon="3.27946">
        <ele>5.3</ele>
        <time>2024-11-10T14:39:49Z</time>
      </trkpt>
      <trkpt lat="42.2891" lon="3.27946">
        <ele>5.3</ele>
        <time>2024-11-10T14:39:50Z</time>
      </trkpt>
      <trkpt lat="42.2891" lon="3.27946">
        <ele>5.3</ele>
        <time>2024-11-10T14:39:51Z</time>
      </trkpt>
      <trkpt lat="42.2891" lon="3.27946">
        <ele>5.3</ele>
        <time>2024-11-10T14:39:52Z</time>
      </trkpt>
      <trkpt lat="42.2891" lon="3.27946">
        <ele>5.3</ele>
        <time>2024-11-10T14:39:53Z</time>
      </trkpt>
      <trkpt lat="42.2891" lon="3.27946">
        <ele>5.3</ele>
        <time>2024-11-10T14:39:54Z</time>
      </trkpt>
      <trkpt lat="42.2891" lon="3.27946">
        <ele>5.3</ele>
        <time>2024-11-10T14:39:55Z</time>
      </trkpt>
      <trkpt lat="42.2891" lon="3.27946">
        <ele>5.3</ele>
        <time>2024-11-10T14:39:56Z</time>
      </trkpt>
      <trkpt lat="42.2891" lon="3.27946">
        <ele>5.3</ele>
        <time>2024-11-10T14:39:57Z</time>
      </trkpt>
      <trkpt lat="42.2891" lon="3.27946">
        <ele>5.3</ele>
        <time>2024-11-10T14:39:58Z</time>
      </trkpt>
      <trkpt lat="42.2891" lon="3.27946">
        <ele>5.3</ele>
        <time>2024-11-10T14:39:59Z</time>
      </trkpt>
      <trkpt lat="42.2891" lon="3.27946">
        <ele>5.3</ele>
        <time>2024-11-10T14:40:00Z</time>
      </trkpt>
      <trkpt lat="42.2891" lon="3.27946">
        <ele>5.3</ele>
        <time>2024-11-10T14:40:01Z</time>
      </trkpt>
      <trkpt lat="42.2891" lon="3.27946">
        <ele>5.3</ele>
        <time>2024-11-10T14:40:02Z</time>
      </trkpt>
      <trkpt lat="42.2891" lon="3.27946">
        <ele>5.3</ele>
        <time>2024-11-10T14:40:03Z</time>
      </trkpt>
      <trkpt lat="42.2891" lon="3.27946">
        <ele>5.3</ele>
        <time>2024-11-10T14:40:04Z</time>
      </trkpt>
      <trkpt lat="42.2891" lon="3.27946">
        <ele>5.3</ele>
        <time>2024-11-10T14:40:05Z</time>
      </trkpt>
      <trkpt lat="42.2891" lon="3.27946">
        <ele>5.3</ele>
        <time>2024-11-10T14:40:06Z</time>
      </trkpt>
      <trkpt lat="42.2891" lon="3.27946">
        <ele>5.3</ele>
        <time>2024-11-10T14:40:07Z</time>
      </trkpt>
      <trkpt lat="42.2891" lon="3.27946">
        <ele>5.3</ele>
        <time>2024-11-10T14:40:08Z</time>
      </trkpt>
      <trkpt lat="42.2891" lon="3.27946">
        <ele>5.3</ele>
        <time>2024-11-10T14:40:09Z</time>
      </trkpt>
      <trkpt lat="42.2891" lon="3.27946">
        <ele>5.3</ele>
        <time>2024-11-10T14:40:10Z</time>
      </trkpt>
      <trkpt lat="42.2891" lon="3.27946">
        <ele>5.3</ele>
        <time>2024-11-10T14:40:11Z</time>
      </trkpt>
      <trkpt lat="42.2891" lon="3.27946">
        <ele>5.3</ele>
        <time>2024-11-10T14:40:12Z</time>
      </trkpt>
      <trkpt lat="42.2891" lon="3.27946">
        <ele>5.3</ele>
        <time>2024-11-10T14:40:13Z</time>
      </trkpt>
      <trkpt lat="42.2891" lon="3.27946">
        <ele>5.3</ele>
        <time>2024-11-10T14:40:14Z</time>
      </trkpt>
      <trkpt lat="42.2891" lon="3.27946">
        <ele>5.3</ele>
        <time>2024-11-10T14:40:15Z</time>
      </trkpt>
      <trkpt lat="42.2891" lon="3.27946">
        <ele>5.3</ele>
        <time>2024-11-10T14:40:16Z</time>
      </trkpt>
      <trkpt lat="42.2891" lon="3.27946">
        <ele>5.3</ele>
        <time>2024-11-10T14:40:17Z</time>
      </trkpt>
      <trkpt lat="42.2891" lon="3.27946">
        <ele>5.3</ele>
        <time>2024-11-10T14:40:18Z</time>
      </trkpt>
      <trkpt lat="42.2891" lon="3.27946">
        <ele>5.3</ele>
        <time>2024-11-10T14:40:19Z</time>
      </trkpt>
      <trkpt lat="42.2891" lon="3.27946">
        <ele>5.3</ele>
        <time>2024-11-10T14:40:20Z</time>
      </trkpt>
      <trkpt lat="42.2891" lon="3.27946">
        <ele>5.3</ele>
        <time>2024-11-10T14:40:21Z</time>
      </trkpt>
      <trkpt lat="42.2891" lon="3.27946">
        <ele>5.3</ele>
        <time>2024-11-10T14:40:22Z</time>
      </trkpt>
      <trkpt lat="42.2891" lon="3.27946">
        <ele>5.3</ele>
        <time>2024-11-10T14:40:23Z</time>
      </trkpt>
      <trkpt lat="42.2891" lon="3.27946">
        <ele>5.3</ele>
        <time>2024-11-10T14:40:24Z</time>
      </trkpt>
      <trkpt lat="42.2891" lon="3.27946">
        <ele>5.3</ele>
        <time>2024-11-10T14:40:25Z</time>
      </trkpt>
      <trkpt lat="42.2891" lon="3.27946">
        <ele>5.3</ele>
        <time>2024-11-10T14:40:26Z</time>
      </trkpt>
      <trkpt lat="42.2891" lon="3.27946">
        <ele>5.3</ele>
        <time>2024-11-10T14:40:27Z</time>
      </trkpt>
      <trkpt lat="42.2891" lon="3.27946">
        <ele>5.3</ele>
        <time>2024-11-10T14:40:28Z</time>
      </trkpt>
      <trkpt lat="42.2891" lon="3.27946">
        <ele>5.3</ele>
        <time>2024-11-10T14:40:29Z</time>
      </trkpt>
      <trkpt lat="42.2891" lon="3.27946">
        <ele>5.3</ele>
        <time>2024-11-10T14:40:30Z</time>
      </trkpt>
      <trkpt lat="42.2891" lon="3.27946">
        <ele>5.3</ele>
        <time>2024-11-10T14:40:31Z</time>
      </trkpt>
      <trkpt lat="42.2891" lon="3.27946">
        <ele>5.3</ele>
        <time>2024-11-10T14:40:32Z</time>
      </trkpt>
      <trkpt lat="42.2891" lon="3.27946">
        <ele>5.3</ele>
        <time>2024-11-10T14:40:33Z</time>
      </trkpt>
      <trkpt lat="42.2891" lon="3.27946">
        <ele>5.3</ele>
        <time>2024-11-10T14:40:34Z</time>
      </trkpt>
      <trkpt lat="42.2891" lon="3.27946">
        <ele>5.3</ele>
        <time>2024-11-10T14:40:35Z</time>
      </trkpt>
      <trkpt lat="42.2891" lon="3.27946">
        <ele>5.3</ele>
        <time>2024-11-10T14:40:36Z</time>
      </trkpt>
      <trkpt lat="42.2891" lon="3.27946">
        <ele>5.3</ele>
        <time>2024-11-10T14:40:37Z</time>
      </trkpt>
      <trkpt lat="42.2891" lon="3.27946">
        <ele>5.3</ele>
        <time>2024-11-10T14:40:38Z</time>
      </trkpt>
      <trkpt lat="42.2891" lon="3.27946">
        <ele>5.3</ele>
        <time>2024-11-10T14:40:39Z</time>
      </trkpt>
      <trkpt lat="42.2891" lon="3.27946">
        <ele>5.3</ele>
        <time>2024-11-10T14:40:40Z</time>
      </trkpt>
      <trkpt lat="42.2891" lon="3.27946">
        <ele>5.3</ele>
        <time>2024-11-10T14:40:41Z</time>
      </trkpt>
      <trkpt lat="42.2891" lon="3.27946">
        <ele>5.3</ele>
        <time>2024-11-10T14:40:42Z</time>
      </trkpt>
      <trkpt lat="42.2891" lon="3.27946">
        <ele>5.3</ele>
        <time>2024-11-10T14:40:43Z</time>
      </trkpt>
      <trkpt lat="42.2891" lon="3.27946">
        <ele>5.3</ele>
        <time>2024-11-10T14:40:44Z</time>
      </trkpt>
      <trkpt lat="42.2891" lon="3.27946">
        <ele>5.3</ele>
        <time>2024-11-10T14:40:45Z</time>
      </trkpt>
      <trkpt lat="42.2891" lon="3.27946">
        <ele>5.3</ele>
        <time>2024-11-10T14:40:46Z</time>
      </trkpt>
      <trkpt lat="42.2891" lon="3.27946">
        <ele>5.3</ele>
        <time>2024-11-10T14:40:47Z</time>
      </trkpt>
      <trkpt lat="42.2891" lon="3.27946">
        <ele>5.3</ele>
        <time>2024-11-10T14:40:48Z</time>
      </trkpt>
      <trkpt lat="42.2891" lon="3.27946">
        <ele>5.3</ele>
        <time>2024-11-10T14:40:49Z</time>
      </trkpt>
      <trkpt lat="42.2891" lon="3.27946">
        <ele>5.3</ele>
        <time>2024-11-10T14:40:50Z</time>
      </trkpt>
      <trkpt lat="42.2891" lon="3.27946">
        <ele>5.3</ele>
        <time>2024-11-10T14:40:51Z</time>
      </trkpt>
      <trkpt lat="42.2891" lon="3.27946">
        <ele>5.3</ele>
        <time>2024-11-10T14:40:52Z</time>
      </trkpt>
      <trkpt lat="42.2891" lon="3.27946">
        <ele>5.3</ele>
        <time>2024-11-10T14:40:53Z</time>
      </trkpt>
      <trkpt lat="42.2891" lon="3.27946">
        <ele>5.3</ele>
        <time>2024-11-10T14:40:54Z</time>
      </trkpt>
      <trkpt lat="42.2891" lon="3.27946">
        <ele>5.3</ele>
        <time>2024-11-10T14:40:55Z</time>
      </trkpt>
      <trkpt lat="42.2891" lon="3.27946">
        <ele>5.3</ele>
        <time>2024-11-10T14:40:56Z</time>
      </trkpt>
      <trkpt lat="42.2891" lon="3.27946">
        <ele>5.3</ele>
        <time>2024-11-10T14:40:57Z</time>
      </trkpt>
      <trkpt lat="42.2891" lon="3.27946">
        <ele>5.3</ele>
        <time>2024-11-10T14:40:58Z</time>
      </trkpt>
      <trkpt lat="42.2891" lon="3.27946">
        <ele>5.3</ele>
        <time>2024-11-10T14:40:59Z</time>
      </trkpt>
      <trkpt lat="42.2891" lon="3.27946">
        <ele>5.3</ele>
        <time>2024-11-10T14:41:00Z</time>
      </trkpt>
      <trkpt lat="42.2891" lon="3.27946">
        <ele>5.3</ele>
        <time>2024-11-10T14:41:01Z</time>
      </trkpt>
      <trkpt lat="42.2891" lon="3.27946">
        <ele>5.3</ele>
        <time>2024-11-10T14:41:02Z</time>
      </trkpt>
      <trkpt lat="42.2891" lon="3.27946">
        <ele>5.3</ele>
        <time>2024-11-10T14:41:03Z</time>
      </trkpt>
      <trkpt lat="42.2891" lon="3.27946">
        <ele>5.3</ele>
        <time>2024-11-10T14:41:04Z</time>
      </trkpt>
      <trkpt lat="42.2891" lon="3.27946">
        <ele>5.3</ele>
        <time>2024-11-10T14:41:05Z</time>
      </trkpt>
      <trkpt lat="42.2891" lon="3.27946">
        <ele>5.3</ele>
        <time>2024-11-10T14:41:06Z</time>
      </trkpt>
      <trkpt lat="42.2891" lon="3.27946">
        <ele>5.3</ele>
        <time>2024-11-10T14:41:07Z</time>
      </trkpt>
      <trkpt lat="42.2891" lon="3.27946">
        <ele>5.3</ele>
        <time>2024-11-10T14:41:08Z</time>
      </trkpt>
      <trkpt lat="42.2891" lon="3.27946">
        <ele>5.3</ele>
        <time>2024-11-10T14:41:09Z</time>
      </trkpt>
      <trkpt lat="42.2891" lon="3.27946">
        <ele>5.3</ele>
        <time>2024-11-10T14:41:10Z</time>
      </trkpt>
      <trkpt lat="42.2891" lon="3.27946">
        <ele>5.3</ele>
        <time>2024-11-10T14:41:11Z</time>
      </trkpt>
      <trkpt lat="42.2891" lon="3.27946">
        <ele>5.3</ele>
        <time>2024-11-10T14:41:12Z</time>
      </trkpt>
      <trkpt lat="42.2891" lon="3.27946">
        <ele>5.3</ele>
        <time>2024-11-10T14:41:13Z</time>
      </trkpt>
      <trkpt lat="42.2891" lon="3.27946">
        <ele>5.3</ele>
        <time>2024-11-10T14:41:14Z</time>
      </trkpt>
      <trkpt lat="42.2891" lon="3.27946">
        <ele>5.3</ele>
        <time>2024-11-10T14:41:15Z</time>
      </trkpt>
      <trkpt lat="42.2891" lon="3.27946">
        <ele>5.3</ele>
        <time>2024-11-10T14:41:16Z</time>
      </trkpt>
      <trkpt lat="42.2891" lon="3.27946">
        <ele>5.3</ele>
        <time>2024-11-10T14:41:17Z</time>
      </trkpt>
      <trkpt lat="42.2891" lon="3.27946">
        <ele>5.3</ele>
        <time>2024-11-10T14:41:18Z</time>
      </trkpt>
      <trkpt lat="42.2891" lon="3.27946">
        <ele>5.3</ele>
        <time>2024-11-10T14:41:19Z</time>
      </trkpt>
      <trkpt lat="42.2891" lon="3.27946">
        <ele>5.3</ele>
        <time>2024-11-10T14:41:20Z</time>
      </trkpt>
      <trkpt lat="42.2891" lon="3.27946">
        <ele>5.3</ele>
        <time>2024-11-10T14:41:21Z</time>
      </trkpt>
      <trkpt lat="42.2891" lon="3.27946">
        <ele>5.3</ele>
        <time>2024-11-10T14:41:22Z</time>
      </trkpt>
      <trkpt lat="42.2891" lon="3.27946">
        <ele>5.3</ele>
        <time>2024-11-10T14:41:23Z</time>
      </trkpt>
      <trkpt lat="42.2891" lon="3.27946">
        <ele>5.3</ele>
        <time>2024-11-10T14:41:24Z</time>
      </trkpt>
      <trkpt lat="42.2891" lon="3.27946">
        <ele>5.3</ele>
        <time>2024-11-10T14:41:25Z</time>
      </trkpt>
      <trkpt lat="42.2891" lon="3.27946">
        <ele>5.3</ele>
        <time>2024-11-10T14:41:26Z</time>
      </trkpt>
      <trkpt lat="42.2891" lon="3.27946">
        <ele>5.3</ele>
        <time>2024-11-10T14:41:27Z</time>
      </trkpt>
      <trkpt lat="42.2891" lon="3.27946">
        <ele>5.3</ele>
        <time>2024-11-10T14:41:28Z</time>
      </trkpt>
      <trkpt lat="42.2891" lon="3.27946">
        <ele>5.3</ele>
        <time>2024-11-10T14:41:29Z</time>
      </trkpt>
      <trkpt lat="42.2891" lon="3.27946">
        <ele>5.3</ele>
        <time>2024-11-10T14:41:30Z</time>
      </trkpt>
      <trkpt lat="42.2891" lon="3.27945">
        <ele>5.3</ele>
        <time>2024-11-10T14:41:31Z</time>
      </trkpt>
      <trkpt lat="42.2891" lon="3.27945">
        <ele>5.3</ele>
        <time>2024-11-10T14:41:32Z</time>
      </trkpt>
      <trkpt lat="42.2891" lon="3.27945">
        <ele>5.3</ele>
        <time>2024-11-10T14:41:33Z</time>
      </trkpt>
      <trkpt lat="42.2891" lon="3.27945">
        <ele>5.3</ele>
        <time>2024-11-10T14:41:34Z</time>
      </trkpt>
      <trkpt lat="42.2891" lon="3.27945">
        <ele>5.3</ele>
        <time>2024-11-10T14:41:35Z</time>
      </trkpt>
      <trkpt lat="42.2891" lon="3.27945">
        <ele>5.3</ele>
        <time>2024-11-10T14:41:36Z</time>
      </trkpt>
      <trkpt lat="42.2891" lon="3.27945">
        <ele>5.3</ele>
        <time>2024-11-10T14:41:37Z</time>
      </trkpt>
      <trkpt lat="42.2891" lon="3.27945">
        <ele>5.3</ele>
        <time>2024-11-10T14:41:38Z</time>
      </trkpt>
      <trkpt lat="42.2891" lon="3.27945">
        <ele>5.3</ele>
        <time>2024-11-10T14:41:39Z</time>
      </trkpt>
      <trkpt lat="42.2891" lon="3.27945">
        <ele>5.3</ele>
        <time>2024-11-10T14:41:40Z</time>
      </trkpt>
      <trkpt lat="42.2891" lon="3.27945">
        <ele>5.3</ele>
        <time>2024-11-10T14:41:41Z</time>
      </trkpt>
      <trkpt lat="42.2891" lon="3.27945">
        <ele>5.3</ele>
        <time>2024-11-10T14:41:42Z</time>
      </trkpt>
      <trkpt lat="42.2891" lon="3.27945">
        <ele>5.3</ele>
        <time>2024-11-10T14:41:43Z</time>
      </trkpt>
      <trkpt lat="42.2891" lon="3.27945">
        <ele>5.3</ele>
        <time>2024-11-10T14:41:44Z</time>
      </trkpt>
      <trkpt lat="42.2891" lon="3.27945">
        <ele>5.3</ele>
        <time>2024-11-10T14:41:45Z</time>
      </trkpt>
      <trkpt lat="42.2891" lon="3.27945">
        <ele>5.3</ele>
        <time>2024-11-10T14:41:46Z</time>
      </trkpt>
      <trkpt lat="42.2891" lon="3.27945">
        <ele>5.3</ele>
        <time>2024-11-10T14:41:47Z</time>
      </trkpt>
      <trkpt lat="42.2891" lon="3.27945">
        <ele>5.3</ele>
        <time>2024-11-10T14:41:48Z</time>
      </trkpt>
      <trkpt lat="42.2891" lon="3.27945">
        <ele>5.3</ele>
        <time>2024-11-10T14:41:49Z</time>
      </trkpt>
      <trkpt lat="42.2891" lon="3.27945">
        <ele>5.3</ele>
        <time>2024-11-10T14:41:50Z</time>
      </trkpt>
      <trkpt lat="42.2891" lon="3.27945">
        <ele>5.3</ele>
        <time>2024-11-10T14:41:51Z</time>
      </trkpt>
      <trkpt lat="42.2891" lon="3.27945">
        <ele>5.3</ele>
        <time>2024-11-10T14:41:52Z</time>
      </trkpt>
      <trkpt lat="42.2891" lon="3.27945">
        <ele>5.3</ele>
        <time>2024-11-10T14:41:53Z</time>
      </trkpt>
      <trkpt lat="42.2891" lon="3.27945">
        <ele>5.3</ele>
        <time>2024-11-10T14:41:54Z</time>
      </trkpt>
      <trkpt lat="42.2891" lon="3.27945">
        <ele>5.3</ele>
        <time>2024-11-10T14:41:55Z</time>
      </trkpt>
      <trkpt lat="42.2891" lon="3.27945">
        <ele>5.3</ele>
        <time>2024-11-10T14:41:56Z</time>
      </trkpt>
      <trkpt lat="42.2891" lon="3.27945">
        <ele>5.3</ele>
        <time>2024-11-10T14:41:57Z</time>
      </trkpt>
      <trkpt lat="42.2891" lon="3.27945">
        <ele>5.3</ele>
        <time>2024-11-10T14:41:58Z</time>
      </trkpt>
      <trkpt lat="42.2891" lon="3.27945">
        <ele>5.3</ele>
        <time>2024-11-10T14:41:59Z</time>
      </trkpt>
      <trkpt lat="42.2891" lon="3.27945">
        <ele>5.3</ele>
        <time>2024-11-10T14:42:00Z</time>
      </trkpt>
      <trkpt lat="42.2891" lon="3.27945">
        <ele>5.3</ele>
        <time>2024-11-10T14:42:01Z</time>
      </trkpt>
      <trkpt lat="42.2891" lon="3.27945">
        <ele>5.3</ele>
        <time>2024-11-10T14:42:02Z</time>
      </trkpt>
      <trkpt lat="42.2891" lon="3.27945">
        <ele>5.3</ele>
        <time>2024-11-10T14:42:03Z</time>
      </trkpt>
      <trkpt lat="42.2891" lon="3.27945">
        <ele>5.3</ele>
        <time>2024-11-10T14:42:04Z</time>
      </trkpt>
      <trkpt lat="42.2891" lon="3.27945">
        <ele>5.3</ele>
        <time>2024-11-10T14:42:05Z</time>
      </trkpt>
      <trkpt lat="42.2891" lon="3.27945">
        <ele>5.3</ele>
        <time>2024-11-10T14:42:06Z</time>
      </trkpt>
      <trkpt lat="42.2891" lon="3.27945">
        <ele>5.3</ele>
        <time>2024-11-10T14:42:07Z</time>
      </trkpt>
      <trkpt lat="42.2891" lon="3.27945">
        <ele>5.3</ele>
        <time>2024-11-10T14:42:08Z</time>
      </trkpt>
      <trkpt lat="42.2891" lon="3.27945">
        <ele>5.3</ele>
        <time>2024-11-10T14:42:09Z</time>
      </trkpt>
      <trkpt lat="42.2891" lon="3.27945">
        <ele>5.3</ele>
        <time>2024-11-10T14:42:10Z</time>
      </trkpt>
      <trkpt lat="42.2891" lon="3.27945">
        <ele>5.3</ele>
        <time>2024-11-10T14:42:11Z</time>
      </trkpt>
      <trkpt lat="42.2891" lon="3.27945">
        <ele>5.3</ele>
        <time>2024-11-10T14:42:12Z</time>
      </trkpt>
      <trkpt lat="42.2891" lon="3.27945">
        <ele>5.3</ele>
        <time>2024-11-10T14:42:13Z</time>
      </trkpt>
      <trkpt lat="42.2891" lon="3.27945">
        <ele>5.3</ele>
        <time>2024-11-10T14:42:14Z</time>
      </trkpt>
      <trkpt lat="42.2891" lon="3.27945">
        <ele>5.3</ele>
        <time>2024-11-10T14:42:15Z</time>
      </trkpt>
      <trkpt lat="42.2891" lon="3.27945">
        <ele>5.3</ele>
        <time>2024-11-10T14:42:16Z</time>
      </trkpt>
      <trkpt lat="42.2891" lon="3.27945">
        <ele>5.3</ele>
        <time>2024-11-10T14:42:17Z</time>
      </trkpt>
      <trkpt lat="42.2891" lon="3.27945">
        <ele>5.3</ele>
        <time>2024-11-10T14:42:18Z</time>
      </trkpt>
      <trkpt lat="42.2891" lon="3.27945">
        <ele>5.3</ele>
        <time>2024-11-10T14:42:19Z</time>
      </trkpt>
      <trkpt lat="42.2891" lon="3.27945">
        <ele>5.3</ele>
        <time>2024-11-10T14:42:20Z</time>
      </trkpt>
      <trkpt lat="42.2891" lon="3.27945">
        <ele>5.3</ele>
        <time>2024-11-10T14:42:21Z</time>
      </trkpt>
      <trkpt lat="42.2891" lon="3.27945">
        <ele>5.3</ele>
        <time>2024-11-10T14:42:22Z</time>
      </trkpt>
      <trkpt lat="42.2891" lon="3.27945">
        <ele>5.3</ele>
        <time>2024-11-10T14:42:23Z</time>
      </trkpt>
      <trkpt lat="42.2891" lon="3.27945">
        <ele>5.3</ele>
        <time>2024-11-10T14:42:24Z</time>
      </trkpt>
      <trkpt lat="42.2891" lon="3.27945">
        <ele>5.3</ele>
        <time>2024-11-10T14:42:25Z</time>
      </trkpt>
      <trkpt lat="42.2891" lon="3.27945">
        <ele>5.3</ele>
        <time>2024-11-10T14:42:26Z</time>
      </trkpt>
      <trkpt lat="42.2891" lon="3.27945">
        <ele>5.3</ele>
        <time>2024-11-10T14:42:27Z</time>
      </trkpt>
      <trkpt lat="42.2891" lon="3.27945">
        <ele>5.3</ele>
        <time>2024-11-10T14:42:28Z</time>
      </trkpt>
      <trkpt lat="42.2891" lon="3.27945">
        <ele>5.3</ele>
        <time>2024-11-10T14:42:29Z</time>
      </trkpt>
      <trkpt lat="42.2891" lon="3.27945">
        <ele>5.3</ele>
        <time>2024-11-10T14:42:30Z</time>
      </trkpt>
      <trkpt lat="42.2891" lon="3.27945">
        <ele>5.3</ele>
        <time>2024-11-10T14:42:31Z</time>
      </trkpt>
      <trkpt lat="42.2891" lon="3.27945">
        <ele>5.3</ele>
        <time>2024-11-10T14:42:32Z</time>
      </trkpt>
      <trkpt lat="42.2891" lon="3.27945">
        <ele>5.3</ele>
        <time>2024-11-10T14:42:33Z</time>
      </trkpt>
      <trkpt lat="42.2891" lon="3.27945">
        <ele>5.3</ele>
        <time>2024-11-10T14:42:34Z</time>
      </trkpt>
      <trkpt lat="42.2891" lon="3.27945">
        <ele>5.3</ele>
        <time>2024-11-10T14:42:35Z</time>
      </trkpt>
      <trkpt lat="42.2891" lon="3.27945">
        <ele>5.3</ele>
        <time>2024-11-10T14:42:36Z</time>
      </trkpt>
      <trkpt lat="42.2891" lon="3.27945">
        <ele>5.3</ele>
        <time>2024-11-10T14:42:37Z</time>
      </trkpt>
      <trkpt lat="42.2891" lon="3.27945">
        <ele>5.3</ele>
        <time>2024-11-10T14:42:38Z</time>
      </trkpt>
      <trkpt lat="42.2891" lon="3.27945">
        <ele>5.3</ele>
        <time>2024-11-10T14:42:39Z</time>
      </trkpt>
      <trkpt lat="42.2891" lon="3.27945">
        <ele>5.3</ele>
        <time>2024-11-10T14:42:40Z</time>
      </trkpt>
      <trkpt lat="42.2891" lon="3.27945">
        <ele>5.3</ele>
        <time>2024-11-10T14:42:41Z</time>
      </trkpt>
      <trkpt lat="42.2891" lon="3.27945">
        <ele>5.3</ele>
        <time>2024-11-10T14:42:42Z</time>
      </trkpt>
      <trkpt lat="42.2891" lon="3.27945">
        <ele>5.3</ele>
        <time>2024-11-10T14:42:43Z</time>
      </trkpt>
      <trkpt lat="42.2891" lon="3.27945">
        <ele>5.3</ele>
        <time>2024-11-10T14:42:44Z</time>
      </trkpt>
      <trkpt lat="42.2891" lon="3.27945">
        <ele>5.3</ele>
        <time>2024-11-10T14:42:45Z</time>
      </trkpt>
      <trkpt lat="42.2891" lon="3.27945">
        <ele>5.3</ele>
        <time>2024-11-10T14:42:46Z</time>
      </trkpt>
      <trkpt lat="42.2891" lon="3.27945">
        <ele>5.3</ele>
        <time>2024-11-10T14:42:47Z</time>
      </trkpt>
      <trkpt lat="42.2891" lon="3.27945">
        <ele>5.3</ele>
        <time>2024-11-10T14:42:48Z</time>
      </trkpt>
      <trkpt lat="42.2891" lon="3.27945">
        <ele>5.3</ele>
        <time>2024-11-10T14:42:49Z</time>
      </trkpt>
      <trkpt lat="42.2891" lon="3.27945">
        <ele>5.3</ele>
        <time>2024-11-10T14:42:50Z</time>
      </trkpt>
      <trkpt lat="42.2891" lon="3.27945">
        <ele>5.3</ele>
        <time>2024-11-10T14:42:51Z</time>
      </trkpt>
      <trkpt lat="42.2891" lon="3.27945">
        <ele>5.3</ele>
        <time>2024-11-10T14:42:52Z</time>
      </trkpt>
      <trkpt lat="42.2891" lon="3.27945">
        <ele>5.3</ele>
        <time>2024-11-10T14:42:53Z</time>
      </trkpt>
      <trkpt lat="42.2891" lon="3.27945">
        <ele>5.3</ele>
        <time>2024-11-10T14:42:54Z</time>
      </trkpt>
      <trkpt lat="42.2891" lon="3.27945">
        <ele>5.3</ele>
        <time>2024-11-10T14:42:55Z</time>
      </trkpt>
      <trkpt lat="42.2891" lon="3.27945">
        <ele>5.3</ele>
        <time>2024-11-10T14:42:56Z</time>
      </trkpt>
      <trkpt lat="42.2891" lon="3.27945">
        <ele>5.3</ele>
        <time>2024-11-10T14:42:57Z</time>
      </trkpt>
      <trkpt lat="42.2891" lon="3.27945">
        <ele>5.3</ele>
        <time>2024-11-10T14:42:58Z</time>
      </trkpt>
      <trkpt lat="42.2891" lon="3.27945">
        <ele>5.3</ele>
        <time>2024-11-10T14:42:59Z</time>
      </trkpt>
      <trkpt lat="42.2891" lon="3.27945">
        <ele>5.3</ele>
        <time>2024-11-10T14:43:00Z</time>
      </trkpt>
      <trkpt lat="42.2891" lon="3.27945">
        <ele>5.3</ele>
        <time>2024-11-10T14:43:01Z</time>
      </trkpt>
      <trkpt lat="42.2891" lon="3.27945">
        <ele>5.3</ele>
        <time>2024-11-10T14:43:02Z</time>
      </trkpt>
      <trkpt lat="42.2891" lon="3.27945">
        <ele>5.3</ele>
        <time>2024-11-10T14:43:03Z</time>
      </trkpt>
      <trkpt lat="42.2891" lon="3.27945">
        <ele>5.3</ele>
        <time>2024-11-10T14:43:04Z</time>
      </trkpt>
      <trkpt lat="42.2891" lon="3.27945">
        <ele>5.3</ele>
        <time>2024-11-10T14:43:05Z</time>
      </trkpt>
      <trkpt lat="42.2891" lon="3.27945">
        <ele>5.3</ele>
        <time>2024-11-10T14:43:06Z</time>
      </trkpt>
      <trkpt lat="42.2891" lon="3.27945">
        <ele>5.3</ele>
        <time>2024-11-10T14:43:07Z</time>
      </trkpt>
      <trkpt lat="42.2891" lon="3.27945">
        <ele>5.3</ele>
        <time>2024-11-10T14:43:08Z</time>
      </trkpt>
      <trkpt lat="42.2891" lon="3.27945">
        <ele>5.3</ele>
        <time>2024-11-10T14:43:09Z</time>
      </trkpt>
      <trkpt lat="42.2891" lon="3.27945">
        <ele>5.3</ele>
        <time>2024-11-10T14:43:10Z</time>
      </trkpt>
      <trkpt lat="42.2891" lon="3.27945">
        <ele>5.3</ele>
        <time>2024-11-10T14:43:11Z</time>
      </trkpt>
      <trkpt lat="42.2891" lon="3.27945">
        <ele>5.3</ele>
        <time>2024-11-10T14:43:12Z</time>
      </trkpt>
      <trkpt lat="42.2891" lon="3.27945">
        <ele>5.3</ele>
        <time>2024-11-10T14:43:13Z</time>
      </trkpt>
      <trkpt lat="42.2891" lon="3.27945">
        <ele>5.3</ele>
        <time>2024-11-10T14:43:14Z</time>
      </trkpt>
      <trkpt lat="42.2891" lon="3.27945">
        <ele>5.3</ele>
        <time>2024-11-10T14:43:15Z</time>
      </trkpt>
      <trkpt lat="42.2891" lon="3.27945">
        <ele>5.3</ele>
        <time>2024-11-10T14:43:16Z</time>
      </trkpt>
      <trkpt lat="42.2891" lon="3.27945">
        <ele>5.3</ele>
        <time>2024-11-10T14:43:17Z</time>
      </trkpt>
      <trkpt lat="42.2891" lon="3.27945">
        <ele>5.3</ele>
        <time>2024-11-10T14:43:18Z</time>
      </trkpt>
      <trkpt lat="42.2891" lon="3.27945">
        <ele>5.3</ele>
        <time>2024-11-10T14:43:19Z</time>
      </trkpt>
      <trkpt lat="42.2891" lon="3.27945">
        <ele>5.3</ele>
        <time>2024-11-10T14:43:20Z</time>
      </trkpt>
      <trkpt lat="42.2891" lon="3.27945">
        <ele>5.3</ele>
        <time>2024-11-10T14:43:21Z</time>
      </trkpt>
      <trkpt lat="42.2891" lon="3.27945">
        <ele>5.3</ele>
        <time>2024-11-10T14:43:22Z</time>
      </trkpt>
      <trkpt lat="42.2891" lon="3.27945">
        <ele>5.3</ele>
        <time>2024-11-10T14:43:23Z</time>
      </trkpt>
      <trkpt lat="42.2891" lon="3.27945">
        <ele>5.3</ele>
        <time>2024-11-10T14:43:24Z</time>
      </trkpt>
      <trkpt lat="42.2891" lon="3.27945">
        <ele>5.3</ele>
        <time>2024-11-10T14:43:25Z</time>
      </trkpt>
      <trkpt lat="42.2891" lon="3.27945">
        <ele>5.3</ele>
        <time>2024-11-10T14:43:26Z</time>
      </trkpt>
      <trkpt lat="42.2891" lon="3.27945">
        <ele>5.3</ele>
        <time>2024-11-10T14:43:27Z</time>
      </trkpt>
      <trkpt lat="42.2891" lon="3.27945">
        <ele>5.3</ele>
        <time>2024-11-10T14:43:28Z</time>
      </trkpt>
      <trkpt lat="42.2891" lon="3.27945">
        <ele>5.3</ele>
        <time>2024-11-10T14:43:29Z</time>
      </trkpt>
      <trkpt lat="42.2891" lon="3.27945">
        <ele>5.3</ele>
        <time>2024-11-10T14:43:30Z</time>
      </trkpt>
      <trkpt lat="42.2891" lon="3.27945">
        <ele>5.3</ele>
        <time>2024-11-10T14:43:31Z</time>
      </trkpt>
      <trkpt lat="42.2891" lon="3.27945">
        <ele>5.3</ele>
        <time>2024-11-10T14:43:32Z</time>
      </trkpt>
      <trkpt lat="42.2891" lon="3.27945">
        <ele>5.3</ele>
        <time>2024-11-10T14:43:33Z</time>
      </trkpt>
      <trkpt lat="42.2891" lon="3.27945">
        <ele>5.3</ele>
        <time>2024-11-10T14:43:34Z</time>
      </trkpt>
      <trkpt lat="42.2891" lon="3.27945">
        <ele>5.3</ele>
        <time>2024-11-10T14:43:35Z</time>
      </trkpt>
      <trkpt lat="42.2891" lon="3.27945">
        <ele>5.3</ele>
        <time>2024-11-10T14:43:36Z</time>
      </trkpt>
      <trkpt lat="42.2891" lon="3.27945">
        <ele>5.3</ele>
        <time>2024-11-10T14:43:37Z</time>
      </trkpt>
      <trkpt lat="42.2891" lon="3.27945">
        <ele>5.3</ele>
        <time>2024-11-10T14:43:38Z</time>
      </trkpt>
      <trkpt lat="42.2891" lon="3.27945">
        <ele>5.3</ele>
        <time>2024-11-10T14:43:39Z</time>
      </trkpt>
      <trkpt lat="42.2891" lon="3.27945">
        <ele>5.3</ele>
        <time>2024-11-10T14:43:40Z</time>
      </trkpt>
      <trkpt lat="42.2891" lon="3.27945">
        <ele>5.3</ele>
        <time>2024-11-10T14:43:41Z</time>
      </trkpt>
      <trkpt lat="42.2891" lon="3.27945">
        <ele>5.3</ele>
        <time>2024-11-10T14:43:42Z</time>
      </trkpt>
      <trkpt lat="42.2891" lon="3.27945">
        <ele>5.3</ele>
        <time>2024-11-10T14:43:43Z</time>
      </trkpt>
      <trkpt lat="42.2891" lon="3.27945">
        <ele>5.3</ele>
        <time>2024-11-10T14:43:44Z</time>
      </trkpt>
      <trkpt lat="42.2891" lon="3.27945">
        <ele>5.3</ele>
        <time>2024-11-10T14:43:45Z</time>
      </trkpt>
      <trkpt lat="42.2891" lon="3.27945">
        <ele>5.3</ele>
        <time>2024-11-10T14:43:46Z</time>
      </trkpt>
      <trkpt lat="42.2891" lon="3.27945">
        <ele>5.3</ele>
        <time>2024-11-10T14:43:47Z</time>
      </trkpt>
      <trkpt lat="42.2891" lon="3.27945">
        <ele>5.3</ele>
        <time>2024-11-10T14:43:48Z</time>
      </trkpt>
      <trkpt lat="42.2891" lon="3.27945">
        <ele>5.3</ele>
        <time>2024-11-10T14:43:49Z</time>
      </trkpt>
      <trkpt lat="42.2891" lon="3.27945">
        <ele>5.3</ele>
        <time>2024-11-10T14:43:50Z</time>
      </trkpt>
      <trkpt lat="42.2891" lon="3.27945">
        <ele>5.3</ele>
        <time>2024-11-10T14:43:51Z</time>
      </trkpt>
      <trkpt lat="42.2891" lon="3.27945">
        <ele>5.3</ele>
        <time>2024-11-10T14:43:52Z</time>
      </trkpt>
      <trkpt lat="42.2891" lon="3.27945">
        <ele>5.3</ele>
        <time>2024-11-10T14:43:53Z</time>
      </trkpt>
      <trkpt lat="42.2891" lon="3.27945">
        <ele>5.3</ele>
        <time>2024-11-10T14:43:54Z</time>
      </trkpt>
      <trkpt lat="42.2891" lon="3.27945">
        <ele>5.3</ele>
        <time>2024-11-10T14:43:55Z</time>
      </trkpt>
      <trkpt lat="42.2891" lon="3.27945">
        <ele>5.3</ele>
        <time>2024-11-10T14:43:56Z</time>
      </trkpt>
      <trkpt lat="42.2891" lon="3.27945">
        <ele>5.3</ele>
        <time>2024-11-10T14:43:57Z</time>
      </trkpt>
      <trkpt lat="42.2891" lon="3.27945">
        <ele>5.3</ele>
        <time>2024-11-10T14:43:58Z</time>
      </trkpt>
      <trkpt lat="42.2891" lon="3.27945">
        <ele>5.3</ele>
        <time>2024-11-10T14:43:59Z</time>
      </trkpt>
      <trkpt lat="42.2891" lon="3.27945">
        <ele>5.3</ele>
        <time>2024-11-10T14:44:00Z</time>
      </trkpt>
      <trkpt lat="42.2891" lon="3.27945">
        <ele>5.3</ele>
        <time>2024-11-10T14:44:01Z</time>
      </trkpt>
      <trkpt lat="42.2891" lon="3.27945">
        <ele>5.3</ele>
        <time>2024-11-10T14:44:02Z</time>
      </trkpt>
      <trkpt lat="42.2891" lon="3.27945">
        <ele>5.3</ele>
        <time>2024-11-10T14:44:03Z</time>
      </trkpt>
      <trkpt lat="42.2891" lon="3.27945">
        <ele>5.3</ele>
        <time>2024-11-10T14:44:04Z</time>
      </trkpt>
      <trkpt lat="42.2891" lon="3.27945">
        <ele>5.3</ele>
        <time>2024-11-10T14:44:05Z</time>
      </trkpt>
      <trkpt lat="42.2891" lon="3.27945">
        <ele>5.3</ele>
        <time>2024-11-10T14:44:06Z</time>
      </trkpt>
      <trkpt lat="42.2891" lon="3.27945">
        <ele>5.3</ele>
        <time>2024-11-10T14:44:07Z</time>
      </trkpt>
      <trkpt lat="42.2891" lon="3.27945">
        <ele>5.3</ele>
        <time>2024-11-10T14:44:08Z</time>
      </trkpt>
      <trkpt lat="42.2891" lon="3.27945">
        <ele>5.3</ele>
        <time>2024-11-10T14:44:09Z</time>
      </trkpt>
      <trkpt lat="42.2891" lon="3.27945">
        <ele>5.3</ele>
        <time>2024-11-10T14:44:10Z</time>
      </trkpt>
      <trkpt lat="42.2891" lon="3.27945">
        <ele>5.3</ele>
        <time>2024-11-10T14:44:11Z</time>
      </trkpt>
      <trkpt lat="42.2891" lon="3.27945">
        <ele>5.3</ele>
        <time>2024-11-10T14:44:12Z</time>
      </trkpt>
      <trkpt lat="42.2891" lon="3.27945">
        <ele>5.3</ele>
        <time>2024-11-10T14:44:13Z</time>
      </trkpt>
      <trkpt lat="42.2891" lon="3.27945">
        <ele>5.3</ele>
        <time>2024-11-10T14:44:14Z</time>
      </trkpt>
      <trkpt lat="42.2891" lon="3.27945">
        <ele>5.3</ele>
        <time>2024-11-10T14:44:15Z</time>
      </trkpt>
      <trkpt lat="42.2891" lon="3.27945">
        <ele>5.3</ele>
        <time>2024-11-10T14:44:16Z</time>
      </trkpt>
      <trkpt lat="42.2891" lon="3.27945">
        <ele>5.3</ele>
        <time>2024-11-10T14:44:17Z</time>
      </trkpt>
      <trkpt lat="42.2891" lon="3.27945">
        <ele>5.3</ele>
        <time>2024-11-10T14:44:18Z</time>
      </trkpt>
      <trkpt lat="42.2891" lon="3.27945">
        <ele>5.3</ele>
        <time>2024-11-10T14:44:19Z</time>
      </trkpt>
      <trkpt lat="42.2891" lon="3.27945">
        <ele>5.3</ele>
        <time>2024-11-10T14:44:20Z</time>
      </trkpt>
      <trkpt lat="42.2891" lon="3.27945">
        <ele>5.3</ele>
        <time>2024-11-10T14:44:21Z</time>
      </trkpt>
      <trkpt lat="42.2891" lon="3.27945">
        <ele>5.3</ele>
        <time>2024-11-10T14:44:22Z</time>
      </trkpt>
      <trkpt lat="42.2891" lon="3.27945">
        <ele>5.3</ele>
        <time>2024-11-10T14:44:23Z</time>
      </trkpt>
      <trkpt lat="42.2891" lon="3.27945">
        <ele>5.3</ele>
        <time>2024-11-10T14:44:24Z</time>
      </trkpt>
      <trkpt lat="42.2891" lon="3.27945">
        <ele>5.3</ele>
        <time>2024-11-10T14:44:25Z</time>
      </trkpt>
      <trkpt lat="42.2891" lon="3.27945">
        <ele>5.3</ele>
        <time>2024-11-10T14:44:26Z</time>
      </trkpt>
      <trkpt lat="42.2891" lon="3.27945">
        <ele>5.3</ele>
        <time>2024-11-10T14:44:27Z</time>
      </trkpt>
      <trkpt lat="42.2891" lon="3.27945">
        <ele>5.3</ele>
        <time>2024-11-10T14:44:28Z</time>
      </trkpt>
      <trkpt lat="42.2891" lon="3.27945">
        <ele>5.3</ele>
        <time>2024-11-10T14:44:29Z</time>
      </trkpt>
      <trkpt lat="42.2891" lon="3.27945">
        <ele>5.3</ele>
        <time>2024-11-10T14:44:30Z</time>
      </trkpt>
      <trkpt lat="42.2891" lon="3.27945">
        <ele>5.3</ele>
        <time>2024-11-10T14:44:31Z</time>
      </trkpt>
      <trkpt lat="42.2891" lon="3.27945">
        <ele>5.3</ele>
        <time>2024-11-10T14:44:32Z</time>
      </trkpt>
      <trkpt lat="42.2891" lon="3.27945">
        <ele>5.3</ele>
        <time>2024-11-10T14:44:33Z</time>
      </trkpt>
      <trkpt lat="42.2891" lon="3.27945">
        <ele>5.3</ele>
        <time>2024-11-10T14:44:34Z</time>
      </trkpt>
      <trkpt lat="42.2891" lon="3.27945">
        <ele>5.3</ele>
        <time>2024-11-10T14:44:35Z</time>
      </trkpt>
      <trkpt lat="42.2891" lon="3.27945">
        <ele>5.3</ele>
        <time>2024-11-10T14:44:36Z</time>
      </trkpt>
      <trkpt lat="42.2891" lon="3.27945">
        <ele>5.3</ele>
        <time>2024-11-10T14:44:37Z</time>
      </trkpt>
      <trkpt lat="42.2891" lon="3.27945">
        <ele>5.3</ele>
        <time>2024-11-10T14:44:38Z</time>
      </trkpt>
      <trkpt lat="42.2891" lon="3.27945">
        <ele>5.3</ele>
        <time>2024-11-10T14:44:39Z</time>
      </trkpt>
      <trkpt lat="42.2891" lon="3.27945">
        <ele>5.3</ele>
        <time>2024-11-10T14:44:40Z</time>
      </trkpt>
      <trkpt lat="42.2891" lon="3.27945">
        <ele>5.3</ele>
        <time>2024-11-10T14:44:41Z</time>
      </trkpt>
      <trkpt lat="42.2891" lon="3.27945">
        <ele>5.3</ele>
        <time>2024-11-10T14:44:42Z</time>
      </trkpt>
      <trkpt lat="42.2891" lon="3.27945">
        <ele>5.3</ele>
        <time>2024-11-10T14:44:43Z</time>
      </trkpt>
      <trkpt lat="42.2891" lon="3.27945">
        <ele>5.3</ele>
        <time>2024-11-10T14:44:44Z</time>
      </trkpt>
      <trkpt lat="42.2891" lon="3.27945">
        <ele>5.3</ele>
        <time>2024-11-10T14:44:45Z</time>
      </trkpt>
      <trkpt lat="42.2891" lon="3.27945">
        <ele>5.3</ele>
        <time>2024-11-10T14:44:46Z</time>
      </trkpt>
      <trkpt lat="42.2891" lon="3.27945">
        <ele>5.3</ele>
        <time>2024-11-10T14:44:47Z</time>
      </trkpt>
      <trkpt lat="42.2891" lon="3.27945">
        <ele>5.3</ele>
        <time>2024-11-10T14:44:48Z</time>
      </trkpt>
      <trkpt lat="42.2891" lon="3.27945">
        <ele>5.3</ele>
        <time>2024-11-10T14:44:49Z</time>
      </trkpt>
      <trkpt lat="42.2891" lon="3.27945">
        <ele>5.3</ele>
        <time>2024-11-10T14:44:50Z</time>
      </trkpt>
      <trkpt lat="42.2891" lon="3.27945">
        <ele>5.3</ele>
        <time>2024-11-10T14:44:51Z</time>
      </trkpt>
      <trkpt lat="42.2891" lon="3.27945">
        <ele>5.3</ele>
        <time>2024-11-10T14:44:52Z</time>
      </trkpt>
      <trkpt lat="42.2891" lon="3.27945">
        <ele>5.3</ele>
        <time>2024-11-10T14:44:53Z</time>
      </trkpt>
      <trkpt lat="42.2891" lon="3.27945">
        <ele>5.3</ele>
        <time>2024-11-10T14:44:54Z</time>
      </trkpt>
      <trkpt lat="42.2891" lon="3.27945">
        <ele>5.3</ele>
        <time>2024-11-10T14:44:55Z</time>
      </trkpt>
      <trkpt lat="42.2891" lon="3.27945">
        <ele>5.3</ele>
        <time>2024-11-10T14:44:56Z</time>
      </trkpt>
      <trkpt lat="42.2891" lon="3.27945">
        <ele>5.3</ele>
        <time>2024-11-10T14:44:57Z</time>
      </trkpt>
      <trkpt lat="42.2891" lon="3.27945">
        <ele>5.3</ele>
        <time>2024-11-10T14:44:58Z</time>
      </trkpt>
      <trkpt lat="42.2891" lon="3.27945">
        <ele>5.3</ele>
        <time>2024-11-10T14:44:59Z</time>
      </trkpt>
      <trkpt lat="42.2891" lon="3.27945">
        <ele>5.3</ele>
        <time>2024-11-10T14:45:00Z</time>
      </trkpt>
      <trkpt lat="42.2891" lon="3.27945">
        <ele>5.3</ele>
        <time>2024-11-10T14:45:01Z</time>
      </trkpt>
      <trkpt lat="42.2891" lon="3.27945">
        <ele>5.3</ele>
        <time>2024-11-10T14:45:02Z</time>
      </trkpt>
      <trkpt lat="42.2891" lon="3.27945">
        <ele>5.3</ele>
        <time>2024-11-10T14:45:03Z</time>
      </trkpt>
      <trkpt lat="42.2891" lon="3.27945">
        <ele>5.3</ele>
        <time>2024-11-10T14:45:04Z</time>
      </trkpt>
      <trkpt lat="42.2891" lon="3.27945">
        <ele>5.3</ele>
        <time>2024-11-10T14:45:05Z</time>
      </trkpt>
      <trkpt lat="42.2891" lon="3.27945">
        <ele>5.3</ele>
        <time>2024-11-10T14:45:06Z</time>
      </trkpt>
      <trkpt lat="42.2891" lon="3.27945">
        <ele>5.3</ele>
        <time>2024-11-10T14:45:07Z</time>
      </trkpt>
      <trkpt lat="42.2891" lon="3.27945">
        <ele>5.3</ele>
        <time>2024-11-10T14:45:08Z</time>
      </trkpt>
      <trkpt lat="42.2891" lon="3.27945">
        <ele>5.3</ele>
        <time>2024-11-10T14:45:09Z</time>
      </trkpt>
      <trkpt lat="42.2891" lon="3.27945">
        <ele>5.3</ele>
        <time>2024-11-10T14:45:10Z</time>
      </trkpt>
      <trkpt lat="42.2891" lon="3.27945">
        <ele>5.3</ele>
        <time>2024-11-10T14:45:11Z</time>
      </trkpt>
      <trkpt lat="42.2891" lon="3.27945">
        <ele>5.3</ele>
        <time>2024-11-10T14:45:12Z</time>
      </trkpt>
      <trkpt lat="42.2891" lon="3.27945">
        <ele>5.3</ele>
        <time>2024-11-10T14:45:13Z</time>
      </trkpt>
      <trkpt lat="42.2891" lon="3.27945">
        <ele>5.3</ele>
        <time>2024-11-10T14:45:14Z</time>
      </trkpt>
      <trkpt lat="42.2891" lon="3.27945">
        <ele>5.3</ele>
        <time>2024-11-10T14:45:15Z</time>
      </trkpt>
      <trkpt lat="42.2891" lon="3.27945">
        <ele>5.3</ele>
        <time>2024-11-10T14:45:16Z</time>
      </trkpt>
      <trkpt lat="42.2891" lon="3.27945">
        <ele>5.3</ele>
        <time>2024-11-10T14:45:17Z</time>
      </trkpt>
      <trkpt lat="42.2891" lon="3.27945">
        <ele>5.3</ele>
        <time>2024-11-10T14:45:18Z</time>
      </trkpt>
      <trkpt lat="42.2891" lon="3.27945">
        <ele>5.3</ele>
        <time>2024-11-10T14:45:19Z</time>
      </trkpt>
      <trkpt lat="42.2891" lon="3.27945">
        <ele>5.3</ele>
        <time>2024-11-10T14:45:20Z</time>
      </trkpt>
      <trkpt lat="42.2891" lon="3.27945">
        <ele>5.3</ele>
        <time>2024-11-10T14:45:21Z</time>
      </trkpt>
      <trkpt lat="42.2891" lon="3.27945">
        <ele>5.3</ele>
        <time>2024-11-10T14:45:22Z</time>
      </trkpt>
      <trkpt lat="42.2891" lon="3.27945">
        <ele>5.3</ele>
        <time>2024-11-10T14:45:23Z</time>
      </trkpt>
      <trkpt lat="42.2891" lon="3.27945">
        <ele>5.3</ele>
        <time>2024-11-10T14:45:24Z</time>
      </trkpt>
      <trkpt lat="42.2891" lon="3.27945">
        <ele>5.3</ele>
        <time>2024-11-10T14:45:25Z</time>
      </trkpt>
      <trkpt lat="42.2891" lon="3.27945">
        <ele>5.3</ele>
        <time>2024-11-10T14:45:26Z</time>
      </trkpt>
      <trkpt lat="42.2891" lon="3.27945">
        <ele>5.3</ele>
        <time>2024-11-10T14:45:27Z</time>
      </trkpt>
      <trkpt lat="42.2891" lon="3.27945">
        <ele>5.3</ele>
        <time>2024-11-10T14:45:28Z</time>
      </trkpt>
      <trkpt lat="42.2891" lon="3.27945">
        <ele>5.3</ele>
        <time>2024-11-10T14:45:29Z</time>
      </trkpt>
      <trkpt lat="42.2891" lon="3.27945">
        <ele>5.3</ele>
        <time>2024-11-10T14:45:30Z</time>
      </trkpt>
      <trkpt lat="42.2891" lon="3.27945">
        <ele>5.3</ele>
        <time>2024-11-10T14:45:31Z</time>
      </trkpt>
      <trkpt lat="42.2891" lon="3.27945">
        <ele>5.3</ele>
        <time>2024-11-10T14:45:32Z</time>
      </trkpt>
      <trkpt lat="42.2891" lon="3.27945">
        <ele>5.3</ele>
        <time>2024-11-10T14:45:33Z</time>
      </trkpt>
      <trkpt lat="42.2891" lon="3.27945">
        <ele>5.3</ele>
        <time>2024-11-10T14:45:34Z</time>
      </trkpt>
      <trkpt lat="42.2891" lon="3.27945">
        <ele>5.3</ele>
        <time>2024-11-10T14:45:35Z</time>
      </trkpt>
      <trkpt lat="42.2891" lon="3.27945">
        <ele>5.3</ele>
        <time>2024-11-10T14:45:36Z</time>
      </trkpt>
      <trkpt lat="42.2891" lon="3.27945">
        <ele>5.3</ele>
        <time>2024-11-10T14:45:37Z</time>
      </trkpt>
      <trkpt lat="42.2891" lon="3.27945">
        <ele>5.3</ele>
        <time>2024-11-10T14:45:38Z</time>
      </trkpt>
      <trkpt lat="42.2891" lon="3.27945">
        <ele>5.3</ele>
        <time>2024-11-10T14:45:39Z</time>
      </trkpt>
      <trkpt lat="42.2891" lon="3.27945">
        <ele>5.3</ele>
        <time>2024-11-10T14:45:40Z</time>
      </trkpt>
      <trkpt lat="42.2891" lon="3.27945">
        <ele>5.3</ele>
        <time>2024-11-10T14:45:41Z</time>
      </trkpt>
      <trkpt lat="42.2891" lon="3.27945">
        <ele>5.3</ele>
        <time>2024-11-10T14:45:42Z</time>
      </trkpt>
      <trkpt lat="42.2891" lon="3.27945">
        <ele>5.3</ele>
        <time>2024-11-10T14:45:43Z</time>
      </trkpt>
      <trkpt lat="42.2891" lon="3.27945">
        <ele>5.3</ele>
        <time>2024-11-10T14:45:44Z</time>
      </trkpt>
      <trkpt lat="42.2891" lon="3.27945">
        <ele>5.3</ele>
        <time>2024-11-10T14:45:45Z</time>
      </trkpt>
      <trkpt lat="42.2891" lon="3.27945">
        <ele>5.3</ele>
        <time>2024-11-10T14:45:46Z</time>
      </trkpt>
      <trkpt lat="42.2891" lon="3.27945">
        <ele>5.3</ele>
        <time>2024-11-10T14:45:47Z</time>
      </trkpt>
      <trkpt lat="42.2891" lon="3.27945">
        <ele>5.3</ele>
        <time>2024-11-10T14:45:48Z</time>
      </trkpt>
      <trkpt lat="42.2891" lon="3.27945">
        <ele>5.3</ele>
        <time>2024-11-10T14:45:49Z</time>
      </trkpt>
      <trkpt lat="42.2891" lon="3.27945">
        <ele>5.3</ele>
        <time>2024-11-10T14:45:50Z</time>
      </trkpt>
      <trkpt lat="42.2891" lon="3.27945">
        <ele>5.3</ele>
        <time>2024-11-10T14:45:51Z</time>
      </trkpt>
      <trkpt lat="42.2891" lon="3.27945">
        <ele>5.3</ele>
        <time>2024-11-10T14:45:52Z</time>
      </trkpt>
      <trkpt lat="42.2891" lon="3.27945">
        <ele>5.3</ele>
        <time>2024-11-10T14:45:53Z</time>
      </trkpt>
      <trkpt lat="42.2891" lon="3.27945">
        <ele>5.3</ele>
        <time>2024-11-10T14:45:54Z</time>
      </trkpt>
      <trkpt lat="42.2891" lon="3.27945">
        <ele>5.3</ele>
        <time>2024-11-10T14:45:55Z</time>
      </trkpt>
      <trkpt lat="42.2891" lon="3.27945">
        <ele>5.3</ele>
        <time>2024-11-10T14:45:56Z</time>
      </trkpt>
      <trkpt lat="42.2891" lon="3.27945">
        <ele>5.3</ele>
        <time>2024-11-10T14:45:57Z</time>
      </trkpt>
      <trkpt lat="42.2891" lon="3.27945">
        <ele>5.3</ele>
        <time>2024-11-10T14:45:58Z</time>
      </trkpt>
      <trkpt lat="42.2891" lon="3.27945">
        <ele>5.3</ele>
        <time>2024-11-10T14:45:59Z</time>
      </trkpt>
      <trkpt lat="42.2891" lon="3.27945">
        <ele>5.3</ele>
        <time>2024-11-10T14:46:00Z</time>
      </trkpt>
      <trkpt lat="42.2891" lon="3.27945">
        <ele>5.3</ele>
        <time>2024-11-10T14:46:01Z</time>
      </trkpt>
      <trkpt lat="42.2891" lon="3.27945">
        <ele>5.3</ele>
        <time>2024-11-10T14:46:02Z</time>
      </trkpt>
      <trkpt lat="42.2891" lon="3.27945">
        <ele>5.3</ele>
        <time>2024-11-10T14:46:03Z</time>
      </trkpt>
      <trkpt lat="42.2891" lon="3.27945">
        <ele>5.3</ele>
        <time>2024-11-10T14:46:04Z</time>
      </trkpt>
      <trkpt lat="42.2891" lon="3.27945">
        <ele>5.3</ele>
        <time>2024-11-10T14:46:05Z</time>
      </trkpt>
      <trkpt lat="42.2891" lon="3.27945">
        <ele>5.3</ele>
        <time>2024-11-10T14:46:06Z</time>
      </trkpt>
      <trkpt lat="42.2891" lon="3.27945">
        <ele>5.3</ele>
        <time>2024-11-10T14:46:07Z</time>
      </trkpt>
      <trkpt lat="42.2891" lon="3.27945">
        <ele>5.3</ele>
        <time>2024-11-10T14:46:08Z</time>
      </trkpt>
      <trkpt lat="42.2891" lon="3.27945">
        <ele>5.3</ele>
        <time>2024-11-10T14:46:09Z</time>
      </trkpt>
      <trkpt lat="42.2891" lon="3.27945">
        <ele>5.3</ele>
        <time>2024-11-10T14:46:10Z</time>
      </trkpt>
      <trkpt lat="42.2891" lon="3.27945">
        <ele>5.3</ele>
        <time>2024-11-10T14:46:11Z</time>
      </trkpt>
      <trkpt lat="42.2891" lon="3.27945">
        <ele>5.3</ele>
        <time>2024-11-10T14:46:12Z</time>
      </trkpt>
      <trkpt lat="42.2891" lon="3.27945">
        <ele>5.3</ele>
        <time>2024-11-10T14:46:13Z</time>
      </trkpt>
      <trkpt lat="42.2891" lon="3.27945">
        <ele>5.3</ele>
        <time>2024-11-10T14:46:14Z</time>
      </trkpt>
      <trkpt lat="42.2891" lon="3.27945">
        <ele>5.3</ele>
        <time>2024-11-10T14:46:15Z</time>
      </trkpt>
      <trkpt lat="42.2891" lon="3.27945">
        <ele>5.3</ele>
        <time>2024-11-10T14:46:16Z</time>
      </trkpt>
      <trkpt lat="42.2891" lon="3.27945">
        <ele>5.3</ele>
        <time>2024-11-10T14:46:17Z</time>
      </trkpt>
      <trkpt lat="42.2891" lon="3.27945">
        <ele>5.3</ele>
        <time>2024-11-10T14:46:18Z</time>
      </trkpt>
      <trkpt lat="42.2891" lon="3.27945">
        <ele>5.3</ele>
        <time>2024-11-10T14:46:19Z</time>
      </trkpt>
      <trkpt lat="42.2891" lon="3.27945">
        <ele>5.3</ele>
        <time>2024-11-10T14:46:20Z</time>
      </trkpt>
      <trkpt lat="42.2891" lon="3.27945">
        <ele>5.3</ele>
        <time>2024-11-10T14:46:21Z</time>
      </trkpt>
      <trkpt lat="42.2891" lon="3.27945">
        <ele>5.3</ele>
        <time>2024-11-10T14:46:22Z</time>
      </trkpt>
      <trkpt lat="42.2891" lon="3.27945">
        <ele>5.3</ele>
        <time>2024-11-10T14:46:23Z</time>
      </trkpt>
      <trkpt lat="42.2891" lon="3.27945">
        <ele>5.3</ele>
        <time>2024-11-10T14:46:24Z</time>
      </trkpt>
      <trkpt lat="42.2891" lon="3.27945">
        <ele>5.3</ele>
        <time>2024-11-10T14:46:25Z</time>
      </trkpt>
      <trkpt lat="42.2891" lon="3.27945">
        <ele>5.3</ele>
        <time>2024-11-10T14:46:26Z</time>
      </trkpt>
      <trkpt lat="42.2891" lon="3.27945">
        <ele>5.3</ele>
        <time>2024-11-10T14:46:27Z</time>
      </trkpt>
      <trkpt lat="42.2891" lon="3.27945">
        <ele>5.3</ele>
        <time>2024-11-10T14:46:28Z</time>
      </trkpt>
      <trkpt lat="42.2891" lon="3.27945">
        <ele>5.3</ele>
        <time>2024-11-10T14:46:29Z</time>
      </trkpt>
      <trkpt lat="42.2891" lon="3.27945">
        <ele>5.3</ele>
        <time>2024-11-10T14:46:30Z</time>
      </trkpt>
      <trkpt lat="42.2891" lon="3.27945">
        <ele>5.3</ele>
        <time>2024-11-10T14:46:31Z</time>
      </trkpt>
      <trkpt lat="42.2891" lon="3.27945">
        <ele>5.3</ele>
        <time>2024-11-10T14:46:32Z</time>
      </trkpt>
      <trkpt lat="42.2891" lon="3.27945">
        <ele>5.3</ele>
        <time>2024-11-10T14:46:33Z</time>
      </trkpt>
      <trkpt lat="42.2891" lon="3.27945">
        <ele>5.3</ele>
        <time>2024-11-10T14:46:34Z</time>
      </trkpt>
      <trkpt lat="42.2891" lon="3.27945">
        <ele>5.3</ele>
        <time>2024-11-10T14:46:35Z</time>
      </trkpt>
      <trkpt lat="42.2891" lon="3.27945">
        <ele>5.3</ele>
        <time>2024-11-10T14:46:36Z</time>
      </trkpt>
      <trkpt lat="42.2891" lon="3.27945">
        <ele>5.3</ele>
        <time>2024-11-10T14:46:37Z</time>
      </trkpt>
      <trkpt lat="42.2891" lon="3.27945">
        <ele>5.3</ele>
        <time>2024-11-10T14:46:38Z</time>
      </trkpt>
      <trkpt lat="42.2891" lon="3.27945">
        <ele>5.3</ele>
        <time>2024-11-10T14:46:39Z</time>
      </trkpt>
      <trkpt lat="42.2891" lon="3.27945">
        <ele>5.3</ele>
        <time>2024-11-10T14:46:40Z</time>
      </trkpt>
      <trkpt lat="42.2891" lon="3.27945">
        <ele>5.3</ele>
        <time>2024-11-10T14:46:41Z</time>
      </trkpt>
      <trkpt lat="42.2891" lon="3.27945">
        <ele>5.3</ele>
        <time>2024-11-10T14:46:42Z</time>
      </trkpt>
      <trkpt lat="42.2891" lon="3.27945">
        <ele>5.3</ele>
        <time>2024-11-10T14:46:43Z</time>
      </trkpt>
      <trkpt lat="42.2891" lon="3.27945">
        <ele>5.3</ele>
        <time>2024-11-10T14:46:44Z</time>
      </trkpt>
      <trkpt lat="42.2891" lon="3.27945">
        <ele>5.3</ele>
        <time>2024-11-10T14:46:45Z</time>
      </trkpt>
      <trkpt lat="42.2891" lon="3.27945">
        <ele>5.3</ele>
        <time>2024-11-10T14:46:46Z</time>
      </trkpt>
      <trkpt lat="42.2891" lon="3.27945">
        <ele>5.3</ele>
        <time>2024-11-10T14:46:47Z</time>
      </trkpt>
      <trkpt lat="42.2891" lon="3.27945">
        <ele>5.3</ele>
        <time>2024-11-10T14:46:48Z</time>
      </trkpt>
      <trkpt lat="42.2891" lon="3.27945">
        <ele>5.3</ele>
        <time>2024-11-10T14:46:49Z</time>
      </trkpt>
      <trkpt lat="42.2891" lon="3.27945">
        <ele>5.3</ele>
        <time>2024-11-10T14:46:50Z</time>
      </trkpt>
      <trkpt lat="42.2891" lon="3.27945">
        <ele>5.3</ele>
        <time>2024-11-10T14:46:51Z</time>
      </trkpt>
      <trkpt lat="42.2891" lon="3.27945">
        <ele>5.3</ele>
        <time>2024-11-10T14:46:52Z</time>
      </trkpt>
      <trkpt lat="42.2891" lon="3.27945">
        <ele>5.3</ele>
        <time>2024-11-10T14:46:53Z</time>
      </trkpt>
      <trkpt lat="42.2891" lon="3.27945">
        <ele>5.3</ele>
        <time>2024-11-10T14:46:54Z</time>
      </trkpt>
      <trkpt lat="42.2891" lon="3.27945">
        <ele>5.3</ele>
        <time>2024-11-10T14:46:55Z</time>
      </trkpt>
      <trkpt lat="42.2891" lon="3.27945">
        <ele>5.3</ele>
        <time>2024-11-10T14:46:56Z</time>
      </trkpt>
      <trkpt lat="42.2891" lon="3.27945">
        <ele>5.3</ele>
        <time>2024-11-10T14:46:57Z</time>
      </trkpt>
      <trkpt lat="42.2891" lon="3.27945">
        <ele>5.3</ele>
        <time>2024-11-10T14:46:58Z</time>
      </trkpt>
      <trkpt lat="42.2891" lon="3.27945">
        <ele>5.3</ele>
        <time>2024-11-10T14:46:59Z</time>
      </trkpt>
      <trkpt lat="42.2891" lon="3.27945">
        <ele>5.3</ele>
        <time>2024-11-10T14:47:00Z</time>
      </trkpt>
      <trkpt lat="42.2891" lon="3.27945">
        <ele>5.3</ele>
        <time>2024-11-10T14:47:01Z</time>
      </trkpt>
      <trkpt lat="42.2891" lon="3.27945">
        <ele>5.3</ele>
        <time>2024-11-10T14:47:02Z</time>
      </trkpt>
      <trkpt lat="42.2891" lon="3.27945">
        <ele>5.3</ele>
        <time>2024-11-10T14:47:03Z</time>
      </trkpt>
      <trkpt lat="42.2891" lon="3.27945">
        <ele>5.3</ele>
        <time>2024-11-10T14:47:04Z</time>
      </trkpt>
      <trkpt lat="42.2891" lon="3.27945">
        <ele>5.3</ele>
        <time>2024-11-10T14:47:05Z</time>
      </trkpt>
      <trkpt lat="42.2891" lon="3.27945">
        <ele>5.3</ele>
        <time>2024-11-10T14:47:06Z</time>
      </trkpt>
      <trkpt lat="42.2891" lon="3.27945">
        <ele>5.3</ele>
        <time>2024-11-10T14:47:07Z</time>
      </trkpt>
      <trkpt lat="42.2891" lon="3.27945">
        <ele>5.3</ele>
        <time>2024-11-10T14:47:08Z</time>
      </trkpt>
      <trkpt lat="42.2891" lon="3.27945">
        <ele>5.3</ele>
        <time>2024-11-10T14:47:09Z</time>
      </trkpt>
      <trkpt lat="42.2891" lon="3.27945">
        <ele>5.3</ele>
        <time>2024-11-10T14:47:10Z</time>
      </trkpt>
      <trkpt lat="42.2891" lon="3.27945">
        <ele>5.3</ele>
        <time>2024-11-10T14:47:11Z</time>
      </trkpt>
      <trkpt lat="42.2891" lon="3.27945">
        <ele>5.3</ele>
        <time>2024-11-10T14:47:12Z</time>
      </trkpt>
      <trkpt lat="42.2891" lon="3.27945">
        <ele>5.3</ele>
        <time>2024-11-10T14:47:13Z</time>
      </trkpt>
      <trkpt lat="42.2891" lon="3.27945">
        <ele>5.3</ele>
        <time>2024-11-10T14:47:14Z</time>
      </trkpt>
      <trkpt lat="42.2891" lon="3.27945">
        <ele>5.3</ele>
        <time>2024-11-10T14:47:15Z</time>
      </trkpt>
      <trkpt lat="42.2891" lon="3.27945">
        <ele>5.3</ele>
        <time>2024-11-10T14:47:16Z</time>
      </trkpt>
      <trkpt lat="42.2891" lon="3.27945">
        <ele>5.3</ele>
        <time>2024-11-10T14:47:17Z</time>
      </trkpt>
      <trkpt lat="42.2891" lon="3.27945">
        <ele>5.3</ele>
        <time>2024-11-10T14:47:18Z</time>
      </trkpt>
      <trkpt lat="42.2891" lon="3.27945">
        <ele>5.3</ele>
        <time>2024-11-10T14:47:19Z</time>
      </trkpt>
      <trkpt lat="42.2891" lon="3.27945">
        <ele>5.3</ele>
        <time>2024-11-10T14:47:20Z</time>
      </trkpt>
      <trkpt lat="42.2891" lon="3.27945">
        <ele>5.3</ele>
        <time>2024-11-10T14:47:21Z</time>
      </trkpt>
      <trkpt lat="42.2891" lon="3.27945">
        <ele>5.3</ele>
        <time>2024-11-10T14:47:22Z</time>
      </trkpt>
      <trkpt lat="42.2891" lon="3.27945">
        <ele>5.3</ele>
        <time>2024-11-10T14:47:23Z</time>
      </trkpt>
      <trkpt lat="42.2891" lon="3.27945">
        <ele>5.3</ele>
        <time>2024-11-10T14:47:24Z</time>
      </trkpt>
      <trkpt lat="42.2891" lon="3.27945">
        <ele>5.3</ele>
        <time>2024-11-10T14:47:25Z</time>
      </trkpt>
      <trkpt lat="42.2891" lon="3.27945">
        <ele>5.3</ele>
        <time>2024-11-10T14:47:26Z</time>
      </trkpt>
      <trkpt lat="42.2891" lon="3.27945">
        <ele>5.3</ele>
        <time>2024-11-10T14:47:27Z</time>
      </trkpt>
      <trkpt lat="42.2891" lon="3.27945">
        <ele>5.3</ele>
        <time>2024-11-10T14:47:28Z</time>
      </trkpt>
      <trkpt lat="42.2891" lon="3.27945">
        <ele>5.3</ele>
        <time>2024-11-10T14:47:29Z</time>
      </trkpt>
      <trkpt lat="42.2891" lon="3.27945">
        <ele>5.3</ele>
        <time>2024-11-10T14:47:30Z</time>
      </trkpt>
      <trkpt lat="42.2891" lon="3.27945">
        <ele>5.3</ele>
        <time>2024-11-10T14:47:31Z</time>
      </trkpt>
      <trkpt lat="42.2891" lon="3.27945">
        <ele>5.3</ele>
        <time>2024-11-10T14:47:32Z</time>
      </trkpt>
      <trkpt lat="42.2891" lon="3.27945">
        <ele>5.3</ele>
        <time>2024-11-10T14:47:33Z</time>
      </trkpt>
      <trkpt lat="42.2891" lon="3.27945">
        <ele>5.3</ele>
        <time>2024-11-10T14:47:34Z</time>
      </trkpt>
      <trkpt lat="42.2891" lon="3.27945">
        <ele>5.3</ele>
        <time>2024-11-10T14:47:35Z</time>
      </trkpt>
      <trkpt lat="42.2891" lon="3.27945">
        <ele>5.3</ele>
        <time>2024-11-10T14:47:36Z</time>
      </trkpt>
      <trkpt lat="42.2891" lon="3.27945">
        <ele>5.3</ele>
        <time>2024-11-10T14:47:37Z</time>
      </trkpt>
      <trkpt lat="42.2891" lon="3.27945">
        <ele>5.3</ele>
        <time>2024-11-10T14:47:38Z</time>
      </trkpt>
      <trkpt lat="42.2891" lon="3.27945">
        <ele>5.3</ele>
        <time>2024-11-10T14:47:39Z</time>
      </trkpt>
      <trkpt lat="42.2891" lon="3.27945">
        <ele>5.3</ele>
        <time>2024-11-10T14:47:40Z</time>
      </trkpt>
      <trkpt lat="42.2891" lon="3.27945">
        <ele>5.3</ele>
        <time>2024-11-10T14:47:41Z</time>
      </trkpt>
      <trkpt lat="42.2891" lon="3.27945">
        <ele>5.3</ele>
        <time>2024-11-10T14:47:42Z</time>
      </trkpt>
      <trkpt lat="42.2891" lon="3.27945">
        <ele>5.3</ele>
        <time>2024-11-10T14:47:43Z</time>
      </trkpt>
      <trkpt lat="42.2891" lon="3.27945">
        <ele>5.3</ele>
        <time>2024-11-10T14:47:44Z</time>
      </trkpt>
      <trkpt lat="42.2891" lon="3.27945">
        <ele>5.3</ele>
        <time>2024-11-10T14:47:45Z</time>
      </trkpt>
      <trkpt lat="42.2891" lon="3.27945">
        <ele>5.3</ele>
        <time>2024-11-10T14:47:46Z</time>
      </trkpt>
      <trkpt lat="42.2891" lon="3.27945">
        <ele>5.3</ele>
        <time>2024-11-10T14:47:47Z</time>
      </trkpt>
      <trkpt lat="42.2891" lon="3.27945">
        <ele>5.3</ele>
        <time>2024-11-10T14:47:48Z</time>
      </trkpt>
      <trkpt lat="42.2891" lon="3.27945">
        <ele>5.3</ele>
        <time>2024-11-10T14:47:49Z</time>
      </trkpt>
      <trkpt lat="42.2891" lon="3.27945">
        <ele>5.3</ele>
        <time>2024-11-10T14:47:50Z</time>
      </trkpt>
      <trkpt lat="42.2891" lon="3.27945">
        <ele>5.3</ele>
        <time>2024-11-10T14:47:51Z</time>
      </trkpt>
      <trkpt lat="42.2891" lon="3.27945">
        <ele>5.3</ele>
        <time>2024-11-10T14:47:52Z</time>
      </trkpt>
      <trkpt lat="42.2891" lon="3.27945">
        <ele>5.3</ele>
        <time>2024-11-10T14:47:53Z</time>
      </trkpt>
      <trkpt lat="42.2891" lon="3.27945">
        <ele>5.3</ele>
        <time>2024-11-10T14:47:54Z</time>
      </trkpt>
      <trkpt lat="42.2891" lon="3.27945">
        <ele>5.3</ele>
        <time>2024-11-10T14:47:55Z</time>
      </trkpt>
      <trkpt lat="42.2891" lon="3.27945">
        <ele>5.3</ele>
        <time>2024-11-10T14:47:56Z</time>
      </trkpt>
      <trkpt lat="42.2891" lon="3.27945">
        <ele>5.3</ele>
        <time>2024-11-10T14:47:57Z</time>
      </trkpt>
      <trkpt lat="42.2891" lon="3.27945">
        <ele>5.3</ele>
        <time>2024-11-10T14:47:58Z</time>
      </trkpt>
      <trkpt lat="42.2891" lon="3.27945">
        <ele>5.3</ele>
        <time>2024-11-10T14:47:59Z</time>
      </trkpt>
      <trkpt lat="42.2891" lon="3.27945">
        <ele>5.3</ele>
        <time>2024-11-10T14:48:00Z</time>
      </trkpt>
      <trkpt lat="42.2891" lon="3.27945">
        <ele>5.3</ele>
        <time>2024-11-10T14:48:01Z</time>
      </trkpt>
      <trkpt lat="42.2891" lon="3.27945">
        <ele>5.3</ele>
        <time>2024-11-10T14:48:02Z</time>
      </trkpt>
      <trkpt lat="42.2891" lon="3.27945">
        <ele>5.3</ele>
        <time>2024-11-10T14:48:03Z</time>
      </trkpt>
      <trkpt lat="42.2891" lon="3.27945">
        <ele>5.3</ele>
        <time>2024-11-10T14:48:04Z</time>
      </trkpt>
      <trkpt lat="42.2891" lon="3.27945">
        <ele>5.3</ele>
        <time>2024-11-10T14:48:05Z</time>
      </trkpt>
      <trkpt lat="42.2891" lon="3.27945">
        <ele>5.3</ele>
        <time>2024-11-10T14:48:06Z</time>
      </trkpt>
      <trkpt lat="42.2891" lon="3.27945">
        <ele>5.3</ele>
        <time>2024-11-10T14:48:07Z</time>
      </trkpt>
      <trkpt lat="42.2891" lon="3.27945">
        <ele>5.3</ele>
        <time>2024-11-10T14:48:08Z</time>
      </trkpt>
      <trkpt lat="42.2891" lon="3.27945">
        <ele>5.3</ele>
        <time>2024-11-10T14:48:09Z</time>
      </trkpt>
      <trkpt lat="42.2891" lon="3.27945">
        <ele>5.3</ele>
        <time>2024-11-10T14:48:10Z</time>
      </trkpt>
      <trkpt lat="42.2891" lon="3.27945">
        <ele>5.3</ele>
        <time>2024-11-10T14:48:11Z</time>
      </trkpt>
      <trkpt lat="42.2891" lon="3.27945">
        <ele>5.3</ele>
        <time>2024-11-10T14:48:12Z</time>
      </trkpt>
      <trkpt lat="42.2891" lon="3.27945">
        <ele>5.3</ele>
        <time>2024-11-10T14:48:13Z</time>
      </trkpt>
      <trkpt lat="42.2891" lon="3.27945">
        <ele>5.3</ele>
        <time>2024-11-10T14:48:14Z</time>
      </trkpt>
      <trkpt lat="42.2891" lon="3.27945">
        <ele>5.3</ele>
        <time>2024-11-10T14:48:15Z</time>
      </trkpt>
      <trkpt lat="42.2891" lon="3.27945">
        <ele>5.3</ele>
        <time>2024-11-10T14:48:16Z</time>
      </trkpt>
      <trkpt lat="42.2891" lon="3.27945">
        <ele>5.3</ele>
        <time>2024-11-10T14:48:17Z</time>
      </trkpt>
      <trkpt lat="42.2891" lon="3.27945">
        <ele>5.3</ele>
        <time>2024-11-10T14:48:18Z</time>
      </trkpt>
      <trkpt lat="42.2891" lon="3.27945">
        <ele>5.3</ele>
        <time>2024-11-10T14:48:19Z</time>
      </trkpt>
      <trkpt lat="42.2891" lon="3.27945">
        <ele>5.3</ele>
        <time>2024-11-10T14:48:20Z</time>
      </trkpt>
      <trkpt lat="42.2891" lon="3.27945">
        <ele>5.3</ele>
        <time>2024-11-10T14:48:21Z</time>
      </trkpt>
      <trkpt lat="42.2891" lon="3.27945">
        <ele>5.3</ele>
        <time>2024-11-10T14:48:22Z</time>
      </trkpt>
      <trkpt lat="42.2891" lon="3.27945">
        <ele>5.3</ele>
        <time>2024-11-10T14:48:23Z</time>
      </trkpt>
      <trkpt lat="42.2891" lon="3.27945">
        <ele>5.3</ele>
        <time>2024-11-10T14:48:24Z</time>
      </trkpt>
      <trkpt lat="42.2891" lon="3.27945">
        <ele>5.3</ele>
        <time>2024-11-10T14:48:25Z</time>
      </trkpt>
      <trkpt lat="42.2891" lon="3.27945">
        <ele>5.3</ele>
        <time>2024-11-10T14:48:26Z</time>
      </trkpt>
      <trkpt lat="42.2891" lon="3.27945">
        <ele>5.3</ele>
        <time>2024-11-10T14:48:27Z</time>
      </trkpt>
      <trkpt lat="42.2891" lon="3.27945">
        <ele>5.3</ele>
        <time>2024-11-10T14:48:28Z</time>
      </trkpt>
      <trkpt lat="42.2891" lon="3.27945">
        <ele>5.3</ele>
        <time>2024-11-10T14:48:29Z</time>
      </trkpt>
      <trkpt lat="42.2891" lon="3.27945">
        <ele>5.3</ele>
        <time>2024-11-10T14:48:30Z</time>
      </trkpt>
      <trkpt lat="42.2891" lon="3.27945">
        <ele>5.3</ele>
        <time>2024-11-10T14:48:31Z</time>
      </trkpt>
      <trkpt lat="42.2891" lon="3.27945">
        <ele>5.3</ele>
        <time>2024-11-10T14:48:32Z</time>
      </trkpt>
      <trkpt lat="42.2891" lon="3.27945">
        <ele>5.3</ele>
        <time>2024-11-10T14:48:33Z</time>
      </trkpt>
      <trkpt lat="42.2891" lon="3.27945">
        <ele>5.3</ele>
        <time>2024-11-10T14:48:34Z</time>
      </trkpt>
      <trkpt lat="42.2891" lon="3.27945">
        <ele>5.3</ele>
        <time>2024-11-10T14:48:35Z</time>
      </trkpt>
      <trkpt lat="42.2891" lon="3.27945">
        <ele>5.3</ele>
        <time>2024-11-10T14:48:36Z</time>
      </trkpt>
      <trkpt lat="42.2891" lon="3.27945">
        <ele>5.3</ele>
        <time>2024-11-10T14:48:37Z</time>
      </trkpt>
      <trkpt lat="42.2891" lon="3.27945">
        <ele>5.3</ele>
        <time>2024-11-10T14:48:38Z</time>
      </trkpt>
      <trkpt lat="42.2891" lon="3.27945">
        <ele>5.3</ele>
        <time>2024-11-10T14:48:39Z</time>
      </trkpt>
      <trkpt lat="42.2891" lon="3.27945">
        <ele>5.3</ele>
        <time>2024-11-10T14:48:40Z</time>
      </trkpt>
      <trkpt lat="42.2891" lon="3.27945">
        <ele>5.3</ele>
        <time>2024-11-10T14:48:41Z</time>
      </trkpt>
      <trkpt lat="42.2891" lon="3.27945">
        <ele>5.3</ele>
        <time>2024-11-10T14:48:42Z</time>
      </trkpt>
      <trkpt lat="42.2891" lon="3.27945">
        <ele>5.3</ele>
        <time>2024-11-10T14:48:43Z</time>
      </trkpt>
      <trkpt lat="42.2891" lon="3.27945">
        <ele>5.3</ele>
        <time>2024-11-10T14:48:44Z</time>
      </trkpt>
      <trkpt lat="42.2891" lon="3.27945">
        <ele>5.3</ele>
        <time>2024-11-10T14:48:45Z</time>
      </trkpt>
      <trkpt lat="42.2891" lon="3.27945">
        <ele>5.3</ele>
        <time>2024-11-10T14:48:46Z</time>
      </trkpt>
      <trkpt lat="42.2891" lon="3.27945">
        <ele>5.3</ele>
        <time>2024-11-10T14:48:47Z</time>
      </trkpt>
      <trkpt lat="42.2891" lon="3.27945">
        <ele>5.3</ele>
        <time>2024-11-10T14:48:48Z</time>
      </trkpt>
      <trkpt lat="42.2891" lon="3.27945">
        <ele>5.3</ele>
        <time>2024-11-10T14:48:49Z</time>
      </trkpt>
      <trkpt lat="42.2891" lon="3.27945">
        <ele>5.3</ele>
        <time>2024-11-10T14:48:50Z</time>
      </trkpt>
      <trkpt lat="42.2891" lon="3.27945">
        <ele>5.3</ele>
        <time>2024-11-10T14:48:51Z</time>
      </trkpt>
      <trkpt lat="42.2891" lon="3.27945">
        <ele>5.3</ele>
        <time>2024-11-10T14:48:52Z</time>
      </trkpt>
      <trkpt lat="42.2891" lon="3.27945">
        <ele>5.3</ele>
        <time>2024-11-10T14:48:53Z</time>
      </trkpt>
      <trkpt lat="42.2891" lon="3.27945">
        <ele>5.3</ele>
        <time>2024-11-10T14:48:54Z</time>
      </trkpt>
      <trkpt lat="42.2891" lon="3.27945">
        <ele>5.3</ele>
        <time>2024-11-10T14:48:55Z</time>
      </trkpt>
      <trkpt lat="42.2891" lon="3.27945">
        <ele>5.3</ele>
        <time>2024-11-10T14:48:56Z</time>
      </trkpt>
      <trkpt lat="42.2891" lon="3.27945">
        <ele>5.3</ele>
        <time>2024-11-10T14:48:57Z</time>
      </trkpt>
      <trkpt lat="42.2891" lon="3.27945">
        <ele>5.3</ele>
        <time>2024-11-10T14:48:58Z</time>
      </trkpt>
      <trkpt lat="42.2891" lon="3.27945">
        <ele>5.3</ele>
        <time>2024-11-10T14:48:59Z</time>
      </trkpt>
      <trkpt lat="42.2891" lon="3.27945">
        <ele>5.3</ele>
        <time>2024-11-10T14:49:00Z</time>
      </trkpt>
      <trkpt lat="42.2891" lon="3.27945">
        <ele>5.3</ele>
        <time>2024-11-10T14:49:01Z</time>
      </trkpt>
      <trkpt lat="42.2891" lon="3.27945">
        <ele>5.3</ele>
        <time>2024-11-10T14:49:02Z</time>
      </trkpt>
      <trkpt lat="42.2891" lon="3.27945">
        <ele>5.3</ele>
        <time>2024-11-10T14:49:03Z</time>
      </trkpt>
      <trkpt lat="42.2891" lon="3.27945">
        <ele>5.3</ele>
        <time>2024-11-10T14:49:04Z</time>
      </trkpt>
      <trkpt lat="42.2891" lon="3.27945">
        <ele>5.3</ele>
        <time>2024-11-10T14:49:05Z</time>
      </trkpt>
      <trkpt lat="42.2891" lon="3.27945">
        <ele>5.3</ele>
        <time>2024-11-10T14:49:06Z</time>
      </trkpt>
      <trkpt lat="42.2891" lon="3.27945">
        <ele>5.3</ele>
        <time>2024-11-10T14:49:07Z</time>
      </trkpt>
      <trkpt lat="42.2891" lon="3.27945">
        <ele>5.3</ele>
        <time>2024-11-10T14:49:08Z</time>
      </trkpt>
      <trkpt lat="42.2891" lon="3.27945">
        <ele>5.3</ele>
        <time>2024-11-10T14:49:09Z</time>
      </trkpt>
      <trkpt lat="42.2891" lon="3.27945">
        <ele>5.3</ele>
        <time>2024-11-10T14:49:10Z</time>
      </trkpt>
      <trkpt lat="42.2891" lon="3.27945">
        <ele>5.3</ele>
        <time>2024-11-10T14:49:11Z</time>
      </trkpt>
      <trkpt lat="42.2891" lon="3.27945">
        <ele>5.3</ele>
        <time>2024-11-10T14:49:12Z</time>
      </trkpt>
      <trkpt lat="42.2891" lon="3.27945">
        <ele>5.3</ele>
        <time>2024-11-10T14:49:13Z</time>
      </trkpt>
      <trkpt lat="42.2891" lon="3.27945">
        <ele>5.3</ele>
        <time>2024-11-10T14:49:14Z</time>
      </trkpt>
      <trkpt lat="42.2891" lon="3.27945">
        <ele>5.3</ele>
        <time>2024-11-10T14:49:15Z</time>
      </trkpt>
      <trkpt lat="42.2891" lon="3.27945">
        <ele>5.3</ele>
        <time>2024-11-10T14:49:16Z</time>
      </trkpt>
      <trkpt lat="42.2891" lon="3.27945">
        <ele>5.3</ele>
        <time>2024-11-10T14:49:17Z</time>
      </trkpt>
      <trkpt lat="42.2891" lon="3.27945">
        <ele>5.3</ele>
        <time>2024-11-10T14:49:18Z</time>
      </trkpt>
      <trkpt lat="42.2891" lon="3.27945">
        <ele>5.3</ele>
        <time>2024-11-10T14:49:19Z</time>
      </trkpt>
      <trkpt lat="42.2891" lon="3.27945">
        <ele>5.3</ele>
        <time>2024-11-10T14:49:20Z</time>
      </trkpt>
      <trkpt lat="42.2891" lon="3.27945">
        <ele>5.3</ele>
        <time>2024-11-10T14:49:21Z</time>
      </trkpt>
      <trkpt lat="42.2891" lon="3.27945">
        <ele>5.3</ele>
        <time>2024-11-10T14:49:22Z</time>
      </trkpt>
      <trkpt lat="42.2891" lon="3.27945">
        <ele>5.3</ele>
        <time>2024-11-10T14:49:23Z</time>
      </trkpt>
      <trkpt lat="42.2891" lon="3.27945">
        <ele>5.3</ele>
        <time>2024-11-10T14:49:24Z</time>
      </trkpt>
      <trkpt lat="42.2891" lon="3.27945">
        <ele>5.3</ele>
        <time>2024-11-10T14:49:25Z</time>
      </trkpt>
      <trkpt lat="42.2891" lon="3.27945">
        <ele>5.3</ele>
        <time>2024-11-10T14:49:26Z</time>
      </trkpt>
      <trkpt lat="42.2891" lon="3.27945">
        <ele>5.3</ele>
        <time>2024-11-10T14:49:27Z</time>
      </trkpt>
      <trkpt lat="42.2891" lon="3.27945">
        <ele>5.3</ele>
        <time>2024-11-10T14:49:28Z</time>
      </trkpt>
      <trkpt lat="42.2891" lon="3.27945">
        <ele>5.3</ele>
        <time>2024-11-10T14:49:29Z</time>
      </trkpt>
      <trkpt lat="42.2891" lon="3.27945">
        <ele>5.3</ele>
        <time>2024-11-10T14:49:30Z</time>
      </trkpt>
      <trkpt lat="42.2891" lon="3.27945">
        <ele>5.3</ele>
        <time>2024-11-10T14:49:31Z</time>
      </trkpt>
      <trkpt lat="42.2891" lon="3.27945">
        <ele>5.3</ele>
        <time>2024-11-10T14:49:32Z</time>
      </trkpt>
      <trkpt lat="42.2891" lon="3.27945">
        <ele>5.3</ele>
        <time>2024-11-10T14:49:33Z</time>
      </trkpt>
      <trkpt lat="42.2891" lon="3.27945">
        <ele>5.3</ele>
        <time>2024-11-10T14:49:34Z</time>
      </trkpt>
      <trkpt lat="42.2891" lon="3.27945">
        <ele>5.3</ele>
        <time>2024-11-10T14:49:35Z</time>
      </trkpt>
      <trkpt lat="42.2891" lon="3.27945">
        <ele>5.3</ele>
        <time>2024-11-10T14:49:36Z</time>
      </trkpt>
      <trkpt lat="42.2891" lon="3.27945">
        <ele>5.3</ele>
        <time>2024-11-10T14:49:37Z</time>
      </trkpt>
      <trkpt lat="42.2891" lon="3.27945">
        <ele>5.3</ele>
        <time>2024-11-10T14:49:38Z</time>
      </trkpt>
      <trkpt lat="42.2891" lon="3.27945">
        <ele>5.3</ele>
        <time>2024-11-10T14:49:39Z</time>
      </trkpt>
      <trkpt lat="42.2891" lon="3.27945">
        <ele>5.3</ele>
        <time>2024-11-10T14:49:40Z</time>
      </trkpt>
      <trkpt lat="42.2891" lon="3.27945">
        <ele>5.3</ele>
        <time>2024-11-10T14:49:41Z</time>
      </trkpt>
      <trkpt lat="42.2891" lon="3.27945">
        <ele>5.3</ele>
        <time>2024-11-10T14:49:42Z</time>
      </trkpt>
      <trkpt lat="42.2891" lon="3.27945">
        <ele>5.3</ele>
        <time>2024-11-10T14:49:43Z</time>
      </trkpt>
      <trkpt lat="42.2891" lon="3.27945">
        <ele>5.3</ele>
        <time>2024-11-10T14:49:44Z</time>
      </trkpt>
      <trkpt lat="42.2891" lon="3.27945">
        <ele>5.3</ele>
        <time>2024-11-10T14:49:45Z</time>
      </trkpt>
      <trkpt lat="42.2891" lon="3.27945">
        <ele>5.3</ele>
        <time>2024-11-10T14:49:46Z</time>
      </trkpt>
      <trkpt lat="42.2891" lon="3.27945">
        <ele>5.3</ele>
        <time>2024-11-10T14:49:47Z</time>
      </trkpt>
      <trkpt lat="42.2891" lon="3.27945">
        <ele>5.3</ele>
        <time>2024-11-10T14:49:48Z</time>
      </trkpt>
      <trkpt lat="42.2891" lon="3.27945">
        <ele>5.3</ele>
        <time>2024-11-10T14:49:49Z</time>
      </trkpt>
      <trkpt lat="42.2891" lon="3.27945">
        <ele>5.3</ele>
        <time>2024-11-10T14:49:50Z</time>
      </trkpt>
      <trkpt lat="42.2891" lon="3.27945">
        <ele>5.3</ele>
        <time>2024-11-10T14:49:51Z</time>
      </trkpt>
      <trkpt lat="42.2891" lon="3.27945">
        <ele>5.3</ele>
        <time>2024-11-10T14:49:52Z</time>
      </trkpt>
      <trkpt lat="42.2891" lon="3.27945">
        <ele>5.3</ele>
        <time>2024-11-10T14:49:53Z</time>
      </trkpt>
      <trkpt lat="42.2891" lon="3.27945">
        <ele>5.3</ele>
        <time>2024-11-10T14:49:54Z</time>
      </trkpt>
      <trkpt lat="42.2891" lon="3.27945">
        <ele>5.3</ele>
        <time>2024-11-10T14:49:55Z</time>
      </trkpt>
      <trkpt lat="42.2891" lon="3.27945">
        <ele>5.3</ele>
        <time>2024-11-10T14:49:56Z</time>
      </trkpt>
      <trkpt lat="42.2891" lon="3.27945">
        <ele>5.3</ele>
        <time>2024-11-10T14:49:57Z</time>
      </trkpt>
      <trkpt lat="42.2891" lon="3.27945">
        <ele>5.3</ele>
        <time>2024-11-10T14:49:58Z</time>
      </trkpt>
      <trkpt lat="42.2891" lon="3.27945">
        <ele>5.3</ele>
        <time>2024-11-10T14:49:59Z</time>
      </trkpt>
      <trkpt lat="42.2891" lon="3.27945">
        <ele>5.3</ele>
        <time>2024-11-10T14:50:00Z</time>
      </trkpt>
      <trkpt lat="42.2891" lon="3.27945">
        <ele>5.3</ele>
        <time>2024-11-10T14:50:01Z</time>
      </trkpt>
      <trkpt lat="42.2891" lon="3.27945">
        <ele>5.3</ele>
        <time>2024-11-10T14:50:02Z</time>
      </trkpt>
      <trkpt lat="42.2891" lon="3.27945">
        <ele>5.3</ele>
        <time>2024-11-10T14:50:03Z</time>
      </trkpt>
      <trkpt lat="42.2891" lon="3.27945">
        <ele>5.3</ele>
        <time>2024-11-10T14:50:04Z</time>
      </trkpt>
      <trkpt lat="42.2891" lon="3.27945">
        <ele>5.3</ele>
        <time>2024-11-10T14:50:05Z</time>
      </trkpt>
      <trkpt lat="42.2891" lon="3.27945">
        <ele>5.3</ele>
        <time>2024-11-10T14:50:06Z</time>
      </trkpt>
      <trkpt lat="42.2891" lon="3.27945">
        <ele>5.3</ele>
        <time>2024-11-10T14:50:07Z</time>
      </trkpt>
      <trkpt lat="42.2891" lon="3.27945">
        <ele>5.3</ele>
        <time>2024-11-10T14:50:08Z</time>
      </trkpt>
      <trkpt lat="42.2891" lon="3.27945">
        <ele>5.3</ele>
        <time>2024-11-10T14:50:09Z</time>
      </trkpt>
      <trkpt lat="42.2891" lon="3.27945">
        <ele>5.3</ele>
        <time>2024-11-10T14:50:10Z</time>
      </trkpt>
      <trkpt lat="42.2891" lon="3.27945">
        <ele>5.3</ele>
        <time>2024-11-10T14:50:11Z</time>
      </trkpt>
      <trkpt lat="42.2891" lon="3.27945">
        <ele>5.3</ele>
        <time>2024-11-10T14:50:12Z</time>
      </trkpt>
      <trkpt lat="42.2891" lon="3.27945">
        <ele>5.3</ele>
        <time>2024-11-10T14:50:13Z</time>
      </trkpt>
      <trkpt lat="42.2891" lon="3.27945">
        <ele>5.3</ele>
        <time>2024-11-10T14:50:14Z</time>
      </trkpt>
      <trkpt lat="42.2891" lon="3.27945">
        <ele>5.3</ele>
        <time>2024-11-10T14:50:15Z</time>
      </trkpt>
      <trkpt lat="42.2891" lon="3.27945">
        <ele>5.3</ele>
        <time>2024-11-10T14:50:16Z</time>
      </trkpt>
      <trkpt lat="42.2891" lon="3.27945">
        <ele>5.3</ele>
        <time>2024-11-10T14:50:17Z</time>
      </trkpt>
      <trkpt lat="42.2891" lon="3.27945">
        <ele>5.3</ele>
        <time>2024-11-10T14:50:18Z</time>
      </trkpt>
      <trkpt lat="42.2891" lon="3.27945">
        <ele>5.3</ele>
        <time>2024-11-10T14:50:19Z</time>
      </trkpt>
      <trkpt lat="42.2891" lon="3.27945">
        <ele>5.3</ele>
        <time>2024-11-10T14:50:20Z</time>
      </trkpt>
      <trkpt lat="42.2891" lon="3.27945">
        <ele>5.3</ele>
        <time>2024-11-10T14:50:21Z</time>
      </trkpt>
      <trkpt lat="42.2891" lon="3.27945">
        <ele>5.3</ele>
        <time>2024-11-10T14:50:22Z</time>
      </trkpt>
      <trkpt lat="42.2891" lon="3.27945">
        <ele>5.3</ele>
        <time>2024-11-10T14:50:23Z</time>
      </trkpt>
      <trkpt lat="42.2891" lon="3.27945">
        <ele>5.3</ele>
        <time>2024-11-10T14:50:24Z</time>
      </trkpt>
      <trkpt lat="42.2891" lon="3.27945">
        <ele>5.3</ele>
        <time>2024-11-10T14:50:25Z</time>
      </trkpt>
      <trkpt lat="42.2891" lon="3.27945">
        <ele>5.3</ele>
        <time>2024-11-10T14:50:26Z</time>
      </trkpt>
      <trkpt lat="42.2891" lon="3.27945">
        <ele>5.3</ele>
        <time>2024-11-10T14:50:27Z</time>
      </trkpt>
      <trkpt lat="42.2891" lon="3.27945">
        <ele>5.3</ele>
        <time>2024-11-10T14:50:28Z</time>
      </trkpt>
      <trkpt lat="42.2891" lon="3.27945">
        <ele>5.3</ele>
        <time>2024-11-10T14:50:29Z</time>
      </trkpt>
      <trkpt lat="42.2891" lon="3.27945">
        <ele>5.3</ele>
        <time>2024-11-10T14:50:30Z</time>
      </trkpt>
      <trkpt lat="42.2891" lon="3.27945">
        <ele>5.3</ele>
        <time>2024-11-10T14:50:31Z</time>
      </trkpt>
      <trkpt lat="42.2891" lon="3.27945">
        <ele>5.3</ele>
        <time>2024-11-10T14:50:32Z</time>
      </trkpt>
      <trkpt lat="42.2891" lon="3.27945">
        <ele>5.3</ele>
        <time>2024-11-10T14:50:33Z</time>
      </trkpt>
      <trkpt lat="42.2891" lon="3.27945">
        <ele>5.3</ele>
        <time>2024-11-10T14:50:34Z</time>
      </trkpt>
      <trkpt lat="42.2891" lon="3.27945">
        <ele>5.3</ele>
        <time>2024-11-10T14:50:35Z</time>
      </trkpt>
      <trkpt lat="42.2891" lon="3.27945">
        <ele>5.3</ele>
        <time>2024-11-10T14:50:36Z</time>
      </trkpt>
      <trkpt lat="42.2891" lon="3.27945">
        <ele>5.3</ele>
        <time>2024-11-10T14:50:37Z</time>
      </trkpt>
      <trkpt lat="42.2891" lon="3.27945">
        <ele>5.3</ele>
        <time>2024-11-10T14:50:38Z</time>
      </trkpt>
      <trkpt lat="42.2891" lon="3.27945">
        <ele>5.3</ele>
        <time>2024-11-10T14:50:39Z</time>
      </trkpt>
      <trkpt lat="42.2891" lon="3.27945">
        <ele>5.3</ele>
        <time>2024-11-10T14:50:40Z</time>
      </trkpt>
      <trkpt lat="42.2891" lon="3.27945">
        <ele>5.3</ele>
        <time>2024-11-10T14:50:41Z</time>
      </trkpt>
      <trkpt lat="42.2891" lon="3.27945">
        <ele>5.3</ele>
        <time>2024-11-10T14:50:42Z</time>
      </trkpt>
      <trkpt lat="42.2891" lon="3.27945">
        <ele>5.3</ele>
        <time>2024-11-10T14:50:43Z</time>
      </trkpt>
      <trkpt lat="42.2891" lon="3.27945">
        <ele>5.3</ele>
        <time>2024-11-10T14:50:44Z</time>
      </trkpt>
      <trkpt lat="42.2891" lon="3.27945">
        <ele>5.3</ele>
        <time>2024-11-10T14:50:45Z</time>
      </trkpt>
      <trkpt lat="42.2891" lon="3.27945">
        <ele>5.3</ele>
        <time>2024-11-10T14:50:46Z</time>
      </trkpt>
      <trkpt lat="42.2891" lon="3.27945">
        <ele>5.3</ele>
        <time>2024-11-10T14:50:47Z</time>
      </trkpt>
      <trkpt lat="42.2891" lon="3.27945">
        <ele>5.3</ele>
        <time>2024-11-10T14:50:48Z</time>
      </trkpt>
      <trkpt lat="42.2891" lon="3.27945">
        <ele>5.3</ele>
        <time>2024-11-10T14:50:49Z</time>
      </trkpt>
      <trkpt lat="42.2891" lon="3.27945">
        <ele>5.3</ele>
        <time>2024-11-10T14:50:50Z</time>
      </trkpt>
      <trkpt lat="42.2891" lon="3.27945">
        <ele>5.3</ele>
        <time>2024-11-10T14:50:51Z</time>
      </trkpt>
      <trkpt lat="42.2891" lon="3.27945">
        <ele>5.3</ele>
        <time>2024-11-10T14:50:52Z</time>
      </trkpt>
      <trkpt lat="42.2891" lon="3.27945">
        <ele>5.3</ele>
        <time>2024-11-10T14:50:53Z</time>
      </trkpt>
      <trkpt lat="42.2891" lon="3.27945">
        <ele>5.3</ele>
        <time>2024-11-10T14:50:54Z</time>
      </trkpt>
      <trkpt lat="42.2891" lon="3.27945">
        <ele>5.3</ele>
        <time>2024-11-10T14:50:55Z</time>
      </trkpt>
      <trkpt lat="42.2891" lon="3.27945">
        <ele>5.3</ele>
        <time>2024-11-10T14:50:56Z</time>
      </trkpt>
      <trkpt lat="42.2891" lon="3.27945">
        <ele>5.3</ele>
        <time>2024-11-10T14:50:57Z</time>
      </trkpt>
      <trkpt lat="42.2891" lon="3.27945">
        <ele>5.3</ele>
        <time>2024-11-10T14:50:58Z</time>
      </trkpt>
      <trkpt lat="42.2891" lon="3.27945">
        <ele>5.3</ele>
        <time>2024-11-10T14:50:59Z</time>
      </trkpt>
      <trkpt lat="42.2891" lon="3.27945">
        <ele>5.3</ele>
        <time>2024-11-10T14:51:00Z</time>
      </trkpt>
      <trkpt lat="42.2891" lon="3.27945">
        <ele>5.3</ele>
        <time>2024-11-10T14:51:01Z</time>
      </trkpt>
      <trkpt lat="42.2891" lon="3.27945">
        <ele>5.3</ele>
        <time>2024-11-10T14:51:02Z</time>
      </trkpt>
      <trkpt lat="42.2891" lon="3.27945">
        <ele>5.3</ele>
        <time>2024-11-10T14:51:03Z</time>
      </trkpt>
      <trkpt lat="42.2891" lon="3.27945">
        <ele>5.3</ele>
        <time>2024-11-10T14:51:04Z</time>
      </trkpt>
      <trkpt lat="42.2891" lon="3.27945">
        <ele>5.3</ele>
        <time>2024-11-10T14:51:05Z</time>
      </trkpt>
      <trkpt lat="42.2891" lon="3.27945">
        <ele>5.3</ele>
        <time>2024-11-10T14:51:06Z</time>
      </trkpt>
      <trkpt lat="42.2891" lon="3.27945">
        <ele>5.3</ele>
        <time>2024-11-10T14:51:07Z</time>
      </trkpt>
      <trkpt lat="42.2891" lon="3.27945">
        <ele>5.3</ele>
        <time>2024-11-10T14:51:08Z</time>
      </trkpt>
      <trkpt lat="42.2891" lon="3.27945">
        <ele>5.3</ele>
        <time>2024-11-10T14:51:09Z</time>
      </trkpt>
      <trkpt lat="42.2891" lon="3.27945">
        <ele>5.3</ele>
        <time>2024-11-10T14:51:10Z</time>
      </trkpt>
      <trkpt lat="42.2891" lon="3.27945">
        <ele>5.3</ele>
        <time>2024-11-10T14:51:11Z</time>
      </trkpt>
      <trkpt lat="42.2891" lon="3.27945">
        <ele>5.3</ele>
        <time>2024-11-10T14:51:12Z</time>
      </trkpt>
      <trkpt lat="42.2891" lon="3.27945">
        <ele>5.3</ele>
        <time>2024-11-10T14:51:13Z</time>
      </trkpt>
      <trkpt lat="42.2891" lon="3.27945">
        <ele>5.3</ele>
        <time>2024-11-10T14:51:14Z</time>
      </trkpt>
      <trkpt lat="42.2891" lon="3.27945">
        <ele>5.3</ele>
        <time>2024-11-10T14:51:15Z</time>
      </trkpt>
      <trkpt lat="42.2891" lon="3.27945">
        <ele>5.3</ele>
        <time>2024-11-10T14:51:16Z</time>
      </trkpt>
      <trkpt lat="42.2891" lon="3.27945">
        <ele>5.3</ele>
        <time>2024-11-10T14:51:17Z</time>
      </trkpt>
      <trkpt lat="42.2891" lon="3.27945">
        <ele>5.3</ele>
        <time>2024-11-10T14:51:18Z</time>
      </trkpt>
      <trkpt lat="42.2891" lon="3.27945">
        <ele>5.3</ele>
        <time>2024-11-10T14:51:19Z</time>
      </trkpt>
      <trkpt lat="42.2891" lon="3.27945">
        <ele>5.3</ele>
        <time>2024-11-10T14:51:20Z</time>
      </trkpt>
      <trkpt lat="42.2891" lon="3.27945">
        <ele>5.3</ele>
        <time>2024-11-10T14:51:21Z</time>
      </trkpt>
      <trkpt lat="42.2891" lon="3.27945">
        <ele>5.3</ele>
        <time>2024-11-10T14:51:22Z</time>
      </trkpt>
      <trkpt lat="42.2891" lon="3.27945">
        <ele>5.3</ele>
        <time>2024-11-10T14:51:23Z</time>
      </trkpt>
      <trkpt lat="42.2891" lon="3.27945">
        <ele>5.3</ele>
        <time>2024-11-10T14:51:24Z</time>
      </trkpt>
      <trkpt lat="42.2891" lon="3.27945">
        <ele>5.3</ele>
        <time>2024-11-10T14:51:25Z</time>
      </trkpt>
      <trkpt lat="42.2891" lon="3.27945">
        <ele>5.3</ele>
        <time>2024-11-10T14:51:26Z</time>
      </trkpt>
      <trkpt lat="42.2891" lon="3.27945">
        <ele>5.3</ele>
        <time>2024-11-10T14:51:27Z</time>
      </trkpt>
      <trkpt lat="42.2891" lon="3.27945">
        <ele>5.3</ele>
        <time>2024-11-10T14:51:28Z</time>
      </trkpt>
      <trkpt lat="42.2891" lon="3.27945">
        <ele>5.3</ele>
        <time>2024-11-10T14:51:29Z</time>
      </trkpt>
      <trkpt lat="42.2891" lon="3.27945">
        <ele>5.3</ele>
        <time>2024-11-10T14:51:30Z</time>
      </trkpt>
      <trkpt lat="42.2891" lon="3.27945">
        <ele>5.3</ele>
        <time>2024-11-10T14:51:31Z</time>
      </trkpt>
      <trkpt lat="42.2891" lon="3.27945">
        <ele>5.3</ele>
        <time>2024-11-10T14:51:32Z</time>
      </trkpt>
      <trkpt lat="42.2891" lon="3.27945">
        <ele>5.3</ele>
        <time>2024-11-10T14:51:33Z</time>
      </trkpt>
      <trkpt lat="42.2891" lon="3.27945">
        <ele>5.3</ele>
        <time>2024-11-10T14:51:34Z</time>
      </trkpt>
      <trkpt lat="42.2891" lon="3.27945">
        <ele>5.3</ele>
        <time>2024-11-10T14:51:35Z</time>
      </trkpt>
      <trkpt lat="42.2891" lon="3.27945">
        <ele>5.3</ele>
        <time>2024-11-10T14:51:36Z</time>
      </trkpt>
      <trkpt lat="42.2891" lon="3.27946">
        <ele>5.3</ele>
        <time>2024-11-10T14:51:37Z</time>
      </trkpt>
      <trkpt lat="42.2891" lon="3.27946">
        <ele>5.3</ele>
        <time>2024-11-10T14:51:38Z</time>
      </trkpt>
      <trkpt lat="42.2891" lon="3.27946">
        <ele>5.3</ele>
        <time>2024-11-10T14:51:39Z</time>
      </trkpt>
      <trkpt lat="42.2891" lon="3.27946">
        <ele>5.3</ele>
        <time>2024-11-10T14:51:40Z</time>
      </trkpt>
      <trkpt lat="42.2891" lon="3.27946">
        <ele>5.3</ele>
        <time>2024-11-10T14:51:41Z</time>
      </trkpt>
      <trkpt lat="42.2891" lon="3.27946">
        <ele>5.3</ele>
        <time>2024-11-10T14:51:42Z</time>
      </trkpt>
      <trkpt lat="42.2891" lon="3.27946">
        <ele>5.3</ele>
        <time>2024-11-10T14:51:43Z</time>
      </trkpt>
      <trkpt lat="42.2891" lon="3.27946">
        <ele>5.3</ele>
        <time>2024-11-10T14:51:44Z</time>
      </trkpt>
      <trkpt lat="42.2891" lon="3.27946">
        <ele>5.3</ele>
        <time>2024-11-10T14:51:45Z</time>
      </trkpt>
      <trkpt lat="42.2891" lon="3.27946">
        <ele>5.3</ele>
        <time>2024-11-10T14:51:46Z</time>
      </trkpt>
      <trkpt lat="42.2891" lon="3.27946">
        <ele>5.3</ele>
        <time>2024-11-10T14:51:48Z</time>
      </trkpt>
      <trkpt lat="42.2891" lon="3.27946">
        <ele>5.3</ele>
        <time>2024-11-10T14:51:50Z</time>
      </trkpt>
      <trkpt lat="42.2891" lon="3.27946">
        <ele>5.3</ele>
        <time>2024-11-10T14:51:51Z</time>
      </trkpt>
      <trkpt lat="42.2891" lon="3.27946">
        <ele>5.3</ele>
        <time>2024-11-10T14:51:52Z</time>
      </trkpt>
      <trkpt lat="42.2891" lon="3.27946">
        <ele>5.3</ele>
        <time>2024-11-10T14:51:53Z</time>
      </trkpt>
      <trkpt lat="42.2891" lon="3.27946">
        <ele>5.3</ele>
        <time>2024-11-10T14:51:54Z</time>
      </trkpt>
      <trkpt lat="42.2891" lon="3.27946">
        <ele>5.3</ele>
        <time>2024-11-10T14:51:55Z</time>
      </trkpt>
      <trkpt lat="42.2891" lon="3.27946">
        <ele>5.3</ele>
        <time>2024-11-10T14:51:56Z</time>
      </trkpt>
      <trkpt lat="42.2891" lon="3.27946">
        <ele>5.3</ele>
        <time>2024-11-10T14:51:57Z</time>
      </trkpt>
      <trkpt lat="42.2891" lon="3.27946">
        <ele>5.3</ele>
        <time>2024-11-10T14:51:58Z</time>
      </trkpt>
      <trkpt lat="42.2891" lon="3.27946">
        <ele>5.3</ele>
        <time>2024-11-10T14:51:59Z</time>
      </trkpt>
      <trkpt lat="42.2891" lon="3.27946">
        <ele>5.3</ele>
        <time>2024-11-10T14:52:00Z</time>
      </trkpt>
      <trkpt lat="42.2891" lon="3.27946">
        <ele>5.3</ele>
        <time>2024-11-10T14:52:01Z</time>
      </trkpt>
      <trkpt lat="42.2891" lon="3.27946">
        <ele>5.3</ele>
        <time>2024-11-10T14:52:02Z</time>
      </trkpt>
      <trkpt lat="42.2891" lon="3.27946">
        <ele>5.3</ele>
        <time>2024-11-10T14:52:03Z</time>
      </trkpt>
      <trkpt lat="42.2891" lon="3.27946">
        <ele>5.3</ele>
        <time>2024-11-10T14:52:04Z</time>
      </trkpt>
      <trkpt lat="42.2891" lon="3.27946">
        <ele>5.3</ele>
        <time>2024-11-10T14:52:05Z</time>
      </trkpt>
      <trkpt lat="42.2891" lon="3.27946">
        <ele>5.3</ele>
        <time>2024-11-10T14:52:06Z</time>
      </trkpt>
      <trkpt lat="42.2891" lon="3.27946">
        <ele>5.3</ele>
        <time>2024-11-10T14:52:07Z</time>
      </trkpt>
      <trkpt lat="42.2891" lon="3.27946">
        <ele>5.3</ele>
        <time>2024-11-10T14:52:09Z</time>
      </trkpt>
      <trkpt lat="42.2891" lon="3.27946">
        <ele>5.3</ele>
        <time>2024-11-10T14:52:10Z</time>
      </trkpt>
      <trkpt lat="42.2891" lon="3.27946">
        <ele>5.3</ele>
        <time>2024-11-10T14:52:11Z</time>
      </trkpt>
      <trkpt lat="42.2891" lon="3.27946">
        <ele>5.3</ele>
        <time>2024-11-10T14:52:12Z</time>
      </trkpt>
      <trkpt lat="42.2891" lon="3.27946">
        <ele>5.3</ele>
        <time>2024-11-10T14:52:13Z</time>
      </trkpt>
      <trkpt lat="42.2891" lon="3.27946">
        <ele>5.3</ele>
        <time>2024-11-10T14:52:14Z</time>
      </trkpt>
      <trkpt lat="42.2891" lon="3.27946">
        <ele>5.3</ele>
        <time>2024-11-10T14:52:15Z</time>
      </trkpt>
      <trkpt lat="42.2891" lon="3.27946">
        <ele>5.3</ele>
        <time>2024-11-10T14:52:16Z</time>
      </trkpt>
      <trkpt lat="42.2891" lon="3.27946">
        <ele>5.3</ele>
        <time>2024-11-10T14:52:17Z</time>
      </trkpt>
      <trkpt lat="42.2891" lon="3.27946">
        <ele>5.3</ele>
        <time>2024-11-10T14:52:18Z</time>
      </trkpt>
      <trkpt lat="42.2891" lon="3.27946">
        <ele>5.3</ele>
        <time>2024-11-10T14:52:19Z</time>
      </trkpt>
      <trkpt lat="42.2891" lon="3.27946">
        <ele>5.3</ele>
        <time>2024-11-10T14:52:20Z</time>
      </trkpt>
      <trkpt lat="42.2891" lon="3.27946">
        <ele>5.3</ele>
        <time>2024-11-10T14:52:21Z</time>
      </trkpt>
      <trkpt lat="42.2891" lon="3.27946">
        <ele>5.3</ele>
        <time>2024-11-10T14:52:22Z</time>
      </trkpt>
      <trkpt lat="42.2891" lon="3.27946">
        <ele>5.3</ele>
        <time>2024-11-10T14:52:23Z</time>
      </trkpt>
      <trkpt lat="42.2891" lon="3.27946">
        <ele>5.3</ele>
        <time>2024-11-10T14:52:24Z</time>
      </trkpt>
      <trkpt lat="42.2891" lon="3.27946">
        <ele>5.3</ele>
        <time>2024-11-10T14:52:25Z</time>
      </trkpt>
      <trkpt lat="42.2891" lon="3.27946">
        <ele>5.3</ele>
        <time>2024-11-10T14:52:26Z</time>
      </trkpt>
      <trkpt lat="42.2891" lon="3.27946">
        <ele>5.3</ele>
        <time>2024-11-10T14:52:27Z</time>
      </trkpt>
      <trkpt lat="42.2891" lon="3.27946">
        <ele>5.3</ele>
        <time>2024-11-10T14:52:28Z</time>
      </trkpt>
      <trkpt lat="42.2891" lon="3.27946">
        <ele>5.3</ele>
        <time>2024-11-10T14:52:29Z</time>
      </trkpt>
      <trkpt lat="42.2891" lon="3.27946">
        <ele>5.3</ele>
        <time>2024-11-10T14:52:30Z</time>
      </trkpt>
      <trkpt lat="42.2891" lon="3.27946">
        <ele>5.3</ele>
        <time>2024-11-10T14:52:31Z</time>
      </trkpt>
      <trkpt lat="42.2891" lon="3.27946">
        <ele>5.3</ele>
        <time>2024-11-10T14:52:32Z</time>
      </trkpt>
      <trkpt lat="42.2891" lon="3.27946">
        <ele>5.3</ele>
        <time>2024-11-10T14:52:33Z</time>
      </trkpt>
      <trkpt lat="42.2891" lon="3.27946">
        <ele>5.3</ele>
        <time>2024-11-10T14:52:34Z</time>
      </trkpt>
      <trkpt lat="42.2891" lon="3.27946">
        <ele>5.3</ele>
        <time>2024-11-10T14:52:35Z</time>
      </trkpt>
      <trkpt lat="42.2891" lon="3.27946">
        <ele>5.3</ele>
        <time>2024-11-10T14:52:36Z</time>
      </trkpt>
      <trkpt lat="42.2891" lon="3.27946">
        <ele>5.3</ele>
        <time>2024-11-10T14:52:37Z</time>
      </trkpt>
      <trkpt lat="42.2891" lon="3.27946">
        <ele>5.3</ele>
        <time>2024-11-10T14:52:38Z</time>
      </trkpt>
      <trkpt lat="42.2891" lon="3.27946">
        <ele>5.3</ele>
        <time>2024-11-10T14:52:39Z</time>
      </trkpt>
      <trkpt lat="42.2891" lon="3.27946">
        <ele>5.3</ele>
        <time>2024-11-10T14:52:40Z</time>
      </trkpt>
      <trkpt lat="42.2891" lon="3.27946">
        <ele>5.3</ele>
        <time>2024-11-10T14:52:41Z</time>
      </trkpt>
      <trkpt lat="42.2891" lon="3.27946">
        <ele>5.3</ele>
        <time>2024-11-10T14:52:42Z</time>
      </trkpt>
      <trkpt lat="42.2891" lon="3.27946">
        <ele>5.3</ele>
        <time>2024-11-10T14:52:43Z</time>
      </trkpt>
      <trkpt lat="42.2891" lon="3.27946">
        <ele>5.3</ele>
        <time>2024-11-10T14:52:44Z</time>
      </trkpt>
      <trkpt lat="42.2891" lon="3.27946">
        <ele>5.3</ele>
        <time>2024-11-10T14:52:45Z</time>
      </trkpt>
      <trkpt lat="42.2891" lon="3.27946">
        <ele>5.3</ele>
        <time>2024-11-10T14:52:46Z</time>
      </trkpt>
      <trkpt lat="42.2891" lon="3.27946">
        <ele>5.3</ele>
        <time>2024-11-10T14:52:47Z</time>
      </trkpt>
      <trkpt lat="42.2891" lon="3.27946">
        <ele>5.3</ele>
        <time>2024-11-10T14:52:48Z</time>
      </trkpt>
      <trkpt lat="42.2891" lon="3.27946">
        <ele>5.3</ele>
        <time>2024-11-10T14:52:49Z</time>
      </trkpt>
      <trkpt lat="42.2891" lon="3.27946">
        <ele>5.3</ele>
        <time>2024-11-10T14:52:50Z</time>
      </trkpt>
      <trkpt lat="42.2891" lon="3.27946">
        <ele>5.3</ele>
        <time>2024-11-10T14:52:51Z</time>
      </trkpt>
      <trkpt lat="42.2891" lon="3.27946">
        <ele>5.3</ele>
        <time>2024-11-10T14:52:52Z</time>
      </trkpt>
      <trkpt lat="42.2891" lon="3.27946">
        <ele>5.3</ele>
        <time>2024-11-10T14:52:53Z</time>
      </trkpt>
      <trkpt lat="42.2891" lon="3.27946">
        <ele>5.3</ele>
        <time>2024-11-10T14:52:54Z</time>
      </trkpt>
      <trkpt lat="42.2891" lon="3.27946">
        <ele>5.3</ele>
        <time>2024-11-10T14:52:55Z</time>
      </trkpt>
      <trkpt lat="42.2891" lon="3.27946">
        <ele>5.3</ele>
        <time>2024-11-10T14:52:56Z</time>
      </trkpt>
      <trkpt lat="42.2891" lon="3.27946">
        <ele>5.3</ele>
        <time>2024-11-10T14:52:57Z</time>
      </trkpt>
      <trkpt lat="42.2891" lon="3.27946">
        <ele>5.3</ele>
        <time>2024-11-10T14:52:58Z</time>
      </trkpt>
      <trkpt lat="42.2891" lon="3.27946">
        <ele>5.3</ele>
        <time>2024-11-10T14:52:59Z</time>
      </trkpt>
      <trkpt lat="42.2891" lon="3.27946">
        <ele>5.3</ele>
        <time>2024-11-10T14:53:00Z</time>
      </trkpt>
      <trkpt lat="42.2891" lon="3.27946">
        <ele>5.3</ele>
        <time>2024-11-10T14:53:01Z</time>
      </trkpt>
      <trkpt lat="42.2891" lon="3.27946">
        <ele>5.3</ele>
        <time>2024-11-10T14:53:02Z</time>
      </trkpt>
      <trkpt lat="42.2891" lon="3.27946">
        <ele>5.3</ele>
        <time>2024-11-10T14:53:03Z</time>
      </trkpt>
      <trkpt lat="42.2891" lon="3.27946">
        <ele>5.3</ele>
        <time>2024-11-10T14:53:04Z</time>
      </trkpt>
      <trkpt lat="42.2891" lon="3.27946">
        <ele>5.3</ele>
        <time>2024-11-10T14:53:05Z</time>
      </trkpt>
      <trkpt lat="42.2891" lon="3.27946">
        <ele>5.3</ele>
        <time>2024-11-10T14:53:06Z</time>
      </trkpt>
      <trkpt lat="42.2891" lon="3.27946">
        <ele>5.3</ele>
        <time>2024-11-10T14:53:07Z</time>
      </trkpt>
      <trkpt lat="42.2891" lon="3.27946">
        <ele>5.3</ele>
        <time>2024-11-10T14:53:08Z</time>
      </trkpt>
      <trkpt lat="42.2891" lon="3.27946">
        <ele>5.3</ele>
        <time>2024-11-10T14:53:09Z</time>
      </trkpt>
      <trkpt lat="42.2891" lon="3.27946">
        <ele>5.3</ele>
        <time>2024-11-10T14:53:10Z</time>
      </trkpt>
      <trkpt lat="42.2891" lon="3.27946">
        <ele>5.3</ele>
        <time>2024-11-10T14:53:11Z</time>
      </trkpt>
      <trkpt lat="42.2891" lon="3.27946">
        <ele>5.3</ele>
        <time>2024-11-10T14:53:12Z</time>
      </trkpt>
      <trkpt lat="42.2891" lon="3.27946">
        <ele>5.3</ele>
        <time>2024-11-10T14:53:13Z</time>
      </trkpt>
      <trkpt lat="42.2891" lon="3.27946">
        <ele>5.3</ele>
        <time>2024-11-10T14:53:14Z</time>
      </trkpt>
      <trkpt lat="42.2891" lon="3.27946">
        <ele>5.3</ele>
        <time>2024-11-10T14:53:15Z</time>
      </trkpt>
      <trkpt lat="42.2891" lon="3.27946">
        <ele>5.3</ele>
        <time>2024-11-10T14:53:16Z</time>
      </trkpt>
      <trkpt lat="42.2891" lon="3.27946">
        <ele>5.3</ele>
        <time>2024-11-10T14:53:17Z</time>
      </trkpt>
      <trkpt lat="42.2891" lon="3.27946">
        <ele>5.3</ele>
        <time>2024-11-10T14:53:18Z</time>
      </trkpt>
      <trkpt lat="42.2891" lon="3.27946">
        <ele>5.3</ele>
        <time>2024-11-10T14:53:19Z</time>
      </trkpt>
      <trkpt lat="42.2891" lon="3.27946">
        <ele>5.3</ele>
        <time>2024-11-10T14:53:20Z</time>
      </trkpt>
      <trkpt lat="42.2891" lon="3.27946">
        <ele>5.3</ele>
        <time>2024-11-10T14:53:21Z</time>
      </trkpt>
      <trkpt lat="42.2891" lon="3.27946">
        <ele>5.3</ele>
        <time>2024-11-10T14:53:22Z</time>
      </trkpt>
      <trkpt lat="42.2891" lon="3.27946">
        <ele>5.3</ele>
        <time>2024-11-10T14:53:23Z</time>
      </trkpt>
      <trkpt lat="42.2891" lon="3.27946">
        <ele>5.3</ele>
        <time>2024-11-10T14:53:24Z</time>
      </trkpt>
      <trkpt lat="42.2891" lon="3.27946">
        <ele>5.3</ele>
        <time>2024-11-10T14:53:25Z</time>
      </trkpt>
      <trkpt lat="42.2891" lon="3.27946">
        <ele>5.3</ele>
        <time>2024-11-10T14:53:26Z</time>
      </trkpt>
      <trkpt lat="42.2891" lon="3.27946">
        <ele>5.3</ele>
        <time>2024-11-10T14:53:27Z</time>
      </trkpt>
      <trkpt lat="42.2891" lon="3.27946">
        <ele>5.3</ele>
        <time>2024-11-10T14:53:28Z</time>
      </trkpt>
      <trkpt lat="42.2891" lon="3.27946">
        <ele>5.3</ele>
        <time>2024-11-10T14:53:29Z</time>
      </trkpt>
      <trkpt lat="42.2891" lon="3.27946">
        <ele>5.3</ele>
        <time>2024-11-10T14:53:30Z</time>
      </trkpt>
      <trkpt lat="42.2891" lon="3.27946">
        <ele>5.3</ele>
        <time>2024-11-10T14:53:31Z</time>
      </trkpt>
      <trkpt lat="42.2891" lon="3.27946">
        <ele>5.3</ele>
        <time>2024-11-10T14:53:32Z</time>
      </trkpt>
      <trkpt lat="42.2891" lon="3.27946">
        <ele>5.3</ele>
        <time>2024-11-10T14:53:33Z</time>
      </trkpt>
      <trkpt lat="42.2891" lon="3.27946">
        <ele>5.3</ele>
        <time>2024-11-10T14:53:34Z</time>
      </trkpt>
      <trkpt lat="42.2891" lon="3.27946">
        <ele>5.3</ele>
        <time>2024-11-10T14:53:35Z</time>
      </trkpt>
      <trkpt lat="42.2891" lon="3.27946">
        <ele>5.3</ele>
        <time>2024-11-10T14:53:36Z</time>
      </trkpt>
      <trkpt lat="42.2891" lon="3.27946">
        <ele>5.3</ele>
        <time>2024-11-10T14:53:37Z</time>
      </trkpt>
      <trkpt lat="42.2891" lon="3.27946">
        <ele>5.3</ele>
        <time>2024-11-10T14:53:38Z</time>
      </trkpt>
      <trkpt lat="42.2891" lon="3.27946">
        <ele>5.3</ele>
        <time>2024-11-10T14:53:39Z</time>
      </trkpt>
      <trkpt lat="42.2891" lon="3.27946">
        <ele>5.3</ele>
        <time>2024-11-10T14:53:40Z</time>
      </trkpt>
      <trkpt lat="42.2891" lon="3.27946">
        <ele>5.3</ele>
        <time>2024-11-10T14:53:41Z</time>
      </trkpt>
      <trkpt lat="42.2891" lon="3.27946">
        <ele>5.3</ele>
        <time>2024-11-10T14:53:42Z</time>
      </trkpt>
      <trkpt lat="42.2891" lon="3.27946">
        <ele>5.3</ele>
        <time>2024-11-10T14:53:43Z</time>
      </trkpt>
      <trkpt lat="42.2891" lon="3.27946">
        <ele>5.3</ele>
        <time>2024-11-10T14:53:44Z</time>
      </trkpt>
      <trkpt lat="42.2891" lon="3.27946">
        <ele>5.3</ele>
        <time>2024-11-10T14:53:45Z</time>
      </trkpt>
      <trkpt lat="42.2891" lon="3.27946">
        <ele>5.3</ele>
        <time>2024-11-10T14:53:46Z</time>
      </trkpt>
      <trkpt lat="42.2891" lon="3.27946">
        <ele>5.3</ele>
        <time>2024-11-10T14:53:47Z</time>
      </trkpt>
      <trkpt lat="42.2891" lon="3.27946">
        <ele>5.3</ele>
        <time>2024-11-10T14:53:48Z</time>
      </trkpt>
      <trkpt lat="42.2891" lon="3.27946">
        <ele>5.3</ele>
        <time>2024-11-10T14:53:49Z</time>
      </trkpt>
      <trkpt lat="42.2891" lon="3.27946">
        <ele>5.3</ele>
        <time>2024-11-10T14:53:50Z</time>
      </trkpt>
      <trkpt lat="42.2891" lon="3.27946">
        <ele>5.3</ele>
        <time>2024-11-10T14:53:51Z</time>
      </trkpt>
      <trkpt lat="42.2891" lon="3.27946">
        <ele>5.3</ele>
        <time>2024-11-10T14:53:52Z</time>
      </trkpt>
      <trkpt lat="42.2891" lon="3.27946">
        <ele>5.3</ele>
        <time>2024-11-10T14:53:53Z</time>
      </trkpt>
      <trkpt lat="42.2891" lon="3.27946">
        <ele>5.3</ele>
        <time>2024-11-10T14:53:54Z</time>
      </trkpt>
      <trkpt lat="42.2891" lon="3.27946">
        <ele>5.3</ele>
        <time>2024-11-10T14:53:55Z</time>
      </trkpt>
      <trkpt lat="42.2891" lon="3.27946">
        <ele>5.3</ele>
        <time>2024-11-10T14:53:56Z</time>
      </trkpt>
      <trkpt lat="42.2891" lon="3.27946">
        <ele>5.3</ele>
        <time>2024-11-10T14:53:57Z</time>
      </trkpt>
      <trkpt lat="42.2891" lon="3.27946">
        <ele>5.3</ele>
        <time>2024-11-10T14:53:58Z</time>
      </trkpt>
      <trkpt lat="42.2891" lon="3.27946">
        <ele>5.3</ele>
        <time>2024-11-10T14:53:59Z</time>
      </trkpt>
      <trkpt lat="42.2891" lon="3.27946">
        <ele>5.3</ele>
        <time>2024-11-10T14:54:00Z</time>
      </trkpt>
      <trkpt lat="42.2891" lon="3.27946">
        <ele>5.3</ele>
        <time>2024-11-10T14:54:01Z</time>
      </trkpt>
      <trkpt lat="42.2891" lon="3.27946">
        <ele>5.3</ele>
        <time>2024-11-10T14:54:02Z</time>
      </trkpt>
      <trkpt lat="42.2891" lon="3.27946">
        <ele>5.3</ele>
        <time>2024-11-10T14:54:03Z</time>
      </trkpt>
      <trkpt lat="42.2891" lon="3.27946">
        <ele>5.3</ele>
        <time>2024-11-10T14:54:04Z</time>
      </trkpt>
      <trkpt lat="42.2891" lon="3.27946">
        <ele>5.3</ele>
        <time>2024-11-10T14:54:05Z</time>
      </trkpt>
      <trkpt lat="42.2891" lon="3.27946">
        <ele>5.3</ele>
        <time>2024-11-10T14:54:06Z</time>
      </trkpt>
      <trkpt lat="42.2891" lon="3.27946">
        <ele>5.3</ele>
        <time>2024-11-10T14:54:07Z</time>
      </trkpt>
      <trkpt lat="42.2891" lon="3.27946">
        <ele>5.3</ele>
        <time>2024-11-10T14:54:08Z</time>
      </trkpt>
      <trkpt lat="42.2891" lon="3.27946">
        <ele>5.3</ele>
        <time>2024-11-10T14:54:09Z</time>
      </trkpt>
      <trkpt lat="42.2891" lon="3.27946">
        <ele>5.3</ele>
        <time>2024-11-10T14:54:10Z</time>
      </trkpt>
      <trkpt lat="42.2891" lon="3.27946">
        <ele>5.3</ele>
        <time>2024-11-10T14:54:11Z</time>
      </trkpt>
      <trkpt lat="42.2891" lon="3.27946">
        <ele>5.3</ele>
        <time>2024-11-10T14:54:12Z</time>
      </trkpt>
      <trkpt lat="42.2891" lon="3.27946">
        <ele>5.3</ele>
        <time>2024-11-10T14:54:13Z</time>
      </trkpt>
      <trkpt lat="42.2891" lon="3.27946">
        <ele>5.3</ele>
        <time>2024-11-10T14:54:14Z</time>
      </trkpt>
      <trkpt lat="42.2891" lon="3.27946">
        <ele>5.3</ele>
        <time>2024-11-10T14:54:15Z</time>
      </trkpt>
      <trkpt lat="42.2891" lon="3.27946">
        <ele>5.3</ele>
        <time>2024-11-10T14:54:16Z</time>
      </trkpt>
      <trkpt lat="42.2891" lon="3.27946">
        <ele>5.3</ele>
        <time>2024-11-10T14:54:17Z</time>
      </trkpt>
      <trkpt lat="42.2891" lon="3.27946">
        <ele>5.3</ele>
        <time>2024-11-10T14:54:18Z</time>
      </trkpt>
      <trkpt lat="42.2891" lon="3.27946">
        <ele>5.3</ele>
        <time>2024-11-10T14:54:19Z</time>
      </trkpt>
      <trkpt lat="42.2891" lon="3.27946">
        <ele>5.3</ele>
        <time>2024-11-10T14:54:20Z</time>
      </trkpt>
      <trkpt lat="42.2891" lon="3.27946">
        <ele>5.3</ele>
        <time>2024-11-10T14:54:21Z</time>
      </trkpt>
      <trkpt lat="42.2891" lon="3.27946">
        <ele>5.3</ele>
        <time>2024-11-10T14:54:22Z</time>
      </trkpt>
      <trkpt lat="42.2891" lon="3.27946">
        <ele>5.3</ele>
        <time>2024-11-10T14:54:23Z</time>
      </trkpt>
      <trkpt lat="42.2891" lon="3.27946">
        <ele>5.3</ele>
        <time>2024-11-10T14:54:24Z</time>
      </trkpt>
      <trkpt lat="42.2891" lon="3.27946">
        <ele>5.3</ele>
        <time>2024-11-10T14:54:25Z</time>
      </trkpt>
      <trkpt lat="42.2891" lon="3.27946">
        <ele>5.3</ele>
        <time>2024-11-10T14:54:26Z</time>
      </trkpt>
      <trkpt lat="42.2891" lon="3.27946">
        <ele>5.3</ele>
        <time>2024-11-10T14:54:27Z</time>
      </trkpt>
      <trkpt lat="42.2891" lon="3.27946">
        <ele>5.3</ele>
        <time>2024-11-10T14:54:28Z</time>
      </trkpt>
      <trkpt lat="42.2891" lon="3.27946">
        <ele>5.3</ele>
        <time>2024-11-10T14:54:29Z</time>
      </trkpt>
      <trkpt lat="42.2891" lon="3.27946">
        <ele>5.3</ele>
        <time>2024-11-10T14:54:30Z</time>
      </trkpt>
      <trkpt lat="42.2891" lon="3.27946">
        <ele>5.3</ele>
        <time>2024-11-10T14:54:31Z</time>
      </trkpt>
      <trkpt lat="42.2891" lon="3.27946">
        <ele>5.3</ele>
        <time>2024-11-10T14:54:32Z</time>
      </trkpt>
      <trkpt lat="42.2891" lon="3.27946">
        <ele>5.3</ele>
        <time>2024-11-10T14:54:33Z</time>
      </trkpt>
      <trkpt lat="42.2891" lon="3.27946">
        <ele>5.3</ele>
        <time>2024-11-10T14:54:34Z</time>
      </trkpt>
      <trkpt lat="42.2891" lon="3.27946">
        <ele>5.3</ele>
        <time>2024-11-10T14:54:35Z</time>
      </trkpt>
      <trkpt lat="42.2891" lon="3.27946">
        <ele>5.3</ele>
        <time>2024-11-10T14:54:36Z</time>
      </trkpt>
      <trkpt lat="42.2891" lon="3.27946">
        <ele>5.3</ele>
        <time>2024-11-10T14:54:37Z</time>
      </trkpt>
      <trkpt lat="42.2891" lon="3.27946">
        <ele>5.3</ele>
        <time>2024-11-10T14:54:38Z</time>
      </trkpt>
      <trkpt lat="42.2891" lon="3.27946">
        <ele>5.3</ele>
        <time>2024-11-10T14:54:39Z</time>
      </trkpt>
      <trkpt lat="42.2891" lon="3.27946">
        <ele>5.3</ele>
        <time>2024-11-10T14:54:40Z</time>
      </trkpt>
      <trkpt lat="42.2891" lon="3.27946">
        <ele>5.3</ele>
        <time>2024-11-10T14:54:41Z</time>
      </trkpt>
      <trkpt lat="42.2891" lon="3.27946">
        <ele>5.3</ele>
        <time>2024-11-10T14:54:42Z</time>
      </trkpt>
      <trkpt lat="42.2891" lon="3.27946">
        <ele>5.3</ele>
        <time>2024-11-10T14:54:43Z</time>
      </trkpt>
      <trkpt lat="42.2891" lon="3.27946">
        <ele>5.3</ele>
        <time>2024-11-10T14:54:44Z</time>
      </trkpt>
      <trkpt lat="42.2891" lon="3.27946">
        <ele>5.3</ele>
        <time>2024-11-10T14:54:45Z</time>
      </trkpt>
      <trkpt lat="42.2891" lon="3.27946">
        <ele>5.3</ele>
        <time>2024-11-10T14:54:46Z</time>
      </trkpt>
      <trkpt lat="42.2891" lon="3.27946">
        <ele>5.3</ele>
        <time>2024-11-10T14:54:47Z</time>
      </trkpt>
      <trkpt lat="42.2891" lon="3.27946">
        <ele>5.3</ele>
        <time>2024-11-10T14:54:48Z</time>
      </trkpt>
      <trkpt lat="42.2891" lon="3.27946">
        <ele>5.3</ele>
        <time>2024-11-10T14:54:49Z</time>
      </trkpt>
      <trkpt lat="42.2891" lon="3.27946">
        <ele>5.3</ele>
        <time>2024-11-10T14:54:50Z</time>
      </trkpt>
      <trkpt lat="42.2891" lon="3.27946">
        <ele>5.3</ele>
        <time>2024-11-10T14:54:51Z</time>
      </trkpt>
      <trkpt lat="42.2891" lon="3.27946">
        <ele>5.3</ele>
        <time>2024-11-10T14:54:52Z</time>
      </trkpt>
      <trkpt lat="42.2891" lon="3.27946">
        <ele>5.3</ele>
        <time>2024-11-10T14:54:53Z</time>
      </trkpt>
      <trkpt lat="42.2891" lon="3.27946">
        <ele>5.3</ele>
        <time>2024-11-10T14:54:54Z</time>
      </trkpt>
      <trkpt lat="42.2891" lon="3.27946">
        <ele>5.3</ele>
        <time>2024-11-10T14:54:55Z</time>
      </trkpt>
      <trkpt lat="42.2891" lon="3.27946">
        <ele>5.3</ele>
        <time>2024-11-10T14:54:56Z</time>
      </trkpt>
      <trkpt lat="42.2891" lon="3.27946">
        <ele>5.3</ele>
        <time>2024-11-10T14:54:57Z</time>
      </trkpt>
      <trkpt lat="42.2891" lon="3.27946">
        <ele>5.3</ele>
        <time>2024-11-10T14:54:58Z</time>
      </trkpt>
      <trkpt lat="42.2891" lon="3.27946">
        <ele>5.3</ele>
        <time>2024-11-10T14:54:59Z</time>
      </trkpt>
      <trkpt lat="42.2891" lon="3.27946">
        <ele>5.3</ele>
        <time>2024-11-10T14:55:00Z</time>
      </trkpt>
      <trkpt lat="42.2891" lon="3.27946">
        <ele>5.3</ele>
        <time>2024-11-10T14:55:01Z</time>
      </trkpt>
      <trkpt lat="42.2891" lon="3.27946">
        <ele>5.3</ele>
        <time>2024-11-10T14:55:03Z</time>
      </trkpt>
      <trkpt lat="42.2891" lon="3.27946">
        <ele>5.3</ele>
        <time>2024-11-10T14:55:04Z</time>
      </trkpt>
      <trkpt lat="42.2891" lon="3.27946">
        <ele>5.3</ele>
        <time>2024-11-10T14:55:05Z</time>
      </trkpt>
      <trkpt lat="42.2891" lon="3.27946">
        <ele>5.3</ele>
        <time>2024-11-10T14:55:06Z</time>
      </trkpt>
      <trkpt lat="42.2891" lon="3.27946">
        <ele>5.3</ele>
        <time>2024-11-10T14:55:07Z</time>
      </trkpt>
      <trkpt lat="42.2891" lon="3.27946">
        <ele>5.3</ele>
        <time>2024-11-10T14:55:08Z</time>
      </trkpt>
      <trkpt lat="42.2891" lon="3.27946">
        <ele>5.3</ele>
        <time>2024-11-10T14:55:09Z</time>
      </trkpt>
      <trkpt lat="42.2891" lon="3.27946">
        <ele>5.3</ele>
        <time>2024-11-10T14:55:10Z</time>
      </trkpt>
      <trkpt lat="42.2891" lon="3.27946">
        <ele>5.3</ele>
        <time>2024-11-10T14:55:11Z</time>
      </trkpt>
      <trkpt lat="42.2891" lon="3.27946">
        <ele>5.3</ele>
        <time>2024-11-10T14:55:12Z</time>
      </trkpt>
      <trkpt lat="42.2891" lon="3.27946">
        <ele>5.3</ele>
        <time>2024-11-10T14:55:13Z</time>
      </trkpt>
      <trkpt lat="42.2891" lon="3.27946">
        <ele>5.3</ele>
        <time>2024-11-10T14:55:14Z</time>
      </trkpt>
      <trkpt lat="42.2891" lon="3.27946">
        <ele>5.3</ele>
        <time>2024-11-10T14:55:16Z</time>
      </trkpt>
      <trkpt lat="42.2891" lon="3.27946">
        <ele>5.3</ele>
        <time>2024-11-10T14:55:17Z</time>
      </trkpt>
      <trkpt lat="42.2891" lon="3.27946">
        <ele>5.3</ele>
        <time>2024-11-10T14:55:18Z</time>
      </trkpt>
      <trkpt lat="42.2891" lon="3.27946">
        <ele>5.3</ele>
        <time>2024-11-10T14:55:19Z</time>
      </trkpt>
      <trkpt lat="42.2891" lon="3.27946">
        <ele>5.3</ele>
        <time>2024-11-10T14:55:20Z</time>
      </trkpt>
      <trkpt lat="42.2891" lon="3.27946">
        <ele>5.3</ele>
        <time>2024-11-10T14:55:21Z</time>
      </trkpt>
      <trkpt lat="42.2891" lon="3.27946">
        <ele>5.3</ele>
        <time>2024-11-10T14:55:22Z</time>
      </trkpt>
      <trkpt lat="42.2891" lon="3.27946">
        <ele>5.3</ele>
        <time>2024-11-10T14:55:23Z</time>
      </trkpt>
      <trkpt lat="42.2891" lon="3.27946">
        <ele>5.3</ele>
        <time>2024-11-10T14:55:24Z</time>
      </trkpt>
      <trkpt lat="42.2891" lon="3.27946">
        <ele>5.3</ele>
        <time>2024-11-10T14:55:25Z</time>
      </trkpt>
      <trkpt lat="42.2891" lon="3.27946">
        <ele>5.3</ele>
        <time>2024-11-10T14:55:26Z</time>
      </trkpt>
      <trkpt lat="42.2891" lon="3.27946">
        <ele>5.3</ele>
        <time>2024-11-10T14:55:27Z</time>
      </trkpt>
      <trkpt lat="42.2891" lon="3.27946">
        <ele>5.3</ele>
        <time>2024-11-10T14:55:28Z</time>
      </trkpt>
      <trkpt lat="42.2891" lon="3.27946">
        <ele>5.3</ele>
        <time>2024-11-10T14:55:29Z</time>
      </trkpt>
      <trkpt lat="42.2891" lon="3.27946">
        <ele>5.3</ele>
        <time>2024-11-10T14:55:30Z</time>
      </trkpt>
      <trkpt lat="42.2891" lon="3.27946">
        <ele>5.3</ele>
        <time>2024-11-10T14:55:31Z</time>
      </trkpt>
      <trkpt lat="42.2891" lon="3.27946">
        <ele>5.3</ele>
        <time>2024-11-10T14:55:32Z</time>
      </trkpt>
      <trkpt lat="42.2891" lon="3.27946">
        <ele>5.3</ele>
        <time>2024-11-10T14:55:33Z</time>
      </trkpt>
      <trkpt lat="42.2891" lon="3.27946">
        <ele>5.3</ele>
        <time>2024-11-10T14:55:34Z</time>
      </trkpt>
      <trkpt lat="42.2891" lon="3.27946">
        <ele>5.3</ele>
        <time>2024-11-10T14:55:35Z</time>
      </trkpt>
      <trkpt lat="42.2891" lon="3.27946">
        <ele>5.3</ele>
        <time>2024-11-10T14:55:36Z</time>
      </trkpt>
      <trkpt lat="42.2891" lon="3.27946">
        <ele>5.3</ele>
        <time>2024-11-10T14:55:37Z</time>
      </trkpt>
      <trkpt lat="42.2891" lon="3.27946">
        <ele>5.3</ele>
        <time>2024-11-10T14:55:38Z</time>
      </trkpt>
      <trkpt lat="42.2891" lon="3.27946">
        <ele>5.3</ele>
        <time>2024-11-10T14:55:39Z</time>
      </trkpt>
      <trkpt lat="42.2891" lon="3.27946">
        <ele>5.3</ele>
        <time>2024-11-10T14:55:40Z</time>
      </trkpt>
      <trkpt lat="42.2891" lon="3.27946">
        <ele>5.3</ele>
        <time>2024-11-10T14:55:41Z</time>
      </trkpt>
      <trkpt lat="42.2891" lon="3.27946">
        <ele>5.3</ele>
        <time>2024-11-10T14:55:42Z</time>
      </trkpt>
      <trkpt lat="42.2891" lon="3.27946">
        <ele>5.3</ele>
        <time>2024-11-10T14:55:43Z</time>
      </trkpt>
      <trkpt lat="42.2891" lon="3.27946">
        <ele>5.3</ele>
        <time>2024-11-10T14:55:44Z</time>
      </trkpt>
      <trkpt lat="42.2891" lon="3.27946">
        <ele>5.3</ele>
        <time>2024-11-10T14:55:45Z</time>
      </trkpt>
      <trkpt lat="42.2891" lon="3.27946">
        <ele>5.3</ele>
        <time>2024-11-10T14:55:46Z</time>
      </trkpt>
      <trkpt lat="42.2891" lon="3.27946">
        <ele>5.3</ele>
        <time>2024-11-10T14:55:47Z</time>
      </trkpt>
      <trkpt lat="42.2891" lon="3.27946">
        <ele>5.3</ele>
        <time>2024-11-10T14:55:48Z</time>
      </trkpt>
      <trkpt lat="42.2891" lon="3.27946">
        <ele>5.3</ele>
        <time>2024-11-10T14:55:49Z</time>
      </trkpt>
      <trkpt lat="42.2891" lon="3.27946">
        <ele>5.3</ele>
        <time>2024-11-10T14:55:50Z</time>
      </trkpt>
      <trkpt lat="42.2891" lon="3.27946">
        <ele>5.3</ele>
        <time>2024-11-10T14:55:51Z</time>
      </trkpt>
      <trkpt lat="42.2891" lon="3.27946">
        <ele>5.3</ele>
        <time>2024-11-10T14:55:52Z</time>
      </trkpt>
      <trkpt lat="42.2891" lon="3.27946">
        <ele>5.3</ele>
        <time>2024-11-10T14:55:53Z</time>
      </trkpt>
      <trkpt lat="42.2891" lon="3.27946">
        <ele>5.3</ele>
        <time>2024-11-10T14:55:54Z</time>
      </trkpt>
      <trkpt lat="42.2891" lon="3.27946">
        <ele>5.3</ele>
        <time>2024-11-10T14:55:55Z</time>
      </trkpt>
      <trkpt lat="42.2891" lon="3.27946">
        <ele>5.3</ele>
        <time>2024-11-10T14:55:56Z</time>
      </trkpt>
      <trkpt lat="42.2891" lon="3.27946">
        <ele>5.3</ele>
        <time>2024-11-10T14:55:57Z</time>
      </trkpt>
      <trkpt lat="42.2891" lon="3.27946">
        <ele>5.3</ele>
        <time>2024-11-10T14:55:58Z</time>
      </trkpt>
      <trkpt lat="42.2891" lon="3.27946">
        <ele>5.3</ele>
        <time>2024-11-10T14:55:59Z</time>
      </trkpt>
      <trkpt lat="42.2891" lon="3.27946">
        <ele>5.3</ele>
        <time>2024-11-10T14:56:00Z</time>
      </trkpt>
      <trkpt lat="42.2891" lon="3.27946">
        <ele>5.3</ele>
        <time>2024-11-10T14:56:01Z</time>
      </trkpt>
      <trkpt lat="42.2891" lon="3.27946">
        <ele>5.3</ele>
        <time>2024-11-10T14:56:02Z</time>
      </trkpt>
      <trkpt lat="42.2891" lon="3.27946">
        <ele>5.3</ele>
        <time>2024-11-10T14:56:03Z</time>
      </trkpt>
      <trkpt lat="42.2891" lon="3.27946">
        <ele>5.3</ele>
        <time>2024-11-10T14:56:04Z</time>
      </trkpt>
      <trkpt lat="42.2891" lon="3.27946">
        <ele>5.3</ele>
        <time>2024-11-10T14:56:05Z</time>
      </trkpt>
      <trkpt lat="42.2891" lon="3.27946">
        <ele>5.3</ele>
        <time>2024-11-10T14:56:06Z</time>
      </trkpt>
      <trkpt lat="42.2891" lon="3.27946">
        <ele>5.3</ele>
        <time>2024-11-10T14:56:07Z</time>
      </trkpt>
      <trkpt lat="42.2891" lon="3.27946">
        <ele>5.3</ele>
        <time>2024-11-10T14:56:08Z</time>
      </trkpt>
      <trkpt lat="42.2891" lon="3.27946">
        <ele>5.3</ele>
        <time>2024-11-10T14:56:09Z</time>
      </trkpt>
      <trkpt lat="42.2891" lon="3.27946">
        <ele>5.3</ele>
        <time>2024-11-10T14:56:10Z</time>
      </trkpt>
      <trkpt lat="42.2891" lon="3.27946">
        <ele>5.3</ele>
        <time>2024-11-10T14:56:11Z</time>
      </trkpt>
      <trkpt lat="42.2891" lon="3.27946">
        <ele>5.3</ele>
        <time>2024-11-10T14:56:12Z</time>
      </trkpt>
      <trkpt lat="42.2891" lon="3.27946">
        <ele>5.3</ele>
        <time>2024-11-10T14:56:13Z</time>
      </trkpt>
      <trkpt lat="42.2891" lon="3.27946">
        <ele>5.3</ele>
        <time>2024-11-10T14:56:14Z</time>
      </trkpt>
      <trkpt lat="42.2891" lon="3.27946">
        <ele>5.3</ele>
        <time>2024-11-10T14:56:15Z</time>
      </trkpt>
      <trkpt lat="42.2891" lon="3.27946">
        <ele>5.3</ele>
        <time>2024-11-10T14:56:16Z</time>
      </trkpt>
      <trkpt lat="42.2891" lon="3.27946">
        <ele>5.3</ele>
        <time>2024-11-10T14:56:17Z</time>
      </trkpt>
      <trkpt lat="42.2891" lon="3.27946">
        <ele>5.3</ele>
        <time>2024-11-10T14:56:18Z</time>
      </trkpt>
      <trkpt lat="42.2891" lon="3.27946">
        <ele>5.3</ele>
        <time>2024-11-10T14:56:19Z</time>
      </trkpt>
      <trkpt lat="42.2891" lon="3.27946">
        <ele>5.3</ele>
        <time>2024-11-10T14:56:20Z</time>
      </trkpt>
      <trkpt lat="42.2891" lon="3.27946">
        <ele>5.3</ele>
        <time>2024-11-10T14:56:21Z</time>
      </trkpt>
      <trkpt lat="42.2891" lon="3.27946">
        <ele>5.3</ele>
        <time>2024-11-10T14:56:22Z</time>
      </trkpt>
      <trkpt lat="42.2891" lon="3.27946">
        <ele>5.3</ele>
        <time>2024-11-10T14:56:23Z</time>
      </trkpt>
      <trkpt lat="42.2891" lon="3.27946">
        <ele>5.3</ele>
        <time>2024-11-10T14:56:24Z</time>
      </trkpt>
      <trkpt lat="42.2891" lon="3.27946">
        <ele>5.3</ele>
        <time>2024-11-10T14:56:26Z</time>
      </trkpt>
      <trkpt lat="42.2891" lon="3.27946">
        <ele>5.3</ele>
        <time>2024-11-10T14:56:27Z</time>
      </trkpt>
      <trkpt lat="42.2891" lon="3.27946">
        <ele>5.3</ele>
        <time>2024-11-10T14:56:28Z</time>
      </trkpt>
      <trkpt lat="42.2891" lon="3.27946">
        <ele>5.3</ele>
        <time>2024-11-10T14:56:29Z</time>
      </trkpt>
      <trkpt lat="42.2891" lon="3.27946">
        <ele>5.3</ele>
        <time>2024-11-10T14:56:30Z</time>
      </trkpt>
      <trkpt lat="42.2891" lon="3.27946">
        <ele>5.3</ele>
        <time>2024-11-10T14:56:31Z</time>
      </trkpt>
      <trkpt lat="42.2891" lon="3.27946">
        <ele>5.3</ele>
        <time>2024-11-10T14:56:32Z</time>
      </trkpt>
      <trkpt lat="42.2891" lon="3.27946">
        <ele>5.3</ele>
        <time>2024-11-10T14:56:33Z</time>
      </trkpt>
      <trkpt lat="42.2891" lon="3.27946">
        <ele>5.3</ele>
        <time>2024-11-10T14:56:34Z</time>
      </trkpt>
      <trkpt lat="42.2891" lon="3.27946">
        <ele>5.3</ele>
        <time>2024-11-10T14:56:35Z</time>
      </trkpt>
      <trkpt lat="42.2891" lon="3.27946">
        <ele>5.3</ele>
        <time>2024-11-10T14:56:36Z</time>
      </trkpt>
      <trkpt lat="42.2891" lon="3.27946">
        <ele>5.3</ele>
        <time>2024-11-10T14:56:37Z</time>
      </trkpt>
      <trkpt lat="42.2891" lon="3.27946">
        <ele>5.3</ele>
        <time>2024-11-10T14:56:38Z</time>
      </trkpt>
      <trkpt lat="42.2891" lon="3.27946">
        <ele>5.3</ele>
        <time>2024-11-10T14:56:39Z</time>
      </trkpt>
      <trkpt lat="42.2891" lon="3.27946">
        <ele>5.3</ele>
        <time>2024-11-10T14:56:40Z</time>
      </trkpt>
      <trkpt lat="42.2891" lon="3.27946">
        <ele>5.3</ele>
        <time>2024-11-10T14:56:41Z</time>
      </trkpt>
      <trkpt lat="42.2891" lon="3.27946">
        <ele>5.3</ele>
        <time>2024-11-10T14:56:42Z</time>
      </trkpt>
      <trkpt lat="42.2891" lon="3.27946">
        <ele>5.3</ele>
        <time>2024-11-10T14:56:43Z</time>
      </trkpt>
      <trkpt lat="42.2891" lon="3.27946">
        <ele>5.3</ele>
        <time>2024-11-10T14:56:44Z</time>
      </trkpt>
      <trkpt lat="42.2891" lon="3.27946">
        <ele>5.3</ele>
        <time>2024-11-10T14:56:45Z</time>
      </trkpt>
      <trkpt lat="42.2891" lon="3.27946">
        <ele>5.3</ele>
        <time>2024-11-10T14:56:46Z</time>
      </trkpt>
      <trkpt lat="42.2891" lon="3.27946">
        <ele>5.3</ele>
        <time>2024-11-10T14:56:47Z</time>
      </trkpt>
      <trkpt lat="42.2891" lon="3.27946">
        <ele>5.3</ele>
        <time>2024-11-10T14:56:48Z</time>
      </trkpt>
      <trkpt lat="42.2891" lon="3.27946">
        <ele>5.3</ele>
        <time>2024-11-10T14:56:49Z</time>
      </trkpt>
      <trkpt lat="42.2891" lon="3.27946">
        <ele>5.3</ele>
        <time>2024-11-10T14:56:50Z</time>
      </trkpt>
      <trkpt lat="42.2891" lon="3.27946">
        <ele>5.3</ele>
        <time>2024-11-10T14:56:51Z</time>
      </trkpt>
      <trkpt lat="42.2891" lon="3.27946">
        <ele>5.3</ele>
        <time>2024-11-10T14:56:52Z</time>
      </trkpt>
      <trkpt lat="42.2891" lon="3.27946">
        <ele>5.3</ele>
        <time>2024-11-10T14:56:53Z</time>
      </trkpt>
      <trkpt lat="42.2891" lon="3.27946">
        <ele>5.3</ele>
        <time>2024-11-10T14:56:54Z</time>
      </trkpt>
      <trkpt lat="42.2891" lon="3.27946">
        <ele>5.3</ele>
        <time>2024-11-10T14:56:55Z</time>
      </trkpt>
      <trkpt lat="42.2891" lon="3.27946">
        <ele>5.3</ele>
        <time>2024-11-10T14:56:56Z</time>
      </trkpt>
      <trkpt lat="42.2891" lon="3.27946">
        <ele>5.3</ele>
        <time>2024-11-10T14:56:57Z</time>
      </trkpt>
      <trkpt lat="42.2891" lon="3.27946">
        <ele>5.3</ele>
        <time>2024-11-10T14:56:58Z</time>
      </trkpt>
      <trkpt lat="42.2891" lon="3.27946">
        <ele>5.3</ele>
        <time>2024-11-10T14:56:59Z</time>
      </trkpt>
      <trkpt lat="42.2891" lon="3.27946">
        <ele>5.3</ele>
        <time>2024-11-10T14:57:00Z</time>
      </trkpt>
      <trkpt lat="42.2891" lon="3.27946">
        <ele>5.3</ele>
        <time>2024-11-10T14:57:01Z</time>
      </trkpt>
      <trkpt lat="42.2891" lon="3.27946">
        <ele>5.3</ele>
        <time>2024-11-10T14:57:02Z</time>
      </trkpt>
      <trkpt lat="42.2891" lon="3.27946">
        <ele>5.3</ele>
        <time>2024-11-10T14:57:03Z</time>
      </trkpt>
      <trkpt lat="42.2891" lon="3.27946">
        <ele>5.3</ele>
        <time>2024-11-10T14:57:04Z</time>
      </trkpt>
      <trkpt lat="42.2891" lon="3.27946">
        <ele>5.3</ele>
        <time>2024-11-10T14:57:05Z</time>
      </trkpt>
      <trkpt lat="42.2891" lon="3.27946">
        <ele>5.3</ele>
        <time>2024-11-10T14:57:06Z</time>
      </trkpt>
      <trkpt lat="42.2891" lon="3.27946">
        <ele>5.3</ele>
        <time>2024-11-10T14:57:07Z</time>
      </trkpt>
      <trkpt lat="42.2891" lon="3.27946">
        <ele>5.3</ele>
        <time>2024-11-10T14:57:08Z</time>
      </trkpt>
      <trkpt lat="42.2891" lon="3.27946">
        <ele>5.3</ele>
        <time>2024-11-10T14:57:09Z</time>
      </trkpt>
      <trkpt lat="42.2891" lon="3.27946">
        <ele>5.3</ele>
        <time>2024-11-10T14:57:10Z</time>
      </trkpt>
      <trkpt lat="42.2891" lon="3.27946">
        <ele>5.3</ele>
        <time>2024-11-10T14:57:11Z</time>
      </trkpt>
      <trkpt lat="42.2891" lon="3.27946">
        <ele>5.3</ele>
        <time>2024-11-10T14:57:12Z</time>
      </trkpt>
      <trkpt lat="42.2891" lon="3.27946">
        <ele>5.3</ele>
        <time>2024-11-10T14:57:13Z</time>
      </trkpt>
      <trkpt lat="42.2891" lon="3.27946">
        <ele>5.3</ele>
        <time>2024-11-10T14:57:14Z</time>
      </trkpt>
      <trkpt lat="42.2891" lon="3.27946">
        <ele>5.3</ele>
        <time>2024-11-10T14:57:15Z</time>
      </trkpt>
      <trkpt lat="42.2891" lon="3.27946">
        <ele>5.3</ele>
        <time>2024-11-10T14:57:16Z</time>
      </trkpt>
      <trkpt lat="42.2891" lon="3.27946">
        <ele>5.3</ele>
        <time>2024-11-10T14:57:17Z</time>
      </trkpt>
      <trkpt lat="42.2891" lon="3.27946">
        <ele>5.3</ele>
        <time>2024-11-10T14:57:18Z</time>
      </trkpt>
      <trkpt lat="42.2891" lon="3.27946">
        <ele>5.3</ele>
        <time>2024-11-10T14:57:19Z</time>
      </trkpt>
      <trkpt lat="42.2891" lon="3.27946">
        <ele>5.3</ele>
        <time>2024-11-10T14:57:20Z</time>
      </trkpt>
      <trkpt lat="42.2891" lon="3.27946">
        <ele>5.3</ele>
        <time>2024-11-10T14:57:21Z</time>
      </trkpt>
      <trkpt lat="42.2891" lon="3.27946">
        <ele>5.3</ele>
        <time>2024-11-10T14:57:22Z</time>
      </trkpt>
      <trkpt lat="42.2891" lon="3.27946">
        <ele>5.3</ele>
        <time>2024-11-10T14:57:23Z</time>
      </trkpt>
      <trkpt lat="42.2891" lon="3.27946">
        <ele>5.3</ele>
        <time>2024-11-10T14:57:24Z</time>
      </trkpt>
      <trkpt lat="42.2891" lon="3.27946">
        <ele>5.3</ele>
        <time>2024-11-10T14:57:25Z</time>
      </trkpt>
      <trkpt lat="42.2891" lon="3.27946">
        <ele>5.3</ele>
        <time>2024-11-10T14:57:26Z</time>
      </trkpt>
      <trkpt lat="42.2891" lon="3.27946">
        <ele>5.3</ele>
        <time>2024-11-10T14:57:27Z</time>
      </trkpt>
      <trkpt lat="42.2891" lon="3.27946">
        <ele>5.3</ele>
        <time>2024-11-10T14:57:28Z</time>
      </trkpt>
      <trkpt lat="42.2891" lon="3.27946">
        <ele>5.3</ele>
        <time>2024-11-10T14:57:29Z</time>
      </trkpt>
      <trkpt lat="42.2891" lon="3.27946">
        <ele>5.3</ele>
        <time>2024-11-10T14:57:30Z</time>
      </trkpt>
      <trkpt lat="42.2891" lon="3.27946">
        <ele>5.3</ele>
        <time>2024-11-10T14:57:31Z</time>
      </trkpt>
      <trkpt lat="42.2891" lon="3.27946">
        <ele>5.3</ele>
        <time>2024-11-10T14:57:32Z</time>
      </trkpt>
      <trkpt lat="42.2891" lon="3.27946">
        <ele>5.3</ele>
        <time>2024-11-10T14:57:33Z</time>
      </trkpt>
      <trkpt lat="42.2891" lon="3.27946">
        <ele>5.3</ele>
        <time>2024-11-10T14:57:34Z</time>
      </trkpt>
      <trkpt lat="42.2891" lon="3.27946">
        <ele>5.3</ele>
        <time>2024-11-10T14:57:35Z</time>
      </trkpt>
      <trkpt lat="42.2891" lon="3.27946">
        <ele>5.3</ele>
        <time>2024-11-10T14:57:36Z</time>
      </trkpt>
      <trkpt lat="42.2891" lon="3.27946">
        <ele>5.3</ele>
        <time>2024-11-10T14:57:37Z</time>
      </trkpt>
      <trkpt lat="42.2891" lon="3.27946">
        <ele>5.3</ele>
        <time>2024-11-10T14:57:38Z</time>
      </trkpt>
      <trkpt lat="42.2891" lon="3.27946">
        <ele>5.3</ele>
        <time>2024-11-10T14:57:39Z</time>
      </trkpt>
      <trkpt lat="42.2891" lon="3.27946">
        <ele>5.3</ele>
        <time>2024-11-10T14:57:40Z</time>
      </trkpt>
      <trkpt lat="42.2891" lon="3.27946">
        <ele>5.3</ele>
        <time>2024-11-10T14:57:41Z</time>
      </trkpt>
      <trkpt lat="42.2891" lon="3.27946">
        <ele>5.3</ele>
        <time>2024-11-10T14:57:42Z</time>
      </trkpt>
      <trkpt lat="42.2891" lon="3.27946">
        <ele>5.3</ele>
        <time>2024-11-10T14:57:43Z</time>
      </trkpt>
      <trkpt lat="42.2891" lon="3.27946">
        <ele>5.3</ele>
        <time>2024-11-10T14:57:44Z</time>
      </trkpt>
      <trkpt lat="42.2891" lon="3.27946">
        <ele>5.3</ele>
        <time>2024-11-10T14:57:45Z</time>
      </trkpt>
      <trkpt lat="42.2891" lon="3.27946">
        <ele>5.3</ele>
        <time>2024-11-10T14:57:46Z</time>
      </trkpt>
      <trkpt lat="42.2891" lon="3.27946">
        <ele>5.3</ele>
        <time>2024-11-10T14:57:47Z</time>
      </trkpt>
      <trkpt lat="42.2891" lon="3.27946">
        <ele>5.3</ele>
        <time>2024-11-10T14:57:48Z</time>
      </trkpt>
      <trkpt lat="42.2891" lon="3.27946">
        <ele>5.3</ele>
        <time>2024-11-10T14:57:49Z</time>
      </trkpt>
      <trkpt lat="42.2891" lon="3.27946">
        <ele>5.3</ele>
        <time>2024-11-10T14:57:50Z</time>
      </trkpt>
      <trkpt lat="42.2891" lon="3.27946">
        <ele>5.3</ele>
        <time>2024-11-10T14:57:51Z</time>
      </trkpt>
      <trkpt lat="42.2891" lon="3.27946">
        <ele>5.3</ele>
        <time>2024-11-10T14:57:52Z</time>
      </trkpt>
      <trkpt lat="42.2891" lon="3.27946">
        <ele>5.3</ele>
        <time>2024-11-10T14:57:53Z</time>
      </trkpt>
      <trkpt lat="42.2891" lon="3.27946">
        <ele>5.3</ele>
        <time>2024-11-10T14:57:54Z</time>
      </trkpt>
      <trkpt lat="42.28909" lon="3.27941">
        <ele>5.3</ele>
        <time>2024-11-10T14:58:00Z</time>
      </trkpt>
      <trkpt lat="42.2891" lon="3.27942">
        <ele>5.3</ele>
        <time>2024-11-10T14:58:01Z</time>
      </trkpt>
      <trkpt lat="42.28909" lon="3.27943">
        <ele>5.3</ele>
        <time>2024-11-10T14:58:02Z</time>
      </trkpt>
      <trkpt lat="42.2891" lon="3.27944">
        <ele>5.4</ele>
        <time>2024-11-10T14:58:03Z</time>
      </trkpt>
      <trkpt lat="42.2891" lon="3.27945">
        <ele>5.4</ele>
        <time>2024-11-10T14:58:04Z</time>
      </trkpt>
      <trkpt lat="42.2891" lon="3.27944">
        <ele>5.4</ele>
        <time>2024-11-10T14:58:05Z</time>
      </trkpt>
      <trkpt lat="42.2891" lon="3.27944">
        <ele>5.4</ele>
        <time>2024-11-10T14:58:06Z</time>
      </trkpt>
      <trkpt lat="42.2891" lon="3.27944">
        <ele>5.4</ele>
        <time>2024-11-10T14:58:07Z</time>
      </trkpt>
      <trkpt lat="42.2891" lon="3.27944">
        <ele>5.4</ele>
        <time>2024-11-10T14:58:08Z</time>
      </trkpt>
      <trkpt lat="42.2891" lon="3.27944">
        <ele>5.4</ele>
        <time>2024-11-10T14:58:09Z</time>
      </trkpt>
      <trkpt lat="42.28911" lon="3.27944">
        <ele>5.4</ele>
        <time>2024-11-10T14:58:10Z</time>
      </trkpt>
      <trkpt lat="42.2891" lon="3.27944">
        <ele>5.4</ele>
        <time>2024-11-10T14:58:11Z</time>
      </trkpt>
      <trkpt lat="42.2891" lon="3.27945">
        <ele>5.4</ele>
        <time>2024-11-10T14:58:12Z</time>
      </trkpt>
      <trkpt lat="42.2891" lon="3.27945">
        <ele>5.4</ele>
        <time>2024-11-10T14:58:13Z</time>
      </trkpt>
      <trkpt lat="42.2891" lon="3.27945">
        <ele>5.4</ele>
        <time>2024-11-10T14:58:14Z</time>
      </trkpt>
      <trkpt lat="42.2891" lon="3.27945">
        <ele>5.4</ele>
        <time>2024-11-10T14:58:15Z</time>
      </trkpt>
      <trkpt lat="42.2891" lon="3.27945">
        <ele>5.4</ele>
        <time>2024-11-10T14:58:16Z</time>
      </trkpt>
      <trkpt lat="42.2891" lon="3.27945">
        <ele>5.4</ele>
        <time>2024-11-10T14:58:17Z</time>
      </trkpt>
      <trkpt lat="42.2891" lon="3.27945">
        <ele>5.4</ele>
        <time>2024-11-10T14:58:18Z</time>
      </trkpt>
      <trkpt lat="42.28909" lon="3.27945">
        <ele>5.4</ele>
        <time>2024-11-10T14:58:19Z</time>
      </trkpt>
      <trkpt lat="42.28909" lon="3.27945">
        <ele>5.4</ele>
        <time>2024-11-10T14:58:20Z</time>
      </trkpt>
      <trkpt lat="42.28909" lon="3.27945">
        <ele>5.4</ele>
        <time>2024-11-10T14:58:21Z</time>
      </trkpt>
      <trkpt lat="42.28909" lon="3.27945">
        <ele>5.4</ele>
        <time>2024-11-10T14:58:22Z</time>
      </trkpt>
      <trkpt lat="42.28909" lon="3.27945">
        <ele>5.4</ele>
        <time>2024-11-10T14:58:23Z</time>
      </trkpt>
      <trkpt lat="42.28909" lon="3.27945">
        <ele>5.4</ele>
        <time>2024-11-10T14:58:24Z</time>
      </trkpt>
      <trkpt lat="42.28909" lon="3.27945">
        <ele>5.4</ele>
        <time>2024-11-10T14:58:25Z</time>
      </trkpt>
      <trkpt lat="42.28909" lon="3.27945">
        <ele>5.4</ele>
        <time>2024-11-10T14:58:26Z</time>
      </trkpt>
      <trkpt lat="42.28909" lon="3.27946">
        <ele>5.4</ele>
        <time>2024-11-10T14:58:27Z</time>
      </trkpt>
      <trkpt lat="42.28908" lon="3.27946">
        <ele>5.4</ele>
        <time>2024-11-10T14:58:28Z</time>
      </trkpt>
      <trkpt lat="42.28908" lon="3.27946">
        <ele>5.4</ele>
        <time>2024-11-10T14:58:29Z</time>
      </trkpt>
      <trkpt lat="42.28908" lon="3.27946">
        <ele>5.4</ele>
        <time>2024-11-10T14:58:30Z</time>
      </trkpt>
      <trkpt lat="42.28908" lon="3.27946">
        <ele>5.4</ele>
        <time>2024-11-10T14:58:31Z</time>
      </trkpt>
      <trkpt lat="42.28908" lon="3.27946">
        <ele>5.4</ele>
        <time>2024-11-10T14:58:32Z</time>
      </trkpt>
      <trkpt lat="42.28908" lon="3.27946">
        <ele>5.4</ele>
        <time>2024-11-10T14:58:33Z</time>
      </trkpt>
      <trkpt lat="42.28908" lon="3.27946">
        <ele>5.4</ele>
        <time>2024-11-10T14:58:34Z</time>
      </trkpt>
      <trkpt lat="42.28908" lon="3.27946">
        <ele>5.4</ele>
        <time>2024-11-10T14:58:35Z</time>
      </trkpt>
      <trkpt lat="42.28907" lon="3.27946">
        <ele>5.4</ele>
        <time>2024-11-10T14:58:36Z</time>
      </trkpt>
      <trkpt lat="42.28907" lon="3.27946">
        <ele>5.4</ele>
        <time>2024-11-10T14:58:37Z</time>
      </trkpt>
      <trkpt lat="42.28907" lon="3.27946">
        <ele>5.4</ele>
        <time>2024-11-10T14:58:38Z</time>
      </trkpt>
      <trkpt lat="42.28907" lon="3.27946">
        <ele>5.4</ele>
        <time>2024-11-10T14:58:39Z</time>
      </trkpt>
      <trkpt lat="42.28907" lon="3.27946">
        <ele>5.4</ele>
        <time>2024-11-10T14:58:40Z</time>
      </trkpt>
      <trkpt lat="42.28907" lon="3.27946">
        <ele>5.4</ele>
        <time>2024-11-10T14:58:41Z</time>
      </trkpt>
      <trkpt lat="42.28907" lon="3.27946">
        <ele>5.4</ele>
        <time>2024-11-10T14:58:42Z</time>
      </trkpt>
      <trkpt lat="42.28907" lon="3.27946">
        <ele>5.4</ele>
        <time>2024-11-10T14:58:43Z</time>
      </trkpt>
      <trkpt lat="42.28907" lon="3.27946">
        <ele>5.4</ele>
        <time>2024-11-10T14:58:44Z</time>
      </trkpt>
      <trkpt lat="42.28905" lon="3.27946">
        <ele>5.4</ele>
        <time>2024-11-10T14:58:45Z</time>
      </trkpt>
      <trkpt lat="42.28904" lon="3.27945">
        <ele>5.4</ele>
        <time>2024-11-10T14:58:46Z</time>
      </trkpt>
      <trkpt lat="42.28902" lon="3.27944">
        <ele>5.4</ele>
        <time>2024-11-10T14:58:47Z</time>
      </trkpt>
      <trkpt lat="42.28901" lon="3.27944">
        <ele>5.4</ele>
        <time>2024-11-10T14:58:48Z</time>
      </trkpt>
      <trkpt lat="42.289" lon="3.27944">
        <ele>5.4</ele>
        <time>2024-11-10T14:58:49Z</time>
      </trkpt>
      <trkpt lat="42.28899" lon="3.27943">
        <ele>5.4</ele>
        <time>2024-11-10T14:58:50Z</time>
      </trkpt>
      <trkpt lat="42.28898" lon="3.27943">
        <ele>5.4</ele>
        <time>2024-11-10T14:58:51Z</time>
      </trkpt>
      <trkpt lat="42.28898" lon="3.27942">
        <ele>5.4</ele>
        <time>2024-11-10T14:58:52Z</time>
      </trkpt>
      <trkpt lat="42.28897" lon="3.27942">
        <ele>5.5</ele>
        <time>2024-11-10T14:58:53Z</time>
      </trkpt>
      <trkpt lat="42.28897" lon="3.2794">
        <ele>5.5</ele>
        <time>2024-11-10T14:58:54Z</time>
      </trkpt>
      <trkpt lat="42.28896" lon="3.2794">
        <ele>5.5</ele>
        <time>2024-11-10T14:58:55Z</time>
      </trkpt>
      <trkpt lat="42.28896" lon="3.27939">
        <ele>5.5</ele>
        <time>2024-11-10T14:58:56Z</time>
      </trkpt>
      <trkpt lat="42.28896" lon="3.27939">
        <ele>5.5</ele>
        <time>2024-11-10T14:58:57Z</time>
      </trkpt>
      <trkpt lat="42.28896" lon="3.27938">
        <ele>5.5</ele>
        <time>2024-11-10T14:58:58Z</time>
      </trkpt>
      <trkpt lat="42.28896" lon="3.27938">
        <ele>5.5</ele>
        <time>2024-11-10T14:58:59Z</time>
      </trkpt>
      <trkpt lat="42.28896" lon="3.27938">
        <ele>5.5</ele>
        <time>2024-11-10T14:59:00Z</time>
      </trkpt>
      <trkpt lat="42.28896" lon="3.27938">
        <ele>5.5</ele>
        <time>2024-11-10T14:59:01Z</time>
      </trkpt>
      <trkpt lat="42.28896" lon="3.27938">
        <ele>5.5</ele>
        <time>2024-11-10T14:59:02Z</time>
      </trkpt>
      <trkpt lat="42.28896" lon="3.27938">
        <ele>5.5</ele>
        <time>2024-11-10T14:59:03Z</time>
      </trkpt>
      <trkpt lat="42.28896" lon="3.27937">
        <ele>5.5</ele>
        <time>2024-11-10T14:59:04Z</time>
      </trkpt>
      <trkpt lat="42.28897" lon="3.27937">
        <ele>5.5</ele>
        <time>2024-11-10T14:59:05Z</time>
      </trkpt>
      <trkpt lat="42.28897" lon="3.27937">
        <ele>5.5</ele>
        <time>2024-11-10T14:59:06Z</time>
      </trkpt>
      <trkpt lat="42.28897" lon="3.27937">
        <ele>5.5</ele>
        <time>2024-11-10T14:59:07Z</time>
      </trkpt>
      <trkpt lat="42.28897" lon="3.27937">
        <ele>5.5</ele>
        <time>2024-11-10T14:59:08Z</time>
      </trkpt>
      <trkpt lat="42.28897" lon="3.27937">
        <ele>5.5</ele>
        <time>2024-11-10T14:59:09Z</time>
      </trkpt>
      <trkpt lat="42.28897" lon="3.27937">
        <ele>5.5</ele>
        <time>2024-11-10T14:59:10Z</time>
      </trkpt>
      <trkpt lat="42.28898" lon="3.27938">
        <ele>5.5</ele>
        <time>2024-11-10T14:59:11Z</time>
      </trkpt>
      <trkpt lat="42.28898" lon="3.27938">
        <ele>5.5</ele>
        <time>2024-11-10T14:59:12Z</time>
      </trkpt>
      <trkpt lat="42.28898" lon="3.27938">
        <ele>5.5</ele>
        <time>2024-11-10T14:59:13Z</time>
      </trkpt>
      <trkpt lat="42.28898" lon="3.27938">
        <ele>5.5</ele>
        <time>2024-11-10T14:59:14Z</time>
      </trkpt>
      <trkpt lat="42.28898" lon="3.27938">
        <ele>5.5</ele>
        <time>2024-11-10T14:59:15Z</time>
      </trkpt>
      <trkpt lat="42.28898" lon="3.27938">
        <ele>5.5</ele>
        <time>2024-11-10T14:59:16Z</time>
      </trkpt>
      <trkpt lat="42.28898" lon="3.27939">
        <ele>5.5</ele>
        <time>2024-11-10T14:59:17Z</time>
      </trkpt>
      <trkpt lat="42.28898" lon="3.27939">
        <ele>5.5</ele>
        <time>2024-11-10T14:59:18Z</time>
      </trkpt>
      <trkpt lat="42.28898" lon="3.27939">
        <ele>5.5</ele>
        <time>2024-11-10T14:59:19Z</time>
      </trkpt>
      <trkpt lat="42.28898" lon="3.27939">
        <ele>5.5</ele>
        <time>2024-11-10T14:59:20Z</time>
      </trkpt>
      <trkpt lat="42.28898" lon="3.27939">
        <ele>5.5</ele>
        <time>2024-11-10T14:59:21Z</time>
      </trkpt>
      <trkpt lat="42.28898" lon="3.27938">
        <ele>5.5</ele>
        <time>2024-11-10T14:59:22Z</time>
      </trkpt>
      <trkpt lat="42.28899" lon="3.27938">
        <ele>5.5</ele>
        <time>2024-11-10T14:59:23Z</time>
      </trkpt>
      <trkpt lat="42.28898" lon="3.27938">
        <ele>5.5</ele>
        <time>2024-11-10T14:59:24Z</time>
      </trkpt>
      <trkpt lat="42.28899" lon="3.27938">
        <ele>5.5</ele>
        <time>2024-11-10T14:59:25Z</time>
      </trkpt>
      <trkpt lat="42.28898" lon="3.27938">
        <ele>5.5</ele>
        <time>2024-11-10T14:59:26Z</time>
      </trkpt>
      <trkpt lat="42.28899" lon="3.27937">
        <ele>5.5</ele>
        <time>2024-11-10T14:59:27Z</time>
      </trkpt>
      <trkpt lat="42.28899" lon="3.27937">
        <ele>5.5</ele>
        <time>2024-11-10T14:59:28Z</time>
      </trkpt>
      <trkpt lat="42.289" lon="3.27937">
        <ele>5.5</ele>
        <time>2024-11-10T14:59:29Z</time>
      </trkpt>
      <trkpt lat="42.289" lon="3.27936">
        <ele>5.5</ele>
        <time>2024-11-10T14:59:30Z</time>
      </trkpt>
      <trkpt lat="42.289" lon="3.27936">
        <ele>5.5</ele>
        <time>2024-11-10T14:59:31Z</time>
      </trkpt>
      <trkpt lat="42.289" lon="3.27935">
        <ele>5.5</ele>
        <time>2024-11-10T14:59:32Z</time>
      </trkpt>
      <trkpt lat="42.289" lon="3.27934">
        <ele>5.5</ele>
        <time>2024-11-10T14:59:33Z</time>
      </trkpt>
      <trkpt lat="42.289" lon="3.27933">
        <ele>5.5</ele>
        <time>2024-11-10T14:59:34Z</time>
      </trkpt>
      <trkpt lat="42.289" lon="3.27932">
        <ele>5.5</ele>
        <time>2024-11-10T14:59:35Z</time>
      </trkpt>
      <trkpt lat="42.289" lon="3.27931">
        <ele>5.5</ele>
        <time>2024-11-10T14:59:36Z</time>
      </trkpt>
      <trkpt lat="42.289" lon="3.2793">
        <ele>5.5</ele>
        <time>2024-11-10T14:59:37Z</time>
      </trkpt>
      <trkpt lat="42.289" lon="3.27928">
        <ele>5.5</ele>
        <time>2024-11-10T14:59:38Z</time>
      </trkpt>
      <trkpt lat="42.28901" lon="3.27926">
        <ele>5.5</ele>
        <time>2024-11-10T14:59:39Z</time>
      </trkpt>
      <trkpt lat="42.28901" lon="3.27925">
        <ele>5.5</ele>
        <time>2024-11-10T14:59:40Z</time>
      </trkpt>
      <trkpt lat="42.28901" lon="3.27924">
        <ele>5.5</ele>
        <time>2024-11-10T14:59:41Z</time>
      </trkpt>
      <trkpt lat="42.28901" lon="3.27923">
        <ele>5.5</ele>
        <time>2024-11-10T14:59:42Z</time>
      </trkpt>
      <trkpt lat="42.28902" lon="3.27922">
        <ele>5.6</ele>
        <time>2024-11-10T14:59:43Z</time>
      </trkpt>
      <trkpt lat="42.28902" lon="3.2792">
        <ele>5.6</ele>
        <time>2024-11-10T14:59:44Z</time>
      </trkpt>
      <trkpt lat="42.28902" lon="3.27919">
        <ele>5.6</ele>
        <time>2024-11-10T14:59:45Z</time>
      </trkpt>
      <trkpt lat="42.28902" lon="3.27918">
        <ele>5.6</ele>
        <time>2024-11-10T14:59:46Z</time>
      </trkpt>
      <trkpt lat="42.28902" lon="3.27917">
        <ele>5.6</ele>
        <time>2024-11-10T14:59:47Z</time>
      </trkpt>
      <trkpt lat="42.28903" lon="3.27916">
        <ele>5.6</ele>
        <time>2024-11-10T14:59:48Z</time>
      </trkpt>
      <trkpt lat="42.28903" lon="3.27915">
        <ele>5.6</ele>
        <time>2024-11-10T14:59:49Z</time>
      </trkpt>
      <trkpt lat="42.28903" lon="3.27914">
        <ele>5.6</ele>
        <time>2024-11-10T14:59:50Z</time>
      </trkpt>
      <trkpt lat="42.28903" lon="3.27913">
        <ele>5.6</ele>
        <time>2024-11-10T14:59:51Z</time>
      </trkpt>
      <trkpt lat="42.28902" lon="3.27911">
        <ele>5.6</ele>
        <time>2024-11-10T14:59:52Z</time>
      </trkpt>
      <trkpt lat="42.28902" lon="3.2791">
        <ele>5.6</ele>
        <time>2024-11-10T14:59:53Z</time>
      </trkpt>
      <trkpt lat="42.28902" lon="3.27909">
        <ele>5.6</ele>
        <time>2024-11-10T14:59:54Z</time>
      </trkpt>
      <trkpt lat="42.28902" lon="3.27908">
        <ele>5.6</ele>
        <time>2024-11-10T14:59:55Z</time>
      </trkpt>
      <trkpt lat="42.28902" lon="3.27907">
        <ele>5.6</ele>
        <time>2024-11-10T14:59:56Z</time>
      </trkpt>
      <trkpt lat="42.28902" lon="3.27905">
        <ele>5.6</ele>
        <time>2024-11-10T14:59:57Z</time>
      </trkpt>
      <trkpt lat="42.28902" lon="3.27904">
        <ele>5.6</ele>
        <time>2024-11-10T14:59:58Z</time>
      </trkpt>
      <trkpt lat="42.28902" lon="3.27903">
        <ele>5.6</ele>
        <time>2024-11-10T14:59:59Z</time>
      </trkpt>
      <trkpt lat="42.28902" lon="3.27902">
        <ele>5.6</ele>
        <time>2024-11-10T15:00:00Z</time>
      </trkpt>
      <trkpt lat="42.28902" lon="3.279">
        <ele>5.6</ele>
        <time>2024-11-10T15:00:01Z</time>
      </trkpt>
      <trkpt lat="42.28902" lon="3.279">
        <ele>5.6</ele>
        <time>2024-11-10T15:00:02Z</time>
      </trkpt>
      <trkpt lat="42.28903" lon="3.27899">
        <ele>5.6</ele>
        <time>2024-11-10T15:00:03Z</time>
      </trkpt>
      <trkpt lat="42.28904" lon="3.27899">
        <ele>5.6</ele>
        <time>2024-11-10T15:00:04Z</time>
      </trkpt>
      <trkpt lat="42.28904" lon="3.27899">
        <ele>5.6</ele>
        <time>2024-11-10T15:00:05Z</time>
      </trkpt>
      <trkpt lat="42.28904" lon="3.27898">
        <ele>5.6</ele>
        <time>2024-11-10T15:00:06Z</time>
      </trkpt>
      <trkpt lat="42.28904" lon="3.27897">
        <ele>5.6</ele>
        <time>2024-11-10T15:00:07Z</time>
      </trkpt>
      <trkpt lat="42.28904" lon="3.27896">
        <ele>5.5</ele>
        <time>2024-11-10T15:00:08Z</time>
      </trkpt>
      <trkpt lat="42.28904" lon="3.27894">
        <ele>5.5</ele>
        <time>2024-11-10T15:00:09Z</time>
      </trkpt>
      <trkpt lat="42.28904" lon="3.27893">
        <ele>5.5</ele>
        <time>2024-11-10T15:00:10Z</time>
      </trkpt>
      <trkpt lat="42.28904" lon="3.27891">
        <ele>5.5</ele>
        <time>2024-11-10T15:00:11Z</time>
      </trkpt>
      <trkpt lat="42.28903" lon="3.2789">
        <ele>5.5</ele>
        <time>2024-11-10T15:00:12Z</time>
      </trkpt>
      <trkpt lat="42.28903" lon="3.27889">
        <ele>5.5</ele>
        <time>2024-11-10T15:00:13Z</time>
      </trkpt>
      <trkpt lat="42.28903" lon="3.27887">
        <ele>5.5</ele>
        <time>2024-11-10T15:00:14Z</time>
      </trkpt>
      <trkpt lat="42.28903" lon="3.27885">
        <ele>5.5</ele>
        <time>2024-11-10T15:00:15Z</time>
      </trkpt>
      <trkpt lat="42.28903" lon="3.27884">
        <ele>5.5</ele>
        <time>2024-11-10T15:00:16Z</time>
      </trkpt>
      <trkpt lat="42.28902" lon="3.27883">
        <ele>5.5</ele>
        <time>2024-11-10T15:00:17Z</time>
      </trkpt>
      <trkpt lat="42.28902" lon="3.27881">
        <ele>5.5</ele>
        <time>2024-11-10T15:00:18Z</time>
      </trkpt>
      <trkpt lat="42.28902" lon="3.2788">
        <ele>5.5</ele>
        <time>2024-11-10T15:00:19Z</time>
      </trkpt>
      <trkpt lat="42.28902" lon="3.27879">
        <ele>5.5</ele>
        <time>2024-11-10T15:00:20Z</time>
      </trkpt>
      <trkpt lat="42.28901" lon="3.27878">
        <ele>5.5</ele>
        <time>2024-11-10T15:00:21Z</time>
      </trkpt>
      <trkpt lat="42.28901" lon="3.27876">
        <ele>5.5</ele>
        <time>2024-11-10T15:00:22Z</time>
      </trkpt>
      <trkpt lat="42.289" lon="3.27875">
        <ele>5.5</ele>
        <time>2024-11-10T15:00:23Z</time>
      </trkpt>
      <trkpt lat="42.289" lon="3.27874">
        <ele>5.5</ele>
        <time>2024-11-10T15:00:24Z</time>
      </trkpt>
      <trkpt lat="42.28899" lon="3.27873">
        <ele>5.5</ele>
        <time>2024-11-10T15:00:25Z</time>
      </trkpt>
      <trkpt lat="42.28899" lon="3.27872">
        <ele>5.5</ele>
        <time>2024-11-10T15:00:26Z</time>
      </trkpt>
      <trkpt lat="42.28898" lon="3.27871">
        <ele>5.5</ele>
        <time>2024-11-10T15:00:27Z</time>
      </trkpt>
      <trkpt lat="42.28897" lon="3.27871">
        <ele>5.5</ele>
        <time>2024-11-10T15:00:28Z</time>
      </trkpt>
      <trkpt lat="42.28897" lon="3.2787">
        <ele>5.5</ele>
        <time>2024-11-10T15:00:29Z</time>
      </trkpt>
      <trkpt lat="42.28896" lon="3.27869">
        <ele>5.5</ele>
        <time>2024-11-10T15:00:30Z</time>
      </trkpt>
      <trkpt lat="42.28896" lon="3.27868">
        <ele>5.5</ele>
        <time>2024-11-10T15:00:31Z</time>
      </trkpt>
      <trkpt lat="42.28895" lon="3.27867">
        <ele>5.5</ele>
        <time>2024-11-10T15:00:32Z</time>
      </trkpt>
      <trkpt lat="42.28895" lon="3.27866">
        <ele>5.5</ele>
        <time>2024-11-10T15:00:33Z</time>
      </trkpt>
      <trkpt lat="42.28894" lon="3.27865">
        <ele>5.5</ele>
        <time>2024-11-10T15:00:34Z</time>
      </trkpt>
      <trkpt lat="42.28894" lon="3.27864">
        <ele>5.5</ele>
        <time>2024-11-10T15:00:35Z</time>
      </trkpt>
      <trkpt lat="42.28893" lon="3.27862">
        <ele>5.5</ele>
        <time>2024-11-10T15:00:36Z</time>
      </trkpt>
      <trkpt lat="42.28893" lon="3.27861">
        <ele>5.5</ele>
        <time>2024-11-10T15:00:37Z</time>
      </trkpt>
      <trkpt lat="42.28893" lon="3.2786">
        <ele>5.5</ele>
        <time>2024-11-10T15:00:38Z</time>
      </trkpt>
      <trkpt lat="42.28892" lon="3.27858">
        <ele>5.5</ele>
        <time>2024-11-10T15:00:39Z</time>
      </trkpt>
      <trkpt lat="42.28892" lon="3.27857">
        <ele>5.5</ele>
        <time>2024-11-10T15:00:40Z</time>
      </trkpt>
      <trkpt lat="42.28892" lon="3.27856">
        <ele>5.5</ele>
        <time>2024-11-10T15:00:41Z</time>
      </trkpt>
      <trkpt lat="42.28892" lon="3.27854">
        <ele>5.5</ele>
        <time>2024-11-10T15:00:42Z</time>
      </trkpt>
      <trkpt lat="42.28891" lon="3.27853">
        <ele>5.5</ele>
        <time>2024-11-10T15:00:43Z</time>
      </trkpt>
      <trkpt lat="42.28891" lon="3.27852">
        <ele>5.5</ele>
        <time>2024-11-10T15:00:44Z</time>
      </trkpt>
      <trkpt lat="42.2889" lon="3.27851">
        <ele>5.5</ele>
        <time>2024-11-10T15:00:45Z</time>
      </trkpt>
      <trkpt lat="42.2889" lon="3.27849">
        <ele>5.5</ele>
        <time>2024-11-10T15:00:46Z</time>
      </trkpt>
      <trkpt lat="42.2889" lon="3.27847">
        <ele>5.5</ele>
        <time>2024-11-10T15:00:47Z</time>
      </trkpt>
      <trkpt lat="42.2889" lon="3.27845">
        <ele>5.5</ele>
        <time>2024-11-10T15:00:48Z</time>
      </trkpt>
      <trkpt lat="42.28891" lon="3.27844">
        <ele>5.5</ele>
        <time>2024-11-10T15:00:49Z</time>
      </trkpt>
      <trkpt lat="42.28891" lon="3.27843">
        <ele>5.5</ele>
        <time>2024-11-10T15:00:50Z</time>
      </trkpt>
      <trkpt lat="42.2889" lon="3.27841">
        <ele>5.5</ele>
        <time>2024-11-10T15:00:51Z</time>
      </trkpt>
      <trkpt lat="42.2889" lon="3.2784">
        <ele>5.5</ele>
        <time>2024-11-10T15:00:52Z</time>
      </trkpt>
      <trkpt lat="42.28889" lon="3.27838">
        <ele>5.5</ele>
        <time>2024-11-10T15:00:53Z</time>
      </trkpt>
      <trkpt lat="42.28889" lon="3.27837">
        <ele>5.5</ele>
        <time>2024-11-10T15:00:54Z</time>
      </trkpt>
      <trkpt lat="42.28889" lon="3.27835">
        <ele>5.5</ele>
        <time>2024-11-10T15:00:55Z</time>
      </trkpt>
      <trkpt lat="42.28887" lon="3.27833">
        <ele>5.5</ele>
        <time>2024-11-10T15:00:56Z</time>
      </trkpt>
      <trkpt lat="42.28887" lon="3.27832">
        <ele>5.5</ele>
        <time>2024-11-10T15:00:57Z</time>
      </trkpt>
      <trkpt lat="42.28887" lon="3.27831">
        <ele>5.5</ele>
        <time>2024-11-10T15:00:58Z</time>
      </trkpt>
      <trkpt lat="42.28886" lon="3.27828">
        <ele>5.5</ele>
        <time>2024-11-10T15:00:59Z</time>
      </trkpt>
      <trkpt lat="42.28886" lon="3.27827">
        <ele>5.5</ele>
        <time>2024-11-10T15:01:00Z</time>
      </trkpt>
      <trkpt lat="42.28886" lon="3.27826">
        <ele>5.5</ele>
        <time>2024-11-10T15:01:01Z</time>
      </trkpt>
      <trkpt lat="42.28885" lon="3.27825">
        <ele>5.5</ele>
        <time>2024-11-10T15:01:02Z</time>
      </trkpt>
      <trkpt lat="42.28885" lon="3.27824">
        <ele>5.5</ele>
        <time>2024-11-10T15:01:03Z</time>
      </trkpt>
      <trkpt lat="42.28884" lon="3.27822">
        <ele>5.5</ele>
        <time>2024-11-10T15:01:04Z</time>
      </trkpt>
      <trkpt lat="42.28884" lon="3.27821">
        <ele>5.5</ele>
        <time>2024-11-10T15:01:05Z</time>
      </trkpt>
      <trkpt lat="42.28883" lon="3.2782">
        <ele>5.5</ele>
        <time>2024-11-10T15:01:06Z</time>
      </trkpt>
      <trkpt lat="42.28883" lon="3.27818">
        <ele>5.5</ele>
        <time>2024-11-10T15:01:07Z</time>
      </trkpt>
      <trkpt lat="42.28882" lon="3.27817">
        <ele>5.5</ele>
        <time>2024-11-10T15:01:08Z</time>
      </trkpt>
      <trkpt lat="42.28882" lon="3.27816">
        <ele>5.5</ele>
        <time>2024-11-10T15:01:09Z</time>
      </trkpt>
      <trkpt lat="42.28881" lon="3.27814">
        <ele>5.5</ele>
        <time>2024-11-10T15:01:10Z</time>
      </trkpt>
      <trkpt lat="42.28881" lon="3.27813">
        <ele>5.5</ele>
        <time>2024-11-10T15:01:11Z</time>
      </trkpt>
      <trkpt lat="42.28881" lon="3.27811">
        <ele>5.5</ele>
        <time>2024-11-10T15:01:12Z</time>
      </trkpt>
      <trkpt lat="42.28881" lon="3.27812">
        <ele>5.6</ele>
        <time>2024-11-10T15:01:13Z</time>
      </trkpt>
      <trkpt lat="42.28881" lon="3.27811">
        <ele>5.6</ele>
        <time>2024-11-10T15:01:14Z</time>
      </trkpt>
      <trkpt lat="42.28881" lon="3.2781">
        <ele>5.6</ele>
        <time>2024-11-10T15:01:15Z</time>
      </trkpt>
      <trkpt lat="42.2888" lon="3.27808">
        <ele>5.6</ele>
        <time>2024-11-10T15:01:16Z</time>
      </trkpt>
      <trkpt lat="42.2888" lon="3.27807">
        <ele>5.6</ele>
        <time>2024-11-10T15:01:17Z</time>
      </trkpt>
      <trkpt lat="42.28879" lon="3.27806">
        <ele>5.6</ele>
        <time>2024-11-10T15:01:18Z</time>
      </trkpt>
      <trkpt lat="42.28879" lon="3.27804">
        <ele>5.6</ele>
        <time>2024-11-10T15:01:19Z</time>
      </trkpt>
      <trkpt lat="42.28878" lon="3.27803">
        <ele>5.6</ele>
        <time>2024-11-10T15:01:20Z</time>
      </trkpt>
      <trkpt lat="42.28877" lon="3.27802">
        <ele>5.6</ele>
        <time>2024-11-10T15:01:21Z</time>
      </trkpt>
      <trkpt lat="42.28877" lon="3.27801">
        <ele>5.6</ele>
        <time>2024-11-10T15:01:22Z</time>
      </trkpt>
      <trkpt lat="42.28877" lon="3.278">
        <ele>5.6</ele>
        <time>2024-11-10T15:01:23Z</time>
      </trkpt>
      <trkpt lat="42.28876" lon="3.27798">
        <ele>5.6</ele>
        <time>2024-11-10T15:01:24Z</time>
      </trkpt>
      <trkpt lat="42.28876" lon="3.27796">
        <ele>5.6</ele>
        <time>2024-11-10T15:01:25Z</time>
      </trkpt>
      <trkpt lat="42.28875" lon="3.27795">
        <ele>5.7</ele>
        <time>2024-11-10T15:01:26Z</time>
      </trkpt>
      <trkpt lat="42.28875" lon="3.27794">
        <ele>5.7</ele>
        <time>2024-11-10T15:01:27Z</time>
      </trkpt>
      <trkpt lat="42.28874" lon="3.27792">
        <ele>5.7</ele>
        <time>2024-11-10T15:01:28Z</time>
      </trkpt>
      <trkpt lat="42.28874" lon="3.27791">
        <ele>5.7</ele>
        <time>2024-11-10T15:01:29Z</time>
      </trkpt>
      <trkpt lat="42.28873" lon="3.27789">
        <ele>5.7</ele>
        <time>2024-11-10T15:01:30Z</time>
      </trkpt>
      <trkpt lat="42.28873" lon="3.27788">
        <ele>5.7</ele>
        <time>2024-11-10T15:01:31Z</time>
      </trkpt>
      <trkpt lat="42.28872" lon="3.27787">
        <ele>5.8</ele>
        <time>2024-11-10T15:01:32Z</time>
      </trkpt>
      <trkpt lat="42.28871" lon="3.27786">
        <ele>5.8</ele>
        <time>2024-11-10T15:01:33Z</time>
      </trkpt>
      <trkpt lat="42.28871" lon="3.27784">
        <ele>5.8</ele>
        <time>2024-11-10T15:01:34Z</time>
      </trkpt>
      <trkpt lat="42.2887" lon="3.27783">
        <ele>5.8</ele>
        <time>2024-11-10T15:01:35Z</time>
      </trkpt>
      <trkpt lat="42.28869" lon="3.27782">
        <ele>5.8</ele>
        <time>2024-11-10T15:01:36Z</time>
      </trkpt>
      <trkpt lat="42.28868" lon="3.27781">
        <ele>5.8</ele>
        <time>2024-11-10T15:01:37Z</time>
      </trkpt>
      <trkpt lat="42.28868" lon="3.27782">
        <ele>5.9</ele>
        <time>2024-11-10T15:01:38Z</time>
      </trkpt>
      <trkpt lat="42.28867" lon="3.27781">
        <ele>5.9</ele>
        <time>2024-11-10T15:01:39Z</time>
      </trkpt>
      <trkpt lat="42.28867" lon="3.2778">
        <ele>5.9</ele>
        <time>2024-11-10T15:01:40Z</time>
      </trkpt>
      <trkpt lat="42.28866" lon="3.27778">
        <ele>5.9</ele>
        <time>2024-11-10T15:01:41Z</time>
      </trkpt>
      <trkpt lat="42.28865" lon="3.27777">
        <ele>5.9</ele>
        <time>2024-11-10T15:01:42Z</time>
      </trkpt>
      <trkpt lat="42.28865" lon="3.27776">
        <ele>5.9</ele>
        <time>2024-11-10T15:01:43Z</time>
      </trkpt>
      <trkpt lat="42.28864" lon="3.27775">
        <ele>6</ele>
        <time>2024-11-10T15:01:44Z</time>
      </trkpt>
      <trkpt lat="42.28863" lon="3.27774">
        <ele>6</ele>
        <time>2024-11-10T15:01:45Z</time>
      </trkpt>
      <trkpt lat="42.28862" lon="3.27773">
        <ele>6</ele>
        <time>2024-11-10T15:01:46Z</time>
      </trkpt>
      <trkpt lat="42.28861" lon="3.27772">
        <ele>6</ele>
        <time>2024-11-10T15:01:47Z</time>
      </trkpt>
      <trkpt lat="42.28861" lon="3.27771">
        <ele>6</ele>
        <time>2024-11-10T15:01:48Z</time>
      </trkpt>
      <trkpt lat="42.2886" lon="3.27771">
        <ele>6</ele>
        <time>2024-11-10T15:01:49Z</time>
      </trkpt>
      <trkpt lat="42.2886" lon="3.2777">
        <ele>6</ele>
        <time>2024-11-10T15:01:50Z</time>
      </trkpt>
      <trkpt lat="42.28859" lon="3.27769">
        <ele>6</ele>
        <time>2024-11-10T15:01:51Z</time>
      </trkpt>
      <trkpt lat="42.28858" lon="3.27768">
        <ele>6.1</ele>
        <time>2024-11-10T15:01:52Z</time>
      </trkpt>
      <trkpt lat="42.28857" lon="3.27767">
        <ele>6.1</ele>
        <time>2024-11-10T15:01:53Z</time>
      </trkpt>
      <trkpt lat="42.28856" lon="3.27765">
        <ele>6.1</ele>
        <time>2024-11-10T15:01:54Z</time>
      </trkpt>
      <trkpt lat="42.28855" lon="3.27764">
        <ele>6.1</ele>
        <time>2024-11-10T15:01:55Z</time>
      </trkpt>
      <trkpt lat="42.28854" lon="3.27763">
        <ele>6.1</ele>
        <time>2024-11-10T15:01:56Z</time>
      </trkpt>
      <trkpt lat="42.28853" lon="3.27761">
        <ele>6.2</ele>
        <time>2024-11-10T15:01:57Z</time>
      </trkpt>
      <trkpt lat="42.28853" lon="3.2776">
        <ele>6.2</ele>
        <time>2024-11-10T15:01:58Z</time>
      </trkpt>
      <trkpt lat="42.28852" lon="3.27759">
        <ele>6.2</ele>
        <time>2024-11-10T15:01:59Z</time>
      </trkpt>
      <trkpt lat="42.28852" lon="3.27758">
        <ele>6.2</ele>
        <time>2024-11-10T15:02:00Z</time>
      </trkpt>
      <trkpt lat="42.28851" lon="3.27757">
        <ele>6.2</ele>
        <time>2024-11-10T15:02:01Z</time>
      </trkpt>
      <trkpt lat="42.2885" lon="3.27756">
        <ele>6.2</ele>
        <time>2024-11-10T15:02:02Z</time>
      </trkpt>
      <trkpt lat="42.2885" lon="3.27755">
        <ele>6.3</ele>
        <time>2024-11-10T15:02:03Z</time>
      </trkpt>
      <trkpt lat="42.28849" lon="3.27754">
        <ele>6.3</ele>
        <time>2024-11-10T15:02:04Z</time>
      </trkpt>
      <trkpt lat="42.28848" lon="3.27753">
        <ele>6.3</ele>
        <time>2024-11-10T15:02:05Z</time>
      </trkpt>
      <trkpt lat="42.28848" lon="3.27752">
        <ele>6.3</ele>
        <time>2024-11-10T15:02:06Z</time>
      </trkpt>
      <trkpt lat="42.28847" lon="3.27751">
        <ele>6.3</ele>
        <time>2024-11-10T15:02:07Z</time>
      </trkpt>
      <trkpt lat="42.28847" lon="3.27749">
        <ele>6.3</ele>
        <time>2024-11-10T15:02:08Z</time>
      </trkpt>
      <trkpt lat="42.28846" lon="3.27749">
        <ele>6.3</ele>
        <time>2024-11-10T15:02:09Z</time>
      </trkpt>
      <trkpt lat="42.28845" lon="3.27746">
        <ele>6.4</ele>
        <time>2024-11-10T15:02:10Z</time>
      </trkpt>
      <trkpt lat="42.28845" lon="3.27745">
        <ele>6.4</ele>
        <time>2024-11-10T15:02:11Z</time>
      </trkpt>
      <trkpt lat="42.28844" lon="3.27745">
        <ele>6.4</ele>
        <time>2024-11-10T15:02:12Z</time>
      </trkpt>
      <trkpt lat="42.28844" lon="3.27743">
        <ele>6.4</ele>
        <time>2024-11-10T15:02:13Z</time>
      </trkpt>
      <trkpt lat="42.28843" lon="3.27743">
        <ele>6.4</ele>
        <time>2024-11-10T15:02:14Z</time>
      </trkpt>
      <trkpt lat="42.28843" lon="3.2774">
        <ele>6.5</ele>
        <time>2024-11-10T15:02:15Z</time>
      </trkpt>
      <trkpt lat="42.28843" lon="3.2774">
        <ele>6.5</ele>
        <time>2024-11-10T15:02:16Z</time>
      </trkpt>
      <trkpt lat="42.28842" lon="3.27739">
        <ele>6.5</ele>
        <time>2024-11-10T15:02:17Z</time>
      </trkpt>
      <trkpt lat="42.28841" lon="3.27738">
        <ele>6.5</ele>
        <time>2024-11-10T15:02:18Z</time>
      </trkpt>
      <trkpt lat="42.2884" lon="3.27737">
        <ele>6.5</ele>
        <time>2024-11-10T15:02:19Z</time>
      </trkpt>
      <trkpt lat="42.2884" lon="3.27735">
        <ele>6.5</ele>
        <time>2024-11-10T15:02:20Z</time>
      </trkpt>
      <trkpt lat="42.28839" lon="3.27735">
        <ele>6.5</ele>
        <time>2024-11-10T15:02:21Z</time>
      </trkpt>
      <trkpt lat="42.28838" lon="3.27734">
        <ele>6.5</ele>
        <time>2024-11-10T15:02:22Z</time>
      </trkpt>
      <trkpt lat="42.28838" lon="3.27733">
        <ele>6.5</ele>
        <time>2024-11-10T15:02:23Z</time>
      </trkpt>
      <trkpt lat="42.28837" lon="3.27732">
        <ele>6.5</ele>
        <time>2024-11-10T15:02:24Z</time>
      </trkpt>
      <trkpt lat="42.28836" lon="3.2773">
        <ele>6.5</ele>
        <time>2024-11-10T15:02:25Z</time>
      </trkpt>
      <trkpt lat="42.28836" lon="3.27729">
        <ele>6.5</ele>
        <time>2024-11-10T15:02:26Z</time>
      </trkpt>
      <trkpt lat="42.28835" lon="3.27728">
        <ele>6.5</ele>
        <time>2024-11-10T15:02:27Z</time>
      </trkpt>
      <trkpt lat="42.28834" lon="3.27727">
        <ele>6.5</ele>
        <time>2024-11-10T15:02:28Z</time>
      </trkpt>
      <trkpt lat="42.28833" lon="3.27726">
        <ele>6.5</ele>
        <time>2024-11-10T15:02:29Z</time>
      </trkpt>
      <trkpt lat="42.28833" lon="3.27725">
        <ele>6.6</ele>
        <time>2024-11-10T15:02:30Z</time>
      </trkpt>
      <trkpt lat="42.28832" lon="3.27724">
        <ele>6.6</ele>
        <time>2024-11-10T15:02:31Z</time>
      </trkpt>
      <trkpt lat="42.28831" lon="3.27723">
        <ele>6.6</ele>
        <time>2024-11-10T15:02:32Z</time>
      </trkpt>
      <trkpt lat="42.28831" lon="3.27722">
        <ele>6.6</ele>
        <time>2024-11-10T15:02:33Z</time>
      </trkpt>
      <trkpt lat="42.2883" lon="3.27721">
        <ele>6.6</ele>
        <time>2024-11-10T15:02:34Z</time>
      </trkpt>
      <trkpt lat="42.28829" lon="3.27721">
        <ele>6.6</ele>
        <time>2024-11-10T15:02:35Z</time>
      </trkpt>
      <trkpt lat="42.28828" lon="3.27721">
        <ele>6.6</ele>
        <time>2024-11-10T15:02:36Z</time>
      </trkpt>
      <trkpt lat="42.28827" lon="3.2772">
        <ele>6.6</ele>
        <time>2024-11-10T15:02:37Z</time>
      </trkpt>
      <trkpt lat="42.28826" lon="3.2772">
        <ele>6.6</ele>
        <time>2024-11-10T15:02:38Z</time>
      </trkpt>
      <trkpt lat="42.28825" lon="3.27719">
        <ele>6.6</ele>
        <time>2024-11-10T15:02:39Z</time>
      </trkpt>
      <trkpt lat="42.28824" lon="3.27719">
        <ele>6.6</ele>
        <time>2024-11-10T15:02:40Z</time>
      </trkpt>
      <trkpt lat="42.28823" lon="3.27719">
        <ele>6.6</ele>
        <time>2024-11-10T15:02:41Z</time>
      </trkpt>
      <trkpt lat="42.28822" lon="3.27719">
        <ele>6.6</ele>
        <time>2024-11-10T15:02:42Z</time>
      </trkpt>
      <trkpt lat="42.28822" lon="3.27719">
        <ele>6.6</ele>
        <time>2024-11-10T15:02:43Z</time>
      </trkpt>
      <trkpt lat="42.28821" lon="3.27719">
        <ele>6.6</ele>
        <time>2024-11-10T15:02:44Z</time>
      </trkpt>
      <trkpt lat="42.2882" lon="3.27718">
        <ele>6.5</ele>
        <time>2024-11-10T15:02:45Z</time>
      </trkpt>
      <trkpt lat="42.28819" lon="3.27718">
        <ele>6.5</ele>
        <time>2024-11-10T15:02:46Z</time>
      </trkpt>
      <trkpt lat="42.28818" lon="3.27717">
        <ele>6.5</ele>
        <time>2024-11-10T15:02:47Z</time>
      </trkpt>
      <trkpt lat="42.28817" lon="3.27717">
        <ele>6.5</ele>
        <time>2024-11-10T15:02:48Z</time>
      </trkpt>
      <trkpt lat="42.28816" lon="3.27716">
        <ele>6.5</ele>
        <time>2024-11-10T15:02:49Z</time>
      </trkpt>
      <trkpt lat="42.28815" lon="3.27716">
        <ele>6.5</ele>
        <time>2024-11-10T15:02:50Z</time>
      </trkpt>
      <trkpt lat="42.28814" lon="3.27715">
        <ele>6.5</ele>
        <time>2024-11-10T15:02:51Z</time>
      </trkpt>
      <trkpt lat="42.28813" lon="3.27715">
        <ele>6.5</ele>
        <time>2024-11-10T15:02:52Z</time>
      </trkpt>
      <trkpt lat="42.28812" lon="3.27715">
        <ele>6.5</ele>
        <time>2024-11-10T15:02:53Z</time>
      </trkpt>
      <trkpt lat="42.2881" lon="3.27715">
        <ele>6.4</ele>
        <time>2024-11-10T15:02:54Z</time>
      </trkpt>
      <trkpt lat="42.28809" lon="3.27715">
        <ele>6.4</ele>
        <time>2024-11-10T15:02:55Z</time>
      </trkpt>
      <trkpt lat="42.28808" lon="3.27715">
        <ele>6.4</ele>
        <time>2024-11-10T15:02:56Z</time>
      </trkpt>
      <trkpt lat="42.28807" lon="3.27715">
        <ele>6.4</ele>
        <time>2024-11-10T15:02:57Z</time>
      </trkpt>
      <trkpt lat="42.28806" lon="3.27716">
        <ele>6.4</ele>
        <time>2024-11-10T15:02:58Z</time>
      </trkpt>
      <trkpt lat="42.28804" lon="3.27716">
        <ele>6.4</ele>
        <time>2024-11-10T15:02:59Z</time>
      </trkpt>
      <trkpt lat="42.28804" lon="3.27716">
        <ele>6.4</ele>
        <time>2024-11-10T15:03:00Z</time>
      </trkpt>
      <trkpt lat="42.28803" lon="3.27716">
        <ele>6.3</ele>
        <time>2024-11-10T15:03:01Z</time>
      </trkpt>
      <trkpt lat="42.28802" lon="3.27717">
        <ele>6.3</ele>
        <time>2024-11-10T15:03:02Z</time>
      </trkpt>
      <trkpt lat="42.28801" lon="3.27717">
        <ele>6.3</ele>
        <time>2024-11-10T15:03:03Z</time>
      </trkpt>
      <trkpt lat="42.28801" lon="3.27717">
        <ele>6.3</ele>
        <time>2024-11-10T15:03:04Z</time>
      </trkpt>
      <trkpt lat="42.288" lon="3.27718">
        <ele>6.3</ele>
        <time>2024-11-10T15:03:05Z</time>
      </trkpt>
      <trkpt lat="42.28799" lon="3.27718">
        <ele>6.3</ele>
        <time>2024-11-10T15:03:06Z</time>
      </trkpt>
      <trkpt lat="42.28799" lon="3.27719">
        <ele>6.3</ele>
        <time>2024-11-10T15:03:07Z</time>
      </trkpt>
      <trkpt lat="42.28798" lon="3.27719">
        <ele>6.3</ele>
        <time>2024-11-10T15:03:08Z</time>
      </trkpt>
      <trkpt lat="42.28797" lon="3.27719">
        <ele>6.3</ele>
        <time>2024-11-10T15:03:09Z</time>
      </trkpt>
      <trkpt lat="42.28798" lon="3.2772">
        <ele>6.3</ele>
        <time>2024-11-10T15:03:10Z</time>
      </trkpt>
      <trkpt lat="42.28798" lon="3.27721">
        <ele>6.3</ele>
        <time>2024-11-10T15:03:11Z</time>
      </trkpt>
      <trkpt lat="42.28797" lon="3.27721">
        <ele>6.3</ele>
        <time>2024-11-10T15:03:12Z</time>
      </trkpt>
      <trkpt lat="42.28796" lon="3.27721">
        <ele>6.2</ele>
        <time>2024-11-10T15:03:13Z</time>
      </trkpt>
      <trkpt lat="42.28796" lon="3.27721">
        <ele>6.2</ele>
        <time>2024-11-10T15:03:14Z</time>
      </trkpt>
      <trkpt lat="42.28795" lon="3.27721">
        <ele>6.2</ele>
        <time>2024-11-10T15:03:15Z</time>
      </trkpt>
      <trkpt lat="42.28794" lon="3.27722">
        <ele>6.2</ele>
        <time>2024-11-10T15:03:16Z</time>
      </trkpt>
      <trkpt lat="42.28794" lon="3.27722">
        <ele>6.2</ele>
        <time>2024-11-10T15:03:17Z</time>
      </trkpt>
      <trkpt lat="42.28793" lon="3.27722">
        <ele>6.2</ele>
        <time>2024-11-10T15:03:18Z</time>
      </trkpt>
      <trkpt lat="42.28792" lon="3.27722">
        <ele>6.2</ele>
        <time>2024-11-10T15:03:19Z</time>
      </trkpt>
      <trkpt lat="42.28793" lon="3.27723">
        <ele>6.2</ele>
        <time>2024-11-10T15:03:20Z</time>
      </trkpt>
      <trkpt lat="42.28793" lon="3.27724">
        <ele>6.2</ele>
        <time>2024-11-10T15:03:21Z</time>
      </trkpt>
      <trkpt lat="42.28793" lon="3.27724">
        <ele>6.2</ele>
        <time>2024-11-10T15:03:22Z</time>
      </trkpt>
      <trkpt lat="42.28792" lon="3.27723">
        <ele>6.2</ele>
        <time>2024-11-10T15:03:23Z</time>
      </trkpt>
      <trkpt lat="42.28792" lon="3.27723">
        <ele>6.2</ele>
        <time>2024-11-10T15:03:24Z</time>
      </trkpt>
      <trkpt lat="42.28792" lon="3.27723">
        <ele>6.2</ele>
        <time>2024-11-10T15:03:25Z</time>
      </trkpt>
      <trkpt lat="42.28792" lon="3.27723">
        <ele>6.2</ele>
        <time>2024-11-10T15:03:26Z</time>
      </trkpt>
      <trkpt lat="42.28792" lon="3.27723">
        <ele>6.2</ele>
        <time>2024-11-10T15:03:27Z</time>
      </trkpt>
      <trkpt lat="42.28792" lon="3.27723">
        <ele>6.2</ele>
        <time>2024-11-10T15:03:28Z</time>
      </trkpt>
      <trkpt lat="42.28792" lon="3.27723">
        <ele>6.2</ele>
        <time>2024-11-10T15:03:29Z</time>
      </trkpt>
      <trkpt lat="42.28792" lon="3.27723">
        <ele>6.2</ele>
        <time>2024-11-10T15:03:30Z</time>
      </trkpt>
      <trkpt lat="42.28792" lon="3.27723">
        <ele>6.2</ele>
        <time>2024-11-10T15:03:31Z</time>
      </trkpt>
      <trkpt lat="42.28792" lon="3.27723">
        <ele>6.2</ele>
        <time>2024-11-10T15:03:32Z</time>
      </trkpt>
      <trkpt lat="42.28792" lon="3.27723">
        <ele>6.2</ele>
        <time>2024-11-10T15:03:33Z</time>
      </trkpt>
      <trkpt lat="42.28792" lon="3.27723">
        <ele>6.2</ele>
        <time>2024-11-10T15:03:34Z</time>
      </trkpt>
      <trkpt lat="42.28792" lon="3.27723">
        <ele>6.2</ele>
        <time>2024-11-10T15:03:35Z</time>
      </trkpt>
      <trkpt lat="42.28792" lon="3.27723">
        <ele>6.2</ele>
        <time>2024-11-10T15:03:36Z</time>
      </trkpt>
      <trkpt lat="42.28792" lon="3.27723">
        <ele>6.2</ele>
        <time>2024-11-10T15:03:37Z</time>
      </trkpt>
      <trkpt lat="42.28792" lon="3.27723">
        <ele>6.2</ele>
        <time>2024-11-10T15:03:38Z</time>
      </trkpt>
      <trkpt lat="42.28792" lon="3.27723">
        <ele>6.2</ele>
        <time>2024-11-10T15:03:39Z</time>
      </trkpt>
      <trkpt lat="42.28792" lon="3.27723">
        <ele>6.2</ele>
        <time>2024-11-10T15:03:40Z</time>
      </trkpt>
      <trkpt lat="42.28792" lon="3.27723">
        <ele>6.2</ele>
        <time>2024-11-10T15:03:41Z</time>
      </trkpt>
      <trkpt lat="42.28792" lon="3.27723">
        <ele>6.2</ele>
        <time>2024-11-10T15:03:42Z</time>
      </trkpt>
      <trkpt lat="42.28792" lon="3.27723">
        <ele>6.2</ele>
        <time>2024-11-10T15:03:43Z</time>
      </trkpt>
      <trkpt lat="42.28792" lon="3.27723">
        <ele>6.2</ele>
        <time>2024-11-10T15:03:44Z</time>
      </trkpt>
      <trkpt lat="42.28792" lon="3.27723">
        <ele>6.2</ele>
        <time>2024-11-10T15:03:45Z</time>
      </trkpt>
      <trkpt lat="42.28792" lon="3.27723">
        <ele>6.2</ele>
        <time>2024-11-10T15:03:46Z</time>
      </trkpt>
      <trkpt lat="42.28792" lon="3.27723">
        <ele>6.2</ele>
        <time>2024-11-10T15:03:47Z</time>
      </trkpt>
      <trkpt lat="42.28792" lon="3.27723">
        <ele>6.2</ele>
        <time>2024-11-10T15:03:48Z</time>
      </trkpt>
      <trkpt lat="42.28792" lon="3.27723">
        <ele>6.2</ele>
        <time>2024-11-10T15:03:49Z</time>
      </trkpt>
      <trkpt lat="42.28792" lon="3.27723">
        <ele>6.2</ele>
        <time>2024-11-10T15:03:50Z</time>
      </trkpt>
      <trkpt lat="42.28792" lon="3.27723">
        <ele>6.2</ele>
        <time>2024-11-10T15:03:51Z</time>
      </trkpt>
      <trkpt lat="42.28792" lon="3.27723">
        <ele>6.2</ele>
        <time>2024-11-10T15:03:52Z</time>
      </trkpt>
      <trkpt lat="42.28792" lon="3.27723">
        <ele>6.2</ele>
        <time>2024-11-10T15:03:53Z</time>
      </trkpt>
      <trkpt lat="42.28792" lon="3.27723">
        <ele>6.2</ele>
        <time>2024-11-10T15:03:54Z</time>
      </trkpt>
      <trkpt lat="42.28792" lon="3.27723">
        <ele>6.2</ele>
        <time>2024-11-10T15:03:55Z</time>
      </trkpt>
      <trkpt lat="42.28792" lon="3.27723">
        <ele>6.2</ele>
        <time>2024-11-10T15:03:56Z</time>
      </trkpt>
      <trkpt lat="42.28792" lon="3.27723">
        <ele>6.2</ele>
        <time>2024-11-10T15:03:57Z</time>
      </trkpt>
      <trkpt lat="42.28792" lon="3.27723">
        <ele>6.2</ele>
        <time>2024-11-10T15:03:58Z</time>
      </trkpt>
      <trkpt lat="42.28792" lon="3.27723">
        <ele>6.2</ele>
        <time>2024-11-10T15:03:59Z</time>
      </trkpt>
      <trkpt lat="42.28792" lon="3.27723">
        <ele>6.2</ele>
        <time>2024-11-10T15:04:00Z</time>
      </trkpt>
      <trkpt lat="42.28792" lon="3.27723">
        <ele>6.2</ele>
        <time>2024-11-10T15:04:01Z</time>
      </trkpt>
      <trkpt lat="42.28792" lon="3.27723">
        <ele>6.2</ele>
        <time>2024-11-10T15:04:02Z</time>
      </trkpt>
      <trkpt lat="42.28792" lon="3.27723">
        <ele>6.2</ele>
        <time>2024-11-10T15:04:03Z</time>
      </trkpt>
      <trkpt lat="42.28792" lon="3.27723">
        <ele>6.2</ele>
        <time>2024-11-10T15:04:04Z</time>
      </trkpt>
      <trkpt lat="42.28792" lon="3.27723">
        <ele>6.2</ele>
        <time>2024-11-10T15:04:05Z</time>
      </trkpt>
      <trkpt lat="42.28792" lon="3.27723">
        <ele>6.2</ele>
        <time>2024-11-10T15:04:06Z</time>
      </trkpt>
      <trkpt lat="42.28792" lon="3.27723">
        <ele>6.2</ele>
        <time>2024-11-10T15:04:07Z</time>
      </trkpt>
      <trkpt lat="42.28792" lon="3.27723">
        <ele>6.2</ele>
        <time>2024-11-10T15:04:08Z</time>
      </trkpt>
      <trkpt lat="42.28792" lon="3.27723">
        <ele>6.2</ele>
        <time>2024-11-10T15:04:09Z</time>
      </trkpt>
      <trkpt lat="42.28792" lon="3.27723">
        <ele>6.2</ele>
        <time>2024-11-10T15:04:10Z</time>
      </trkpt>
      <trkpt lat="42.28792" lon="3.27723">
        <ele>6.2</ele>
        <time>2024-11-10T15:04:11Z</time>
      </trkpt>
      <trkpt lat="42.28792" lon="3.27723">
        <ele>6.2</ele>
        <time>2024-11-10T15:04:12Z</time>
      </trkpt>
      <trkpt lat="42.28792" lon="3.27723">
        <ele>6.2</ele>
        <time>2024-11-10T15:04:13Z</time>
      </trkpt>
      <trkpt lat="42.28792" lon="3.27723">
        <ele>6.2</ele>
        <time>2024-11-10T15:04:14Z</time>
      </trkpt>
      <trkpt lat="42.28792" lon="3.27723">
        <ele>6.2</ele>
        <time>2024-11-10T15:04:15Z</time>
      </trkpt>
      <trkpt lat="42.28792" lon="3.27723">
        <ele>6.2</ele>
        <time>2024-11-10T15:04:16Z</time>
      </trkpt>
      <trkpt lat="42.28792" lon="3.27723">
        <ele>6.2</ele>
        <time>2024-11-10T15:04:17Z</time>
      </trkpt>
      <trkpt lat="42.28792" lon="3.27723">
        <ele>6.2</ele>
        <time>2024-11-10T15:04:18Z</time>
      </trkpt>
      <trkpt lat="42.28792" lon="3.27723">
        <ele>6.2</ele>
        <time>2024-11-10T15:04:19Z</time>
      </trkpt>
      <trkpt lat="42.28793" lon="3.27723">
        <ele>6.2</ele>
        <time>2024-11-10T15:04:20Z</time>
      </trkpt>
      <trkpt lat="42.28793" lon="3.27722">
        <ele>6.1</ele>
        <time>2024-11-10T15:04:24Z</time>
      </trkpt>
      <trkpt lat="42.28793" lon="3.27722">
        <ele>6.1</ele>
        <time>2024-11-10T15:04:25Z</time>
      </trkpt>
      <trkpt lat="42.28793" lon="3.27722">
        <ele>6.1</ele>
        <time>2024-11-10T15:04:26Z</time>
      </trkpt>
      <trkpt lat="42.28793" lon="3.27722">
        <ele>6.1</ele>
        <time>2024-11-10T15:04:27Z</time>
      </trkpt>
      <trkpt lat="42.28793" lon="3.27722">
        <ele>6.1</ele>
        <time>2024-11-10T15:04:29Z</time>
      </trkpt>
      <trkpt lat="42.28793" lon="3.27722">
        <ele>6.1</ele>
        <time>2024-11-10T15:04:30Z</time>
      </trkpt>
      <trkpt lat="42.28793" lon="3.27722">
        <ele>6.1</ele>
        <time>2024-11-10T15:04:31Z</time>
      </trkpt>
      <trkpt lat="42.28793" lon="3.27722">
        <ele>6.1</ele>
        <time>2024-11-10T15:04:32Z</time>
      </trkpt>
      <trkpt lat="42.28793" lon="3.27722">
        <ele>6.1</ele>
        <time>2024-11-10T15:04:33Z</time>
      </trkpt>
      <trkpt lat="42.28793" lon="3.27722">
        <ele>6.1</ele>
        <time>2024-11-10T15:04:34Z</time>
      </trkpt>
      <trkpt lat="42.28793" lon="3.27722">
        <ele>6.1</ele>
        <time>2024-11-10T15:04:35Z</time>
      </trkpt>
      <trkpt lat="42.28793" lon="3.27722">
        <ele>6.1</ele>
        <time>2024-11-10T15:04:36Z</time>
      </trkpt>
      <trkpt lat="42.28793" lon="3.27722">
        <ele>6.1</ele>
        <time>2024-11-10T15:04:37Z</time>
      </trkpt>
      <trkpt lat="42.28793" lon="3.27722">
        <ele>6.1</ele>
        <time>2024-11-10T15:04:38Z</time>
      </trkpt>
      <trkpt lat="42.28793" lon="3.27722">
        <ele>6.1</ele>
        <time>2024-11-10T15:04:39Z</time>
      </trkpt>
      <trkpt lat="42.28793" lon="3.27722">
        <ele>6.1</ele>
        <time>2024-11-10T15:04:40Z</time>
      </trkpt>
      <trkpt lat="42.28793" lon="3.27722">
        <ele>6.1</ele>
        <time>2024-11-10T15:04:41Z</time>
      </trkpt>
      <trkpt lat="42.28793" lon="3.27722">
        <ele>6.1</ele>
        <time>2024-11-10T15:04:42Z</time>
      </trkpt>
      <trkpt lat="42.28793" lon="3.27722">
        <ele>6.1</ele>
        <time>2024-11-10T15:04:43Z</time>
      </trkpt>
      <trkpt lat="42.28793" lon="3.27722">
        <ele>6.1</ele>
        <time>2024-11-10T15:04:44Z</time>
      </trkpt>
      <trkpt lat="42.28793" lon="3.27722">
        <ele>6.1</ele>
        <time>2024-11-10T15:04:45Z</time>
      </trkpt>
      <trkpt lat="42.28793" lon="3.27722">
        <ele>6.1</ele>
        <time>2024-11-10T15:04:46Z</time>
      </trkpt>
      <trkpt lat="42.28793" lon="3.27722">
        <ele>6.1</ele>
        <time>2024-11-10T15:04:48Z</time>
      </trkpt>
      <trkpt lat="42.28793" lon="3.27722">
        <ele>6.1</ele>
        <time>2024-11-10T15:04:49Z</time>
      </trkpt>
      <trkpt lat="42.28793" lon="3.27722">
        <ele>6.1</ele>
        <time>2024-11-10T15:04:50Z</time>
      </trkpt>
      <trkpt lat="42.28793" lon="3.27722">
        <ele>6.1</ele>
        <time>2024-11-10T15:04:51Z</time>
      </trkpt>
      <trkpt lat="42.28794" lon="3.27722">
        <ele>6.1</ele>
        <time>2024-11-10T15:04:52Z</time>
      </trkpt>
      <trkpt lat="42.28794" lon="3.27721">
        <ele>6.1</ele>
        <time>2024-11-10T15:04:53Z</time>
      </trkpt>
      <trkpt lat="42.28794" lon="3.27721">
        <ele>6.1</ele>
        <time>2024-11-10T15:04:54Z</time>
      </trkpt>
      <trkpt lat="42.28794" lon="3.27721">
        <ele>6.1</ele>
        <time>2024-11-10T15:04:55Z</time>
      </trkpt>
      <trkpt lat="42.28794" lon="3.27721">
        <ele>6.1</ele>
        <time>2024-11-10T15:04:56Z</time>
      </trkpt>
      <trkpt lat="42.28794" lon="3.27721">
        <ele>6.1</ele>
        <time>2024-11-10T15:04:57Z</time>
      </trkpt>
      <trkpt lat="42.28794" lon="3.27721">
        <ele>6.1</ele>
        <time>2024-11-10T15:04:58Z</time>
      </trkpt>
      <trkpt lat="42.28794" lon="3.27721">
        <ele>6.1</ele>
        <time>2024-11-10T15:04:59Z</time>
      </trkpt>
      <trkpt lat="42.28794" lon="3.27721">
        <ele>6.1</ele>
        <time>2024-11-10T15:05:00Z</time>
      </trkpt>
      <trkpt lat="42.28794" lon="3.27721">
        <ele>6.1</ele>
        <time>2024-11-10T15:05:01Z</time>
      </trkpt>
      <trkpt lat="42.28794" lon="3.27721">
        <ele>6.1</ele>
        <time>2024-11-10T15:05:02Z</time>
      </trkpt>
      <trkpt lat="42.28794" lon="3.27721">
        <ele>6.1</ele>
        <time>2024-11-10T15:05:03Z</time>
      </trkpt>
      <trkpt lat="42.28794" lon="3.27721">
        <ele>6.1</ele>
        <time>2024-11-10T15:05:04Z</time>
      </trkpt>
      <trkpt lat="42.28794" lon="3.27721">
        <ele>6.1</ele>
        <time>2024-11-10T15:05:05Z</time>
      </trkpt>
      <trkpt lat="42.28794" lon="3.27721">
        <ele>6.1</ele>
        <time>2024-11-10T15:05:06Z</time>
      </trkpt>
      <trkpt lat="42.28794" lon="3.27721">
        <ele>6.1</ele>
        <time>2024-11-10T15:05:07Z</time>
      </trkpt>
      <trkpt lat="42.28794" lon="3.27721">
        <ele>6.1</ele>
        <time>2024-11-10T15:05:08Z</time>
      </trkpt>
      <trkpt lat="42.28794" lon="3.27721">
        <ele>6.1</ele>
        <time>2024-11-10T15:05:09Z</time>
      </trkpt>
      <trkpt lat="42.28794" lon="3.27721">
        <ele>6.1</ele>
        <time>2024-11-10T15:05:10Z</time>
      </trkpt>
      <trkpt lat="42.28794" lon="3.27721">
        <ele>6.1</ele>
        <time>2024-11-10T15:05:11Z</time>
      </trkpt>
      <trkpt lat="42.28794" lon="3.27721">
        <ele>6.1</ele>
        <time>2024-11-10T15:05:12Z</time>
      </trkpt>
      <trkpt lat="42.28794" lon="3.27721">
        <ele>6.1</ele>
        <time>2024-11-10T15:05:13Z</time>
      </trkpt>
      <trkpt lat="42.28794" lon="3.27721">
        <ele>6.1</ele>
        <time>2024-11-10T15:05:14Z</time>
      </trkpt>
      <trkpt lat="42.28794" lon="3.27721">
        <ele>6.1</ele>
        <time>2024-11-10T15:05:15Z</time>
      </trkpt>
      <trkpt lat="42.28794" lon="3.27721">
        <ele>6.1</ele>
        <time>2024-11-10T15:05:17Z</time>
      </trkpt>
      <trkpt lat="42.28794" lon="3.27721">
        <ele>6.1</ele>
        <time>2024-11-10T15:05:18Z</time>
      </trkpt>
      <trkpt lat="42.28794" lon="3.27721">
        <ele>6.1</ele>
        <time>2024-11-10T15:05:19Z</time>
      </trkpt>
      <trkpt lat="42.28794" lon="3.27721">
        <ele>6.1</ele>
        <time>2024-11-10T15:05:20Z</time>
      </trkpt>
      <trkpt lat="42.28794" lon="3.27721">
        <ele>6.1</ele>
        <time>2024-11-10T15:05:21Z</time>
      </trkpt>
      <trkpt lat="42.28794" lon="3.27721">
        <ele>6.1</ele>
        <time>2024-11-10T15:05:22Z</time>
      </trkpt>
      <trkpt lat="42.28794" lon="3.27721">
        <ele>6.1</ele>
        <time>2024-11-10T15:05:23Z</time>
      </trkpt>
      <trkpt lat="42.28794" lon="3.27721">
        <ele>6.1</ele>
        <time>2024-11-10T15:05:24Z</time>
      </trkpt>
      <trkpt lat="42.28794" lon="3.27721">
        <ele>6.1</ele>
        <time>2024-11-10T15:05:25Z</time>
      </trkpt>
      <trkpt lat="42.28794" lon="3.27721">
        <ele>6.1</ele>
        <time>2024-11-10T15:05:26Z</time>
      </trkpt>
      <trkpt lat="42.28794" lon="3.27721">
        <ele>6.1</ele>
        <time>2024-11-10T15:05:27Z</time>
      </trkpt>
      <trkpt lat="42.28794" lon="3.27721">
        <ele>6.1</ele>
        <time>2024-11-10T15:05:28Z</time>
      </trkpt>
      <trkpt lat="42.28794" lon="3.27721">
        <ele>6.1</ele>
        <time>2024-11-10T15:05:29Z</time>
      </trkpt>
      <trkpt lat="42.28794" lon="3.27721">
        <ele>6.1</ele>
        <time>2024-11-10T15:05:30Z</time>
      </trkpt>
      <trkpt lat="42.28794" lon="3.27721">
        <ele>6.1</ele>
        <time>2024-11-10T15:05:33Z</time>
      </trkpt>
      <trkpt lat="42.28794" lon="3.27721">
        <ele>6.1</ele>
        <time>2024-11-10T15:05:34Z</time>
      </trkpt>
      <trkpt lat="42.28794" lon="3.27721">
        <ele>6.1</ele>
        <time>2024-11-10T15:05:35Z</time>
      </trkpt>
      <trkpt lat="42.28794" lon="3.27721">
        <ele>6.1</ele>
        <time>2024-11-10T15:05:36Z</time>
      </trkpt>
      <trkpt lat="42.28794" lon="3.27721">
        <ele>6.1</ele>
        <time>2024-11-10T15:05:38Z</time>
      </trkpt>
      <trkpt lat="42.28794" lon="3.27721">
        <ele>6.1</ele>
        <time>2024-11-10T15:05:39Z</time>
      </trkpt>
      <trkpt lat="42.28794" lon="3.27721">
        <ele>6.1</ele>
        <time>2024-11-10T15:05:40Z</time>
      </trkpt>
      <trkpt lat="42.28794" lon="3.27721">
        <ele>6.1</ele>
        <time>2024-11-10T15:05:41Z</time>
      </trkpt>
      <trkpt lat="42.28794" lon="3.27721">
        <ele>6.1</ele>
        <time>2024-11-10T15:05:42Z</time>
      </trkpt>
      <trkpt lat="42.28794" lon="3.27721">
        <ele>6.1</ele>
        <time>2024-11-10T15:05:43Z</time>
      </trkpt>
      <trkpt lat="42.28794" lon="3.27721">
        <ele>6.1</ele>
        <time>2024-11-10T15:05:44Z</time>
      </trkpt>
      <trkpt lat="42.28794" lon="3.27721">
        <ele>6.1</ele>
        <time>2024-11-10T15:05:46Z</time>
      </trkpt>
      <trkpt lat="42.28794" lon="3.27721">
        <ele>6.1</ele>
        <time>2024-11-10T15:05:47Z</time>
      </trkpt>
      <trkpt lat="42.28794" lon="3.27721">
        <ele>6.1</ele>
        <time>2024-11-10T15:05:48Z</time>
      </trkpt>
      <trkpt lat="42.28794" lon="3.27721">
        <ele>6.1</ele>
        <time>2024-11-10T15:05:49Z</time>
      </trkpt>
      <trkpt lat="42.28794" lon="3.27721">
        <ele>6.1</ele>
        <time>2024-11-10T15:05:50Z</time>
      </trkpt>
      <trkpt lat="42.28794" lon="3.27721">
        <ele>6.1</ele>
        <time>2024-11-10T15:05:51Z</time>
      </trkpt>
      <trkpt lat="42.28794" lon="3.27721">
        <ele>6.1</ele>
        <time>2024-11-10T15:05:52Z</time>
      </trkpt>
      <trkpt lat="42.28794" lon="3.27721">
        <ele>6.1</ele>
        <time>2024-11-10T15:05:53Z</time>
      </trkpt>
      <trkpt lat="42.28794" lon="3.27721">
        <ele>6.1</ele>
        <time>2024-11-10T15:05:54Z</time>
      </trkpt>
      <trkpt lat="42.28794" lon="3.27721">
        <ele>6.1</ele>
        <time>2024-11-10T15:05:55Z</time>
      </trkpt>
      <trkpt lat="42.28794" lon="3.27721">
        <ele>6.1</ele>
        <time>2024-11-10T15:05:56Z</time>
      </trkpt>
      <trkpt lat="42.28794" lon="3.27721">
        <ele>6.1</ele>
        <time>2024-11-10T15:05:57Z</time>
      </trkpt>
      <trkpt lat="42.28794" lon="3.27721">
        <ele>6.1</ele>
        <time>2024-11-10T15:05:58Z</time>
      </trkpt>
      <trkpt lat="42.28794" lon="3.27721">
        <ele>6.1</ele>
        <time>2024-11-10T15:05:59Z</time>
      </trkpt>
      <trkpt lat="42.28794" lon="3.27721">
        <ele>6.1</ele>
        <time>2024-11-10T15:06:00Z</time>
      </trkpt>
      <trkpt lat="42.28794" lon="3.27721">
        <ele>6.1</ele>
        <time>2024-11-10T15:06:01Z</time>
      </trkpt>
      <trkpt lat="42.28794" lon="3.27721">
        <ele>6.1</ele>
        <time>2024-11-10T15:06:02Z</time>
      </trkpt>
      <trkpt lat="42.28794" lon="3.27721">
        <ele>6.1</ele>
        <time>2024-11-10T15:06:03Z</time>
      </trkpt>
      <trkpt lat="42.28794" lon="3.27721">
        <ele>6.1</ele>
        <time>2024-11-10T15:06:04Z</time>
      </trkpt>
      <trkpt lat="42.28794" lon="3.27721">
        <ele>6.1</ele>
        <time>2024-11-10T15:06:05Z</time>
      </trkpt>
      <trkpt lat="42.28794" lon="3.27721">
        <ele>6.1</ele>
        <time>2024-11-10T15:06:07Z</time>
      </trkpt>
      <trkpt lat="42.28794" lon="3.27721">
        <ele>6.1</ele>
        <time>2024-11-10T15:06:08Z</time>
      </trkpt>
      <trkpt lat="42.28794" lon="3.27721">
        <ele>6.1</ele>
        <time>2024-11-10T15:06:09Z</time>
      </trkpt>
      <trkpt lat="42.28794" lon="3.27721">
        <ele>6.1</ele>
        <time>2024-11-10T15:06:10Z</time>
      </trkpt>
      <trkpt lat="42.28794" lon="3.27721">
        <ele>6.1</ele>
        <time>2024-11-10T15:06:11Z</time>
      </trkpt>
      <trkpt lat="42.28794" lon="3.27721">
        <ele>6.1</ele>
        <time>2024-11-10T15:06:12Z</time>
      </trkpt>
      <trkpt lat="42.28794" lon="3.27721">
        <ele>6.1</ele>
        <time>2024-11-10T15:06:13Z</time>
      </trkpt>
      <trkpt lat="42.28794" lon="3.27721">
        <ele>6.1</ele>
        <time>2024-11-10T15:06:14Z</time>
      </trkpt>
      <trkpt lat="42.28794" lon="3.27721">
        <ele>6.1</ele>
        <time>2024-11-10T15:06:16Z</time>
      </trkpt>
      <trkpt lat="42.28794" lon="3.27721">
        <ele>6.1</ele>
        <time>2024-11-10T15:06:18Z</time>
      </trkpt>
      <trkpt lat="42.28794" lon="3.27721">
        <ele>6.1</ele>
        <time>2024-11-10T15:06:19Z</time>
      </trkpt>
      <trkpt lat="42.28794" lon="3.27721">
        <ele>6.1</ele>
        <time>2024-11-10T15:06:20Z</time>
      </trkpt>
      <trkpt lat="42.28794" lon="3.27721">
        <ele>6.1</ele>
        <time>2024-11-10T15:06:21Z</time>
      </trkpt>
      <trkpt lat="42.28794" lon="3.27721">
        <ele>6.1</ele>
        <time>2024-11-10T15:06:22Z</time>
      </trkpt>
      <trkpt lat="42.28794" lon="3.27721">
        <ele>6.1</ele>
        <time>2024-11-10T15:06:23Z</time>
      </trkpt>
      <trkpt lat="42.28794" lon="3.27721">
        <ele>6.1</ele>
        <time>2024-11-10T15:06:24Z</time>
      </trkpt>
      <trkpt lat="42.28794" lon="3.27721">
        <ele>6.1</ele>
        <time>2024-11-10T15:06:25Z</time>
      </trkpt>
      <trkpt lat="42.28794" lon="3.27721">
        <ele>6.1</ele>
        <time>2024-11-10T15:06:26Z</time>
      </trkpt>
      <trkpt lat="42.28794" lon="3.27721">
        <ele>6.1</ele>
        <time>2024-11-10T15:06:27Z</time>
      </trkpt>
      <trkpt lat="42.28794" lon="3.27721">
        <ele>6.1</ele>
        <time>2024-11-10T15:06:28Z</time>
      </trkpt>
      <trkpt lat="42.28794" lon="3.27721">
        <ele>6.1</ele>
        <time>2024-11-10T15:06:29Z</time>
      </trkpt>
      <trkpt lat="42.28794" lon="3.27721">
        <ele>6.1</ele>
        <time>2024-11-10T15:06:30Z</time>
      </trkpt>
      <trkpt lat="42.28794" lon="3.27721">
        <ele>6.1</ele>
        <time>2024-11-10T15:06:31Z</time>
      </trkpt>
      <trkpt lat="42.28794" lon="3.27721">
        <ele>6.1</ele>
        <time>2024-11-10T15:06:32Z</time>
      </trkpt>
      <trkpt lat="42.28794" lon="3.27721">
        <ele>6.1</ele>
        <time>2024-11-10T15:06:33Z</time>
      </trkpt>
      <trkpt lat="42.28794" lon="3.27721">
        <ele>6.1</ele>
        <time>2024-11-10T15:06:34Z</time>
      </trkpt>
      <trkpt lat="42.28794" lon="3.27721">
        <ele>6.1</ele>
        <time>2024-11-10T15:06:35Z</time>
      </trkpt>
      <trkpt lat="42.28794" lon="3.27721">
        <ele>6.1</ele>
        <time>2024-11-10T15:06:36Z</time>
      </trkpt>
      <trkpt lat="42.28794" lon="3.27721">
        <ele>6.1</ele>
        <time>2024-11-10T15:06:37Z</time>
      </trkpt>
      <trkpt lat="42.28794" lon="3.27721">
        <ele>6.1</ele>
        <time>2024-11-10T15:06:38Z</time>
      </trkpt>
      <trkpt lat="42.28794" lon="3.27721">
        <ele>6.1</ele>
        <time>2024-11-10T15:06:39Z</time>
      </trkpt>
      <trkpt lat="42.28794" lon="3.27721">
        <ele>6.1</ele>
        <time>2024-11-10T15:06:40Z</time>
      </trkpt>
      <trkpt lat="42.28794" lon="3.27721">
        <ele>6.1</ele>
        <time>2024-11-10T15:06:41Z</time>
      </trkpt>
      <trkpt lat="42.28794" lon="3.27721">
        <ele>6.1</ele>
        <time>2024-11-10T15:06:42Z</time>
      </trkpt>
      <trkpt lat="42.28794" lon="3.27721">
        <ele>6.1</ele>
        <time>2024-11-10T15:06:43Z</time>
      </trkpt>
      <trkpt lat="42.28794" lon="3.27721">
        <ele>6.1</ele>
        <time>2024-11-10T15:06:44Z</time>
      </trkpt>
      <trkpt lat="42.28794" lon="3.27721">
        <ele>6.1</ele>
        <time>2024-11-10T15:06:45Z</time>
      </trkpt>
      <trkpt lat="42.28794" lon="3.27721">
        <ele>6.1</ele>
        <time>2024-11-10T15:06:46Z</time>
      </trkpt>
      <trkpt lat="42.28794" lon="3.27721">
        <ele>6.1</ele>
        <time>2024-11-10T15:06:47Z</time>
      </trkpt>
      <trkpt lat="42.28794" lon="3.27721">
        <ele>6.1</ele>
        <time>2024-11-10T15:06:48Z</time>
      </trkpt>
      <trkpt lat="42.28794" lon="3.27721">
        <ele>6.1</ele>
        <time>2024-11-10T15:06:49Z</time>
      </trkpt>
      <trkpt lat="42.28794" lon="3.27721">
        <ele>6.1</ele>
        <time>2024-11-10T15:06:50Z</time>
      </trkpt>
      <trkpt lat="42.28794" lon="3.27721">
        <ele>6.1</ele>
        <time>2024-11-10T15:06:51Z</time>
      </trkpt>
      <trkpt lat="42.28794" lon="3.27721">
        <ele>6.1</ele>
        <time>2024-11-10T15:06:52Z</time>
      </trkpt>
      <trkpt lat="42.28794" lon="3.27721">
        <ele>6.1</ele>
        <time>2024-11-10T15:06:53Z</time>
      </trkpt>
      <trkpt lat="42.28794" lon="3.27721">
        <ele>6.1</ele>
        <time>2024-11-10T15:06:54Z</time>
      </trkpt>
      <trkpt lat="42.28794" lon="3.27721">
        <ele>6.1</ele>
        <time>2024-11-10T15:06:55Z</time>
      </trkpt>
      <trkpt lat="42.28794" lon="3.27721">
        <ele>6.1</ele>
        <time>2024-11-10T15:06:56Z</time>
      </trkpt>
      <trkpt lat="42.28794" lon="3.27721">
        <ele>6.1</ele>
        <time>2024-11-10T15:06:57Z</time>
      </trkpt>
      <trkpt lat="42.28794" lon="3.27721">
        <ele>6.1</ele>
        <time>2024-11-10T15:06:58Z</time>
      </trkpt>
      <trkpt lat="42.28794" lon="3.27721">
        <ele>6.1</ele>
        <time>2024-11-10T15:06:59Z</time>
      </trkpt>
      <trkpt lat="42.28794" lon="3.27721">
        <ele>6.1</ele>
        <time>2024-11-10T15:07:00Z</time>
      </trkpt>
      <trkpt lat="42.28794" lon="3.27721">
        <ele>6.1</ele>
        <time>2024-11-10T15:07:01Z</time>
      </trkpt>
      <trkpt lat="42.28794" lon="3.27721">
        <ele>6.1</ele>
        <time>2024-11-10T15:07:02Z</time>
      </trkpt>
      <trkpt lat="42.28794" lon="3.27721">
        <ele>6.1</ele>
        <time>2024-11-10T15:07:03Z</time>
      </trkpt>
      <trkpt lat="42.28794" lon="3.27721">
        <ele>6.1</ele>
        <time>2024-11-10T15:07:04Z</time>
      </trkpt>
      <trkpt lat="42.28794" lon="3.27721">
        <ele>6.1</ele>
        <time>2024-11-10T15:07:05Z</time>
      </trkpt>
      <trkpt lat="42.28794" lon="3.27721">
        <ele>6.1</ele>
        <time>2024-11-10T15:07:06Z</time>
      </trkpt>
      <trkpt lat="42.28794" lon="3.27721">
        <ele>6.1</ele>
        <time>2024-11-10T15:07:07Z</time>
      </trkpt>
      <trkpt lat="42.28794" lon="3.27721">
        <ele>6.1</ele>
        <time>2024-11-10T15:07:08Z</time>
      </trkpt>
      <trkpt lat="42.28794" lon="3.27721">
        <ele>6.1</ele>
        <time>2024-11-10T15:07:09Z</time>
      </trkpt>
      <trkpt lat="42.28794" lon="3.27721">
        <ele>6.1</ele>
        <time>2024-11-10T15:07:10Z</time>
      </trkpt>
      <trkpt lat="42.28794" lon="3.27721">
        <ele>6.1</ele>
        <time>2024-11-10T15:07:11Z</time>
      </trkpt>
      <trkpt lat="42.28794" lon="3.27721">
        <ele>6.1</ele>
        <time>2024-11-10T15:07:12Z</time>
      </trkpt>
      <trkpt lat="42.28794" lon="3.27721">
        <ele>6.1</ele>
        <time>2024-11-10T15:07:13Z</time>
      </trkpt>
      <trkpt lat="42.28794" lon="3.27721">
        <ele>6.1</ele>
        <time>2024-11-10T15:07:14Z</time>
      </trkpt>
      <trkpt lat="42.28794" lon="3.27721">
        <ele>6.1</ele>
        <time>2024-11-10T15:07:15Z</time>
      </trkpt>
      <trkpt lat="42.28794" lon="3.27721">
        <ele>6.1</ele>
        <time>2024-11-10T15:07:16Z</time>
      </trkpt>
      <trkpt lat="42.28794" lon="3.27721">
        <ele>6.1</ele>
        <time>2024-11-10T15:07:17Z</time>
      </trkpt>
      <trkpt lat="42.28794" lon="3.27721">
        <ele>6.1</ele>
        <time>2024-11-10T15:07:18Z</time>
      </trkpt>
      <trkpt lat="42.28794" lon="3.27721">
        <ele>6.1</ele>
        <time>2024-11-10T15:07:19Z</time>
      </trkpt>
      <trkpt lat="42.28794" lon="3.27721">
        <ele>6.1</ele>
        <time>2024-11-10T15:07:20Z</time>
      </trkpt>
      <trkpt lat="42.28794" lon="3.27721">
        <ele>6.1</ele>
        <time>2024-11-10T15:07:21Z</time>
      </trkpt>
      <trkpt lat="42.28794" lon="3.27721">
        <ele>6.1</ele>
        <time>2024-11-10T15:07:22Z</time>
      </trkpt>
      <trkpt lat="42.28794" lon="3.27721">
        <ele>6.1</ele>
        <time>2024-11-10T15:07:23Z</time>
      </trkpt>
      <trkpt lat="42.28794" lon="3.27721">
        <ele>6.1</ele>
        <time>2024-11-10T15:07:24Z</time>
      </trkpt>
      <trkpt lat="42.28794" lon="3.27721">
        <ele>6.1</ele>
        <time>2024-11-10T15:07:25Z</time>
      </trkpt>
      <trkpt lat="42.28794" lon="3.27721">
        <ele>6.1</ele>
        <time>2024-11-10T15:07:26Z</time>
      </trkpt>
      <trkpt lat="42.28794" lon="3.27721">
        <ele>6.1</ele>
        <time>2024-11-10T15:07:27Z</time>
      </trkpt>
      <trkpt lat="42.28794" lon="3.27721">
        <ele>6.1</ele>
        <time>2024-11-10T15:07:28Z</time>
      </trkpt>
      <trkpt lat="42.28794" lon="3.27721">
        <ele>6.1</ele>
        <time>2024-11-10T15:07:29Z</time>
      </trkpt>
      <trkpt lat="42.28794" lon="3.27721">
        <ele>6.1</ele>
        <time>2024-11-10T15:07:30Z</time>
      </trkpt>
      <trkpt lat="42.28794" lon="3.27721">
        <ele>6.1</ele>
        <time>2024-11-10T15:07:31Z</time>
      </trkpt>
      <trkpt lat="42.28794" lon="3.27721">
        <ele>6.1</ele>
        <time>2024-11-10T15:07:32Z</time>
      </trkpt>
      <trkpt lat="42.28794" lon="3.27721">
        <ele>6.1</ele>
        <time>2024-11-10T15:07:33Z</time>
      </trkpt>
      <trkpt lat="42.28794" lon="3.27721">
        <ele>6.1</ele>
        <time>2024-11-10T15:07:34Z</time>
      </trkpt>
      <trkpt lat="42.28794" lon="3.27721">
        <ele>6.1</ele>
        <time>2024-11-10T15:07:35Z</time>
      </trkpt>
      <trkpt lat="42.28794" lon="3.27721">
        <ele>6.1</ele>
        <time>2024-11-10T15:07:36Z</time>
      </trkpt>
      <trkpt lat="42.28794" lon="3.27721">
        <ele>6.1</ele>
        <time>2024-11-10T15:07:37Z</time>
      </trkpt>
      <trkpt lat="42.28794" lon="3.27721">
        <ele>6.1</ele>
        <time>2024-11-10T15:07:38Z</time>
      </trkpt>
      <trkpt lat="42.28794" lon="3.27721">
        <ele>6.1</ele>
        <time>2024-11-10T15:07:39Z</time>
      </trkpt>
      <trkpt lat="42.28794" lon="3.27721">
        <ele>6.1</ele>
        <time>2024-11-10T15:07:40Z</time>
      </trkpt>
      <trkpt lat="42.28794" lon="3.27721">
        <ele>6.1</ele>
        <time>2024-11-10T15:07:41Z</time>
      </trkpt>
      <trkpt lat="42.28794" lon="3.27721">
        <ele>6.1</ele>
        <time>2024-11-10T15:07:42Z</time>
      </trkpt>
      <trkpt lat="42.28794" lon="3.27721">
        <ele>6.1</ele>
        <time>2024-11-10T15:07:43Z</time>
      </trkpt>
      <trkpt lat="42.28794" lon="3.27721">
        <ele>6.1</ele>
        <time>2024-11-10T15:07:44Z</time>
      </trkpt>
      <trkpt lat="42.28794" lon="3.27721">
        <ele>6.1</ele>
        <time>2024-11-10T15:07:45Z</time>
      </trkpt>
      <trkpt lat="42.28794" lon="3.27721">
        <ele>6.1</ele>
        <time>2024-11-10T15:07:46Z</time>
      </trkpt>
      <trkpt lat="42.28794" lon="3.27721">
        <ele>6.1</ele>
        <time>2024-11-10T15:07:47Z</time>
      </trkpt>
      <trkpt lat="42.28794" lon="3.27721">
        <ele>6.1</ele>
        <time>2024-11-10T15:07:48Z</time>
      </trkpt>
      <trkpt lat="42.28794" lon="3.27721">
        <ele>6.1</ele>
        <time>2024-11-10T15:07:49Z</time>
      </trkpt>
      <trkpt lat="42.28794" lon="3.27721">
        <ele>6.1</ele>
        <time>2024-11-10T15:07:50Z</time>
      </trkpt>
      <trkpt lat="42.28794" lon="3.27721">
        <ele>6.1</ele>
        <time>2024-11-10T15:07:51Z</time>
      </trkpt>
      <trkpt lat="42.28794" lon="3.27721">
        <ele>6.1</ele>
        <time>2024-11-10T15:07:52Z</time>
      </trkpt>
      <trkpt lat="42.28794" lon="3.27721">
        <ele>6.1</ele>
        <time>2024-11-10T15:07:53Z</time>
      </trkpt>
      <trkpt lat="42.28794" lon="3.27721">
        <ele>6.1</ele>
        <time>2024-11-10T15:07:54Z</time>
      </trkpt>
      <trkpt lat="42.28794" lon="3.27721">
        <ele>6.1</ele>
        <time>2024-11-10T15:07:55Z</time>
      </trkpt>
      <trkpt lat="42.28794" lon="3.27721">
        <ele>6.1</ele>
        <time>2024-11-10T15:07:56Z</time>
      </trkpt>
      <trkpt lat="42.28794" lon="3.27721">
        <ele>6.1</ele>
        <time>2024-11-10T15:07:57Z</time>
      </trkpt>
      <trkpt lat="42.28794" lon="3.27721">
        <ele>6.1</ele>
        <time>2024-11-10T15:07:58Z</time>
      </trkpt>
      <trkpt lat="42.28794" lon="3.27721">
        <ele>6.1</ele>
        <time>2024-11-10T15:07:59Z</time>
      </trkpt>
      <trkpt lat="42.28794" lon="3.27721">
        <ele>6.1</ele>
        <time>2024-11-10T15:08:00Z</time>
      </trkpt>
      <trkpt lat="42.28794" lon="3.27721">
        <ele>6.1</ele>
        <time>2024-11-10T15:08:01Z</time>
      </trkpt>
      <trkpt lat="42.28794" lon="3.27721">
        <ele>6.1</ele>
        <time>2024-11-10T15:08:02Z</time>
      </trkpt>
      <trkpt lat="42.28794" lon="3.27721">
        <ele>6.1</ele>
        <time>2024-11-10T15:08:03Z</time>
      </trkpt>
      <trkpt lat="42.28794" lon="3.27721">
        <ele>6.1</ele>
        <time>2024-11-10T15:08:04Z</time>
      </trkpt>
      <trkpt lat="42.28794" lon="3.27721">
        <ele>6.1</ele>
        <time>2024-11-10T15:08:05Z</time>
      </trkpt>
      <trkpt lat="42.28794" lon="3.27721">
        <ele>6.1</ele>
        <time>2024-11-10T15:08:06Z</time>
      </trkpt>
      <trkpt lat="42.28794" lon="3.27721">
        <ele>6.1</ele>
        <time>2024-11-10T15:08:07Z</time>
      </trkpt>
      <trkpt lat="42.28794" lon="3.27721">
        <ele>6.1</ele>
        <time>2024-11-10T15:08:08Z</time>
      </trkpt>
      <trkpt lat="42.28794" lon="3.27721">
        <ele>6.1</ele>
        <time>2024-11-10T15:08:09Z</time>
      </trkpt>
      <trkpt lat="42.28794" lon="3.27721">
        <ele>6.1</ele>
        <time>2024-11-10T15:08:10Z</time>
      </trkpt>
      <trkpt lat="42.28794" lon="3.27721">
        <ele>6.1</ele>
        <time>2024-11-10T15:08:11Z</time>
      </trkpt>
      <trkpt lat="42.28794" lon="3.27721">
        <ele>6.1</ele>
        <time>2024-11-10T15:08:12Z</time>
      </trkpt>
      <trkpt lat="42.28794" lon="3.27721">
        <ele>6.1</ele>
        <time>2024-11-10T15:08:13Z</time>
      </trkpt>
      <trkpt lat="42.28794" lon="3.27721">
        <ele>6.1</ele>
        <time>2024-11-10T15:08:14Z</time>
      </trkpt>
      <trkpt lat="42.28794" lon="3.27721">
        <ele>6.1</ele>
        <time>2024-11-10T15:08:15Z</time>
      </trkpt>
      <trkpt lat="42.28794" lon="3.27721">
        <ele>6.1</ele>
        <time>2024-11-10T15:08:16Z</time>
      </trkpt>
      <trkpt lat="42.28794" lon="3.27721">
        <ele>6.1</ele>
        <time>2024-11-10T15:08:17Z</time>
      </trkpt>
      <trkpt lat="42.28794" lon="3.27721">
        <ele>6.1</ele>
        <time>2024-11-10T15:08:18Z</time>
      </trkpt>
      <trkpt lat="42.28794" lon="3.27721">
        <ele>6.1</ele>
        <time>2024-11-10T15:08:19Z</time>
      </trkpt>
      <trkpt lat="42.28794" lon="3.27721">
        <ele>6.1</ele>
        <time>2024-11-10T15:08:20Z</time>
      </trkpt>
      <trkpt lat="42.28794" lon="3.27721">
        <ele>6.1</ele>
        <time>2024-11-10T15:08:21Z</time>
      </trkpt>
      <trkpt lat="42.28794" lon="3.27721">
        <ele>6.1</ele>
        <time>2024-11-10T15:08:22Z</time>
      </trkpt>
      <trkpt lat="42.28794" lon="3.27721">
        <ele>6.1</ele>
        <time>2024-11-10T15:08:23Z</time>
      </trkpt>
      <trkpt lat="42.28794" lon="3.27721">
        <ele>6.1</ele>
        <time>2024-11-10T15:08:24Z</time>
      </trkpt>
      <trkpt lat="42.28794" lon="3.27721">
        <ele>6.1</ele>
        <time>2024-11-10T15:08:25Z</time>
      </trkpt>
      <trkpt lat="42.28794" lon="3.27721">
        <ele>6.1</ele>
        <time>2024-11-10T15:08:26Z</time>
      </trkpt>
      <trkpt lat="42.28793" lon="3.27721">
        <ele>6.1</ele>
        <time>2024-11-10T15:08:27Z</time>
      </trkpt>
      <trkpt lat="42.28792" lon="3.27722">
        <ele>6.1</ele>
        <time>2024-11-10T15:08:28Z</time>
      </trkpt>
      <trkpt lat="42.28792" lon="3.27722">
        <ele>6.1</ele>
        <time>2024-11-10T15:08:29Z</time>
      </trkpt>
      <trkpt lat="42.28791" lon="3.27721">
        <ele>6.1</ele>
        <time>2024-11-10T15:08:30Z</time>
      </trkpt>
      <trkpt lat="42.28791" lon="3.2772">
        <ele>6.1</ele>
        <time>2024-11-10T15:08:31Z</time>
      </trkpt>
      <trkpt lat="42.2879" lon="3.2772">
        <ele>6.1</ele>
        <time>2024-11-10T15:08:32Z</time>
      </trkpt>
      <trkpt lat="42.2879" lon="3.2772">
        <ele>6.1</ele>
        <time>2024-11-10T15:08:33Z</time>
      </trkpt>
      <trkpt lat="42.28789" lon="3.2772">
        <ele>6.1</ele>
        <time>2024-11-10T15:08:34Z</time>
      </trkpt>
      <trkpt lat="42.28789" lon="3.2772">
        <ele>6.1</ele>
        <time>2024-11-10T15:08:35Z</time>
      </trkpt>
      <trkpt lat="42.28787" lon="3.2772">
        <ele>6.1</ele>
        <time>2024-11-10T15:08:36Z</time>
      </trkpt>
      <trkpt lat="42.28785" lon="3.2772">
        <ele>6.1</ele>
        <time>2024-11-10T15:08:39Z</time>
      </trkpt>
      <trkpt lat="42.28785" lon="3.2772">
        <ele>6.1</ele>
        <time>2024-11-10T15:08:40Z</time>
      </trkpt>
      <trkpt lat="42.28784" lon="3.27721">
        <ele>6.1</ele>
        <time>2024-11-10T15:08:41Z</time>
      </trkpt>
      <trkpt lat="42.28783" lon="3.27722">
        <ele>6.1</ele>
        <time>2024-11-10T15:08:42Z</time>
      </trkpt>
      <trkpt lat="42.28782" lon="3.27722">
        <ele>6.1</ele>
        <time>2024-11-10T15:08:43Z</time>
      </trkpt>
      <trkpt lat="42.28781" lon="3.27723">
        <ele>6.1</ele>
        <time>2024-11-10T15:08:44Z</time>
      </trkpt>
      <trkpt lat="42.2878" lon="3.27723">
        <ele>6.1</ele>
        <time>2024-11-10T15:08:46Z</time>
      </trkpt>
      <trkpt lat="42.28779" lon="3.27723">
        <ele>6.1</ele>
        <time>2024-11-10T15:08:47Z</time>
      </trkpt>
      <trkpt lat="42.28778" lon="3.27724">
        <ele>6.1</ele>
        <time>2024-11-10T15:08:48Z</time>
      </trkpt>
      <trkpt lat="42.28777" lon="3.27724">
        <ele>6.1</ele>
        <time>2024-11-10T15:08:49Z</time>
      </trkpt>
      <trkpt lat="42.28776" lon="3.27725">
        <ele>6.1</ele>
        <time>2024-11-10T15:08:50Z</time>
      </trkpt>
      <trkpt lat="42.28775" lon="3.27725">
        <ele>6.1</ele>
        <time>2024-11-10T15:08:51Z</time>
      </trkpt>
      <trkpt lat="42.28774" lon="3.27725">
        <ele>6.1</ele>
        <time>2024-11-10T15:08:52Z</time>
      </trkpt>
      <trkpt lat="42.28773" lon="3.27726">
        <ele>6.1</ele>
        <time>2024-11-10T15:08:53Z</time>
      </trkpt>
      <trkpt lat="42.28772" lon="3.27726">
        <ele>6.1</ele>
        <time>2024-11-10T15:08:54Z</time>
      </trkpt>
      <trkpt lat="42.28771" lon="3.27727">
        <ele>6.1</ele>
        <time>2024-11-10T15:08:55Z</time>
      </trkpt>
      <trkpt lat="42.2877" lon="3.27727">
        <ele>6.1</ele>
        <time>2024-11-10T15:08:56Z</time>
      </trkpt>
      <trkpt lat="42.28769" lon="3.27728">
        <ele>6.1</ele>
        <time>2024-11-10T15:08:57Z</time>
      </trkpt>
      <trkpt lat="42.28767" lon="3.27728">
        <ele>6.1</ele>
        <time>2024-11-10T15:08:58Z</time>
      </trkpt>
      <trkpt lat="42.28766" lon="3.27729">
        <ele>6.1</ele>
        <time>2024-11-10T15:08:59Z</time>
      </trkpt>
      <trkpt lat="42.28765" lon="3.27729">
        <ele>6.1</ele>
        <time>2024-11-10T15:09:00Z</time>
      </trkpt>
      <trkpt lat="42.28764" lon="3.27729">
        <ele>6.1</ele>
        <time>2024-11-10T15:09:01Z</time>
      </trkpt>
      <trkpt lat="42.28763" lon="3.2773">
        <ele>6.1</ele>
        <time>2024-11-10T15:09:02Z</time>
      </trkpt>
      <trkpt lat="42.28763" lon="3.2773">
        <ele>6.1</ele>
        <time>2024-11-10T15:09:03Z</time>
      </trkpt>
      <trkpt lat="42.28761" lon="3.2773">
        <ele>6.1</ele>
        <time>2024-11-10T15:09:04Z</time>
      </trkpt>
      <trkpt lat="42.2876" lon="3.2773">
        <ele>6.1</ele>
        <time>2024-11-10T15:09:05Z</time>
      </trkpt>
      <trkpt lat="42.28759" lon="3.2773">
        <ele>6.1</ele>
        <time>2024-11-10T15:09:06Z</time>
      </trkpt>
      <trkpt lat="42.28758" lon="3.2773">
        <ele>6.1</ele>
        <time>2024-11-10T15:09:07Z</time>
      </trkpt>
      <trkpt lat="42.28757" lon="3.27729">
        <ele>6.1</ele>
        <time>2024-11-10T15:09:08Z</time>
      </trkpt>
      <trkpt lat="42.28756" lon="3.27729">
        <ele>6.1</ele>
        <time>2024-11-10T15:09:09Z</time>
      </trkpt>
      <trkpt lat="42.28755" lon="3.27728">
        <ele>6.2</ele>
        <time>2024-11-10T15:09:10Z</time>
      </trkpt>
      <trkpt lat="42.28754" lon="3.27728">
        <ele>6.2</ele>
        <time>2024-11-10T15:09:11Z</time>
      </trkpt>
      <trkpt lat="42.28752" lon="3.27727">
        <ele>6.2</ele>
        <time>2024-11-10T15:09:12Z</time>
      </trkpt>
      <trkpt lat="42.28751" lon="3.27727">
        <ele>6.2</ele>
        <time>2024-11-10T15:09:13Z</time>
      </trkpt>
      <trkpt lat="42.28751" lon="3.27726">
        <ele>6.2</ele>
        <time>2024-11-10T15:09:14Z</time>
      </trkpt>
      <trkpt lat="42.2875" lon="3.27725">
        <ele>6.2</ele>
        <time>2024-11-10T15:09:15Z</time>
      </trkpt>
      <trkpt lat="42.28749" lon="3.27725">
        <ele>6.2</ele>
        <time>2024-11-10T15:09:16Z</time>
      </trkpt>
      <trkpt lat="42.28748" lon="3.27724">
        <ele>6.2</ele>
        <time>2024-11-10T15:09:17Z</time>
      </trkpt>
      <trkpt lat="42.28748" lon="3.27723">
        <ele>6.2</ele>
        <time>2024-11-10T15:09:18Z</time>
      </trkpt>
      <trkpt lat="42.28747" lon="3.27722">
        <ele>6.2</ele>
        <time>2024-11-10T15:09:19Z</time>
      </trkpt>
      <trkpt lat="42.28747" lon="3.2772">
        <ele>6.1</ele>
        <time>2024-11-10T15:09:20Z</time>
      </trkpt>
      <trkpt lat="42.28746" lon="3.27719">
        <ele>6.1</ele>
        <time>2024-11-10T15:09:21Z</time>
      </trkpt>
      <trkpt lat="42.28746" lon="3.27718">
        <ele>6.1</ele>
        <time>2024-11-10T15:09:22Z</time>
      </trkpt>
      <trkpt lat="42.28746" lon="3.27716">
        <ele>6.1</ele>
        <time>2024-11-10T15:09:23Z</time>
      </trkpt>
      <trkpt lat="42.28745" lon="3.27715">
        <ele>6.1</ele>
        <time>2024-11-10T15:09:24Z</time>
      </trkpt>
      <trkpt lat="42.28745" lon="3.27713">
        <ele>6.1</ele>
        <time>2024-11-10T15:09:25Z</time>
      </trkpt>
      <trkpt lat="42.28745" lon="3.27712">
        <ele>6.1</ele>
        <time>2024-11-10T15:09:26Z</time>
      </trkpt>
      <trkpt lat="42.28745" lon="3.2771">
        <ele>6.1</ele>
        <time>2024-11-10T15:09:27Z</time>
      </trkpt>
      <trkpt lat="42.28745" lon="3.27709">
        <ele>6.1</ele>
        <time>2024-11-10T15:09:28Z</time>
      </trkpt>
      <trkpt lat="42.28745" lon="3.27708">
        <ele>6.1</ele>
        <time>2024-11-10T15:09:29Z</time>
      </trkpt>
      <trkpt lat="42.28745" lon="3.27707">
        <ele>6.1</ele>
        <time>2024-11-10T15:09:30Z</time>
      </trkpt>
      <trkpt lat="42.28745" lon="3.27706">
        <ele>6.1</ele>
        <time>2024-11-10T15:09:31Z</time>
      </trkpt>
      <trkpt lat="42.28746" lon="3.27704">
        <ele>6.1</ele>
        <time>2024-11-10T15:09:32Z</time>
      </trkpt>
      <trkpt lat="42.28746" lon="3.27703">
        <ele>6.1</ele>
        <time>2024-11-10T15:09:33Z</time>
      </trkpt>
      <trkpt lat="42.28746" lon="3.27702">
        <ele>6.1</ele>
        <time>2024-11-10T15:09:34Z</time>
      </trkpt>
      <trkpt lat="42.28746" lon="3.277">
        <ele>6.1</ele>
        <time>2024-11-10T15:09:35Z</time>
      </trkpt>
      <trkpt lat="42.28746" lon="3.27699">
        <ele>6.1</ele>
        <time>2024-11-10T15:09:36Z</time>
      </trkpt>
      <trkpt lat="42.28746" lon="3.27698">
        <ele>6.1</ele>
        <time>2024-11-10T15:09:37Z</time>
      </trkpt>
      <trkpt lat="42.28746" lon="3.27697">
        <ele>6.1</ele>
        <time>2024-11-10T15:09:38Z</time>
      </trkpt>
      <trkpt lat="42.28747" lon="3.27695">
        <ele>6</ele>
        <time>2024-11-10T15:09:39Z</time>
      </trkpt>
      <trkpt lat="42.28747" lon="3.27694">
        <ele>6</ele>
        <time>2024-11-10T15:09:40Z</time>
      </trkpt>
      <trkpt lat="42.28747" lon="3.27693">
        <ele>6</ele>
        <time>2024-11-10T15:09:41Z</time>
      </trkpt>
      <trkpt lat="42.28747" lon="3.27691">
        <ele>6</ele>
        <time>2024-11-10T15:09:42Z</time>
      </trkpt>
      <trkpt lat="42.28747" lon="3.2769">
        <ele>6</ele>
        <time>2024-11-10T15:09:43Z</time>
      </trkpt>
      <trkpt lat="42.28747" lon="3.27689">
        <ele>6</ele>
        <time>2024-11-10T15:09:44Z</time>
      </trkpt>
      <trkpt lat="42.28747" lon="3.27687">
        <ele>6</ele>
        <time>2024-11-10T15:09:45Z</time>
      </trkpt>
      <trkpt lat="42.28748" lon="3.27686">
        <ele>6</ele>
        <time>2024-11-10T15:09:46Z</time>
      </trkpt>
      <trkpt lat="42.28748" lon="3.27685">
        <ele>6</ele>
        <time>2024-11-10T15:09:47Z</time>
      </trkpt>
      <trkpt lat="42.28748" lon="3.27684">
        <ele>6</ele>
        <time>2024-11-10T15:09:48Z</time>
      </trkpt>
      <trkpt lat="42.28748" lon="3.27682">
        <ele>6</ele>
        <time>2024-11-10T15:09:49Z</time>
      </trkpt>
      <trkpt lat="42.28749" lon="3.27681">
        <ele>6</ele>
        <time>2024-11-10T15:09:50Z</time>
      </trkpt>
      <trkpt lat="42.28749" lon="3.2768">
        <ele>6</ele>
        <time>2024-11-10T15:09:51Z</time>
      </trkpt>
      <trkpt lat="42.28749" lon="3.27678">
        <ele>6</ele>
        <time>2024-11-10T15:09:52Z</time>
      </trkpt>
      <trkpt lat="42.28749" lon="3.27678">
        <ele>6</ele>
        <time>2024-11-10T15:09:53Z</time>
      </trkpt>
      <trkpt lat="42.2875" lon="3.27677">
        <ele>6</ele>
        <time>2024-11-10T15:09:54Z</time>
      </trkpt>
      <trkpt lat="42.2875" lon="3.27676">
        <ele>6</ele>
        <time>2024-11-10T15:09:55Z</time>
      </trkpt>
      <trkpt lat="42.2875" lon="3.27674">
        <ele>6</ele>
        <time>2024-11-10T15:09:56Z</time>
      </trkpt>
      <trkpt lat="42.28751" lon="3.27673">
        <ele>6</ele>
        <time>2024-11-10T15:09:57Z</time>
      </trkpt>
      <trkpt lat="42.28751" lon="3.27672">
        <ele>6</ele>
        <time>2024-11-10T15:09:58Z</time>
      </trkpt>
      <trkpt lat="42.28751" lon="3.2767">
        <ele>6</ele>
        <time>2024-11-10T15:09:59Z</time>
      </trkpt>
      <trkpt lat="42.28751" lon="3.27669">
        <ele>6</ele>
        <time>2024-11-10T15:10:00Z</time>
      </trkpt>
      <trkpt lat="42.28752" lon="3.27667">
        <ele>6</ele>
        <time>2024-11-10T15:10:01Z</time>
      </trkpt>
      <trkpt lat="42.28752" lon="3.27666">
        <ele>6</ele>
        <time>2024-11-10T15:10:02Z</time>
      </trkpt>
      <trkpt lat="42.28752" lon="3.27665">
        <ele>6</ele>
        <time>2024-11-10T15:10:03Z</time>
      </trkpt>
      <trkpt lat="42.28753" lon="3.27663">
        <ele>6</ele>
        <time>2024-11-10T15:10:04Z</time>
      </trkpt>
      <trkpt lat="42.28753" lon="3.27661">
        <ele>6</ele>
        <time>2024-11-10T15:10:05Z</time>
      </trkpt>
      <trkpt lat="42.28753" lon="3.2766">
        <ele>6</ele>
        <time>2024-11-10T15:10:06Z</time>
      </trkpt>
      <trkpt lat="42.28753" lon="3.27658">
        <ele>6</ele>
        <time>2024-11-10T15:10:07Z</time>
      </trkpt>
      <trkpt lat="42.28753" lon="3.27657">
        <ele>6</ele>
        <time>2024-11-10T15:10:08Z</time>
      </trkpt>
      <trkpt lat="42.28753" lon="3.27656">
        <ele>6</ele>
        <time>2024-11-10T15:10:09Z</time>
      </trkpt>
      <trkpt lat="42.28753" lon="3.27655">
        <ele>6</ele>
        <time>2024-11-10T15:10:10Z</time>
      </trkpt>
      <trkpt lat="42.28753" lon="3.27654">
        <ele>6</ele>
        <time>2024-11-10T15:10:11Z</time>
      </trkpt>
      <trkpt lat="42.28754" lon="3.27652">
        <ele>6</ele>
        <time>2024-11-10T15:10:12Z</time>
      </trkpt>
      <trkpt lat="42.28754" lon="3.27651">
        <ele>6</ele>
        <time>2024-11-10T15:10:13Z</time>
      </trkpt>
      <trkpt lat="42.28754" lon="3.27649">
        <ele>6</ele>
        <time>2024-11-10T15:10:14Z</time>
      </trkpt>
      <trkpt lat="42.28755" lon="3.27648">
        <ele>6</ele>
        <time>2024-11-10T15:10:15Z</time>
      </trkpt>
      <trkpt lat="42.28755" lon="3.27647">
        <ele>6</ele>
        <time>2024-11-10T15:10:16Z</time>
      </trkpt>
      <trkpt lat="42.28756" lon="3.27646">
        <ele>6</ele>
        <time>2024-11-10T15:10:17Z</time>
      </trkpt>
      <trkpt lat="42.28756" lon="3.27645">
        <ele>6</ele>
        <time>2024-11-10T15:10:18Z</time>
      </trkpt>
      <trkpt lat="42.28756" lon="3.27644">
        <ele>6</ele>
        <time>2024-11-10T15:10:19Z</time>
      </trkpt>
      <trkpt lat="42.28757" lon="3.27642">
        <ele>6</ele>
        <time>2024-11-10T15:10:20Z</time>
      </trkpt>
      <trkpt lat="42.28757" lon="3.27642">
        <ele>6.1</ele>
        <time>2024-11-10T15:10:21Z</time>
      </trkpt>
      <trkpt lat="42.28757" lon="3.2764">
        <ele>6.1</ele>
        <time>2024-11-10T15:10:22Z</time>
      </trkpt>
      <trkpt lat="42.28757" lon="3.27639">
        <ele>6.1</ele>
        <time>2024-11-10T15:10:23Z</time>
      </trkpt>
      <trkpt lat="42.28757" lon="3.27638">
        <ele>6.1</ele>
        <time>2024-11-10T15:10:24Z</time>
      </trkpt>
      <trkpt lat="42.28757" lon="3.27637">
        <ele>6.1</ele>
        <time>2024-11-10T15:10:25Z</time>
      </trkpt>
      <trkpt lat="42.28757" lon="3.27635">
        <ele>6.1</ele>
        <time>2024-11-10T15:10:26Z</time>
      </trkpt>
      <trkpt lat="42.28757" lon="3.27634">
        <ele>6.1</ele>
        <time>2024-11-10T15:10:27Z</time>
      </trkpt>
      <trkpt lat="42.28757" lon="3.27633">
        <ele>6.1</ele>
        <time>2024-11-10T15:10:28Z</time>
      </trkpt>
      <trkpt lat="42.28757" lon="3.27632">
        <ele>6.1</ele>
        <time>2024-11-10T15:10:29Z</time>
      </trkpt>
      <trkpt lat="42.28756" lon="3.27631">
        <ele>6.1</ele>
        <time>2024-11-10T15:10:30Z</time>
      </trkpt>
      <trkpt lat="42.28756" lon="3.2763">
        <ele>6.1</ele>
        <time>2024-11-10T15:10:31Z</time>
      </trkpt>
      <trkpt lat="42.28756" lon="3.27629">
        <ele>6.1</ele>
        <time>2024-11-10T15:10:32Z</time>
      </trkpt>
      <trkpt lat="42.28756" lon="3.27629">
        <ele>6.1</ele>
        <time>2024-11-10T15:10:33Z</time>
      </trkpt>
      <trkpt lat="42.28756" lon="3.27628">
        <ele>6.1</ele>
        <time>2024-11-10T15:10:34Z</time>
      </trkpt>
      <trkpt lat="42.28755" lon="3.27626">
        <ele>6.1</ele>
        <time>2024-11-10T15:10:35Z</time>
      </trkpt>
      <trkpt lat="42.28756" lon="3.27626">
        <ele>6.1</ele>
        <time>2024-11-10T15:10:36Z</time>
      </trkpt>
      <trkpt lat="42.28756" lon="3.27627">
        <ele>6.1</ele>
        <time>2024-11-10T15:10:37Z</time>
      </trkpt>
      <trkpt lat="42.28756" lon="3.27627">
        <ele>6.1</ele>
        <time>2024-11-10T15:10:38Z</time>
      </trkpt>
      <trkpt lat="42.28756" lon="3.27627">
        <ele>6.1</ele>
        <time>2024-11-10T15:10:39Z</time>
      </trkpt>
      <trkpt lat="42.28756" lon="3.27627">
        <ele>6.1</ele>
        <time>2024-11-10T15:10:40Z</time>
      </trkpt>
      <trkpt lat="42.28756" lon="3.27627">
        <ele>6.1</ele>
        <time>2024-11-10T15:10:41Z</time>
      </trkpt>
      <trkpt lat="42.28756" lon="3.27627">
        <ele>6.1</ele>
        <time>2024-11-10T15:10:42Z</time>
      </trkpt>
      <trkpt lat="42.28756" lon="3.27627">
        <ele>6.1</ele>
        <time>2024-11-10T15:10:43Z</time>
      </trkpt>
      <trkpt lat="42.28756" lon="3.27627">
        <ele>6.1</ele>
        <time>2024-11-10T15:10:44Z</time>
      </trkpt>
      <trkpt lat="42.28756" lon="3.27627">
        <ele>6.1</ele>
        <time>2024-11-10T15:10:45Z</time>
      </trkpt>
      <trkpt lat="42.28756" lon="3.27627">
        <ele>6.1</ele>
        <time>2024-11-10T15:10:46Z</time>
      </trkpt>
      <trkpt lat="42.28756" lon="3.27627">
        <ele>6.1</ele>
        <time>2024-11-10T15:10:47Z</time>
      </trkpt>
      <trkpt lat="42.28756" lon="3.27627">
        <ele>6.1</ele>
        <time>2024-11-10T15:10:48Z</time>
      </trkpt>
      <trkpt lat="42.28757" lon="3.27627">
        <ele>6.1</ele>
        <time>2024-11-10T15:10:49Z</time>
      </trkpt>
      <trkpt lat="42.28757" lon="3.27627">
        <ele>6.2</ele>
        <time>2024-11-10T15:10:50Z</time>
      </trkpt>
      <trkpt lat="42.28757" lon="3.27627">
        <ele>6.2</ele>
        <time>2024-11-10T15:10:51Z</time>
      </trkpt>
      <trkpt lat="42.28757" lon="3.27627">
        <ele>6.2</ele>
        <time>2024-11-10T15:10:52Z</time>
      </trkpt>
      <trkpt lat="42.28757" lon="3.27627">
        <ele>6.2</ele>
        <time>2024-11-10T15:10:53Z</time>
      </trkpt>
      <trkpt lat="42.28757" lon="3.27627">
        <ele>6.2</ele>
        <time>2024-11-10T15:10:54Z</time>
      </trkpt>
      <trkpt lat="42.28756" lon="3.27627">
        <ele>6.2</ele>
        <time>2024-11-10T15:10:55Z</time>
      </trkpt>
      <trkpt lat="42.28756" lon="3.27627">
        <ele>6.2</ele>
        <time>2024-11-10T15:10:56Z</time>
      </trkpt>
      <trkpt lat="42.28756" lon="3.27627">
        <ele>6.2</ele>
        <time>2024-11-10T15:10:57Z</time>
      </trkpt>
      <trkpt lat="42.28756" lon="3.27627">
        <ele>6.2</ele>
        <time>2024-11-10T15:10:58Z</time>
      </trkpt>
      <trkpt lat="42.28756" lon="3.27627">
        <ele>6.2</ele>
        <time>2024-11-10T15:10:59Z</time>
      </trkpt>
      <trkpt lat="42.28756" lon="3.27627">
        <ele>6.2</ele>
        <time>2024-11-10T15:11:00Z</time>
      </trkpt>
      <trkpt lat="42.28756" lon="3.27627">
        <ele>6.2</ele>
        <time>2024-11-10T15:11:01Z</time>
      </trkpt>
      <trkpt lat="42.28756" lon="3.27627">
        <ele>6.2</ele>
        <time>2024-11-10T15:11:02Z</time>
      </trkpt>
      <trkpt lat="42.28756" lon="3.27627">
        <ele>6.2</ele>
        <time>2024-11-10T15:11:03Z</time>
      </trkpt>
      <trkpt lat="42.28756" lon="3.27628">
        <ele>6.2</ele>
        <time>2024-11-10T15:11:04Z</time>
      </trkpt>
      <trkpt lat="42.28756" lon="3.27628">
        <ele>6.2</ele>
        <time>2024-11-10T15:11:05Z</time>
      </trkpt>
      <trkpt lat="42.28756" lon="3.27628">
        <ele>6.2</ele>
        <time>2024-11-10T15:11:06Z</time>
      </trkpt>
      <trkpt lat="42.28756" lon="3.27628">
        <ele>6.2</ele>
        <time>2024-11-10T15:11:07Z</time>
      </trkpt>
      <trkpt lat="42.28757" lon="3.27628">
        <ele>6.2</ele>
        <time>2024-11-10T15:11:08Z</time>
      </trkpt>
      <trkpt lat="42.28757" lon="3.27628">
        <ele>6.2</ele>
        <time>2024-11-10T15:11:09Z</time>
      </trkpt>
      <trkpt lat="42.28757" lon="3.27628">
        <ele>6.2</ele>
        <time>2024-11-10T15:11:10Z</time>
      </trkpt>
      <trkpt lat="42.28757" lon="3.27628">
        <ele>6.2</ele>
        <time>2024-11-10T15:11:11Z</time>
      </trkpt>
      <trkpt lat="42.28757" lon="3.27628">
        <ele>6.2</ele>
        <time>2024-11-10T15:11:12Z</time>
      </trkpt>
      <trkpt lat="42.28757" lon="3.27628">
        <ele>6.2</ele>
        <time>2024-11-10T15:11:13Z</time>
      </trkpt>
      <trkpt lat="42.28757" lon="3.27628">
        <ele>6.2</ele>
        <time>2024-11-10T15:11:14Z</time>
      </trkpt>
      <trkpt lat="42.28757" lon="3.27629">
        <ele>6.2</ele>
        <time>2024-11-10T15:11:15Z</time>
      </trkpt>
      <trkpt lat="42.28757" lon="3.27629">
        <ele>6.2</ele>
        <time>2024-11-10T15:11:16Z</time>
      </trkpt>
      <trkpt lat="42.28757" lon="3.27629">
        <ele>6.2</ele>
        <time>2024-11-10T15:11:17Z</time>
      </trkpt>
      <trkpt lat="42.28757" lon="3.27629">
        <ele>6.2</ele>
        <time>2024-11-10T15:11:18Z</time>
      </trkpt>
      <trkpt lat="42.28757" lon="3.27629">
        <ele>6.2</ele>
        <time>2024-11-10T15:11:19Z</time>
      </trkpt>
      <trkpt lat="42.28757" lon="3.27629">
        <ele>6.2</ele>
        <time>2024-11-10T15:11:20Z</time>
      </trkpt>
      <trkpt lat="42.28757" lon="3.27629">
        <ele>6.2</ele>
        <time>2024-11-10T15:11:21Z</time>
      </trkpt>
      <trkpt lat="42.28757" lon="3.27629">
        <ele>6.2</ele>
        <time>2024-11-10T15:11:22Z</time>
      </trkpt>
      <trkpt lat="42.28757" lon="3.27629">
        <ele>6.2</ele>
        <time>2024-11-10T15:11:23Z</time>
      </trkpt>
      <trkpt lat="42.28757" lon="3.27629">
        <ele>6.2</ele>
        <time>2024-11-10T15:11:24Z</time>
      </trkpt>
      <trkpt lat="42.28757" lon="3.27629">
        <ele>6.2</ele>
        <time>2024-11-10T15:11:25Z</time>
      </trkpt>
      <trkpt lat="42.28757" lon="3.27629">
        <ele>6.2</ele>
        <time>2024-11-10T15:11:26Z</time>
      </trkpt>
      <trkpt lat="42.28757" lon="3.27629">
        <ele>6.2</ele>
        <time>2024-11-10T15:11:27Z</time>
      </trkpt>
      <trkpt lat="42.28757" lon="3.27629">
        <ele>6.2</ele>
        <time>2024-11-10T15:11:28Z</time>
      </trkpt>
      <trkpt lat="42.28757" lon="3.27629">
        <ele>6.2</ele>
        <time>2024-11-10T15:11:29Z</time>
      </trkpt>
      <trkpt lat="42.28757" lon="3.27629">
        <ele>6.2</ele>
        <time>2024-11-10T15:11:30Z</time>
      </trkpt>
      <trkpt lat="42.28757" lon="3.27629">
        <ele>6.2</ele>
        <time>2024-11-10T15:11:31Z</time>
      </trkpt>
      <trkpt lat="42.28757" lon="3.27629">
        <ele>6.2</ele>
        <time>2024-11-10T15:11:32Z</time>
      </trkpt>
      <trkpt lat="42.28756" lon="3.27629">
        <ele>6.2</ele>
        <time>2024-11-10T15:11:33Z</time>
      </trkpt>
      <trkpt lat="42.28756" lon="3.27628">
        <ele>6.2</ele>
        <time>2024-11-10T15:11:34Z</time>
      </trkpt>
      <trkpt lat="42.28757" lon="3.27629">
        <ele>6.2</ele>
        <time>2024-11-10T15:11:35Z</time>
      </trkpt>
      <trkpt lat="42.28757" lon="3.27628">
        <ele>6.2</ele>
        <time>2024-11-10T15:11:36Z</time>
      </trkpt>
      <trkpt lat="42.28756" lon="3.27629">
        <ele>6.2</ele>
        <time>2024-11-10T15:11:37Z</time>
      </trkpt>
      <trkpt lat="42.28756" lon="3.27629">
        <ele>6.2</ele>
        <time>2024-11-10T15:11:38Z</time>
      </trkpt>
      <trkpt lat="42.28756" lon="3.27629">
        <ele>6.2</ele>
        <time>2024-11-10T15:11:39Z</time>
      </trkpt>
      <trkpt lat="42.28756" lon="3.27629">
        <ele>6.2</ele>
        <time>2024-11-10T15:11:40Z</time>
      </trkpt>
      <trkpt lat="42.28756" lon="3.27629">
        <ele>6.2</ele>
        <time>2024-11-10T15:11:41Z</time>
      </trkpt>
      <trkpt lat="42.28756" lon="3.27629">
        <ele>6.2</ele>
        <time>2024-11-10T15:11:42Z</time>
      </trkpt>
      <trkpt lat="42.28756" lon="3.27629">
        <ele>6.2</ele>
        <time>2024-11-10T15:11:43Z</time>
      </trkpt>
      <trkpt lat="42.28756" lon="3.27629">
        <ele>6.2</ele>
        <time>2024-11-10T15:11:44Z</time>
      </trkpt>
      <trkpt lat="42.28756" lon="3.27629">
        <ele>6.2</ele>
        <time>2024-11-10T15:11:45Z</time>
      </trkpt>
      <trkpt lat="42.28755" lon="3.27628">
        <ele>6.2</ele>
        <time>2024-11-10T15:11:46Z</time>
      </trkpt>
      <trkpt lat="42.28755" lon="3.27628">
        <ele>6.2</ele>
        <time>2024-11-10T15:11:47Z</time>
      </trkpt>
      <trkpt lat="42.28755" lon="3.27627">
        <ele>6.2</ele>
        <time>2024-11-10T15:11:48Z</time>
      </trkpt>
      <trkpt lat="42.28755" lon="3.27625">
        <ele>6.2</ele>
        <time>2024-11-10T15:11:49Z</time>
      </trkpt>
      <trkpt lat="42.28755" lon="3.27623">
        <ele>6.3</ele>
        <time>2024-11-10T15:11:50Z</time>
      </trkpt>
      <trkpt lat="42.28755" lon="3.27622">
        <ele>6.3</ele>
        <time>2024-11-10T15:11:51Z</time>
      </trkpt>
      <trkpt lat="42.28756" lon="3.27621">
        <ele>6.3</ele>
        <time>2024-11-10T15:11:52Z</time>
      </trkpt>
      <trkpt lat="42.28756" lon="3.2762">
        <ele>6.3</ele>
        <time>2024-11-10T15:11:53Z</time>
      </trkpt>
      <trkpt lat="42.28755" lon="3.2762">
        <ele>6.3</ele>
        <time>2024-11-10T15:11:54Z</time>
      </trkpt>
      <trkpt lat="42.28755" lon="3.2762">
        <ele>6.3</ele>
        <time>2024-11-10T15:11:55Z</time>
      </trkpt>
      <trkpt lat="42.28755" lon="3.27619">
        <ele>6.3</ele>
        <time>2024-11-10T15:11:56Z</time>
      </trkpt>
      <trkpt lat="42.28755" lon="3.27619">
        <ele>6.3</ele>
        <time>2024-11-10T15:11:57Z</time>
      </trkpt>
      <trkpt lat="42.28755" lon="3.27619">
        <ele>6.3</ele>
        <time>2024-11-10T15:11:58Z</time>
      </trkpt>
      <trkpt lat="42.28755" lon="3.27619">
        <ele>6.3</ele>
        <time>2024-11-10T15:11:59Z</time>
      </trkpt>
      <trkpt lat="42.28755" lon="3.27619">
        <ele>6.3</ele>
        <time>2024-11-10T15:12:00Z</time>
      </trkpt>
      <trkpt lat="42.28755" lon="3.27619">
        <ele>6.3</ele>
        <time>2024-11-10T15:12:01Z</time>
      </trkpt>
      <trkpt lat="42.28755" lon="3.27619">
        <ele>6.3</ele>
        <time>2024-11-10T15:12:02Z</time>
      </trkpt>
      <trkpt lat="42.28755" lon="3.27619">
        <ele>6.3</ele>
        <time>2024-11-10T15:12:03Z</time>
      </trkpt>
      <trkpt lat="42.28755" lon="3.27619">
        <ele>6.3</ele>
        <time>2024-11-10T15:12:04Z</time>
      </trkpt>
      <trkpt lat="42.28755" lon="3.27619">
        <ele>6.3</ele>
        <time>2024-11-10T15:12:05Z</time>
      </trkpt>
      <trkpt lat="42.28755" lon="3.27618">
        <ele>6.3</ele>
        <time>2024-11-10T15:12:06Z</time>
      </trkpt>
      <trkpt lat="42.28755" lon="3.27618">
        <ele>6.3</ele>
        <time>2024-11-10T15:12:07Z</time>
      </trkpt>
      <trkpt lat="42.28755" lon="3.27619">
        <ele>6.3</ele>
        <time>2024-11-10T15:12:08Z</time>
      </trkpt>
      <trkpt lat="42.28755" lon="3.27619">
        <ele>6.3</ele>
        <time>2024-11-10T15:12:09Z</time>
      </trkpt>
      <trkpt lat="42.28755" lon="3.27619">
        <ele>6.3</ele>
        <time>2024-11-10T15:12:10Z</time>
      </trkpt>
      <trkpt lat="42.28755" lon="3.27618">
        <ele>6.3</ele>
        <time>2024-11-10T15:12:11Z</time>
      </trkpt>
      <trkpt lat="42.28755" lon="3.27618">
        <ele>6.3</ele>
        <time>2024-11-10T15:12:12Z</time>
      </trkpt>
      <trkpt lat="42.28755" lon="3.27618">
        <ele>6.3</ele>
        <time>2024-11-10T15:12:13Z</time>
      </trkpt>
      <trkpt lat="42.28755" lon="3.27619">
        <ele>6.3</ele>
        <time>2024-11-10T15:12:14Z</time>
      </trkpt>
      <trkpt lat="42.28756" lon="3.2762">
        <ele>6.3</ele>
        <time>2024-11-10T15:12:15Z</time>
      </trkpt>
      <trkpt lat="42.28756" lon="3.2762">
        <ele>6.3</ele>
        <time>2024-11-10T15:12:16Z</time>
      </trkpt>
      <trkpt lat="42.28756" lon="3.2762">
        <ele>6.3</ele>
        <time>2024-11-10T15:12:17Z</time>
      </trkpt>
      <trkpt lat="42.28756" lon="3.2762">
        <ele>6.3</ele>
        <time>2024-11-10T15:12:18Z</time>
      </trkpt>
      <trkpt lat="42.28756" lon="3.2762">
        <ele>6.3</ele>
        <time>2024-11-10T15:12:19Z</time>
      </trkpt>
      <trkpt lat="42.28756" lon="3.2762">
        <ele>6.3</ele>
        <time>2024-11-10T15:12:20Z</time>
      </trkpt>
      <trkpt lat="42.28756" lon="3.2762">
        <ele>6.3</ele>
        <time>2024-11-10T15:12:21Z</time>
      </trkpt>
      <trkpt lat="42.28756" lon="3.2762">
        <ele>6.3</ele>
        <time>2024-11-10T15:12:22Z</time>
      </trkpt>
      <trkpt lat="42.28756" lon="3.2762">
        <ele>6.3</ele>
        <time>2024-11-10T15:12:23Z</time>
      </trkpt>
      <trkpt lat="42.28756" lon="3.2762">
        <ele>6.3</ele>
        <time>2024-11-10T15:12:24Z</time>
      </trkpt>
      <trkpt lat="42.28756" lon="3.2762">
        <ele>6.3</ele>
        <time>2024-11-10T15:12:25Z</time>
      </trkpt>
      <trkpt lat="42.28756" lon="3.2762">
        <ele>6.3</ele>
        <time>2024-11-10T15:12:26Z</time>
      </trkpt>
      <trkpt lat="42.28756" lon="3.2762">
        <ele>6.3</ele>
        <time>2024-11-10T15:12:27Z</time>
      </trkpt>
      <trkpt lat="42.28756" lon="3.2762">
        <ele>6.3</ele>
        <time>2024-11-10T15:12:28Z</time>
      </trkpt>
      <trkpt lat="42.28756" lon="3.2762">
        <ele>6.3</ele>
        <time>2024-11-10T15:12:29Z</time>
      </trkpt>
      <trkpt lat="42.28756" lon="3.2762">
        <ele>6.3</ele>
        <time>2024-11-10T15:12:30Z</time>
      </trkpt>
      <trkpt lat="42.28756" lon="3.2762">
        <ele>6.3</ele>
        <time>2024-11-10T15:12:31Z</time>
      </trkpt>
      <trkpt lat="42.28756" lon="3.2762">
        <ele>6.3</ele>
        <time>2024-11-10T15:12:32Z</time>
      </trkpt>
      <trkpt lat="42.28756" lon="3.2762">
        <ele>6.3</ele>
        <time>2024-11-10T15:12:33Z</time>
      </trkpt>
      <trkpt lat="42.28756" lon="3.2762">
        <ele>6.3</ele>
        <time>2024-11-10T15:12:34Z</time>
      </trkpt>
      <trkpt lat="42.28756" lon="3.2762">
        <ele>6.3</ele>
        <time>2024-11-10T15:12:35Z</time>
      </trkpt>
      <trkpt lat="42.28756" lon="3.2762">
        <ele>6.3</ele>
        <time>2024-11-10T15:12:36Z</time>
      </trkpt>
      <trkpt lat="42.28756" lon="3.2762">
        <ele>6.3</ele>
        <time>2024-11-10T15:12:37Z</time>
      </trkpt>
      <trkpt lat="42.28756" lon="3.2762">
        <ele>6.3</ele>
        <time>2024-11-10T15:12:38Z</time>
      </trkpt>
      <trkpt lat="42.28756" lon="3.2762">
        <ele>6.3</ele>
        <time>2024-11-10T15:12:39Z</time>
      </trkpt>
      <trkpt lat="42.28756" lon="3.2762">
        <ele>6.3</ele>
        <time>2024-11-10T15:12:40Z</time>
      </trkpt>
      <trkpt lat="42.28756" lon="3.2762">
        <ele>6.3</ele>
        <time>2024-11-10T15:12:41Z</time>
      </trkpt>
      <trkpt lat="42.28756" lon="3.2762">
        <ele>6.3</ele>
        <time>2024-11-10T15:12:42Z</time>
      </trkpt>
      <trkpt lat="42.28756" lon="3.2762">
        <ele>6.3</ele>
        <time>2024-11-10T15:12:43Z</time>
      </trkpt>
      <trkpt lat="42.28756" lon="3.2762">
        <ele>6.3</ele>
        <time>2024-11-10T15:12:44Z</time>
      </trkpt>
      <trkpt lat="42.28756" lon="3.2762">
        <ele>6.3</ele>
        <time>2024-11-10T15:12:45Z</time>
      </trkpt>
      <trkpt lat="42.28756" lon="3.2762">
        <ele>6.3</ele>
        <time>2024-11-10T15:12:46Z</time>
      </trkpt>
      <trkpt lat="42.28756" lon="3.2762">
        <ele>6.3</ele>
        <time>2024-11-10T15:12:47Z</time>
      </trkpt>
      <trkpt lat="42.28756" lon="3.2762">
        <ele>6.3</ele>
        <time>2024-11-10T15:12:48Z</time>
      </trkpt>
      <trkpt lat="42.28756" lon="3.2762">
        <ele>6.3</ele>
        <time>2024-11-10T15:12:49Z</time>
      </trkpt>
      <trkpt lat="42.28756" lon="3.2762">
        <ele>6.3</ele>
        <time>2024-11-10T15:12:50Z</time>
      </trkpt>
      <trkpt lat="42.28756" lon="3.2762">
        <ele>6.3</ele>
        <time>2024-11-10T15:12:51Z</time>
      </trkpt>
      <trkpt lat="42.28756" lon="3.2762">
        <ele>6.3</ele>
        <time>2024-11-10T15:12:52Z</time>
      </trkpt>
      <trkpt lat="42.28756" lon="3.2762">
        <ele>6.3</ele>
        <time>2024-11-10T15:12:53Z</time>
      </trkpt>
      <trkpt lat="42.28756" lon="3.2762">
        <ele>6.3</ele>
        <time>2024-11-10T15:12:54Z</time>
      </trkpt>
      <trkpt lat="42.28756" lon="3.2762">
        <ele>6.3</ele>
        <time>2024-11-10T15:12:55Z</time>
      </trkpt>
      <trkpt lat="42.28756" lon="3.2762">
        <ele>6.3</ele>
        <time>2024-11-10T15:12:56Z</time>
      </trkpt>
      <trkpt lat="42.28756" lon="3.2762">
        <ele>6.3</ele>
        <time>2024-11-10T15:12:57Z</time>
      </trkpt>
      <trkpt lat="42.28756" lon="3.2762">
        <ele>6.3</ele>
        <time>2024-11-10T15:12:58Z</time>
      </trkpt>
      <trkpt lat="42.28756" lon="3.2762">
        <ele>6.3</ele>
        <time>2024-11-10T15:12:59Z</time>
      </trkpt>
      <trkpt lat="42.28756" lon="3.2762">
        <ele>6.3</ele>
        <time>2024-11-10T15:13:00Z</time>
      </trkpt>
      <trkpt lat="42.28756" lon="3.2762">
        <ele>6.3</ele>
        <time>2024-11-10T15:13:01Z</time>
      </trkpt>
      <trkpt lat="42.28756" lon="3.2762">
        <ele>6.3</ele>
        <time>2024-11-10T15:13:02Z</time>
      </trkpt>
      <trkpt lat="42.28756" lon="3.2762">
        <ele>6.3</ele>
        <time>2024-11-10T15:13:03Z</time>
      </trkpt>
      <trkpt lat="42.28756" lon="3.2762">
        <ele>6.3</ele>
        <time>2024-11-10T15:13:04Z</time>
      </trkpt>
      <trkpt lat="42.28756" lon="3.2762">
        <ele>6.3</ele>
        <time>2024-11-10T15:13:05Z</time>
      </trkpt>
      <trkpt lat="42.28756" lon="3.2762">
        <ele>6.3</ele>
        <time>2024-11-10T15:13:06Z</time>
      </trkpt>
      <trkpt lat="42.28756" lon="3.2762">
        <ele>6.3</ele>
        <time>2024-11-10T15:13:07Z</time>
      </trkpt>
      <trkpt lat="42.28756" lon="3.2762">
        <ele>6.3</ele>
        <time>2024-11-10T15:13:08Z</time>
      </trkpt>
      <trkpt lat="42.28756" lon="3.2762">
        <ele>6.3</ele>
        <time>2024-11-10T15:13:09Z</time>
      </trkpt>
      <trkpt lat="42.28756" lon="3.2762">
        <ele>6.3</ele>
        <time>2024-11-10T15:13:10Z</time>
      </trkpt>
      <trkpt lat="42.28756" lon="3.2762">
        <ele>6.3</ele>
        <time>2024-11-10T15:13:11Z</time>
      </trkpt>
      <trkpt lat="42.28756" lon="3.2762">
        <ele>6.3</ele>
        <time>2024-11-10T15:13:12Z</time>
      </trkpt>
      <trkpt lat="42.28756" lon="3.2762">
        <ele>6.3</ele>
        <time>2024-11-10T15:13:13Z</time>
      </trkpt>
      <trkpt lat="42.28756" lon="3.2762">
        <ele>6.3</ele>
        <time>2024-11-10T15:13:14Z</time>
      </trkpt>
      <trkpt lat="42.28756" lon="3.2762">
        <ele>6.3</ele>
        <time>2024-11-10T15:13:15Z</time>
      </trkpt>
      <trkpt lat="42.28756" lon="3.2762">
        <ele>6.3</ele>
        <time>2024-11-10T15:13:16Z</time>
      </trkpt>
      <trkpt lat="42.28756" lon="3.2762">
        <ele>6.3</ele>
        <time>2024-11-10T15:13:17Z</time>
      </trkpt>
      <trkpt lat="42.28756" lon="3.2762">
        <ele>6.3</ele>
        <time>2024-11-10T15:13:18Z</time>
      </trkpt>
      <trkpt lat="42.28756" lon="3.2762">
        <ele>6.3</ele>
        <time>2024-11-10T15:13:19Z</time>
      </trkpt>
      <trkpt lat="42.28756" lon="3.2762">
        <ele>6.3</ele>
        <time>2024-11-10T15:13:20Z</time>
      </trkpt>
      <trkpt lat="42.28756" lon="3.2762">
        <ele>6.3</ele>
        <time>2024-11-10T15:13:21Z</time>
      </trkpt>
      <trkpt lat="42.28756" lon="3.2762">
        <ele>6.3</ele>
        <time>2024-11-10T15:13:22Z</time>
      </trkpt>
      <trkpt lat="42.28756" lon="3.2762">
        <ele>6.3</ele>
        <time>2024-11-10T15:13:23Z</time>
      </trkpt>
      <trkpt lat="42.28756" lon="3.2762">
        <ele>6.3</ele>
        <time>2024-11-10T15:13:24Z</time>
      </trkpt>
      <trkpt lat="42.28756" lon="3.2762">
        <ele>6.3</ele>
        <time>2024-11-10T15:13:25Z</time>
      </trkpt>
      <trkpt lat="42.28756" lon="3.2762">
        <ele>6.3</ele>
        <time>2024-11-10T15:13:26Z</time>
      </trkpt>
      <trkpt lat="42.28756" lon="3.2762">
        <ele>6.3</ele>
        <time>2024-11-10T15:13:27Z</time>
      </trkpt>
      <trkpt lat="42.28756" lon="3.2762">
        <ele>6.3</ele>
        <time>2024-11-10T15:13:28Z</time>
      </trkpt>
      <trkpt lat="42.28756" lon="3.2762">
        <ele>6.3</ele>
        <time>2024-11-10T15:13:29Z</time>
      </trkpt>
      <trkpt lat="42.28756" lon="3.2762">
        <ele>6.3</ele>
        <time>2024-11-10T15:13:30Z</time>
      </trkpt>
      <trkpt lat="42.28756" lon="3.2762">
        <ele>6.3</ele>
        <time>2024-11-10T15:13:31Z</time>
      </trkpt>
      <trkpt lat="42.28756" lon="3.2762">
        <ele>6.3</ele>
        <time>2024-11-10T15:13:32Z</time>
      </trkpt>
      <trkpt lat="42.28756" lon="3.2762">
        <ele>6.3</ele>
        <time>2024-11-10T15:13:33Z</time>
      </trkpt>
      <trkpt lat="42.28756" lon="3.2762">
        <ele>6.3</ele>
        <time>2024-11-10T15:13:34Z</time>
      </trkpt>
      <trkpt lat="42.28756" lon="3.2762">
        <ele>6.3</ele>
        <time>2024-11-10T15:13:35Z</time>
      </trkpt>
      <trkpt lat="42.28756" lon="3.2762">
        <ele>6.3</ele>
        <time>2024-11-10T15:13:36Z</time>
      </trkpt>
      <trkpt lat="42.28756" lon="3.2762">
        <ele>6.3</ele>
        <time>2024-11-10T15:13:37Z</time>
      </trkpt>
      <trkpt lat="42.28756" lon="3.2762">
        <ele>6.3</ele>
        <time>2024-11-10T15:13:38Z</time>
      </trkpt>
      <trkpt lat="42.28756" lon="3.2762">
        <ele>6.3</ele>
        <time>2024-11-10T15:13:39Z</time>
      </trkpt>
      <trkpt lat="42.28756" lon="3.2762">
        <ele>6.3</ele>
        <time>2024-11-10T15:13:40Z</time>
      </trkpt>
      <trkpt lat="42.28756" lon="3.2762">
        <ele>6.3</ele>
        <time>2024-11-10T15:13:41Z</time>
      </trkpt>
      <trkpt lat="42.28756" lon="3.2762">
        <ele>6.3</ele>
        <time>2024-11-10T15:13:42Z</time>
      </trkpt>
      <trkpt lat="42.28756" lon="3.2762">
        <ele>6.3</ele>
        <time>2024-11-10T15:13:43Z</time>
      </trkpt>
      <trkpt lat="42.28756" lon="3.2762">
        <ele>6.3</ele>
        <time>2024-11-10T15:13:44Z</time>
      </trkpt>
      <trkpt lat="42.28756" lon="3.2762">
        <ele>6.3</ele>
        <time>2024-11-10T15:13:45Z</time>
      </trkpt>
      <trkpt lat="42.28756" lon="3.2762">
        <ele>6.3</ele>
        <time>2024-11-10T15:13:46Z</time>
      </trkpt>
      <trkpt lat="42.28756" lon="3.2762">
        <ele>6.3</ele>
        <time>2024-11-10T15:13:47Z</time>
      </trkpt>
      <trkpt lat="42.28756" lon="3.2762">
        <ele>6.3</ele>
        <time>2024-11-10T15:13:49Z</time>
      </trkpt>
      <trkpt lat="42.28756" lon="3.2762">
        <ele>6.3</ele>
        <time>2024-11-10T15:13:50Z</time>
      </trkpt>
      <trkpt lat="42.28756" lon="3.2762">
        <ele>6.3</ele>
        <time>2024-11-10T15:13:52Z</time>
      </trkpt>
      <trkpt lat="42.28756" lon="3.2762">
        <ele>6.3</ele>
        <time>2024-11-10T15:13:53Z</time>
      </trkpt>
      <trkpt lat="42.28756" lon="3.2762">
        <ele>6.3</ele>
        <time>2024-11-10T15:13:54Z</time>
      </trkpt>
      <trkpt lat="42.28756" lon="3.2762">
        <ele>6.3</ele>
        <time>2024-11-10T15:13:55Z</time>
      </trkpt>
      <trkpt lat="42.28756" lon="3.2762">
        <ele>6.3</ele>
        <time>2024-11-10T15:13:56Z</time>
      </trkpt>
      <trkpt lat="42.28756" lon="3.2762">
        <ele>6.3</ele>
        <time>2024-11-10T15:13:57Z</time>
      </trkpt>
      <trkpt lat="42.28756" lon="3.2762">
        <ele>6.3</ele>
        <time>2024-11-10T15:13:58Z</time>
      </trkpt>
      <trkpt lat="42.28756" lon="3.2762">
        <ele>6.3</ele>
        <time>2024-11-10T15:13:59Z</time>
      </trkpt>
      <trkpt lat="42.28756" lon="3.2762">
        <ele>6.3</ele>
        <time>2024-11-10T15:14:00Z</time>
      </trkpt>
      <trkpt lat="42.28756" lon="3.2762">
        <ele>6.3</ele>
        <time>2024-11-10T15:14:01Z</time>
      </trkpt>
      <trkpt lat="42.28756" lon="3.2762">
        <ele>6.3</ele>
        <time>2024-11-10T15:14:02Z</time>
      </trkpt>
      <trkpt lat="42.28756" lon="3.2762">
        <ele>6.3</ele>
        <time>2024-11-10T15:14:03Z</time>
      </trkpt>
      <trkpt lat="42.28756" lon="3.2762">
        <ele>6.3</ele>
        <time>2024-11-10T15:14:04Z</time>
      </trkpt>
      <trkpt lat="42.28756" lon="3.2762">
        <ele>6.3</ele>
        <time>2024-11-10T15:14:05Z</time>
      </trkpt>
      <trkpt lat="42.28756" lon="3.2762">
        <ele>6.3</ele>
        <time>2024-11-10T15:14:06Z</time>
      </trkpt>
      <trkpt lat="42.28756" lon="3.2762">
        <ele>6.3</ele>
        <time>2024-11-10T15:14:07Z</time>
      </trkpt>
      <trkpt lat="42.28756" lon="3.2762">
        <ele>6.3</ele>
        <time>2024-11-10T15:14:08Z</time>
      </trkpt>
      <trkpt lat="42.28756" lon="3.2762">
        <ele>6.3</ele>
        <time>2024-11-10T15:14:09Z</time>
      </trkpt>
      <trkpt lat="42.28756" lon="3.2762">
        <ele>6.3</ele>
        <time>2024-11-10T15:14:10Z</time>
      </trkpt>
      <trkpt lat="42.28756" lon="3.2762">
        <ele>6.3</ele>
        <time>2024-11-10T15:14:11Z</time>
      </trkpt>
      <trkpt lat="42.28756" lon="3.2762">
        <ele>6.3</ele>
        <time>2024-11-10T15:14:12Z</time>
      </trkpt>
      <trkpt lat="42.28756" lon="3.2762">
        <ele>6.3</ele>
        <time>2024-11-10T15:14:13Z</time>
      </trkpt>
      <trkpt lat="42.28756" lon="3.2762">
        <ele>6.3</ele>
        <time>2024-11-10T15:14:14Z</time>
      </trkpt>
      <trkpt lat="42.28756" lon="3.2762">
        <ele>6.3</ele>
        <time>2024-11-10T15:14:16Z</time>
      </trkpt>
      <trkpt lat="42.28756" lon="3.2762">
        <ele>6.3</ele>
        <time>2024-11-10T15:14:17Z</time>
      </trkpt>
      <trkpt lat="42.28756" lon="3.2762">
        <ele>6.3</ele>
        <time>2024-11-10T15:14:18Z</time>
      </trkpt>
      <trkpt lat="42.28756" lon="3.2762">
        <ele>6.3</ele>
        <time>2024-11-10T15:14:19Z</time>
      </trkpt>
      <trkpt lat="42.28756" lon="3.2762">
        <ele>6.3</ele>
        <time>2024-11-10T15:14:20Z</time>
      </trkpt>
      <trkpt lat="42.28756" lon="3.2762">
        <ele>6.3</ele>
        <time>2024-11-10T15:14:21Z</time>
      </trkpt>
      <trkpt lat="42.28756" lon="3.2762">
        <ele>6.3</ele>
        <time>2024-11-10T15:14:22Z</time>
      </trkpt>
      <trkpt lat="42.28756" lon="3.2762">
        <ele>6.3</ele>
        <time>2024-11-10T15:14:23Z</time>
      </trkpt>
      <trkpt lat="42.28756" lon="3.2762">
        <ele>6.3</ele>
        <time>2024-11-10T15:14:24Z</time>
      </trkpt>
      <trkpt lat="42.28756" lon="3.2762">
        <ele>6.3</ele>
        <time>2024-11-10T15:14:25Z</time>
      </trkpt>
      <trkpt lat="42.28756" lon="3.2762">
        <ele>6.3</ele>
        <time>2024-11-10T15:14:26Z</time>
      </trkpt>
      <trkpt lat="42.28756" lon="3.2762">
        <ele>6.3</ele>
        <time>2024-11-10T15:14:27Z</time>
      </trkpt>
      <trkpt lat="42.28756" lon="3.2762">
        <ele>6.3</ele>
        <time>2024-11-10T15:14:28Z</time>
      </trkpt>
      <trkpt lat="42.28756" lon="3.2762">
        <ele>6.3</ele>
        <time>2024-11-10T15:14:29Z</time>
      </trkpt>
      <trkpt lat="42.28756" lon="3.2762">
        <ele>6.3</ele>
        <time>2024-11-10T15:14:30Z</time>
      </trkpt>
      <trkpt lat="42.28756" lon="3.27619">
        <ele>6.3</ele>
        <time>2024-11-10T15:14:31Z</time>
      </trkpt>
      <trkpt lat="42.28756" lon="3.27619">
        <ele>6.3</ele>
        <time>2024-11-10T15:14:32Z</time>
      </trkpt>
      <trkpt lat="42.28756" lon="3.27619">
        <ele>6.3</ele>
        <time>2024-11-10T15:14:33Z</time>
      </trkpt>
      <trkpt lat="42.28756" lon="3.27619">
        <ele>6.3</ele>
        <time>2024-11-10T15:14:34Z</time>
      </trkpt>
      <trkpt lat="42.28756" lon="3.27619">
        <ele>6.3</ele>
        <time>2024-11-10T15:14:35Z</time>
      </trkpt>
      <trkpt lat="42.28756" lon="3.27619">
        <ele>6.3</ele>
        <time>2024-11-10T15:14:36Z</time>
      </trkpt>
      <trkpt lat="42.28756" lon="3.27619">
        <ele>6.3</ele>
        <time>2024-11-10T15:14:37Z</time>
      </trkpt>
      <trkpt lat="42.28756" lon="3.27619">
        <ele>6.3</ele>
        <time>2024-11-10T15:14:38Z</time>
      </trkpt>
      <trkpt lat="42.28756" lon="3.27619">
        <ele>6.3</ele>
        <time>2024-11-10T15:14:39Z</time>
      </trkpt>
      <trkpt lat="42.28756" lon="3.27619">
        <ele>6.3</ele>
        <time>2024-11-10T15:14:40Z</time>
      </trkpt>
      <trkpt lat="42.28756" lon="3.27619">
        <ele>6.3</ele>
        <time>2024-11-10T15:14:41Z</time>
      </trkpt>
      <trkpt lat="42.28756" lon="3.27619">
        <ele>6.3</ele>
        <time>2024-11-10T15:14:42Z</time>
      </trkpt>
      <trkpt lat="42.28756" lon="3.27619">
        <ele>6.3</ele>
        <time>2024-11-10T15:14:43Z</time>
      </trkpt>
      <trkpt lat="42.28755" lon="3.27619">
        <ele>6.3</ele>
        <time>2024-11-10T15:14:44Z</time>
      </trkpt>
      <trkpt lat="42.28755" lon="3.27619">
        <ele>6.3</ele>
        <time>2024-11-10T15:14:45Z</time>
      </trkpt>
      <trkpt lat="42.28754" lon="3.27618">
        <ele>6.3</ele>
        <time>2024-11-10T15:14:46Z</time>
      </trkpt>
      <trkpt lat="42.28753" lon="3.27618">
        <ele>6.3</ele>
        <time>2024-11-10T15:14:47Z</time>
      </trkpt>
      <trkpt lat="42.28751" lon="3.27618">
        <ele>6.3</ele>
        <time>2024-11-10T15:14:48Z</time>
      </trkpt>
      <trkpt lat="42.2875" lon="3.27617">
        <ele>6.3</ele>
        <time>2024-11-10T15:14:49Z</time>
      </trkpt>
      <trkpt lat="42.28749" lon="3.27617">
        <ele>6.3</ele>
        <time>2024-11-10T15:14:50Z</time>
      </trkpt>
      <trkpt lat="42.28748" lon="3.27616">
        <ele>6.3</ele>
        <time>2024-11-10T15:14:51Z</time>
      </trkpt>
      <trkpt lat="42.28747" lon="3.27615">
        <ele>6.3</ele>
        <time>2024-11-10T15:14:52Z</time>
      </trkpt>
      <trkpt lat="42.28746" lon="3.27614">
        <ele>6.3</ele>
        <time>2024-11-10T15:14:53Z</time>
      </trkpt>
      <trkpt lat="42.28746" lon="3.27612">
        <ele>6.3</ele>
        <time>2024-11-10T15:14:54Z</time>
      </trkpt>
      <trkpt lat="42.28745" lon="3.27611">
        <ele>6.3</ele>
        <time>2024-11-10T15:14:55Z</time>
      </trkpt>
      <trkpt lat="42.28745" lon="3.27608">
        <ele>6.3</ele>
        <time>2024-11-10T15:14:56Z</time>
      </trkpt>
      <trkpt lat="42.28744" lon="3.27607">
        <ele>6.3</ele>
        <time>2024-11-10T15:14:57Z</time>
      </trkpt>
      <trkpt lat="42.28743" lon="3.27607">
        <ele>6.3</ele>
        <time>2024-11-10T15:14:58Z</time>
      </trkpt>
      <trkpt lat="42.28743" lon="3.27606">
        <ele>6.3</ele>
        <time>2024-11-10T15:14:59Z</time>
      </trkpt>
      <trkpt lat="42.28742" lon="3.27605">
        <ele>6.3</ele>
        <time>2024-11-10T15:15:00Z</time>
      </trkpt>
      <trkpt lat="42.28741" lon="3.27604">
        <ele>6.3</ele>
        <time>2024-11-10T15:15:01Z</time>
      </trkpt>
      <trkpt lat="42.2874" lon="3.27604">
        <ele>6.3</ele>
        <time>2024-11-10T15:15:02Z</time>
      </trkpt>
      <trkpt lat="42.28739" lon="3.27603">
        <ele>6.3</ele>
        <time>2024-11-10T15:15:03Z</time>
      </trkpt>
      <trkpt lat="42.28738" lon="3.27602">
        <ele>6.3</ele>
        <time>2024-11-10T15:15:04Z</time>
      </trkpt>
      <trkpt lat="42.28738" lon="3.27602">
        <ele>6.3</ele>
        <time>2024-11-10T15:15:05Z</time>
      </trkpt>
      <trkpt lat="42.28737" lon="3.276">
        <ele>6.2</ele>
        <time>2024-11-10T15:15:06Z</time>
      </trkpt>
      <trkpt lat="42.28736" lon="3.27599">
        <ele>6.2</ele>
        <time>2024-11-10T15:15:07Z</time>
      </trkpt>
      <trkpt lat="42.28735" lon="3.276">
        <ele>6.2</ele>
        <time>2024-11-10T15:15:08Z</time>
      </trkpt>
      <trkpt lat="42.28733" lon="3.27599">
        <ele>6.2</ele>
        <time>2024-11-10T15:15:09Z</time>
      </trkpt>
      <trkpt lat="42.28733" lon="3.27599">
        <ele>6.2</ele>
        <time>2024-11-10T15:15:10Z</time>
      </trkpt>
      <trkpt lat="42.28732" lon="3.27599">
        <ele>6.2</ele>
        <time>2024-11-10T15:15:11Z</time>
      </trkpt>
      <trkpt lat="42.28731" lon="3.27598">
        <ele>6.2</ele>
        <time>2024-11-10T15:15:12Z</time>
      </trkpt>
      <trkpt lat="42.28729" lon="3.27598">
        <ele>6.2</ele>
        <time>2024-11-10T15:15:13Z</time>
      </trkpt>
      <trkpt lat="42.28728" lon="3.27599">
        <ele>6.2</ele>
        <time>2024-11-10T15:15:14Z</time>
      </trkpt>
      <trkpt lat="42.28727" lon="3.27599">
        <ele>6.2</ele>
        <time>2024-11-10T15:15:15Z</time>
      </trkpt>
      <trkpt lat="42.28726" lon="3.27598">
        <ele>6.2</ele>
        <time>2024-11-10T15:15:16Z</time>
      </trkpt>
      <trkpt lat="42.28725" lon="3.27598">
        <ele>6.2</ele>
        <time>2024-11-10T15:15:17Z</time>
      </trkpt>
      <trkpt lat="42.28724" lon="3.27598">
        <ele>6.2</ele>
        <time>2024-11-10T15:15:18Z</time>
      </trkpt>
      <trkpt lat="42.28723" lon="3.27599">
        <ele>6.2</ele>
        <time>2024-11-10T15:15:19Z</time>
      </trkpt>
      <trkpt lat="42.28721" lon="3.27599">
        <ele>6.2</ele>
        <time>2024-11-10T15:15:20Z</time>
      </trkpt>
      <trkpt lat="42.2872" lon="3.27599">
        <ele>6.2</ele>
        <time>2024-11-10T15:15:21Z</time>
      </trkpt>
      <trkpt lat="42.28719" lon="3.27599">
        <ele>6.2</ele>
        <time>2024-11-10T15:15:22Z</time>
      </trkpt>
      <trkpt lat="42.28718" lon="3.27599">
        <ele>6.2</ele>
        <time>2024-11-10T15:15:23Z</time>
      </trkpt>
      <trkpt lat="42.28717" lon="3.27599">
        <ele>6.2</ele>
        <time>2024-11-10T15:15:24Z</time>
      </trkpt>
      <trkpt lat="42.28716" lon="3.27599">
        <ele>6.2</ele>
        <time>2024-11-10T15:15:25Z</time>
      </trkpt>
      <trkpt lat="42.28715" lon="3.27599">
        <ele>6.2</ele>
        <time>2024-11-10T15:15:26Z</time>
      </trkpt>
      <trkpt lat="42.28714" lon="3.276">
        <ele>6.1</ele>
        <time>2024-11-10T15:15:27Z</time>
      </trkpt>
      <trkpt lat="42.28713" lon="3.276">
        <ele>6.1</ele>
        <time>2024-11-10T15:15:28Z</time>
      </trkpt>
      <trkpt lat="42.28712" lon="3.276">
        <ele>6.1</ele>
        <time>2024-11-10T15:15:29Z</time>
      </trkpt>
      <trkpt lat="42.28711" lon="3.27601">
        <ele>6.1</ele>
        <time>2024-11-10T15:15:30Z</time>
      </trkpt>
      <trkpt lat="42.2871" lon="3.276">
        <ele>6.1</ele>
        <time>2024-11-10T15:15:31Z</time>
      </trkpt>
      <trkpt lat="42.2871" lon="3.276">
        <ele>6.1</ele>
        <time>2024-11-10T15:15:32Z</time>
      </trkpt>
      <trkpt lat="42.28709" lon="3.276">
        <ele>6.1</ele>
        <time>2024-11-10T15:15:33Z</time>
      </trkpt>
      <trkpt lat="42.28708" lon="3.27599">
        <ele>6.1</ele>
        <time>2024-11-10T15:15:34Z</time>
      </trkpt>
      <trkpt lat="42.28707" lon="3.276">
        <ele>6.1</ele>
        <time>2024-11-10T15:15:35Z</time>
      </trkpt>
      <trkpt lat="42.28706" lon="3.276">
        <ele>6.1</ele>
        <time>2024-11-10T15:15:36Z</time>
      </trkpt>
      <trkpt lat="42.28705" lon="3.27601">
        <ele>6.1</ele>
        <time>2024-11-10T15:15:37Z</time>
      </trkpt>
      <trkpt lat="42.28704" lon="3.27601">
        <ele>6.1</ele>
        <time>2024-11-10T15:15:38Z</time>
      </trkpt>
      <trkpt lat="42.28703" lon="3.27602">
        <ele>6.1</ele>
        <time>2024-11-10T15:15:39Z</time>
      </trkpt>
      <trkpt lat="42.28702" lon="3.27603">
        <ele>6.1</ele>
        <time>2024-11-10T15:15:40Z</time>
      </trkpt>
      <trkpt lat="42.28701" lon="3.27604">
        <ele>6.1</ele>
        <time>2024-11-10T15:15:41Z</time>
      </trkpt>
      <trkpt lat="42.287" lon="3.27605">
        <ele>6.1</ele>
        <time>2024-11-10T15:15:42Z</time>
      </trkpt>
      <trkpt lat="42.28699" lon="3.27605">
        <ele>6.1</ele>
        <time>2024-11-10T15:15:43Z</time>
      </trkpt>
      <trkpt lat="42.28698" lon="3.27607">
        <ele>6.1</ele>
        <time>2024-11-10T15:15:44Z</time>
      </trkpt>
      <trkpt lat="42.28697" lon="3.27607">
        <ele>6.1</ele>
        <time>2024-11-10T15:15:45Z</time>
      </trkpt>
      <trkpt lat="42.28696" lon="3.27608">
        <ele>6.1</ele>
        <time>2024-11-10T15:15:46Z</time>
      </trkpt>
      <trkpt lat="42.28695" lon="3.27609">
        <ele>6.1</ele>
        <time>2024-11-10T15:15:47Z</time>
      </trkpt>
      <trkpt lat="42.28695" lon="3.2761">
        <ele>6.1</ele>
        <time>2024-11-10T15:15:48Z</time>
      </trkpt>
      <trkpt lat="42.28694" lon="3.27611">
        <ele>6.1</ele>
        <time>2024-11-10T15:15:49Z</time>
      </trkpt>
      <trkpt lat="42.28693" lon="3.27612">
        <ele>6.1</ele>
        <time>2024-11-10T15:15:50Z</time>
      </trkpt>
      <trkpt lat="42.28692" lon="3.27612">
        <ele>6.1</ele>
        <time>2024-11-10T15:15:51Z</time>
      </trkpt>
      <trkpt lat="42.28691" lon="3.27612">
        <ele>6.1</ele>
        <time>2024-11-10T15:15:52Z</time>
      </trkpt>
      <trkpt lat="42.2869" lon="3.27612">
        <ele>6.1</ele>
        <time>2024-11-10T15:15:53Z</time>
      </trkpt>
      <trkpt lat="42.28689" lon="3.27612">
        <ele>6.1</ele>
        <time>2024-11-10T15:15:54Z</time>
      </trkpt>
      <trkpt lat="42.28688" lon="3.27613">
        <ele>6.1</ele>
        <time>2024-11-10T15:15:55Z</time>
      </trkpt>
      <trkpt lat="42.28688" lon="3.27614">
        <ele>6.2</ele>
        <time>2024-11-10T15:15:56Z</time>
      </trkpt>
      <trkpt lat="42.28687" lon="3.27615">
        <ele>6.2</ele>
        <time>2024-11-10T15:15:57Z</time>
      </trkpt>
      <trkpt lat="42.28686" lon="3.27615">
        <ele>6.2</ele>
        <time>2024-11-10T15:15:58Z</time>
      </trkpt>
      <trkpt lat="42.28686" lon="3.27616">
        <ele>6.2</ele>
        <time>2024-11-10T15:15:59Z</time>
      </trkpt>
      <trkpt lat="42.28685" lon="3.27617">
        <ele>6.2</ele>
        <time>2024-11-10T15:16:00Z</time>
      </trkpt>
      <trkpt lat="42.28685" lon="3.27618">
        <ele>6.3</ele>
        <time>2024-11-10T15:16:01Z</time>
      </trkpt>
      <trkpt lat="42.28684" lon="3.27619">
        <ele>6.3</ele>
        <time>2024-11-10T15:16:02Z</time>
      </trkpt>
      <trkpt lat="42.28684" lon="3.2762">
        <ele>6.3</ele>
        <time>2024-11-10T15:16:03Z</time>
      </trkpt>
      <trkpt lat="42.28683" lon="3.2762">
        <ele>6.3</ele>
        <time>2024-11-10T15:16:04Z</time>
      </trkpt>
      <trkpt lat="42.28682" lon="3.2762">
        <ele>6.3</ele>
        <time>2024-11-10T15:16:05Z</time>
      </trkpt>
      <trkpt lat="42.28681" lon="3.2762">
        <ele>6.3</ele>
        <time>2024-11-10T15:16:06Z</time>
      </trkpt>
      <trkpt lat="42.28681" lon="3.2762">
        <ele>6.4</ele>
        <time>2024-11-10T15:16:07Z</time>
      </trkpt>
      <trkpt lat="42.2868" lon="3.27621">
        <ele>6.4</ele>
        <time>2024-11-10T15:16:08Z</time>
      </trkpt>
      <trkpt lat="42.28679" lon="3.27621">
        <ele>6.4</ele>
        <time>2024-11-10T15:16:09Z</time>
      </trkpt>
      <trkpt lat="42.28679" lon="3.27621">
        <ele>6.4</ele>
        <time>2024-11-10T15:16:10Z</time>
      </trkpt>
      <trkpt lat="42.28678" lon="3.27622">
        <ele>6.4</ele>
        <time>2024-11-10T15:16:11Z</time>
      </trkpt>
      <trkpt lat="42.28677" lon="3.27622">
        <ele>6.5</ele>
        <time>2024-11-10T15:16:12Z</time>
      </trkpt>
      <trkpt lat="42.28676" lon="3.27622">
        <ele>6.5</ele>
        <time>2024-11-10T15:16:13Z</time>
      </trkpt>
      <trkpt lat="42.28675" lon="3.27622">
        <ele>6.5</ele>
        <time>2024-11-10T15:16:14Z</time>
      </trkpt>
      <trkpt lat="42.28675" lon="3.27622">
        <ele>6.5</ele>
        <time>2024-11-10T15:16:15Z</time>
      </trkpt>
      <trkpt lat="42.28674" lon="3.27623">
        <ele>6.5</ele>
        <time>2024-11-10T15:16:16Z</time>
      </trkpt>
      <trkpt lat="42.28673" lon="3.27623">
        <ele>6.6</ele>
        <time>2024-11-10T15:16:17Z</time>
      </trkpt>
      <trkpt lat="42.28673" lon="3.27623">
        <ele>6.6</ele>
        <time>2024-11-10T15:16:18Z</time>
      </trkpt>
      <trkpt lat="42.28673" lon="3.27623">
        <ele>6.6</ele>
        <time>2024-11-10T15:16:19Z</time>
      </trkpt>
      <trkpt lat="42.28673" lon="3.27622">
        <ele>6.6</ele>
        <time>2024-11-10T15:16:20Z</time>
      </trkpt>
      <trkpt lat="42.28673" lon="3.27623">
        <ele>6.6</ele>
        <time>2024-11-10T15:16:21Z</time>
      </trkpt>
      <trkpt lat="42.28672" lon="3.27622">
        <ele>6.6</ele>
        <time>2024-11-10T15:16:22Z</time>
      </trkpt>
      <trkpt lat="42.28671" lon="3.27622">
        <ele>6.6</ele>
        <time>2024-11-10T15:16:23Z</time>
      </trkpt>
      <trkpt lat="42.2867" lon="3.27622">
        <ele>6.7</ele>
        <time>2024-11-10T15:16:24Z</time>
      </trkpt>
      <trkpt lat="42.2867" lon="3.27622">
        <ele>6.7</ele>
        <time>2024-11-10T15:16:25Z</time>
      </trkpt>
      <trkpt lat="42.28669" lon="3.27623">
        <ele>6.7</ele>
        <time>2024-11-10T15:16:26Z</time>
      </trkpt>
      <trkpt lat="42.28668" lon="3.27623">
        <ele>6.8</ele>
        <time>2024-11-10T15:16:27Z</time>
      </trkpt>
      <trkpt lat="42.28667" lon="3.27623">
        <ele>6.8</ele>
        <time>2024-11-10T15:16:28Z</time>
      </trkpt>
      <trkpt lat="42.28666" lon="3.27623">
        <ele>6.8</ele>
        <time>2024-11-10T15:16:29Z</time>
      </trkpt>
      <trkpt lat="42.28664" lon="3.27623">
        <ele>6.9</ele>
        <time>2024-11-10T15:16:30Z</time>
      </trkpt>
      <trkpt lat="42.28663" lon="3.27623">
        <ele>6.9</ele>
        <time>2024-11-10T15:16:31Z</time>
      </trkpt>
      <trkpt lat="42.28662" lon="3.27623">
        <ele>6.9</ele>
        <time>2024-11-10T15:16:32Z</time>
      </trkpt>
      <trkpt lat="42.28661" lon="3.27624">
        <ele>7</ele>
        <time>2024-11-10T15:16:33Z</time>
      </trkpt>
      <trkpt lat="42.2866" lon="3.27624">
        <ele>7</ele>
        <time>2024-11-10T15:16:34Z</time>
      </trkpt>
      <trkpt lat="42.28659" lon="3.27624">
        <ele>7.1</ele>
        <time>2024-11-10T15:16:35Z</time>
      </trkpt>
      <trkpt lat="42.28659" lon="3.27625">
        <ele>7.1</ele>
        <time>2024-11-10T15:16:36Z</time>
      </trkpt>
      <trkpt lat="42.28658" lon="3.27625">
        <ele>7.1</ele>
        <time>2024-11-10T15:16:37Z</time>
      </trkpt>
      <trkpt lat="42.28657" lon="3.27625">
        <ele>7.2</ele>
        <time>2024-11-10T15:16:38Z</time>
      </trkpt>
      <trkpt lat="42.28655" lon="3.27626">
        <ele>7.2</ele>
        <time>2024-11-10T15:16:39Z</time>
      </trkpt>
      <trkpt lat="42.28654" lon="3.27626">
        <ele>7.3</ele>
        <time>2024-11-10T15:16:40Z</time>
      </trkpt>
      <trkpt lat="42.28653" lon="3.27627">
        <ele>7.3</ele>
        <time>2024-11-10T15:16:41Z</time>
      </trkpt>
      <trkpt lat="42.28652" lon="3.27627">
        <ele>7.3</ele>
        <time>2024-11-10T15:16:42Z</time>
      </trkpt>
      <trkpt lat="42.28651" lon="3.27627">
        <ele>7.4</ele>
        <time>2024-11-10T15:16:43Z</time>
      </trkpt>
      <trkpt lat="42.2865" lon="3.27628">
        <ele>7.4</ele>
        <time>2024-11-10T15:16:44Z</time>
      </trkpt>
      <trkpt lat="42.28649" lon="3.27628">
        <ele>7.5</ele>
        <time>2024-11-10T15:16:45Z</time>
      </trkpt>
      <trkpt lat="42.28648" lon="3.27628">
        <ele>7.5</ele>
        <time>2024-11-10T15:16:46Z</time>
      </trkpt>
      <trkpt lat="42.28647" lon="3.27631">
        <ele>7.6</ele>
        <time>2024-11-10T15:16:47Z</time>
      </trkpt>
      <trkpt lat="42.28646" lon="3.27631">
        <ele>7.6</ele>
        <time>2024-11-10T15:16:48Z</time>
      </trkpt>
      <trkpt lat="42.28645" lon="3.27631">
        <ele>7.7</ele>
        <time>2024-11-10T15:16:49Z</time>
      </trkpt>
      <trkpt lat="42.28644" lon="3.27631">
        <ele>7.7</ele>
        <time>2024-11-10T15:16:50Z</time>
      </trkpt>
      <trkpt lat="42.28642" lon="3.27631">
        <ele>7.7</ele>
        <time>2024-11-10T15:16:51Z</time>
      </trkpt>
      <trkpt lat="42.28642" lon="3.27632">
        <ele>7.7</ele>
        <time>2024-11-10T15:16:52Z</time>
      </trkpt>
      <trkpt lat="42.28641" lon="3.27633">
        <ele>7.8</ele>
        <time>2024-11-10T15:16:53Z</time>
      </trkpt>
      <trkpt lat="42.2864" lon="3.27634">
        <ele>7.8</ele>
        <time>2024-11-10T15:16:54Z</time>
      </trkpt>
      <trkpt lat="42.28639" lon="3.27634">
        <ele>7.8</ele>
        <time>2024-11-10T15:16:55Z</time>
      </trkpt>
      <trkpt lat="42.28638" lon="3.27635">
        <ele>7.8</ele>
        <time>2024-11-10T15:16:56Z</time>
      </trkpt>
      <trkpt lat="42.28638" lon="3.27637">
        <ele>7.9</ele>
        <time>2024-11-10T15:16:57Z</time>
      </trkpt>
      <trkpt lat="42.28637" lon="3.27637">
        <ele>7.9</ele>
        <time>2024-11-10T15:16:58Z</time>
      </trkpt>
      <trkpt lat="42.28636" lon="3.27638">
        <ele>8</ele>
        <time>2024-11-10T15:16:59Z</time>
      </trkpt>
      <trkpt lat="42.28635" lon="3.27638">
        <ele>8</ele>
        <time>2024-11-10T15:17:00Z</time>
      </trkpt>
      <trkpt lat="42.28634" lon="3.27638">
        <ele>8</ele>
        <time>2024-11-10T15:17:01Z</time>
      </trkpt>
      <trkpt lat="42.28633" lon="3.27639">
        <ele>8</ele>
        <time>2024-11-10T15:17:02Z</time>
      </trkpt>
      <trkpt lat="42.28632" lon="3.27639">
        <ele>8.1</ele>
        <time>2024-11-10T15:17:03Z</time>
      </trkpt>
      <trkpt lat="42.28631" lon="3.27639">
        <ele>8.1</ele>
        <time>2024-11-10T15:17:04Z</time>
      </trkpt>
      <trkpt lat="42.2863" lon="3.27639">
        <ele>8.1</ele>
        <time>2024-11-10T15:17:05Z</time>
      </trkpt>
      <trkpt lat="42.28629" lon="3.2764">
        <ele>8.1</ele>
        <time>2024-11-10T15:17:06Z</time>
      </trkpt>
      <trkpt lat="42.28628" lon="3.2764">
        <ele>8.2</ele>
        <time>2024-11-10T15:17:07Z</time>
      </trkpt>
      <trkpt lat="42.28627" lon="3.2764">
        <ele>8.2</ele>
        <time>2024-11-10T15:17:08Z</time>
      </trkpt>
      <trkpt lat="42.28626" lon="3.2764">
        <ele>8.2</ele>
        <time>2024-11-10T15:17:09Z</time>
      </trkpt>
      <trkpt lat="42.28625" lon="3.2764">
        <ele>8.3</ele>
        <time>2024-11-10T15:17:10Z</time>
      </trkpt>
      <trkpt lat="42.28624" lon="3.2764">
        <ele>8.3</ele>
        <time>2024-11-10T15:17:11Z</time>
      </trkpt>
      <trkpt lat="42.28623" lon="3.27642">
        <ele>8.3</ele>
        <time>2024-11-10T15:17:12Z</time>
      </trkpt>
      <trkpt lat="42.28622" lon="3.27642">
        <ele>8.4</ele>
        <time>2024-11-10T15:17:13Z</time>
      </trkpt>
      <trkpt lat="42.28621" lon="3.27642">
        <ele>8.4</ele>
        <time>2024-11-10T15:17:14Z</time>
      </trkpt>
      <trkpt lat="42.2862" lon="3.27642">
        <ele>8.4</ele>
        <time>2024-11-10T15:17:15Z</time>
      </trkpt>
      <trkpt lat="42.28619" lon="3.27642">
        <ele>8.5</ele>
        <time>2024-11-10T15:17:16Z</time>
      </trkpt>
      <trkpt lat="42.28618" lon="3.27642">
        <ele>8.5</ele>
        <time>2024-11-10T15:17:17Z</time>
      </trkpt>
      <trkpt lat="42.28616" lon="3.27642">
        <ele>8.6</ele>
        <time>2024-11-10T15:17:18Z</time>
      </trkpt>
      <trkpt lat="42.28615" lon="3.27643">
        <ele>8.6</ele>
        <time>2024-11-10T15:17:19Z</time>
      </trkpt>
      <trkpt lat="42.28614" lon="3.27643">
        <ele>8.7</ele>
        <time>2024-11-10T15:17:20Z</time>
      </trkpt>
      <trkpt lat="42.28613" lon="3.27643">
        <ele>8.7</ele>
        <time>2024-11-10T15:17:21Z</time>
      </trkpt>
      <trkpt lat="42.28612" lon="3.27643">
        <ele>8.7</ele>
        <time>2024-11-10T15:17:22Z</time>
      </trkpt>
      <trkpt lat="42.28611" lon="3.27644">
        <ele>8.8</ele>
        <time>2024-11-10T15:17:23Z</time>
      </trkpt>
      <trkpt lat="42.2861" lon="3.27644">
        <ele>8.8</ele>
        <time>2024-11-10T15:17:24Z</time>
      </trkpt>
      <trkpt lat="42.28609" lon="3.27645">
        <ele>8.9</ele>
        <time>2024-11-10T15:17:25Z</time>
      </trkpt>
      <trkpt lat="42.28608" lon="3.27645">
        <ele>9</ele>
        <time>2024-11-10T15:17:26Z</time>
      </trkpt>
      <trkpt lat="42.28607" lon="3.27645">
        <ele>9</ele>
        <time>2024-11-10T15:17:27Z</time>
      </trkpt>
      <trkpt lat="42.28606" lon="3.27646">
        <ele>9.1</ele>
        <time>2024-11-10T15:17:28Z</time>
      </trkpt>
      <trkpt lat="42.28605" lon="3.27646">
        <ele>9.1</ele>
        <time>2024-11-10T15:17:29Z</time>
      </trkpt>
      <trkpt lat="42.28605" lon="3.27647">
        <ele>9.2</ele>
        <time>2024-11-10T15:17:30Z</time>
      </trkpt>
      <trkpt lat="42.28604" lon="3.27648">
        <ele>9.2</ele>
        <time>2024-11-10T15:17:31Z</time>
      </trkpt>
      <trkpt lat="42.28603" lon="3.27648">
        <ele>9.3</ele>
        <time>2024-11-10T15:17:32Z</time>
      </trkpt>
      <trkpt lat="42.28602" lon="3.27649">
        <ele>9.4</ele>
        <time>2024-11-10T15:17:33Z</time>
      </trkpt>
      <trkpt lat="42.28601" lon="3.27649">
        <ele>9.4</ele>
        <time>2024-11-10T15:17:34Z</time>
      </trkpt>
      <trkpt lat="42.286" lon="3.27648">
        <ele>9.5</ele>
        <time>2024-11-10T15:17:35Z</time>
      </trkpt>
      <trkpt lat="42.28599" lon="3.27648">
        <ele>9.6</ele>
        <time>2024-11-10T15:17:36Z</time>
      </trkpt>
      <trkpt lat="42.28598" lon="3.27647">
        <ele>9.6</ele>
        <time>2024-11-10T15:17:37Z</time>
      </trkpt>
      <trkpt lat="42.28597" lon="3.27646">
        <ele>9.7</ele>
        <time>2024-11-10T15:17:38Z</time>
      </trkpt>
      <trkpt lat="42.28596" lon="3.27645">
        <ele>9.7</ele>
        <time>2024-11-10T15:17:39Z</time>
      </trkpt>
      <trkpt lat="42.28596" lon="3.27644">
        <ele>9.8</ele>
        <time>2024-11-10T15:17:40Z</time>
      </trkpt>
      <trkpt lat="42.28596" lon="3.27643">
        <ele>9.8</ele>
        <time>2024-11-10T15:17:41Z</time>
      </trkpt>
      <trkpt lat="42.28595" lon="3.27642">
        <ele>9.8</ele>
        <time>2024-11-10T15:17:42Z</time>
      </trkpt>
      <trkpt lat="42.28596" lon="3.27641">
        <ele>9.9</ele>
        <time>2024-11-10T15:17:43Z</time>
      </trkpt>
      <trkpt lat="42.28596" lon="3.27639">
        <ele>9.9</ele>
        <time>2024-11-10T15:17:44Z</time>
      </trkpt>
      <trkpt lat="42.28595" lon="3.27638">
        <ele>9.9</ele>
        <time>2024-11-10T15:17:45Z</time>
      </trkpt>
      <trkpt lat="42.28595" lon="3.27637">
        <ele>10</ele>
        <time>2024-11-10T15:17:46Z</time>
      </trkpt>
      <trkpt lat="42.28595" lon="3.27635">
        <ele>10</ele>
        <time>2024-11-10T15:17:47Z</time>
      </trkpt>
      <trkpt lat="42.28594" lon="3.27634">
        <ele>10.1</ele>
        <time>2024-11-10T15:17:48Z</time>
      </trkpt>
      <trkpt lat="42.28594" lon="3.27633">
        <ele>10.1</ele>
        <time>2024-11-10T15:17:49Z</time>
      </trkpt>
      <trkpt lat="42.28594" lon="3.27632">
        <ele>10.1</ele>
        <time>2024-11-10T15:17:50Z</time>
      </trkpt>
      <trkpt lat="42.28594" lon="3.27631">
        <ele>10.2</ele>
        <time>2024-11-10T15:17:51Z</time>
      </trkpt>
      <trkpt lat="42.28594" lon="3.27629">
        <ele>10.2</ele>
        <time>2024-11-10T15:17:52Z</time>
      </trkpt>
      <trkpt lat="42.28594" lon="3.27628">
        <ele>10.2</ele>
        <time>2024-11-10T15:17:53Z</time>
      </trkpt>
      <trkpt lat="42.28593" lon="3.27627">
        <ele>10.3</ele>
        <time>2024-11-10T15:17:54Z</time>
      </trkpt>
      <trkpt lat="42.28593" lon="3.27625">
        <ele>10.3</ele>
        <time>2024-11-10T15:17:55Z</time>
      </trkpt>
      <trkpt lat="42.28593" lon="3.27624">
        <ele>10.3</ele>
        <time>2024-11-10T15:17:56Z</time>
      </trkpt>
      <trkpt lat="42.28593" lon="3.27622">
        <ele>10.4</ele>
        <time>2024-11-10T15:17:57Z</time>
      </trkpt>
      <trkpt lat="42.28592" lon="3.27621">
        <ele>10.4</ele>
        <time>2024-11-10T15:17:58Z</time>
      </trkpt>
      <trkpt lat="42.28592" lon="3.2762">
        <ele>10.4</ele>
        <time>2024-11-10T15:17:59Z</time>
      </trkpt>
      <trkpt lat="42.28591" lon="3.27619">
        <ele>10.5</ele>
        <time>2024-11-10T15:18:00Z</time>
      </trkpt>
      <trkpt lat="42.2859" lon="3.27618">
        <ele>10.5</ele>
        <time>2024-11-10T15:18:01Z</time>
      </trkpt>
      <trkpt lat="42.28589" lon="3.27618">
        <ele>10.5</ele>
        <time>2024-11-10T15:18:02Z</time>
      </trkpt>
      <trkpt lat="42.28588" lon="3.27617">
        <ele>10.6</ele>
        <time>2024-11-10T15:18:03Z</time>
      </trkpt>
      <trkpt lat="42.28587" lon="3.27616">
        <ele>10.6</ele>
        <time>2024-11-10T15:18:04Z</time>
      </trkpt>
      <trkpt lat="42.28586" lon="3.27615">
        <ele>10.6</ele>
        <time>2024-11-10T15:18:05Z</time>
      </trkpt>
      <trkpt lat="42.28585" lon="3.27614">
        <ele>10.6</ele>
        <time>2024-11-10T15:18:06Z</time>
      </trkpt>
      <trkpt lat="42.28584" lon="3.27614">
        <ele>10.7</ele>
        <time>2024-11-10T15:18:07Z</time>
      </trkpt>
      <trkpt lat="42.28584" lon="3.27613">
        <ele>10.7</ele>
        <time>2024-11-10T15:18:08Z</time>
      </trkpt>
      <trkpt lat="42.28583" lon="3.27613">
        <ele>10.7</ele>
        <time>2024-11-10T15:18:09Z</time>
      </trkpt>
      <trkpt lat="42.28582" lon="3.27612">
        <ele>10.7</ele>
        <time>2024-11-10T15:18:10Z</time>
      </trkpt>
      <trkpt lat="42.28581" lon="3.27611">
        <ele>10.7</ele>
        <time>2024-11-10T15:18:11Z</time>
      </trkpt>
      <trkpt lat="42.2858" lon="3.2761">
        <ele>10.8</ele>
        <time>2024-11-10T15:18:12Z</time>
      </trkpt>
      <trkpt lat="42.2858" lon="3.27609">
        <ele>10.8</ele>
        <time>2024-11-10T15:18:13Z</time>
      </trkpt>
      <trkpt lat="42.28579" lon="3.27608">
        <ele>10.8</ele>
        <time>2024-11-10T15:18:14Z</time>
      </trkpt>
      <trkpt lat="42.28578" lon="3.27607">
        <ele>10.8</ele>
        <time>2024-11-10T15:18:15Z</time>
      </trkpt>
      <trkpt lat="42.28577" lon="3.27606">
        <ele>10.9</ele>
        <time>2024-11-10T15:18:16Z</time>
      </trkpt>
      <trkpt lat="42.28577" lon="3.27606">
        <ele>10.9</ele>
        <time>2024-11-10T15:18:17Z</time>
      </trkpt>
      <trkpt lat="42.28576" lon="3.27605">
        <ele>10.9</ele>
        <time>2024-11-10T15:18:18Z</time>
      </trkpt>
      <trkpt lat="42.28575" lon="3.27604">
        <ele>10.9</ele>
        <time>2024-11-10T15:18:19Z</time>
      </trkpt>
      <trkpt lat="42.28574" lon="3.27602">
        <ele>11</ele>
        <time>2024-11-10T15:18:20Z</time>
      </trkpt>
      <trkpt lat="42.28574" lon="3.27601">
        <ele>11</ele>
        <time>2024-11-10T15:18:21Z</time>
      </trkpt>
      <trkpt lat="42.28573" lon="3.27601">
        <ele>11</ele>
        <time>2024-11-10T15:18:22Z</time>
      </trkpt>
      <trkpt lat="42.28572" lon="3.27599">
        <ele>11</ele>
        <time>2024-11-10T15:18:23Z</time>
      </trkpt>
      <trkpt lat="42.28572" lon="3.27598">
        <ele>11</ele>
        <time>2024-11-10T15:18:24Z</time>
      </trkpt>
      <trkpt lat="42.28571" lon="3.27597">
        <ele>11.1</ele>
        <time>2024-11-10T15:18:25Z</time>
      </trkpt>
      <trkpt lat="42.2857" lon="3.27596">
        <ele>11.1</ele>
        <time>2024-11-10T15:18:26Z</time>
      </trkpt>
      <trkpt lat="42.28569" lon="3.27596">
        <ele>11.1</ele>
        <time>2024-11-10T15:18:27Z</time>
      </trkpt>
      <trkpt lat="42.28568" lon="3.27595">
        <ele>11.1</ele>
        <time>2024-11-10T15:18:28Z</time>
      </trkpt>
      <trkpt lat="42.28568" lon="3.27594">
        <ele>11.1</ele>
        <time>2024-11-10T15:18:29Z</time>
      </trkpt>
      <trkpt lat="42.28567" lon="3.27593">
        <ele>11.1</ele>
        <time>2024-11-10T15:18:30Z</time>
      </trkpt>
      <trkpt lat="42.28566" lon="3.27592">
        <ele>11.1</ele>
        <time>2024-11-10T15:18:31Z</time>
      </trkpt>
      <trkpt lat="42.28565" lon="3.27592">
        <ele>11.1</ele>
        <time>2024-11-10T15:18:32Z</time>
      </trkpt>
      <trkpt lat="42.28564" lon="3.27591">
        <ele>11.1</ele>
        <time>2024-11-10T15:18:33Z</time>
      </trkpt>
      <trkpt lat="42.28563" lon="3.27589">
        <ele>11.1</ele>
        <time>2024-11-10T15:18:34Z</time>
      </trkpt>
      <trkpt lat="42.28562" lon="3.27589">
        <ele>11.1</ele>
        <time>2024-11-10T15:18:35Z</time>
      </trkpt>
      <trkpt lat="42.28561" lon="3.27588">
        <ele>11.1</ele>
        <time>2024-11-10T15:18:36Z</time>
      </trkpt>
      <trkpt lat="42.28561" lon="3.27588">
        <ele>11.1</ele>
        <time>2024-11-10T15:18:37Z</time>
      </trkpt>
      <trkpt lat="42.2856" lon="3.27587">
        <ele>11.1</ele>
        <time>2024-11-10T15:18:38Z</time>
      </trkpt>
      <trkpt lat="42.28559" lon="3.27586">
        <ele>11.1</ele>
        <time>2024-11-10T15:18:39Z</time>
      </trkpt>
      <trkpt lat="42.28558" lon="3.27585">
        <ele>11.1</ele>
        <time>2024-11-10T15:18:40Z</time>
      </trkpt>
      <trkpt lat="42.28558" lon="3.27584">
        <ele>11.1</ele>
        <time>2024-11-10T15:18:41Z</time>
      </trkpt>
      <trkpt lat="42.28557" lon="3.27583">
        <ele>11.1</ele>
        <time>2024-11-10T15:18:42Z</time>
      </trkpt>
      <trkpt lat="42.28556" lon="3.27582">
        <ele>11.1</ele>
        <time>2024-11-10T15:18:43Z</time>
      </trkpt>
      <trkpt lat="42.28555" lon="3.27581">
        <ele>11.1</ele>
        <time>2024-11-10T15:18:44Z</time>
      </trkpt>
      <trkpt lat="42.28554" lon="3.2758">
        <ele>11.1</ele>
        <time>2024-11-10T15:18:45Z</time>
      </trkpt>
      <trkpt lat="42.28553" lon="3.27579">
        <ele>11.1</ele>
        <time>2024-11-10T15:18:46Z</time>
      </trkpt>
      <trkpt lat="42.28552" lon="3.27578">
        <ele>11.1</ele>
        <time>2024-11-10T15:18:47Z</time>
      </trkpt>
      <trkpt lat="42.28551" lon="3.27577">
        <ele>11.1</ele>
        <time>2024-11-10T15:18:48Z</time>
      </trkpt>
      <trkpt lat="42.2855" lon="3.27576">
        <ele>11.1</ele>
        <time>2024-11-10T15:18:49Z</time>
      </trkpt>
      <trkpt lat="42.28549" lon="3.27575">
        <ele>11.1</ele>
        <time>2024-11-10T15:18:50Z</time>
      </trkpt>
      <trkpt lat="42.28549" lon="3.27574">
        <ele>11.1</ele>
        <time>2024-11-10T15:18:51Z</time>
      </trkpt>
      <trkpt lat="42.28548" lon="3.27573">
        <ele>11.1</ele>
        <time>2024-11-10T15:18:52Z</time>
      </trkpt>
      <trkpt lat="42.28547" lon="3.27573">
        <ele>11.1</ele>
        <time>2024-11-10T15:18:53Z</time>
      </trkpt>
      <trkpt lat="42.28546" lon="3.27572">
        <ele>11.1</ele>
        <time>2024-11-10T15:18:54Z</time>
      </trkpt>
      <trkpt lat="42.28545" lon="3.27571">
        <ele>11.1</ele>
        <time>2024-11-10T15:18:55Z</time>
      </trkpt>
      <trkpt lat="42.28544" lon="3.2757">
        <ele>11.1</ele>
        <time>2024-11-10T15:18:56Z</time>
      </trkpt>
      <trkpt lat="42.28543" lon="3.27569">
        <ele>11.1</ele>
        <time>2024-11-10T15:18:57Z</time>
      </trkpt>
      <trkpt lat="42.28542" lon="3.27568">
        <ele>11.1</ele>
        <time>2024-11-10T15:18:58Z</time>
      </trkpt>
      <trkpt lat="42.28541" lon="3.27567">
        <ele>11.1</ele>
        <time>2024-11-10T15:18:59Z</time>
      </trkpt>
      <trkpt lat="42.2854" lon="3.27566">
        <ele>11.1</ele>
        <time>2024-11-10T15:19:00Z</time>
      </trkpt>
      <trkpt lat="42.28539" lon="3.27565">
        <ele>11.1</ele>
        <time>2024-11-10T15:19:01Z</time>
      </trkpt>
      <trkpt lat="42.28538" lon="3.27564">
        <ele>11.1</ele>
        <time>2024-11-10T15:19:02Z</time>
      </trkpt>
      <trkpt lat="42.28537" lon="3.27564">
        <ele>11.2</ele>
        <time>2024-11-10T15:19:03Z</time>
      </trkpt>
      <trkpt lat="42.28535" lon="3.27563">
        <ele>11.2</ele>
        <time>2024-11-10T15:19:04Z</time>
      </trkpt>
      <trkpt lat="42.28534" lon="3.27563">
        <ele>11.2</ele>
        <time>2024-11-10T15:19:05Z</time>
      </trkpt>
      <trkpt lat="42.28534" lon="3.27563">
        <ele>11.2</ele>
        <time>2024-11-10T15:19:06Z</time>
      </trkpt>
      <trkpt lat="42.28532" lon="3.27564">
        <ele>11.2</ele>
        <time>2024-11-10T15:19:07Z</time>
      </trkpt>
      <trkpt lat="42.28532" lon="3.27564">
        <ele>11.2</ele>
        <time>2024-11-10T15:19:08Z</time>
      </trkpt>
      <trkpt lat="42.28531" lon="3.27565">
        <ele>11.2</ele>
        <time>2024-11-10T15:19:09Z</time>
      </trkpt>
      <trkpt lat="42.2853" lon="3.27566">
        <ele>11.2</ele>
        <time>2024-11-10T15:19:10Z</time>
      </trkpt>
      <trkpt lat="42.28529" lon="3.27566">
        <ele>11.2</ele>
        <time>2024-11-10T15:19:11Z</time>
      </trkpt>
      <trkpt lat="42.28528" lon="3.27567">
        <ele>11.1</ele>
        <time>2024-11-10T15:19:12Z</time>
      </trkpt>
      <trkpt lat="42.28527" lon="3.27568">
        <ele>11.1</ele>
        <time>2024-11-10T15:19:13Z</time>
      </trkpt>
      <trkpt lat="42.28526" lon="3.27568">
        <ele>11.1</ele>
        <time>2024-11-10T15:19:14Z</time>
      </trkpt>
      <trkpt lat="42.28525" lon="3.27569">
        <ele>11.1</ele>
        <time>2024-11-10T15:19:15Z</time>
      </trkpt>
      <trkpt lat="42.28524" lon="3.2757">
        <ele>11.1</ele>
        <time>2024-11-10T15:19:16Z</time>
      </trkpt>
      <trkpt lat="42.28523" lon="3.27571">
        <ele>11.1</ele>
        <time>2024-11-10T15:19:17Z</time>
      </trkpt>
      <trkpt lat="42.28522" lon="3.27571">
        <ele>11.1</ele>
        <time>2024-11-10T15:19:18Z</time>
      </trkpt>
      <trkpt lat="42.28521" lon="3.27572">
        <ele>11</ele>
        <time>2024-11-10T15:19:19Z</time>
      </trkpt>
      <trkpt lat="42.2852" lon="3.27572">
        <ele>11</ele>
        <time>2024-11-10T15:19:20Z</time>
      </trkpt>
      <trkpt lat="42.28519" lon="3.27572">
        <ele>11</ele>
        <time>2024-11-10T15:19:21Z</time>
      </trkpt>
      <trkpt lat="42.28518" lon="3.27572">
        <ele>11</ele>
        <time>2024-11-10T15:19:22Z</time>
      </trkpt>
      <trkpt lat="42.28517" lon="3.27572">
        <ele>11</ele>
        <time>2024-11-10T15:19:23Z</time>
      </trkpt>
      <trkpt lat="42.28516" lon="3.27572">
        <ele>11</ele>
        <time>2024-11-10T15:19:24Z</time>
      </trkpt>
      <trkpt lat="42.28515" lon="3.27572">
        <ele>11</ele>
        <time>2024-11-10T15:19:25Z</time>
      </trkpt>
      <trkpt lat="42.28514" lon="3.27572">
        <ele>11</ele>
        <time>2024-11-10T15:19:26Z</time>
      </trkpt>
      <trkpt lat="42.28513" lon="3.27572">
        <ele>11</ele>
        <time>2024-11-10T15:19:27Z</time>
      </trkpt>
      <trkpt lat="42.28512" lon="3.27571">
        <ele>11</ele>
        <time>2024-11-10T15:19:28Z</time>
      </trkpt>
      <trkpt lat="42.28511" lon="3.27571">
        <ele>11</ele>
        <time>2024-11-10T15:19:29Z</time>
      </trkpt>
      <trkpt lat="42.2851" lon="3.27571">
        <ele>11</ele>
        <time>2024-11-10T15:19:30Z</time>
      </trkpt>
      <trkpt lat="42.28509" lon="3.2757">
        <ele>11</ele>
        <time>2024-11-10T15:19:31Z</time>
      </trkpt>
      <trkpt lat="42.28508" lon="3.2757">
        <ele>10.9</ele>
        <time>2024-11-10T15:19:32Z</time>
      </trkpt>
      <trkpt lat="42.28507" lon="3.27569">
        <ele>10.9</ele>
        <time>2024-11-10T15:19:33Z</time>
      </trkpt>
      <trkpt lat="42.28506" lon="3.27569">
        <ele>10.9</ele>
        <time>2024-11-10T15:19:34Z</time>
      </trkpt>
      <trkpt lat="42.28506" lon="3.27568">
        <ele>10.9</ele>
        <time>2024-11-10T15:19:35Z</time>
      </trkpt>
      <trkpt lat="42.28505" lon="3.27568">
        <ele>10.9</ele>
        <time>2024-11-10T15:19:36Z</time>
      </trkpt>
      <trkpt lat="42.28504" lon="3.27567">
        <ele>10.9</ele>
        <time>2024-11-10T15:19:37Z</time>
      </trkpt>
      <trkpt lat="42.28503" lon="3.27566">
        <ele>10.9</ele>
        <time>2024-11-10T15:19:38Z</time>
      </trkpt>
      <trkpt lat="42.28502" lon="3.27565">
        <ele>10.9</ele>
        <time>2024-11-10T15:19:39Z</time>
      </trkpt>
      <trkpt lat="42.28501" lon="3.27564">
        <ele>10.9</ele>
        <time>2024-11-10T15:19:40Z</time>
      </trkpt>
      <trkpt lat="42.28501" lon="3.27562">
        <ele>10.8</ele>
        <time>2024-11-10T15:19:41Z</time>
      </trkpt>
      <trkpt lat="42.285" lon="3.27561">
        <ele>10.8</ele>
        <time>2024-11-10T15:19:42Z</time>
      </trkpt>
      <trkpt lat="42.28499" lon="3.2756">
        <ele>10.8</ele>
        <time>2024-11-10T15:19:43Z</time>
      </trkpt>
      <trkpt lat="42.28499" lon="3.27557">
        <ele>10.7</ele>
        <time>2024-11-10T15:19:44Z</time>
      </trkpt>
      <trkpt lat="42.28498" lon="3.27556">
        <ele>10.7</ele>
        <time>2024-11-10T15:19:45Z</time>
      </trkpt>
      <trkpt lat="42.28498" lon="3.27555">
        <ele>10.6</ele>
        <time>2024-11-10T15:19:46Z</time>
      </trkpt>
      <trkpt lat="42.28498" lon="3.27554">
        <ele>10.6</ele>
        <time>2024-11-10T15:19:47Z</time>
      </trkpt>
      <trkpt lat="42.28497" lon="3.27553">
        <ele>10.5</ele>
        <time>2024-11-10T15:19:48Z</time>
      </trkpt>
      <trkpt lat="42.28497" lon="3.27551">
        <ele>10.5</ele>
        <time>2024-11-10T15:19:49Z</time>
      </trkpt>
      <trkpt lat="42.28497" lon="3.27549">
        <ele>10.4</ele>
        <time>2024-11-10T15:19:50Z</time>
      </trkpt>
      <trkpt lat="42.28496" lon="3.27548">
        <ele>10.4</ele>
        <time>2024-11-10T15:19:51Z</time>
      </trkpt>
      <trkpt lat="42.28495" lon="3.27547">
        <ele>10.3</ele>
        <time>2024-11-10T15:19:52Z</time>
      </trkpt>
      <trkpt lat="42.28494" lon="3.27546">
        <ele>10.2</ele>
        <time>2024-11-10T15:19:53Z</time>
      </trkpt>
      <trkpt lat="42.28494" lon="3.27545">
        <ele>10.2</ele>
        <time>2024-11-10T15:19:54Z</time>
      </trkpt>
      <trkpt lat="42.28493" lon="3.27544">
        <ele>10.1</ele>
        <time>2024-11-10T15:19:55Z</time>
      </trkpt>
      <trkpt lat="42.28491" lon="3.27543">
        <ele>10</ele>
        <time>2024-11-10T15:19:56Z</time>
      </trkpt>
      <trkpt lat="42.2849" lon="3.27542">
        <ele>9.9</ele>
        <time>2024-11-10T15:19:57Z</time>
      </trkpt>
      <trkpt lat="42.2849" lon="3.27542">
        <ele>9.9</ele>
        <time>2024-11-10T15:19:58Z</time>
      </trkpt>
      <trkpt lat="42.28489" lon="3.27542">
        <ele>9.9</ele>
        <time>2024-11-10T15:19:59Z</time>
      </trkpt>
      <trkpt lat="42.28487" lon="3.27541">
        <ele>9.7</ele>
        <time>2024-11-10T15:20:00Z</time>
      </trkpt>
      <trkpt lat="42.28487" lon="3.2754">
        <ele>9.7</ele>
        <time>2024-11-10T15:20:01Z</time>
      </trkpt>
      <trkpt lat="42.28486" lon="3.2754">
        <ele>9.6</ele>
        <time>2024-11-10T15:20:02Z</time>
      </trkpt>
      <trkpt lat="42.28485" lon="3.27539">
        <ele>9.6</ele>
        <time>2024-11-10T15:20:03Z</time>
      </trkpt>
      <trkpt lat="42.28484" lon="3.27539">
        <ele>9.5</ele>
        <time>2024-11-10T15:20:04Z</time>
      </trkpt>
      <trkpt lat="42.28483" lon="3.27538">
        <ele>9.4</ele>
        <time>2024-11-10T15:20:05Z</time>
      </trkpt>
      <trkpt lat="42.28481" lon="3.27537">
        <ele>9.4</ele>
        <time>2024-11-10T15:20:06Z</time>
      </trkpt>
      <trkpt lat="42.28481" lon="3.27535">
        <ele>9.3</ele>
        <time>2024-11-10T15:20:07Z</time>
      </trkpt>
      <trkpt lat="42.28481" lon="3.27534">
        <ele>9.3</ele>
        <time>2024-11-10T15:20:08Z</time>
      </trkpt>
      <trkpt lat="42.2848" lon="3.27534">
        <ele>9.2</ele>
        <time>2024-11-10T15:20:09Z</time>
      </trkpt>
      <trkpt lat="42.28479" lon="3.27533">
        <ele>9.1</ele>
        <time>2024-11-10T15:20:10Z</time>
      </trkpt>
      <trkpt lat="42.28478" lon="3.27532">
        <ele>9.1</ele>
        <time>2024-11-10T15:20:11Z</time>
      </trkpt>
      <trkpt lat="42.28476" lon="3.27531">
        <ele>9</ele>
        <time>2024-11-10T15:20:12Z</time>
      </trkpt>
      <trkpt lat="42.28475" lon="3.2753">
        <ele>8.9</ele>
        <time>2024-11-10T15:20:13Z</time>
      </trkpt>
      <trkpt lat="42.28475" lon="3.2753">
        <ele>8.9</ele>
        <time>2024-11-10T15:20:14Z</time>
      </trkpt>
      <trkpt lat="42.28473" lon="3.27528">
        <ele>8.8</ele>
        <time>2024-11-10T15:20:15Z</time>
      </trkpt>
      <trkpt lat="42.28472" lon="3.27528">
        <ele>8.8</ele>
        <time>2024-11-10T15:20:16Z</time>
      </trkpt>
      <trkpt lat="42.28471" lon="3.27528">
        <ele>8.7</ele>
        <time>2024-11-10T15:20:17Z</time>
      </trkpt>
      <trkpt lat="42.2847" lon="3.27527">
        <ele>8.7</ele>
        <time>2024-11-10T15:20:18Z</time>
      </trkpt>
      <trkpt lat="42.28469" lon="3.27527">
        <ele>8.6</ele>
        <time>2024-11-10T15:20:19Z</time>
      </trkpt>
      <trkpt lat="42.28468" lon="3.27527">
        <ele>8.6</ele>
        <time>2024-11-10T15:20:20Z</time>
      </trkpt>
      <trkpt lat="42.28466" lon="3.27527">
        <ele>8.5</ele>
        <time>2024-11-10T15:20:21Z</time>
      </trkpt>
      <trkpt lat="42.28465" lon="3.27527">
        <ele>8.5</ele>
        <time>2024-11-10T15:20:22Z</time>
      </trkpt>
      <trkpt lat="42.28463" lon="3.27526">
        <ele>8.4</ele>
        <time>2024-11-10T15:20:23Z</time>
      </trkpt>
      <trkpt lat="42.28462" lon="3.27526">
        <ele>8.4</ele>
        <time>2024-11-10T15:20:24Z</time>
      </trkpt>
      <trkpt lat="42.28461" lon="3.27526">
        <ele>8.3</ele>
        <time>2024-11-10T15:20:25Z</time>
      </trkpt>
      <trkpt lat="42.2846" lon="3.27525">
        <ele>8.3</ele>
        <time>2024-11-10T15:20:26Z</time>
      </trkpt>
      <trkpt lat="42.28459" lon="3.27525">
        <ele>8.2</ele>
        <time>2024-11-10T15:20:27Z</time>
      </trkpt>
      <trkpt lat="42.28458" lon="3.27525">
        <ele>8.2</ele>
        <time>2024-11-10T15:20:28Z</time>
      </trkpt>
      <trkpt lat="42.28456" lon="3.27524">
        <ele>8.1</ele>
        <time>2024-11-10T15:20:29Z</time>
      </trkpt>
      <trkpt lat="42.28455" lon="3.27524">
        <ele>8.1</ele>
        <time>2024-11-10T15:20:30Z</time>
      </trkpt>
      <trkpt lat="42.28454" lon="3.27524">
        <ele>8</ele>
        <time>2024-11-10T15:20:31Z</time>
      </trkpt>
      <trkpt lat="42.28453" lon="3.27523">
        <ele>8</ele>
        <time>2024-11-10T15:20:32Z</time>
      </trkpt>
      <trkpt lat="42.28453" lon="3.27523">
        <ele>8</ele>
        <time>2024-11-10T15:20:33Z</time>
      </trkpt>
      <trkpt lat="42.28452" lon="3.27523">
        <ele>8</ele>
        <time>2024-11-10T15:20:34Z</time>
      </trkpt>
      <trkpt lat="42.28451" lon="3.27523">
        <ele>7.9</ele>
        <time>2024-11-10T15:20:35Z</time>
      </trkpt>
      <trkpt lat="42.2845" lon="3.27523">
        <ele>7.9</ele>
        <time>2024-11-10T15:20:36Z</time>
      </trkpt>
      <trkpt lat="42.28449" lon="3.27523">
        <ele>7.8</ele>
        <time>2024-11-10T15:20:37Z</time>
      </trkpt>
      <trkpt lat="42.28448" lon="3.27523">
        <ele>7.8</ele>
        <time>2024-11-10T15:20:38Z</time>
      </trkpt>
      <trkpt lat="42.28447" lon="3.27523">
        <ele>7.8</ele>
        <time>2024-11-10T15:20:39Z</time>
      </trkpt>
      <trkpt lat="42.28446" lon="3.27523">
        <ele>7.7</ele>
        <time>2024-11-10T15:20:40Z</time>
      </trkpt>
      <trkpt lat="42.28445" lon="3.27523">
        <ele>7.7</ele>
        <time>2024-11-10T15:20:41Z</time>
      </trkpt>
      <trkpt lat="42.28444" lon="3.27523">
        <ele>7.6</ele>
        <time>2024-11-10T15:20:42Z</time>
      </trkpt>
      <trkpt lat="42.28442" lon="3.27523">
        <ele>7.6</ele>
        <time>2024-11-10T15:20:43Z</time>
      </trkpt>
      <trkpt lat="42.2844" lon="3.27523">
        <ele>7.5</ele>
        <time>2024-11-10T15:20:44Z</time>
      </trkpt>
      <trkpt lat="42.2844" lon="3.27523">
        <ele>7.5</ele>
        <time>2024-11-10T15:20:45Z</time>
      </trkpt>
      <trkpt lat="42.28439" lon="3.27523">
        <ele>7.5</ele>
        <time>2024-11-10T15:20:46Z</time>
      </trkpt>
      <trkpt lat="42.28438" lon="3.27523">
        <ele>7.4</ele>
        <time>2024-11-10T15:20:47Z</time>
      </trkpt>
      <trkpt lat="42.28437" lon="3.27524">
        <ele>7.4</ele>
        <time>2024-11-10T15:20:48Z</time>
      </trkpt>
      <trkpt lat="42.28435" lon="3.27524">
        <ele>7.3</ele>
        <time>2024-11-10T15:20:49Z</time>
      </trkpt>
      <trkpt lat="42.28434" lon="3.27524">
        <ele>7.3</ele>
        <time>2024-11-10T15:20:50Z</time>
      </trkpt>
      <trkpt lat="42.28432" lon="3.27524">
        <ele>7.2</ele>
        <time>2024-11-10T15:20:51Z</time>
      </trkpt>
      <trkpt lat="42.28431" lon="3.27525">
        <ele>7.2</ele>
        <time>2024-11-10T15:20:52Z</time>
      </trkpt>
      <trkpt lat="42.2843" lon="3.27525">
        <ele>7.2</ele>
        <time>2024-11-10T15:20:53Z</time>
      </trkpt>
      <trkpt lat="42.28429" lon="3.27525">
        <ele>7.2</ele>
        <time>2024-11-10T15:20:54Z</time>
      </trkpt>
      <trkpt lat="42.28427" lon="3.27525">
        <ele>7.2</ele>
        <time>2024-11-10T15:20:55Z</time>
      </trkpt>
      <trkpt lat="42.28426" lon="3.27525">
        <ele>7.2</ele>
        <time>2024-11-10T15:20:56Z</time>
      </trkpt>
      <trkpt lat="42.28425" lon="3.27525">
        <ele>7.1</ele>
        <time>2024-11-10T15:20:57Z</time>
      </trkpt>
      <trkpt lat="42.28423" lon="3.27526">
        <ele>7.1</ele>
        <time>2024-11-10T15:20:58Z</time>
      </trkpt>
      <trkpt lat="42.28422" lon="3.27527">
        <ele>7</ele>
        <time>2024-11-10T15:20:59Z</time>
      </trkpt>
      <trkpt lat="42.28421" lon="3.27527">
        <ele>7</ele>
        <time>2024-11-10T15:21:00Z</time>
      </trkpt>
      <trkpt lat="42.28419" lon="3.27528">
        <ele>7</ele>
        <time>2024-11-10T15:21:01Z</time>
      </trkpt>
      <trkpt lat="42.28418" lon="3.27529">
        <ele>6.9</ele>
        <time>2024-11-10T15:21:02Z</time>
      </trkpt>
      <trkpt lat="42.28417" lon="3.2753">
        <ele>6.9</ele>
        <time>2024-11-10T15:21:03Z</time>
      </trkpt>
      <trkpt lat="42.28416" lon="3.27531">
        <ele>6.8</ele>
        <time>2024-11-10T15:21:04Z</time>
      </trkpt>
      <trkpt lat="42.28415" lon="3.27532">
        <ele>6.8</ele>
        <time>2024-11-10T15:21:05Z</time>
      </trkpt>
      <trkpt lat="42.28414" lon="3.27533">
        <ele>6.8</ele>
        <time>2024-11-10T15:21:06Z</time>
      </trkpt>
      <trkpt lat="42.28413" lon="3.27533">
        <ele>6.7</ele>
        <time>2024-11-10T15:21:07Z</time>
      </trkpt>
      <trkpt lat="42.28412" lon="3.27533">
        <ele>6.7</ele>
        <time>2024-11-10T15:21:08Z</time>
      </trkpt>
      <trkpt lat="42.28411" lon="3.27534">
        <ele>6.7</ele>
        <time>2024-11-10T15:21:09Z</time>
      </trkpt>
      <trkpt lat="42.2841" lon="3.27534">
        <ele>6.6</ele>
        <time>2024-11-10T15:21:10Z</time>
      </trkpt>
      <trkpt lat="42.28408" lon="3.27535">
        <ele>6.6</ele>
        <time>2024-11-10T15:21:11Z</time>
      </trkpt>
      <trkpt lat="42.28406" lon="3.27537">
        <ele>6.5</ele>
        <time>2024-11-10T15:21:12Z</time>
      </trkpt>
      <trkpt lat="42.28406" lon="3.27537">
        <ele>6.5</ele>
        <time>2024-11-10T15:21:13Z</time>
      </trkpt>
      <trkpt lat="42.28405" lon="3.27538">
        <ele>6.5</ele>
        <time>2024-11-10T15:21:14Z</time>
      </trkpt>
      <trkpt lat="42.28403" lon="3.27539">
        <ele>6.4</ele>
        <time>2024-11-10T15:21:15Z</time>
      </trkpt>
      <trkpt lat="42.28402" lon="3.2754">
        <ele>6.4</ele>
        <time>2024-11-10T15:21:16Z</time>
      </trkpt>
      <trkpt lat="42.28402" lon="3.2754">
        <ele>6.4</ele>
        <time>2024-11-10T15:21:17Z</time>
      </trkpt>
      <trkpt lat="42.28401" lon="3.27541">
        <ele>6.4</ele>
        <time>2024-11-10T15:21:18Z</time>
      </trkpt>
      <trkpt lat="42.284" lon="3.27542">
        <ele>6.3</ele>
        <time>2024-11-10T15:21:19Z</time>
      </trkpt>
      <trkpt lat="42.28399" lon="3.27543">
        <ele>6.3</ele>
        <time>2024-11-10T15:21:20Z</time>
      </trkpt>
      <trkpt lat="42.28398" lon="3.27544">
        <ele>6.3</ele>
        <time>2024-11-10T15:21:21Z</time>
      </trkpt>
      <trkpt lat="42.28398" lon="3.27545">
        <ele>6.3</ele>
        <time>2024-11-10T15:21:22Z</time>
      </trkpt>
      <trkpt lat="42.28397" lon="3.27546">
        <ele>6.2</ele>
        <time>2024-11-10T15:21:23Z</time>
      </trkpt>
      <trkpt lat="42.28395" lon="3.27547">
        <ele>6.2</ele>
        <time>2024-11-10T15:21:24Z</time>
      </trkpt>
      <trkpt lat="42.28394" lon="3.27548">
        <ele>6.2</ele>
        <time>2024-11-10T15:21:25Z</time>
      </trkpt>
      <trkpt lat="42.28393" lon="3.27548">
        <ele>6.2</ele>
        <time>2024-11-10T15:21:26Z</time>
      </trkpt>
      <trkpt lat="42.28392" lon="3.27549">
        <ele>6.1</ele>
        <time>2024-11-10T15:21:27Z</time>
      </trkpt>
      <trkpt lat="42.28391" lon="3.2755">
        <ele>6.1</ele>
        <time>2024-11-10T15:21:28Z</time>
      </trkpt>
      <trkpt lat="42.2839" lon="3.2755">
        <ele>6.1</ele>
        <time>2024-11-10T15:21:29Z</time>
      </trkpt>
      <trkpt lat="42.28389" lon="3.27551">
        <ele>6.1</ele>
        <time>2024-11-10T15:21:30Z</time>
      </trkpt>
      <trkpt lat="42.28387" lon="3.27552">
        <ele>6.1</ele>
        <time>2024-11-10T15:21:31Z</time>
      </trkpt>
      <trkpt lat="42.28386" lon="3.27552">
        <ele>6</ele>
        <time>2024-11-10T15:21:32Z</time>
      </trkpt>
      <trkpt lat="42.28385" lon="3.27553">
        <ele>6</ele>
        <time>2024-11-10T15:21:33Z</time>
      </trkpt>
      <trkpt lat="42.28384" lon="3.27553">
        <ele>6</ele>
        <time>2024-11-10T15:21:34Z</time>
      </trkpt>
      <trkpt lat="42.28383" lon="3.27554">
        <ele>6</ele>
        <time>2024-11-10T15:21:35Z</time>
      </trkpt>
      <trkpt lat="42.28382" lon="3.27555">
        <ele>6</ele>
        <time>2024-11-10T15:21:36Z</time>
      </trkpt>
      <trkpt lat="42.28381" lon="3.27555">
        <ele>6</ele>
        <time>2024-11-10T15:21:37Z</time>
      </trkpt>
      <trkpt lat="42.28381" lon="3.27556">
        <ele>6</ele>
        <time>2024-11-10T15:21:38Z</time>
      </trkpt>
      <trkpt lat="42.2838" lon="3.27556">
        <ele>6</ele>
        <time>2024-11-10T15:21:39Z</time>
      </trkpt>
      <trkpt lat="42.28379" lon="3.27557">
        <ele>6</ele>
        <time>2024-11-10T15:21:40Z</time>
      </trkpt>
      <trkpt lat="42.28378" lon="3.27558">
        <ele>6</ele>
        <time>2024-11-10T15:21:41Z</time>
      </trkpt>
      <trkpt lat="42.28377" lon="3.27558">
        <ele>6</ele>
        <time>2024-11-10T15:21:42Z</time>
      </trkpt>
      <trkpt lat="42.28376" lon="3.27559">
        <ele>5.9</ele>
        <time>2024-11-10T15:21:43Z</time>
      </trkpt>
      <trkpt lat="42.28375" lon="3.27559">
        <ele>5.9</ele>
        <time>2024-11-10T15:21:44Z</time>
      </trkpt>
      <trkpt lat="42.28374" lon="3.2756">
        <ele>5.9</ele>
        <time>2024-11-10T15:21:45Z</time>
      </trkpt>
      <trkpt lat="42.28373" lon="3.27561">
        <ele>5.9</ele>
        <time>2024-11-10T15:21:46Z</time>
      </trkpt>
      <trkpt lat="42.28372" lon="3.27562">
        <ele>5.9</ele>
        <time>2024-11-10T15:21:47Z</time>
      </trkpt>
      <trkpt lat="42.28371" lon="3.27562">
        <ele>5.9</ele>
        <time>2024-11-10T15:21:48Z</time>
      </trkpt>
      <trkpt lat="42.2837" lon="3.27563">
        <ele>5.9</ele>
        <time>2024-11-10T15:21:49Z</time>
      </trkpt>
      <trkpt lat="42.28369" lon="3.27564">
        <ele>5.9</ele>
        <time>2024-11-10T15:21:50Z</time>
      </trkpt>
      <trkpt lat="42.28368" lon="3.27565">
        <ele>5.9</ele>
        <time>2024-11-10T15:21:51Z</time>
      </trkpt>
      <trkpt lat="42.28367" lon="3.27566">
        <ele>5.9</ele>
        <time>2024-11-10T15:21:52Z</time>
      </trkpt>
      <trkpt lat="42.28366" lon="3.27567">
        <ele>5.9</ele>
        <time>2024-11-10T15:21:53Z</time>
      </trkpt>
      <trkpt lat="42.28365" lon="3.27568">
        <ele>6</ele>
        <time>2024-11-10T15:21:54Z</time>
      </trkpt>
      <trkpt lat="42.28364" lon="3.27568">
        <ele>6</ele>
        <time>2024-11-10T15:21:55Z</time>
      </trkpt>
      <trkpt lat="42.28363" lon="3.2757">
        <ele>6</ele>
        <time>2024-11-10T15:21:56Z</time>
      </trkpt>
      <trkpt lat="42.28362" lon="3.2757">
        <ele>6</ele>
        <time>2024-11-10T15:21:57Z</time>
      </trkpt>
      <trkpt lat="42.28361" lon="3.27571">
        <ele>6</ele>
        <time>2024-11-10T15:21:58Z</time>
      </trkpt>
      <trkpt lat="42.28359" lon="3.27572">
        <ele>6</ele>
        <time>2024-11-10T15:21:59Z</time>
      </trkpt>
      <trkpt lat="42.28358" lon="3.27573">
        <ele>6</ele>
        <time>2024-11-10T15:22:00Z</time>
      </trkpt>
      <trkpt lat="42.28358" lon="3.27573">
        <ele>6</ele>
        <time>2024-11-10T15:22:01Z</time>
      </trkpt>
      <trkpt lat="42.28356" lon="3.27574">
        <ele>6</ele>
        <time>2024-11-10T15:22:02Z</time>
      </trkpt>
      <trkpt lat="42.28355" lon="3.27575">
        <ele>6</ele>
        <time>2024-11-10T15:22:04Z</time>
      </trkpt>
      <trkpt lat="42.28354" lon="3.27575">
        <ele>6</ele>
        <time>2024-11-10T15:22:05Z</time>
      </trkpt>
      <trkpt lat="42.28353" lon="3.27576">
        <ele>6</ele>
        <time>2024-11-10T15:22:06Z</time>
      </trkpt>
      <trkpt lat="42.28352" lon="3.27576">
        <ele>6</ele>
        <time>2024-11-10T15:22:07Z</time>
      </trkpt>
      <trkpt lat="42.28351" lon="3.27577">
        <ele>6</ele>
        <time>2024-11-10T15:22:08Z</time>
      </trkpt>
      <trkpt lat="42.2835" lon="3.27577">
        <ele>6.1</ele>
        <time>2024-11-10T15:22:09Z</time>
      </trkpt>
      <trkpt lat="42.28349" lon="3.27577">
        <ele>6.1</ele>
        <time>2024-11-10T15:22:10Z</time>
      </trkpt>
      <trkpt lat="42.28346" lon="3.27578">
        <ele>6.1</ele>
        <time>2024-11-10T15:22:11Z</time>
      </trkpt>
      <trkpt lat="42.28346" lon="3.27578">
        <ele>6.1</ele>
        <time>2024-11-10T15:22:12Z</time>
      </trkpt>
      <trkpt lat="42.28345" lon="3.27578">
        <ele>6.1</ele>
        <time>2024-11-10T15:22:13Z</time>
      </trkpt>
      <trkpt lat="42.28344" lon="3.27579">
        <ele>6.1</ele>
        <time>2024-11-10T15:22:14Z</time>
      </trkpt>
      <trkpt lat="42.28343" lon="3.27579">
        <ele>6.1</ele>
        <time>2024-11-10T15:22:15Z</time>
      </trkpt>
      <trkpt lat="42.28342" lon="3.27579">
        <ele>6.1</ele>
        <time>2024-11-10T15:22:16Z</time>
      </trkpt>
      <trkpt lat="42.28341" lon="3.27579">
        <ele>6.1</ele>
        <time>2024-11-10T15:22:17Z</time>
      </trkpt>
      <trkpt lat="42.2834" lon="3.27579">
        <ele>6.1</ele>
        <time>2024-11-10T15:22:18Z</time>
      </trkpt>
      <trkpt lat="42.28339" lon="3.27579">
        <ele>6.1</ele>
        <time>2024-11-10T15:22:19Z</time>
      </trkpt>
      <trkpt lat="42.28337" lon="3.27579">
        <ele>6.1</ele>
        <time>2024-11-10T15:22:20Z</time>
      </trkpt>
      <trkpt lat="42.28336" lon="3.27579">
        <ele>6.1</ele>
        <time>2024-11-10T15:22:21Z</time>
      </trkpt>
      <trkpt lat="42.28335" lon="3.2758">
        <ele>6.1</ele>
        <time>2024-11-10T15:22:22Z</time>
      </trkpt>
      <trkpt lat="42.28334" lon="3.2758">
        <ele>6.1</ele>
        <time>2024-11-10T15:22:23Z</time>
      </trkpt>
      <trkpt lat="42.28333" lon="3.2758">
        <ele>6.1</ele>
        <time>2024-11-10T15:22:24Z</time>
      </trkpt>
      <trkpt lat="42.28332" lon="3.2758">
        <ele>6.1</ele>
        <time>2024-11-10T15:22:25Z</time>
      </trkpt>
      <trkpt lat="42.28331" lon="3.2758">
        <ele>6.1</ele>
        <time>2024-11-10T15:22:26Z</time>
      </trkpt>
      <trkpt lat="42.28331" lon="3.27581">
        <ele>6.1</ele>
        <time>2024-11-10T15:22:27Z</time>
      </trkpt>
      <trkpt lat="42.2833" lon="3.27581">
        <ele>6.1</ele>
        <time>2024-11-10T15:22:28Z</time>
      </trkpt>
      <trkpt lat="42.28329" lon="3.27581">
        <ele>6.1</ele>
        <time>2024-11-10T15:22:29Z</time>
      </trkpt>
      <trkpt lat="42.28328" lon="3.27582">
        <ele>6.1</ele>
        <time>2024-11-10T15:22:30Z</time>
      </trkpt>
      <trkpt lat="42.28328" lon="3.27582">
        <ele>6.1</ele>
        <time>2024-11-10T15:22:31Z</time>
      </trkpt>
      <trkpt lat="42.28328" lon="3.27582">
        <ele>6.1</ele>
        <time>2024-11-10T15:22:32Z</time>
      </trkpt>
      <trkpt lat="42.28327" lon="3.27583">
        <ele>6.1</ele>
        <time>2024-11-10T15:22:33Z</time>
      </trkpt>
      <trkpt lat="42.28327" lon="3.27583">
        <ele>6.1</ele>
        <time>2024-11-10T15:22:34Z</time>
      </trkpt>
      <trkpt lat="42.28326" lon="3.27582">
        <ele>6.1</ele>
        <time>2024-11-10T15:22:35Z</time>
      </trkpt>
      <trkpt lat="42.28325" lon="3.27582">
        <ele>6.1</ele>
        <time>2024-11-10T15:22:36Z</time>
      </trkpt>
      <trkpt lat="42.28324" lon="3.27583">
        <ele>6.1</ele>
        <time>2024-11-10T15:22:37Z</time>
      </trkpt>
      <trkpt lat="42.28323" lon="3.27583">
        <ele>6.1</ele>
        <time>2024-11-10T15:22:38Z</time>
      </trkpt>
      <trkpt lat="42.28323" lon="3.27584">
        <ele>6.1</ele>
        <time>2024-11-10T15:22:39Z</time>
      </trkpt>
      <trkpt lat="42.28323" lon="3.27585">
        <ele>6</ele>
        <time>2024-11-10T15:22:40Z</time>
      </trkpt>
      <trkpt lat="42.28323" lon="3.27585">
        <ele>6</ele>
        <time>2024-11-10T15:22:41Z</time>
      </trkpt>
      <trkpt lat="42.28322" lon="3.27587">
        <ele>6</ele>
        <time>2024-11-10T15:22:42Z</time>
      </trkpt>
      <trkpt lat="42.28322" lon="3.27588">
        <ele>5.9</ele>
        <time>2024-11-10T15:22:43Z</time>
      </trkpt>
      <trkpt lat="42.28322" lon="3.2759">
        <ele>5.8</ele>
        <time>2024-11-10T15:22:44Z</time>
      </trkpt>
      <trkpt lat="42.28322" lon="3.27591">
        <ele>5.7</ele>
        <time>2024-11-10T15:22:45Z</time>
      </trkpt>
      <trkpt lat="42.28323" lon="3.27593">
        <ele>5.7</ele>
        <time>2024-11-10T15:22:46Z</time>
      </trkpt>
      <trkpt lat="42.28322" lon="3.27594">
        <ele>5.6</ele>
        <time>2024-11-10T15:22:47Z</time>
      </trkpt>
      <trkpt lat="42.28321" lon="3.27594">
        <ele>5.6</ele>
        <time>2024-11-10T15:22:48Z</time>
      </trkpt>
      <trkpt lat="42.28321" lon="3.27594">
        <ele>5.6</ele>
        <time>2024-11-10T15:22:49Z</time>
      </trkpt>
      <trkpt lat="42.28321" lon="3.27595">
        <ele>5.5</ele>
        <time>2024-11-10T15:22:50Z</time>
      </trkpt>
      <trkpt lat="42.28321" lon="3.27595">
        <ele>5.5</ele>
        <time>2024-11-10T15:22:51Z</time>
      </trkpt>
      <trkpt lat="42.28321" lon="3.27595">
        <ele>5.5</ele>
        <time>2024-11-10T15:22:52Z</time>
      </trkpt>
      <trkpt lat="42.28321" lon="3.27595">
        <ele>5.5</ele>
        <time>2024-11-10T15:22:53Z</time>
      </trkpt>
      <trkpt lat="42.28321" lon="3.27596">
        <ele>5.5</ele>
        <time>2024-11-10T15:22:54Z</time>
      </trkpt>
      <trkpt lat="42.2832" lon="3.27596">
        <ele>5.4</ele>
        <time>2024-11-10T15:22:55Z</time>
      </trkpt>
      <trkpt lat="42.28318" lon="3.27597">
        <ele>5.4</ele>
        <time>2024-11-10T15:22:56Z</time>
      </trkpt>
      <trkpt lat="42.28317" lon="3.27598">
        <ele>5.3</ele>
        <time>2024-11-10T15:22:57Z</time>
      </trkpt>
      <trkpt lat="42.28316" lon="3.27599">
        <ele>5.3</ele>
        <time>2024-11-10T15:22:58Z</time>
      </trkpt>
      <trkpt lat="42.28316" lon="3.27601">
        <ele>5.2</ele>
        <time>2024-11-10T15:22:59Z</time>
      </trkpt>
      <trkpt lat="42.28315" lon="3.27602">
        <ele>5.2</ele>
        <time>2024-11-10T15:23:00Z</time>
      </trkpt>
      <trkpt lat="42.28314" lon="3.27603">
        <ele>5.2</ele>
        <time>2024-11-10T15:23:01Z</time>
      </trkpt>
      <trkpt lat="42.28313" lon="3.27603">
        <ele>5.1</ele>
        <time>2024-11-10T15:23:02Z</time>
      </trkpt>
      <trkpt lat="42.28313" lon="3.27605">
        <ele>5.1</ele>
        <time>2024-11-10T15:23:03Z</time>
      </trkpt>
      <trkpt lat="42.28312" lon="3.27606">
        <ele>5.1</ele>
        <time>2024-11-10T15:23:04Z</time>
      </trkpt>
      <trkpt lat="42.28312" lon="3.27607">
        <ele>5.1</ele>
        <time>2024-11-10T15:23:05Z</time>
      </trkpt>
      <trkpt lat="42.28312" lon="3.27609">
        <ele>5.1</ele>
        <time>2024-11-10T15:23:06Z</time>
      </trkpt>
      <trkpt lat="42.28311" lon="3.2761">
        <ele>5.1</ele>
        <time>2024-11-10T15:23:07Z</time>
      </trkpt>
      <trkpt lat="42.28311" lon="3.27611">
        <ele>5.1</ele>
        <time>2024-11-10T15:23:08Z</time>
      </trkpt>
      <trkpt lat="42.28311" lon="3.27612">
        <ele>5.1</ele>
        <time>2024-11-10T15:23:09Z</time>
      </trkpt>
      <trkpt lat="42.2831" lon="3.27614">
        <ele>5.2</ele>
        <time>2024-11-10T15:23:10Z</time>
      </trkpt>
      <trkpt lat="42.2831" lon="3.27615">
        <ele>5.2</ele>
        <time>2024-11-10T15:23:11Z</time>
      </trkpt>
      <trkpt lat="42.2831" lon="3.27616">
        <ele>5.2</ele>
        <time>2024-11-10T15:23:12Z</time>
      </trkpt>
      <trkpt lat="42.2831" lon="3.27618">
        <ele>5.3</ele>
        <time>2024-11-10T15:23:13Z</time>
      </trkpt>
      <trkpt lat="42.2831" lon="3.27619">
        <ele>5.3</ele>
        <time>2024-11-10T15:23:14Z</time>
      </trkpt>
      <trkpt lat="42.2831" lon="3.2762">
        <ele>5.4</ele>
        <time>2024-11-10T15:23:15Z</time>
      </trkpt>
      <trkpt lat="42.28309" lon="3.27622">
        <ele>5.4</ele>
        <time>2024-11-10T15:23:16Z</time>
      </trkpt>
      <trkpt lat="42.28309" lon="3.27623">
        <ele>5.5</ele>
        <time>2024-11-10T15:23:17Z</time>
      </trkpt>
      <trkpt lat="42.2831" lon="3.27624">
        <ele>5.6</ele>
        <time>2024-11-10T15:23:18Z</time>
      </trkpt>
      <trkpt lat="42.2831" lon="3.27623">
        <ele>5.6</ele>
        <time>2024-11-10T15:23:19Z</time>
      </trkpt>
      <trkpt lat="42.2831" lon="3.27623">
        <ele>5.6</ele>
        <time>2024-11-10T15:23:20Z</time>
      </trkpt>
      <trkpt lat="42.2831" lon="3.27623">
        <ele>5.6</ele>
        <time>2024-11-10T15:23:21Z</time>
      </trkpt>
      <trkpt lat="42.2831" lon="3.27623">
        <ele>5.6</ele>
        <time>2024-11-10T15:23:22Z</time>
      </trkpt>
      <trkpt lat="42.2831" lon="3.27623">
        <ele>5.6</ele>
        <time>2024-11-10T15:23:23Z</time>
      </trkpt>
      <trkpt lat="42.2831" lon="3.27623">
        <ele>5.6</ele>
        <time>2024-11-10T15:23:24Z</time>
      </trkpt>
      <trkpt lat="42.2831" lon="3.27623">
        <ele>5.6</ele>
        <time>2024-11-10T15:23:25Z</time>
      </trkpt>
      <trkpt lat="42.2831" lon="3.27623">
        <ele>5.6</ele>
        <time>2024-11-10T15:23:26Z</time>
      </trkpt>
      <trkpt lat="42.2831" lon="3.27623">
        <ele>5.6</ele>
        <time>2024-11-10T15:23:27Z</time>
      </trkpt>
      <trkpt lat="42.2831" lon="3.27623">
        <ele>5.6</ele>
        <time>2024-11-10T15:23:28Z</time>
      </trkpt>
      <trkpt lat="42.2831" lon="3.27623">
        <ele>5.6</ele>
        <time>2024-11-10T15:23:29Z</time>
      </trkpt>
      <trkpt lat="42.28309" lon="3.27623">
        <ele>5.7</ele>
        <time>2024-11-10T15:23:30Z</time>
      </trkpt>
      <trkpt lat="42.2831" lon="3.27625">
        <ele>5.7</ele>
        <time>2024-11-10T15:23:31Z</time>
      </trkpt>
      <trkpt lat="42.2831" lon="3.27626">
        <ele>5.8</ele>
        <time>2024-11-10T15:23:32Z</time>
      </trkpt>
      <trkpt lat="42.2831" lon="3.27627">
        <ele>5.9</ele>
        <time>2024-11-10T15:23:33Z</time>
      </trkpt>
      <trkpt lat="42.28312" lon="3.27628">
        <ele>6.1</ele>
        <time>2024-11-10T15:23:34Z</time>
      </trkpt>
      <trkpt lat="42.28314" lon="3.27629">
        <ele>6.3</ele>
        <time>2024-11-10T15:23:35Z</time>
      </trkpt>
      <trkpt lat="42.28313" lon="3.2763">
        <ele>6.4</ele>
        <time>2024-11-10T15:23:36Z</time>
      </trkpt>
      <trkpt lat="42.28312" lon="3.27632">
        <ele>6.6</ele>
        <time>2024-11-10T15:23:37Z</time>
      </trkpt>
      <trkpt lat="42.28312" lon="3.27632">
        <ele>6.6</ele>
        <time>2024-11-10T15:23:38Z</time>
      </trkpt>
      <trkpt lat="42.28312" lon="3.27633">
        <ele>6.7</ele>
        <time>2024-11-10T15:23:39Z</time>
      </trkpt>
      <trkpt lat="42.28311" lon="3.27633">
        <ele>6.7</ele>
        <time>2024-11-10T15:23:40Z</time>
      </trkpt>
      <trkpt lat="42.28311" lon="3.27634">
        <ele>6.8</ele>
        <time>2024-11-10T15:23:41Z</time>
      </trkpt>
      <trkpt lat="42.2831" lon="3.27634">
        <ele>6.8</ele>
        <time>2024-11-10T15:23:42Z</time>
      </trkpt>
      <trkpt lat="42.2831" lon="3.27635">
        <ele>6.9</ele>
        <time>2024-11-10T15:23:43Z</time>
      </trkpt>
      <trkpt lat="42.28309" lon="3.27637">
        <ele>7</ele>
        <time>2024-11-10T15:23:44Z</time>
      </trkpt>
      <trkpt lat="42.28309" lon="3.27638">
        <ele>7.1</ele>
        <time>2024-11-10T15:23:45Z</time>
      </trkpt>
      <trkpt lat="42.28308" lon="3.27639">
        <ele>7.1</ele>
        <time>2024-11-10T15:23:46Z</time>
      </trkpt>
      <trkpt lat="42.28308" lon="3.2764">
        <ele>7.2</ele>
        <time>2024-11-10T15:23:47Z</time>
      </trkpt>
      <trkpt lat="42.28308" lon="3.27642">
        <ele>7.3</ele>
        <time>2024-11-10T15:23:48Z</time>
      </trkpt>
      <trkpt lat="42.28308" lon="3.27643">
        <ele>7.3</ele>
        <time>2024-11-10T15:23:49Z</time>
      </trkpt>
      <trkpt lat="42.28307" lon="3.27644">
        <ele>7.4</ele>
        <time>2024-11-10T15:23:50Z</time>
      </trkpt>
      <trkpt lat="42.28307" lon="3.27645">
        <ele>7.4</ele>
        <time>2024-11-10T15:23:51Z</time>
      </trkpt>
      <trkpt lat="42.28307" lon="3.27646">
        <ele>7.4</ele>
        <time>2024-11-10T15:23:52Z</time>
      </trkpt>
      <trkpt lat="42.28307" lon="3.27647">
        <ele>7.5</ele>
        <time>2024-11-10T15:23:53Z</time>
      </trkpt>
      <trkpt lat="42.28307" lon="3.27647">
        <ele>7.5</ele>
        <time>2024-11-10T15:23:54Z</time>
      </trkpt>
      <trkpt lat="42.28307" lon="3.27648">
        <ele>7.5</ele>
        <time>2024-11-10T15:23:55Z</time>
      </trkpt>
      <trkpt lat="42.28306" lon="3.27649">
        <ele>7.6</ele>
        <time>2024-11-10T15:23:56Z</time>
      </trkpt>
      <trkpt lat="42.28306" lon="3.2765">
        <ele>7.6</ele>
        <time>2024-11-10T15:23:57Z</time>
      </trkpt>
      <trkpt lat="42.28306" lon="3.27651">
        <ele>7.6</ele>
        <time>2024-11-10T15:23:58Z</time>
      </trkpt>
      <trkpt lat="42.28306" lon="3.27652">
        <ele>7.6</ele>
        <time>2024-11-10T15:23:59Z</time>
      </trkpt>
      <trkpt lat="42.28305" lon="3.27653">
        <ele>7.6</ele>
        <time>2024-11-10T15:24:00Z</time>
      </trkpt>
      <trkpt lat="42.28305" lon="3.27654">
        <ele>7.7</ele>
        <time>2024-11-10T15:24:01Z</time>
      </trkpt>
      <trkpt lat="42.28304" lon="3.27655">
        <ele>7.7</ele>
        <time>2024-11-10T15:24:02Z</time>
      </trkpt>
      <trkpt lat="42.28304" lon="3.27656">
        <ele>7.7</ele>
        <time>2024-11-10T15:24:03Z</time>
      </trkpt>
      <trkpt lat="42.28303" lon="3.27657">
        <ele>7.7</ele>
        <time>2024-11-10T15:24:04Z</time>
      </trkpt>
      <trkpt lat="42.28302" lon="3.27658">
        <ele>7.6</ele>
        <time>2024-11-10T15:24:05Z</time>
      </trkpt>
      <trkpt lat="42.28302" lon="3.27659">
        <ele>7.6</ele>
        <time>2024-11-10T15:24:06Z</time>
      </trkpt>
      <trkpt lat="42.28301" lon="3.2766">
        <ele>7.6</ele>
        <time>2024-11-10T15:24:07Z</time>
      </trkpt>
      <trkpt lat="42.283" lon="3.27661">
        <ele>7.6</ele>
        <time>2024-11-10T15:24:08Z</time>
      </trkpt>
      <trkpt lat="42.28299" lon="3.27661">
        <ele>7.6</ele>
        <time>2024-11-10T15:24:09Z</time>
      </trkpt>
      <trkpt lat="42.28299" lon="3.27662">
        <ele>7.5</ele>
        <time>2024-11-10T15:24:10Z</time>
      </trkpt>
      <trkpt lat="42.28298" lon="3.27663">
        <ele>7.5</ele>
        <time>2024-11-10T15:24:11Z</time>
      </trkpt>
      <trkpt lat="42.28297" lon="3.27663">
        <ele>7.5</ele>
        <time>2024-11-10T15:24:12Z</time>
      </trkpt>
      <trkpt lat="42.28296" lon="3.27664">
        <ele>7.4</ele>
        <time>2024-11-10T15:24:13Z</time>
      </trkpt>
      <trkpt lat="42.28295" lon="3.27664">
        <ele>7.4</ele>
        <time>2024-11-10T15:24:14Z</time>
      </trkpt>
      <trkpt lat="42.28295" lon="3.27665">
        <ele>7.4</ele>
        <time>2024-11-10T15:24:15Z</time>
      </trkpt>
      <trkpt lat="42.28294" lon="3.27666">
        <ele>7.3</ele>
        <time>2024-11-10T15:24:16Z</time>
      </trkpt>
      <trkpt lat="42.28294" lon="3.27667">
        <ele>7.3</ele>
        <time>2024-11-10T15:24:17Z</time>
      </trkpt>
      <trkpt lat="42.28293" lon="3.27668">
        <ele>7.3</ele>
        <time>2024-11-10T15:24:18Z</time>
      </trkpt>
      <trkpt lat="42.28292" lon="3.27669">
        <ele>7.2</ele>
        <time>2024-11-10T15:24:19Z</time>
      </trkpt>
      <trkpt lat="42.28292" lon="3.2767">
        <ele>7.2</ele>
        <time>2024-11-10T15:24:20Z</time>
      </trkpt>
      <trkpt lat="42.28293" lon="3.27672">
        <ele>7.2</ele>
        <time>2024-11-10T15:24:21Z</time>
      </trkpt>
      <trkpt lat="42.28293" lon="3.27673">
        <ele>7.2</ele>
        <time>2024-11-10T15:24:22Z</time>
      </trkpt>
      <trkpt lat="42.28292" lon="3.27675">
        <ele>7.1</ele>
        <time>2024-11-10T15:24:23Z</time>
      </trkpt>
      <trkpt lat="42.28292" lon="3.27676">
        <ele>7.1</ele>
        <time>2024-11-10T15:24:24Z</time>
      </trkpt>
      <trkpt lat="42.28291" lon="3.27677">
        <ele>7.1</ele>
        <time>2024-11-10T15:24:25Z</time>
      </trkpt>
      <trkpt lat="42.2829" lon="3.27678">
        <ele>7.1</ele>
        <time>2024-11-10T15:24:26Z</time>
      </trkpt>
      <trkpt lat="42.2829" lon="3.27679">
        <ele>7.1</ele>
        <time>2024-11-10T15:24:27Z</time>
      </trkpt>
      <trkpt lat="42.28289" lon="3.2768">
        <ele>7.1</ele>
        <time>2024-11-10T15:24:28Z</time>
      </trkpt>
      <trkpt lat="42.28289" lon="3.27681">
        <ele>7.1</ele>
        <time>2024-11-10T15:24:29Z</time>
      </trkpt>
      <trkpt lat="42.28288" lon="3.27682">
        <ele>7.2</ele>
        <time>2024-11-10T15:24:30Z</time>
      </trkpt>
      <trkpt lat="42.28287" lon="3.27683">
        <ele>7.2</ele>
        <time>2024-11-10T15:24:31Z</time>
      </trkpt>
      <trkpt lat="42.28286" lon="3.27684">
        <ele>7.2</ele>
        <time>2024-11-10T15:24:32Z</time>
      </trkpt>
      <trkpt lat="42.28285" lon="3.27685">
        <ele>7.2</ele>
        <time>2024-11-10T15:24:33Z</time>
      </trkpt>
      <trkpt lat="42.28285" lon="3.27685">
        <ele>7.3</ele>
        <time>2024-11-10T15:24:34Z</time>
      </trkpt>
      <trkpt lat="42.28284" lon="3.27686">
        <ele>7.3</ele>
        <time>2024-11-10T15:24:35Z</time>
      </trkpt>
      <trkpt lat="42.28284" lon="3.27688">
        <ele>7.3</ele>
        <time>2024-11-10T15:24:36Z</time>
      </trkpt>
      <trkpt lat="42.28283" lon="3.27689">
        <ele>7.4</ele>
        <time>2024-11-10T15:24:37Z</time>
      </trkpt>
      <trkpt lat="42.28283" lon="3.2769">
        <ele>7.4</ele>
        <time>2024-11-10T15:24:38Z</time>
      </trkpt>
      <trkpt lat="42.28282" lon="3.27692">
        <ele>7.5</ele>
        <time>2024-11-10T15:24:39Z</time>
      </trkpt>
      <trkpt lat="42.28282" lon="3.27693">
        <ele>7.5</ele>
        <time>2024-11-10T15:24:40Z</time>
      </trkpt>
      <trkpt lat="42.28282" lon="3.27694">
        <ele>7.5</ele>
        <time>2024-11-10T15:24:41Z</time>
      </trkpt>
      <trkpt lat="42.28282" lon="3.27696">
        <ele>7.5</ele>
        <time>2024-11-10T15:24:42Z</time>
      </trkpt>
      <trkpt lat="42.28281" lon="3.27697">
        <ele>7.5</ele>
        <time>2024-11-10T15:24:43Z</time>
      </trkpt>
      <trkpt lat="42.28281" lon="3.27698">
        <ele>7.6</ele>
        <time>2024-11-10T15:24:44Z</time>
      </trkpt>
      <trkpt lat="42.2828" lon="3.27699">
        <ele>7.6</ele>
        <time>2024-11-10T15:24:45Z</time>
      </trkpt>
      <trkpt lat="42.2828" lon="3.277">
        <ele>7.6</ele>
        <time>2024-11-10T15:24:46Z</time>
      </trkpt>
      <trkpt lat="42.28279" lon="3.27701">
        <ele>7.5</ele>
        <time>2024-11-10T15:24:47Z</time>
      </trkpt>
      <trkpt lat="42.28279" lon="3.27702">
        <ele>7.5</ele>
        <time>2024-11-10T15:24:48Z</time>
      </trkpt>
      <trkpt lat="42.28278" lon="3.27704">
        <ele>7.5</ele>
        <time>2024-11-10T15:24:49Z</time>
      </trkpt>
      <trkpt lat="42.28277" lon="3.27704">
        <ele>7.5</ele>
        <time>2024-11-10T15:24:50Z</time>
      </trkpt>
      <trkpt lat="42.28276" lon="3.27705">
        <ele>7.5</ele>
        <time>2024-11-10T15:24:51Z</time>
      </trkpt>
      <trkpt lat="42.28276" lon="3.27706">
        <ele>7.4</ele>
        <time>2024-11-10T15:24:52Z</time>
      </trkpt>
      <trkpt lat="42.28275" lon="3.27706">
        <ele>7.4</ele>
        <time>2024-11-10T15:24:53Z</time>
      </trkpt>
      <trkpt lat="42.28275" lon="3.27707">
        <ele>7.4</ele>
        <time>2024-11-10T15:24:54Z</time>
      </trkpt>
      <trkpt lat="42.28274" lon="3.27708">
        <ele>7.3</ele>
        <time>2024-11-10T15:24:55Z</time>
      </trkpt>
      <trkpt lat="42.28274" lon="3.27709">
        <ele>7.3</ele>
        <time>2024-11-10T15:24:56Z</time>
      </trkpt>
      <trkpt lat="42.28273" lon="3.2771">
        <ele>7.3</ele>
        <time>2024-11-10T15:24:57Z</time>
      </trkpt>
      <trkpt lat="42.28273" lon="3.27712">
        <ele>7.2</ele>
        <time>2024-11-10T15:24:58Z</time>
      </trkpt>
      <trkpt lat="42.28273" lon="3.27712">
        <ele>7.2</ele>
        <time>2024-11-10T15:24:59Z</time>
      </trkpt>
      <trkpt lat="42.28272" lon="3.27713">
        <ele>7.2</ele>
        <time>2024-11-10T15:25:00Z</time>
      </trkpt>
      <trkpt lat="42.28272" lon="3.27714">
        <ele>7.1</ele>
        <time>2024-11-10T15:25:01Z</time>
      </trkpt>
      <trkpt lat="42.28271" lon="3.27715">
        <ele>7.1</ele>
        <time>2024-11-10T15:25:02Z</time>
      </trkpt>
      <trkpt lat="42.2827" lon="3.27715">
        <ele>7</ele>
        <time>2024-11-10T15:25:03Z</time>
      </trkpt>
      <trkpt lat="42.2827" lon="3.27716">
        <ele>7</ele>
        <time>2024-11-10T15:25:04Z</time>
      </trkpt>
      <trkpt lat="42.28269" lon="3.27716">
        <ele>7</ele>
        <time>2024-11-10T15:25:05Z</time>
      </trkpt>
      <trkpt lat="42.28268" lon="3.27717">
        <ele>6.9</ele>
        <time>2024-11-10T15:25:06Z</time>
      </trkpt>
      <trkpt lat="42.28267" lon="3.27717">
        <ele>6.9</ele>
        <time>2024-11-10T15:25:07Z</time>
      </trkpt>
      <trkpt lat="42.28266" lon="3.27717">
        <ele>6.8</ele>
        <time>2024-11-10T15:25:08Z</time>
      </trkpt>
      <trkpt lat="42.28266" lon="3.27718">
        <ele>6.8</ele>
        <time>2024-11-10T15:25:09Z</time>
      </trkpt>
      <trkpt lat="42.28265" lon="3.27718">
        <ele>6.8</ele>
        <time>2024-11-10T15:25:10Z</time>
      </trkpt>
      <trkpt lat="42.28264" lon="3.27718">
        <ele>6.7</ele>
        <time>2024-11-10T15:25:11Z</time>
      </trkpt>
      <trkpt lat="42.28263" lon="3.27719">
        <ele>6.7</ele>
        <time>2024-11-10T15:25:12Z</time>
      </trkpt>
      <trkpt lat="42.28262" lon="3.27719">
        <ele>6.7</ele>
        <time>2024-11-10T15:25:13Z</time>
      </trkpt>
      <trkpt lat="42.28261" lon="3.27719">
        <ele>6.7</ele>
        <time>2024-11-10T15:25:14Z</time>
      </trkpt>
      <trkpt lat="42.2826" lon="3.2772">
        <ele>6.6</ele>
        <time>2024-11-10T15:25:15Z</time>
      </trkpt>
      <trkpt lat="42.28259" lon="3.2772">
        <ele>6.6</ele>
        <time>2024-11-10T15:25:16Z</time>
      </trkpt>
      <trkpt lat="42.28258" lon="3.27721">
        <ele>6.6</ele>
        <time>2024-11-10T15:25:17Z</time>
      </trkpt>
      <trkpt lat="42.28258" lon="3.27721">
        <ele>6.6</ele>
        <time>2024-11-10T15:25:18Z</time>
      </trkpt>
      <trkpt lat="42.28257" lon="3.27722">
        <ele>6.6</ele>
        <time>2024-11-10T15:25:19Z</time>
      </trkpt>
      <trkpt lat="42.28256" lon="3.27722">
        <ele>6.6</ele>
        <time>2024-11-10T15:25:20Z</time>
      </trkpt>
      <trkpt lat="42.28256" lon="3.27722">
        <ele>6.6</ele>
        <time>2024-11-10T15:25:21Z</time>
      </trkpt>
      <trkpt lat="42.28255" lon="3.27723">
        <ele>6.6</ele>
        <time>2024-11-10T15:25:22Z</time>
      </trkpt>
      <trkpt lat="42.28254" lon="3.27724">
        <ele>6.6</ele>
        <time>2024-11-10T15:25:23Z</time>
      </trkpt>
      <trkpt lat="42.28254" lon="3.27724">
        <ele>6.6</ele>
        <time>2024-11-10T15:25:24Z</time>
      </trkpt>
      <trkpt lat="42.28253" lon="3.27725">
        <ele>6.7</ele>
        <time>2024-11-10T15:25:25Z</time>
      </trkpt>
      <trkpt lat="42.28252" lon="3.27726">
        <ele>6.7</ele>
        <time>2024-11-10T15:25:26Z</time>
      </trkpt>
      <trkpt lat="42.28252" lon="3.27727">
        <ele>6.7</ele>
        <time>2024-11-10T15:25:27Z</time>
      </trkpt>
      <trkpt lat="42.28251" lon="3.27728">
        <ele>6.8</ele>
        <time>2024-11-10T15:25:28Z</time>
      </trkpt>
      <trkpt lat="42.28251" lon="3.27729">
        <ele>6.8</ele>
        <time>2024-11-10T15:25:29Z</time>
      </trkpt>
      <trkpt lat="42.2825" lon="3.2773">
        <ele>6.8</ele>
        <time>2024-11-10T15:25:30Z</time>
      </trkpt>
      <trkpt lat="42.28249" lon="3.27731">
        <ele>6.9</ele>
        <time>2024-11-10T15:25:31Z</time>
      </trkpt>
      <trkpt lat="42.28249" lon="3.27732">
        <ele>6.9</ele>
        <time>2024-11-10T15:25:32Z</time>
      </trkpt>
      <trkpt lat="42.28248" lon="3.27733">
        <ele>7</ele>
        <time>2024-11-10T15:25:33Z</time>
      </trkpt>
      <trkpt lat="42.28247" lon="3.27734">
        <ele>7</ele>
        <time>2024-11-10T15:25:34Z</time>
      </trkpt>
      <trkpt lat="42.28247" lon="3.27735">
        <ele>7.1</ele>
        <time>2024-11-10T15:25:35Z</time>
      </trkpt>
      <trkpt lat="42.28247" lon="3.27736">
        <ele>7.1</ele>
        <time>2024-11-10T15:25:36Z</time>
      </trkpt>
      <trkpt lat="42.28247" lon="3.27737">
        <ele>7.2</ele>
        <time>2024-11-10T15:25:37Z</time>
      </trkpt>
      <trkpt lat="42.28246" lon="3.27739">
        <ele>7.2</ele>
        <time>2024-11-10T15:25:38Z</time>
      </trkpt>
      <trkpt lat="42.28245" lon="3.2774">
        <ele>7.3</ele>
        <time>2024-11-10T15:25:39Z</time>
      </trkpt>
      <trkpt lat="42.28245" lon="3.27741">
        <ele>7.3</ele>
        <time>2024-11-10T15:25:40Z</time>
      </trkpt>
      <trkpt lat="42.28244" lon="3.27742">
        <ele>7.4</ele>
        <time>2024-11-10T15:25:41Z</time>
      </trkpt>
      <trkpt lat="42.28244" lon="3.27743">
        <ele>7.4</ele>
        <time>2024-11-10T15:25:42Z</time>
      </trkpt>
      <trkpt lat="42.28244" lon="3.27745">
        <ele>7.5</ele>
        <time>2024-11-10T15:25:43Z</time>
      </trkpt>
      <trkpt lat="42.28244" lon="3.27746">
        <ele>7.5</ele>
        <time>2024-11-10T15:25:44Z</time>
      </trkpt>
      <trkpt lat="42.28244" lon="3.27747">
        <ele>7.6</ele>
        <time>2024-11-10T15:25:45Z</time>
      </trkpt>
      <trkpt lat="42.28244" lon="3.27747">
        <ele>7.6</ele>
        <time>2024-11-10T15:25:46Z</time>
      </trkpt>
      <trkpt lat="42.28244" lon="3.27748">
        <ele>7.6</ele>
        <time>2024-11-10T15:25:47Z</time>
      </trkpt>
      <trkpt lat="42.28244" lon="3.27749">
        <ele>7.6</ele>
        <time>2024-11-10T15:25:48Z</time>
      </trkpt>
      <trkpt lat="42.28244" lon="3.2775">
        <ele>7.6</ele>
        <time>2024-11-10T15:25:49Z</time>
      </trkpt>
      <trkpt lat="42.28245" lon="3.2775">
        <ele>7.7</ele>
        <time>2024-11-10T15:25:50Z</time>
      </trkpt>
      <trkpt lat="42.28245" lon="3.2775">
        <ele>7.7</ele>
        <time>2024-11-10T15:25:51Z</time>
      </trkpt>
      <trkpt lat="42.28245" lon="3.2775">
        <ele>7.7</ele>
        <time>2024-11-10T15:25:52Z</time>
      </trkpt>
      <trkpt lat="42.28244" lon="3.27751">
        <ele>7.7</ele>
        <time>2024-11-10T15:25:53Z</time>
      </trkpt>
      <trkpt lat="42.28244" lon="3.27752">
        <ele>7.7</ele>
        <time>2024-11-10T15:25:54Z</time>
      </trkpt>
      <trkpt lat="42.28244" lon="3.27753">
        <ele>7.7</ele>
        <time>2024-11-10T15:25:55Z</time>
      </trkpt>
      <trkpt lat="42.28244" lon="3.27754">
        <ele>7.7</ele>
        <time>2024-11-10T15:25:56Z</time>
      </trkpt>
      <trkpt lat="42.28243" lon="3.27755">
        <ele>7.7</ele>
        <time>2024-11-10T15:25:57Z</time>
      </trkpt>
      <trkpt lat="42.28243" lon="3.27756">
        <ele>7.7</ele>
        <time>2024-11-10T15:25:58Z</time>
      </trkpt>
      <trkpt lat="42.28243" lon="3.27758">
        <ele>7.7</ele>
        <time>2024-11-10T15:25:59Z</time>
      </trkpt>
      <trkpt lat="42.28243" lon="3.27759">
        <ele>7.7</ele>
        <time>2024-11-10T15:26:00Z</time>
      </trkpt>
      <trkpt lat="42.28242" lon="3.2776">
        <ele>7.7</ele>
        <time>2024-11-10T15:26:01Z</time>
      </trkpt>
      <trkpt lat="42.28241" lon="3.27761">
        <ele>7.7</ele>
        <time>2024-11-10T15:26:02Z</time>
      </trkpt>
      <trkpt lat="42.28241" lon="3.27762">
        <ele>7.7</ele>
        <time>2024-11-10T15:26:03Z</time>
      </trkpt>
      <trkpt lat="42.2824" lon="3.27762">
        <ele>7.7</ele>
        <time>2024-11-10T15:26:04Z</time>
      </trkpt>
      <trkpt lat="42.28239" lon="3.27764">
        <ele>7.7</ele>
        <time>2024-11-10T15:26:05Z</time>
      </trkpt>
      <trkpt lat="42.28238" lon="3.27765">
        <ele>7.7</ele>
        <time>2024-11-10T15:26:06Z</time>
      </trkpt>
      <trkpt lat="42.28238" lon="3.27766">
        <ele>7.6</ele>
        <time>2024-11-10T15:26:07Z</time>
      </trkpt>
      <trkpt lat="42.28237" lon="3.27767">
        <ele>7.6</ele>
        <time>2024-11-10T15:26:08Z</time>
      </trkpt>
      <trkpt lat="42.28237" lon="3.27768">
        <ele>7.6</ele>
        <time>2024-11-10T15:26:09Z</time>
      </trkpt>
      <trkpt lat="42.28237" lon="3.2777">
        <ele>7.6</ele>
        <time>2024-11-10T15:26:10Z</time>
      </trkpt>
      <trkpt lat="42.28236" lon="3.27771">
        <ele>7.6</ele>
        <time>2024-11-10T15:26:11Z</time>
      </trkpt>
      <trkpt lat="42.28236" lon="3.27772">
        <ele>7.5</ele>
        <time>2024-11-10T15:26:12Z</time>
      </trkpt>
      <trkpt lat="42.28236" lon="3.27773">
        <ele>7.5</ele>
        <time>2024-11-10T15:26:13Z</time>
      </trkpt>
      <trkpt lat="42.28236" lon="3.27774">
        <ele>7.5</ele>
        <time>2024-11-10T15:26:14Z</time>
      </trkpt>
      <trkpt lat="42.28235" lon="3.27774">
        <ele>7.5</ele>
        <time>2024-11-10T15:26:15Z</time>
      </trkpt>
      <trkpt lat="42.28235" lon="3.27775">
        <ele>7.5</ele>
        <time>2024-11-10T15:26:16Z</time>
      </trkpt>
      <trkpt lat="42.28235" lon="3.27776">
        <ele>7.4</ele>
        <time>2024-11-10T15:26:17Z</time>
      </trkpt>
      <trkpt lat="42.28234" lon="3.27777">
        <ele>7.4</ele>
        <time>2024-11-10T15:26:18Z</time>
      </trkpt>
      <trkpt lat="42.28234" lon="3.27778">
        <ele>7.4</ele>
        <time>2024-11-10T15:26:19Z</time>
      </trkpt>
      <trkpt lat="42.28234" lon="3.27779">
        <ele>7.4</ele>
        <time>2024-11-10T15:26:20Z</time>
      </trkpt>
      <trkpt lat="42.28234" lon="3.2778">
        <ele>7.3</ele>
        <time>2024-11-10T15:26:21Z</time>
      </trkpt>
      <trkpt lat="42.28233" lon="3.27781">
        <ele>7.3</ele>
        <time>2024-11-10T15:26:22Z</time>
      </trkpt>
      <trkpt lat="42.28233" lon="3.27782">
        <ele>7.3</ele>
        <time>2024-11-10T15:26:23Z</time>
      </trkpt>
      <trkpt lat="42.28233" lon="3.27783">
        <ele>7.3</ele>
        <time>2024-11-10T15:26:24Z</time>
      </trkpt>
      <trkpt lat="42.28233" lon="3.27784">
        <ele>7.2</ele>
        <time>2024-11-10T15:26:25Z</time>
      </trkpt>
      <trkpt lat="42.28233" lon="3.27785">
        <ele>7.2</ele>
        <time>2024-11-10T15:26:26Z</time>
      </trkpt>
      <trkpt lat="42.28232" lon="3.27786">
        <ele>7.1</ele>
        <time>2024-11-10T15:26:27Z</time>
      </trkpt>
      <trkpt lat="42.28232" lon="3.27788">
        <ele>7.1</ele>
        <time>2024-11-10T15:26:28Z</time>
      </trkpt>
      <trkpt lat="42.28232" lon="3.27789">
        <ele>7</ele>
        <time>2024-11-10T15:26:29Z</time>
      </trkpt>
      <trkpt lat="42.28232" lon="3.2779">
        <ele>7</ele>
        <time>2024-11-10T15:26:30Z</time>
      </trkpt>
      <trkpt lat="42.28231" lon="3.27791">
        <ele>6.9</ele>
        <time>2024-11-10T15:26:31Z</time>
      </trkpt>
      <trkpt lat="42.28231" lon="3.27792">
        <ele>6.9</ele>
        <time>2024-11-10T15:26:32Z</time>
      </trkpt>
      <trkpt lat="42.28231" lon="3.27793">
        <ele>6.8</ele>
        <time>2024-11-10T15:26:33Z</time>
      </trkpt>
      <trkpt lat="42.2823" lon="3.27794">
        <ele>6.7</ele>
        <time>2024-11-10T15:26:34Z</time>
      </trkpt>
      <trkpt lat="42.2823" lon="3.27794">
        <ele>6.7</ele>
        <time>2024-11-10T15:26:35Z</time>
      </trkpt>
      <trkpt lat="42.28229" lon="3.27795">
        <ele>6.6</ele>
        <time>2024-11-10T15:26:36Z</time>
      </trkpt>
      <trkpt lat="42.28229" lon="3.27796">
        <ele>6.6</ele>
        <time>2024-11-10T15:26:37Z</time>
      </trkpt>
      <trkpt lat="42.28229" lon="3.27797">
        <ele>6.5</ele>
        <time>2024-11-10T15:26:38Z</time>
      </trkpt>
      <trkpt lat="42.28228" lon="3.27798">
        <ele>6.4</ele>
        <time>2024-11-10T15:26:39Z</time>
      </trkpt>
      <trkpt lat="42.28228" lon="3.27798">
        <ele>6.4</ele>
        <time>2024-11-10T15:26:40Z</time>
      </trkpt>
      <trkpt lat="42.28228" lon="3.27799">
        <ele>6.3</ele>
        <time>2024-11-10T15:26:41Z</time>
      </trkpt>
      <trkpt lat="42.28227" lon="3.278">
        <ele>6.3</ele>
        <time>2024-11-10T15:26:42Z</time>
      </trkpt>
      <trkpt lat="42.28227" lon="3.27801">
        <ele>6.2</ele>
        <time>2024-11-10T15:26:43Z</time>
      </trkpt>
      <trkpt lat="42.28226" lon="3.27801">
        <ele>6.1</ele>
        <time>2024-11-10T15:26:44Z</time>
      </trkpt>
      <trkpt lat="42.28226" lon="3.27802">
        <ele>6.1</ele>
        <time>2024-11-10T15:26:45Z</time>
      </trkpt>
      <trkpt lat="42.28226" lon="3.27803">
        <ele>6</ele>
        <time>2024-11-10T15:26:46Z</time>
      </trkpt>
      <trkpt lat="42.28225" lon="3.27804">
        <ele>5.9</ele>
        <time>2024-11-10T15:26:47Z</time>
      </trkpt>
      <trkpt lat="42.28225" lon="3.27805">
        <ele>5.8</ele>
        <time>2024-11-10T15:26:48Z</time>
      </trkpt>
      <trkpt lat="42.28224" lon="3.27805">
        <ele>5.8</ele>
        <time>2024-11-10T15:26:49Z</time>
      </trkpt>
      <trkpt lat="42.28224" lon="3.27806">
        <ele>5.7</ele>
        <time>2024-11-10T15:26:50Z</time>
      </trkpt>
      <trkpt lat="42.28223" lon="3.27807">
        <ele>5.6</ele>
        <time>2024-11-10T15:26:51Z</time>
      </trkpt>
      <trkpt lat="42.28223" lon="3.27807">
        <ele>5.6</ele>
        <time>2024-11-10T15:26:52Z</time>
      </trkpt>
      <trkpt lat="42.28222" lon="3.27807">
        <ele>5.5</ele>
        <time>2024-11-10T15:26:53Z</time>
      </trkpt>
      <trkpt lat="42.28221" lon="3.27807">
        <ele>5.5</ele>
        <time>2024-11-10T15:26:54Z</time>
      </trkpt>
      <trkpt lat="42.28221" lon="3.27807">
        <ele>5.4</ele>
        <time>2024-11-10T15:26:55Z</time>
      </trkpt>
      <trkpt lat="42.2822" lon="3.27807">
        <ele>5.4</ele>
        <time>2024-11-10T15:26:56Z</time>
      </trkpt>
      <trkpt lat="42.2822" lon="3.27807">
        <ele>5.4</ele>
        <time>2024-11-10T15:26:57Z</time>
      </trkpt>
      <trkpt lat="42.28219" lon="3.27808">
        <ele>5.3</ele>
        <time>2024-11-10T15:26:58Z</time>
      </trkpt>
      <trkpt lat="42.28219" lon="3.27808">
        <ele>5.3</ele>
        <time>2024-11-10T15:26:59Z</time>
      </trkpt>
      <trkpt lat="42.28218" lon="3.27809">
        <ele>5.2</ele>
        <time>2024-11-10T15:27:00Z</time>
      </trkpt>
      <trkpt lat="42.28218" lon="3.27809">
        <ele>5.2</ele>
        <time>2024-11-10T15:27:01Z</time>
      </trkpt>
      <trkpt lat="42.28217" lon="3.2781">
        <ele>5.2</ele>
        <time>2024-11-10T15:27:02Z</time>
      </trkpt>
      <trkpt lat="42.28217" lon="3.2781">
        <ele>5.1</ele>
        <time>2024-11-10T15:27:03Z</time>
      </trkpt>
      <trkpt lat="42.28217" lon="3.27811">
        <ele>5.1</ele>
        <time>2024-11-10T15:27:04Z</time>
      </trkpt>
      <trkpt lat="42.28216" lon="3.27811">
        <ele>5.1</ele>
        <time>2024-11-10T15:27:05Z</time>
      </trkpt>
      <trkpt lat="42.28216" lon="3.27812">
        <ele>5.1</ele>
        <time>2024-11-10T15:27:06Z</time>
      </trkpt>
      <trkpt lat="42.28216" lon="3.27813">
        <ele>5</ele>
        <time>2024-11-10T15:27:07Z</time>
      </trkpt>
      <trkpt lat="42.28216" lon="3.27814">
        <ele>5</ele>
        <time>2024-11-10T15:27:08Z</time>
      </trkpt>
      <trkpt lat="42.28216" lon="3.27816">
        <ele>4.9</ele>
        <time>2024-11-10T15:27:09Z</time>
      </trkpt>
      <trkpt lat="42.28216" lon="3.27818">
        <ele>4.9</ele>
        <time>2024-11-10T15:27:10Z</time>
      </trkpt>
      <trkpt lat="42.28216" lon="3.27819">
        <ele>4.9</ele>
        <time>2024-11-10T15:27:11Z</time>
      </trkpt>
      <trkpt lat="42.28216" lon="3.2782">
        <ele>4.9</ele>
        <time>2024-11-10T15:27:12Z</time>
      </trkpt>
      <trkpt lat="42.28216" lon="3.27821">
        <ele>4.8</ele>
        <time>2024-11-10T15:27:13Z</time>
      </trkpt>
      <trkpt lat="42.28216" lon="3.27822">
        <ele>4.8</ele>
        <time>2024-11-10T15:27:14Z</time>
      </trkpt>
      <trkpt lat="42.28215" lon="3.27823">
        <ele>4.8</ele>
        <time>2024-11-10T15:27:15Z</time>
      </trkpt>
      <trkpt lat="42.28215" lon="3.27824">
        <ele>4.8</ele>
        <time>2024-11-10T15:27:16Z</time>
      </trkpt>
      <trkpt lat="42.28215" lon="3.27826">
        <ele>4.8</ele>
        <time>2024-11-10T15:27:17Z</time>
      </trkpt>
      <trkpt lat="42.28215" lon="3.27827">
        <ele>4.8</ele>
        <time>2024-11-10T15:27:18Z</time>
      </trkpt>
      <trkpt lat="42.28215" lon="3.27829">
        <ele>4.8</ele>
        <time>2024-11-10T15:27:19Z</time>
      </trkpt>
      <trkpt lat="42.28215" lon="3.2783">
        <ele>4.7</ele>
        <time>2024-11-10T15:27:20Z</time>
      </trkpt>
      <trkpt lat="42.28214" lon="3.27831">
        <ele>4.7</ele>
        <time>2024-11-10T15:27:21Z</time>
      </trkpt>
      <trkpt lat="42.28214" lon="3.27833">
        <ele>4.7</ele>
        <time>2024-11-10T15:27:22Z</time>
      </trkpt>
      <trkpt lat="42.28213" lon="3.27834">
        <ele>4.7</ele>
        <time>2024-11-10T15:27:23Z</time>
      </trkpt>
      <trkpt lat="42.28212" lon="3.27835">
        <ele>4.7</ele>
        <time>2024-11-10T15:27:24Z</time>
      </trkpt>
      <trkpt lat="42.28212" lon="3.27836">
        <ele>4.7</ele>
        <time>2024-11-10T15:27:25Z</time>
      </trkpt>
      <trkpt lat="42.28211" lon="3.27837">
        <ele>4.7</ele>
        <time>2024-11-10T15:27:26Z</time>
      </trkpt>
      <trkpt lat="42.2821" lon="3.27838">
        <ele>4.7</ele>
        <time>2024-11-10T15:27:27Z</time>
      </trkpt>
      <trkpt lat="42.2821" lon="3.27839">
        <ele>4.6</ele>
        <time>2024-11-10T15:27:28Z</time>
      </trkpt>
      <trkpt lat="42.28209" lon="3.2784">
        <ele>4.6</ele>
        <time>2024-11-10T15:27:29Z</time>
      </trkpt>
      <trkpt lat="42.28209" lon="3.27841">
        <ele>4.6</ele>
        <time>2024-11-10T15:27:30Z</time>
      </trkpt>
      <trkpt lat="42.28208" lon="3.27842">
        <ele>4.6</ele>
        <time>2024-11-10T15:27:31Z</time>
      </trkpt>
      <trkpt lat="42.28207" lon="3.27843">
        <ele>4.6</ele>
        <time>2024-11-10T15:27:32Z</time>
      </trkpt>
      <trkpt lat="42.28206" lon="3.27844">
        <ele>4.6</ele>
        <time>2024-11-10T15:27:33Z</time>
      </trkpt>
      <trkpt lat="42.28206" lon="3.27845">
        <ele>4.6</ele>
        <time>2024-11-10T15:27:34Z</time>
      </trkpt>
      <trkpt lat="42.28205" lon="3.27846">
        <ele>4.6</ele>
        <time>2024-11-10T15:27:35Z</time>
      </trkpt>
      <trkpt lat="42.28204" lon="3.27846">
        <ele>4.5</ele>
        <time>2024-11-10T15:27:36Z</time>
      </trkpt>
      <trkpt lat="42.28204" lon="3.27845">
        <ele>4.5</ele>
        <time>2024-11-10T15:27:37Z</time>
      </trkpt>
      <trkpt lat="42.28204" lon="3.27845">
        <ele>4.5</ele>
        <time>2024-11-10T15:27:38Z</time>
      </trkpt>
      <trkpt lat="42.28204" lon="3.27846">
        <ele>4.5</ele>
        <time>2024-11-10T15:27:39Z</time>
      </trkpt>
      <trkpt lat="42.28204" lon="3.27846">
        <ele>4.5</ele>
        <time>2024-11-10T15:27:40Z</time>
      </trkpt>
      <trkpt lat="42.28203" lon="3.27847">
        <ele>4.5</ele>
        <time>2024-11-10T15:27:41Z</time>
      </trkpt>
      <trkpt lat="42.28203" lon="3.27847">
        <ele>4.5</ele>
        <time>2024-11-10T15:27:42Z</time>
      </trkpt>
      <trkpt lat="42.28203" lon="3.27848">
        <ele>4.5</ele>
        <time>2024-11-10T15:27:43Z</time>
      </trkpt>
      <trkpt lat="42.28201" lon="3.27849">
        <ele>4.5</ele>
        <time>2024-11-10T15:27:44Z</time>
      </trkpt>
      <trkpt lat="42.282" lon="3.27851">
        <ele>4.5</ele>
        <time>2024-11-10T15:27:45Z</time>
      </trkpt>
      <trkpt lat="42.28199" lon="3.27852">
        <ele>4.5</ele>
        <time>2024-11-10T15:27:46Z</time>
      </trkpt>
      <trkpt lat="42.28199" lon="3.27853">
        <ele>4.5</ele>
        <time>2024-11-10T15:27:47Z</time>
      </trkpt>
      <trkpt lat="42.28198" lon="3.27855">
        <ele>4.5</ele>
        <time>2024-11-10T15:27:48Z</time>
      </trkpt>
      <trkpt lat="42.28197" lon="3.27856">
        <ele>4.6</ele>
        <time>2024-11-10T15:27:49Z</time>
      </trkpt>
      <trkpt lat="42.28197" lon="3.27857">
        <ele>4.6</ele>
        <time>2024-11-10T15:27:50Z</time>
      </trkpt>
      <trkpt lat="42.28196" lon="3.27858">
        <ele>4.6</ele>
        <time>2024-11-10T15:27:51Z</time>
      </trkpt>
      <trkpt lat="42.28196" lon="3.2786">
        <ele>4.6</ele>
        <time>2024-11-10T15:27:52Z</time>
      </trkpt>
      <trkpt lat="42.28195" lon="3.27861">
        <ele>4.6</ele>
        <time>2024-11-10T15:27:53Z</time>
      </trkpt>
      <trkpt lat="42.28194" lon="3.27862">
        <ele>4.6</ele>
        <time>2024-11-10T15:27:54Z</time>
      </trkpt>
      <trkpt lat="42.28193" lon="3.27862">
        <ele>4.7</ele>
        <time>2024-11-10T15:27:55Z</time>
      </trkpt>
      <trkpt lat="42.28192" lon="3.27862">
        <ele>4.7</ele>
        <time>2024-11-10T15:27:56Z</time>
      </trkpt>
      <trkpt lat="42.28191" lon="3.27863">
        <ele>4.7</ele>
        <time>2024-11-10T15:27:57Z</time>
      </trkpt>
      <trkpt lat="42.28191" lon="3.27864">
        <ele>4.7</ele>
        <time>2024-11-10T15:27:58Z</time>
      </trkpt>
      <trkpt lat="42.2819" lon="3.27865">
        <ele>4.8</ele>
        <time>2024-11-10T15:27:59Z</time>
      </trkpt>
      <trkpt lat="42.2819" lon="3.27865">
        <ele>4.8</ele>
        <time>2024-11-10T15:28:00Z</time>
      </trkpt>
      <trkpt lat="42.2819" lon="3.27866">
        <ele>4.8</ele>
        <time>2024-11-10T15:28:01Z</time>
      </trkpt>
      <trkpt lat="42.28189" lon="3.27867">
        <ele>4.8</ele>
        <time>2024-11-10T15:28:02Z</time>
      </trkpt>
      <trkpt lat="42.28189" lon="3.27869">
        <ele>4.9</ele>
        <time>2024-11-10T15:28:03Z</time>
      </trkpt>
      <trkpt lat="42.28189" lon="3.2787">
        <ele>4.9</ele>
        <time>2024-11-10T15:28:04Z</time>
      </trkpt>
      <trkpt lat="42.28188" lon="3.27871">
        <ele>5</ele>
        <time>2024-11-10T15:28:05Z</time>
      </trkpt>
      <trkpt lat="42.28188" lon="3.27873">
        <ele>5</ele>
        <time>2024-11-10T15:28:06Z</time>
      </trkpt>
      <trkpt lat="42.28187" lon="3.27873">
        <ele>5.1</ele>
        <time>2024-11-10T15:28:07Z</time>
      </trkpt>
      <trkpt lat="42.28187" lon="3.27874">
        <ele>5.1</ele>
        <time>2024-11-10T15:28:08Z</time>
      </trkpt>
      <trkpt lat="42.28186" lon="3.27875">
        <ele>5.2</ele>
        <time>2024-11-10T15:28:09Z</time>
      </trkpt>
      <trkpt lat="42.28186" lon="3.27876">
        <ele>5.2</ele>
        <time>2024-11-10T15:28:10Z</time>
      </trkpt>
      <trkpt lat="42.28185" lon="3.27877">
        <ele>5.3</ele>
        <time>2024-11-10T15:28:11Z</time>
      </trkpt>
      <trkpt lat="42.28185" lon="3.27877">
        <ele>5.3</ele>
        <time>2024-11-10T15:28:12Z</time>
      </trkpt>
      <trkpt lat="42.28184" lon="3.27878">
        <ele>5.4</ele>
        <time>2024-11-10T15:28:13Z</time>
      </trkpt>
      <trkpt lat="42.28183" lon="3.27879">
        <ele>5.5</ele>
        <time>2024-11-10T15:28:14Z</time>
      </trkpt>
      <trkpt lat="42.28183" lon="3.2788">
        <ele>5.5</ele>
        <time>2024-11-10T15:28:15Z</time>
      </trkpt>
      <trkpt lat="42.28183" lon="3.27881">
        <ele>5.5</ele>
        <time>2024-11-10T15:28:16Z</time>
      </trkpt>
      <trkpt lat="42.28183" lon="3.27882">
        <ele>5.5</ele>
        <time>2024-11-10T15:28:17Z</time>
      </trkpt>
      <trkpt lat="42.28184" lon="3.27883">
        <ele>5.5</ele>
        <time>2024-11-10T15:28:18Z</time>
      </trkpt>
      <trkpt lat="42.28184" lon="3.27885">
        <ele>5.6</ele>
        <time>2024-11-10T15:28:19Z</time>
      </trkpt>
      <trkpt lat="42.28185" lon="3.27886">
        <ele>5.6</ele>
        <time>2024-11-10T15:28:20Z</time>
      </trkpt>
      <trkpt lat="42.28185" lon="3.27887">
        <ele>5.6</ele>
        <time>2024-11-10T15:28:21Z</time>
      </trkpt>
      <trkpt lat="42.28186" lon="3.27888">
        <ele>5.6</ele>
        <time>2024-11-10T15:28:22Z</time>
      </trkpt>
      <trkpt lat="42.28187" lon="3.27889">
        <ele>5.7</ele>
        <time>2024-11-10T15:28:23Z</time>
      </trkpt>
      <trkpt lat="42.28187" lon="3.27889">
        <ele>5.7</ele>
        <time>2024-11-10T15:28:24Z</time>
      </trkpt>
      <trkpt lat="42.28188" lon="3.2789">
        <ele>5.7</ele>
        <time>2024-11-10T15:28:25Z</time>
      </trkpt>
      <trkpt lat="42.28188" lon="3.27891">
        <ele>5.7</ele>
        <time>2024-11-10T15:28:26Z</time>
      </trkpt>
      <trkpt lat="42.28189" lon="3.27891">
        <ele>5.7</ele>
        <time>2024-11-10T15:28:27Z</time>
      </trkpt>
      <trkpt lat="42.2819" lon="3.27891">
        <ele>5.7</ele>
        <time>2024-11-10T15:28:28Z</time>
      </trkpt>
      <trkpt lat="42.2819" lon="3.27891">
        <ele>5.7</ele>
        <time>2024-11-10T15:28:29Z</time>
      </trkpt>
      <trkpt lat="42.2819" lon="3.27891">
        <ele>5.7</ele>
        <time>2024-11-10T15:28:30Z</time>
      </trkpt>
      <trkpt lat="42.2819" lon="3.27891">
        <ele>5.7</ele>
        <time>2024-11-10T15:28:31Z</time>
      </trkpt>
      <trkpt lat="42.2819" lon="3.27891">
        <ele>5.7</ele>
        <time>2024-11-10T15:28:32Z</time>
      </trkpt>
      <trkpt lat="42.2819" lon="3.27891">
        <ele>5.7</ele>
        <time>2024-11-10T15:28:33Z</time>
      </trkpt>
      <trkpt lat="42.2819" lon="3.27891">
        <ele>5.7</ele>
        <time>2024-11-10T15:28:34Z</time>
      </trkpt>
      <trkpt lat="42.2819" lon="3.27891">
        <ele>5.7</ele>
        <time>2024-11-10T15:28:35Z</time>
      </trkpt>
      <trkpt lat="42.2819" lon="3.27891">
        <ele>5.7</ele>
        <time>2024-11-10T15:28:36Z</time>
      </trkpt>
      <trkpt lat="42.2819" lon="3.27891">
        <ele>5.7</ele>
        <time>2024-11-10T15:28:37Z</time>
      </trkpt>
      <trkpt lat="42.2819" lon="3.27891">
        <ele>5.7</ele>
        <time>2024-11-10T15:28:38Z</time>
      </trkpt>
      <trkpt lat="42.2819" lon="3.27891">
        <ele>5.7</ele>
        <time>2024-11-10T15:28:39Z</time>
      </trkpt>
      <trkpt lat="42.2819" lon="3.27891">
        <ele>5.7</ele>
        <time>2024-11-10T15:28:40Z</time>
      </trkpt>
      <trkpt lat="42.2819" lon="3.27891">
        <ele>5.7</ele>
        <time>2024-11-10T15:28:41Z</time>
      </trkpt>
      <trkpt lat="42.2819" lon="3.27891">
        <ele>5.8</ele>
        <time>2024-11-10T15:28:42Z</time>
      </trkpt>
      <trkpt lat="42.2819" lon="3.27892">
        <ele>5.8</ele>
        <time>2024-11-10T15:28:43Z</time>
      </trkpt>
      <trkpt lat="42.28191" lon="3.27892">
        <ele>5.8</ele>
        <time>2024-11-10T15:28:44Z</time>
      </trkpt>
      <trkpt lat="42.28192" lon="3.27893">
        <ele>5.8</ele>
        <time>2024-11-10T15:28:45Z</time>
      </trkpt>
      <trkpt lat="42.28192" lon="3.27893">
        <ele>5.8</ele>
        <time>2024-11-10T15:28:46Z</time>
      </trkpt>
      <trkpt lat="42.28192" lon="3.27894">
        <ele>5.8</ele>
        <time>2024-11-10T15:28:47Z</time>
      </trkpt>
      <trkpt lat="42.28192" lon="3.27895">
        <ele>5.8</ele>
        <time>2024-11-10T15:28:48Z</time>
      </trkpt>
      <trkpt lat="42.28192" lon="3.27895">
        <ele>5.8</ele>
        <time>2024-11-10T15:28:49Z</time>
      </trkpt>
      <trkpt lat="42.28192" lon="3.27895">
        <ele>5.8</ele>
        <time>2024-11-10T15:28:50Z</time>
      </trkpt>
      <trkpt lat="42.28193" lon="3.27895">
        <ele>5.8</ele>
        <time>2024-11-10T15:28:51Z</time>
      </trkpt>
      <trkpt lat="42.28193" lon="3.27895">
        <ele>5.8</ele>
        <time>2024-11-10T15:28:52Z</time>
      </trkpt>
      <trkpt lat="42.28193" lon="3.27895">
        <ele>5.8</ele>
        <time>2024-11-10T15:28:53Z</time>
      </trkpt>
      <trkpt lat="42.28193" lon="3.27895">
        <ele>5.8</ele>
        <time>2024-11-10T15:28:54Z</time>
      </trkpt>
      <trkpt lat="42.28193" lon="3.27895">
        <ele>5.8</ele>
        <time>2024-11-10T15:28:55Z</time>
      </trkpt>
      <trkpt lat="42.28193" lon="3.27895">
        <ele>5.8</ele>
        <time>2024-11-10T15:28:56Z</time>
      </trkpt>
      <trkpt lat="42.28193" lon="3.27895">
        <ele>5.8</ele>
        <time>2024-11-10T15:28:57Z</time>
      </trkpt>
      <trkpt lat="42.28193" lon="3.27895">
        <ele>5.9</ele>
        <time>2024-11-10T15:28:58Z</time>
      </trkpt>
      <trkpt lat="42.28193" lon="3.27895">
        <ele>5.9</ele>
        <time>2024-11-10T15:28:59Z</time>
      </trkpt>
      <trkpt lat="42.28193" lon="3.27895">
        <ele>5.9</ele>
        <time>2024-11-10T15:29:00Z</time>
      </trkpt>
      <trkpt lat="42.28193" lon="3.27895">
        <ele>5.9</ele>
        <time>2024-11-10T15:29:01Z</time>
      </trkpt>
      <trkpt lat="42.28193" lon="3.27895">
        <ele>5.9</ele>
        <time>2024-11-10T15:29:02Z</time>
      </trkpt>
      <trkpt lat="42.28193" lon="3.27895">
        <ele>5.9</ele>
        <time>2024-11-10T15:29:03Z</time>
      </trkpt>
      <trkpt lat="42.28193" lon="3.27895">
        <ele>5.9</ele>
        <time>2024-11-10T15:29:04Z</time>
      </trkpt>
      <trkpt lat="42.28193" lon="3.27895">
        <ele>5.9</ele>
        <time>2024-11-10T15:29:05Z</time>
      </trkpt>
      <trkpt lat="42.28194" lon="3.27895">
        <ele>5.9</ele>
        <time>2024-11-10T15:29:06Z</time>
      </trkpt>
      <trkpt lat="42.28194" lon="3.27895">
        <ele>5.9</ele>
        <time>2024-11-10T15:29:07Z</time>
      </trkpt>
      <trkpt lat="42.28194" lon="3.27895">
        <ele>5.9</ele>
        <time>2024-11-10T15:29:08Z</time>
      </trkpt>
      <trkpt lat="42.28194" lon="3.27895">
        <ele>5.9</ele>
        <time>2024-11-10T15:29:09Z</time>
      </trkpt>
      <trkpt lat="42.28194" lon="3.27895">
        <ele>5.9</ele>
        <time>2024-11-10T15:29:10Z</time>
      </trkpt>
      <trkpt lat="42.28195" lon="3.27895">
        <ele>5.9</ele>
        <time>2024-11-10T15:29:11Z</time>
      </trkpt>
      <trkpt lat="42.28195" lon="3.27897">
        <ele>5.9</ele>
        <time>2024-11-10T15:29:12Z</time>
      </trkpt>
      <trkpt lat="42.28195" lon="3.27897">
        <ele>5.9</ele>
        <time>2024-11-10T15:29:13Z</time>
      </trkpt>
      <trkpt lat="42.28195" lon="3.27897">
        <ele>5.9</ele>
        <time>2024-11-10T15:29:14Z</time>
      </trkpt>
      <trkpt lat="42.28195" lon="3.27897">
        <ele>5.9</ele>
        <time>2024-11-10T15:29:15Z</time>
      </trkpt>
      <trkpt lat="42.28195" lon="3.27897">
        <ele>5.9</ele>
        <time>2024-11-10T15:29:16Z</time>
      </trkpt>
      <trkpt lat="42.28195" lon="3.27897">
        <ele>5.9</ele>
        <time>2024-11-10T15:29:17Z</time>
      </trkpt>
      <trkpt lat="42.28195" lon="3.27897">
        <ele>5.9</ele>
        <time>2024-11-10T15:29:18Z</time>
      </trkpt>
      <trkpt lat="42.28195" lon="3.27897">
        <ele>5.9</ele>
        <time>2024-11-10T15:29:19Z</time>
      </trkpt>
      <trkpt lat="42.28196" lon="3.27897">
        <ele>5.9</ele>
        <time>2024-11-10T15:29:20Z</time>
      </trkpt>
      <trkpt lat="42.28196" lon="3.27897">
        <ele>5.9</ele>
        <time>2024-11-10T15:29:21Z</time>
      </trkpt>
      <trkpt lat="42.28196" lon="3.27897">
        <ele>5.9</ele>
        <time>2024-11-10T15:29:22Z</time>
      </trkpt>
      <trkpt lat="42.28197" lon="3.27897">
        <ele>6</ele>
        <time>2024-11-10T15:29:23Z</time>
      </trkpt>
      <trkpt lat="42.28197" lon="3.27898">
        <ele>6</ele>
        <time>2024-11-10T15:29:24Z</time>
      </trkpt>
      <trkpt lat="42.28197" lon="3.279">
        <ele>6</ele>
        <time>2024-11-10T15:29:25Z</time>
      </trkpt>
      <trkpt lat="42.28197" lon="3.27901">
        <ele>6</ele>
        <time>2024-11-10T15:29:26Z</time>
      </trkpt>
      <trkpt lat="42.28197" lon="3.27902">
        <ele>6</ele>
        <time>2024-11-10T15:29:27Z</time>
      </trkpt>
      <trkpt lat="42.28198" lon="3.27904">
        <ele>6.1</ele>
        <time>2024-11-10T15:29:28Z</time>
      </trkpt>
      <trkpt lat="42.28199" lon="3.27905">
        <ele>6.1</ele>
        <time>2024-11-10T15:29:29Z</time>
      </trkpt>
      <trkpt lat="42.282" lon="3.27906">
        <ele>6.1</ele>
        <time>2024-11-10T15:29:30Z</time>
      </trkpt>
      <trkpt lat="42.28201" lon="3.27906">
        <ele>6.1</ele>
        <time>2024-11-10T15:29:31Z</time>
      </trkpt>
      <trkpt lat="42.28202" lon="3.27907">
        <ele>6.2</ele>
        <time>2024-11-10T15:29:32Z</time>
      </trkpt>
      <trkpt lat="42.28203" lon="3.27907">
        <ele>6.1</ele>
        <time>2024-11-10T15:29:33Z</time>
      </trkpt>
      <trkpt lat="42.28204" lon="3.27907">
        <ele>6.1</ele>
        <time>2024-11-10T15:29:34Z</time>
      </trkpt>
      <trkpt lat="42.28205" lon="3.27907">
        <ele>6</ele>
        <time>2024-11-10T15:29:35Z</time>
      </trkpt>
      <trkpt lat="42.28206" lon="3.27907">
        <ele>6</ele>
        <time>2024-11-10T15:29:36Z</time>
      </trkpt>
      <trkpt lat="42.28207" lon="3.27906">
        <ele>6</ele>
        <time>2024-11-10T15:29:37Z</time>
      </trkpt>
      <trkpt lat="42.28207" lon="3.27906">
        <ele>5.9</ele>
        <time>2024-11-10T15:29:38Z</time>
      </trkpt>
      <trkpt lat="42.28207" lon="3.27905">
        <ele>5.9</ele>
        <time>2024-11-10T15:29:39Z</time>
      </trkpt>
      <trkpt lat="42.28207" lon="3.27905">
        <ele>5.9</ele>
        <time>2024-11-10T15:29:40Z</time>
      </trkpt>
      <trkpt lat="42.28207" lon="3.27905">
        <ele>5.9</ele>
        <time>2024-11-10T15:29:41Z</time>
      </trkpt>
      <trkpt lat="42.28207" lon="3.27905">
        <ele>5.9</ele>
        <time>2024-11-10T15:29:42Z</time>
      </trkpt>
      <trkpt lat="42.28207" lon="3.27904">
        <ele>5.9</ele>
        <time>2024-11-10T15:29:43Z</time>
      </trkpt>
      <trkpt lat="42.28207" lon="3.27904">
        <ele>5.9</ele>
        <time>2024-11-10T15:29:44Z</time>
      </trkpt>
      <trkpt lat="42.28207" lon="3.27904">
        <ele>5.9</ele>
        <time>2024-11-10T15:29:45Z</time>
      </trkpt>
      <trkpt lat="42.28207" lon="3.27904">
        <ele>5.9</ele>
        <time>2024-11-10T15:29:46Z</time>
      </trkpt>
      <trkpt lat="42.28207" lon="3.27904">
        <ele>5.9</ele>
        <time>2024-11-10T15:29:47Z</time>
      </trkpt>
      <trkpt lat="42.28207" lon="3.27904">
        <ele>5.9</ele>
        <time>2024-11-10T15:29:48Z</time>
      </trkpt>
      <trkpt lat="42.28207" lon="3.27904">
        <ele>5.9</ele>
        <time>2024-11-10T15:29:49Z</time>
      </trkpt>
      <trkpt lat="42.28207" lon="3.27904">
        <ele>5.9</ele>
        <time>2024-11-10T15:29:50Z</time>
      </trkpt>
      <trkpt lat="42.28207" lon="3.27904">
        <ele>5.9</ele>
        <time>2024-11-10T15:29:51Z</time>
      </trkpt>
      <trkpt lat="42.28207" lon="3.27904">
        <ele>5.9</ele>
        <time>2024-11-10T15:29:52Z</time>
      </trkpt>
      <trkpt lat="42.28207" lon="3.27904">
        <ele>5.9</ele>
        <time>2024-11-10T15:29:53Z</time>
      </trkpt>
      <trkpt lat="42.28207" lon="3.27904">
        <ele>5.9</ele>
        <time>2024-11-10T15:29:54Z</time>
      </trkpt>
      <trkpt lat="42.28207" lon="3.27904">
        <ele>5.9</ele>
        <time>2024-11-10T15:29:55Z</time>
      </trkpt>
      <trkpt lat="42.28207" lon="3.27904">
        <ele>5.8</ele>
        <time>2024-11-10T15:29:56Z</time>
      </trkpt>
      <trkpt lat="42.28207" lon="3.27904">
        <ele>5.8</ele>
        <time>2024-11-10T15:29:57Z</time>
      </trkpt>
      <trkpt lat="42.28207" lon="3.27905">
        <ele>5.8</ele>
        <time>2024-11-10T15:29:58Z</time>
      </trkpt>
      <trkpt lat="42.28207" lon="3.27905">
        <ele>5.8</ele>
        <time>2024-11-10T15:29:59Z</time>
      </trkpt>
      <trkpt lat="42.28208" lon="3.27905">
        <ele>5.8</ele>
        <time>2024-11-10T15:30:00Z</time>
      </trkpt>
      <trkpt lat="42.28208" lon="3.27905">
        <ele>5.8</ele>
        <time>2024-11-10T15:30:01Z</time>
      </trkpt>
      <trkpt lat="42.28208" lon="3.27905">
        <ele>5.8</ele>
        <time>2024-11-10T15:30:02Z</time>
      </trkpt>
      <trkpt lat="42.28208" lon="3.27905">
        <ele>5.8</ele>
        <time>2024-11-10T15:30:03Z</time>
      </trkpt>
      <trkpt lat="42.28208" lon="3.27905">
        <ele>5.8</ele>
        <time>2024-11-10T15:30:04Z</time>
      </trkpt>
      <trkpt lat="42.28208" lon="3.27905">
        <ele>5.8</ele>
        <time>2024-11-10T15:30:05Z</time>
      </trkpt>
      <trkpt lat="42.28208" lon="3.27905">
        <ele>5.8</ele>
        <time>2024-11-10T15:30:06Z</time>
      </trkpt>
      <trkpt lat="42.28208" lon="3.27905">
        <ele>5.8</ele>
        <time>2024-11-10T15:30:07Z</time>
      </trkpt>
      <trkpt lat="42.28209" lon="3.27905">
        <ele>5.8</ele>
        <time>2024-11-10T15:30:08Z</time>
      </trkpt>
      <trkpt lat="42.28209" lon="3.27905">
        <ele>5.8</ele>
        <time>2024-11-10T15:30:09Z</time>
      </trkpt>
      <trkpt lat="42.2821" lon="3.27904">
        <ele>5.7</ele>
        <time>2024-11-10T15:30:10Z</time>
      </trkpt>
      <trkpt lat="42.28211" lon="3.27904">
        <ele>5.7</ele>
        <time>2024-11-10T15:30:11Z</time>
      </trkpt>
      <trkpt lat="42.28211" lon="3.27903">
        <ele>5.7</ele>
        <time>2024-11-10T15:30:12Z</time>
      </trkpt>
      <trkpt lat="42.28212" lon="3.27902">
        <ele>5.7</ele>
        <time>2024-11-10T15:30:13Z</time>
      </trkpt>
      <trkpt lat="42.28212" lon="3.27901">
        <ele>5.7</ele>
        <time>2024-11-10T15:30:14Z</time>
      </trkpt>
      <trkpt lat="42.28213" lon="3.27901">
        <ele>5.6</ele>
        <time>2024-11-10T15:30:15Z</time>
      </trkpt>
      <trkpt lat="42.28213" lon="3.279">
        <ele>5.6</ele>
        <time>2024-11-10T15:30:16Z</time>
      </trkpt>
      <trkpt lat="42.28213" lon="3.27899">
        <ele>5.6</ele>
        <time>2024-11-10T15:30:17Z</time>
      </trkpt>
      <trkpt lat="42.28213" lon="3.27899">
        <ele>5.6</ele>
        <time>2024-11-10T15:30:18Z</time>
      </trkpt>
      <trkpt lat="42.28213" lon="3.27898">
        <ele>5.6</ele>
        <time>2024-11-10T15:30:19Z</time>
      </trkpt>
      <trkpt lat="42.28215" lon="3.27895">
        <ele>5.5</ele>
        <time>2024-11-10T15:30:20Z</time>
      </trkpt>
      <trkpt lat="42.28215" lon="3.27895">
        <ele>5.5</ele>
        <time>2024-11-10T15:30:21Z</time>
      </trkpt>
      <trkpt lat="42.28215" lon="3.27893">
        <ele>5.5</ele>
        <time>2024-11-10T15:30:22Z</time>
      </trkpt>
      <trkpt lat="42.28214" lon="3.27893">
        <ele>5.5</ele>
        <time>2024-11-10T15:30:23Z</time>
      </trkpt>
      <trkpt lat="42.28214" lon="3.27893">
        <ele>5.5</ele>
        <time>2024-11-10T15:30:24Z</time>
      </trkpt>
      <trkpt lat="42.28214" lon="3.27893">
        <ele>5.5</ele>
        <time>2024-11-10T15:30:25Z</time>
      </trkpt>
      <trkpt lat="42.28213" lon="3.27893">
        <ele>5.5</ele>
        <time>2024-11-10T15:30:26Z</time>
      </trkpt>
      <trkpt lat="42.28213" lon="3.27894">
        <ele>5.5</ele>
        <time>2024-11-10T15:30:27Z</time>
      </trkpt>
      <trkpt lat="42.28213" lon="3.27894">
        <ele>5.5</ele>
        <time>2024-11-10T15:30:28Z</time>
      </trkpt>
      <trkpt lat="42.28212" lon="3.27894">
        <ele>5.5</ele>
        <time>2024-11-10T15:30:29Z</time>
      </trkpt>
      <trkpt lat="42.28212" lon="3.27894">
        <ele>5.5</ele>
        <time>2024-11-10T15:30:30Z</time>
      </trkpt>
      <trkpt lat="42.28212" lon="3.27894">
        <ele>5.5</ele>
        <time>2024-11-10T15:30:31Z</time>
      </trkpt>
      <trkpt lat="42.28212" lon="3.27894">
        <ele>5.5</ele>
        <time>2024-11-10T15:30:32Z</time>
      </trkpt>
      <trkpt lat="42.28212" lon="3.27894">
        <ele>5.5</ele>
        <time>2024-11-10T15:30:33Z</time>
      </trkpt>
      <trkpt lat="42.28212" lon="3.27894">
        <ele>5.5</ele>
        <time>2024-11-10T15:30:34Z</time>
      </trkpt>
      <trkpt lat="42.28212" lon="3.27894">
        <ele>5.5</ele>
        <time>2024-11-10T15:30:35Z</time>
      </trkpt>
      <trkpt lat="42.28212" lon="3.27895">
        <ele>5.4</ele>
        <time>2024-11-10T15:30:36Z</time>
      </trkpt>
      <trkpt lat="42.28212" lon="3.27895">
        <ele>5.4</ele>
        <time>2024-11-10T15:30:37Z</time>
      </trkpt>
      <trkpt lat="42.28212" lon="3.27895">
        <ele>5.4</ele>
        <time>2024-11-10T15:30:38Z</time>
      </trkpt>
      <trkpt lat="42.28213" lon="3.27895">
        <ele>5.4</ele>
        <time>2024-11-10T15:30:39Z</time>
      </trkpt>
      <trkpt lat="42.28213" lon="3.27895">
        <ele>5.4</ele>
        <time>2024-11-10T15:30:40Z</time>
      </trkpt>
      <trkpt lat="42.28213" lon="3.27895">
        <ele>5.4</ele>
        <time>2024-11-10T15:30:41Z</time>
      </trkpt>
      <trkpt lat="42.28213" lon="3.27895">
        <ele>5.4</ele>
        <time>2024-11-10T15:30:42Z</time>
      </trkpt>
      <trkpt lat="42.28213" lon="3.27895">
        <ele>5.4</ele>
        <time>2024-11-10T15:30:43Z</time>
      </trkpt>
      <trkpt lat="42.28213" lon="3.27895">
        <ele>5.4</ele>
        <time>2024-11-10T15:30:44Z</time>
      </trkpt>
      <trkpt lat="42.28213" lon="3.27895">
        <ele>5.4</ele>
        <time>2024-11-10T15:30:45Z</time>
      </trkpt>
      <trkpt lat="42.28213" lon="3.27895">
        <ele>5.4</ele>
        <time>2024-11-10T15:30:46Z</time>
      </trkpt>
      <trkpt lat="42.28213" lon="3.27896">
        <ele>5.4</ele>
        <time>2024-11-10T15:30:47Z</time>
      </trkpt>
      <trkpt lat="42.28213" lon="3.27896">
        <ele>5.4</ele>
        <time>2024-11-10T15:30:48Z</time>
      </trkpt>
      <trkpt lat="42.28213" lon="3.27896">
        <ele>5.4</ele>
        <time>2024-11-10T15:30:49Z</time>
      </trkpt>
      <trkpt lat="42.28213" lon="3.27896">
        <ele>5.4</ele>
        <time>2024-11-10T15:30:50Z</time>
      </trkpt>
      <trkpt lat="42.28213" lon="3.27896">
        <ele>5.4</ele>
        <time>2024-11-10T15:30:51Z</time>
      </trkpt>
      <trkpt lat="42.28213" lon="3.27896">
        <ele>5.4</ele>
        <time>2024-11-10T15:30:52Z</time>
      </trkpt>
      <trkpt lat="42.28213" lon="3.27896">
        <ele>5.4</ele>
        <time>2024-11-10T15:30:53Z</time>
      </trkpt>
      <trkpt lat="42.28213" lon="3.27896">
        <ele>5.4</ele>
        <time>2024-11-10T15:30:54Z</time>
      </trkpt>
      <trkpt lat="42.28213" lon="3.27896">
        <ele>5.4</ele>
        <time>2024-11-10T15:30:55Z</time>
      </trkpt>
      <trkpt lat="42.28213" lon="3.27896">
        <ele>5.4</ele>
        <time>2024-11-10T15:30:56Z</time>
      </trkpt>
      <trkpt lat="42.28213" lon="3.27896">
        <ele>5.4</ele>
        <time>2024-11-10T15:30:57Z</time>
      </trkpt>
      <trkpt lat="42.28213" lon="3.27897">
        <ele>5.4</ele>
        <time>2024-11-10T15:30:58Z</time>
      </trkpt>
      <trkpt lat="42.28213" lon="3.27897">
        <ele>5.4</ele>
        <time>2024-11-10T15:30:59Z</time>
      </trkpt>
      <trkpt lat="42.28213" lon="3.27897">
        <ele>5.4</ele>
        <time>2024-11-10T15:31:00Z</time>
      </trkpt>
      <trkpt lat="42.28213" lon="3.27897">
        <ele>5.4</ele>
        <time>2024-11-10T15:31:01Z</time>
      </trkpt>
      <trkpt lat="42.28213" lon="3.27897">
        <ele>5.4</ele>
        <time>2024-11-10T15:31:02Z</time>
      </trkpt>
      <trkpt lat="42.28213" lon="3.27897">
        <ele>5.4</ele>
        <time>2024-11-10T15:31:03Z</time>
      </trkpt>
      <trkpt lat="42.28213" lon="3.27897">
        <ele>5.4</ele>
        <time>2024-11-10T15:31:04Z</time>
      </trkpt>
      <trkpt lat="42.28213" lon="3.27897">
        <ele>5.4</ele>
        <time>2024-11-10T15:31:05Z</time>
      </trkpt>
      <trkpt lat="42.28214" lon="3.27897">
        <ele>5.4</ele>
        <time>2024-11-10T15:31:06Z</time>
      </trkpt>
      <trkpt lat="42.28214" lon="3.27897">
        <ele>5.4</ele>
        <time>2024-11-10T15:31:07Z</time>
      </trkpt>
      <trkpt lat="42.28214" lon="3.27897">
        <ele>5.4</ele>
        <time>2024-11-10T15:31:08Z</time>
      </trkpt>
      <trkpt lat="42.28214" lon="3.27898">
        <ele>5.4</ele>
        <time>2024-11-10T15:31:09Z</time>
      </trkpt>
      <trkpt lat="42.28214" lon="3.27898">
        <ele>5.4</ele>
        <time>2024-11-10T15:31:10Z</time>
      </trkpt>
      <trkpt lat="42.28214" lon="3.27898">
        <ele>5.4</ele>
        <time>2024-11-10T15:31:11Z</time>
      </trkpt>
      <trkpt lat="42.28214" lon="3.27898">
        <ele>5.4</ele>
        <time>2024-11-10T15:31:12Z</time>
      </trkpt>
      <trkpt lat="42.28214" lon="3.27898">
        <ele>5.4</ele>
        <time>2024-11-10T15:31:13Z</time>
      </trkpt>
      <trkpt lat="42.28214" lon="3.27898">
        <ele>5.4</ele>
        <time>2024-11-10T15:31:14Z</time>
      </trkpt>
      <trkpt lat="42.28214" lon="3.27898">
        <ele>5.4</ele>
        <time>2024-11-10T15:31:15Z</time>
      </trkpt>
      <trkpt lat="42.28214" lon="3.27898">
        <ele>5.4</ele>
        <time>2024-11-10T15:31:16Z</time>
      </trkpt>
      <trkpt lat="42.28214" lon="3.27898">
        <ele>5.4</ele>
        <time>2024-11-10T15:31:17Z</time>
      </trkpt>
      <trkpt lat="42.28214" lon="3.27898">
        <ele>5.4</ele>
        <time>2024-11-10T15:31:18Z</time>
      </trkpt>
      <trkpt lat="42.28215" lon="3.279">
        <ele>5.3</ele>
        <time>2024-11-10T15:31:19Z</time>
      </trkpt>
      <trkpt lat="42.28216" lon="3.27901">
        <ele>5.3</ele>
        <time>2024-11-10T15:31:20Z</time>
      </trkpt>
      <trkpt lat="42.28217" lon="3.27901">
        <ele>5.3</ele>
        <time>2024-11-10T15:31:21Z</time>
      </trkpt>
      <trkpt lat="42.28218" lon="3.27902">
        <ele>5.3</ele>
        <time>2024-11-10T15:31:22Z</time>
      </trkpt>
      <trkpt lat="42.2822" lon="3.27902">
        <ele>5.3</ele>
        <time>2024-11-10T15:31:23Z</time>
      </trkpt>
      <trkpt lat="42.2822" lon="3.27903">
        <ele>5.2</ele>
        <time>2024-11-10T15:31:24Z</time>
      </trkpt>
      <trkpt lat="42.28222" lon="3.27902">
        <ele>5.2</ele>
        <time>2024-11-10T15:31:25Z</time>
      </trkpt>
      <trkpt lat="42.28223" lon="3.27902">
        <ele>5.2</ele>
        <time>2024-11-10T15:31:26Z</time>
      </trkpt>
      <trkpt lat="42.28224" lon="3.27902">
        <ele>5.2</ele>
        <time>2024-11-10T15:31:27Z</time>
      </trkpt>
      <trkpt lat="42.28224" lon="3.27903">
        <ele>5.2</ele>
        <time>2024-11-10T15:31:28Z</time>
      </trkpt>
      <trkpt lat="42.28225" lon="3.27903">
        <ele>5.2</ele>
        <time>2024-11-10T15:31:29Z</time>
      </trkpt>
      <trkpt lat="42.28226" lon="3.27903">
        <ele>5.2</ele>
        <time>2024-11-10T15:31:30Z</time>
      </trkpt>
      <trkpt lat="42.28228" lon="3.27902">
        <ele>5.1</ele>
        <time>2024-11-10T15:31:31Z</time>
      </trkpt>
      <trkpt lat="42.28229" lon="3.27901">
        <ele>5.1</ele>
        <time>2024-11-10T15:31:32Z</time>
      </trkpt>
      <trkpt lat="42.2823" lon="3.27901">
        <ele>5.1</ele>
        <time>2024-11-10T15:31:33Z</time>
      </trkpt>
      <trkpt lat="42.28231" lon="3.27901">
        <ele>5.1</ele>
        <time>2024-11-10T15:31:34Z</time>
      </trkpt>
      <trkpt lat="42.28232" lon="3.27901">
        <ele>5.1</ele>
        <time>2024-11-10T15:31:35Z</time>
      </trkpt>
      <trkpt lat="42.28232" lon="3.27901">
        <ele>5.1</ele>
        <time>2024-11-10T15:31:36Z</time>
      </trkpt>
      <trkpt lat="42.28233" lon="3.27902">
        <ele>5.1</ele>
        <time>2024-11-10T15:31:37Z</time>
      </trkpt>
      <trkpt lat="42.28233" lon="3.27902">
        <ele>5.1</ele>
        <time>2024-11-10T15:31:38Z</time>
      </trkpt>
      <trkpt lat="42.28233" lon="3.27903">
        <ele>5.1</ele>
        <time>2024-11-10T15:31:39Z</time>
      </trkpt>
      <trkpt lat="42.28233" lon="3.27904">
        <ele>5.1</ele>
        <time>2024-11-10T15:31:40Z</time>
      </trkpt>
      <trkpt lat="42.28232" lon="3.27904">
        <ele>5.1</ele>
        <time>2024-11-10T15:31:41Z</time>
      </trkpt>
      <trkpt lat="42.28232" lon="3.27905">
        <ele>5.1</ele>
        <time>2024-11-10T15:31:42Z</time>
      </trkpt>
      <trkpt lat="42.28231" lon="3.27905">
        <ele>5</ele>
        <time>2024-11-10T15:31:43Z</time>
      </trkpt>
      <trkpt lat="42.2823" lon="3.27905">
        <ele>5</ele>
        <time>2024-11-10T15:31:44Z</time>
      </trkpt>
      <trkpt lat="42.2823" lon="3.27906">
        <ele>5</ele>
        <time>2024-11-10T15:31:45Z</time>
      </trkpt>
      <trkpt lat="42.28229" lon="3.27906">
        <ele>5</ele>
        <time>2024-11-10T15:31:46Z</time>
      </trkpt>
      <trkpt lat="42.28229" lon="3.27906">
        <ele>5</ele>
        <time>2024-11-10T15:31:47Z</time>
      </trkpt>
      <trkpt lat="42.28229" lon="3.27905">
        <ele>5</ele>
        <time>2024-11-10T15:31:48Z</time>
      </trkpt>
      <trkpt lat="42.28229" lon="3.27905">
        <ele>5</ele>
        <time>2024-11-10T15:31:49Z</time>
      </trkpt>
      <trkpt lat="42.28229" lon="3.27905">
        <ele>5</ele>
        <time>2024-11-10T15:31:50Z</time>
      </trkpt>
      <trkpt lat="42.28229" lon="3.27905">
        <ele>5</ele>
        <time>2024-11-10T15:31:51Z</time>
      </trkpt>
      <trkpt lat="42.28229" lon="3.27905">
        <ele>5</ele>
        <time>2024-11-10T15:31:52Z</time>
      </trkpt>
      <trkpt lat="42.28229" lon="3.27905">
        <ele>5</ele>
        <time>2024-11-10T15:31:53Z</time>
      </trkpt>
      <trkpt lat="42.28229" lon="3.27905">
        <ele>5</ele>
        <time>2024-11-10T15:31:54Z</time>
      </trkpt>
      <trkpt lat="42.28229" lon="3.27906">
        <ele>5</ele>
        <time>2024-11-10T15:31:55Z</time>
      </trkpt>
      <trkpt lat="42.28229" lon="3.27906">
        <ele>5</ele>
        <time>2024-11-10T15:31:56Z</time>
      </trkpt>
      <trkpt lat="42.28229" lon="3.27906">
        <ele>5</ele>
        <time>2024-11-10T15:31:58Z</time>
      </trkpt>
      <trkpt lat="42.2823" lon="3.27906">
        <ele>5</ele>
        <time>2024-11-10T15:31:59Z</time>
      </trkpt>
      <trkpt lat="42.2823" lon="3.27906">
        <ele>5</ele>
        <time>2024-11-10T15:32:00Z</time>
      </trkpt>
      <trkpt lat="42.2823" lon="3.27906">
        <ele>5</ele>
        <time>2024-11-10T15:32:03Z</time>
      </trkpt>
      <trkpt lat="42.2823" lon="3.27906">
        <ele>5</ele>
        <time>2024-11-10T15:32:04Z</time>
      </trkpt>
      <trkpt lat="42.2823" lon="3.27906">
        <ele>5</ele>
        <time>2024-11-10T15:32:05Z</time>
      </trkpt>
      <trkpt lat="42.28213" lon="3.27928">
        <ele>4.7</ele>
        <time>2024-11-10T15:32:42Z</time>
      </trkpt>
      <trkpt lat="42.28213" lon="3.27929">
        <ele>4.7</ele>
        <time>2024-11-10T15:32:45Z</time>
      </trkpt>
      <trkpt lat="42.28212" lon="3.2793">
        <ele>4.7</ele>
        <time>2024-11-10T15:32:46Z</time>
      </trkpt>
      <trkpt lat="42.28211" lon="3.2793">
        <ele>4.7</ele>
        <time>2024-11-10T15:32:47Z</time>
      </trkpt>
      <trkpt lat="42.28211" lon="3.2793">
        <ele>4.7</ele>
        <time>2024-11-10T15:32:50Z</time>
      </trkpt>
      <trkpt lat="42.28211" lon="3.27931">
        <ele>4.7</ele>
        <time>2024-11-10T15:32:51Z</time>
      </trkpt>
      <trkpt lat="42.28212" lon="3.27931">
        <ele>4.7</ele>
        <time>2024-11-10T15:32:52Z</time>
      </trkpt>
      <trkpt lat="42.28212" lon="3.27931">
        <ele>4.7</ele>
        <time>2024-11-10T15:32:56Z</time>
      </trkpt>
      <trkpt lat="42.28212" lon="3.27931">
        <ele>4.7</ele>
        <time>2024-11-10T15:32:57Z</time>
      </trkpt>
      <trkpt lat="42.28211" lon="3.27932">
        <ele>4.7</ele>
        <time>2024-11-10T15:32:59Z</time>
      </trkpt>
      <trkpt lat="42.28211" lon="3.27932">
        <ele>4.7</ele>
        <time>2024-11-10T15:33:00Z</time>
      </trkpt>
      <trkpt lat="42.28211" lon="3.27934">
        <ele>4.6</ele>
        <time>2024-11-10T15:33:02Z</time>
      </trkpt>
      <trkpt lat="42.28211" lon="3.27934">
        <ele>4.6</ele>
        <time>2024-11-10T15:33:04Z</time>
      </trkpt>
      <trkpt lat="42.2821" lon="3.27934">
        <ele>4.6</ele>
        <time>2024-11-10T15:33:05Z</time>
      </trkpt>
      <trkpt lat="42.2821" lon="3.27935">
        <ele>4.6</ele>
        <time>2024-11-10T15:33:06Z</time>
      </trkpt>
      <trkpt lat="42.28209" lon="3.27934">
        <ele>4.6</ele>
        <time>2024-11-10T15:33:07Z</time>
      </trkpt>
      <trkpt lat="42.28209" lon="3.27933">
        <ele>4.6</ele>
        <time>2024-11-10T15:33:08Z</time>
      </trkpt>
      <trkpt lat="42.28208" lon="3.27932">
        <ele>4.6</ele>
        <time>2024-11-10T15:33:09Z</time>
      </trkpt>
      <trkpt lat="42.28208" lon="3.27931">
        <ele>4.6</ele>
        <time>2024-11-10T15:33:10Z</time>
      </trkpt>
      <trkpt lat="42.28208" lon="3.2793">
        <ele>4.5</ele>
        <time>2024-11-10T15:33:11Z</time>
      </trkpt>
      <trkpt lat="42.28208" lon="3.2793">
        <ele>4.5</ele>
        <time>2024-11-10T15:33:13Z</time>
      </trkpt>
      <trkpt lat="42.28208" lon="3.2793">
        <ele>4.5</ele>
        <time>2024-11-10T15:33:14Z</time>
      </trkpt>
      <trkpt lat="42.28208" lon="3.27929">
        <ele>4.5</ele>
        <time>2024-11-10T15:33:15Z</time>
      </trkpt>
      <trkpt lat="42.28208" lon="3.27929">
        <ele>4.5</ele>
        <time>2024-11-10T15:33:16Z</time>
      </trkpt>
      <trkpt lat="42.28208" lon="3.27929">
        <ele>4.5</ele>
        <time>2024-11-10T15:33:17Z</time>
      </trkpt>
      <trkpt lat="42.28208" lon="3.27929">
        <ele>4.5</ele>
        <time>2024-11-10T15:33:18Z</time>
      </trkpt>
      <trkpt lat="42.28208" lon="3.27929">
        <ele>4.5</ele>
        <time>2024-11-10T15:33:19Z</time>
      </trkpt>
      <trkpt lat="42.28209" lon="3.27928">
        <ele>4.5</ele>
        <time>2024-11-10T15:33:20Z</time>
      </trkpt>
      <trkpt lat="42.28209" lon="3.27928">
        <ele>4.5</ele>
        <time>2024-11-10T15:33:21Z</time>
      </trkpt>
      <trkpt lat="42.28209" lon="3.27928">
        <ele>4.5</ele>
        <time>2024-11-10T15:33:22Z</time>
      </trkpt>
      <trkpt lat="42.28209" lon="3.27928">
        <ele>4.5</ele>
        <time>2024-11-10T15:33:23Z</time>
      </trkpt>
      <trkpt lat="42.28209" lon="3.27927">
        <ele>4.5</ele>
        <time>2024-11-10T15:33:24Z</time>
      </trkpt>
      <trkpt lat="42.28209" lon="3.27927">
        <ele>4.5</ele>
        <time>2024-11-10T15:33:25Z</time>
      </trkpt>
      <trkpt lat="42.28209" lon="3.27927">
        <ele>4.5</ele>
        <time>2024-11-10T15:33:26Z</time>
      </trkpt>
      <trkpt lat="42.28209" lon="3.27927">
        <ele>4.5</ele>
        <time>2024-11-10T15:33:27Z</time>
      </trkpt>
      <trkpt lat="42.28209" lon="3.27926">
        <ele>4.5</ele>
        <time>2024-11-10T15:33:28Z</time>
      </trkpt>
      <trkpt lat="42.28209" lon="3.27926">
        <ele>4.5</ele>
        <time>2024-11-10T15:33:29Z</time>
      </trkpt>
      <trkpt lat="42.28209" lon="3.27925">
        <ele>4.5</ele>
        <time>2024-11-10T15:33:30Z</time>
      </trkpt>
      <trkpt lat="42.28209" lon="3.27925">
        <ele>4.5</ele>
        <time>2024-11-10T15:33:31Z</time>
      </trkpt>
      <trkpt lat="42.28209" lon="3.27925">
        <ele>4.5</ele>
        <time>2024-11-10T15:33:32Z</time>
      </trkpt>
      <trkpt lat="42.28209" lon="3.27924">
        <ele>4.5</ele>
        <time>2024-11-10T15:33:33Z</time>
      </trkpt>
      <trkpt lat="42.28209" lon="3.27924">
        <ele>4.4</ele>
        <time>2024-11-10T15:33:34Z</time>
      </trkpt>
      <trkpt lat="42.28209" lon="3.27924">
        <ele>4.4</ele>
        <time>2024-11-10T15:33:35Z</time>
      </trkpt>
      <trkpt lat="42.28209" lon="3.27923">
        <ele>4.4</ele>
        <time>2024-11-10T15:33:36Z</time>
      </trkpt>
      <trkpt lat="42.28209" lon="3.27923">
        <ele>4.4</ele>
        <time>2024-11-10T15:33:37Z</time>
      </trkpt>
      <trkpt lat="42.28209" lon="3.27923">
        <ele>4.4</ele>
        <time>2024-11-10T15:33:38Z</time>
      </trkpt>
      <trkpt lat="42.28209" lon="3.27923">
        <ele>4.4</ele>
        <time>2024-11-10T15:33:39Z</time>
      </trkpt>
      <trkpt lat="42.28209" lon="3.27923">
        <ele>4.4</ele>
        <time>2024-11-10T15:33:40Z</time>
      </trkpt>
      <trkpt lat="42.28209" lon="3.27923">
        <ele>4.4</ele>
        <time>2024-11-10T15:33:41Z</time>
      </trkpt>
      <trkpt lat="42.28209" lon="3.27923">
        <ele>4.4</ele>
        <time>2024-11-10T15:33:42Z</time>
      </trkpt>
      <trkpt lat="42.28209" lon="3.27923">
        <ele>4.4</ele>
        <time>2024-11-10T15:33:43Z</time>
      </trkpt>
      <trkpt lat="42.28209" lon="3.27923">
        <ele>4.4</ele>
        <time>2024-11-10T15:33:44Z</time>
      </trkpt>
      <trkpt lat="42.28209" lon="3.27923">
        <ele>4.4</ele>
        <time>2024-11-10T15:33:45Z</time>
      </trkpt>
      <trkpt lat="42.28209" lon="3.27922">
        <ele>4.4</ele>
        <time>2024-11-10T15:33:46Z</time>
      </trkpt>
      <trkpt lat="42.2821" lon="3.27922">
        <ele>4.4</ele>
        <time>2024-11-10T15:33:47Z</time>
      </trkpt>
      <trkpt lat="42.2821" lon="3.27922">
        <ele>4.4</ele>
        <time>2024-11-10T15:33:48Z</time>
      </trkpt>
      <trkpt lat="42.2821" lon="3.27921">
        <ele>4.4</ele>
        <time>2024-11-10T15:33:49Z</time>
      </trkpt>
      <trkpt lat="42.28211" lon="3.27921">
        <ele>4.4</ele>
        <time>2024-11-10T15:33:50Z</time>
      </trkpt>
      <trkpt lat="42.28211" lon="3.2792">
        <ele>4.3</ele>
        <time>2024-11-10T15:33:51Z</time>
      </trkpt>
      <trkpt lat="42.28211" lon="3.27919">
        <ele>4.3</ele>
        <time>2024-11-10T15:33:52Z</time>
      </trkpt>
      <trkpt lat="42.28211" lon="3.27918">
        <ele>4.3</ele>
        <time>2024-11-10T15:33:53Z</time>
      </trkpt>
      <trkpt lat="42.28211" lon="3.27917">
        <ele>4.3</ele>
        <time>2024-11-10T15:33:54Z</time>
      </trkpt>
      <trkpt lat="42.28211" lon="3.27916">
        <ele>4.3</ele>
        <time>2024-11-10T15:33:55Z</time>
      </trkpt>
      <trkpt lat="42.28211" lon="3.27915">
        <ele>4.3</ele>
        <time>2024-11-10T15:33:56Z</time>
      </trkpt>
      <trkpt lat="42.28212" lon="3.27914">
        <ele>4.2</ele>
        <time>2024-11-10T15:33:57Z</time>
      </trkpt>
      <trkpt lat="42.28212" lon="3.27914">
        <ele>4.2</ele>
        <time>2024-11-10T15:33:58Z</time>
      </trkpt>
      <trkpt lat="42.28212" lon="3.27914">
        <ele>4.2</ele>
        <time>2024-11-10T15:33:59Z</time>
      </trkpt>
      <trkpt lat="42.28212" lon="3.27914">
        <ele>4.2</ele>
        <time>2024-11-10T15:34:00Z</time>
      </trkpt>
      <trkpt lat="42.28212" lon="3.27914">
        <ele>4.2</ele>
        <time>2024-11-10T15:34:01Z</time>
      </trkpt>
      <trkpt lat="42.28212" lon="3.27914">
        <ele>4.2</ele>
        <time>2024-11-10T15:34:02Z</time>
      </trkpt>
      <trkpt lat="42.28212" lon="3.27914">
        <ele>4.3</ele>
        <time>2024-11-10T15:34:03Z</time>
      </trkpt>
      <trkpt lat="42.28212" lon="3.27915">
        <ele>4.3</ele>
        <time>2024-11-10T15:34:04Z</time>
      </trkpt>
      <trkpt lat="42.28212" lon="3.27915">
        <ele>4.3</ele>
        <time>2024-11-10T15:34:05Z</time>
      </trkpt>
      <trkpt lat="42.28212" lon="3.27915">
        <ele>4.3</ele>
        <time>2024-11-10T15:34:06Z</time>
      </trkpt>
      <trkpt lat="42.28212" lon="3.27915">
        <ele>4.3</ele>
        <time>2024-11-10T15:34:07Z</time>
      </trkpt>
      <trkpt lat="42.28212" lon="3.27915">
        <ele>4.3</ele>
        <time>2024-11-10T15:34:08Z</time>
      </trkpt>
      <trkpt lat="42.28212" lon="3.27915">
        <ele>4.3</ele>
        <time>2024-11-10T15:34:09Z</time>
      </trkpt>
      <trkpt lat="42.28212" lon="3.27915">
        <ele>4.3</ele>
        <time>2024-11-10T15:34:10Z</time>
      </trkpt>
      <trkpt lat="42.28212" lon="3.27915">
        <ele>4.3</ele>
        <time>2024-11-10T15:34:11Z</time>
      </trkpt>
      <trkpt lat="42.28212" lon="3.27915">
        <ele>4.3</ele>
        <time>2024-11-10T15:34:12Z</time>
      </trkpt>
      <trkpt lat="42.28212" lon="3.27915">
        <ele>4.3</ele>
        <time>2024-11-10T15:34:13Z</time>
      </trkpt>
      <trkpt lat="42.28212" lon="3.27915">
        <ele>4.3</ele>
        <time>2024-11-10T15:34:14Z</time>
      </trkpt>
      <trkpt lat="42.28212" lon="3.27915">
        <ele>4.3</ele>
        <time>2024-11-10T15:34:15Z</time>
      </trkpt>
      <trkpt lat="42.28212" lon="3.27915">
        <ele>4.3</ele>
        <time>2024-11-10T15:34:16Z</time>
      </trkpt>
      <trkpt lat="42.28212" lon="3.27915">
        <ele>4.3</ele>
        <time>2024-11-10T15:34:17Z</time>
      </trkpt>
      <trkpt lat="42.28212" lon="3.27915">
        <ele>4.3</ele>
        <time>2024-11-10T15:34:18Z</time>
      </trkpt>
      <trkpt lat="42.28212" lon="3.27915">
        <ele>4.3</ele>
        <time>2024-11-10T15:34:19Z</time>
      </trkpt>
      <trkpt lat="42.28212" lon="3.27915">
        <ele>4.3</ele>
        <time>2024-11-10T15:34:20Z</time>
      </trkpt>
      <trkpt lat="42.28212" lon="3.27915">
        <ele>4.3</ele>
        <time>2024-11-10T15:34:21Z</time>
      </trkpt>
      <trkpt lat="42.28212" lon="3.27915">
        <ele>4.3</ele>
        <time>2024-11-10T15:34:22Z</time>
      </trkpt>
      <trkpt lat="42.28212" lon="3.27915">
        <ele>4.3</ele>
        <time>2024-11-10T15:34:23Z</time>
      </trkpt>
      <trkpt lat="42.28212" lon="3.27915">
        <ele>4.3</ele>
        <time>2024-11-10T15:34:24Z</time>
      </trkpt>
      <trkpt lat="42.28212" lon="3.27915">
        <ele>4.3</ele>
        <time>2024-11-10T15:34:25Z</time>
      </trkpt>
      <trkpt lat="42.28212" lon="3.27915">
        <ele>4.3</ele>
        <time>2024-11-10T15:34:26Z</time>
      </trkpt>
      <trkpt lat="42.28212" lon="3.27915">
        <ele>4.3</ele>
        <time>2024-11-10T15:34:27Z</time>
      </trkpt>
      <trkpt lat="42.28212" lon="3.27915">
        <ele>4.3</ele>
        <time>2024-11-10T15:34:28Z</time>
      </trkpt>
      <trkpt lat="42.28212" lon="3.27915">
        <ele>4.3</ele>
        <time>2024-11-10T15:34:29Z</time>
      </trkpt>
      <trkpt lat="42.28212" lon="3.27915">
        <ele>4.3</ele>
        <time>2024-11-10T15:34:30Z</time>
      </trkpt>
      <trkpt lat="42.28212" lon="3.27915">
        <ele>4.3</ele>
        <time>2024-11-10T15:34:31Z</time>
      </trkpt>
      <trkpt lat="42.28212" lon="3.27915">
        <ele>4.3</ele>
        <time>2024-11-10T15:34:32Z</time>
      </trkpt>
      <trkpt lat="42.28212" lon="3.27915">
        <ele>4.3</ele>
        <time>2024-11-10T15:34:33Z</time>
      </trkpt>
      <trkpt lat="42.28212" lon="3.27915">
        <ele>4.3</ele>
        <time>2024-11-10T15:34:34Z</time>
      </trkpt>
      <trkpt lat="42.28212" lon="3.27915">
        <ele>4.3</ele>
        <time>2024-11-10T15:34:35Z</time>
      </trkpt>
      <trkpt lat="42.28212" lon="3.27915">
        <ele>4.3</ele>
        <time>2024-11-10T15:34:36Z</time>
      </trkpt>
      <trkpt lat="42.28212" lon="3.27915">
        <ele>4.3</ele>
        <time>2024-11-10T15:34:37Z</time>
      </trkpt>
      <trkpt lat="42.28212" lon="3.27915">
        <ele>4.3</ele>
        <time>2024-11-10T15:34:38Z</time>
      </trkpt>
      <trkpt lat="42.28212" lon="3.27915">
        <ele>4.3</ele>
        <time>2024-11-10T15:34:39Z</time>
      </trkpt>
      <trkpt lat="42.28212" lon="3.27915">
        <ele>4.3</ele>
        <time>2024-11-10T15:34:40Z</time>
      </trkpt>
      <trkpt lat="42.28212" lon="3.27915">
        <ele>4.3</ele>
        <time>2024-11-10T15:34:41Z</time>
      </trkpt>
      <trkpt lat="42.28211" lon="3.27915">
        <ele>4.3</ele>
        <time>2024-11-10T15:34:42Z</time>
      </trkpt>
      <trkpt lat="42.28211" lon="3.27915">
        <ele>4.3</ele>
        <time>2024-11-10T15:34:43Z</time>
      </trkpt>
      <trkpt lat="42.2821" lon="3.27916">
        <ele>4.3</ele>
        <time>2024-11-10T15:34:44Z</time>
      </trkpt>
      <trkpt lat="42.2821" lon="3.27917">
        <ele>4.4</ele>
        <time>2024-11-10T15:34:45Z</time>
      </trkpt>
      <trkpt lat="42.28209" lon="3.27918">
        <ele>4.4</ele>
        <time>2024-11-10T15:34:46Z</time>
      </trkpt>
      <trkpt lat="42.28209" lon="3.27919">
        <ele>4.4</ele>
        <time>2024-11-10T15:34:47Z</time>
      </trkpt>
      <trkpt lat="42.28209" lon="3.27919">
        <ele>4.4</ele>
        <time>2024-11-10T15:34:48Z</time>
      </trkpt>
      <trkpt lat="42.2821" lon="3.27919">
        <ele>4.4</ele>
        <time>2024-11-10T15:34:49Z</time>
      </trkpt>
      <trkpt lat="42.2821" lon="3.27919">
        <ele>4.4</ele>
        <time>2024-11-10T15:34:50Z</time>
      </trkpt>
      <trkpt lat="42.2821" lon="3.2792">
        <ele>4.4</ele>
        <time>2024-11-10T15:34:51Z</time>
      </trkpt>
      <trkpt lat="42.2821" lon="3.2792">
        <ele>4.4</ele>
        <time>2024-11-10T15:34:52Z</time>
      </trkpt>
      <trkpt lat="42.2821" lon="3.27921">
        <ele>4.4</ele>
        <time>2024-11-10T15:34:53Z</time>
      </trkpt>
      <trkpt lat="42.2821" lon="3.27922">
        <ele>4.5</ele>
        <time>2024-11-10T15:34:54Z</time>
      </trkpt>
      <trkpt lat="42.2821" lon="3.27922">
        <ele>4.5</ele>
        <time>2024-11-10T15:34:55Z</time>
      </trkpt>
      <trkpt lat="42.2821" lon="3.27922">
        <ele>4.5</ele>
        <time>2024-11-10T15:34:56Z</time>
      </trkpt>
      <trkpt lat="42.2821" lon="3.27922">
        <ele>4.5</ele>
        <time>2024-11-10T15:34:57Z</time>
      </trkpt>
      <trkpt lat="42.2821" lon="3.27922">
        <ele>4.5</ele>
        <time>2024-11-10T15:34:58Z</time>
      </trkpt>
      <trkpt lat="42.2821" lon="3.27922">
        <ele>4.5</ele>
        <time>2024-11-10T15:34:59Z</time>
      </trkpt>
      <trkpt lat="42.2821" lon="3.27922">
        <ele>4.5</ele>
        <time>2024-11-10T15:35:00Z</time>
      </trkpt>
      <trkpt lat="42.2821" lon="3.27922">
        <ele>4.5</ele>
        <time>2024-11-10T15:35:01Z</time>
      </trkpt>
      <trkpt lat="42.2821" lon="3.27922">
        <ele>4.5</ele>
        <time>2024-11-10T15:35:02Z</time>
      </trkpt>
      <trkpt lat="42.2821" lon="3.27922">
        <ele>4.5</ele>
        <time>2024-11-10T15:35:03Z</time>
      </trkpt>
      <trkpt lat="42.2821" lon="3.27922">
        <ele>4.5</ele>
        <time>2024-11-10T15:35:04Z</time>
      </trkpt>
      <trkpt lat="42.2821" lon="3.27922">
        <ele>4.5</ele>
        <time>2024-11-10T15:35:05Z</time>
      </trkpt>
      <trkpt lat="42.2821" lon="3.27922">
        <ele>4.5</ele>
        <time>2024-11-10T15:35:06Z</time>
      </trkpt>
      <trkpt lat="42.2821" lon="3.27923">
        <ele>4.5</ele>
        <time>2024-11-10T15:35:07Z</time>
      </trkpt>
      <trkpt lat="42.2821" lon="3.27923">
        <ele>4.5</ele>
        <time>2024-11-10T15:35:08Z</time>
      </trkpt>
      <trkpt lat="42.2821" lon="3.27923">
        <ele>4.5</ele>
        <time>2024-11-10T15:35:09Z</time>
      </trkpt>
      <trkpt lat="42.2821" lon="3.27923">
        <ele>4.5</ele>
        <time>2024-11-10T15:35:10Z</time>
      </trkpt>
      <trkpt lat="42.2821" lon="3.27923">
        <ele>4.5</ele>
        <time>2024-11-10T15:35:11Z</time>
      </trkpt>
      <trkpt lat="42.2821" lon="3.27923">
        <ele>4.5</ele>
        <time>2024-11-10T15:35:12Z</time>
      </trkpt>
      <trkpt lat="42.2821" lon="3.27923">
        <ele>4.5</ele>
        <time>2024-11-10T15:35:13Z</time>
      </trkpt>
      <trkpt lat="42.2821" lon="3.27923">
        <ele>4.5</ele>
        <time>2024-11-10T15:35:14Z</time>
      </trkpt>
      <trkpt lat="42.2821" lon="3.27923">
        <ele>4.5</ele>
        <time>2024-11-10T15:35:15Z</time>
      </trkpt>
      <trkpt lat="42.2821" lon="3.27923">
        <ele>4.5</ele>
        <time>2024-11-10T15:35:16Z</time>
      </trkpt>
      <trkpt lat="42.2821" lon="3.27923">
        <ele>4.5</ele>
        <time>2024-11-10T15:35:17Z</time>
      </trkpt>
      <trkpt lat="42.28211" lon="3.27923">
        <ele>4.5</ele>
        <time>2024-11-10T15:35:18Z</time>
      </trkpt>
      <trkpt lat="42.28211" lon="3.27923">
        <ele>4.5</ele>
        <time>2024-11-10T15:35:19Z</time>
      </trkpt>
      <trkpt lat="42.28211" lon="3.27923">
        <ele>4.5</ele>
        <time>2024-11-10T15:35:20Z</time>
      </trkpt>
      <trkpt lat="42.28211" lon="3.27923">
        <ele>4.5</ele>
        <time>2024-11-10T15:35:21Z</time>
      </trkpt>
      <trkpt lat="42.28211" lon="3.27923">
        <ele>4.5</ele>
        <time>2024-11-10T15:35:22Z</time>
      </trkpt>
      <trkpt lat="42.28211" lon="3.27923">
        <ele>4.5</ele>
        <time>2024-11-10T15:35:23Z</time>
      </trkpt>
      <trkpt lat="42.28211" lon="3.27923">
        <ele>4.5</ele>
        <time>2024-11-10T15:35:24Z</time>
      </trkpt>
      <trkpt lat="42.28211" lon="3.27923">
        <ele>4.5</ele>
        <time>2024-11-10T15:35:25Z</time>
      </trkpt>
      <trkpt lat="42.28211" lon="3.27923">
        <ele>4.5</ele>
        <time>2024-11-10T15:35:26Z</time>
      </trkpt>
      <trkpt lat="42.28211" lon="3.27924">
        <ele>4.5</ele>
        <time>2024-11-10T15:35:27Z</time>
      </trkpt>
      <trkpt lat="42.28211" lon="3.27924">
        <ele>4.5</ele>
        <time>2024-11-10T15:35:28Z</time>
      </trkpt>
      <trkpt lat="42.28211" lon="3.27924">
        <ele>4.5</ele>
        <time>2024-11-10T15:35:29Z</time>
      </trkpt>
      <trkpt lat="42.28211" lon="3.27924">
        <ele>4.5</ele>
        <time>2024-11-10T15:35:30Z</time>
      </trkpt>
      <trkpt lat="42.28211" lon="3.27924">
        <ele>4.5</ele>
        <time>2024-11-10T15:35:31Z</time>
      </trkpt>
      <trkpt lat="42.28211" lon="3.27924">
        <ele>4.5</ele>
        <time>2024-11-10T15:35:32Z</time>
      </trkpt>
      <trkpt lat="42.28211" lon="3.27924">
        <ele>4.5</ele>
        <time>2024-11-10T15:35:33Z</time>
      </trkpt>
      <trkpt lat="42.28211" lon="3.27924">
        <ele>4.5</ele>
        <time>2024-11-10T15:35:34Z</time>
      </trkpt>
      <trkpt lat="42.28211" lon="3.27924">
        <ele>4.5</ele>
        <time>2024-11-10T15:35:35Z</time>
      </trkpt>
      <trkpt lat="42.28211" lon="3.27924">
        <ele>4.5</ele>
        <time>2024-11-10T15:35:36Z</time>
      </trkpt>
      <trkpt lat="42.28211" lon="3.27924">
        <ele>4.5</ele>
        <time>2024-11-10T15:35:37Z</time>
      </trkpt>
      <trkpt lat="42.28211" lon="3.27924">
        <ele>4.5</ele>
        <time>2024-11-10T15:35:38Z</time>
      </trkpt>
      <trkpt lat="42.28211" lon="3.27924">
        <ele>4.5</ele>
        <time>2024-11-10T15:35:39Z</time>
      </trkpt>
      <trkpt lat="42.28211" lon="3.27924">
        <ele>4.5</ele>
        <time>2024-11-10T15:35:40Z</time>
      </trkpt>
      <trkpt lat="42.28211" lon="3.27924">
        <ele>4.5</ele>
        <time>2024-11-10T15:35:41Z</time>
      </trkpt>
      <trkpt lat="42.28211" lon="3.27924">
        <ele>4.5</ele>
        <time>2024-11-10T15:35:42Z</time>
      </trkpt>
      <trkpt lat="42.28211" lon="3.27924">
        <ele>4.5</ele>
        <time>2024-11-10T15:35:43Z</time>
      </trkpt>
      <trkpt lat="42.28211" lon="3.27924">
        <ele>4.5</ele>
        <time>2024-11-10T15:35:44Z</time>
      </trkpt>
      <trkpt lat="42.28211" lon="3.27924">
        <ele>4.5</ele>
        <time>2024-11-10T15:35:45Z</time>
      </trkpt>
      <trkpt lat="42.28211" lon="3.27924">
        <ele>4.5</ele>
        <time>2024-11-10T15:35:46Z</time>
      </trkpt>
      <trkpt lat="42.28211" lon="3.27925">
        <ele>4.5</ele>
        <time>2024-11-10T15:35:47Z</time>
      </trkpt>
      <trkpt lat="42.28211" lon="3.27925">
        <ele>4.5</ele>
        <time>2024-11-10T15:35:48Z</time>
      </trkpt>
      <trkpt lat="42.28211" lon="3.27925">
        <ele>4.5</ele>
        <time>2024-11-10T15:35:49Z</time>
      </trkpt>
      <trkpt lat="42.28211" lon="3.27925">
        <ele>4.5</ele>
        <time>2024-11-10T15:35:50Z</time>
      </trkpt>
      <trkpt lat="42.28211" lon="3.27925">
        <ele>4.6</ele>
        <time>2024-11-10T15:35:51Z</time>
      </trkpt>
      <trkpt lat="42.28211" lon="3.27925">
        <ele>4.6</ele>
        <time>2024-11-10T15:35:52Z</time>
      </trkpt>
      <trkpt lat="42.28211" lon="3.27925">
        <ele>4.6</ele>
        <time>2024-11-10T15:35:53Z</time>
      </trkpt>
      <trkpt lat="42.28211" lon="3.27925">
        <ele>4.6</ele>
        <time>2024-11-10T15:35:54Z</time>
      </trkpt>
      <trkpt lat="42.28211" lon="3.27925">
        <ele>4.6</ele>
        <time>2024-11-10T15:35:55Z</time>
      </trkpt>
      <trkpt lat="42.28211" lon="3.27925">
        <ele>4.6</ele>
        <time>2024-11-10T15:35:56Z</time>
      </trkpt>
      <trkpt lat="42.28211" lon="3.27925">
        <ele>4.6</ele>
        <time>2024-11-10T15:35:57Z</time>
      </trkpt>
      <trkpt lat="42.28212" lon="3.27925">
        <ele>4.6</ele>
        <time>2024-11-10T15:35:58Z</time>
      </trkpt>
      <trkpt lat="42.28212" lon="3.27925">
        <ele>4.6</ele>
        <time>2024-11-10T15:35:59Z</time>
      </trkpt>
      <trkpt lat="42.28212" lon="3.27925">
        <ele>4.6</ele>
        <time>2024-11-10T15:36:00Z</time>
      </trkpt>
      <trkpt lat="42.28212" lon="3.27925">
        <ele>4.6</ele>
        <time>2024-11-10T15:36:01Z</time>
      </trkpt>
      <trkpt lat="42.28212" lon="3.27925">
        <ele>4.6</ele>
        <time>2024-11-10T15:36:02Z</time>
      </trkpt>
      <trkpt lat="42.28212" lon="3.27925">
        <ele>4.6</ele>
        <time>2024-11-10T15:36:03Z</time>
      </trkpt>
      <trkpt lat="42.28212" lon="3.27925">
        <ele>4.6</ele>
        <time>2024-11-10T15:36:04Z</time>
      </trkpt>
      <trkpt lat="42.28212" lon="3.27925">
        <ele>4.6</ele>
        <time>2024-11-10T15:36:05Z</time>
      </trkpt>
      <trkpt lat="42.28212" lon="3.27925">
        <ele>4.6</ele>
        <time>2024-11-10T15:36:06Z</time>
      </trkpt>
      <trkpt lat="42.28212" lon="3.27926">
        <ele>4.6</ele>
        <time>2024-11-10T15:36:07Z</time>
      </trkpt>
      <trkpt lat="42.28212" lon="3.27926">
        <ele>4.6</ele>
        <time>2024-11-10T15:36:08Z</time>
      </trkpt>
      <trkpt lat="42.28212" lon="3.27926">
        <ele>4.6</ele>
        <time>2024-11-10T15:36:09Z</time>
      </trkpt>
      <trkpt lat="42.28212" lon="3.27926">
        <ele>4.6</ele>
        <time>2024-11-10T15:36:10Z</time>
      </trkpt>
      <trkpt lat="42.28212" lon="3.27926">
        <ele>4.6</ele>
        <time>2024-11-10T15:36:11Z</time>
      </trkpt>
      <trkpt lat="42.28212" lon="3.27926">
        <ele>4.6</ele>
        <time>2024-11-10T15:36:12Z</time>
      </trkpt>
      <trkpt lat="42.28212" lon="3.27926">
        <ele>4.6</ele>
        <time>2024-11-10T15:36:13Z</time>
      </trkpt>
      <trkpt lat="42.28212" lon="3.27926">
        <ele>4.6</ele>
        <time>2024-11-10T15:36:14Z</time>
      </trkpt>
      <trkpt lat="42.28212" lon="3.27926">
        <ele>4.6</ele>
        <time>2024-11-10T15:36:15Z</time>
      </trkpt>
      <trkpt lat="42.28212" lon="3.27926">
        <ele>4.6</ele>
        <time>2024-11-10T15:36:16Z</time>
      </trkpt>
      <trkpt lat="42.28212" lon="3.27926">
        <ele>4.6</ele>
        <time>2024-11-10T15:36:17Z</time>
      </trkpt>
      <trkpt lat="42.28212" lon="3.27926">
        <ele>4.6</ele>
        <time>2024-11-10T15:36:18Z</time>
      </trkpt>
      <trkpt lat="42.28212" lon="3.27926">
        <ele>4.6</ele>
        <time>2024-11-10T15:36:19Z</time>
      </trkpt>
      <trkpt lat="42.28212" lon="3.27926">
        <ele>4.6</ele>
        <time>2024-11-10T15:36:20Z</time>
      </trkpt>
      <trkpt lat="42.28213" lon="3.27927">
        <ele>4.6</ele>
        <time>2024-11-10T15:36:21Z</time>
      </trkpt>
      <trkpt lat="42.28214" lon="3.27928">
        <ele>4.6</ele>
        <time>2024-11-10T15:36:22Z</time>
      </trkpt>
      <trkpt lat="42.28214" lon="3.27928">
        <ele>4.6</ele>
        <time>2024-11-10T15:36:23Z</time>
      </trkpt>
      <trkpt lat="42.28214" lon="3.27929">
        <ele>4.6</ele>
        <time>2024-11-10T15:36:24Z</time>
      </trkpt>
      <trkpt lat="42.28216" lon="3.27928">
        <ele>4.7</ele>
        <time>2024-11-10T15:36:25Z</time>
      </trkpt>
      <trkpt lat="42.28217" lon="3.27927">
        <ele>4.7</ele>
        <time>2024-11-10T15:36:26Z</time>
      </trkpt>
      <trkpt lat="42.28218" lon="3.27927">
        <ele>4.7</ele>
        <time>2024-11-10T15:36:27Z</time>
      </trkpt>
      <trkpt lat="42.28219" lon="3.27926">
        <ele>4.7</ele>
        <time>2024-11-10T15:36:28Z</time>
      </trkpt>
      <trkpt lat="42.2822" lon="3.27924">
        <ele>4.8</ele>
        <time>2024-11-10T15:36:29Z</time>
      </trkpt>
      <trkpt lat="42.2822" lon="3.27924">
        <ele>4.8</ele>
        <time>2024-11-10T15:36:30Z</time>
      </trkpt>
      <trkpt lat="42.28221" lon="3.27923">
        <ele>4.8</ele>
        <time>2024-11-10T15:36:31Z</time>
      </trkpt>
      <trkpt lat="42.28222" lon="3.27922">
        <ele>4.8</ele>
        <time>2024-11-10T15:36:32Z</time>
      </trkpt>
      <trkpt lat="42.28223" lon="3.27921">
        <ele>4.8</ele>
        <time>2024-11-10T15:36:33Z</time>
      </trkpt>
      <trkpt lat="42.28224" lon="3.2792">
        <ele>4.8</ele>
        <time>2024-11-10T15:36:34Z</time>
      </trkpt>
      <trkpt lat="42.28224" lon="3.27919">
        <ele>4.8</ele>
        <time>2024-11-10T15:36:35Z</time>
      </trkpt>
      <trkpt lat="42.28225" lon="3.27919">
        <ele>4.9</ele>
        <time>2024-11-10T15:36:36Z</time>
      </trkpt>
      <trkpt lat="42.28226" lon="3.27918">
        <ele>4.9</ele>
        <time>2024-11-10T15:36:37Z</time>
      </trkpt>
      <trkpt lat="42.28226" lon="3.27917">
        <ele>4.9</ele>
        <time>2024-11-10T15:36:38Z</time>
      </trkpt>
      <trkpt lat="42.28227" lon="3.27916">
        <ele>4.9</ele>
        <time>2024-11-10T15:36:39Z</time>
      </trkpt>
      <trkpt lat="42.28227" lon="3.27915">
        <ele>4.9</ele>
        <time>2024-11-10T15:36:40Z</time>
      </trkpt>
      <trkpt lat="42.28228" lon="3.27915">
        <ele>4.9</ele>
        <time>2024-11-10T15:36:41Z</time>
      </trkpt>
      <trkpt lat="42.28229" lon="3.27914">
        <ele>4.9</ele>
        <time>2024-11-10T15:36:42Z</time>
      </trkpt>
      <trkpt lat="42.28229" lon="3.27913">
        <ele>4.9</ele>
        <time>2024-11-10T15:36:43Z</time>
      </trkpt>
      <trkpt lat="42.28229" lon="3.27912">
        <ele>5</ele>
        <time>2024-11-10T15:36:44Z</time>
      </trkpt>
      <trkpt lat="42.28229" lon="3.27911">
        <ele>5</ele>
        <time>2024-11-10T15:36:45Z</time>
      </trkpt>
      <trkpt lat="42.2823" lon="3.2791">
        <ele>5</ele>
        <time>2024-11-10T15:36:46Z</time>
      </trkpt>
      <trkpt lat="42.2823" lon="3.2791">
        <ele>5</ele>
        <time>2024-11-10T15:36:47Z</time>
      </trkpt>
      <trkpt lat="42.28231" lon="3.27909">
        <ele>5</ele>
        <time>2024-11-10T15:36:48Z</time>
      </trkpt>
      <trkpt lat="42.28232" lon="3.27909">
        <ele>5</ele>
        <time>2024-11-10T15:36:49Z</time>
      </trkpt>
      <trkpt lat="42.28232" lon="3.27908">
        <ele>5</ele>
        <time>2024-11-10T15:36:50Z</time>
      </trkpt>
      <trkpt lat="42.28232" lon="3.27907">
        <ele>5</ele>
        <time>2024-11-10T15:36:51Z</time>
      </trkpt>
      <trkpt lat="42.28233" lon="3.27907">
        <ele>5</ele>
        <time>2024-11-10T15:36:52Z</time>
      </trkpt>
      <trkpt lat="42.28233" lon="3.27906">
        <ele>5</ele>
        <time>2024-11-10T15:36:53Z</time>
      </trkpt>
      <trkpt lat="42.28233" lon="3.27906">
        <ele>5</ele>
        <time>2024-11-10T15:36:54Z</time>
      </trkpt>
      <trkpt lat="42.28234" lon="3.27906">
        <ele>5</ele>
        <time>2024-11-10T15:36:55Z</time>
      </trkpt>
      <trkpt lat="42.28235" lon="3.27905">
        <ele>5</ele>
        <time>2024-11-10T15:36:56Z</time>
      </trkpt>
      <trkpt lat="42.28235" lon="3.27904">
        <ele>5.1</ele>
        <time>2024-11-10T15:36:57Z</time>
      </trkpt>
      <trkpt lat="42.28235" lon="3.27903">
        <ele>5.1</ele>
        <time>2024-11-10T15:36:58Z</time>
      </trkpt>
      <trkpt lat="42.28235" lon="3.279">
        <ele>5.1</ele>
        <time>2024-11-10T15:36:59Z</time>
      </trkpt>
      <trkpt lat="42.28235" lon="3.27899">
        <ele>5.1</ele>
        <time>2024-11-10T15:37:00Z</time>
      </trkpt>
      <trkpt lat="42.28235" lon="3.27898">
        <ele>5.1</ele>
        <time>2024-11-10T15:37:01Z</time>
      </trkpt>
      <trkpt lat="42.28234" lon="3.27897">
        <ele>5.1</ele>
        <time>2024-11-10T15:37:02Z</time>
      </trkpt>
      <trkpt lat="42.28234" lon="3.27895">
        <ele>5.1</ele>
        <time>2024-11-10T15:37:03Z</time>
      </trkpt>
      <trkpt lat="42.28232" lon="3.27894">
        <ele>5.2</ele>
        <time>2024-11-10T15:37:04Z</time>
      </trkpt>
      <trkpt lat="42.28231" lon="3.27893">
        <ele>5.2</ele>
        <time>2024-11-10T15:37:05Z</time>
      </trkpt>
      <trkpt lat="42.2823" lon="3.27892">
        <ele>5.2</ele>
        <time>2024-11-10T15:37:06Z</time>
      </trkpt>
      <trkpt lat="42.28229" lon="3.27892">
        <ele>5.2</ele>
        <time>2024-11-10T15:37:07Z</time>
      </trkpt>
      <trkpt lat="42.28228" lon="3.27891">
        <ele>5.2</ele>
        <time>2024-11-10T15:37:08Z</time>
      </trkpt>
      <trkpt lat="42.28226" lon="3.27892">
        <ele>5.3</ele>
        <time>2024-11-10T15:37:09Z</time>
      </trkpt>
      <trkpt lat="42.28225" lon="3.27892">
        <ele>5.3</ele>
        <time>2024-11-10T15:37:10Z</time>
      </trkpt>
      <trkpt lat="42.28224" lon="3.27892">
        <ele>5.3</ele>
        <time>2024-11-10T15:37:11Z</time>
      </trkpt>
      <trkpt lat="42.28223" lon="3.27893">
        <ele>5.3</ele>
        <time>2024-11-10T15:37:12Z</time>
      </trkpt>
      <trkpt lat="42.28223" lon="3.27893">
        <ele>5.3</ele>
        <time>2024-11-10T15:37:13Z</time>
      </trkpt>
      <trkpt lat="42.28222" lon="3.27894">
        <ele>5.4</ele>
        <time>2024-11-10T15:37:14Z</time>
      </trkpt>
      <trkpt lat="42.28221" lon="3.27895">
        <ele>5.4</ele>
        <time>2024-11-10T15:37:15Z</time>
      </trkpt>
      <trkpt lat="42.2822" lon="3.27895">
        <ele>5.4</ele>
        <time>2024-11-10T15:37:16Z</time>
      </trkpt>
      <trkpt lat="42.28219" lon="3.27896">
        <ele>5.4</ele>
        <time>2024-11-10T15:37:17Z</time>
      </trkpt>
      <trkpt lat="42.28218" lon="3.27896">
        <ele>5.5</ele>
        <time>2024-11-10T15:37:18Z</time>
      </trkpt>
      <trkpt lat="42.28217" lon="3.27897">
        <ele>5.5</ele>
        <time>2024-11-10T15:37:19Z</time>
      </trkpt>
      <trkpt lat="42.28217" lon="3.27897">
        <ele>5.5</ele>
        <time>2024-11-10T15:37:20Z</time>
      </trkpt>
      <trkpt lat="42.28216" lon="3.27897">
        <ele>5.5</ele>
        <time>2024-11-10T15:37:21Z</time>
      </trkpt>
      <trkpt lat="42.28215" lon="3.27898">
        <ele>5.6</ele>
        <time>2024-11-10T15:37:22Z</time>
      </trkpt>
      <trkpt lat="42.28214" lon="3.27898">
        <ele>5.6</ele>
        <time>2024-11-10T15:37:23Z</time>
      </trkpt>
      <trkpt lat="42.28212" lon="3.27899">
        <ele>5.6</ele>
        <time>2024-11-10T15:37:24Z</time>
      </trkpt>
      <trkpt lat="42.28212" lon="3.279">
        <ele>5.6</ele>
        <time>2024-11-10T15:37:25Z</time>
      </trkpt>
      <trkpt lat="42.28211" lon="3.279">
        <ele>5.6</ele>
        <time>2024-11-10T15:37:26Z</time>
      </trkpt>
      <trkpt lat="42.2821" lon="3.279">
        <ele>5.7</ele>
        <time>2024-11-10T15:37:27Z</time>
      </trkpt>
      <trkpt lat="42.2821" lon="3.279">
        <ele>5.7</ele>
        <time>2024-11-10T15:37:28Z</time>
      </trkpt>
      <trkpt lat="42.28209" lon="3.279">
        <ele>5.7</ele>
        <time>2024-11-10T15:37:29Z</time>
      </trkpt>
      <trkpt lat="42.28208" lon="3.27901">
        <ele>5.8</ele>
        <time>2024-11-10T15:37:30Z</time>
      </trkpt>
      <trkpt lat="42.28207" lon="3.27901">
        <ele>5.8</ele>
        <time>2024-11-10T15:37:31Z</time>
      </trkpt>
      <trkpt lat="42.28206" lon="3.27902">
        <ele>5.8</ele>
        <time>2024-11-10T15:37:32Z</time>
      </trkpt>
      <trkpt lat="42.28205" lon="3.27903">
        <ele>5.9</ele>
        <time>2024-11-10T15:37:33Z</time>
      </trkpt>
      <trkpt lat="42.28205" lon="3.27903">
        <ele>5.9</ele>
        <time>2024-11-10T15:37:34Z</time>
      </trkpt>
      <trkpt lat="42.28204" lon="3.27904">
        <ele>5.9</ele>
        <time>2024-11-10T15:37:35Z</time>
      </trkpt>
      <trkpt lat="42.28204" lon="3.27905">
        <ele>5.9</ele>
        <time>2024-11-10T15:37:36Z</time>
      </trkpt>
      <trkpt lat="42.28203" lon="3.27905">
        <ele>6</ele>
        <time>2024-11-10T15:37:37Z</time>
      </trkpt>
      <trkpt lat="42.28202" lon="3.27906">
        <ele>6</ele>
        <time>2024-11-10T15:37:38Z</time>
      </trkpt>
      <trkpt lat="42.28202" lon="3.27905">
        <ele>6</ele>
        <time>2024-11-10T15:37:39Z</time>
      </trkpt>
      <trkpt lat="42.28201" lon="3.27905">
        <ele>6.1</ele>
        <time>2024-11-10T15:37:40Z</time>
      </trkpt>
      <trkpt lat="42.282" lon="3.27904">
        <ele>6.1</ele>
        <time>2024-11-10T15:37:41Z</time>
      </trkpt>
      <trkpt lat="42.28199" lon="3.27903">
        <ele>6.1</ele>
        <time>2024-11-10T15:37:42Z</time>
      </trkpt>
      <trkpt lat="42.28199" lon="3.27902">
        <ele>6.1</ele>
        <time>2024-11-10T15:37:43Z</time>
      </trkpt>
      <trkpt lat="42.28198" lon="3.27901">
        <ele>6.1</ele>
        <time>2024-11-10T15:37:44Z</time>
      </trkpt>
      <trkpt lat="42.28198" lon="3.279">
        <ele>6.1</ele>
        <time>2024-11-10T15:37:45Z</time>
      </trkpt>
      <trkpt lat="42.28197" lon="3.279">
        <ele>6.1</ele>
        <time>2024-11-10T15:37:46Z</time>
      </trkpt>
      <trkpt lat="42.28196" lon="3.27899">
        <ele>6</ele>
        <time>2024-11-10T15:37:47Z</time>
      </trkpt>
      <trkpt lat="42.28196" lon="3.27898">
        <ele>6</ele>
        <time>2024-11-10T15:37:48Z</time>
      </trkpt>
      <trkpt lat="42.28194" lon="3.27897">
        <ele>6</ele>
        <time>2024-11-10T15:37:49Z</time>
      </trkpt>
      <trkpt lat="42.28194" lon="3.27897">
        <ele>6</ele>
        <time>2024-11-10T15:37:50Z</time>
      </trkpt>
      <trkpt lat="42.28193" lon="3.27896">
        <ele>5.9</ele>
        <time>2024-11-10T15:37:51Z</time>
      </trkpt>
      <trkpt lat="42.28192" lon="3.27896">
        <ele>5.9</ele>
        <time>2024-11-10T15:37:52Z</time>
      </trkpt>
      <trkpt lat="42.28192" lon="3.27895">
        <ele>5.9</ele>
        <time>2024-11-10T15:37:53Z</time>
      </trkpt>
      <trkpt lat="42.28191" lon="3.27894">
        <ele>5.9</ele>
        <time>2024-11-10T15:37:54Z</time>
      </trkpt>
      <trkpt lat="42.2819" lon="3.27893">
        <ele>5.8</ele>
        <time>2024-11-10T15:37:55Z</time>
      </trkpt>
      <trkpt lat="42.2819" lon="3.27894">
        <ele>5.8</ele>
        <time>2024-11-10T15:37:56Z</time>
      </trkpt>
      <trkpt lat="42.2819" lon="3.27894">
        <ele>5.8</ele>
        <time>2024-11-10T15:37:57Z</time>
      </trkpt>
      <trkpt lat="42.28191" lon="3.27894">
        <ele>5.8</ele>
        <time>2024-11-10T15:37:58Z</time>
      </trkpt>
      <trkpt lat="42.2819" lon="3.27894">
        <ele>5.8</ele>
        <time>2024-11-10T15:37:59Z</time>
      </trkpt>
      <trkpt lat="42.28189" lon="3.27893">
        <ele>5.8</ele>
        <time>2024-11-10T15:38:00Z</time>
      </trkpt>
      <trkpt lat="42.28188" lon="3.27892">
        <ele>5.7</ele>
        <time>2024-11-10T15:38:01Z</time>
      </trkpt>
      <trkpt lat="42.28187" lon="3.2789">
        <ele>5.7</ele>
        <time>2024-11-10T15:38:02Z</time>
      </trkpt>
      <trkpt lat="42.28186" lon="3.2789">
        <ele>5.7</ele>
        <time>2024-11-10T15:38:03Z</time>
      </trkpt>
      <trkpt lat="42.28185" lon="3.27889">
        <ele>5.6</ele>
        <time>2024-11-10T15:38:04Z</time>
      </trkpt>
      <trkpt lat="42.28184" lon="3.27888">
        <ele>5.6</ele>
        <time>2024-11-10T15:38:05Z</time>
      </trkpt>
      <trkpt lat="42.28184" lon="3.27887">
        <ele>5.6</ele>
        <time>2024-11-10T15:38:06Z</time>
      </trkpt>
      <trkpt lat="42.28183" lon="3.27887">
        <ele>5.6</ele>
        <time>2024-11-10T15:38:07Z</time>
      </trkpt>
      <trkpt lat="42.28182" lon="3.27886">
        <ele>5.5</ele>
        <time>2024-11-10T15:38:08Z</time>
      </trkpt>
      <trkpt lat="42.2818" lon="3.27885">
        <ele>5.5</ele>
        <time>2024-11-10T15:38:09Z</time>
      </trkpt>
      <trkpt lat="42.28179" lon="3.27885">
        <ele>5.5</ele>
        <time>2024-11-10T15:38:10Z</time>
      </trkpt>
      <trkpt lat="42.28179" lon="3.27886">
        <ele>5.4</ele>
        <time>2024-11-10T15:38:11Z</time>
      </trkpt>
      <trkpt lat="42.28178" lon="3.27887">
        <ele>5.4</ele>
        <time>2024-11-10T15:38:12Z</time>
      </trkpt>
      <trkpt lat="42.28178" lon="3.27888">
        <ele>5.3</ele>
        <time>2024-11-10T15:38:13Z</time>
      </trkpt>
      <trkpt lat="42.28178" lon="3.27888">
        <ele>5.3</ele>
        <time>2024-11-10T15:38:14Z</time>
      </trkpt>
      <trkpt lat="42.28178" lon="3.27888">
        <ele>5.3</ele>
        <time>2024-11-10T15:38:15Z</time>
      </trkpt>
      <trkpt lat="42.28178" lon="3.27887">
        <ele>5.3</ele>
        <time>2024-11-10T15:38:16Z</time>
      </trkpt>
      <trkpt lat="42.28178" lon="3.27887">
        <ele>5.3</ele>
        <time>2024-11-10T15:38:17Z</time>
      </trkpt>
      <trkpt lat="42.28179" lon="3.27887">
        <ele>5.3</ele>
        <time>2024-11-10T15:38:18Z</time>
      </trkpt>
      <trkpt lat="42.28179" lon="3.27887">
        <ele>5.3</ele>
        <time>2024-11-10T15:38:19Z</time>
      </trkpt>
      <trkpt lat="42.28179" lon="3.27887">
        <ele>5.2</ele>
        <time>2024-11-10T15:38:20Z</time>
      </trkpt>
      <trkpt lat="42.28179" lon="3.27887">
        <ele>5.2</ele>
        <time>2024-11-10T15:38:21Z</time>
      </trkpt>
      <trkpt lat="42.28179" lon="3.27887">
        <ele>5.2</ele>
        <time>2024-11-10T15:38:22Z</time>
      </trkpt>
      <trkpt lat="42.2818" lon="3.27887">
        <ele>5.2</ele>
        <time>2024-11-10T15:38:23Z</time>
      </trkpt>
      <trkpt lat="42.2818" lon="3.27887">
        <ele>5.2</ele>
        <time>2024-11-10T15:38:24Z</time>
      </trkpt>
      <trkpt lat="42.2818" lon="3.27886">
        <ele>5.2</ele>
        <time>2024-11-10T15:38:25Z</time>
      </trkpt>
      <trkpt lat="42.2818" lon="3.27886">
        <ele>5.2</ele>
        <time>2024-11-10T15:38:26Z</time>
      </trkpt>
      <trkpt lat="42.2818" lon="3.27886">
        <ele>5.2</ele>
        <time>2024-11-10T15:38:27Z</time>
      </trkpt>
      <trkpt lat="42.2818" lon="3.27886">
        <ele>5.1</ele>
        <time>2024-11-10T15:38:28Z</time>
      </trkpt>
      <trkpt lat="42.28181" lon="3.27886">
        <ele>5.1</ele>
        <time>2024-11-10T15:38:29Z</time>
      </trkpt>
      <trkpt lat="42.28181" lon="3.27886">
        <ele>5.1</ele>
        <time>2024-11-10T15:38:30Z</time>
      </trkpt>
      <trkpt lat="42.28181" lon="3.27886">
        <ele>5.1</ele>
        <time>2024-11-10T15:38:31Z</time>
      </trkpt>
      <trkpt lat="42.28181" lon="3.27886">
        <ele>5.1</ele>
        <time>2024-11-10T15:38:32Z</time>
      </trkpt>
      <trkpt lat="42.28181" lon="3.27886">
        <ele>5.1</ele>
        <time>2024-11-10T15:38:33Z</time>
      </trkpt>
      <trkpt lat="42.28182" lon="3.27885">
        <ele>5.1</ele>
        <time>2024-11-10T15:38:34Z</time>
      </trkpt>
      <trkpt lat="42.28182" lon="3.27885">
        <ele>5.1</ele>
        <time>2024-11-10T15:38:35Z</time>
      </trkpt>
      <trkpt lat="42.28184" lon="3.27885">
        <ele>5</ele>
        <time>2024-11-10T15:38:36Z</time>
      </trkpt>
      <trkpt lat="42.28185" lon="3.27885">
        <ele>4.9</ele>
        <time>2024-11-10T15:38:37Z</time>
      </trkpt>
      <trkpt lat="42.28186" lon="3.27885">
        <ele>4.9</ele>
        <time>2024-11-10T15:38:38Z</time>
      </trkpt>
      <trkpt lat="42.28186" lon="3.27884">
        <ele>4.8</ele>
        <time>2024-11-10T15:38:39Z</time>
      </trkpt>
      <trkpt lat="42.28187" lon="3.27883">
        <ele>4.8</ele>
        <time>2024-11-10T15:38:40Z</time>
      </trkpt>
      <trkpt lat="42.28187" lon="3.27882">
        <ele>4.8</ele>
        <time>2024-11-10T15:38:41Z</time>
      </trkpt>
      <trkpt lat="42.28188" lon="3.27882">
        <ele>4.8</ele>
        <time>2024-11-10T15:38:42Z</time>
      </trkpt>
      <trkpt lat="42.28189" lon="3.27881">
        <ele>4.7</ele>
        <time>2024-11-10T15:38:43Z</time>
      </trkpt>
      <trkpt lat="42.28189" lon="3.2788">
        <ele>4.7</ele>
        <time>2024-11-10T15:38:44Z</time>
      </trkpt>
      <trkpt lat="42.28189" lon="3.27879">
        <ele>4.7</ele>
        <time>2024-11-10T15:38:45Z</time>
      </trkpt>
      <trkpt lat="42.2819" lon="3.27878">
        <ele>4.7</ele>
        <time>2024-11-10T15:38:46Z</time>
      </trkpt>
      <trkpt lat="42.28189" lon="3.27876">
        <ele>4.6</ele>
        <time>2024-11-10T15:38:47Z</time>
      </trkpt>
      <trkpt lat="42.28189" lon="3.27875">
        <ele>4.6</ele>
        <time>2024-11-10T15:38:48Z</time>
      </trkpt>
      <trkpt lat="42.28189" lon="3.27874">
        <ele>4.6</ele>
        <time>2024-11-10T15:38:49Z</time>
      </trkpt>
      <trkpt lat="42.2819" lon="3.27873">
        <ele>4.6</ele>
        <time>2024-11-10T15:38:50Z</time>
      </trkpt>
      <trkpt lat="42.2819" lon="3.27872">
        <ele>4.6</ele>
        <time>2024-11-10T15:38:51Z</time>
      </trkpt>
      <trkpt lat="42.2819" lon="3.2787">
        <ele>4.6</ele>
        <time>2024-11-10T15:38:52Z</time>
      </trkpt>
      <trkpt lat="42.2819" lon="3.27869">
        <ele>4.6</ele>
        <time>2024-11-10T15:38:53Z</time>
      </trkpt>
      <trkpt lat="42.2819" lon="3.27867">
        <ele>4.5</ele>
        <time>2024-11-10T15:38:54Z</time>
      </trkpt>
      <trkpt lat="42.2819" lon="3.27866">
        <ele>4.5</ele>
        <time>2024-11-10T15:38:55Z</time>
      </trkpt>
      <trkpt lat="42.2819" lon="3.27865">
        <ele>4.5</ele>
        <time>2024-11-10T15:38:56Z</time>
      </trkpt>
      <trkpt lat="42.2819" lon="3.27864">
        <ele>4.5</ele>
        <time>2024-11-10T15:38:57Z</time>
      </trkpt>
      <trkpt lat="42.2819" lon="3.27862">
        <ele>4.5</ele>
        <time>2024-11-10T15:38:58Z</time>
      </trkpt>
      <trkpt lat="42.2819" lon="3.27861">
        <ele>4.5</ele>
        <time>2024-11-10T15:38:59Z</time>
      </trkpt>
      <trkpt lat="42.28191" lon="3.27861">
        <ele>4.5</ele>
        <time>2024-11-10T15:39:00Z</time>
      </trkpt>
      <trkpt lat="42.28191" lon="3.2786">
        <ele>4.5</ele>
        <time>2024-11-10T15:39:01Z</time>
      </trkpt>
      <trkpt lat="42.28192" lon="3.2786">
        <ele>4.5</ele>
        <time>2024-11-10T15:39:02Z</time>
      </trkpt>
      <trkpt lat="42.28193" lon="3.2786">
        <ele>4.5</ele>
        <time>2024-11-10T15:39:03Z</time>
      </trkpt>
      <trkpt lat="42.28194" lon="3.2786">
        <ele>4.5</ele>
        <time>2024-11-10T15:39:04Z</time>
      </trkpt>
      <trkpt lat="42.28194" lon="3.27859">
        <ele>4.5</ele>
        <time>2024-11-10T15:39:05Z</time>
      </trkpt>
      <trkpt lat="42.28195" lon="3.27859">
        <ele>4.5</ele>
        <time>2024-11-10T15:39:06Z</time>
      </trkpt>
      <trkpt lat="42.28196" lon="3.27859">
        <ele>4.5</ele>
        <time>2024-11-10T15:39:07Z</time>
      </trkpt>
      <trkpt lat="42.28197" lon="3.27858">
        <ele>4.6</ele>
        <time>2024-11-10T15:39:08Z</time>
      </trkpt>
      <trkpt lat="42.28198" lon="3.27857">
        <ele>4.6</ele>
        <time>2024-11-10T15:39:09Z</time>
      </trkpt>
      <trkpt lat="42.28199" lon="3.27856">
        <ele>4.6</ele>
        <time>2024-11-10T15:39:10Z</time>
      </trkpt>
      <trkpt lat="42.282" lon="3.27856">
        <ele>4.6</ele>
        <time>2024-11-10T15:39:11Z</time>
      </trkpt>
      <trkpt lat="42.28201" lon="3.27855">
        <ele>4.6</ele>
        <time>2024-11-10T15:39:12Z</time>
      </trkpt>
      <trkpt lat="42.28202" lon="3.27854">
        <ele>4.6</ele>
        <time>2024-11-10T15:39:13Z</time>
      </trkpt>
      <trkpt lat="42.28203" lon="3.27852">
        <ele>4.6</ele>
        <time>2024-11-10T15:39:14Z</time>
      </trkpt>
      <trkpt lat="42.28204" lon="3.27852">
        <ele>4.7</ele>
        <time>2024-11-10T15:39:15Z</time>
      </trkpt>
      <trkpt lat="42.28205" lon="3.27851">
        <ele>4.7</ele>
        <time>2024-11-10T15:39:16Z</time>
      </trkpt>
      <trkpt lat="42.28206" lon="3.27849">
        <ele>4.7</ele>
        <time>2024-11-10T15:39:17Z</time>
      </trkpt>
      <trkpt lat="42.28207" lon="3.27848">
        <ele>4.7</ele>
        <time>2024-11-10T15:39:18Z</time>
      </trkpt>
      <trkpt lat="42.28208" lon="3.27848">
        <ele>4.7</ele>
        <time>2024-11-10T15:39:19Z</time>
      </trkpt>
      <trkpt lat="42.28208" lon="3.27847">
        <ele>4.7</ele>
        <time>2024-11-10T15:39:20Z</time>
      </trkpt>
      <trkpt lat="42.28209" lon="3.27846">
        <ele>4.7</ele>
        <time>2024-11-10T15:39:21Z</time>
      </trkpt>
      <trkpt lat="42.28209" lon="3.27845">
        <ele>4.7</ele>
        <time>2024-11-10T15:39:22Z</time>
      </trkpt>
      <trkpt lat="42.2821" lon="3.27844">
        <ele>4.7</ele>
        <time>2024-11-10T15:39:23Z</time>
      </trkpt>
      <trkpt lat="42.28211" lon="3.27843">
        <ele>4.8</ele>
        <time>2024-11-10T15:39:24Z</time>
      </trkpt>
      <trkpt lat="42.28211" lon="3.27842">
        <ele>4.8</ele>
        <time>2024-11-10T15:39:25Z</time>
      </trkpt>
      <trkpt lat="42.28212" lon="3.27841">
        <ele>4.8</ele>
        <time>2024-11-10T15:39:26Z</time>
      </trkpt>
      <trkpt lat="42.28212" lon="3.2784">
        <ele>4.8</ele>
        <time>2024-11-10T15:39:27Z</time>
      </trkpt>
      <trkpt lat="42.28213" lon="3.27839">
        <ele>4.8</ele>
        <time>2024-11-10T15:39:28Z</time>
      </trkpt>
      <trkpt lat="42.28213" lon="3.27837">
        <ele>4.8</ele>
        <time>2024-11-10T15:39:29Z</time>
      </trkpt>
      <trkpt lat="42.28214" lon="3.27836">
        <ele>4.9</ele>
        <time>2024-11-10T15:39:30Z</time>
      </trkpt>
      <trkpt lat="42.28214" lon="3.27835">
        <ele>4.9</ele>
        <time>2024-11-10T15:39:31Z</time>
      </trkpt>
      <trkpt lat="42.28215" lon="3.27833">
        <ele>4.9</ele>
        <time>2024-11-10T15:39:32Z</time>
      </trkpt>
      <trkpt lat="42.28215" lon="3.27832">
        <ele>5</ele>
        <time>2024-11-10T15:39:33Z</time>
      </trkpt>
      <trkpt lat="42.28216" lon="3.27831">
        <ele>5</ele>
        <time>2024-11-10T15:39:34Z</time>
      </trkpt>
      <trkpt lat="42.28216" lon="3.27829">
        <ele>5</ele>
        <time>2024-11-10T15:39:35Z</time>
      </trkpt>
      <trkpt lat="42.28217" lon="3.27828">
        <ele>5.1</ele>
        <time>2024-11-10T15:39:36Z</time>
      </trkpt>
      <trkpt lat="42.28217" lon="3.27827">
        <ele>5.1</ele>
        <time>2024-11-10T15:39:37Z</time>
      </trkpt>
      <trkpt lat="42.28218" lon="3.27826">
        <ele>5.2</ele>
        <time>2024-11-10T15:39:38Z</time>
      </trkpt>
      <trkpt lat="42.28218" lon="3.27825">
        <ele>5.2</ele>
        <time>2024-11-10T15:39:39Z</time>
      </trkpt>
      <trkpt lat="42.28219" lon="3.27824">
        <ele>5.2</ele>
        <time>2024-11-10T15:39:40Z</time>
      </trkpt>
      <trkpt lat="42.28219" lon="3.27823">
        <ele>5.3</ele>
        <time>2024-11-10T15:39:41Z</time>
      </trkpt>
      <trkpt lat="42.2822" lon="3.27822">
        <ele>5.4</ele>
        <time>2024-11-10T15:39:42Z</time>
      </trkpt>
      <trkpt lat="42.2822" lon="3.27821">
        <ele>5.4</ele>
        <time>2024-11-10T15:39:43Z</time>
      </trkpt>
      <trkpt lat="42.2822" lon="3.27819">
        <ele>5.5</ele>
        <time>2024-11-10T15:39:44Z</time>
      </trkpt>
      <trkpt lat="42.2822" lon="3.27818">
        <ele>5.6</ele>
        <time>2024-11-10T15:39:45Z</time>
      </trkpt>
      <trkpt lat="42.28221" lon="3.27816">
        <ele>5.7</ele>
        <time>2024-11-10T15:39:46Z</time>
      </trkpt>
      <trkpt lat="42.28221" lon="3.27815">
        <ele>5.8</ele>
        <time>2024-11-10T15:39:47Z</time>
      </trkpt>
      <trkpt lat="42.28221" lon="3.27814">
        <ele>5.9</ele>
        <time>2024-11-10T15:39:48Z</time>
      </trkpt>
      <trkpt lat="42.28221" lon="3.27812">
        <ele>6</ele>
        <time>2024-11-10T15:39:49Z</time>
      </trkpt>
      <trkpt lat="42.28221" lon="3.27811">
        <ele>6</ele>
        <time>2024-11-10T15:39:50Z</time>
      </trkpt>
      <trkpt lat="42.28222" lon="3.2781">
        <ele>6.1</ele>
        <time>2024-11-10T15:39:51Z</time>
      </trkpt>
      <trkpt lat="42.28223" lon="3.2781">
        <ele>6.2</ele>
        <time>2024-11-10T15:39:52Z</time>
      </trkpt>
      <trkpt lat="42.28223" lon="3.27808">
        <ele>6.2</ele>
        <time>2024-11-10T15:39:53Z</time>
      </trkpt>
      <trkpt lat="42.28223" lon="3.27807">
        <ele>6.3</ele>
        <time>2024-11-10T15:39:54Z</time>
      </trkpt>
      <trkpt lat="42.28223" lon="3.27806">
        <ele>6.4</ele>
        <time>2024-11-10T15:39:55Z</time>
      </trkpt>
      <trkpt lat="42.28224" lon="3.27805">
        <ele>6.5</ele>
        <time>2024-11-10T15:39:56Z</time>
      </trkpt>
      <trkpt lat="42.28224" lon="3.27805">
        <ele>6.5</ele>
        <time>2024-11-10T15:39:57Z</time>
      </trkpt>
      <trkpt lat="42.28225" lon="3.27804">
        <ele>6.6</ele>
        <time>2024-11-10T15:39:58Z</time>
      </trkpt>
      <trkpt lat="42.28225" lon="3.27803">
        <ele>6.7</ele>
        <time>2024-11-10T15:39:59Z</time>
      </trkpt>
      <trkpt lat="42.28225" lon="3.27802">
        <ele>6.7</ele>
        <time>2024-11-10T15:40:00Z</time>
      </trkpt>
      <trkpt lat="42.28226" lon="3.27801">
        <ele>6.8</ele>
        <time>2024-11-10T15:40:01Z</time>
      </trkpt>
      <trkpt lat="42.28226" lon="3.278">
        <ele>6.8</ele>
        <time>2024-11-10T15:40:02Z</time>
      </trkpt>
      <trkpt lat="42.28226" lon="3.278">
        <ele>6.9</ele>
        <time>2024-11-10T15:40:03Z</time>
      </trkpt>
      <trkpt lat="42.28226" lon="3.278">
        <ele>6.9</ele>
        <time>2024-11-10T15:40:04Z</time>
      </trkpt>
      <trkpt lat="42.28227" lon="3.27799">
        <ele>6.9</ele>
        <time>2024-11-10T15:40:05Z</time>
      </trkpt>
      <trkpt lat="42.28227" lon="3.27799">
        <ele>6.9</ele>
        <time>2024-11-10T15:40:06Z</time>
      </trkpt>
      <trkpt lat="42.28228" lon="3.27799">
        <ele>7</ele>
        <time>2024-11-10T15:40:07Z</time>
      </trkpt>
      <trkpt lat="42.28228" lon="3.27799">
        <ele>7</ele>
        <time>2024-11-10T15:40:08Z</time>
      </trkpt>
      <trkpt lat="42.28229" lon="3.27799">
        <ele>7</ele>
        <time>2024-11-10T15:40:09Z</time>
      </trkpt>
      <trkpt lat="42.28229" lon="3.27798">
        <ele>7.1</ele>
        <time>2024-11-10T15:40:10Z</time>
      </trkpt>
      <trkpt lat="42.2823" lon="3.27798">
        <ele>7.1</ele>
        <time>2024-11-10T15:40:11Z</time>
      </trkpt>
      <trkpt lat="42.28231" lon="3.27798">
        <ele>7.2</ele>
        <time>2024-11-10T15:40:12Z</time>
      </trkpt>
      <trkpt lat="42.28232" lon="3.27798">
        <ele>7.2</ele>
        <time>2024-11-10T15:40:13Z</time>
      </trkpt>
      <trkpt lat="42.28232" lon="3.27797">
        <ele>7.2</ele>
        <time>2024-11-10T15:40:14Z</time>
      </trkpt>
      <trkpt lat="42.28233" lon="3.27796">
        <ele>7.3</ele>
        <time>2024-11-10T15:40:15Z</time>
      </trkpt>
      <trkpt lat="42.28233" lon="3.27795">
        <ele>7.3</ele>
        <time>2024-11-10T15:40:16Z</time>
      </trkpt>
      <trkpt lat="42.28233" lon="3.27794">
        <ele>7.3</ele>
        <time>2024-11-10T15:40:17Z</time>
      </trkpt>
      <trkpt lat="42.28233" lon="3.27794">
        <ele>7.3</ele>
        <time>2024-11-10T15:40:18Z</time>
      </trkpt>
      <trkpt lat="42.28233" lon="3.27793">
        <ele>7.4</ele>
        <time>2024-11-10T15:40:19Z</time>
      </trkpt>
      <trkpt lat="42.28234" lon="3.27792">
        <ele>7.4</ele>
        <time>2024-11-10T15:40:20Z</time>
      </trkpt>
      <trkpt lat="42.28234" lon="3.27791">
        <ele>7.4</ele>
        <time>2024-11-10T15:40:21Z</time>
      </trkpt>
      <trkpt lat="42.28234" lon="3.27791">
        <ele>7.4</ele>
        <time>2024-11-10T15:40:22Z</time>
      </trkpt>
      <trkpt lat="42.28234" lon="3.2779">
        <ele>7.4</ele>
        <time>2024-11-10T15:40:23Z</time>
      </trkpt>
      <trkpt lat="42.28234" lon="3.27789">
        <ele>7.4</ele>
        <time>2024-11-10T15:40:24Z</time>
      </trkpt>
      <trkpt lat="42.28234" lon="3.27788">
        <ele>7.5</ele>
        <time>2024-11-10T15:40:25Z</time>
      </trkpt>
      <trkpt lat="42.28235" lon="3.27787">
        <ele>7.5</ele>
        <time>2024-11-10T15:40:26Z</time>
      </trkpt>
      <trkpt lat="42.28235" lon="3.27786">
        <ele>7.5</ele>
        <time>2024-11-10T15:40:27Z</time>
      </trkpt>
      <trkpt lat="42.28235" lon="3.27786">
        <ele>7.5</ele>
        <time>2024-11-10T15:40:28Z</time>
      </trkpt>
      <trkpt lat="42.28235" lon="3.27785">
        <ele>7.5</ele>
        <time>2024-11-10T15:40:29Z</time>
      </trkpt>
      <trkpt lat="42.28236" lon="3.27784">
        <ele>7.5</ele>
        <time>2024-11-10T15:40:30Z</time>
      </trkpt>
      <trkpt lat="42.28235" lon="3.27782">
        <ele>7.6</ele>
        <time>2024-11-10T15:40:31Z</time>
      </trkpt>
      <trkpt lat="42.28235" lon="3.27781">
        <ele>7.6</ele>
        <time>2024-11-10T15:40:32Z</time>
      </trkpt>
      <trkpt lat="42.28235" lon="3.2778">
        <ele>7.6</ele>
        <time>2024-11-10T15:40:33Z</time>
      </trkpt>
      <trkpt lat="42.28235" lon="3.27779">
        <ele>7.6</ele>
        <time>2024-11-10T15:40:34Z</time>
      </trkpt>
      <trkpt lat="42.28235" lon="3.27778">
        <ele>7.6</ele>
        <time>2024-11-10T15:40:35Z</time>
      </trkpt>
      <trkpt lat="42.28236" lon="3.27777">
        <ele>7.7</ele>
        <time>2024-11-10T15:40:36Z</time>
      </trkpt>
      <trkpt lat="42.28236" lon="3.27776">
        <ele>7.7</ele>
        <time>2024-11-10T15:40:37Z</time>
      </trkpt>
      <trkpt lat="42.28236" lon="3.27775">
        <ele>7.7</ele>
        <time>2024-11-10T15:40:38Z</time>
      </trkpt>
      <trkpt lat="42.28236" lon="3.27774">
        <ele>7.7</ele>
        <time>2024-11-10T15:40:39Z</time>
      </trkpt>
      <trkpt lat="42.28236" lon="3.27773">
        <ele>7.7</ele>
        <time>2024-11-10T15:40:40Z</time>
      </trkpt>
      <trkpt lat="42.28236" lon="3.27772">
        <ele>7.7</ele>
        <time>2024-11-10T15:40:41Z</time>
      </trkpt>
      <trkpt lat="42.28237" lon="3.27771">
        <ele>7.7</ele>
        <time>2024-11-10T15:40:42Z</time>
      </trkpt>
      <trkpt lat="42.28237" lon="3.2777">
        <ele>7.7</ele>
        <time>2024-11-10T15:40:43Z</time>
      </trkpt>
      <trkpt lat="42.28237" lon="3.27769">
        <ele>7.7</ele>
        <time>2024-11-10T15:40:44Z</time>
      </trkpt>
      <trkpt lat="42.28237" lon="3.27768">
        <ele>7.7</ele>
        <time>2024-11-10T15:40:45Z</time>
      </trkpt>
      <trkpt lat="42.28237" lon="3.27767">
        <ele>7.7</ele>
        <time>2024-11-10T15:40:46Z</time>
      </trkpt>
      <trkpt lat="42.28238" lon="3.27766">
        <ele>7.7</ele>
        <time>2024-11-10T15:40:47Z</time>
      </trkpt>
      <trkpt lat="42.28238" lon="3.27765">
        <ele>7.7</ele>
        <time>2024-11-10T15:40:48Z</time>
      </trkpt>
      <trkpt lat="42.28238" lon="3.27764">
        <ele>7.7</ele>
        <time>2024-11-10T15:40:49Z</time>
      </trkpt>
      <trkpt lat="42.28239" lon="3.27763">
        <ele>7.7</ele>
        <time>2024-11-10T15:40:50Z</time>
      </trkpt>
      <trkpt lat="42.2824" lon="3.27762">
        <ele>7.7</ele>
        <time>2024-11-10T15:40:51Z</time>
      </trkpt>
      <trkpt lat="42.2824" lon="3.27761">
        <ele>7.7</ele>
        <time>2024-11-10T15:40:52Z</time>
      </trkpt>
      <trkpt lat="42.2824" lon="3.27761">
        <ele>7.7</ele>
        <time>2024-11-10T15:40:53Z</time>
      </trkpt>
      <trkpt lat="42.2824" lon="3.2776">
        <ele>7.7</ele>
        <time>2024-11-10T15:40:54Z</time>
      </trkpt>
      <trkpt lat="42.28241" lon="3.27759">
        <ele>7.7</ele>
        <time>2024-11-10T15:40:55Z</time>
      </trkpt>
      <trkpt lat="42.28241" lon="3.27758">
        <ele>7.6</ele>
        <time>2024-11-10T15:40:56Z</time>
      </trkpt>
      <trkpt lat="42.28242" lon="3.27758">
        <ele>7.6</ele>
        <time>2024-11-10T15:40:57Z</time>
      </trkpt>
      <trkpt lat="42.28242" lon="3.27757">
        <ele>7.6</ele>
        <time>2024-11-10T15:40:58Z</time>
      </trkpt>
      <trkpt lat="42.28243" lon="3.27756">
        <ele>7.6</ele>
        <time>2024-11-10T15:40:59Z</time>
      </trkpt>
      <trkpt lat="42.28243" lon="3.27755">
        <ele>7.5</ele>
        <time>2024-11-10T15:41:00Z</time>
      </trkpt>
      <trkpt lat="42.28243" lon="3.27755">
        <ele>7.5</ele>
        <time>2024-11-10T15:41:01Z</time>
      </trkpt>
      <trkpt lat="42.28244" lon="3.27754">
        <ele>7.5</ele>
        <time>2024-11-10T15:41:02Z</time>
      </trkpt>
      <trkpt lat="42.28244" lon="3.27754">
        <ele>7.5</ele>
        <time>2024-11-10T15:41:03Z</time>
      </trkpt>
      <trkpt lat="42.28244" lon="3.27752">
        <ele>7.4</ele>
        <time>2024-11-10T15:41:04Z</time>
      </trkpt>
      <trkpt lat="42.28244" lon="3.27752">
        <ele>7.4</ele>
        <time>2024-11-10T15:41:05Z</time>
      </trkpt>
      <trkpt lat="42.28245" lon="3.27751">
        <ele>7.4</ele>
        <time>2024-11-10T15:41:06Z</time>
      </trkpt>
      <trkpt lat="42.28245" lon="3.2775">
        <ele>7.3</ele>
        <time>2024-11-10T15:41:07Z</time>
      </trkpt>
      <trkpt lat="42.28245" lon="3.27749">
        <ele>7.3</ele>
        <time>2024-11-10T15:41:08Z</time>
      </trkpt>
      <trkpt lat="42.28245" lon="3.27748">
        <ele>7.3</ele>
        <time>2024-11-10T15:41:09Z</time>
      </trkpt>
      <trkpt lat="42.28245" lon="3.27747">
        <ele>7.2</ele>
        <time>2024-11-10T15:41:10Z</time>
      </trkpt>
      <trkpt lat="42.28246" lon="3.27746">
        <ele>7.2</ele>
        <time>2024-11-10T15:41:11Z</time>
      </trkpt>
      <trkpt lat="42.28245" lon="3.27746">
        <ele>7.2</ele>
        <time>2024-11-10T15:41:12Z</time>
      </trkpt>
      <trkpt lat="42.28245" lon="3.27746">
        <ele>7.1</ele>
        <time>2024-11-10T15:41:13Z</time>
      </trkpt>
      <trkpt lat="42.28245" lon="3.27746">
        <ele>7.1</ele>
        <time>2024-11-10T15:41:14Z</time>
      </trkpt>
      <trkpt lat="42.28245" lon="3.27746">
        <ele>7.1</ele>
        <time>2024-11-10T15:41:15Z</time>
      </trkpt>
      <trkpt lat="42.28245" lon="3.27746">
        <ele>7.1</ele>
        <time>2024-11-10T15:41:16Z</time>
      </trkpt>
      <trkpt lat="42.28245" lon="3.27746">
        <ele>7.1</ele>
        <time>2024-11-10T15:41:17Z</time>
      </trkpt>
      <trkpt lat="42.28245" lon="3.27746">
        <ele>7.1</ele>
        <time>2024-11-10T15:41:18Z</time>
      </trkpt>
      <trkpt lat="42.28245" lon="3.27746">
        <ele>7.1</ele>
        <time>2024-11-10T15:41:19Z</time>
      </trkpt>
      <trkpt lat="42.28245" lon="3.27746">
        <ele>7.1</ele>
        <time>2024-11-10T15:41:20Z</time>
      </trkpt>
      <trkpt lat="42.28245" lon="3.27746">
        <ele>7.1</ele>
        <time>2024-11-10T15:41:21Z</time>
      </trkpt>
      <trkpt lat="42.28245" lon="3.27746">
        <ele>7.1</ele>
        <time>2024-11-10T15:41:22Z</time>
      </trkpt>
      <trkpt lat="42.28245" lon="3.27745">
        <ele>7.1</ele>
        <time>2024-11-10T15:41:23Z</time>
      </trkpt>
      <trkpt lat="42.28245" lon="3.27745">
        <ele>7.1</ele>
        <time>2024-11-10T15:41:24Z</time>
      </trkpt>
      <trkpt lat="42.28245" lon="3.27745">
        <ele>7.1</ele>
        <time>2024-11-10T15:41:25Z</time>
      </trkpt>
      <trkpt lat="42.28245" lon="3.27744">
        <ele>7</ele>
        <time>2024-11-10T15:41:26Z</time>
      </trkpt>
      <trkpt lat="42.28245" lon="3.27744">
        <ele>7</ele>
        <time>2024-11-10T15:41:27Z</time>
      </trkpt>
      <trkpt lat="42.28245" lon="3.27744">
        <ele>7</ele>
        <time>2024-11-10T15:41:28Z</time>
      </trkpt>
      <trkpt lat="42.28245" lon="3.27744">
        <ele>7</ele>
        <time>2024-11-10T15:41:29Z</time>
      </trkpt>
      <trkpt lat="42.28245" lon="3.27743">
        <ele>7</ele>
        <time>2024-11-10T15:41:30Z</time>
      </trkpt>
      <trkpt lat="42.28245" lon="3.27742">
        <ele>6.9</ele>
        <time>2024-11-10T15:41:31Z</time>
      </trkpt>
      <trkpt lat="42.28245" lon="3.27738">
        <ele>6.8</ele>
        <time>2024-11-10T15:41:32Z</time>
      </trkpt>
      <trkpt lat="42.28245" lon="3.27737">
        <ele>6.8</ele>
        <time>2024-11-10T15:41:33Z</time>
      </trkpt>
      <trkpt lat="42.28244" lon="3.27734">
        <ele>6.7</ele>
        <time>2024-11-10T15:41:34Z</time>
      </trkpt>
      <trkpt lat="42.28242" lon="3.27734">
        <ele>6.6</ele>
        <time>2024-11-10T15:41:35Z</time>
      </trkpt>
      <trkpt lat="42.28243" lon="3.27734">
        <ele>6.6</ele>
        <time>2024-11-10T15:41:36Z</time>
      </trkpt>
      <trkpt lat="42.28242" lon="3.27733">
        <ele>6.6</ele>
        <time>2024-11-10T15:41:37Z</time>
      </trkpt>
      <trkpt lat="42.28242" lon="3.27732">
        <ele>6.6</ele>
        <time>2024-11-10T15:41:38Z</time>
      </trkpt>
      <trkpt lat="42.28243" lon="3.27731">
        <ele>6.6</ele>
        <time>2024-11-10T15:41:39Z</time>
      </trkpt>
      <trkpt lat="42.28244" lon="3.2773">
        <ele>6.6</ele>
        <time>2024-11-10T15:41:40Z</time>
      </trkpt>
      <trkpt lat="42.28244" lon="3.27729">
        <ele>6.6</ele>
        <time>2024-11-10T15:41:41Z</time>
      </trkpt>
      <trkpt lat="42.28245" lon="3.27728">
        <ele>6.6</ele>
        <time>2024-11-10T15:41:42Z</time>
      </trkpt>
      <trkpt lat="42.28245" lon="3.27727">
        <ele>6.6</ele>
        <time>2024-11-10T15:41:43Z</time>
      </trkpt>
      <trkpt lat="42.28246" lon="3.27727">
        <ele>6.6</ele>
        <time>2024-11-10T15:41:44Z</time>
      </trkpt>
      <trkpt lat="42.28247" lon="3.27726">
        <ele>6.7</ele>
        <time>2024-11-10T15:41:45Z</time>
      </trkpt>
      <trkpt lat="42.28247" lon="3.27726">
        <ele>6.7</ele>
        <time>2024-11-10T15:41:46Z</time>
      </trkpt>
      <trkpt lat="42.28248" lon="3.27725">
        <ele>6.7</ele>
        <time>2024-11-10T15:41:47Z</time>
      </trkpt>
      <trkpt lat="42.28249" lon="3.27725">
        <ele>6.7</ele>
        <time>2024-11-10T15:41:48Z</time>
      </trkpt>
      <trkpt lat="42.2825" lon="3.27725">
        <ele>6.7</ele>
        <time>2024-11-10T15:41:49Z</time>
      </trkpt>
      <trkpt lat="42.2825" lon="3.27724">
        <ele>6.8</ele>
        <time>2024-11-10T15:41:50Z</time>
      </trkpt>
      <trkpt lat="42.28251" lon="3.27724">
        <ele>6.8</ele>
        <time>2024-11-10T15:41:51Z</time>
      </trkpt>
      <trkpt lat="42.28251" lon="3.27723">
        <ele>6.8</ele>
        <time>2024-11-10T15:41:52Z</time>
      </trkpt>
      <trkpt lat="42.28252" lon="3.27723">
        <ele>6.8</ele>
        <time>2024-11-10T15:41:53Z</time>
      </trkpt>
      <trkpt lat="42.28253" lon="3.27723">
        <ele>6.9</ele>
        <time>2024-11-10T15:41:54Z</time>
      </trkpt>
      <trkpt lat="42.28253" lon="3.27722">
        <ele>6.9</ele>
        <time>2024-11-10T15:41:55Z</time>
      </trkpt>
      <trkpt lat="42.28254" lon="3.27721">
        <ele>6.9</ele>
        <time>2024-11-10T15:41:56Z</time>
      </trkpt>
      <trkpt lat="42.28255" lon="3.27721">
        <ele>7</ele>
        <time>2024-11-10T15:41:57Z</time>
      </trkpt>
      <trkpt lat="42.28255" lon="3.2772">
        <ele>7</ele>
        <time>2024-11-10T15:41:58Z</time>
      </trkpt>
      <trkpt lat="42.28256" lon="3.2772">
        <ele>7</ele>
        <time>2024-11-10T15:41:59Z</time>
      </trkpt>
      <trkpt lat="42.28257" lon="3.2772">
        <ele>7.1</ele>
        <time>2024-11-10T15:42:00Z</time>
      </trkpt>
      <trkpt lat="42.28258" lon="3.27719">
        <ele>7.1</ele>
        <time>2024-11-10T15:42:01Z</time>
      </trkpt>
      <trkpt lat="42.28259" lon="3.2772">
        <ele>7.1</ele>
        <time>2024-11-10T15:42:02Z</time>
      </trkpt>
      <trkpt lat="42.28259" lon="3.2772">
        <ele>7.2</ele>
        <time>2024-11-10T15:42:03Z</time>
      </trkpt>
      <trkpt lat="42.28259" lon="3.27721">
        <ele>7.2</ele>
        <time>2024-11-10T15:42:04Z</time>
      </trkpt>
      <trkpt lat="42.2826" lon="3.2772">
        <ele>7.2</ele>
        <time>2024-11-10T15:42:05Z</time>
      </trkpt>
      <trkpt lat="42.2826" lon="3.2772">
        <ele>7.2</ele>
        <time>2024-11-10T15:42:06Z</time>
      </trkpt>
      <trkpt lat="42.28261" lon="3.2772">
        <ele>7.3</ele>
        <time>2024-11-10T15:42:07Z</time>
      </trkpt>
      <trkpt lat="42.28262" lon="3.27719">
        <ele>7.3</ele>
        <time>2024-11-10T15:42:08Z</time>
      </trkpt>
      <trkpt lat="42.28263" lon="3.27719">
        <ele>7.4</ele>
        <time>2024-11-10T15:42:09Z</time>
      </trkpt>
      <trkpt lat="42.28264" lon="3.27719">
        <ele>7.4</ele>
        <time>2024-11-10T15:42:10Z</time>
      </trkpt>
      <trkpt lat="42.28265" lon="3.27719">
        <ele>7.4</ele>
        <time>2024-11-10T15:42:11Z</time>
      </trkpt>
      <trkpt lat="42.28265" lon="3.27718">
        <ele>7.5</ele>
        <time>2024-11-10T15:42:12Z</time>
      </trkpt>
      <trkpt lat="42.28266" lon="3.27718">
        <ele>7.5</ele>
        <time>2024-11-10T15:42:13Z</time>
      </trkpt>
      <trkpt lat="42.28267" lon="3.27717">
        <ele>7.5</ele>
        <time>2024-11-10T15:42:14Z</time>
      </trkpt>
      <trkpt lat="42.28268" lon="3.27717">
        <ele>7.5</ele>
        <time>2024-11-10T15:42:15Z</time>
      </trkpt>
      <trkpt lat="42.28268" lon="3.27717">
        <ele>7.5</ele>
        <time>2024-11-10T15:42:16Z</time>
      </trkpt>
      <trkpt lat="42.28269" lon="3.27716">
        <ele>7.5</ele>
        <time>2024-11-10T15:42:17Z</time>
      </trkpt>
      <trkpt lat="42.2827" lon="3.27716">
        <ele>7.5</ele>
        <time>2024-11-10T15:42:18Z</time>
      </trkpt>
      <trkpt lat="42.2827" lon="3.27715">
        <ele>7.6</ele>
        <time>2024-11-10T15:42:19Z</time>
      </trkpt>
      <trkpt lat="42.28271" lon="3.27715">
        <ele>7.6</ele>
        <time>2024-11-10T15:42:20Z</time>
      </trkpt>
      <trkpt lat="42.28272" lon="3.27714">
        <ele>7.6</ele>
        <time>2024-11-10T15:42:21Z</time>
      </trkpt>
      <trkpt lat="42.28272" lon="3.27714">
        <ele>7.5</ele>
        <time>2024-11-10T15:42:22Z</time>
      </trkpt>
      <trkpt lat="42.28273" lon="3.27713">
        <ele>7.5</ele>
        <time>2024-11-10T15:42:23Z</time>
      </trkpt>
      <trkpt lat="42.28274" lon="3.27712">
        <ele>7.5</ele>
        <time>2024-11-10T15:42:24Z</time>
      </trkpt>
      <trkpt lat="42.28274" lon="3.27712">
        <ele>7.5</ele>
        <time>2024-11-10T15:42:25Z</time>
      </trkpt>
      <trkpt lat="42.28275" lon="3.2771">
        <ele>7.5</ele>
        <time>2024-11-10T15:42:26Z</time>
      </trkpt>
      <trkpt lat="42.28275" lon="3.27709">
        <ele>7.5</ele>
        <time>2024-11-10T15:42:27Z</time>
      </trkpt>
      <trkpt lat="42.28275" lon="3.27708">
        <ele>7.4</ele>
        <time>2024-11-10T15:42:28Z</time>
      </trkpt>
      <trkpt lat="42.28275" lon="3.27707">
        <ele>7.4</ele>
        <time>2024-11-10T15:42:29Z</time>
      </trkpt>
      <trkpt lat="42.28275" lon="3.27706">
        <ele>7.4</ele>
        <time>2024-11-10T15:42:30Z</time>
      </trkpt>
      <trkpt lat="42.28276" lon="3.27705">
        <ele>7.4</ele>
        <time>2024-11-10T15:42:31Z</time>
      </trkpt>
      <trkpt lat="42.28276" lon="3.27704">
        <ele>7.3</ele>
        <time>2024-11-10T15:42:32Z</time>
      </trkpt>
      <trkpt lat="42.28277" lon="3.27703">
        <ele>7.3</ele>
        <time>2024-11-10T15:42:33Z</time>
      </trkpt>
      <trkpt lat="42.28277" lon="3.27703">
        <ele>7.3</ele>
        <time>2024-11-10T15:42:34Z</time>
      </trkpt>
      <trkpt lat="42.28278" lon="3.27702">
        <ele>7.3</ele>
        <time>2024-11-10T15:42:35Z</time>
      </trkpt>
      <trkpt lat="42.28279" lon="3.27702">
        <ele>7.2</ele>
        <time>2024-11-10T15:42:36Z</time>
      </trkpt>
      <trkpt lat="42.28279" lon="3.27701">
        <ele>7.2</ele>
        <time>2024-11-10T15:42:37Z</time>
      </trkpt>
      <trkpt lat="42.2828" lon="3.277">
        <ele>7.2</ele>
        <time>2024-11-10T15:42:38Z</time>
      </trkpt>
      <trkpt lat="42.28281" lon="3.27698">
        <ele>7.1</ele>
        <time>2024-11-10T15:42:39Z</time>
      </trkpt>
      <trkpt lat="42.28281" lon="3.27697">
        <ele>7.1</ele>
        <time>2024-11-10T15:42:40Z</time>
      </trkpt>
      <trkpt lat="42.28281" lon="3.27696">
        <ele>7.1</ele>
        <time>2024-11-10T15:42:41Z</time>
      </trkpt>
      <trkpt lat="42.28281" lon="3.27695">
        <ele>7.1</ele>
        <time>2024-11-10T15:42:42Z</time>
      </trkpt>
      <trkpt lat="42.28282" lon="3.27693">
        <ele>7.1</ele>
        <time>2024-11-10T15:42:43Z</time>
      </trkpt>
      <trkpt lat="42.28282" lon="3.27693">
        <ele>7.1</ele>
        <time>2024-11-10T15:42:44Z</time>
      </trkpt>
      <trkpt lat="42.28282" lon="3.27691">
        <ele>7.1</ele>
        <time>2024-11-10T15:42:45Z</time>
      </trkpt>
      <trkpt lat="42.28281" lon="3.2769">
        <ele>7.1</ele>
        <time>2024-11-10T15:42:46Z</time>
      </trkpt>
      <trkpt lat="42.28281" lon="3.27689">
        <ele>7.1</ele>
        <time>2024-11-10T15:42:47Z</time>
      </trkpt>
      <trkpt lat="42.28281" lon="3.27688">
        <ele>7.2</ele>
        <time>2024-11-10T15:42:48Z</time>
      </trkpt>
      <trkpt lat="42.28281" lon="3.27686">
        <ele>7.2</ele>
        <time>2024-11-10T15:42:49Z</time>
      </trkpt>
      <trkpt lat="42.28282" lon="3.27685">
        <ele>7.2</ele>
        <time>2024-11-10T15:42:50Z</time>
      </trkpt>
      <trkpt lat="42.28282" lon="3.27684">
        <ele>7.2</ele>
        <time>2024-11-10T15:42:51Z</time>
      </trkpt>
      <trkpt lat="42.28282" lon="3.27683">
        <ele>7.3</ele>
        <time>2024-11-10T15:42:52Z</time>
      </trkpt>
      <trkpt lat="42.28283" lon="3.27682">
        <ele>7.3</ele>
        <time>2024-11-10T15:42:53Z</time>
      </trkpt>
      <trkpt lat="42.28283" lon="3.27681">
        <ele>7.3</ele>
        <time>2024-11-10T15:42:54Z</time>
      </trkpt>
      <trkpt lat="42.28284" lon="3.2768">
        <ele>7.3</ele>
        <time>2024-11-10T15:42:55Z</time>
      </trkpt>
      <trkpt lat="42.28285" lon="3.2768">
        <ele>7.4</ele>
        <time>2024-11-10T15:42:56Z</time>
      </trkpt>
      <trkpt lat="42.28285" lon="3.27679">
        <ele>7.4</ele>
        <time>2024-11-10T15:42:57Z</time>
      </trkpt>
      <trkpt lat="42.28286" lon="3.27678">
        <ele>7.4</ele>
        <time>2024-11-10T15:42:58Z</time>
      </trkpt>
      <trkpt lat="42.28286" lon="3.27677">
        <ele>7.5</ele>
        <time>2024-11-10T15:42:59Z</time>
      </trkpt>
      <trkpt lat="42.28287" lon="3.27676">
        <ele>7.5</ele>
        <time>2024-11-10T15:43:00Z</time>
      </trkpt>
      <trkpt lat="42.28287" lon="3.27675">
        <ele>7.5</ele>
        <time>2024-11-10T15:43:01Z</time>
      </trkpt>
      <trkpt lat="42.28288" lon="3.27674">
        <ele>7.5</ele>
        <time>2024-11-10T15:43:02Z</time>
      </trkpt>
      <trkpt lat="42.28288" lon="3.27674">
        <ele>7.6</ele>
        <time>2024-11-10T15:43:03Z</time>
      </trkpt>
      <trkpt lat="42.28288" lon="3.27673">
        <ele>7.6</ele>
        <time>2024-11-10T15:43:04Z</time>
      </trkpt>
      <trkpt lat="42.28289" lon="3.27671">
        <ele>7.6</ele>
        <time>2024-11-10T15:43:05Z</time>
      </trkpt>
      <trkpt lat="42.28289" lon="3.2767">
        <ele>7.6</ele>
        <time>2024-11-10T15:43:06Z</time>
      </trkpt>
      <trkpt lat="42.28289" lon="3.27669">
        <ele>7.6</ele>
        <time>2024-11-10T15:43:07Z</time>
      </trkpt>
      <trkpt lat="42.28289" lon="3.27667">
        <ele>7.6</ele>
        <time>2024-11-10T15:43:08Z</time>
      </trkpt>
      <trkpt lat="42.28289" lon="3.27666">
        <ele>7.7</ele>
        <time>2024-11-10T15:43:09Z</time>
      </trkpt>
      <trkpt lat="42.2829" lon="3.27665">
        <ele>7.7</ele>
        <time>2024-11-10T15:43:10Z</time>
      </trkpt>
      <trkpt lat="42.2829" lon="3.27664">
        <ele>7.7</ele>
        <time>2024-11-10T15:43:11Z</time>
      </trkpt>
      <trkpt lat="42.28291" lon="3.27663">
        <ele>7.6</ele>
        <time>2024-11-10T15:43:12Z</time>
      </trkpt>
      <trkpt lat="42.28292" lon="3.27662">
        <ele>7.6</ele>
        <time>2024-11-10T15:43:13Z</time>
      </trkpt>
      <trkpt lat="42.28293" lon="3.27661">
        <ele>7.6</ele>
        <time>2024-11-10T15:43:14Z</time>
      </trkpt>
      <trkpt lat="42.28293" lon="3.2766">
        <ele>7.6</ele>
        <time>2024-11-10T15:43:15Z</time>
      </trkpt>
      <trkpt lat="42.28295" lon="3.2766">
        <ele>7.5</ele>
        <time>2024-11-10T15:43:16Z</time>
      </trkpt>
      <trkpt lat="42.28296" lon="3.27659">
        <ele>7.5</ele>
        <time>2024-11-10T15:43:17Z</time>
      </trkpt>
      <trkpt lat="42.28297" lon="3.2766">
        <ele>7.4</ele>
        <time>2024-11-10T15:43:18Z</time>
      </trkpt>
      <trkpt lat="42.28297" lon="3.2766">
        <ele>7.4</ele>
        <time>2024-11-10T15:43:19Z</time>
      </trkpt>
      <trkpt lat="42.28298" lon="3.27659">
        <ele>7.4</ele>
        <time>2024-11-10T15:43:20Z</time>
      </trkpt>
      <trkpt lat="42.28299" lon="3.27658">
        <ele>7.3</ele>
        <time>2024-11-10T15:43:21Z</time>
      </trkpt>
      <trkpt lat="42.283" lon="3.27658">
        <ele>7.2</ele>
        <time>2024-11-10T15:43:22Z</time>
      </trkpt>
      <trkpt lat="42.283" lon="3.27657">
        <ele>7.2</ele>
        <time>2024-11-10T15:43:23Z</time>
      </trkpt>
      <trkpt lat="42.28301" lon="3.27656">
        <ele>7.1</ele>
        <time>2024-11-10T15:43:24Z</time>
      </trkpt>
      <trkpt lat="42.28302" lon="3.27655">
        <ele>7.1</ele>
        <time>2024-11-10T15:43:25Z</time>
      </trkpt>
      <trkpt lat="42.28303" lon="3.27654">
        <ele>7</ele>
        <time>2024-11-10T15:43:26Z</time>
      </trkpt>
      <trkpt lat="42.28303" lon="3.27653">
        <ele>6.9</ele>
        <time>2024-11-10T15:43:27Z</time>
      </trkpt>
      <trkpt lat="42.28304" lon="3.27651">
        <ele>6.8</ele>
        <time>2024-11-10T15:43:28Z</time>
      </trkpt>
      <trkpt lat="42.28304" lon="3.2765">
        <ele>6.7</ele>
        <time>2024-11-10T15:43:29Z</time>
      </trkpt>
      <trkpt lat="42.28304" lon="3.27648">
        <ele>6.6</ele>
        <time>2024-11-10T15:43:30Z</time>
      </trkpt>
      <trkpt lat="42.28304" lon="3.27647">
        <ele>6.5</ele>
        <time>2024-11-10T15:43:31Z</time>
      </trkpt>
      <trkpt lat="42.28304" lon="3.27646">
        <ele>6.4</ele>
        <time>2024-11-10T15:43:32Z</time>
      </trkpt>
      <trkpt lat="42.28304" lon="3.27644">
        <ele>6.4</ele>
        <time>2024-11-10T15:43:33Z</time>
      </trkpt>
      <trkpt lat="42.28305" lon="3.27643">
        <ele>6.3</ele>
        <time>2024-11-10T15:43:34Z</time>
      </trkpt>
      <trkpt lat="42.28305" lon="3.27642">
        <ele>6.2</ele>
        <time>2024-11-10T15:43:35Z</time>
      </trkpt>
      <trkpt lat="42.28305" lon="3.27641">
        <ele>6.1</ele>
        <time>2024-11-10T15:43:36Z</time>
      </trkpt>
      <trkpt lat="42.28305" lon="3.2764">
        <ele>6.1</ele>
        <time>2024-11-10T15:43:37Z</time>
      </trkpt>
      <trkpt lat="42.28305" lon="3.27639">
        <ele>6</ele>
        <time>2024-11-10T15:43:38Z</time>
      </trkpt>
      <trkpt lat="42.28305" lon="3.27638">
        <ele>5.9</ele>
        <time>2024-11-10T15:43:39Z</time>
      </trkpt>
      <trkpt lat="42.28305" lon="3.27637">
        <ele>5.9</ele>
        <time>2024-11-10T15:43:40Z</time>
      </trkpt>
      <trkpt lat="42.28305" lon="3.27636">
        <ele>5.8</ele>
        <time>2024-11-10T15:43:41Z</time>
      </trkpt>
      <trkpt lat="42.28305" lon="3.27636">
        <ele>5.8</ele>
        <time>2024-11-10T15:43:42Z</time>
      </trkpt>
      <trkpt lat="42.28305" lon="3.27635">
        <ele>5.7</ele>
        <time>2024-11-10T15:43:43Z</time>
      </trkpt>
      <trkpt lat="42.28305" lon="3.27634">
        <ele>5.7</ele>
        <time>2024-11-10T15:43:44Z</time>
      </trkpt>
      <trkpt lat="42.28305" lon="3.27633">
        <ele>5.6</ele>
        <time>2024-11-10T15:43:45Z</time>
      </trkpt>
      <trkpt lat="42.28306" lon="3.27632">
        <ele>5.6</ele>
        <time>2024-11-10T15:43:46Z</time>
      </trkpt>
      <trkpt lat="42.28306" lon="3.27632">
        <ele>5.5</ele>
        <time>2024-11-10T15:43:47Z</time>
      </trkpt>
      <trkpt lat="42.28307" lon="3.27631">
        <ele>5.5</ele>
        <time>2024-11-10T15:43:48Z</time>
      </trkpt>
      <trkpt lat="42.28307" lon="3.27629">
        <ele>5.4</ele>
        <time>2024-11-10T15:43:49Z</time>
      </trkpt>
      <trkpt lat="42.28307" lon="3.27628">
        <ele>5.3</ele>
        <time>2024-11-10T15:43:50Z</time>
      </trkpt>
      <trkpt lat="42.28307" lon="3.27628">
        <ele>5.3</ele>
        <time>2024-11-10T15:43:51Z</time>
      </trkpt>
      <trkpt lat="42.28308" lon="3.27628">
        <ele>5.3</ele>
        <time>2024-11-10T15:43:52Z</time>
      </trkpt>
      <trkpt lat="42.28308" lon="3.27628">
        <ele>5.3</ele>
        <time>2024-11-10T15:43:53Z</time>
      </trkpt>
      <trkpt lat="42.28308" lon="3.27629">
        <ele>5.3</ele>
        <time>2024-11-10T15:43:54Z</time>
      </trkpt>
      <trkpt lat="42.28308" lon="3.27629">
        <ele>5.3</ele>
        <time>2024-11-10T15:43:55Z</time>
      </trkpt>
      <trkpt lat="42.28308" lon="3.27629">
        <ele>5.3</ele>
        <time>2024-11-10T15:43:56Z</time>
      </trkpt>
      <trkpt lat="42.28308" lon="3.27629">
        <ele>5.3</ele>
        <time>2024-11-10T15:43:57Z</time>
      </trkpt>
      <trkpt lat="42.28309" lon="3.27629">
        <ele>5.2</ele>
        <time>2024-11-10T15:43:58Z</time>
      </trkpt>
      <trkpt lat="42.28309" lon="3.27629">
        <ele>5.2</ele>
        <time>2024-11-10T15:43:59Z</time>
      </trkpt>
      <trkpt lat="42.2831" lon="3.27628">
        <ele>5.2</ele>
        <time>2024-11-10T15:44:00Z</time>
      </trkpt>
      <trkpt lat="42.2831" lon="3.27627">
        <ele>5.2</ele>
        <time>2024-11-10T15:44:01Z</time>
      </trkpt>
      <trkpt lat="42.2831" lon="3.27627">
        <ele>5.2</ele>
        <time>2024-11-10T15:44:02Z</time>
      </trkpt>
      <trkpt lat="42.28311" lon="3.27625">
        <ele>5.1</ele>
        <time>2024-11-10T15:44:03Z</time>
      </trkpt>
      <trkpt lat="42.28312" lon="3.27624">
        <ele>5.1</ele>
        <time>2024-11-10T15:44:04Z</time>
      </trkpt>
      <trkpt lat="42.28313" lon="3.27621">
        <ele>5.1</ele>
        <time>2024-11-10T15:44:05Z</time>
      </trkpt>
      <trkpt lat="42.28313" lon="3.2762">
        <ele>5.1</ele>
        <time>2024-11-10T15:44:06Z</time>
      </trkpt>
      <trkpt lat="42.28314" lon="3.27619">
        <ele>5.1</ele>
        <time>2024-11-10T15:44:07Z</time>
      </trkpt>
      <trkpt lat="42.28314" lon="3.27618">
        <ele>5.1</ele>
        <time>2024-11-10T15:44:08Z</time>
      </trkpt>
      <trkpt lat="42.28315" lon="3.27616">
        <ele>5.1</ele>
        <time>2024-11-10T15:44:09Z</time>
      </trkpt>
      <trkpt lat="42.28315" lon="3.27615">
        <ele>5.2</ele>
        <time>2024-11-10T15:44:10Z</time>
      </trkpt>
      <trkpt lat="42.28315" lon="3.27614">
        <ele>5.2</ele>
        <time>2024-11-10T15:44:11Z</time>
      </trkpt>
      <trkpt lat="42.28315" lon="3.27613">
        <ele>5.2</ele>
        <time>2024-11-10T15:44:12Z</time>
      </trkpt>
      <trkpt lat="42.28315" lon="3.27612">
        <ele>5.2</ele>
        <time>2024-11-10T15:44:13Z</time>
      </trkpt>
      <trkpt lat="42.28315" lon="3.2761">
        <ele>5.3</ele>
        <time>2024-11-10T15:44:14Z</time>
      </trkpt>
      <trkpt lat="42.28315" lon="3.27608">
        <ele>5.3</ele>
        <time>2024-11-10T15:44:15Z</time>
      </trkpt>
      <trkpt lat="42.28315" lon="3.27607">
        <ele>5.4</ele>
        <time>2024-11-10T15:44:16Z</time>
      </trkpt>
      <trkpt lat="42.28315" lon="3.27606">
        <ele>5.4</ele>
        <time>2024-11-10T15:44:17Z</time>
      </trkpt>
      <trkpt lat="42.28315" lon="3.27605">
        <ele>5.4</ele>
        <time>2024-11-10T15:44:18Z</time>
      </trkpt>
      <trkpt lat="42.28315" lon="3.27604">
        <ele>5.5</ele>
        <time>2024-11-10T15:44:19Z</time>
      </trkpt>
      <trkpt lat="42.28314" lon="3.27603">
        <ele>5.5</ele>
        <time>2024-11-10T15:44:20Z</time>
      </trkpt>
      <trkpt lat="42.28314" lon="3.27603">
        <ele>5.5</ele>
        <time>2024-11-10T15:44:21Z</time>
      </trkpt>
      <trkpt lat="42.28314" lon="3.27602">
        <ele>5.6</ele>
        <time>2024-11-10T15:44:22Z</time>
      </trkpt>
      <trkpt lat="42.28315" lon="3.27601">
        <ele>5.6</ele>
        <time>2024-11-10T15:44:23Z</time>
      </trkpt>
      <trkpt lat="42.28315" lon="3.27601">
        <ele>5.6</ele>
        <time>2024-11-10T15:44:24Z</time>
      </trkpt>
      <trkpt lat="42.28316" lon="3.276">
        <ele>5.7</ele>
        <time>2024-11-10T15:44:25Z</time>
      </trkpt>
      <trkpt lat="42.28317" lon="3.27599">
        <ele>5.8</ele>
        <time>2024-11-10T15:44:26Z</time>
      </trkpt>
      <trkpt lat="42.28318" lon="3.27598">
        <ele>5.8</ele>
        <time>2024-11-10T15:44:27Z</time>
      </trkpt>
      <trkpt lat="42.28319" lon="3.27598">
        <ele>5.9</ele>
        <time>2024-11-10T15:44:28Z</time>
      </trkpt>
      <trkpt lat="42.28319" lon="3.27597">
        <ele>5.9</ele>
        <time>2024-11-10T15:44:29Z</time>
      </trkpt>
      <trkpt lat="42.2832" lon="3.27596">
        <ele>6</ele>
        <time>2024-11-10T15:44:30Z</time>
      </trkpt>
      <trkpt lat="42.28321" lon="3.27596">
        <ele>6.1</ele>
        <time>2024-11-10T15:44:31Z</time>
      </trkpt>
      <trkpt lat="42.28322" lon="3.27595">
        <ele>6.1</ele>
        <time>2024-11-10T15:44:32Z</time>
      </trkpt>
      <trkpt lat="42.28323" lon="3.27595">
        <ele>6.1</ele>
        <time>2024-11-10T15:44:33Z</time>
      </trkpt>
      <trkpt lat="42.28323" lon="3.27594">
        <ele>6.1</ele>
        <time>2024-11-10T15:44:34Z</time>
      </trkpt>
      <trkpt lat="42.28324" lon="3.27594">
        <ele>6.1</ele>
        <time>2024-11-10T15:44:35Z</time>
      </trkpt>
      <trkpt lat="42.28325" lon="3.27594">
        <ele>6.1</ele>
        <time>2024-11-10T15:44:36Z</time>
      </trkpt>
      <trkpt lat="42.28325" lon="3.27594">
        <ele>6.1</ele>
        <time>2024-11-10T15:44:37Z</time>
      </trkpt>
      <trkpt lat="42.28326" lon="3.27593">
        <ele>6.1</ele>
        <time>2024-11-10T15:44:38Z</time>
      </trkpt>
      <trkpt lat="42.28327" lon="3.27592">
        <ele>6.1</ele>
        <time>2024-11-10T15:44:39Z</time>
      </trkpt>
      <trkpt lat="42.28327" lon="3.27591">
        <ele>6.1</ele>
        <time>2024-11-10T15:44:40Z</time>
      </trkpt>
      <trkpt lat="42.28328" lon="3.2759">
        <ele>6.1</ele>
        <time>2024-11-10T15:44:41Z</time>
      </trkpt>
      <trkpt lat="42.28328" lon="3.27589">
        <ele>6.1</ele>
        <time>2024-11-10T15:44:42Z</time>
      </trkpt>
      <trkpt lat="42.28329" lon="3.27588">
        <ele>6.1</ele>
        <time>2024-11-10T15:44:43Z</time>
      </trkpt>
      <trkpt lat="42.28329" lon="3.27587">
        <ele>6.1</ele>
        <time>2024-11-10T15:44:44Z</time>
      </trkpt>
      <trkpt lat="42.28329" lon="3.27586">
        <ele>6.1</ele>
        <time>2024-11-10T15:44:45Z</time>
      </trkpt>
      <trkpt lat="42.2833" lon="3.27585">
        <ele>6.1</ele>
        <time>2024-11-10T15:44:46Z</time>
      </trkpt>
      <trkpt lat="42.2833" lon="3.27585">
        <ele>6.1</ele>
        <time>2024-11-10T15:44:47Z</time>
      </trkpt>
      <trkpt lat="42.2833" lon="3.27585">
        <ele>6.1</ele>
        <time>2024-11-10T15:44:48Z</time>
      </trkpt>
      <trkpt lat="42.28329" lon="3.27585">
        <ele>6.1</ele>
        <time>2024-11-10T15:44:49Z</time>
      </trkpt>
      <trkpt lat="42.28329" lon="3.27585">
        <ele>6.1</ele>
        <time>2024-11-10T15:44:50Z</time>
      </trkpt>
      <trkpt lat="42.28329" lon="3.27585">
        <ele>6.1</ele>
        <time>2024-11-10T15:44:51Z</time>
      </trkpt>
      <trkpt lat="42.2833" lon="3.27585">
        <ele>6.1</ele>
        <time>2024-11-10T15:44:52Z</time>
      </trkpt>
      <trkpt lat="42.2833" lon="3.27585">
        <ele>6.1</ele>
        <time>2024-11-10T15:44:53Z</time>
      </trkpt>
      <trkpt lat="42.2833" lon="3.27585">
        <ele>6.1</ele>
        <time>2024-11-10T15:44:54Z</time>
      </trkpt>
      <trkpt lat="42.2833" lon="3.27585">
        <ele>6.1</ele>
        <time>2024-11-10T15:44:55Z</time>
      </trkpt>
      <trkpt lat="42.2833" lon="3.27585">
        <ele>6.1</ele>
        <time>2024-11-10T15:44:56Z</time>
      </trkpt>
      <trkpt lat="42.28331" lon="3.27585">
        <ele>6.1</ele>
        <time>2024-11-10T15:44:57Z</time>
      </trkpt>
      <trkpt lat="42.28332" lon="3.27585">
        <ele>6.1</ele>
        <time>2024-11-10T15:44:58Z</time>
      </trkpt>
      <trkpt lat="42.28332" lon="3.27585">
        <ele>6.1</ele>
        <time>2024-11-10T15:44:59Z</time>
      </trkpt>
      <trkpt lat="42.28332" lon="3.27585">
        <ele>6.1</ele>
        <time>2024-11-10T15:45:00Z</time>
      </trkpt>
      <trkpt lat="42.28332" lon="3.27585">
        <ele>6.1</ele>
        <time>2024-11-10T15:45:01Z</time>
      </trkpt>
      <trkpt lat="42.28332" lon="3.27585">
        <ele>6.1</ele>
        <time>2024-11-10T15:45:02Z</time>
      </trkpt>
      <trkpt lat="42.28332" lon="3.27585">
        <ele>6.1</ele>
        <time>2024-11-10T15:45:03Z</time>
      </trkpt>
      <trkpt lat="42.28333" lon="3.27584">
        <ele>6.1</ele>
        <time>2024-11-10T15:45:04Z</time>
      </trkpt>
      <trkpt lat="42.28333" lon="3.27584">
        <ele>6.1</ele>
        <time>2024-11-10T15:45:05Z</time>
      </trkpt>
      <trkpt lat="42.28334" lon="3.27583">
        <ele>6.1</ele>
        <time>2024-11-10T15:45:06Z</time>
      </trkpt>
      <trkpt lat="42.28335" lon="3.27582">
        <ele>6.1</ele>
        <time>2024-11-10T15:45:07Z</time>
      </trkpt>
      <trkpt lat="42.28336" lon="3.27581">
        <ele>6.1</ele>
        <time>2024-11-10T15:45:08Z</time>
      </trkpt>
      <trkpt lat="42.28337" lon="3.27582">
        <ele>6.1</ele>
        <time>2024-11-10T15:45:09Z</time>
      </trkpt>
      <trkpt lat="42.28337" lon="3.27583">
        <ele>6.1</ele>
        <time>2024-11-10T15:45:10Z</time>
      </trkpt>
      <trkpt lat="42.28338" lon="3.27583">
        <ele>6.1</ele>
        <time>2024-11-10T15:45:11Z</time>
      </trkpt>
      <trkpt lat="42.28339" lon="3.27583">
        <ele>6.1</ele>
        <time>2024-11-10T15:45:12Z</time>
      </trkpt>
      <trkpt lat="42.2834" lon="3.27583">
        <ele>6.1</ele>
        <time>2024-11-10T15:45:13Z</time>
      </trkpt>
      <trkpt lat="42.28341" lon="3.27583">
        <ele>6.1</ele>
        <time>2024-11-10T15:45:14Z</time>
      </trkpt>
      <trkpt lat="42.28342" lon="3.27582">
        <ele>6.1</ele>
        <time>2024-11-10T15:45:15Z</time>
      </trkpt>
      <trkpt lat="42.28343" lon="3.27582">
        <ele>6.1</ele>
        <time>2024-11-10T15:45:16Z</time>
      </trkpt>
      <trkpt lat="42.28344" lon="3.27582">
        <ele>6.1</ele>
        <time>2024-11-10T15:45:17Z</time>
      </trkpt>
      <trkpt lat="42.28345" lon="3.27582">
        <ele>6</ele>
        <time>2024-11-10T15:45:18Z</time>
      </trkpt>
      <trkpt lat="42.28346" lon="3.27581">
        <ele>6</ele>
        <time>2024-11-10T15:45:19Z</time>
      </trkpt>
      <trkpt lat="42.28347" lon="3.27581">
        <ele>6</ele>
        <time>2024-11-10T15:45:20Z</time>
      </trkpt>
      <trkpt lat="42.28348" lon="3.2758">
        <ele>6</ele>
        <time>2024-11-10T15:45:21Z</time>
      </trkpt>
      <trkpt lat="42.28349" lon="3.27579">
        <ele>6</ele>
        <time>2024-11-10T15:45:22Z</time>
      </trkpt>
      <trkpt lat="42.28349" lon="3.27579">
        <ele>6</ele>
        <time>2024-11-10T15:45:23Z</time>
      </trkpt>
      <trkpt lat="42.2835" lon="3.27578">
        <ele>6</ele>
        <time>2024-11-10T15:45:24Z</time>
      </trkpt>
      <trkpt lat="42.28351" lon="3.27577">
        <ele>6</ele>
        <time>2024-11-10T15:45:25Z</time>
      </trkpt>
      <trkpt lat="42.28352" lon="3.27577">
        <ele>6</ele>
        <time>2024-11-10T15:45:26Z</time>
      </trkpt>
      <trkpt lat="42.28353" lon="3.27576">
        <ele>6</ele>
        <time>2024-11-10T15:45:27Z</time>
      </trkpt>
      <trkpt lat="42.28354" lon="3.27575">
        <ele>6</ele>
        <time>2024-11-10T15:45:28Z</time>
      </trkpt>
      <trkpt lat="42.28354" lon="3.27575">
        <ele>6</ele>
        <time>2024-11-10T15:45:29Z</time>
      </trkpt>
      <trkpt lat="42.28355" lon="3.27575">
        <ele>6</ele>
        <time>2024-11-10T15:45:30Z</time>
      </trkpt>
      <trkpt lat="42.28356" lon="3.27574">
        <ele>6</ele>
        <time>2024-11-10T15:45:31Z</time>
      </trkpt>
      <trkpt lat="42.28357" lon="3.27574">
        <ele>6</ele>
        <time>2024-11-10T15:45:32Z</time>
      </trkpt>
      <trkpt lat="42.28358" lon="3.27573">
        <ele>6</ele>
        <time>2024-11-10T15:45:33Z</time>
      </trkpt>
      <trkpt lat="42.28359" lon="3.27573">
        <ele>6</ele>
        <time>2024-11-10T15:45:34Z</time>
      </trkpt>
      <trkpt lat="42.28359" lon="3.27573">
        <ele>6</ele>
        <time>2024-11-10T15:45:35Z</time>
      </trkpt>
      <trkpt lat="42.2836" lon="3.27572">
        <ele>6</ele>
        <time>2024-11-10T15:45:36Z</time>
      </trkpt>
      <trkpt lat="42.28361" lon="3.27572">
        <ele>5.9</ele>
        <time>2024-11-10T15:45:37Z</time>
      </trkpt>
      <trkpt lat="42.28362" lon="3.27572">
        <ele>5.9</ele>
        <time>2024-11-10T15:45:38Z</time>
      </trkpt>
      <trkpt lat="42.28363" lon="3.27571">
        <ele>5.9</ele>
        <time>2024-11-10T15:45:39Z</time>
      </trkpt>
      <trkpt lat="42.28364" lon="3.27571">
        <ele>5.9</ele>
        <time>2024-11-10T15:45:40Z</time>
      </trkpt>
      <trkpt lat="42.28365" lon="3.2757">
        <ele>5.9</ele>
        <time>2024-11-10T15:45:41Z</time>
      </trkpt>
      <trkpt lat="42.28366" lon="3.27569">
        <ele>5.9</ele>
        <time>2024-11-10T15:45:42Z</time>
      </trkpt>
      <trkpt lat="42.28366" lon="3.27569">
        <ele>5.9</ele>
        <time>2024-11-10T15:45:43Z</time>
      </trkpt>
      <trkpt lat="42.28367" lon="3.27568">
        <ele>5.9</ele>
        <time>2024-11-10T15:45:44Z</time>
      </trkpt>
      <trkpt lat="42.28368" lon="3.27568">
        <ele>5.9</ele>
        <time>2024-11-10T15:45:45Z</time>
      </trkpt>
      <trkpt lat="42.28369" lon="3.27567">
        <ele>5.9</ele>
        <time>2024-11-10T15:45:46Z</time>
      </trkpt>
      <trkpt lat="42.2837" lon="3.27566">
        <ele>5.9</ele>
        <time>2024-11-10T15:45:47Z</time>
      </trkpt>
      <trkpt lat="42.28371" lon="3.27566">
        <ele>5.9</ele>
        <time>2024-11-10T15:45:48Z</time>
      </trkpt>
      <trkpt lat="42.28372" lon="3.27565">
        <ele>5.9</ele>
        <time>2024-11-10T15:45:49Z</time>
      </trkpt>
      <trkpt lat="42.28373" lon="3.27565">
        <ele>5.9</ele>
        <time>2024-11-10T15:45:50Z</time>
      </trkpt>
      <trkpt lat="42.28374" lon="3.27564">
        <ele>6</ele>
        <time>2024-11-10T15:45:51Z</time>
      </trkpt>
      <trkpt lat="42.28375" lon="3.27563">
        <ele>6</ele>
        <time>2024-11-10T15:45:52Z</time>
      </trkpt>
      <trkpt lat="42.28376" lon="3.27562">
        <ele>6</ele>
        <time>2024-11-10T15:45:53Z</time>
      </trkpt>
      <trkpt lat="42.28377" lon="3.27561">
        <ele>6</ele>
        <time>2024-11-10T15:45:54Z</time>
      </trkpt>
      <trkpt lat="42.28378" lon="3.27561">
        <ele>6</ele>
        <time>2024-11-10T15:45:55Z</time>
      </trkpt>
      <trkpt lat="42.28379" lon="3.2756">
        <ele>6</ele>
        <time>2024-11-10T15:45:56Z</time>
      </trkpt>
      <trkpt lat="42.2838" lon="3.27559">
        <ele>6</ele>
        <time>2024-11-10T15:45:57Z</time>
      </trkpt>
      <trkpt lat="42.28381" lon="3.27559">
        <ele>6</ele>
        <time>2024-11-10T15:45:58Z</time>
      </trkpt>
      <trkpt lat="42.28382" lon="3.27558">
        <ele>6</ele>
        <time>2024-11-10T15:45:59Z</time>
      </trkpt>
      <trkpt lat="42.28383" lon="3.27557">
        <ele>6</ele>
        <time>2024-11-10T15:46:00Z</time>
      </trkpt>
      <trkpt lat="42.28384" lon="3.27556">
        <ele>6</ele>
        <time>2024-11-10T15:46:01Z</time>
      </trkpt>
      <trkpt lat="42.28385" lon="3.27556">
        <ele>6.1</ele>
        <time>2024-11-10T15:46:02Z</time>
      </trkpt>
      <trkpt lat="42.28386" lon="3.27555">
        <ele>6.1</ele>
        <time>2024-11-10T15:46:03Z</time>
      </trkpt>
      <trkpt lat="42.28387" lon="3.27554">
        <ele>6.1</ele>
        <time>2024-11-10T15:46:04Z</time>
      </trkpt>
      <trkpt lat="42.28388" lon="3.27554">
        <ele>6.1</ele>
        <time>2024-11-10T15:46:05Z</time>
      </trkpt>
      <trkpt lat="42.2839" lon="3.27553">
        <ele>6.1</ele>
        <time>2024-11-10T15:46:06Z</time>
      </trkpt>
      <trkpt lat="42.28391" lon="3.27552">
        <ele>6.1</ele>
        <time>2024-11-10T15:46:07Z</time>
      </trkpt>
      <trkpt lat="42.28392" lon="3.27552">
        <ele>6.2</ele>
        <time>2024-11-10T15:46:08Z</time>
      </trkpt>
      <trkpt lat="42.28393" lon="3.27551">
        <ele>6.2</ele>
        <time>2024-11-10T15:46:09Z</time>
      </trkpt>
      <trkpt lat="42.28394" lon="3.2755">
        <ele>6.2</ele>
        <time>2024-11-10T15:46:10Z</time>
      </trkpt>
      <trkpt lat="42.28395" lon="3.27549">
        <ele>6.2</ele>
        <time>2024-11-10T15:46:11Z</time>
      </trkpt>
      <trkpt lat="42.28395" lon="3.27549">
        <ele>6.2</ele>
        <time>2024-11-10T15:46:12Z</time>
      </trkpt>
      <trkpt lat="42.28396" lon="3.27548">
        <ele>6.3</ele>
        <time>2024-11-10T15:46:13Z</time>
      </trkpt>
      <trkpt lat="42.28396" lon="3.27547">
        <ele>6.3</ele>
        <time>2024-11-10T15:46:14Z</time>
      </trkpt>
      <trkpt lat="42.28397" lon="3.27546">
        <ele>6.3</ele>
        <time>2024-11-10T15:46:15Z</time>
      </trkpt>
      <trkpt lat="42.28398" lon="3.27545">
        <ele>6.3</ele>
        <time>2024-11-10T15:46:16Z</time>
      </trkpt>
      <trkpt lat="42.28399" lon="3.27545">
        <ele>6.3</ele>
        <time>2024-11-10T15:46:17Z</time>
      </trkpt>
      <trkpt lat="42.284" lon="3.27544">
        <ele>6.4</ele>
        <time>2024-11-10T15:46:18Z</time>
      </trkpt>
      <trkpt lat="42.28401" lon="3.27543">
        <ele>6.4</ele>
        <time>2024-11-10T15:46:19Z</time>
      </trkpt>
      <trkpt lat="42.28402" lon="3.27542">
        <ele>6.4</ele>
        <time>2024-11-10T15:46:20Z</time>
      </trkpt>
      <trkpt lat="42.28403" lon="3.27542">
        <ele>6.5</ele>
        <time>2024-11-10T15:46:21Z</time>
      </trkpt>
      <trkpt lat="42.28404" lon="3.27541">
        <ele>6.5</ele>
        <time>2024-11-10T15:46:22Z</time>
      </trkpt>
      <trkpt lat="42.28405" lon="3.2754">
        <ele>6.5</ele>
        <time>2024-11-10T15:46:23Z</time>
      </trkpt>
      <trkpt lat="42.28405" lon="3.2754">
        <ele>6.5</ele>
        <time>2024-11-10T15:46:24Z</time>
      </trkpt>
      <trkpt lat="42.28406" lon="3.27539">
        <ele>6.6</ele>
        <time>2024-11-10T15:46:25Z</time>
      </trkpt>
      <trkpt lat="42.28407" lon="3.27538">
        <ele>6.6</ele>
        <time>2024-11-10T15:46:26Z</time>
      </trkpt>
      <trkpt lat="42.28408" lon="3.27537">
        <ele>6.6</ele>
        <time>2024-11-10T15:46:27Z</time>
      </trkpt>
      <trkpt lat="42.28409" lon="3.27537">
        <ele>6.6</ele>
        <time>2024-11-10T15:46:28Z</time>
      </trkpt>
      <trkpt lat="42.2841" lon="3.27536">
        <ele>6.7</ele>
        <time>2024-11-10T15:46:29Z</time>
      </trkpt>
      <trkpt lat="42.28411" lon="3.27535">
        <ele>6.7</ele>
        <time>2024-11-10T15:46:30Z</time>
      </trkpt>
      <trkpt lat="42.28412" lon="3.27534">
        <ele>6.7</ele>
        <time>2024-11-10T15:46:31Z</time>
      </trkpt>
      <trkpt lat="42.28412" lon="3.27533">
        <ele>6.8</ele>
        <time>2024-11-10T15:46:32Z</time>
      </trkpt>
      <trkpt lat="42.28413" lon="3.27533">
        <ele>6.8</ele>
        <time>2024-11-10T15:46:33Z</time>
      </trkpt>
      <trkpt lat="42.28414" lon="3.27532">
        <ele>6.8</ele>
        <time>2024-11-10T15:46:34Z</time>
      </trkpt>
      <trkpt lat="42.28415" lon="3.27531">
        <ele>6.8</ele>
        <time>2024-11-10T15:46:35Z</time>
      </trkpt>
      <trkpt lat="42.28416" lon="3.2753">
        <ele>6.9</ele>
        <time>2024-11-10T15:46:36Z</time>
      </trkpt>
      <trkpt lat="42.28417" lon="3.2753">
        <ele>6.9</ele>
        <time>2024-11-10T15:46:37Z</time>
      </trkpt>
      <trkpt lat="42.28418" lon="3.27529">
        <ele>6.9</ele>
        <time>2024-11-10T15:46:38Z</time>
      </trkpt>
      <trkpt lat="42.28419" lon="3.27529">
        <ele>7</ele>
        <time>2024-11-10T15:46:39Z</time>
      </trkpt>
      <trkpt lat="42.2842" lon="3.27529">
        <ele>7</ele>
        <time>2024-11-10T15:46:40Z</time>
      </trkpt>
      <trkpt lat="42.28421" lon="3.27528">
        <ele>7</ele>
        <time>2024-11-10T15:46:41Z</time>
      </trkpt>
      <trkpt lat="42.28423" lon="3.27528">
        <ele>7.1</ele>
        <time>2024-11-10T15:46:42Z</time>
      </trkpt>
      <trkpt lat="42.28424" lon="3.27528">
        <ele>7.1</ele>
        <time>2024-11-10T15:46:43Z</time>
      </trkpt>
      <trkpt lat="42.28425" lon="3.27527">
        <ele>7.1</ele>
        <time>2024-11-10T15:46:44Z</time>
      </trkpt>
      <trkpt lat="42.28425" lon="3.27528">
        <ele>7.2</ele>
        <time>2024-11-10T15:46:45Z</time>
      </trkpt>
      <trkpt lat="42.28426" lon="3.27529">
        <ele>7.2</ele>
        <time>2024-11-10T15:46:46Z</time>
      </trkpt>
      <trkpt lat="42.28428" lon="3.27528">
        <ele>7.2</ele>
        <time>2024-11-10T15:46:47Z</time>
      </trkpt>
      <trkpt lat="42.28429" lon="3.27528">
        <ele>7.2</ele>
        <time>2024-11-10T15:46:48Z</time>
      </trkpt>
      <trkpt lat="42.2843" lon="3.27527">
        <ele>7.2</ele>
        <time>2024-11-10T15:46:49Z</time>
      </trkpt>
      <trkpt lat="42.28433" lon="3.27526">
        <ele>7.3</ele>
        <time>2024-11-10T15:46:50Z</time>
      </trkpt>
      <trkpt lat="42.28433" lon="3.27526">
        <ele>7.3</ele>
        <time>2024-11-10T15:46:51Z</time>
      </trkpt>
      <trkpt lat="42.28434" lon="3.27526">
        <ele>7.3</ele>
        <time>2024-11-10T15:46:52Z</time>
      </trkpt>
      <trkpt lat="42.28435" lon="3.27525">
        <ele>7.4</ele>
        <time>2024-11-10T15:46:53Z</time>
      </trkpt>
      <trkpt lat="42.28437" lon="3.27525">
        <ele>7.4</ele>
        <time>2024-11-10T15:46:54Z</time>
      </trkpt>
      <trkpt lat="42.28438" lon="3.27525">
        <ele>7.5</ele>
        <time>2024-11-10T15:46:55Z</time>
      </trkpt>
      <trkpt lat="42.28439" lon="3.27526">
        <ele>7.5</ele>
        <time>2024-11-10T15:46:56Z</time>
      </trkpt>
      <trkpt lat="42.2844" lon="3.27526">
        <ele>7.6</ele>
        <time>2024-11-10T15:46:57Z</time>
      </trkpt>
      <trkpt lat="42.28442" lon="3.27526">
        <ele>7.7</ele>
        <time>2024-11-10T15:46:59Z</time>
      </trkpt>
      <trkpt lat="42.28444" lon="3.27526">
        <ele>7.7</ele>
        <time>2024-11-10T15:47:00Z</time>
      </trkpt>
      <trkpt lat="42.28445" lon="3.27526">
        <ele>7.8</ele>
        <time>2024-11-10T15:47:01Z</time>
      </trkpt>
      <trkpt lat="42.28447" lon="3.27527">
        <ele>7.9</ele>
        <time>2024-11-10T15:47:04Z</time>
      </trkpt>
      <trkpt lat="42.28448" lon="3.27527">
        <ele>7.9</ele>
        <time>2024-11-10T15:47:05Z</time>
      </trkpt>
      <trkpt lat="42.28449" lon="3.27527">
        <ele>8</ele>
        <time>2024-11-10T15:47:06Z</time>
      </trkpt>
      <trkpt lat="42.2845" lon="3.27528">
        <ele>8</ele>
        <time>2024-11-10T15:47:07Z</time>
      </trkpt>
      <trkpt lat="42.28452" lon="3.27528">
        <ele>8.1</ele>
        <time>2024-11-10T15:47:08Z</time>
      </trkpt>
      <trkpt lat="42.28453" lon="3.27529">
        <ele>8.1</ele>
        <time>2024-11-10T15:47:10Z</time>
      </trkpt>
      <trkpt lat="42.28454" lon="3.27529">
        <ele>8.2</ele>
        <time>2024-11-10T15:47:11Z</time>
      </trkpt>
      <trkpt lat="42.28455" lon="3.27529">
        <ele>8.2</ele>
        <time>2024-11-10T15:47:12Z</time>
      </trkpt>
      <trkpt lat="42.28456" lon="3.2753">
        <ele>8.3</ele>
        <time>2024-11-10T15:47:13Z</time>
      </trkpt>
      <trkpt lat="42.28457" lon="3.2753">
        <ele>8.3</ele>
        <time>2024-11-10T15:47:14Z</time>
      </trkpt>
      <trkpt lat="42.28458" lon="3.2753">
        <ele>8.4</ele>
        <time>2024-11-10T15:47:15Z</time>
      </trkpt>
    </trkseg>
  </trk>
</gpx>